<?xml version="1.0" encoding="UTF-8" standalone="no" ?>
<gpx xmlns="http://www.topografix.com/GPX/1/1" xmlns:xsi="http://www.w3.org/2001/XMLSchema-instance" xsi:schemaLocation="http://www.topografix.com/GPX/1/1 http://www.topografix.com/GPX/1/1/gpx.xsd" version="1.1" creator="VisuGPX - https://www.visugpx.com">
  <metadata>
    <name>Echappee Belle 2024 - L'Integrale</name>
    <desc><![CDATA[Parcours créé sur Trace de Trail]]></desc>
  </metadata>
  <trk>
    <name><![CDATA[Echappee Belle 2024 - Parcours Des Cretes sur TraceDeTrail.fr]]></name>
    <extensions>
      <line xmlns="http://www.topografix.com/GPX/gpx_style/0/2">
        <color>FF0000</color>
        <width>4</width>
      </line>
    </extensions>
    <trkseg>
      <trkpt lat="45.39318" lon="6.07441">
        <ele>466</ele>
        <time>2024-06-05T18:50:07+00:00</time>
      </trkpt>
      <trkpt lat="45.39295" lon="6.07417">
        <ele>468</ele>
        <time>2024-06-05T18:50:10+00:00</time>
      </trkpt>
      <trkpt lat="45.39285" lon="6.07403">
        <ele>469</ele>
        <time>2024-06-05T18:50:13+00:00</time>
      </trkpt>
      <trkpt lat="45.3928" lon="6.07396">
        <ele>469</ele>
        <time>2024-06-05T18:50:16+00:00</time>
      </trkpt>
      <trkpt lat="45.39278" lon="6.07392">
        <ele>470</ele>
        <time>2024-06-05T18:50:19+00:00</time>
      </trkpt>
      <trkpt lat="45.39271" lon="6.07379">
        <ele>471</ele>
        <time>2024-06-05T18:50:22+00:00</time>
      </trkpt>
      <trkpt lat="45.39257" lon="6.07352">
        <ele>472</ele>
        <time>2024-06-05T18:50:25+00:00</time>
      </trkpt>
      <trkpt lat="45.39254" lon="6.07342">
        <ele>473</ele>
        <time>2024-06-05T18:50:28+00:00</time>
      </trkpt>
      <trkpt lat="45.39248" lon="6.07323">
        <ele>474</ele>
        <time>2024-06-05T18:50:31+00:00</time>
      </trkpt>
      <trkpt lat="45.39234" lon="6.07275">
        <ele>477</ele>
        <time>2024-06-05T18:50:34+00:00</time>
      </trkpt>
      <trkpt lat="45.39231" lon="6.07268">
        <ele>478</ele>
        <time>2024-06-05T18:50:37+00:00</time>
      </trkpt>
      <trkpt lat="45.39229" lon="6.07264">
        <ele>478</ele>
        <time>2024-06-05T18:50:40+00:00</time>
      </trkpt>
      <trkpt lat="45.39223" lon="6.07254">
        <ele>479</ele>
        <time>2024-06-05T18:50:43+00:00</time>
      </trkpt>
      <trkpt lat="45.39213" lon="6.07244">
        <ele>477</ele>
        <time>2024-06-05T18:50:46+00:00</time>
      </trkpt>
      <trkpt lat="45.39202" lon="6.07256">
        <ele>479</ele>
        <time>2024-06-05T18:50:49+00:00</time>
      </trkpt>
      <trkpt lat="45.39196" lon="6.0727">
        <ele>477</ele>
        <time>2024-06-05T18:50:52+00:00</time>
      </trkpt>
      <trkpt lat="45.39186" lon="6.0728">
        <ele>477</ele>
        <time>2024-06-05T18:50:55+00:00</time>
      </trkpt>
      <trkpt lat="45.39178" lon="6.07288">
        <ele>477</ele>
        <time>2024-06-05T18:50:58+00:00</time>
      </trkpt>
      <trkpt lat="45.39166" lon="6.07299">
        <ele>477</ele>
        <time>2024-06-05T18:51:01+00:00</time>
      </trkpt>
      <trkpt lat="45.39149" lon="6.07315">
        <ele>476</ele>
        <time>2024-06-05T18:51:04+00:00</time>
      </trkpt>
      <trkpt lat="45.39145" lon="6.07322">
        <ele>476</ele>
        <time>2024-06-05T18:51:07+00:00</time>
      </trkpt>
      <trkpt lat="45.39152" lon="6.07335">
        <ele>475</ele>
        <time>2024-06-05T18:51:10+00:00</time>
      </trkpt>
      <trkpt lat="45.39161" lon="6.07352">
        <ele>475</ele>
        <time>2024-06-05T18:51:13+00:00</time>
      </trkpt>
      <trkpt lat="45.39165" lon="6.07371">
        <ele>474</ele>
        <time>2024-06-05T18:51:16+00:00</time>
      </trkpt>
      <trkpt lat="45.39159" lon="6.07384">
        <ele>474</ele>
        <time>2024-06-05T18:51:19+00:00</time>
      </trkpt>
      <trkpt lat="45.39154" lon="6.07405">
        <ele>473</ele>
        <time>2024-06-05T18:51:22+00:00</time>
      </trkpt>
      <trkpt lat="45.39154" lon="6.0743">
        <ele>471</ele>
        <time>2024-06-05T18:51:25+00:00</time>
      </trkpt>
      <trkpt lat="45.39157" lon="6.07441">
        <ele>469</ele>
        <time>2024-06-05T18:51:28+00:00</time>
      </trkpt>
      <trkpt lat="45.39159" lon="6.07448">
        <ele>469</ele>
        <time>2024-06-05T18:51:31+00:00</time>
      </trkpt>
      <trkpt lat="45.39161" lon="6.07454">
        <ele>468</ele>
        <time>2024-06-05T18:51:34+00:00</time>
      </trkpt>
      <trkpt lat="45.39163" lon="6.07462">
        <ele>467</ele>
        <time>2024-06-05T18:51:37+00:00</time>
      </trkpt>
      <trkpt lat="45.39182" lon="6.07488">
        <ele>471</ele>
        <time>2024-06-05T18:51:40+00:00</time>
      </trkpt>
      <trkpt lat="45.39168" lon="6.07514">
        <ele>471</ele>
        <time>2024-06-05T18:51:43+00:00</time>
      </trkpt>
      <trkpt lat="45.39172" lon="6.07518">
        <ele>472</ele>
        <time>2024-06-05T18:51:46+00:00</time>
      </trkpt>
      <trkpt lat="45.3918" lon="6.07527">
        <ele>472</ele>
        <time>2024-06-05T18:51:49+00:00</time>
      </trkpt>
      <trkpt lat="45.392" lon="6.07551">
        <ele>471</ele>
        <time>2024-06-05T18:51:52+00:00</time>
      </trkpt>
      <trkpt lat="45.39216" lon="6.0757">
        <ele>471</ele>
        <time>2024-06-05T18:51:55+00:00</time>
      </trkpt>
      <trkpt lat="45.39223" lon="6.07577">
        <ele>470</ele>
        <time>2024-06-05T18:51:58+00:00</time>
      </trkpt>
      <trkpt lat="45.39216" lon="6.07587">
        <ele>472</ele>
        <time>2024-06-05T18:52:01+00:00</time>
      </trkpt>
      <trkpt lat="45.39202" lon="6.0761">
        <ele>474</ele>
        <time>2024-06-05T18:52:04+00:00</time>
      </trkpt>
      <trkpt lat="45.392" lon="6.07617">
        <ele>477</ele>
        <time>2024-06-05T18:52:07+00:00</time>
      </trkpt>
      <trkpt lat="45.39198" lon="6.07629">
        <ele>477</ele>
        <time>2024-06-05T18:52:10+00:00</time>
      </trkpt>
      <trkpt lat="45.39199" lon="6.07657">
        <ele>478</ele>
        <time>2024-06-05T18:52:13+00:00</time>
      </trkpt>
      <trkpt lat="45.39199" lon="6.07668">
        <ele>478</ele>
        <time>2024-06-05T18:52:16+00:00</time>
      </trkpt>
      <trkpt lat="45.39199" lon="6.0768">
        <ele>478</ele>
        <time>2024-06-05T18:52:19+00:00</time>
      </trkpt>
      <trkpt lat="45.39198" lon="6.0769">
        <ele>478</ele>
        <time>2024-06-05T18:52:22+00:00</time>
      </trkpt>
      <trkpt lat="45.39196" lon="6.07708">
        <ele>478</ele>
        <time>2024-06-05T18:52:25+00:00</time>
      </trkpt>
      <trkpt lat="45.39195" lon="6.07721">
        <ele>479</ele>
        <time>2024-06-05T18:52:28+00:00</time>
      </trkpt>
      <trkpt lat="45.39192" lon="6.07736">
        <ele>479</ele>
        <time>2024-06-05T18:52:31+00:00</time>
      </trkpt>
      <trkpt lat="45.39187" lon="6.07752">
        <ele>476</ele>
        <time>2024-06-05T18:52:34+00:00</time>
      </trkpt>
      <trkpt lat="45.39191" lon="6.07764">
        <ele>478</ele>
        <time>2024-06-05T18:52:37+00:00</time>
      </trkpt>
      <trkpt lat="45.39201" lon="6.07778">
        <ele>473</ele>
        <time>2024-06-05T18:52:40+00:00</time>
      </trkpt>
      <trkpt lat="45.39204" lon="6.07781">
        <ele>476</ele>
        <time>2024-06-05T18:52:43+00:00</time>
      </trkpt>
      <trkpt lat="45.39208" lon="6.07779">
        <ele>473</ele>
        <time>2024-06-05T18:52:46+00:00</time>
      </trkpt>
      <trkpt lat="45.39219" lon="6.07763">
        <ele>474</ele>
        <time>2024-06-05T18:52:49+00:00</time>
      </trkpt>
      <trkpt lat="45.39225" lon="6.07755">
        <ele>472</ele>
        <time>2024-06-05T18:52:52+00:00</time>
      </trkpt>
      <trkpt lat="45.39229" lon="6.07753">
        <ele>472</ele>
        <time>2024-06-05T18:52:55+00:00</time>
      </trkpt>
      <trkpt lat="45.39237" lon="6.07751">
        <ele>475</ele>
        <time>2024-06-05T18:52:58+00:00</time>
      </trkpt>
      <trkpt lat="45.39246" lon="6.07748">
        <ele>474</ele>
        <time>2024-06-05T18:53:01+00:00</time>
      </trkpt>
      <trkpt lat="45.39252" lon="6.0774">
        <ele>474</ele>
        <time>2024-06-05T18:53:04+00:00</time>
      </trkpt>
      <trkpt lat="45.3926" lon="6.07732">
        <ele>477</ele>
        <time>2024-06-05T18:53:07+00:00</time>
      </trkpt>
      <trkpt lat="45.3927" lon="6.07729">
        <ele>477</ele>
        <time>2024-06-05T18:53:10+00:00</time>
      </trkpt>
      <trkpt lat="45.39277" lon="6.07729">
        <ele>477</ele>
        <time>2024-06-05T18:53:13+00:00</time>
      </trkpt>
      <trkpt lat="45.39285" lon="6.07727">
        <ele>479</ele>
        <time>2024-06-05T18:53:16+00:00</time>
      </trkpt>
      <trkpt lat="45.39291" lon="6.07729">
        <ele>480</ele>
        <time>2024-06-05T18:53:19+00:00</time>
      </trkpt>
      <trkpt lat="45.39294" lon="6.07734">
        <ele>481</ele>
        <time>2024-06-05T18:53:22+00:00</time>
      </trkpt>
      <trkpt lat="45.39292" lon="6.07741">
        <ele>482</ele>
        <time>2024-06-05T18:53:25+00:00</time>
      </trkpt>
      <trkpt lat="45.39292" lon="6.0775">
        <ele>482</ele>
        <time>2024-06-05T18:53:28+00:00</time>
      </trkpt>
      <trkpt lat="45.39292" lon="6.07763">
        <ele>486</ele>
        <time>2024-06-05T18:53:31+00:00</time>
      </trkpt>
      <trkpt lat="45.39293" lon="6.07775">
        <ele>487</ele>
        <time>2024-06-05T18:53:34+00:00</time>
      </trkpt>
      <trkpt lat="45.39296" lon="6.07788">
        <ele>491</ele>
        <time>2024-06-05T18:53:37+00:00</time>
      </trkpt>
      <trkpt lat="45.39299" lon="6.078">
        <ele>495</ele>
        <time>2024-06-05T18:53:40+00:00</time>
      </trkpt>
      <trkpt lat="45.39302" lon="6.07811">
        <ele>498</ele>
        <time>2024-06-05T18:53:43+00:00</time>
      </trkpt>
      <trkpt lat="45.3931" lon="6.07826">
        <ele>502</ele>
        <time>2024-06-05T18:53:46+00:00</time>
      </trkpt>
      <trkpt lat="45.39322" lon="6.07838">
        <ele>505</ele>
        <time>2024-06-05T18:53:49+00:00</time>
      </trkpt>
      <trkpt lat="45.39348" lon="6.07864">
        <ele>513</ele>
        <time>2024-06-05T18:53:52+00:00</time>
      </trkpt>
      <trkpt lat="45.3937" lon="6.07894">
        <ele>520</ele>
        <time>2024-06-05T18:53:55+00:00</time>
      </trkpt>
      <trkpt lat="45.39391" lon="6.079">
        <ele>522</ele>
        <time>2024-06-05T18:53:58+00:00</time>
      </trkpt>
      <trkpt lat="45.39409" lon="6.07913">
        <ele>526</ele>
        <time>2024-06-05T18:54:01+00:00</time>
      </trkpt>
      <trkpt lat="45.39422" lon="6.07932">
        <ele>531</ele>
        <time>2024-06-05T18:54:04+00:00</time>
      </trkpt>
      <trkpt lat="45.39429" lon="6.07954">
        <ele>535</ele>
        <time>2024-06-05T18:54:07+00:00</time>
      </trkpt>
      <trkpt lat="45.39438" lon="6.07966">
        <ele>538</ele>
        <time>2024-06-05T18:54:10+00:00</time>
      </trkpt>
      <trkpt lat="45.39443" lon="6.07979">
        <ele>542</ele>
        <time>2024-06-05T18:54:13+00:00</time>
      </trkpt>
      <trkpt lat="45.39446" lon="6.07993">
        <ele>544</ele>
        <time>2024-06-05T18:54:16+00:00</time>
      </trkpt>
      <trkpt lat="45.39446" lon="6.08004">
        <ele>546</ele>
        <time>2024-06-05T18:54:19+00:00</time>
      </trkpt>
      <trkpt lat="45.39443" lon="6.08015">
        <ele>548</ele>
        <time>2024-06-05T18:54:22+00:00</time>
      </trkpt>
      <trkpt lat="45.39448" lon="6.08022">
        <ele>550</ele>
        <time>2024-06-05T18:54:25+00:00</time>
      </trkpt>
      <trkpt lat="45.39467" lon="6.08051">
        <ele>554</ele>
        <time>2024-06-05T18:54:28+00:00</time>
      </trkpt>
      <trkpt lat="45.39473" lon="6.08056">
        <ele>554</ele>
        <time>2024-06-05T18:54:31+00:00</time>
      </trkpt>
      <trkpt lat="45.39488" lon="6.08064">
        <ele>556</ele>
        <time>2024-06-05T18:54:34+00:00</time>
      </trkpt>
      <trkpt lat="45.39495" lon="6.08069">
        <ele>556</ele>
        <time>2024-06-05T18:54:37+00:00</time>
      </trkpt>
      <trkpt lat="45.39509" lon="6.08083">
        <ele>558</ele>
        <time>2024-06-05T18:54:40+00:00</time>
      </trkpt>
      <trkpt lat="45.39515" lon="6.08091">
        <ele>560</ele>
        <time>2024-06-05T18:54:43+00:00</time>
      </trkpt>
      <trkpt lat="45.39531" lon="6.08116">
        <ele>561</ele>
        <time>2024-06-05T18:54:46+00:00</time>
      </trkpt>
      <trkpt lat="45.39547" lon="6.08138">
        <ele>565</ele>
        <time>2024-06-05T18:54:49+00:00</time>
      </trkpt>
      <trkpt lat="45.39556" lon="6.08154">
        <ele>569</ele>
        <time>2024-06-05T18:54:52+00:00</time>
      </trkpt>
      <trkpt lat="45.3957" lon="6.08177">
        <ele>569</ele>
        <time>2024-06-05T18:54:55+00:00</time>
      </trkpt>
      <trkpt lat="45.39585" lon="6.08207">
        <ele>575</ele>
        <time>2024-06-05T18:54:58+00:00</time>
      </trkpt>
      <trkpt lat="45.39587" lon="6.08219">
        <ele>578</ele>
        <time>2024-06-05T18:55:01+00:00</time>
      </trkpt>
      <trkpt lat="45.39598" lon="6.08258">
        <ele>585</ele>
        <time>2024-06-05T18:55:04+00:00</time>
      </trkpt>
      <trkpt lat="45.39605" lon="6.0827">
        <ele>589</ele>
        <time>2024-06-05T18:55:07+00:00</time>
      </trkpt>
      <trkpt lat="45.39618" lon="6.08289">
        <ele>590</ele>
        <time>2024-06-05T18:55:10+00:00</time>
      </trkpt>
      <trkpt lat="45.39627" lon="6.08308">
        <ele>593</ele>
        <time>2024-06-05T18:55:13+00:00</time>
      </trkpt>
      <trkpt lat="45.39638" lon="6.08331">
        <ele>600</ele>
        <time>2024-06-05T18:55:16+00:00</time>
      </trkpt>
      <trkpt lat="45.39658" lon="6.08355">
        <ele>601</ele>
        <time>2024-06-05T18:55:19+00:00</time>
      </trkpt>
      <trkpt lat="45.39682" lon="6.08385">
        <ele>609</ele>
        <time>2024-06-05T18:55:22+00:00</time>
      </trkpt>
      <trkpt lat="45.39715" lon="6.08407">
        <ele>615</ele>
        <time>2024-06-05T18:55:25+00:00</time>
      </trkpt>
      <trkpt lat="45.39756" lon="6.08441">
        <ele>625</ele>
        <time>2024-06-05T18:55:28+00:00</time>
      </trkpt>
      <trkpt lat="45.39782" lon="6.08467">
        <ele>629</ele>
        <time>2024-06-05T18:55:31+00:00</time>
      </trkpt>
      <trkpt lat="45.39785" lon="6.08482">
        <ele>637</ele>
        <time>2024-06-05T18:55:34+00:00</time>
      </trkpt>
      <trkpt lat="45.3978" lon="6.08494">
        <ele>640</ele>
        <time>2024-06-05T18:55:37+00:00</time>
      </trkpt>
      <trkpt lat="45.39759" lon="6.08486">
        <ele>641</ele>
        <time>2024-06-05T18:55:40+00:00</time>
      </trkpt>
      <trkpt lat="45.3976" lon="6.08491">
        <ele>643</ele>
        <time>2024-06-05T18:55:43+00:00</time>
      </trkpt>
      <trkpt lat="45.39759" lon="6.085">
        <ele>645</ele>
        <time>2024-06-05T18:55:46+00:00</time>
      </trkpt>
      <trkpt lat="45.39756" lon="6.08509">
        <ele>645</ele>
        <time>2024-06-05T18:55:49+00:00</time>
      </trkpt>
      <trkpt lat="45.39751" lon="6.08513">
        <ele>648</ele>
        <time>2024-06-05T18:55:52+00:00</time>
      </trkpt>
      <trkpt lat="45.39756" lon="6.08523">
        <ele>650</ele>
        <time>2024-06-05T18:55:55+00:00</time>
      </trkpt>
      <trkpt lat="45.39758" lon="6.08531">
        <ele>652</ele>
        <time>2024-06-05T18:55:58+00:00</time>
      </trkpt>
      <trkpt lat="45.39759" lon="6.08538">
        <ele>652</ele>
        <time>2024-06-05T18:56:01+00:00</time>
      </trkpt>
      <trkpt lat="45.39766" lon="6.0855">
        <ele>654</ele>
        <time>2024-06-05T18:56:04+00:00</time>
      </trkpt>
      <trkpt lat="45.39785" lon="6.0856">
        <ele>653</ele>
        <time>2024-06-05T18:56:07+00:00</time>
      </trkpt>
      <trkpt lat="45.39799" lon="6.08572">
        <ele>657</ele>
        <time>2024-06-05T18:56:10+00:00</time>
      </trkpt>
      <trkpt lat="45.3981" lon="6.08586">
        <ele>654</ele>
        <time>2024-06-05T18:56:13+00:00</time>
      </trkpt>
      <trkpt lat="45.39818" lon="6.08598">
        <ele>657</ele>
        <time>2024-06-05T18:56:16+00:00</time>
      </trkpt>
      <trkpt lat="45.39833" lon="6.08619">
        <ele>658</ele>
        <time>2024-06-05T18:56:19+00:00</time>
      </trkpt>
      <trkpt lat="45.39852" lon="6.08646">
        <ele>662</ele>
        <time>2024-06-05T18:56:22+00:00</time>
      </trkpt>
      <trkpt lat="45.39861" lon="6.08663">
        <ele>664</ele>
        <time>2024-06-05T18:56:25+00:00</time>
      </trkpt>
      <trkpt lat="45.3988" lon="6.08695">
        <ele>667</ele>
        <time>2024-06-05T18:56:28+00:00</time>
      </trkpt>
      <trkpt lat="45.39887" lon="6.08704">
        <ele>670</ele>
        <time>2024-06-05T18:56:31+00:00</time>
      </trkpt>
      <trkpt lat="45.39903" lon="6.08721">
        <ele>669</ele>
        <time>2024-06-05T18:56:34+00:00</time>
      </trkpt>
      <trkpt lat="45.39913" lon="6.08733">
        <ele>669</ele>
        <time>2024-06-05T18:56:37+00:00</time>
      </trkpt>
      <trkpt lat="45.39936" lon="6.08763">
        <ele>671</ele>
        <time>2024-06-05T18:56:40+00:00</time>
      </trkpt>
      <trkpt lat="45.3994" lon="6.0877">
        <ele>670</ele>
        <time>2024-06-05T18:56:43+00:00</time>
      </trkpt>
      <trkpt lat="45.39952" lon="6.08791">
        <ele>672</ele>
        <time>2024-06-05T18:56:46+00:00</time>
      </trkpt>
      <trkpt lat="45.39958" lon="6.08805">
        <ele>674</ele>
        <time>2024-06-05T18:56:49+00:00</time>
      </trkpt>
      <trkpt lat="45.39963" lon="6.08821">
        <ele>677</ele>
        <time>2024-06-05T18:56:52+00:00</time>
      </trkpt>
      <trkpt lat="45.39973" lon="6.08855">
        <ele>682</ele>
        <time>2024-06-05T18:56:55+00:00</time>
      </trkpt>
      <trkpt lat="45.39977" lon="6.08873">
        <ele>687</ele>
        <time>2024-06-05T18:56:58+00:00</time>
      </trkpt>
      <trkpt lat="45.39984" lon="6.0889">
        <ele>685</ele>
        <time>2024-06-05T18:57:01+00:00</time>
      </trkpt>
      <trkpt lat="45.39992" lon="6.08903">
        <ele>686</ele>
        <time>2024-06-05T18:57:04+00:00</time>
      </trkpt>
      <trkpt lat="45.4" lon="6.08917">
        <ele>685</ele>
        <time>2024-06-05T18:57:07+00:00</time>
      </trkpt>
      <trkpt lat="45.40022" lon="6.08967">
        <ele>685</ele>
        <time>2024-06-05T18:57:10+00:00</time>
      </trkpt>
      <trkpt lat="45.40026" lon="6.08977">
        <ele>687</ele>
        <time>2024-06-05T18:57:13+00:00</time>
      </trkpt>
      <trkpt lat="45.40035" lon="6.08987">
        <ele>685</ele>
        <time>2024-06-05T18:57:16+00:00</time>
      </trkpt>
      <trkpt lat="45.40052" lon="6.09015">
        <ele>686</ele>
        <time>2024-06-05T18:57:19+00:00</time>
      </trkpt>
      <trkpt lat="45.4006" lon="6.09027">
        <ele>689</ele>
        <time>2024-06-05T18:57:22+00:00</time>
      </trkpt>
      <trkpt lat="45.40068" lon="6.09035">
        <ele>686</ele>
        <time>2024-06-05T18:57:25+00:00</time>
      </trkpt>
      <trkpt lat="45.40083" lon="6.09041">
        <ele>687</ele>
        <time>2024-06-05T18:57:28+00:00</time>
      </trkpt>
      <trkpt lat="45.40089" lon="6.09043">
        <ele>687</ele>
        <time>2024-06-05T18:57:31+00:00</time>
      </trkpt>
      <trkpt lat="45.40095" lon="6.09051">
        <ele>688</ele>
        <time>2024-06-05T18:57:34+00:00</time>
      </trkpt>
      <trkpt lat="45.401" lon="6.09062">
        <ele>690</ele>
        <time>2024-06-05T18:57:37+00:00</time>
      </trkpt>
      <trkpt lat="45.40104" lon="6.09065">
        <ele>690</ele>
        <time>2024-06-05T18:57:40+00:00</time>
      </trkpt>
      <trkpt lat="45.40108" lon="6.09066">
        <ele>690</ele>
        <time>2024-06-05T18:57:43+00:00</time>
      </trkpt>
      <trkpt lat="45.40116" lon="6.09063">
        <ele>693</ele>
        <time>2024-06-05T18:57:46+00:00</time>
      </trkpt>
      <trkpt lat="45.40124" lon="6.09057">
        <ele>690</ele>
        <time>2024-06-05T18:57:49+00:00</time>
      </trkpt>
      <trkpt lat="45.40135" lon="6.09039">
        <ele>691</ele>
        <time>2024-06-05T18:57:52+00:00</time>
      </trkpt>
      <trkpt lat="45.40146" lon="6.09016">
        <ele>691</ele>
        <time>2024-06-05T18:57:55+00:00</time>
      </trkpt>
      <trkpt lat="45.40151" lon="6.09006">
        <ele>692</ele>
        <time>2024-06-05T18:57:58+00:00</time>
      </trkpt>
      <trkpt lat="45.40157" lon="6.08997">
        <ele>688</ele>
        <time>2024-06-05T18:58:01+00:00</time>
      </trkpt>
      <trkpt lat="45.40164" lon="6.08991">
        <ele>691</ele>
        <time>2024-06-05T18:58:04+00:00</time>
      </trkpt>
      <trkpt lat="45.4017" lon="6.08992">
        <ele>693</ele>
        <time>2024-06-05T18:58:07+00:00</time>
      </trkpt>
      <trkpt lat="45.40182" lon="6.09008">
        <ele>697</ele>
        <time>2024-06-05T18:58:10+00:00</time>
      </trkpt>
      <trkpt lat="45.40188" lon="6.09044">
        <ele>707</ele>
        <time>2024-06-05T18:58:13+00:00</time>
      </trkpt>
      <trkpt lat="45.40194" lon="6.09094">
        <ele>719</ele>
        <time>2024-06-05T18:58:16+00:00</time>
      </trkpt>
      <trkpt lat="45.40199" lon="6.09118">
        <ele>723</ele>
        <time>2024-06-05T18:58:19+00:00</time>
      </trkpt>
      <trkpt lat="45.40204" lon="6.09141">
        <ele>729</ele>
        <time>2024-06-05T18:58:22+00:00</time>
      </trkpt>
      <trkpt lat="45.40215" lon="6.0916">
        <ele>733</ele>
        <time>2024-06-05T18:58:25+00:00</time>
      </trkpt>
      <trkpt lat="45.40226" lon="6.09182">
        <ele>736</ele>
        <time>2024-06-05T18:58:28+00:00</time>
      </trkpt>
      <trkpt lat="45.40231" lon="6.09209">
        <ele>737</ele>
        <time>2024-06-05T18:58:31+00:00</time>
      </trkpt>
      <trkpt lat="45.40231" lon="6.09215">
        <ele>740</ele>
        <time>2024-06-05T18:58:34+00:00</time>
      </trkpt>
      <trkpt lat="45.40236" lon="6.09218">
        <ele>740</ele>
        <time>2024-06-05T18:58:37+00:00</time>
      </trkpt>
      <trkpt lat="45.40244" lon="6.09226">
        <ele>741</ele>
        <time>2024-06-05T18:58:40+00:00</time>
      </trkpt>
      <trkpt lat="45.40254" lon="6.09234">
        <ele>742</ele>
        <time>2024-06-05T18:58:43+00:00</time>
      </trkpt>
      <trkpt lat="45.4026" lon="6.09243">
        <ele>745</ele>
        <time>2024-06-05T18:58:46+00:00</time>
      </trkpt>
      <trkpt lat="45.40265" lon="6.09253">
        <ele>746</ele>
        <time>2024-06-05T18:58:49+00:00</time>
      </trkpt>
      <trkpt lat="45.40272" lon="6.09262">
        <ele>747</ele>
        <time>2024-06-05T18:58:52+00:00</time>
      </trkpt>
      <trkpt lat="45.40283" lon="6.09268">
        <ele>747</ele>
        <time>2024-06-05T18:58:55+00:00</time>
      </trkpt>
      <trkpt lat="45.40292" lon="6.09272">
        <ele>749</ele>
        <time>2024-06-05T18:58:58+00:00</time>
      </trkpt>
      <trkpt lat="45.403" lon="6.09277">
        <ele>748</ele>
        <time>2024-06-05T18:59:01+00:00</time>
      </trkpt>
      <trkpt lat="45.40307" lon="6.09283">
        <ele>750</ele>
        <time>2024-06-05T18:59:04+00:00</time>
      </trkpt>
      <trkpt lat="45.40316" lon="6.09298">
        <ele>751</ele>
        <time>2024-06-05T18:59:07+00:00</time>
      </trkpt>
      <trkpt lat="45.40325" lon="6.09309">
        <ele>752</ele>
        <time>2024-06-05T18:59:10+00:00</time>
      </trkpt>
      <trkpt lat="45.40333" lon="6.09315">
        <ele>753</ele>
        <time>2024-06-05T18:59:13+00:00</time>
      </trkpt>
      <trkpt lat="45.40365" lon="6.09332">
        <ele>755</ele>
        <time>2024-06-05T18:59:16+00:00</time>
      </trkpt>
      <trkpt lat="45.40374" lon="6.09338">
        <ele>754</ele>
        <time>2024-06-05T18:59:19+00:00</time>
      </trkpt>
      <trkpt lat="45.40403" lon="6.09355">
        <ele>756</ele>
        <time>2024-06-05T18:59:22+00:00</time>
      </trkpt>
      <trkpt lat="45.40431" lon="6.09378">
        <ele>758</ele>
        <time>2024-06-05T18:59:25+00:00</time>
      </trkpt>
      <trkpt lat="45.40454" lon="6.094">
        <ele>761</ele>
        <time>2024-06-05T18:59:28+00:00</time>
      </trkpt>
      <trkpt lat="45.40454" lon="6.09401">
        <ele>763</ele>
        <time>2024-06-05T18:59:31+00:00</time>
      </trkpt>
      <trkpt lat="45.4046" lon="6.09411">
        <ele>765</ele>
        <time>2024-06-05T18:59:34+00:00</time>
      </trkpt>
      <trkpt lat="45.40462" lon="6.09419">
        <ele>764</ele>
        <time>2024-06-05T18:59:37+00:00</time>
      </trkpt>
      <trkpt lat="45.40462" lon="6.09429">
        <ele>767</ele>
        <time>2024-06-05T18:59:40+00:00</time>
      </trkpt>
      <trkpt lat="45.40459" lon="6.09494">
        <ele>781</ele>
        <time>2024-06-05T18:59:43+00:00</time>
      </trkpt>
      <trkpt lat="45.40462" lon="6.09532">
        <ele>781</ele>
        <time>2024-06-05T18:59:46+00:00</time>
      </trkpt>
      <trkpt lat="45.40468" lon="6.09574">
        <ele>789</ele>
        <time>2024-06-05T18:59:49+00:00</time>
      </trkpt>
      <trkpt lat="45.40468" lon="6.09618">
        <ele>800</ele>
        <time>2024-06-05T18:59:52+00:00</time>
      </trkpt>
      <trkpt lat="45.40474" lon="6.09663">
        <ele>807</ele>
        <time>2024-06-05T18:59:55+00:00</time>
      </trkpt>
      <trkpt lat="45.40478" lon="6.09684">
        <ele>810</ele>
        <time>2024-06-05T18:59:58+00:00</time>
      </trkpt>
      <trkpt lat="45.40482" lon="6.09702">
        <ele>808</ele>
        <time>2024-06-05T19:00:01+00:00</time>
      </trkpt>
      <trkpt lat="45.4049" lon="6.09732">
        <ele>814</ele>
        <time>2024-06-05T19:00:04+00:00</time>
      </trkpt>
      <trkpt lat="45.40498" lon="6.09765">
        <ele>814</ele>
        <time>2024-06-05T19:00:07+00:00</time>
      </trkpt>
      <trkpt lat="45.40507" lon="6.09795">
        <ele>815</ele>
        <time>2024-06-05T19:00:10+00:00</time>
      </trkpt>
      <trkpt lat="45.40508" lon="6.09809">
        <ele>817</ele>
        <time>2024-06-05T19:00:13+00:00</time>
      </trkpt>
      <trkpt lat="45.40505" lon="6.09822">
        <ele>820</ele>
        <time>2024-06-05T19:00:16+00:00</time>
      </trkpt>
      <trkpt lat="45.40493" lon="6.09824">
        <ele>828</ele>
        <time>2024-06-05T19:00:19+00:00</time>
      </trkpt>
      <trkpt lat="45.40478" lon="6.09813">
        <ele>839</ele>
        <time>2024-06-05T19:00:22+00:00</time>
      </trkpt>
      <trkpt lat="45.40458" lon="6.09792">
        <ele>843</ele>
        <time>2024-06-05T19:00:25+00:00</time>
      </trkpt>
      <trkpt lat="45.40441" lon="6.09768">
        <ele>848</ele>
        <time>2024-06-05T19:00:28+00:00</time>
      </trkpt>
      <trkpt lat="45.40423" lon="6.09742">
        <ele>856</ele>
        <time>2024-06-05T19:00:31+00:00</time>
      </trkpt>
      <trkpt lat="45.40393" lon="6.09708">
        <ele>865</ele>
        <time>2024-06-05T19:00:34+00:00</time>
      </trkpt>
      <trkpt lat="45.40374" lon="6.09695">
        <ele>873</ele>
        <time>2024-06-05T19:00:37+00:00</time>
      </trkpt>
      <trkpt lat="45.40345" lon="6.09709">
        <ele>886</ele>
        <time>2024-06-05T19:00:40+00:00</time>
      </trkpt>
      <trkpt lat="45.40326" lon="6.09715">
        <ele>893</ele>
        <time>2024-06-05T19:00:43+00:00</time>
      </trkpt>
      <trkpt lat="45.40292" lon="6.09733">
        <ele>905</ele>
        <time>2024-06-05T19:00:46+00:00</time>
      </trkpt>
      <trkpt lat="45.40266" lon="6.09762">
        <ele>916</ele>
        <time>2024-06-05T19:00:49+00:00</time>
      </trkpt>
      <trkpt lat="45.40245" lon="6.09785">
        <ele>922</ele>
        <time>2024-06-05T19:00:52+00:00</time>
      </trkpt>
      <trkpt lat="45.40233" lon="6.09812">
        <ele>930</ele>
        <time>2024-06-05T19:00:55+00:00</time>
      </trkpt>
      <trkpt lat="45.40219" lon="6.09834">
        <ele>939</ele>
        <time>2024-06-05T19:00:58+00:00</time>
      </trkpt>
      <trkpt lat="45.40187" lon="6.09844">
        <ele>948</ele>
        <time>2024-06-05T19:01:01+00:00</time>
      </trkpt>
      <trkpt lat="45.4016" lon="6.09855">
        <ele>957</ele>
        <time>2024-06-05T19:01:04+00:00</time>
      </trkpt>
      <trkpt lat="45.40116" lon="6.09873">
        <ele>972</ele>
        <time>2024-06-05T19:01:07+00:00</time>
      </trkpt>
      <trkpt lat="45.40095" lon="6.09883">
        <ele>979</ele>
        <time>2024-06-05T19:01:10+00:00</time>
      </trkpt>
      <trkpt lat="45.40087" lon="6.09887">
        <ele>981</ele>
        <time>2024-06-05T19:01:13+00:00</time>
      </trkpt>
      <trkpt lat="45.40083" lon="6.09895">
        <ele>984</ele>
        <time>2024-06-05T19:01:16+00:00</time>
      </trkpt>
      <trkpt lat="45.40068" lon="6.09896">
        <ele>989</ele>
        <time>2024-06-05T19:01:19+00:00</time>
      </trkpt>
      <trkpt lat="45.4004" lon="6.09905">
        <ele>997</ele>
        <time>2024-06-05T19:01:22+00:00</time>
      </trkpt>
      <trkpt lat="45.40025" lon="6.09915">
        <ele>1002</ele>
        <time>2024-06-05T19:01:25+00:00</time>
      </trkpt>
      <trkpt lat="45.40018" lon="6.0992">
        <ele>1003</ele>
        <time>2024-06-05T19:01:28+00:00</time>
      </trkpt>
      <trkpt lat="45.40013" lon="6.09927">
        <ele>1006</ele>
        <time>2024-06-05T19:01:31+00:00</time>
      </trkpt>
      <trkpt lat="45.40006" lon="6.0995">
        <ele>1013</ele>
        <time>2024-06-05T19:01:34+00:00</time>
      </trkpt>
      <trkpt lat="45.40011" lon="6.09988">
        <ele>1021</ele>
        <time>2024-06-05T19:01:37+00:00</time>
      </trkpt>
      <trkpt lat="45.40022" lon="6.09999">
        <ele>1022</ele>
        <time>2024-06-05T19:01:40+00:00</time>
      </trkpt>
      <trkpt lat="45.40034" lon="6.10022">
        <ele>1030</ele>
        <time>2024-06-05T19:01:43+00:00</time>
      </trkpt>
      <trkpt lat="45.40054" lon="6.10055">
        <ele>1036</ele>
        <time>2024-06-05T19:01:46+00:00</time>
      </trkpt>
      <trkpt lat="45.40064" lon="6.10086">
        <ele>1043</ele>
        <time>2024-06-05T19:01:49+00:00</time>
      </trkpt>
      <trkpt lat="45.4008" lon="6.10113">
        <ele>1050</ele>
        <time>2024-06-05T19:01:52+00:00</time>
      </trkpt>
      <trkpt lat="45.40089" lon="6.10127">
        <ele>1054</ele>
        <time>2024-06-05T19:01:55+00:00</time>
      </trkpt>
      <trkpt lat="45.4009" lon="6.10128">
        <ele>1054</ele>
        <time>2024-06-05T19:01:58+00:00</time>
      </trkpt>
      <trkpt lat="45.40094" lon="6.10134">
        <ele>1056</ele>
        <time>2024-06-05T19:02:01+00:00</time>
      </trkpt>
      <trkpt lat="45.40101" lon="6.10148">
        <ele>1057</ele>
        <time>2024-06-05T19:02:04+00:00</time>
      </trkpt>
      <trkpt lat="45.40109" lon="6.10163">
        <ele>1063</ele>
        <time>2024-06-05T19:02:07+00:00</time>
      </trkpt>
      <trkpt lat="45.40115" lon="6.10179">
        <ele>1063</ele>
        <time>2024-06-05T19:02:10+00:00</time>
      </trkpt>
      <trkpt lat="45.40119" lon="6.1019">
        <ele>1068</ele>
        <time>2024-06-05T19:02:13+00:00</time>
      </trkpt>
      <trkpt lat="45.40134" lon="6.10213">
        <ele>1070</ele>
        <time>2024-06-05T19:02:16+00:00</time>
      </trkpt>
      <trkpt lat="45.40139" lon="6.10225">
        <ele>1072</ele>
        <time>2024-06-05T19:02:19+00:00</time>
      </trkpt>
      <trkpt lat="45.40142" lon="6.1024">
        <ele>1071</ele>
        <time>2024-06-05T19:02:22+00:00</time>
      </trkpt>
      <trkpt lat="45.40154" lon="6.10269">
        <ele>1076</ele>
        <time>2024-06-05T19:02:25+00:00</time>
      </trkpt>
      <trkpt lat="45.40161" lon="6.10283">
        <ele>1077</ele>
        <time>2024-06-05T19:02:28+00:00</time>
      </trkpt>
      <trkpt lat="45.40169" lon="6.10296">
        <ele>1076</ele>
        <time>2024-06-05T19:02:31+00:00</time>
      </trkpt>
      <trkpt lat="45.40178" lon="6.10307">
        <ele>1078</ele>
        <time>2024-06-05T19:02:34+00:00</time>
      </trkpt>
      <trkpt lat="45.40184" lon="6.10317">
        <ele>1077</ele>
        <time>2024-06-05T19:02:37+00:00</time>
      </trkpt>
      <trkpt lat="45.40192" lon="6.10326">
        <ele>1076</ele>
        <time>2024-06-05T19:02:40+00:00</time>
      </trkpt>
      <trkpt lat="45.40198" lon="6.10361">
        <ele>1079</ele>
        <time>2024-06-05T19:02:43+00:00</time>
      </trkpt>
      <trkpt lat="45.40199" lon="6.10365">
        <ele>1079</ele>
        <time>2024-06-05T19:02:46+00:00</time>
      </trkpt>
      <trkpt lat="45.40199" lon="6.1038">
        <ele>1080</ele>
        <time>2024-06-05T19:02:49+00:00</time>
      </trkpt>
      <trkpt lat="45.40195" lon="6.10406">
        <ele>1085</ele>
        <time>2024-06-05T19:02:52+00:00</time>
      </trkpt>
      <trkpt lat="45.40196" lon="6.10421">
        <ele>1088</ele>
        <time>2024-06-05T19:02:55+00:00</time>
      </trkpt>
      <trkpt lat="45.40189" lon="6.10456">
        <ele>1095</ele>
        <time>2024-06-05T19:02:58+00:00</time>
      </trkpt>
      <trkpt lat="45.40181" lon="6.10479">
        <ele>1095</ele>
        <time>2024-06-05T19:03:01+00:00</time>
      </trkpt>
      <trkpt lat="45.40168" lon="6.10509">
        <ele>1105</ele>
        <time>2024-06-05T19:03:04+00:00</time>
      </trkpt>
      <trkpt lat="45.40161" lon="6.10514">
        <ele>1104</ele>
        <time>2024-06-05T19:03:07+00:00</time>
      </trkpt>
      <trkpt lat="45.40154" lon="6.10522">
        <ele>1108</ele>
        <time>2024-06-05T19:03:10+00:00</time>
      </trkpt>
      <trkpt lat="45.4015" lon="6.1053">
        <ele>1113</ele>
        <time>2024-06-05T19:03:13+00:00</time>
      </trkpt>
      <trkpt lat="45.40147" lon="6.10539">
        <ele>1113</ele>
        <time>2024-06-05T19:03:16+00:00</time>
      </trkpt>
      <trkpt lat="45.40141" lon="6.10548">
        <ele>1112</ele>
        <time>2024-06-05T19:03:19+00:00</time>
      </trkpt>
      <trkpt lat="45.40136" lon="6.10546">
        <ele>1121</ele>
        <time>2024-06-05T19:03:22+00:00</time>
      </trkpt>
      <trkpt lat="45.40136" lon="6.10535">
        <ele>1122</ele>
        <time>2024-06-05T19:03:25+00:00</time>
      </trkpt>
      <trkpt lat="45.40132" lon="6.10522">
        <ele>1122</ele>
        <time>2024-06-05T19:03:28+00:00</time>
      </trkpt>
      <trkpt lat="45.40128" lon="6.10513">
        <ele>1129</ele>
        <time>2024-06-05T19:03:31+00:00</time>
      </trkpt>
      <trkpt lat="45.40121" lon="6.105">
        <ele>1131</ele>
        <time>2024-06-05T19:03:34+00:00</time>
      </trkpt>
      <trkpt lat="45.40113" lon="6.10484">
        <ele>1136</ele>
        <time>2024-06-05T19:03:37+00:00</time>
      </trkpt>
      <trkpt lat="45.40105" lon="6.10464">
        <ele>1143</ele>
        <time>2024-06-05T19:03:40+00:00</time>
      </trkpt>
      <trkpt lat="45.40105" lon="6.10464">
        <ele>1143</ele>
        <time>2024-06-05T19:03:43+00:00</time>
      </trkpt>
      <trkpt lat="45.40101" lon="6.10458">
        <ele>1142</ele>
        <time>2024-06-05T19:03:46+00:00</time>
      </trkpt>
      <trkpt lat="45.40098" lon="6.10454">
        <ele>1146</ele>
        <time>2024-06-05T19:03:49+00:00</time>
      </trkpt>
      <trkpt lat="45.40091" lon="6.10446">
        <ele>1144</ele>
        <time>2024-06-05T19:03:52+00:00</time>
      </trkpt>
      <trkpt lat="45.40085" lon="6.10441">
        <ele>1148</ele>
        <time>2024-06-05T19:03:55+00:00</time>
      </trkpt>
      <trkpt lat="45.40078" lon="6.10436">
        <ele>1152</ele>
        <time>2024-06-05T19:03:58+00:00</time>
      </trkpt>
      <trkpt lat="45.40071" lon="6.10437">
        <ele>1152</ele>
        <time>2024-06-05T19:04:01+00:00</time>
      </trkpt>
      <trkpt lat="45.40062" lon="6.10466">
        <ele>1162</ele>
        <time>2024-06-05T19:04:04+00:00</time>
      </trkpt>
      <trkpt lat="45.40055" lon="6.10486">
        <ele>1169</ele>
        <time>2024-06-05T19:04:07+00:00</time>
      </trkpt>
      <trkpt lat="45.40047" lon="6.10505">
        <ele>1177</ele>
        <time>2024-06-05T19:04:10+00:00</time>
      </trkpt>
      <trkpt lat="45.40045" lon="6.1051">
        <ele>1177</ele>
        <time>2024-06-05T19:04:13+00:00</time>
      </trkpt>
      <trkpt lat="45.40042" lon="6.10522">
        <ele>1179</ele>
        <time>2024-06-05T19:04:16+00:00</time>
      </trkpt>
      <trkpt lat="45.40038" lon="6.10528">
        <ele>1183</ele>
        <time>2024-06-05T19:04:19+00:00</time>
      </trkpt>
      <trkpt lat="45.40034" lon="6.10526">
        <ele>1183</ele>
        <time>2024-06-05T19:04:22+00:00</time>
      </trkpt>
      <trkpt lat="45.40032" lon="6.10518">
        <ele>1182</ele>
        <time>2024-06-05T19:04:25+00:00</time>
      </trkpt>
      <trkpt lat="45.40029" lon="6.1051">
        <ele>1185</ele>
        <time>2024-06-05T19:04:28+00:00</time>
      </trkpt>
      <trkpt lat="45.40025" lon="6.10502">
        <ele>1185</ele>
        <time>2024-06-05T19:04:31+00:00</time>
      </trkpt>
      <trkpt lat="45.40023" lon="6.10499">
        <ele>1184</ele>
        <time>2024-06-05T19:04:34+00:00</time>
      </trkpt>
      <trkpt lat="45.4002" lon="6.10492">
        <ele>1187</ele>
        <time>2024-06-05T19:04:37+00:00</time>
      </trkpt>
      <trkpt lat="45.40012" lon="6.10484">
        <ele>1186</ele>
        <time>2024-06-05T19:04:40+00:00</time>
      </trkpt>
      <trkpt lat="45.40006" lon="6.10488">
        <ele>1190</ele>
        <time>2024-06-05T19:04:43+00:00</time>
      </trkpt>
      <trkpt lat="45.39998" lon="6.10498">
        <ele>1194</ele>
        <time>2024-06-05T19:04:46+00:00</time>
      </trkpt>
      <trkpt lat="45.39992" lon="6.1051">
        <ele>1196</ele>
        <time>2024-06-05T19:04:49+00:00</time>
      </trkpt>
      <trkpt lat="45.39974" lon="6.10496">
        <ele>1200</ele>
        <time>2024-06-05T19:04:52+00:00</time>
      </trkpt>
      <trkpt lat="45.39962" lon="6.10487">
        <ele>1200</ele>
        <time>2024-06-05T19:04:55+00:00</time>
      </trkpt>
      <trkpt lat="45.39962" lon="6.10487">
        <ele>1200</ele>
        <time>2024-06-05T19:04:58+00:00</time>
      </trkpt>
      <trkpt lat="45.39956" lon="6.10483">
        <ele>1202</ele>
        <time>2024-06-05T19:05:01+00:00</time>
      </trkpt>
      <trkpt lat="45.39932" lon="6.10463">
        <ele>1202</ele>
        <time>2024-06-05T19:05:04+00:00</time>
      </trkpt>
      <trkpt lat="45.39912" lon="6.10455">
        <ele>1205</ele>
        <time>2024-06-05T19:05:07+00:00</time>
      </trkpt>
      <trkpt lat="45.39888" lon="6.10445">
        <ele>1209</ele>
        <time>2024-06-05T19:05:10+00:00</time>
      </trkpt>
      <trkpt lat="45.39855" lon="6.10433">
        <ele>1212</ele>
        <time>2024-06-05T19:05:13+00:00</time>
      </trkpt>
      <trkpt lat="45.39838" lon="6.10439">
        <ele>1214</ele>
        <time>2024-06-05T19:05:16+00:00</time>
      </trkpt>
      <trkpt lat="45.39822" lon="6.10463">
        <ele>1222</ele>
        <time>2024-06-05T19:05:19+00:00</time>
      </trkpt>
      <trkpt lat="45.39807" lon="6.10466">
        <ele>1223</ele>
        <time>2024-06-05T19:05:22+00:00</time>
      </trkpt>
      <trkpt lat="45.3978" lon="6.10475">
        <ele>1226</ele>
        <time>2024-06-05T19:05:25+00:00</time>
      </trkpt>
      <trkpt lat="45.39757" lon="6.10493">
        <ele>1235</ele>
        <time>2024-06-05T19:05:28+00:00</time>
      </trkpt>
      <trkpt lat="45.39726" lon="6.10501">
        <ele>1241</ele>
        <time>2024-06-05T19:05:31+00:00</time>
      </trkpt>
      <trkpt lat="45.39701" lon="6.10504">
        <ele>1243</ele>
        <time>2024-06-05T19:05:34+00:00</time>
      </trkpt>
      <trkpt lat="45.39675" lon="6.10508">
        <ele>1246</ele>
        <time>2024-06-05T19:05:37+00:00</time>
      </trkpt>
      <trkpt lat="45.39649" lon="6.10506">
        <ele>1248</ele>
        <time>2024-06-05T19:05:40+00:00</time>
      </trkpt>
      <trkpt lat="45.39619" lon="6.10504">
        <ele>1249</ele>
        <time>2024-06-05T19:05:43+00:00</time>
      </trkpt>
      <trkpt lat="45.39592" lon="6.10495">
        <ele>1250</ele>
        <time>2024-06-05T19:05:46+00:00</time>
      </trkpt>
      <trkpt lat="45.39556" lon="6.10482">
        <ele>1260</ele>
        <time>2024-06-05T19:05:49+00:00</time>
      </trkpt>
      <trkpt lat="45.39529" lon="6.1047">
        <ele>1266</ele>
        <time>2024-06-05T19:05:52+00:00</time>
      </trkpt>
      <trkpt lat="45.39491" lon="6.10453">
        <ele>1270</ele>
        <time>2024-06-05T19:05:55+00:00</time>
      </trkpt>
      <trkpt lat="45.39475" lon="6.1045">
        <ele>1275</ele>
        <time>2024-06-05T19:05:58+00:00</time>
      </trkpt>
      <trkpt lat="45.39461" lon="6.10452">
        <ele>1277</ele>
        <time>2024-06-05T19:06:01+00:00</time>
      </trkpt>
      <trkpt lat="45.39447" lon="6.10456">
        <ele>1280</ele>
        <time>2024-06-05T19:06:04+00:00</time>
      </trkpt>
      <trkpt lat="45.39442" lon="6.10459">
        <ele>1280</ele>
        <time>2024-06-05T19:06:07+00:00</time>
      </trkpt>
      <trkpt lat="45.39431" lon="6.10468">
        <ele>1285</ele>
        <time>2024-06-05T19:06:10+00:00</time>
      </trkpt>
      <trkpt lat="45.3942" lon="6.10471">
        <ele>1290</ele>
        <time>2024-06-05T19:06:13+00:00</time>
      </trkpt>
      <trkpt lat="45.39408" lon="6.10471">
        <ele>1294</ele>
        <time>2024-06-05T19:06:16+00:00</time>
      </trkpt>
      <trkpt lat="45.39394" lon="6.10464">
        <ele>1292</ele>
        <time>2024-06-05T19:06:19+00:00</time>
      </trkpt>
      <trkpt lat="45.39379" lon="6.10456">
        <ele>1297</ele>
        <time>2024-06-05T19:06:22+00:00</time>
      </trkpt>
      <trkpt lat="45.39366" lon="6.1045">
        <ele>1296</ele>
        <time>2024-06-05T19:06:25+00:00</time>
      </trkpt>
      <trkpt lat="45.39357" lon="6.10445">
        <ele>1301</ele>
        <time>2024-06-05T19:06:28+00:00</time>
      </trkpt>
      <trkpt lat="45.39352" lon="6.10437">
        <ele>1297</ele>
        <time>2024-06-05T19:06:31+00:00</time>
      </trkpt>
      <trkpt lat="45.39348" lon="6.10425">
        <ele>1302</ele>
        <time>2024-06-05T19:06:34+00:00</time>
      </trkpt>
      <trkpt lat="45.39343" lon="6.10416">
        <ele>1298</ele>
        <time>2024-06-05T19:06:37+00:00</time>
      </trkpt>
      <trkpt lat="45.39325" lon="6.10398">
        <ele>1303</ele>
        <time>2024-06-05T19:06:40+00:00</time>
      </trkpt>
      <trkpt lat="45.39302" lon="6.10375">
        <ele>1311</ele>
        <time>2024-06-05T19:06:43+00:00</time>
      </trkpt>
      <trkpt lat="45.39278" lon="6.10343">
        <ele>1317</ele>
        <time>2024-06-05T19:06:46+00:00</time>
      </trkpt>
      <trkpt lat="45.39274" lon="6.10338">
        <ele>1314</ele>
        <time>2024-06-05T19:06:49+00:00</time>
      </trkpt>
      <trkpt lat="45.39254" lon="6.10325">
        <ele>1317</ele>
        <time>2024-06-05T19:06:52+00:00</time>
      </trkpt>
      <trkpt lat="45.39231" lon="6.10285">
        <ele>1317</ele>
        <time>2024-06-05T19:06:55+00:00</time>
      </trkpt>
      <trkpt lat="45.39216" lon="6.1026">
        <ele>1319</ele>
        <time>2024-06-05T19:06:58+00:00</time>
      </trkpt>
      <trkpt lat="45.39193" lon="6.10253">
        <ele>1331</ele>
        <time>2024-06-05T19:07:01+00:00</time>
      </trkpt>
      <trkpt lat="45.39165" lon="6.10262">
        <ele>1335</ele>
        <time>2024-06-05T19:07:04+00:00</time>
      </trkpt>
      <trkpt lat="45.39145" lon="6.10274">
        <ele>1335</ele>
        <time>2024-06-05T19:07:07+00:00</time>
      </trkpt>
      <trkpt lat="45.39134" lon="6.10291">
        <ele>1334</ele>
        <time>2024-06-05T19:07:10+00:00</time>
      </trkpt>
      <trkpt lat="45.39128" lon="6.10312">
        <ele>1336</ele>
        <time>2024-06-05T19:07:13+00:00</time>
      </trkpt>
      <trkpt lat="45.39122" lon="6.10332">
        <ele>1337</ele>
        <time>2024-06-05T19:07:16+00:00</time>
      </trkpt>
      <trkpt lat="45.39111" lon="6.10362">
        <ele>1339</ele>
        <time>2024-06-05T19:07:19+00:00</time>
      </trkpt>
      <trkpt lat="45.39128" lon="6.10374">
        <ele>1343</ele>
        <time>2024-06-05T19:07:22+00:00</time>
      </trkpt>
      <trkpt lat="45.39139" lon="6.10384">
        <ele>1347</ele>
        <time>2024-06-05T19:07:25+00:00</time>
      </trkpt>
      <trkpt lat="45.39146" lon="6.10399">
        <ele>1352</ele>
        <time>2024-06-05T19:07:28+00:00</time>
      </trkpt>
      <trkpt lat="45.3915" lon="6.10409">
        <ele>1354</ele>
        <time>2024-06-05T19:07:31+00:00</time>
      </trkpt>
      <trkpt lat="45.39156" lon="6.10415">
        <ele>1357</ele>
        <time>2024-06-05T19:07:34+00:00</time>
      </trkpt>
      <trkpt lat="45.39186" lon="6.10412">
        <ele>1361</ele>
        <time>2024-06-05T19:07:37+00:00</time>
      </trkpt>
      <trkpt lat="45.39202" lon="6.1041">
        <ele>1362</ele>
        <time>2024-06-05T19:07:40+00:00</time>
      </trkpt>
      <trkpt lat="45.39208" lon="6.10411">
        <ele>1362</ele>
        <time>2024-06-05T19:07:43+00:00</time>
      </trkpt>
      <trkpt lat="45.39213" lon="6.10415">
        <ele>1362</ele>
        <time>2024-06-05T19:07:46+00:00</time>
      </trkpt>
      <trkpt lat="45.39216" lon="6.1042">
        <ele>1364</ele>
        <time>2024-06-05T19:07:49+00:00</time>
      </trkpt>
      <trkpt lat="45.39227" lon="6.10433">
        <ele>1366</ele>
        <time>2024-06-05T19:07:52+00:00</time>
      </trkpt>
      <trkpt lat="45.39233" lon="6.10448">
        <ele>1367</ele>
        <time>2024-06-05T19:07:55+00:00</time>
      </trkpt>
      <trkpt lat="45.39231" lon="6.10461">
        <ele>1371</ele>
        <time>2024-06-05T19:07:58+00:00</time>
      </trkpt>
      <trkpt lat="45.39229" lon="6.10472">
        <ele>1374</ele>
        <time>2024-06-05T19:08:01+00:00</time>
      </trkpt>
      <trkpt lat="45.39235" lon="6.10486">
        <ele>1376</ele>
        <time>2024-06-05T19:08:04+00:00</time>
      </trkpt>
      <trkpt lat="45.39242" lon="6.10502">
        <ele>1379</ele>
        <time>2024-06-05T19:08:07+00:00</time>
      </trkpt>
      <trkpt lat="45.39249" lon="6.10528">
        <ele>1384</ele>
        <time>2024-06-05T19:08:10+00:00</time>
      </trkpt>
      <trkpt lat="45.3925" lon="6.10538">
        <ele>1384</ele>
        <time>2024-06-05T19:08:13+00:00</time>
      </trkpt>
      <trkpt lat="45.39256" lon="6.10547">
        <ele>1387</ele>
        <time>2024-06-05T19:08:16+00:00</time>
      </trkpt>
      <trkpt lat="45.39272" lon="6.10569">
        <ele>1387</ele>
        <time>2024-06-05T19:08:19+00:00</time>
      </trkpt>
      <trkpt lat="45.39274" lon="6.1059">
        <ele>1393</ele>
        <time>2024-06-05T19:08:22+00:00</time>
      </trkpt>
      <trkpt lat="45.39299" lon="6.10606">
        <ele>1396</ele>
        <time>2024-06-05T19:08:25+00:00</time>
      </trkpt>
      <trkpt lat="45.39321" lon="6.1063">
        <ele>1396</ele>
        <time>2024-06-05T19:08:28+00:00</time>
      </trkpt>
      <trkpt lat="45.3934" lon="6.10659">
        <ele>1396</ele>
        <time>2024-06-05T19:08:31+00:00</time>
      </trkpt>
      <trkpt lat="45.39354" lon="6.10686">
        <ele>1401</ele>
        <time>2024-06-05T19:08:34+00:00</time>
      </trkpt>
      <trkpt lat="45.39363" lon="6.10716">
        <ele>1406</ele>
        <time>2024-06-05T19:08:37+00:00</time>
      </trkpt>
      <trkpt lat="45.39365" lon="6.10722">
        <ele>1408</ele>
        <time>2024-06-05T19:08:40+00:00</time>
      </trkpt>
      <trkpt lat="45.3937" lon="6.10738">
        <ele>1407</ele>
        <time>2024-06-05T19:08:43+00:00</time>
      </trkpt>
      <trkpt lat="45.3938" lon="6.10763">
        <ele>1410</ele>
        <time>2024-06-05T19:08:46+00:00</time>
      </trkpt>
      <trkpt lat="45.39356" lon="6.10781">
        <ele>1414</ele>
        <time>2024-06-05T19:08:49+00:00</time>
      </trkpt>
      <trkpt lat="45.39354" lon="6.10799">
        <ele>1415</ele>
        <time>2024-06-05T19:08:52+00:00</time>
      </trkpt>
      <trkpt lat="45.39353" lon="6.10819">
        <ele>1417</ele>
        <time>2024-06-05T19:08:55+00:00</time>
      </trkpt>
      <trkpt lat="45.39357" lon="6.10819">
        <ele>1417</ele>
        <time>2024-06-05T19:08:58+00:00</time>
      </trkpt>
      <trkpt lat="45.3936" lon="6.10821">
        <ele>1418</ele>
        <time>2024-06-05T19:09:01+00:00</time>
      </trkpt>
      <trkpt lat="45.39364" lon="6.10829">
        <ele>1418</ele>
        <time>2024-06-05T19:09:04+00:00</time>
      </trkpt>
      <trkpt lat="45.39372" lon="6.10853">
        <ele>1421</ele>
        <time>2024-06-05T19:09:07+00:00</time>
      </trkpt>
      <trkpt lat="45.39374" lon="6.1086">
        <ele>1423</ele>
        <time>2024-06-05T19:09:10+00:00</time>
      </trkpt>
      <trkpt lat="45.39375" lon="6.10869">
        <ele>1423</ele>
        <time>2024-06-05T19:09:13+00:00</time>
      </trkpt>
      <trkpt lat="45.39375" lon="6.10879">
        <ele>1425</ele>
        <time>2024-06-05T19:09:16+00:00</time>
      </trkpt>
      <trkpt lat="45.39376" lon="6.10901">
        <ele>1431</ele>
        <time>2024-06-05T19:09:19+00:00</time>
      </trkpt>
      <trkpt lat="45.39377" lon="6.10912">
        <ele>1432</ele>
        <time>2024-06-05T19:09:22+00:00</time>
      </trkpt>
      <trkpt lat="45.39381" lon="6.1093">
        <ele>1437</ele>
        <time>2024-06-05T19:09:25+00:00</time>
      </trkpt>
      <trkpt lat="45.39386" lon="6.10936">
        <ele>1437</ele>
        <time>2024-06-05T19:09:28+00:00</time>
      </trkpt>
      <trkpt lat="45.3939" lon="6.10944">
        <ele>1438</ele>
        <time>2024-06-05T19:09:31+00:00</time>
      </trkpt>
      <trkpt lat="45.39396" lon="6.10957">
        <ele>1439</ele>
        <time>2024-06-05T19:09:34+00:00</time>
      </trkpt>
      <trkpt lat="45.394" lon="6.10964">
        <ele>1441</ele>
        <time>2024-06-05T19:09:37+00:00</time>
      </trkpt>
      <trkpt lat="45.39404" lon="6.1097">
        <ele>1443</ele>
        <time>2024-06-05T19:09:40+00:00</time>
      </trkpt>
      <trkpt lat="45.39409" lon="6.10977">
        <ele>1443</ele>
        <time>2024-06-05T19:09:43+00:00</time>
      </trkpt>
      <trkpt lat="45.39414" lon="6.10984">
        <ele>1445</ele>
        <time>2024-06-05T19:09:46+00:00</time>
      </trkpt>
      <trkpt lat="45.39419" lon="6.10989">
        <ele>1445</ele>
        <time>2024-06-05T19:09:49+00:00</time>
      </trkpt>
      <trkpt lat="45.39423" lon="6.10994">
        <ele>1447</ele>
        <time>2024-06-05T19:09:52+00:00</time>
      </trkpt>
      <trkpt lat="45.39427" lon="6.11">
        <ele>1449</ele>
        <time>2024-06-05T19:09:55+00:00</time>
      </trkpt>
      <trkpt lat="45.39438" lon="6.1102">
        <ele>1451</ele>
        <time>2024-06-05T19:09:58+00:00</time>
      </trkpt>
      <trkpt lat="45.3945" lon="6.11042">
        <ele>1457</ele>
        <time>2024-06-05T19:10:01+00:00</time>
      </trkpt>
      <trkpt lat="45.39453" lon="6.11047">
        <ele>1457</ele>
        <time>2024-06-05T19:10:04+00:00</time>
      </trkpt>
      <trkpt lat="45.39457" lon="6.1105">
        <ele>1457</ele>
        <time>2024-06-05T19:10:07+00:00</time>
      </trkpt>
      <trkpt lat="45.39461" lon="6.11055">
        <ele>1460</ele>
        <time>2024-06-05T19:10:10+00:00</time>
      </trkpt>
      <trkpt lat="45.39464" lon="6.1106">
        <ele>1462</ele>
        <time>2024-06-05T19:10:13+00:00</time>
      </trkpt>
      <trkpt lat="45.39468" lon="6.11069">
        <ele>1462</ele>
        <time>2024-06-05T19:10:16+00:00</time>
      </trkpt>
      <trkpt lat="45.39478" lon="6.11096">
        <ele>1468</ele>
        <time>2024-06-05T19:10:19+00:00</time>
      </trkpt>
      <trkpt lat="45.39491" lon="6.11128">
        <ele>1473</ele>
        <time>2024-06-05T19:10:22+00:00</time>
      </trkpt>
      <trkpt lat="45.39492" lon="6.11132">
        <ele>1475</ele>
        <time>2024-06-05T19:10:25+00:00</time>
      </trkpt>
      <trkpt lat="45.39495" lon="6.11142">
        <ele>1476</ele>
        <time>2024-06-05T19:10:28+00:00</time>
      </trkpt>
      <trkpt lat="45.39498" lon="6.11162">
        <ele>1479</ele>
        <time>2024-06-05T19:10:31+00:00</time>
      </trkpt>
      <trkpt lat="45.39515" lon="6.11215">
        <ele>1486</ele>
        <time>2024-06-05T19:10:34+00:00</time>
      </trkpt>
      <trkpt lat="45.39527" lon="6.11249">
        <ele>1490</ele>
        <time>2024-06-05T19:10:37+00:00</time>
      </trkpt>
      <trkpt lat="45.39529" lon="6.11256">
        <ele>1491</ele>
        <time>2024-06-05T19:10:40+00:00</time>
      </trkpt>
      <trkpt lat="45.3953" lon="6.11267">
        <ele>1491</ele>
        <time>2024-06-05T19:10:43+00:00</time>
      </trkpt>
      <trkpt lat="45.3953" lon="6.11275">
        <ele>1494</ele>
        <time>2024-06-05T19:10:46+00:00</time>
      </trkpt>
      <trkpt lat="45.3953" lon="6.11281">
        <ele>1495</ele>
        <time>2024-06-05T19:10:49+00:00</time>
      </trkpt>
      <trkpt lat="45.39529" lon="6.11291">
        <ele>1497</ele>
        <time>2024-06-05T19:10:52+00:00</time>
      </trkpt>
      <trkpt lat="45.39527" lon="6.11312">
        <ele>1500</ele>
        <time>2024-06-05T19:10:55+00:00</time>
      </trkpt>
      <trkpt lat="45.39526" lon="6.11322">
        <ele>1502</ele>
        <time>2024-06-05T19:10:58+00:00</time>
      </trkpt>
      <trkpt lat="45.39524" lon="6.11336">
        <ele>1504</ele>
        <time>2024-06-05T19:11:01+00:00</time>
      </trkpt>
      <trkpt lat="45.39519" lon="6.11357">
        <ele>1508</ele>
        <time>2024-06-05T19:11:04+00:00</time>
      </trkpt>
      <trkpt lat="45.39514" lon="6.11379">
        <ele>1511</ele>
        <time>2024-06-05T19:11:07+00:00</time>
      </trkpt>
      <trkpt lat="45.39511" lon="6.11387">
        <ele>1512</ele>
        <time>2024-06-05T19:11:10+00:00</time>
      </trkpt>
      <trkpt lat="45.39508" lon="6.11394">
        <ele>1515</ele>
        <time>2024-06-05T19:11:13+00:00</time>
      </trkpt>
      <trkpt lat="45.39499" lon="6.11403">
        <ele>1518</ele>
        <time>2024-06-05T19:11:16+00:00</time>
      </trkpt>
      <trkpt lat="45.39495" lon="6.11406">
        <ele>1518</ele>
        <time>2024-06-05T19:11:19+00:00</time>
      </trkpt>
      <trkpt lat="45.39491" lon="6.11408">
        <ele>1518</ele>
        <time>2024-06-05T19:11:22+00:00</time>
      </trkpt>
      <trkpt lat="45.39469" lon="6.11421">
        <ele>1525</ele>
        <time>2024-06-05T19:11:25+00:00</time>
      </trkpt>
      <trkpt lat="45.39444" lon="6.1143">
        <ele>1528</ele>
        <time>2024-06-05T19:11:28+00:00</time>
      </trkpt>
      <trkpt lat="45.39436" lon="6.11432">
        <ele>1531</ele>
        <time>2024-06-05T19:11:31+00:00</time>
      </trkpt>
      <trkpt lat="45.39421" lon="6.11436">
        <ele>1533</ele>
        <time>2024-06-05T19:11:34+00:00</time>
      </trkpt>
      <trkpt lat="45.39412" lon="6.11439">
        <ele>1535</ele>
        <time>2024-06-05T19:11:37+00:00</time>
      </trkpt>
      <trkpt lat="45.39408" lon="6.1144">
        <ele>1537</ele>
        <time>2024-06-05T19:11:40+00:00</time>
      </trkpt>
      <trkpt lat="45.39406" lon="6.11442">
        <ele>1537</ele>
        <time>2024-06-05T19:11:43+00:00</time>
      </trkpt>
      <trkpt lat="45.39405" lon="6.11444">
        <ele>1537</ele>
        <time>2024-06-05T19:11:46+00:00</time>
      </trkpt>
      <trkpt lat="45.39403" lon="6.11449">
        <ele>1537</ele>
        <time>2024-06-05T19:11:49+00:00</time>
      </trkpt>
      <trkpt lat="45.39402" lon="6.11454">
        <ele>1539</ele>
        <time>2024-06-05T19:11:52+00:00</time>
      </trkpt>
      <trkpt lat="45.39402" lon="6.11459">
        <ele>1539</ele>
        <time>2024-06-05T19:11:55+00:00</time>
      </trkpt>
      <trkpt lat="45.39401" lon="6.11466">
        <ele>1540</ele>
        <time>2024-06-05T19:11:58+00:00</time>
      </trkpt>
      <trkpt lat="45.39398" lon="6.11489">
        <ele>1544</ele>
        <time>2024-06-05T19:12:01+00:00</time>
      </trkpt>
      <trkpt lat="45.39397" lon="6.115">
        <ele>1546</ele>
        <time>2024-06-05T19:12:04+00:00</time>
      </trkpt>
      <trkpt lat="45.39391" lon="6.11523">
        <ele>1548</ele>
        <time>2024-06-05T19:12:07+00:00</time>
      </trkpt>
      <trkpt lat="45.39388" lon="6.11531">
        <ele>1550</ele>
        <time>2024-06-05T19:12:10+00:00</time>
      </trkpt>
      <trkpt lat="45.39379" lon="6.11553">
        <ele>1555</ele>
        <time>2024-06-05T19:12:13+00:00</time>
      </trkpt>
      <trkpt lat="45.39375" lon="6.1156">
        <ele>1555</ele>
        <time>2024-06-05T19:12:16+00:00</time>
      </trkpt>
      <trkpt lat="45.39368" lon="6.11571">
        <ele>1557</ele>
        <time>2024-06-05T19:12:19+00:00</time>
      </trkpt>
      <trkpt lat="45.39364" lon="6.11577">
        <ele>1557</ele>
        <time>2024-06-05T19:12:22+00:00</time>
      </trkpt>
      <trkpt lat="45.3936" lon="6.1158">
        <ele>1559</ele>
        <time>2024-06-05T19:12:25+00:00</time>
      </trkpt>
      <trkpt lat="45.39356" lon="6.11582">
        <ele>1559</ele>
        <time>2024-06-05T19:12:28+00:00</time>
      </trkpt>
      <trkpt lat="45.39351" lon="6.11583">
        <ele>1559</ele>
        <time>2024-06-05T19:12:31+00:00</time>
      </trkpt>
      <trkpt lat="45.39346" lon="6.11584">
        <ele>1561</ele>
        <time>2024-06-05T19:12:34+00:00</time>
      </trkpt>
      <trkpt lat="45.39342" lon="6.11583">
        <ele>1561</ele>
        <time>2024-06-05T19:12:37+00:00</time>
      </trkpt>
      <trkpt lat="45.39339" lon="6.11582">
        <ele>1561</ele>
        <time>2024-06-05T19:12:40+00:00</time>
      </trkpt>
      <trkpt lat="45.39336" lon="6.11579">
        <ele>1561</ele>
        <time>2024-06-05T19:12:43+00:00</time>
      </trkpt>
      <trkpt lat="45.39332" lon="6.11574">
        <ele>1561</ele>
        <time>2024-06-05T19:12:46+00:00</time>
      </trkpt>
      <trkpt lat="45.39326" lon="6.11573">
        <ele>1562</ele>
        <time>2024-06-05T19:12:49+00:00</time>
      </trkpt>
      <trkpt lat="45.39322" lon="6.11573">
        <ele>1562</ele>
        <time>2024-06-05T19:12:52+00:00</time>
      </trkpt>
      <trkpt lat="45.39318" lon="6.11573">
        <ele>1562</ele>
        <time>2024-06-05T19:12:55+00:00</time>
      </trkpt>
      <trkpt lat="45.39312" lon="6.11573">
        <ele>1562</ele>
        <time>2024-06-05T19:12:58+00:00</time>
      </trkpt>
      <trkpt lat="45.39307" lon="6.11574">
        <ele>1563</ele>
        <time>2024-06-05T19:13:01+00:00</time>
      </trkpt>
      <trkpt lat="45.39306" lon="6.11574">
        <ele>1563</ele>
        <time>2024-06-05T19:13:04+00:00</time>
      </trkpt>
      <trkpt lat="45.39301" lon="6.11577">
        <ele>1563</ele>
        <time>2024-06-05T19:13:07+00:00</time>
      </trkpt>
      <trkpt lat="45.39297" lon="6.11581">
        <ele>1565</ele>
        <time>2024-06-05T19:13:10+00:00</time>
      </trkpt>
      <trkpt lat="45.3929" lon="6.11596">
        <ele>1566</ele>
        <time>2024-06-05T19:13:13+00:00</time>
      </trkpt>
      <trkpt lat="45.39284" lon="6.11611">
        <ele>1571</ele>
        <time>2024-06-05T19:13:16+00:00</time>
      </trkpt>
      <trkpt lat="45.39275" lon="6.11636">
        <ele>1574</ele>
        <time>2024-06-05T19:13:19+00:00</time>
      </trkpt>
      <trkpt lat="45.39266" lon="6.11666">
        <ele>1577</ele>
        <time>2024-06-05T19:13:22+00:00</time>
      </trkpt>
      <trkpt lat="45.39261" lon="6.11681">
        <ele>1579</ele>
        <time>2024-06-05T19:13:25+00:00</time>
      </trkpt>
      <trkpt lat="45.39251" lon="6.1171">
        <ele>1583</ele>
        <time>2024-06-05T19:13:28+00:00</time>
      </trkpt>
      <trkpt lat="45.39243" lon="6.11738">
        <ele>1589</ele>
        <time>2024-06-05T19:13:31+00:00</time>
      </trkpt>
      <trkpt lat="45.39231" lon="6.11781">
        <ele>1597</ele>
        <time>2024-06-05T19:13:34+00:00</time>
      </trkpt>
      <trkpt lat="45.39222" lon="6.11816">
        <ele>1602</ele>
        <time>2024-06-05T19:13:37+00:00</time>
      </trkpt>
      <trkpt lat="45.39215" lon="6.11842">
        <ele>1604</ele>
        <time>2024-06-05T19:13:40+00:00</time>
      </trkpt>
      <trkpt lat="45.39208" lon="6.11869">
        <ele>1605</ele>
        <time>2024-06-05T19:13:43+00:00</time>
      </trkpt>
      <trkpt lat="45.39203" lon="6.11892">
        <ele>1606</ele>
        <time>2024-06-05T19:13:46+00:00</time>
      </trkpt>
      <trkpt lat="45.39201" lon="6.11915">
        <ele>1608</ele>
        <time>2024-06-05T19:13:49+00:00</time>
      </trkpt>
      <trkpt lat="45.392" lon="6.11945">
        <ele>1610</ele>
        <time>2024-06-05T19:13:52+00:00</time>
      </trkpt>
      <trkpt lat="45.392" lon="6.11971">
        <ele>1611</ele>
        <time>2024-06-05T19:13:55+00:00</time>
      </trkpt>
      <trkpt lat="45.392" lon="6.1199">
        <ele>1613</ele>
        <time>2024-06-05T19:13:58+00:00</time>
      </trkpt>
      <trkpt lat="45.39199" lon="6.12008">
        <ele>1615</ele>
        <time>2024-06-05T19:14:01+00:00</time>
      </trkpt>
      <trkpt lat="45.39195" lon="6.12028">
        <ele>1617</ele>
        <time>2024-06-05T19:14:04+00:00</time>
      </trkpt>
      <trkpt lat="45.39188" lon="6.12062">
        <ele>1623</ele>
        <time>2024-06-05T19:14:07+00:00</time>
      </trkpt>
      <trkpt lat="45.39181" lon="6.12095">
        <ele>1623</ele>
        <time>2024-06-05T19:14:10+00:00</time>
      </trkpt>
      <trkpt lat="45.39178" lon="6.12128">
        <ele>1628</ele>
        <time>2024-06-05T19:14:13+00:00</time>
      </trkpt>
      <trkpt lat="45.39175" lon="6.12156">
        <ele>1628</ele>
        <time>2024-06-05T19:14:16+00:00</time>
      </trkpt>
      <trkpt lat="45.39173" lon="6.12176">
        <ele>1628</ele>
        <time>2024-06-05T19:14:19+00:00</time>
      </trkpt>
      <trkpt lat="45.39175" lon="6.12197">
        <ele>1629</ele>
        <time>2024-06-05T19:14:22+00:00</time>
      </trkpt>
      <trkpt lat="45.39178" lon="6.12216">
        <ele>1632</ele>
        <time>2024-06-05T19:14:25+00:00</time>
      </trkpt>
      <trkpt lat="45.39181" lon="6.1223">
        <ele>1630</ele>
        <time>2024-06-05T19:14:28+00:00</time>
      </trkpt>
      <trkpt lat="45.39185" lon="6.12253">
        <ele>1634</ele>
        <time>2024-06-05T19:14:31+00:00</time>
      </trkpt>
      <trkpt lat="45.39185" lon="6.1227">
        <ele>1634</ele>
        <time>2024-06-05T19:14:34+00:00</time>
      </trkpt>
      <trkpt lat="45.39185" lon="6.1229">
        <ele>1637</ele>
        <time>2024-06-05T19:14:37+00:00</time>
      </trkpt>
      <trkpt lat="45.39187" lon="6.12308">
        <ele>1635</ele>
        <time>2024-06-05T19:14:40+00:00</time>
      </trkpt>
      <trkpt lat="45.39189" lon="6.12321">
        <ele>1639</ele>
        <time>2024-06-05T19:14:43+00:00</time>
      </trkpt>
      <trkpt lat="45.39193" lon="6.12338">
        <ele>1636</ele>
        <time>2024-06-05T19:14:46+00:00</time>
      </trkpt>
      <trkpt lat="45.392" lon="6.12362">
        <ele>1637</ele>
        <time>2024-06-05T19:14:49+00:00</time>
      </trkpt>
      <trkpt lat="45.39205" lon="6.12378">
        <ele>1639</ele>
        <time>2024-06-05T19:14:52+00:00</time>
      </trkpt>
      <trkpt lat="45.39208" lon="6.12394">
        <ele>1642</ele>
        <time>2024-06-05T19:14:55+00:00</time>
      </trkpt>
      <trkpt lat="45.39209" lon="6.12408">
        <ele>1643</ele>
        <time>2024-06-05T19:14:58+00:00</time>
      </trkpt>
      <trkpt lat="45.39209" lon="6.12434">
        <ele>1645</ele>
        <time>2024-06-05T19:15:01+00:00</time>
      </trkpt>
      <trkpt lat="45.3921" lon="6.12449">
        <ele>1646</ele>
        <time>2024-06-05T19:15:04+00:00</time>
      </trkpt>
      <trkpt lat="45.39211" lon="6.12466">
        <ele>1646</ele>
        <time>2024-06-05T19:15:07+00:00</time>
      </trkpt>
      <trkpt lat="45.39212" lon="6.12484">
        <ele>1648</ele>
        <time>2024-06-05T19:15:10+00:00</time>
      </trkpt>
      <trkpt lat="45.39215" lon="6.12506">
        <ele>1651</ele>
        <time>2024-06-05T19:15:13+00:00</time>
      </trkpt>
      <trkpt lat="45.39216" lon="6.12519">
        <ele>1651</ele>
        <time>2024-06-05T19:15:16+00:00</time>
      </trkpt>
      <trkpt lat="45.39216" lon="6.12535">
        <ele>1653</ele>
        <time>2024-06-05T19:15:19+00:00</time>
      </trkpt>
      <trkpt lat="45.39213" lon="6.12561">
        <ele>1655</ele>
        <time>2024-06-05T19:15:22+00:00</time>
      </trkpt>
      <trkpt lat="45.39209" lon="6.12588">
        <ele>1657</ele>
        <time>2024-06-05T19:15:25+00:00</time>
      </trkpt>
      <trkpt lat="45.39204" lon="6.12609">
        <ele>1657</ele>
        <time>2024-06-05T19:15:28+00:00</time>
      </trkpt>
      <trkpt lat="45.39196" lon="6.12632">
        <ele>1657</ele>
        <time>2024-06-05T19:15:31+00:00</time>
      </trkpt>
      <trkpt lat="45.39185" lon="6.12661">
        <ele>1656</ele>
        <time>2024-06-05T19:15:34+00:00</time>
      </trkpt>
      <trkpt lat="45.39181" lon="6.12671">
        <ele>1658</ele>
        <time>2024-06-05T19:15:37+00:00</time>
      </trkpt>
      <trkpt lat="45.392" lon="6.12689">
        <ele>1655</ele>
        <time>2024-06-05T19:15:40+00:00</time>
      </trkpt>
      <trkpt lat="45.39207" lon="6.12695">
        <ele>1652</ele>
        <time>2024-06-05T19:15:43+00:00</time>
      </trkpt>
      <trkpt lat="45.39214" lon="6.12701">
        <ele>1650</ele>
        <time>2024-06-05T19:15:46+00:00</time>
      </trkpt>
      <trkpt lat="45.39231" lon="6.12717">
        <ele>1646</ele>
        <time>2024-06-05T19:15:49+00:00</time>
      </trkpt>
      <trkpt lat="45.3924" lon="6.12728">
        <ele>1646</ele>
        <time>2024-06-05T19:15:52+00:00</time>
      </trkpt>
      <trkpt lat="45.39252" lon="6.12745">
        <ele>1645</ele>
        <time>2024-06-05T19:15:55+00:00</time>
      </trkpt>
      <trkpt lat="45.39266" lon="6.12765">
        <ele>1644</ele>
        <time>2024-06-05T19:15:58+00:00</time>
      </trkpt>
      <trkpt lat="45.39284" lon="6.1279">
        <ele>1644</ele>
        <time>2024-06-05T19:16:01+00:00</time>
      </trkpt>
      <trkpt lat="45.3929" lon="6.12797">
        <ele>1643</ele>
        <time>2024-06-05T19:16:04+00:00</time>
      </trkpt>
      <trkpt lat="45.39293" lon="6.128">
        <ele>1643</ele>
        <time>2024-06-05T19:16:07+00:00</time>
      </trkpt>
      <trkpt lat="45.39296" lon="6.12802">
        <ele>1643</ele>
        <time>2024-06-05T19:16:10+00:00</time>
      </trkpt>
      <trkpt lat="45.39301" lon="6.12804">
        <ele>1642</ele>
        <time>2024-06-05T19:16:13+00:00</time>
      </trkpt>
      <trkpt lat="45.39307" lon="6.12808">
        <ele>1642</ele>
        <time>2024-06-05T19:16:16+00:00</time>
      </trkpt>
      <trkpt lat="45.3931" lon="6.1281">
        <ele>1642</ele>
        <time>2024-06-05T19:16:19+00:00</time>
      </trkpt>
      <trkpt lat="45.39315" lon="6.12817">
        <ele>1642</ele>
        <time>2024-06-05T19:16:22+00:00</time>
      </trkpt>
      <trkpt lat="45.39321" lon="6.12829">
        <ele>1643</ele>
        <time>2024-06-05T19:16:25+00:00</time>
      </trkpt>
      <trkpt lat="45.39317" lon="6.12834">
        <ele>1642</ele>
        <time>2024-06-05T19:16:28+00:00</time>
      </trkpt>
      <trkpt lat="45.39315" lon="6.12837">
        <ele>1642</ele>
        <time>2024-06-05T19:16:31+00:00</time>
      </trkpt>
      <trkpt lat="45.39314" lon="6.12844">
        <ele>1643</ele>
        <time>2024-06-05T19:16:34+00:00</time>
      </trkpt>
      <trkpt lat="45.39312" lon="6.12866">
        <ele>1644</ele>
        <time>2024-06-05T19:16:37+00:00</time>
      </trkpt>
      <trkpt lat="45.39305" lon="6.12888">
        <ele>1646</ele>
        <time>2024-06-05T19:16:40+00:00</time>
      </trkpt>
      <trkpt lat="45.39294" lon="6.12913">
        <ele>1650</ele>
        <time>2024-06-05T19:16:43+00:00</time>
      </trkpt>
      <trkpt lat="45.39278" lon="6.1295">
        <ele>1654</ele>
        <time>2024-06-05T19:16:46+00:00</time>
      </trkpt>
      <trkpt lat="45.39278" lon="6.1295">
        <ele>1654</ele>
        <time>2024-06-05T19:16:49+00:00</time>
      </trkpt>
      <trkpt lat="45.39276" lon="6.12956">
        <ele>1655</ele>
        <time>2024-06-05T19:16:52+00:00</time>
      </trkpt>
      <trkpt lat="45.39261" lon="6.12987">
        <ele>1657</ele>
        <time>2024-06-05T19:16:55+00:00</time>
      </trkpt>
      <trkpt lat="45.39251" lon="6.1301">
        <ele>1660</ele>
        <time>2024-06-05T19:16:58+00:00</time>
      </trkpt>
      <trkpt lat="45.39244" lon="6.1303">
        <ele>1662</ele>
        <time>2024-06-05T19:17:01+00:00</time>
      </trkpt>
      <trkpt lat="45.39239" lon="6.1305">
        <ele>1665</ele>
        <time>2024-06-05T19:17:04+00:00</time>
      </trkpt>
      <trkpt lat="45.39234" lon="6.13072">
        <ele>1666</ele>
        <time>2024-06-05T19:17:07+00:00</time>
      </trkpt>
      <trkpt lat="45.39226" lon="6.13092">
        <ele>1669</ele>
        <time>2024-06-05T19:17:10+00:00</time>
      </trkpt>
      <trkpt lat="45.39216" lon="6.13113">
        <ele>1671</ele>
        <time>2024-06-05T19:17:13+00:00</time>
      </trkpt>
      <trkpt lat="45.39207" lon="6.1313">
        <ele>1674</ele>
        <time>2024-06-05T19:17:16+00:00</time>
      </trkpt>
      <trkpt lat="45.39196" lon="6.13153">
        <ele>1677</ele>
        <time>2024-06-05T19:17:19+00:00</time>
      </trkpt>
      <trkpt lat="45.39189" lon="6.13169">
        <ele>1679</ele>
        <time>2024-06-05T19:17:22+00:00</time>
      </trkpt>
      <trkpt lat="45.39181" lon="6.13196">
        <ele>1681</ele>
        <time>2024-06-05T19:17:25+00:00</time>
      </trkpt>
      <trkpt lat="45.39173" lon="6.13216">
        <ele>1683</ele>
        <time>2024-06-05T19:17:28+00:00</time>
      </trkpt>
      <trkpt lat="45.39169" lon="6.13225">
        <ele>1685</ele>
        <time>2024-06-05T19:17:31+00:00</time>
      </trkpt>
      <trkpt lat="45.3916" lon="6.13242">
        <ele>1686</ele>
        <time>2024-06-05T19:17:34+00:00</time>
      </trkpt>
      <trkpt lat="45.3915" lon="6.1326">
        <ele>1689</ele>
        <time>2024-06-05T19:17:37+00:00</time>
      </trkpt>
      <trkpt lat="45.39141" lon="6.13275">
        <ele>1691</ele>
        <time>2024-06-05T19:17:40+00:00</time>
      </trkpt>
      <trkpt lat="45.39133" lon="6.13288">
        <ele>1692</ele>
        <time>2024-06-05T19:17:43+00:00</time>
      </trkpt>
      <trkpt lat="45.39129" lon="6.13296">
        <ele>1693</ele>
        <time>2024-06-05T19:17:46+00:00</time>
      </trkpt>
      <trkpt lat="45.39126" lon="6.13305">
        <ele>1695</ele>
        <time>2024-06-05T19:17:49+00:00</time>
      </trkpt>
      <trkpt lat="45.39124" lon="6.13313">
        <ele>1696</ele>
        <time>2024-06-05T19:17:52+00:00</time>
      </trkpt>
      <trkpt lat="45.39122" lon="6.13321">
        <ele>1697</ele>
        <time>2024-06-05T19:17:55+00:00</time>
      </trkpt>
      <trkpt lat="45.39125" lon="6.13333">
        <ele>1699</ele>
        <time>2024-06-05T19:17:58+00:00</time>
      </trkpt>
      <trkpt lat="45.39128" lon="6.13351">
        <ele>1701</ele>
        <time>2024-06-05T19:18:01+00:00</time>
      </trkpt>
      <trkpt lat="45.39129" lon="6.13368">
        <ele>1702</ele>
        <time>2024-06-05T19:18:04+00:00</time>
      </trkpt>
      <trkpt lat="45.39128" lon="6.13381">
        <ele>1705</ele>
        <time>2024-06-05T19:18:07+00:00</time>
      </trkpt>
      <trkpt lat="45.39126" lon="6.13392">
        <ele>1706</ele>
        <time>2024-06-05T19:18:10+00:00</time>
      </trkpt>
      <trkpt lat="45.39123" lon="6.13402">
        <ele>1707</ele>
        <time>2024-06-05T19:18:13+00:00</time>
      </trkpt>
      <trkpt lat="45.39119" lon="6.13411">
        <ele>1709</ele>
        <time>2024-06-05T19:18:16+00:00</time>
      </trkpt>
      <trkpt lat="45.39116" lon="6.13417">
        <ele>1709</ele>
        <time>2024-06-05T19:18:19+00:00</time>
      </trkpt>
      <trkpt lat="45.39114" lon="6.13422">
        <ele>1711</ele>
        <time>2024-06-05T19:18:22+00:00</time>
      </trkpt>
      <trkpt lat="45.39114" lon="6.13427">
        <ele>1711</ele>
        <time>2024-06-05T19:18:25+00:00</time>
      </trkpt>
      <trkpt lat="45.39115" lon="6.13435">
        <ele>1712</ele>
        <time>2024-06-05T19:18:28+00:00</time>
      </trkpt>
      <trkpt lat="45.39116" lon="6.13454">
        <ele>1715</ele>
        <time>2024-06-05T19:18:31+00:00</time>
      </trkpt>
      <trkpt lat="45.39117" lon="6.13478">
        <ele>1718</ele>
        <time>2024-06-05T19:18:34+00:00</time>
      </trkpt>
      <trkpt lat="45.39117" lon="6.13505">
        <ele>1722</ele>
        <time>2024-06-05T19:18:37+00:00</time>
      </trkpt>
      <trkpt lat="45.39117" lon="6.13529">
        <ele>1726</ele>
        <time>2024-06-05T19:18:40+00:00</time>
      </trkpt>
      <trkpt lat="45.39118" lon="6.13546">
        <ele>1729</ele>
        <time>2024-06-05T19:18:43+00:00</time>
      </trkpt>
      <trkpt lat="45.39118" lon="6.13554">
        <ele>1731</ele>
        <time>2024-06-05T19:18:46+00:00</time>
      </trkpt>
      <trkpt lat="45.3912" lon="6.13562">
        <ele>1733</ele>
        <time>2024-06-05T19:18:49+00:00</time>
      </trkpt>
      <trkpt lat="45.39127" lon="6.13584">
        <ele>1736</ele>
        <time>2024-06-05T19:18:52+00:00</time>
      </trkpt>
      <trkpt lat="45.39131" lon="6.13605">
        <ele>1739</ele>
        <time>2024-06-05T19:18:55+00:00</time>
      </trkpt>
      <trkpt lat="45.39138" lon="6.13621">
        <ele>1741</ele>
        <time>2024-06-05T19:18:58+00:00</time>
      </trkpt>
      <trkpt lat="45.39146" lon="6.13639">
        <ele>1745</ele>
        <time>2024-06-05T19:19:01+00:00</time>
      </trkpt>
      <trkpt lat="45.39157" lon="6.13666">
        <ele>1751</ele>
        <time>2024-06-05T19:19:04+00:00</time>
      </trkpt>
      <trkpt lat="45.39164" lon="6.13685">
        <ele>1756</ele>
        <time>2024-06-05T19:19:07+00:00</time>
      </trkpt>
      <trkpt lat="45.39171" lon="6.13698">
        <ele>1761</ele>
        <time>2024-06-05T19:19:10+00:00</time>
      </trkpt>
      <trkpt lat="45.39178" lon="6.13709">
        <ele>1763</ele>
        <time>2024-06-05T19:19:13+00:00</time>
      </trkpt>
      <trkpt lat="45.39185" lon="6.13714">
        <ele>1766</ele>
        <time>2024-06-05T19:19:16+00:00</time>
      </trkpt>
      <trkpt lat="45.39197" lon="6.1372">
        <ele>1770</ele>
        <time>2024-06-05T19:19:19+00:00</time>
      </trkpt>
      <trkpt lat="45.39208" lon="6.13728">
        <ele>1772</ele>
        <time>2024-06-05T19:19:22+00:00</time>
      </trkpt>
      <trkpt lat="45.39223" lon="6.13735">
        <ele>1776</ele>
        <time>2024-06-05T19:19:25+00:00</time>
      </trkpt>
      <trkpt lat="45.3924" lon="6.13741">
        <ele>1779</ele>
        <time>2024-06-05T19:19:28+00:00</time>
      </trkpt>
      <trkpt lat="45.39256" lon="6.13744">
        <ele>1782</ele>
        <time>2024-06-05T19:19:31+00:00</time>
      </trkpt>
      <trkpt lat="45.39272" lon="6.13743">
        <ele>1786</ele>
        <time>2024-06-05T19:19:34+00:00</time>
      </trkpt>
      <trkpt lat="45.39291" lon="6.13744">
        <ele>1790</ele>
        <time>2024-06-05T19:19:37+00:00</time>
      </trkpt>
      <trkpt lat="45.39308" lon="6.13748">
        <ele>1792</ele>
        <time>2024-06-05T19:19:40+00:00</time>
      </trkpt>
      <trkpt lat="45.39317" lon="6.13751">
        <ele>1795</ele>
        <time>2024-06-05T19:19:43+00:00</time>
      </trkpt>
      <trkpt lat="45.39321" lon="6.13757">
        <ele>1798</ele>
        <time>2024-06-05T19:19:46+00:00</time>
      </trkpt>
      <trkpt lat="45.39324" lon="6.13765">
        <ele>1799</ele>
        <time>2024-06-05T19:19:49+00:00</time>
      </trkpt>
      <trkpt lat="45.39324" lon="6.13774">
        <ele>1800</ele>
        <time>2024-06-05T19:19:52+00:00</time>
      </trkpt>
      <trkpt lat="45.39323" lon="6.13782">
        <ele>1802</ele>
        <time>2024-06-05T19:19:55+00:00</time>
      </trkpt>
      <trkpt lat="45.39321" lon="6.13791">
        <ele>1803</ele>
        <time>2024-06-05T19:19:58+00:00</time>
      </trkpt>
      <trkpt lat="45.39319" lon="6.13798">
        <ele>1801</ele>
        <time>2024-06-05T19:20:01+00:00</time>
      </trkpt>
      <trkpt lat="45.39318" lon="6.13805">
        <ele>1802</ele>
        <time>2024-06-05T19:20:04+00:00</time>
      </trkpt>
      <trkpt lat="45.39315" lon="6.13824">
        <ele>1807</ele>
        <time>2024-06-05T19:20:07+00:00</time>
      </trkpt>
      <trkpt lat="45.39309" lon="6.1387">
        <ele>1819</ele>
        <time>2024-06-05T19:20:10+00:00</time>
      </trkpt>
      <trkpt lat="45.39305" lon="6.13892">
        <ele>1824</ele>
        <time>2024-06-05T19:20:13+00:00</time>
      </trkpt>
      <trkpt lat="45.39305" lon="6.13902">
        <ele>1827</ele>
        <time>2024-06-05T19:20:16+00:00</time>
      </trkpt>
      <trkpt lat="45.39306" lon="6.13913">
        <ele>1828</ele>
        <time>2024-06-05T19:20:19+00:00</time>
      </trkpt>
      <trkpt lat="45.39312" lon="6.13924">
        <ele>1831</ele>
        <time>2024-06-05T19:20:22+00:00</time>
      </trkpt>
      <trkpt lat="45.39318" lon="6.13936">
        <ele>1833</ele>
        <time>2024-06-05T19:20:25+00:00</time>
      </trkpt>
      <trkpt lat="45.39323" lon="6.13945">
        <ele>1837</ele>
        <time>2024-06-05T19:20:28+00:00</time>
      </trkpt>
      <trkpt lat="45.3933" lon="6.13952">
        <ele>1838</ele>
        <time>2024-06-05T19:20:31+00:00</time>
      </trkpt>
      <trkpt lat="45.39337" lon="6.13956">
        <ele>1840</ele>
        <time>2024-06-05T19:20:34+00:00</time>
      </trkpt>
      <trkpt lat="45.39344" lon="6.13959">
        <ele>1842</ele>
        <time>2024-06-05T19:20:37+00:00</time>
      </trkpt>
      <trkpt lat="45.39353" lon="6.13961">
        <ele>1847</ele>
        <time>2024-06-05T19:20:40+00:00</time>
      </trkpt>
      <trkpt lat="45.39361" lon="6.1396">
        <ele>1847</ele>
        <time>2024-06-05T19:20:43+00:00</time>
      </trkpt>
      <trkpt lat="45.39371" lon="6.13957">
        <ele>1850</ele>
        <time>2024-06-05T19:20:46+00:00</time>
      </trkpt>
      <trkpt lat="45.39385" lon="6.1395">
        <ele>1855</ele>
        <time>2024-06-05T19:20:49+00:00</time>
      </trkpt>
      <trkpt lat="45.39401" lon="6.13943">
        <ele>1860</ele>
        <time>2024-06-05T19:20:52+00:00</time>
      </trkpt>
      <trkpt lat="45.39409" lon="6.13939">
        <ele>1859</ele>
        <time>2024-06-05T19:20:55+00:00</time>
      </trkpt>
      <trkpt lat="45.39417" lon="6.13937">
        <ele>1863</ele>
        <time>2024-06-05T19:20:58+00:00</time>
      </trkpt>
      <trkpt lat="45.39428" lon="6.13935">
        <ele>1865</ele>
        <time>2024-06-05T19:21:01+00:00</time>
      </trkpt>
      <trkpt lat="45.39433" lon="6.13937">
        <ele>1867</ele>
        <time>2024-06-05T19:21:04+00:00</time>
      </trkpt>
      <trkpt lat="45.39436" lon="6.13939">
        <ele>1867</ele>
        <time>2024-06-05T19:21:07+00:00</time>
      </trkpt>
      <trkpt lat="45.39438" lon="6.13941">
        <ele>1867</ele>
        <time>2024-06-05T19:21:10+00:00</time>
      </trkpt>
      <trkpt lat="45.39439" lon="6.13945">
        <ele>1867</ele>
        <time>2024-06-05T19:21:13+00:00</time>
      </trkpt>
      <trkpt lat="45.39441" lon="6.1395">
        <ele>1870</ele>
        <time>2024-06-05T19:21:16+00:00</time>
      </trkpt>
      <trkpt lat="45.39441" lon="6.13955">
        <ele>1867</ele>
        <time>2024-06-05T19:21:19+00:00</time>
      </trkpt>
      <trkpt lat="45.39439" lon="6.13963">
        <ele>1868</ele>
        <time>2024-06-05T19:21:22+00:00</time>
      </trkpt>
      <trkpt lat="45.39434" lon="6.13969">
        <ele>1868</ele>
        <time>2024-06-05T19:21:25+00:00</time>
      </trkpt>
      <trkpt lat="45.39429" lon="6.13975">
        <ele>1867</ele>
        <time>2024-06-05T19:21:28+00:00</time>
      </trkpt>
      <trkpt lat="45.39409" lon="6.1399">
        <ele>1868</ele>
        <time>2024-06-05T19:21:31+00:00</time>
      </trkpt>
      <trkpt lat="45.39387" lon="6.14009">
        <ele>1870</ele>
        <time>2024-06-05T19:21:34+00:00</time>
      </trkpt>
      <trkpt lat="45.39364" lon="6.1403">
        <ele>1872</ele>
        <time>2024-06-05T19:21:37+00:00</time>
      </trkpt>
      <trkpt lat="45.39338" lon="6.14049">
        <ele>1876</ele>
        <time>2024-06-05T19:21:40+00:00</time>
      </trkpt>
      <trkpt lat="45.39315" lon="6.14066">
        <ele>1885</ele>
        <time>2024-06-05T19:21:43+00:00</time>
      </trkpt>
      <trkpt lat="45.39292" lon="6.14085">
        <ele>1894</ele>
        <time>2024-06-05T19:21:46+00:00</time>
      </trkpt>
      <trkpt lat="45.39272" lon="6.14094">
        <ele>1901</ele>
        <time>2024-06-05T19:21:49+00:00</time>
      </trkpt>
      <trkpt lat="45.39242" lon="6.14103">
        <ele>1910</ele>
        <time>2024-06-05T19:21:52+00:00</time>
      </trkpt>
      <trkpt lat="45.39214" lon="6.14114">
        <ele>1920</ele>
        <time>2024-06-05T19:21:55+00:00</time>
      </trkpt>
      <trkpt lat="45.39188" lon="6.14122">
        <ele>1925</ele>
        <time>2024-06-05T19:21:58+00:00</time>
      </trkpt>
      <trkpt lat="45.39161" lon="6.14131">
        <ele>1929</ele>
        <time>2024-06-05T19:22:01+00:00</time>
      </trkpt>
      <trkpt lat="45.39128" lon="6.14144">
        <ele>1935</ele>
        <time>2024-06-05T19:22:04+00:00</time>
      </trkpt>
      <trkpt lat="45.39092" lon="6.14147">
        <ele>1938</ele>
        <time>2024-06-05T19:22:07+00:00</time>
      </trkpt>
      <trkpt lat="45.39071" lon="6.14149">
        <ele>1940</ele>
        <time>2024-06-05T19:22:10+00:00</time>
      </trkpt>
      <trkpt lat="45.3904" lon="6.14152">
        <ele>1947</ele>
        <time>2024-06-05T19:22:13+00:00</time>
      </trkpt>
      <trkpt lat="45.39038" lon="6.14152">
        <ele>1948</ele>
        <time>2024-06-05T19:22:16+00:00</time>
      </trkpt>
      <trkpt lat="45.39032" lon="6.14152">
        <ele>1948</ele>
        <time>2024-06-05T19:22:19+00:00</time>
      </trkpt>
      <trkpt lat="45.39019" lon="6.14153">
        <ele>1951</ele>
        <time>2024-06-05T19:22:22+00:00</time>
      </trkpt>
      <trkpt lat="45.39007" lon="6.14154">
        <ele>1952</ele>
        <time>2024-06-05T19:22:25+00:00</time>
      </trkpt>
      <trkpt lat="45.38996" lon="6.14156">
        <ele>1953</ele>
        <time>2024-06-05T19:22:28+00:00</time>
      </trkpt>
      <trkpt lat="45.3898" lon="6.14164">
        <ele>1956</ele>
        <time>2024-06-05T19:22:31+00:00</time>
      </trkpt>
      <trkpt lat="45.38975" lon="6.14167">
        <ele>1956</ele>
        <time>2024-06-05T19:22:34+00:00</time>
      </trkpt>
      <trkpt lat="45.38965" lon="6.14172">
        <ele>1957</ele>
        <time>2024-06-05T19:22:37+00:00</time>
      </trkpt>
      <trkpt lat="45.38945" lon="6.14185">
        <ele>1959</ele>
        <time>2024-06-05T19:22:40+00:00</time>
      </trkpt>
      <trkpt lat="45.38925" lon="6.14204">
        <ele>1961</ele>
        <time>2024-06-05T19:22:43+00:00</time>
      </trkpt>
      <trkpt lat="45.38914" lon="6.14217">
        <ele>1963</ele>
        <time>2024-06-05T19:22:46+00:00</time>
      </trkpt>
      <trkpt lat="45.38904" lon="6.14234">
        <ele>1966</ele>
        <time>2024-06-05T19:22:49+00:00</time>
      </trkpt>
      <trkpt lat="45.38892" lon="6.14255">
        <ele>1968</ele>
        <time>2024-06-05T19:22:52+00:00</time>
      </trkpt>
      <trkpt lat="45.38876" lon="6.14282">
        <ele>1970</ele>
        <time>2024-06-05T19:22:55+00:00</time>
      </trkpt>
      <trkpt lat="45.38864" lon="6.14299">
        <ele>1971</ele>
        <time>2024-06-05T19:22:58+00:00</time>
      </trkpt>
      <trkpt lat="45.38857" lon="6.14306">
        <ele>1972</ele>
        <time>2024-06-05T19:23:01+00:00</time>
      </trkpt>
      <trkpt lat="45.38849" lon="6.14314">
        <ele>1972</ele>
        <time>2024-06-05T19:23:04+00:00</time>
      </trkpt>
      <trkpt lat="45.3884" lon="6.14319">
        <ele>1973</ele>
        <time>2024-06-05T19:23:07+00:00</time>
      </trkpt>
      <trkpt lat="45.3883" lon="6.14321">
        <ele>1973</ele>
        <time>2024-06-05T19:23:10+00:00</time>
      </trkpt>
      <trkpt lat="45.3882" lon="6.14323">
        <ele>1974</ele>
        <time>2024-06-05T19:23:13+00:00</time>
      </trkpt>
      <trkpt lat="45.38806" lon="6.14323">
        <ele>1976</ele>
        <time>2024-06-05T19:23:16+00:00</time>
      </trkpt>
      <trkpt lat="45.3878" lon="6.14323">
        <ele>1978</ele>
        <time>2024-06-05T19:23:19+00:00</time>
      </trkpt>
      <trkpt lat="45.38765" lon="6.14323">
        <ele>1980</ele>
        <time>2024-06-05T19:23:22+00:00</time>
      </trkpt>
      <trkpt lat="45.38749" lon="6.14326">
        <ele>1983</ele>
        <time>2024-06-05T19:23:25+00:00</time>
      </trkpt>
      <trkpt lat="45.38741" lon="6.14327">
        <ele>1983</ele>
        <time>2024-06-05T19:23:28+00:00</time>
      </trkpt>
      <trkpt lat="45.3873" lon="6.14326">
        <ele>1985</ele>
        <time>2024-06-05T19:23:31+00:00</time>
      </trkpt>
      <trkpt lat="45.38724" lon="6.14326">
        <ele>1987</ele>
        <time>2024-06-05T19:23:34+00:00</time>
      </trkpt>
      <trkpt lat="45.3872" lon="6.14327">
        <ele>1987</ele>
        <time>2024-06-05T19:23:37+00:00</time>
      </trkpt>
      <trkpt lat="45.38717" lon="6.14329">
        <ele>1988</ele>
        <time>2024-06-05T19:23:40+00:00</time>
      </trkpt>
      <trkpt lat="45.38713" lon="6.14333">
        <ele>1989</ele>
        <time>2024-06-05T19:23:43+00:00</time>
      </trkpt>
      <trkpt lat="45.38709" lon="6.14337">
        <ele>1990</ele>
        <time>2024-06-05T19:23:46+00:00</time>
      </trkpt>
      <trkpt lat="45.38703" lon="6.14343">
        <ele>1991</ele>
        <time>2024-06-05T19:23:49+00:00</time>
      </trkpt>
      <trkpt lat="45.38699" lon="6.1435">
        <ele>1992</ele>
        <time>2024-06-05T19:23:52+00:00</time>
      </trkpt>
      <trkpt lat="45.38696" lon="6.14355">
        <ele>1993</ele>
        <time>2024-06-05T19:23:55+00:00</time>
      </trkpt>
      <trkpt lat="45.38694" lon="6.14359">
        <ele>1993</ele>
        <time>2024-06-05T19:23:58+00:00</time>
      </trkpt>
      <trkpt lat="45.38693" lon="6.14366">
        <ele>1994</ele>
        <time>2024-06-05T19:24:01+00:00</time>
      </trkpt>
      <trkpt lat="45.38693" lon="6.14371">
        <ele>1995</ele>
        <time>2024-06-05T19:24:04+00:00</time>
      </trkpt>
      <trkpt lat="45.38694" lon="6.14378">
        <ele>1995</ele>
        <time>2024-06-05T19:24:07+00:00</time>
      </trkpt>
      <trkpt lat="45.38695" lon="6.14384">
        <ele>1996</ele>
        <time>2024-06-05T19:24:10+00:00</time>
      </trkpt>
      <trkpt lat="45.38701" lon="6.14402">
        <ele>1999</ele>
        <time>2024-06-05T19:24:13+00:00</time>
      </trkpt>
      <trkpt lat="45.38708" lon="6.14419">
        <ele>2000</ele>
        <time>2024-06-05T19:24:16+00:00</time>
      </trkpt>
      <trkpt lat="45.38714" lon="6.14428">
        <ele>2002</ele>
        <time>2024-06-05T19:24:19+00:00</time>
      </trkpt>
      <trkpt lat="45.3872" lon="6.14435">
        <ele>2003</ele>
        <time>2024-06-05T19:24:22+00:00</time>
      </trkpt>
      <trkpt lat="45.38727" lon="6.1444">
        <ele>2004</ele>
        <time>2024-06-05T19:24:25+00:00</time>
      </trkpt>
      <trkpt lat="45.38747" lon="6.1445">
        <ele>2006</ele>
        <time>2024-06-05T19:24:28+00:00</time>
      </trkpt>
      <trkpt lat="45.38759" lon="6.14458">
        <ele>2008</ele>
        <time>2024-06-05T19:24:31+00:00</time>
      </trkpt>
      <trkpt lat="45.38772" lon="6.14467">
        <ele>2011</ele>
        <time>2024-06-05T19:24:34+00:00</time>
      </trkpt>
      <trkpt lat="45.38782" lon="6.14475">
        <ele>2014</ele>
        <time>2024-06-05T19:24:37+00:00</time>
      </trkpt>
      <trkpt lat="45.38787" lon="6.14478">
        <ele>2014</ele>
        <time>2024-06-05T19:24:40+00:00</time>
      </trkpt>
      <trkpt lat="45.38792" lon="6.14482">
        <ele>2017</ele>
        <time>2024-06-05T19:24:43+00:00</time>
      </trkpt>
      <trkpt lat="45.38796" lon="6.14485">
        <ele>2017</ele>
        <time>2024-06-05T19:24:46+00:00</time>
      </trkpt>
      <trkpt lat="45.38799" lon="6.14489">
        <ele>2017</ele>
        <time>2024-06-05T19:24:49+00:00</time>
      </trkpt>
      <trkpt lat="45.38805" lon="6.14496">
        <ele>2020</ele>
        <time>2024-06-05T19:24:52+00:00</time>
      </trkpt>
      <trkpt lat="45.38808" lon="6.14502">
        <ele>2021</ele>
        <time>2024-06-05T19:24:55+00:00</time>
      </trkpt>
      <trkpt lat="45.3881" lon="6.14512">
        <ele>2023</ele>
        <time>2024-06-05T19:24:58+00:00</time>
      </trkpt>
      <trkpt lat="45.38811" lon="6.14521">
        <ele>2026</ele>
        <time>2024-06-05T19:25:01+00:00</time>
      </trkpt>
      <trkpt lat="45.38809" lon="6.14531">
        <ele>2026</ele>
        <time>2024-06-05T19:25:04+00:00</time>
      </trkpt>
      <trkpt lat="45.38807" lon="6.14541">
        <ele>2029</ele>
        <time>2024-06-05T19:25:07+00:00</time>
      </trkpt>
      <trkpt lat="45.38807" lon="6.14543">
        <ele>2029</ele>
        <time>2024-06-05T19:25:10+00:00</time>
      </trkpt>
      <trkpt lat="45.38806" lon="6.14554">
        <ele>2031</ele>
        <time>2024-06-05T19:25:13+00:00</time>
      </trkpt>
      <trkpt lat="45.38799" lon="6.14575">
        <ele>2034</ele>
        <time>2024-06-05T19:25:16+00:00</time>
      </trkpt>
      <trkpt lat="45.38791" lon="6.14598">
        <ele>2039</ele>
        <time>2024-06-05T19:25:19+00:00</time>
      </trkpt>
      <trkpt lat="45.38793" lon="6.14622">
        <ele>2046</ele>
        <time>2024-06-05T19:25:22+00:00</time>
      </trkpt>
      <trkpt lat="45.38789" lon="6.14642">
        <ele>2050</ele>
        <time>2024-06-05T19:25:25+00:00</time>
      </trkpt>
      <trkpt lat="45.38789" lon="6.14644">
        <ele>2050</ele>
        <time>2024-06-05T19:25:28+00:00</time>
      </trkpt>
      <trkpt lat="45.3879" lon="6.14649">
        <ele>2051</ele>
        <time>2024-06-05T19:25:31+00:00</time>
      </trkpt>
      <trkpt lat="45.38792" lon="6.14655">
        <ele>2052</ele>
        <time>2024-06-05T19:25:34+00:00</time>
      </trkpt>
      <trkpt lat="45.38793" lon="6.14661">
        <ele>2054</ele>
        <time>2024-06-05T19:25:37+00:00</time>
      </trkpt>
      <trkpt lat="45.38792" lon="6.14668">
        <ele>2054</ele>
        <time>2024-06-05T19:25:40+00:00</time>
      </trkpt>
      <trkpt lat="45.38789" lon="6.14674">
        <ele>2056</ele>
        <time>2024-06-05T19:25:43+00:00</time>
      </trkpt>
      <trkpt lat="45.38776" lon="6.14682">
        <ele>2059</ele>
        <time>2024-06-05T19:25:46+00:00</time>
      </trkpt>
      <trkpt lat="45.38763" lon="6.14689">
        <ele>2059</ele>
        <time>2024-06-05T19:25:49+00:00</time>
      </trkpt>
      <trkpt lat="45.38753" lon="6.14697">
        <ele>2063</ele>
        <time>2024-06-05T19:25:52+00:00</time>
      </trkpt>
      <trkpt lat="45.38736" lon="6.14707">
        <ele>2063</ele>
        <time>2024-06-05T19:25:55+00:00</time>
      </trkpt>
      <trkpt lat="45.3875" lon="6.14712">
        <ele>2067</ele>
        <time>2024-06-05T19:25:58+00:00</time>
      </trkpt>
      <trkpt lat="45.38764" lon="6.14713">
        <ele>2067</ele>
        <time>2024-06-05T19:26:01+00:00</time>
      </trkpt>
      <trkpt lat="45.3878" lon="6.14716">
        <ele>2067</ele>
        <time>2024-06-05T19:26:04+00:00</time>
      </trkpt>
      <trkpt lat="45.38799" lon="6.14716">
        <ele>2068</ele>
        <time>2024-06-05T19:26:07+00:00</time>
      </trkpt>
      <trkpt lat="45.3882" lon="6.14714">
        <ele>2071</ele>
        <time>2024-06-05T19:26:10+00:00</time>
      </trkpt>
      <trkpt lat="45.38827" lon="6.14715">
        <ele>2072</ele>
        <time>2024-06-05T19:26:13+00:00</time>
      </trkpt>
      <trkpt lat="45.38832" lon="6.14718">
        <ele>2074</ele>
        <time>2024-06-05T19:26:16+00:00</time>
      </trkpt>
      <trkpt lat="45.38837" lon="6.1473">
        <ele>2076</ele>
        <time>2024-06-05T19:26:19+00:00</time>
      </trkpt>
      <trkpt lat="45.38838" lon="6.1474">
        <ele>2077</ele>
        <time>2024-06-05T19:26:22+00:00</time>
      </trkpt>
      <trkpt lat="45.38841" lon="6.14755">
        <ele>2077</ele>
        <time>2024-06-05T19:26:25+00:00</time>
      </trkpt>
      <trkpt lat="45.38831" lon="6.14755">
        <ele>2076</ele>
        <time>2024-06-05T19:26:28+00:00</time>
      </trkpt>
      <trkpt lat="45.38825" lon="6.14758">
        <ele>2079</ele>
        <time>2024-06-05T19:26:31+00:00</time>
      </trkpt>
      <trkpt lat="45.38816" lon="6.14763">
        <ele>2078</ele>
        <time>2024-06-05T19:26:34+00:00</time>
      </trkpt>
      <trkpt lat="45.3881" lon="6.14761">
        <ele>2077</ele>
        <time>2024-06-05T19:26:37+00:00</time>
      </trkpt>
      <trkpt lat="45.38801" lon="6.14761">
        <ele>2077</ele>
        <time>2024-06-05T19:26:40+00:00</time>
      </trkpt>
      <trkpt lat="45.38793" lon="6.14752">
        <ele>2077</ele>
        <time>2024-06-05T19:26:43+00:00</time>
      </trkpt>
      <trkpt lat="45.38783" lon="6.1475">
        <ele>2077</ele>
        <time>2024-06-05T19:26:46+00:00</time>
      </trkpt>
      <trkpt lat="45.3877" lon="6.14754">
        <ele>2079</ele>
        <time>2024-06-05T19:26:49+00:00</time>
      </trkpt>
      <trkpt lat="45.38758" lon="6.14767">
        <ele>2080</ele>
        <time>2024-06-05T19:26:52+00:00</time>
      </trkpt>
      <trkpt lat="45.38749" lon="6.14774">
        <ele>2081</ele>
        <time>2024-06-05T19:26:55+00:00</time>
      </trkpt>
      <trkpt lat="45.38741" lon="6.14775">
        <ele>2081</ele>
        <time>2024-06-05T19:26:58+00:00</time>
      </trkpt>
      <trkpt lat="45.38728" lon="6.14778">
        <ele>2081</ele>
        <time>2024-06-05T19:27:01+00:00</time>
      </trkpt>
      <trkpt lat="45.38721" lon="6.14783">
        <ele>2081</ele>
        <time>2024-06-05T19:27:04+00:00</time>
      </trkpt>
      <trkpt lat="45.38715" lon="6.14791">
        <ele>2083</ele>
        <time>2024-06-05T19:27:07+00:00</time>
      </trkpt>
      <trkpt lat="45.38706" lon="6.14796">
        <ele>2085</ele>
        <time>2024-06-05T19:27:10+00:00</time>
      </trkpt>
      <trkpt lat="45.38694" lon="6.14803">
        <ele>2086</ele>
        <time>2024-06-05T19:27:13+00:00</time>
      </trkpt>
      <trkpt lat="45.38681" lon="6.1481">
        <ele>2083</ele>
        <time>2024-06-05T19:27:16+00:00</time>
      </trkpt>
      <trkpt lat="45.38659" lon="6.14817">
        <ele>2084</ele>
        <time>2024-06-05T19:27:19+00:00</time>
      </trkpt>
      <trkpt lat="45.3865" lon="6.14821">
        <ele>2084</ele>
        <time>2024-06-05T19:27:22+00:00</time>
      </trkpt>
      <trkpt lat="45.38638" lon="6.14838">
        <ele>2085</ele>
        <time>2024-06-05T19:27:25+00:00</time>
      </trkpt>
      <trkpt lat="45.38629" lon="6.14851">
        <ele>2086</ele>
        <time>2024-06-05T19:27:28+00:00</time>
      </trkpt>
      <trkpt lat="45.38619" lon="6.14863">
        <ele>2085</ele>
        <time>2024-06-05T19:27:31+00:00</time>
      </trkpt>
      <trkpt lat="45.38607" lon="6.14874">
        <ele>2085</ele>
        <time>2024-06-05T19:27:34+00:00</time>
      </trkpt>
      <trkpt lat="45.38596" lon="6.14885">
        <ele>2085</ele>
        <time>2024-06-05T19:27:37+00:00</time>
      </trkpt>
      <trkpt lat="45.38594" lon="6.14887">
        <ele>2085</ele>
        <time>2024-06-05T19:27:40+00:00</time>
      </trkpt>
      <trkpt lat="45.38584" lon="6.14893">
        <ele>2085</ele>
        <time>2024-06-05T19:27:43+00:00</time>
      </trkpt>
      <trkpt lat="45.38576" lon="6.14894">
        <ele>2084</ele>
        <time>2024-06-05T19:27:46+00:00</time>
      </trkpt>
      <trkpt lat="45.38563" lon="6.14896">
        <ele>2084</ele>
        <time>2024-06-05T19:27:49+00:00</time>
      </trkpt>
      <trkpt lat="45.38553" lon="6.14892">
        <ele>2082</ele>
        <time>2024-06-05T19:27:52+00:00</time>
      </trkpt>
      <trkpt lat="45.3854" lon="6.14887">
        <ele>2081</ele>
        <time>2024-06-05T19:27:55+00:00</time>
      </trkpt>
      <trkpt lat="45.3853" lon="6.14884">
        <ele>2081</ele>
        <time>2024-06-05T19:27:58+00:00</time>
      </trkpt>
      <trkpt lat="45.38524" lon="6.14881">
        <ele>2079</ele>
        <time>2024-06-05T19:28:01+00:00</time>
      </trkpt>
      <trkpt lat="45.38519" lon="6.14879">
        <ele>2078</ele>
        <time>2024-06-05T19:28:04+00:00</time>
      </trkpt>
      <trkpt lat="45.3851" lon="6.14879">
        <ele>2078</ele>
        <time>2024-06-05T19:28:07+00:00</time>
      </trkpt>
      <trkpt lat="45.38502" lon="6.14874">
        <ele>2078</ele>
        <time>2024-06-05T19:28:10+00:00</time>
      </trkpt>
      <trkpt lat="45.38486" lon="6.14871">
        <ele>2077</ele>
        <time>2024-06-05T19:28:13+00:00</time>
      </trkpt>
      <trkpt lat="45.38475" lon="6.14871">
        <ele>2077</ele>
        <time>2024-06-05T19:28:16+00:00</time>
      </trkpt>
      <trkpt lat="45.38465" lon="6.1487">
        <ele>2077</ele>
        <time>2024-06-05T19:28:19+00:00</time>
      </trkpt>
      <trkpt lat="45.38456" lon="6.14871">
        <ele>2077</ele>
        <time>2024-06-05T19:28:22+00:00</time>
      </trkpt>
      <trkpt lat="45.38449" lon="6.14874">
        <ele>2078</ele>
        <time>2024-06-05T19:28:25+00:00</time>
      </trkpt>
      <trkpt lat="45.38421" lon="6.1489">
        <ele>2082</ele>
        <time>2024-06-05T19:28:28+00:00</time>
      </trkpt>
      <trkpt lat="45.38404" lon="6.14901">
        <ele>2088</ele>
        <time>2024-06-05T19:28:31+00:00</time>
      </trkpt>
      <trkpt lat="45.38393" lon="6.14907">
        <ele>2085</ele>
        <time>2024-06-05T19:28:34+00:00</time>
      </trkpt>
      <trkpt lat="45.38374" lon="6.14907">
        <ele>2088</ele>
        <time>2024-06-05T19:28:37+00:00</time>
      </trkpt>
      <trkpt lat="45.3837" lon="6.14908">
        <ele>2088</ele>
        <time>2024-06-05T19:28:40+00:00</time>
      </trkpt>
      <trkpt lat="45.38366" lon="6.14908">
        <ele>2089</ele>
        <time>2024-06-05T19:28:43+00:00</time>
      </trkpt>
      <trkpt lat="45.38362" lon="6.14908">
        <ele>2089</ele>
        <time>2024-06-05T19:28:46+00:00</time>
      </trkpt>
      <trkpt lat="45.38355" lon="6.14907">
        <ele>2089</ele>
        <time>2024-06-05T19:28:49+00:00</time>
      </trkpt>
      <trkpt lat="45.3835" lon="6.14908">
        <ele>2089</ele>
        <time>2024-06-05T19:28:52+00:00</time>
      </trkpt>
      <trkpt lat="45.38346" lon="6.1491">
        <ele>2089</ele>
        <time>2024-06-05T19:28:55+00:00</time>
      </trkpt>
      <trkpt lat="45.3834" lon="6.14913">
        <ele>2091</ele>
        <time>2024-06-05T19:28:58+00:00</time>
      </trkpt>
      <trkpt lat="45.38332" lon="6.14915">
        <ele>2091</ele>
        <time>2024-06-05T19:29:01+00:00</time>
      </trkpt>
      <trkpt lat="45.38319" lon="6.14924">
        <ele>2092</ele>
        <time>2024-06-05T19:29:04+00:00</time>
      </trkpt>
      <trkpt lat="45.38307" lon="6.1493">
        <ele>2094</ele>
        <time>2024-06-05T19:29:07+00:00</time>
      </trkpt>
      <trkpt lat="45.38295" lon="6.14935">
        <ele>2091</ele>
        <time>2024-06-05T19:29:10+00:00</time>
      </trkpt>
      <trkpt lat="45.38285" lon="6.1494">
        <ele>2093</ele>
        <time>2024-06-05T19:29:13+00:00</time>
      </trkpt>
      <trkpt lat="45.38278" lon="6.14949">
        <ele>2091</ele>
        <time>2024-06-05T19:29:16+00:00</time>
      </trkpt>
      <trkpt lat="45.38272" lon="6.14958">
        <ele>2092</ele>
        <time>2024-06-05T19:29:19+00:00</time>
      </trkpt>
      <trkpt lat="45.38266" lon="6.14967">
        <ele>2090</ele>
        <time>2024-06-05T19:29:22+00:00</time>
      </trkpt>
      <trkpt lat="45.3826" lon="6.14978">
        <ele>2091</ele>
        <time>2024-06-05T19:29:25+00:00</time>
      </trkpt>
      <trkpt lat="45.38254" lon="6.14999">
        <ele>2088</ele>
        <time>2024-06-05T19:29:28+00:00</time>
      </trkpt>
      <trkpt lat="45.38246" lon="6.15025">
        <ele>2084</ele>
        <time>2024-06-05T19:29:31+00:00</time>
      </trkpt>
      <trkpt lat="45.38235" lon="6.15056">
        <ele>2081</ele>
        <time>2024-06-05T19:29:34+00:00</time>
      </trkpt>
      <trkpt lat="45.38233" lon="6.15067">
        <ele>2081</ele>
        <time>2024-06-05T19:29:37+00:00</time>
      </trkpt>
      <trkpt lat="45.38231" lon="6.15071">
        <ele>2081</ele>
        <time>2024-06-05T19:29:40+00:00</time>
      </trkpt>
      <trkpt lat="45.38229" lon="6.15074">
        <ele>2078</ele>
        <time>2024-06-05T19:29:43+00:00</time>
      </trkpt>
      <trkpt lat="45.38222" lon="6.15092">
        <ele>2081</ele>
        <time>2024-06-05T19:29:46+00:00</time>
      </trkpt>
      <trkpt lat="45.38209" lon="6.15118">
        <ele>2079</ele>
        <time>2024-06-05T19:29:49+00:00</time>
      </trkpt>
      <trkpt lat="45.38204" lon="6.15129">
        <ele>2081</ele>
        <time>2024-06-05T19:29:52+00:00</time>
      </trkpt>
      <trkpt lat="45.382" lon="6.15132">
        <ele>2083</ele>
        <time>2024-06-05T19:29:55+00:00</time>
      </trkpt>
      <trkpt lat="45.38195" lon="6.15139">
        <ele>2079</ele>
        <time>2024-06-05T19:29:58+00:00</time>
      </trkpt>
      <trkpt lat="45.38188" lon="6.15148">
        <ele>2081</ele>
        <time>2024-06-05T19:30:01+00:00</time>
      </trkpt>
      <trkpt lat="45.38187" lon="6.15151">
        <ele>2083</ele>
        <time>2024-06-05T19:30:04+00:00</time>
      </trkpt>
      <trkpt lat="45.38186" lon="6.15156">
        <ele>2083</ele>
        <time>2024-06-05T19:30:07+00:00</time>
      </trkpt>
      <trkpt lat="45.38186" lon="6.15156">
        <ele>2083</ele>
        <time>2024-06-05T19:30:10+00:00</time>
      </trkpt>
      <trkpt lat="45.38185" lon="6.15159">
        <ele>2083</ele>
        <time>2024-06-05T19:30:13+00:00</time>
      </trkpt>
      <trkpt lat="45.38179" lon="6.15171">
        <ele>2084</ele>
        <time>2024-06-05T19:30:16+00:00</time>
      </trkpt>
      <trkpt lat="45.38177" lon="6.15175">
        <ele>2084</ele>
        <time>2024-06-05T19:30:19+00:00</time>
      </trkpt>
      <trkpt lat="45.38175" lon="6.15177">
        <ele>2084</ele>
        <time>2024-06-05T19:30:22+00:00</time>
      </trkpt>
      <trkpt lat="45.38164" lon="6.15183">
        <ele>2084</ele>
        <time>2024-06-05T19:30:25+00:00</time>
      </trkpt>
      <trkpt lat="45.38151" lon="6.15192">
        <ele>2085</ele>
        <time>2024-06-05T19:30:28+00:00</time>
      </trkpt>
      <trkpt lat="45.38144" lon="6.15197">
        <ele>2084</ele>
        <time>2024-06-05T19:30:31+00:00</time>
      </trkpt>
      <trkpt lat="45.3814" lon="6.15199">
        <ele>2084</ele>
        <time>2024-06-05T19:30:34+00:00</time>
      </trkpt>
      <trkpt lat="45.38136" lon="6.15202">
        <ele>2084</ele>
        <time>2024-06-05T19:30:37+00:00</time>
      </trkpt>
      <trkpt lat="45.38125" lon="6.15212">
        <ele>2085</ele>
        <time>2024-06-05T19:30:40+00:00</time>
      </trkpt>
      <trkpt lat="45.38116" lon="6.15223">
        <ele>2086</ele>
        <time>2024-06-05T19:30:43+00:00</time>
      </trkpt>
      <trkpt lat="45.38113" lon="6.15228">
        <ele>2086</ele>
        <time>2024-06-05T19:30:46+00:00</time>
      </trkpt>
      <trkpt lat="45.3811" lon="6.15231">
        <ele>2085</ele>
        <time>2024-06-05T19:30:49+00:00</time>
      </trkpt>
      <trkpt lat="45.38107" lon="6.15233">
        <ele>2085</ele>
        <time>2024-06-05T19:30:52+00:00</time>
      </trkpt>
      <trkpt lat="45.381" lon="6.15235">
        <ele>2082</ele>
        <time>2024-06-05T19:30:55+00:00</time>
      </trkpt>
      <trkpt lat="45.38097" lon="6.15235">
        <ele>2082</ele>
        <time>2024-06-05T19:30:58+00:00</time>
      </trkpt>
      <trkpt lat="45.38094" lon="6.15234">
        <ele>2082</ele>
        <time>2024-06-05T19:31:01+00:00</time>
      </trkpt>
      <trkpt lat="45.38091" lon="6.15235">
        <ele>2082</ele>
        <time>2024-06-05T19:31:04+00:00</time>
      </trkpt>
      <trkpt lat="45.38089" lon="6.1524">
        <ele>2079</ele>
        <time>2024-06-05T19:31:07+00:00</time>
      </trkpt>
      <trkpt lat="45.38085" lon="6.1525">
        <ele>2080</ele>
        <time>2024-06-05T19:31:10+00:00</time>
      </trkpt>
      <trkpt lat="45.38084" lon="6.1526">
        <ele>2080</ele>
        <time>2024-06-05T19:31:13+00:00</time>
      </trkpt>
      <trkpt lat="45.38085" lon="6.15271">
        <ele>2078</ele>
        <time>2024-06-05T19:31:16+00:00</time>
      </trkpt>
      <trkpt lat="45.38085" lon="6.15276">
        <ele>2078</ele>
        <time>2024-06-05T19:31:19+00:00</time>
      </trkpt>
      <trkpt lat="45.38084" lon="6.15279">
        <ele>2078</ele>
        <time>2024-06-05T19:31:22+00:00</time>
      </trkpt>
      <trkpt lat="45.38082" lon="6.15282">
        <ele>2077</ele>
        <time>2024-06-05T19:31:25+00:00</time>
      </trkpt>
      <trkpt lat="45.38082" lon="6.15282">
        <ele>2077</ele>
        <time>2024-06-05T19:31:28+00:00</time>
      </trkpt>
      <trkpt lat="45.38078" lon="6.15285">
        <ele>2073</ele>
        <time>2024-06-05T19:31:31+00:00</time>
      </trkpt>
      <trkpt lat="45.38075" lon="6.15288">
        <ele>2073</ele>
        <time>2024-06-05T19:31:34+00:00</time>
      </trkpt>
      <trkpt lat="45.3807" lon="6.1529">
        <ele>2073</ele>
        <time>2024-06-05T19:31:37+00:00</time>
      </trkpt>
      <trkpt lat="45.38065" lon="6.1529">
        <ele>2071</ele>
        <time>2024-06-05T19:31:40+00:00</time>
      </trkpt>
      <trkpt lat="45.38062" lon="6.15291">
        <ele>2070</ele>
        <time>2024-06-05T19:31:43+00:00</time>
      </trkpt>
      <trkpt lat="45.3806" lon="6.15295">
        <ele>2070</ele>
        <time>2024-06-05T19:31:46+00:00</time>
      </trkpt>
      <trkpt lat="45.38061" lon="6.15304">
        <ele>2068</ele>
        <time>2024-06-05T19:31:49+00:00</time>
      </trkpt>
      <trkpt lat="45.38059" lon="6.15315">
        <ele>2064</ele>
        <time>2024-06-05T19:31:52+00:00</time>
      </trkpt>
      <trkpt lat="45.3805" lon="6.15325">
        <ele>2058</ele>
        <time>2024-06-05T19:31:55+00:00</time>
      </trkpt>
      <trkpt lat="45.38046" lon="6.15334">
        <ele>2056</ele>
        <time>2024-06-05T19:31:58+00:00</time>
      </trkpt>
      <trkpt lat="45.38045" lon="6.15339">
        <ele>2056</ele>
        <time>2024-06-05T19:32:01+00:00</time>
      </trkpt>
      <trkpt lat="45.38044" lon="6.15341">
        <ele>2055</ele>
        <time>2024-06-05T19:32:04+00:00</time>
      </trkpt>
      <trkpt lat="45.38043" lon="6.15343">
        <ele>2055</ele>
        <time>2024-06-05T19:32:07+00:00</time>
      </trkpt>
      <trkpt lat="45.38039" lon="6.15346">
        <ele>2053</ele>
        <time>2024-06-05T19:32:10+00:00</time>
      </trkpt>
      <trkpt lat="45.38034" lon="6.15344">
        <ele>2053</ele>
        <time>2024-06-05T19:32:13+00:00</time>
      </trkpt>
      <trkpt lat="45.3803" lon="6.15341">
        <ele>2053</ele>
        <time>2024-06-05T19:32:16+00:00</time>
      </trkpt>
      <trkpt lat="45.38023" lon="6.15339">
        <ele>2052</ele>
        <time>2024-06-05T19:32:19+00:00</time>
      </trkpt>
      <trkpt lat="45.38019" lon="6.1534">
        <ele>2048</ele>
        <time>2024-06-05T19:32:22+00:00</time>
      </trkpt>
      <trkpt lat="45.38008" lon="6.15346">
        <ele>2045</ele>
        <time>2024-06-05T19:32:25+00:00</time>
      </trkpt>
      <trkpt lat="45.38001" lon="6.15344">
        <ele>2045</ele>
        <time>2024-06-05T19:32:28+00:00</time>
      </trkpt>
      <trkpt lat="45.37995" lon="6.1534">
        <ele>2043</ele>
        <time>2024-06-05T19:32:31+00:00</time>
      </trkpt>
      <trkpt lat="45.3799" lon="6.1534">
        <ele>2043</ele>
        <time>2024-06-05T19:32:34+00:00</time>
      </trkpt>
      <trkpt lat="45.37974" lon="6.15344">
        <ele>2039</ele>
        <time>2024-06-05T19:32:37+00:00</time>
      </trkpt>
      <trkpt lat="45.37966" lon="6.15348">
        <ele>2037</ele>
        <time>2024-06-05T19:32:40+00:00</time>
      </trkpt>
      <trkpt lat="45.37961" lon="6.15352">
        <ele>2037</ele>
        <time>2024-06-05T19:32:43+00:00</time>
      </trkpt>
      <trkpt lat="45.37952" lon="6.15352">
        <ele>2035</ele>
        <time>2024-06-05T19:32:46+00:00</time>
      </trkpt>
      <trkpt lat="45.37938" lon="6.15351">
        <ele>2031</ele>
        <time>2024-06-05T19:32:49+00:00</time>
      </trkpt>
      <trkpt lat="45.37928" lon="6.1535">
        <ele>2029</ele>
        <time>2024-06-05T19:32:52+00:00</time>
      </trkpt>
      <trkpt lat="45.3792" lon="6.15345">
        <ele>2029</ele>
        <time>2024-06-05T19:32:55+00:00</time>
      </trkpt>
      <trkpt lat="45.37909" lon="6.15334">
        <ele>2022</ele>
        <time>2024-06-05T19:32:58+00:00</time>
      </trkpt>
      <trkpt lat="45.37891" lon="6.15321">
        <ele>2017</ele>
        <time>2024-06-05T19:33:01+00:00</time>
      </trkpt>
      <trkpt lat="45.37862" lon="6.15343">
        <ele>2009</ele>
        <time>2024-06-05T19:33:04+00:00</time>
      </trkpt>
      <trkpt lat="45.37835" lon="6.15333">
        <ele>1998</ele>
        <time>2024-06-05T19:33:07+00:00</time>
      </trkpt>
      <trkpt lat="45.37814" lon="6.1533">
        <ele>1991</ele>
        <time>2024-06-05T19:33:10+00:00</time>
      </trkpt>
      <trkpt lat="45.37808" lon="6.15325">
        <ele>1985</ele>
        <time>2024-06-05T19:33:13+00:00</time>
      </trkpt>
      <trkpt lat="45.37793" lon="6.15328">
        <ele>1981</ele>
        <time>2024-06-05T19:33:16+00:00</time>
      </trkpt>
      <trkpt lat="45.37781" lon="6.15334">
        <ele>1982</ele>
        <time>2024-06-05T19:33:19+00:00</time>
      </trkpt>
      <trkpt lat="45.37768" lon="6.15345">
        <ele>1977</ele>
        <time>2024-06-05T19:33:22+00:00</time>
      </trkpt>
      <trkpt lat="45.37756" lon="6.15349">
        <ele>1974</ele>
        <time>2024-06-05T19:33:25+00:00</time>
      </trkpt>
      <trkpt lat="45.37747" lon="6.15353">
        <ele>1974</ele>
        <time>2024-06-05T19:33:28+00:00</time>
      </trkpt>
      <trkpt lat="45.3774" lon="6.15352">
        <ele>1974</ele>
        <time>2024-06-05T19:33:31+00:00</time>
      </trkpt>
      <trkpt lat="45.37732" lon="6.15349">
        <ele>1969</ele>
        <time>2024-06-05T19:33:34+00:00</time>
      </trkpt>
      <trkpt lat="45.37723" lon="6.1535">
        <ele>1969</ele>
        <time>2024-06-05T19:33:37+00:00</time>
      </trkpt>
      <trkpt lat="45.37716" lon="6.1535">
        <ele>1968</ele>
        <time>2024-06-05T19:33:40+00:00</time>
      </trkpt>
      <trkpt lat="45.37699" lon="6.15349">
        <ele>1961</ele>
        <time>2024-06-05T19:33:43+00:00</time>
      </trkpt>
      <trkpt lat="45.37691" lon="6.1535">
        <ele>1961</ele>
        <time>2024-06-05T19:33:46+00:00</time>
      </trkpt>
      <trkpt lat="45.37685" lon="6.15353">
        <ele>1960</ele>
        <time>2024-06-05T19:33:49+00:00</time>
      </trkpt>
      <trkpt lat="45.37679" lon="6.15356">
        <ele>1957</ele>
        <time>2024-06-05T19:33:52+00:00</time>
      </trkpt>
      <trkpt lat="45.3767" lon="6.15357">
        <ele>1957</ele>
        <time>2024-06-05T19:33:55+00:00</time>
      </trkpt>
      <trkpt lat="45.37658" lon="6.15359">
        <ele>1955</ele>
        <time>2024-06-05T19:33:58+00:00</time>
      </trkpt>
      <trkpt lat="45.37658" lon="6.15368">
        <ele>1956</ele>
        <time>2024-06-05T19:34:01+00:00</time>
      </trkpt>
      <trkpt lat="45.3766" lon="6.15377">
        <ele>1956</ele>
        <time>2024-06-05T19:34:04+00:00</time>
      </trkpt>
      <trkpt lat="45.37663" lon="6.15387">
        <ele>1955</ele>
        <time>2024-06-05T19:34:07+00:00</time>
      </trkpt>
      <trkpt lat="45.37668" lon="6.15397">
        <ele>1951</ele>
        <time>2024-06-05T19:34:10+00:00</time>
      </trkpt>
      <trkpt lat="45.37672" lon="6.15404">
        <ele>1950</ele>
        <time>2024-06-05T19:34:13+00:00</time>
      </trkpt>
      <trkpt lat="45.37677" lon="6.15411">
        <ele>1946</ele>
        <time>2024-06-05T19:34:16+00:00</time>
      </trkpt>
      <trkpt lat="45.37686" lon="6.15417">
        <ele>1947</ele>
        <time>2024-06-05T19:34:19+00:00</time>
      </trkpt>
      <trkpt lat="45.37698" lon="6.15425">
        <ele>1941</ele>
        <time>2024-06-05T19:34:22+00:00</time>
      </trkpt>
      <trkpt lat="45.37705" lon="6.15431">
        <ele>1938</ele>
        <time>2024-06-05T19:34:25+00:00</time>
      </trkpt>
      <trkpt lat="45.37712" lon="6.15439">
        <ele>1941</ele>
        <time>2024-06-05T19:34:28+00:00</time>
      </trkpt>
      <trkpt lat="45.37716" lon="6.15455">
        <ele>1932</ele>
        <time>2024-06-05T19:34:31+00:00</time>
      </trkpt>
      <trkpt lat="45.37721" lon="6.15472">
        <ele>1929</ele>
        <time>2024-06-05T19:34:34+00:00</time>
      </trkpt>
      <trkpt lat="45.3773" lon="6.155">
        <ele>1925</ele>
        <time>2024-06-05T19:34:37+00:00</time>
      </trkpt>
      <trkpt lat="45.37736" lon="6.15518">
        <ele>1918</ele>
        <time>2024-06-05T19:34:40+00:00</time>
      </trkpt>
      <trkpt lat="45.37745" lon="6.15536">
        <ele>1919</ele>
        <time>2024-06-05T19:34:43+00:00</time>
      </trkpt>
      <trkpt lat="45.37755" lon="6.15549">
        <ele>1918</ele>
        <time>2024-06-05T19:34:46+00:00</time>
      </trkpt>
      <trkpt lat="45.37768" lon="6.15562">
        <ele>1915</ele>
        <time>2024-06-05T19:34:49+00:00</time>
      </trkpt>
      <trkpt lat="45.37779" lon="6.15574">
        <ele>1912</ele>
        <time>2024-06-05T19:34:52+00:00</time>
      </trkpt>
      <trkpt lat="45.37786" lon="6.1559">
        <ele>1910</ele>
        <time>2024-06-05T19:34:55+00:00</time>
      </trkpt>
      <trkpt lat="45.37792" lon="6.15602">
        <ele>1904</ele>
        <time>2024-06-05T19:34:58+00:00</time>
      </trkpt>
      <trkpt lat="45.37798" lon="6.15609">
        <ele>1904</ele>
        <time>2024-06-05T19:35:01+00:00</time>
      </trkpt>
      <trkpt lat="45.37797" lon="6.1564">
        <ele>1894</ele>
        <time>2024-06-05T19:35:04+00:00</time>
      </trkpt>
      <trkpt lat="45.37801" lon="6.1566">
        <ele>1891</ele>
        <time>2024-06-05T19:35:07+00:00</time>
      </trkpt>
      <trkpt lat="45.3781" lon="6.15685">
        <ele>1885</ele>
        <time>2024-06-05T19:35:10+00:00</time>
      </trkpt>
      <trkpt lat="45.37806" lon="6.15709">
        <ele>1880</ele>
        <time>2024-06-05T19:35:13+00:00</time>
      </trkpt>
      <trkpt lat="45.37794" lon="6.15726">
        <ele>1874</ele>
        <time>2024-06-05T19:35:16+00:00</time>
      </trkpt>
      <trkpt lat="45.3779" lon="6.15739">
        <ele>1872</ele>
        <time>2024-06-05T19:35:19+00:00</time>
      </trkpt>
      <trkpt lat="45.37802" lon="6.15753">
        <ele>1867</ele>
        <time>2024-06-05T19:35:22+00:00</time>
      </trkpt>
      <trkpt lat="45.37811" lon="6.15758">
        <ele>1867</ele>
        <time>2024-06-05T19:35:25+00:00</time>
      </trkpt>
      <trkpt lat="45.37816" lon="6.15763">
        <ele>1865</ele>
        <time>2024-06-05T19:35:28+00:00</time>
      </trkpt>
      <trkpt lat="45.37822" lon="6.15769">
        <ele>1865</ele>
        <time>2024-06-05T19:35:31+00:00</time>
      </trkpt>
      <trkpt lat="45.37828" lon="6.15772">
        <ele>1863</ele>
        <time>2024-06-05T19:35:34+00:00</time>
      </trkpt>
      <trkpt lat="45.37837" lon="6.15787">
        <ele>1861</ele>
        <time>2024-06-05T19:35:37+00:00</time>
      </trkpt>
      <trkpt lat="45.3785" lon="6.15798">
        <ele>1860</ele>
        <time>2024-06-05T19:35:40+00:00</time>
      </trkpt>
      <trkpt lat="45.37856" lon="6.15806">
        <ele>1860</ele>
        <time>2024-06-05T19:35:43+00:00</time>
      </trkpt>
      <trkpt lat="45.37859" lon="6.15813">
        <ele>1856</ele>
        <time>2024-06-05T19:35:46+00:00</time>
      </trkpt>
      <trkpt lat="45.37881" lon="6.15841">
        <ele>1858</ele>
        <time>2024-06-05T19:35:49+00:00</time>
      </trkpt>
      <trkpt lat="45.37903" lon="6.15856">
        <ele>1856</ele>
        <time>2024-06-05T19:35:52+00:00</time>
      </trkpt>
      <trkpt lat="45.37907" lon="6.1586">
        <ele>1854</ele>
        <time>2024-06-05T19:35:55+00:00</time>
      </trkpt>
      <trkpt lat="45.37909" lon="6.15865">
        <ele>1854</ele>
        <time>2024-06-05T19:35:58+00:00</time>
      </trkpt>
      <trkpt lat="45.37936" lon="6.15895">
        <ele>1853</ele>
        <time>2024-06-05T19:36:01+00:00</time>
      </trkpt>
      <trkpt lat="45.37969" lon="6.15926">
        <ele>1848</ele>
        <time>2024-06-05T19:36:04+00:00</time>
      </trkpt>
      <trkpt lat="45.37989" lon="6.15946">
        <ele>1842</ele>
        <time>2024-06-05T19:36:07+00:00</time>
      </trkpt>
      <trkpt lat="45.38003" lon="6.1597">
        <ele>1833</ele>
        <time>2024-06-05T19:36:10+00:00</time>
      </trkpt>
      <trkpt lat="45.38018" lon="6.16015">
        <ele>1817</ele>
        <time>2024-06-05T19:36:13+00:00</time>
      </trkpt>
      <trkpt lat="45.38019" lon="6.16036">
        <ele>1810</ele>
        <time>2024-06-05T19:36:16+00:00</time>
      </trkpt>
      <trkpt lat="45.38016" lon="6.16038">
        <ele>1810</ele>
        <time>2024-06-05T19:36:19+00:00</time>
      </trkpt>
      <trkpt lat="45.3801" lon="6.16045">
        <ele>1807</ele>
        <time>2024-06-05T19:36:22+00:00</time>
      </trkpt>
      <trkpt lat="45.38012" lon="6.16053">
        <ele>1805</ele>
        <time>2024-06-05T19:36:25+00:00</time>
      </trkpt>
      <trkpt lat="45.38013" lon="6.16074">
        <ele>1802</ele>
        <time>2024-06-05T19:36:28+00:00</time>
      </trkpt>
      <trkpt lat="45.38022" lon="6.16091">
        <ele>1798</ele>
        <time>2024-06-05T19:36:31+00:00</time>
      </trkpt>
      <trkpt lat="45.3802" lon="6.16117">
        <ele>1792</ele>
        <time>2024-06-05T19:36:34+00:00</time>
      </trkpt>
      <trkpt lat="45.38015" lon="6.16137">
        <ele>1789</ele>
        <time>2024-06-05T19:36:37+00:00</time>
      </trkpt>
      <trkpt lat="45.38001" lon="6.16145">
        <ele>1784</ele>
        <time>2024-06-05T19:36:40+00:00</time>
      </trkpt>
      <trkpt lat="45.37993" lon="6.16151">
        <ele>1780</ele>
        <time>2024-06-05T19:36:43+00:00</time>
      </trkpt>
      <trkpt lat="45.3799" lon="6.16169">
        <ele>1778</ele>
        <time>2024-06-05T19:36:46+00:00</time>
      </trkpt>
      <trkpt lat="45.37983" lon="6.16173">
        <ele>1773</ele>
        <time>2024-06-05T19:36:49+00:00</time>
      </trkpt>
      <trkpt lat="45.37978" lon="6.16185">
        <ele>1772</ele>
        <time>2024-06-05T19:36:52+00:00</time>
      </trkpt>
      <trkpt lat="45.37978" lon="6.16197">
        <ele>1769</ele>
        <time>2024-06-05T19:36:55+00:00</time>
      </trkpt>
      <trkpt lat="45.37982" lon="6.16217">
        <ele>1763</ele>
        <time>2024-06-05T19:36:58+00:00</time>
      </trkpt>
      <trkpt lat="45.37999" lon="6.16244">
        <ele>1758</ele>
        <time>2024-06-05T19:37:01+00:00</time>
      </trkpt>
      <trkpt lat="45.38008" lon="6.16265">
        <ele>1756</ele>
        <time>2024-06-05T19:37:04+00:00</time>
      </trkpt>
      <trkpt lat="45.38002" lon="6.16283">
        <ele>1752</ele>
        <time>2024-06-05T19:37:07+00:00</time>
      </trkpt>
      <trkpt lat="45.37999" lon="6.16302">
        <ele>1749</ele>
        <time>2024-06-05T19:37:10+00:00</time>
      </trkpt>
      <trkpt lat="45.38011" lon="6.16324">
        <ele>1745</ele>
        <time>2024-06-05T19:37:13+00:00</time>
      </trkpt>
      <trkpt lat="45.38006" lon="6.16335">
        <ele>1743</ele>
        <time>2024-06-05T19:37:16+00:00</time>
      </trkpt>
      <trkpt lat="45.37992" lon="6.16347">
        <ele>1744</ele>
        <time>2024-06-05T19:37:19+00:00</time>
      </trkpt>
      <trkpt lat="45.37988" lon="6.16365">
        <ele>1744</ele>
        <time>2024-06-05T19:37:22+00:00</time>
      </trkpt>
      <trkpt lat="45.37985" lon="6.16377">
        <ele>1744</ele>
        <time>2024-06-05T19:37:25+00:00</time>
      </trkpt>
      <trkpt lat="45.37987" lon="6.16399">
        <ele>1742</ele>
        <time>2024-06-05T19:37:28+00:00</time>
      </trkpt>
      <trkpt lat="45.37992" lon="6.1643">
        <ele>1734</ele>
        <time>2024-06-05T19:37:31+00:00</time>
      </trkpt>
      <trkpt lat="45.37992" lon="6.16451">
        <ele>1731</ele>
        <time>2024-06-05T19:37:34+00:00</time>
      </trkpt>
      <trkpt lat="45.3799" lon="6.16472">
        <ele>1733</ele>
        <time>2024-06-05T19:37:37+00:00</time>
      </trkpt>
      <trkpt lat="45.37987" lon="6.16485">
        <ele>1730</ele>
        <time>2024-06-05T19:37:40+00:00</time>
      </trkpt>
      <trkpt lat="45.37977" lon="6.16505">
        <ele>1728</ele>
        <time>2024-06-05T19:37:43+00:00</time>
      </trkpt>
      <trkpt lat="45.37962" lon="6.16517">
        <ele>1725</ele>
        <time>2024-06-05T19:37:46+00:00</time>
      </trkpt>
      <trkpt lat="45.37953" lon="6.16525">
        <ele>1729</ele>
        <time>2024-06-05T19:37:49+00:00</time>
      </trkpt>
      <trkpt lat="45.37947" lon="6.16539">
        <ele>1730</ele>
        <time>2024-06-05T19:37:52+00:00</time>
      </trkpt>
      <trkpt lat="45.37942" lon="6.16548">
        <ele>1730</ele>
        <time>2024-06-05T19:37:55+00:00</time>
      </trkpt>
      <trkpt lat="45.3794" lon="6.1656">
        <ele>1736</ele>
        <time>2024-06-05T19:37:58+00:00</time>
      </trkpt>
      <trkpt lat="45.37939" lon="6.16573">
        <ele>1736</ele>
        <time>2024-06-05T19:38:01+00:00</time>
      </trkpt>
      <trkpt lat="45.37939" lon="6.16588">
        <ele>1737</ele>
        <time>2024-06-05T19:38:04+00:00</time>
      </trkpt>
      <trkpt lat="45.37938" lon="6.16599">
        <ele>1737</ele>
        <time>2024-06-05T19:38:07+00:00</time>
      </trkpt>
      <trkpt lat="45.37934" lon="6.16608">
        <ele>1738</ele>
        <time>2024-06-05T19:38:10+00:00</time>
      </trkpt>
      <trkpt lat="45.3793" lon="6.16614">
        <ele>1738</ele>
        <time>2024-06-05T19:38:13+00:00</time>
      </trkpt>
      <trkpt lat="45.37925" lon="6.1661">
        <ele>1743</ele>
        <time>2024-06-05T19:38:16+00:00</time>
      </trkpt>
      <trkpt lat="45.37922" lon="6.16607">
        <ele>1743</ele>
        <time>2024-06-05T19:38:19+00:00</time>
      </trkpt>
      <trkpt lat="45.37918" lon="6.16612">
        <ele>1751</ele>
        <time>2024-06-05T19:38:22+00:00</time>
      </trkpt>
      <trkpt lat="45.37913" lon="6.16613">
        <ele>1751</ele>
        <time>2024-06-05T19:38:25+00:00</time>
      </trkpt>
      <trkpt lat="45.37912" lon="6.16622">
        <ele>1751</ele>
        <time>2024-06-05T19:38:28+00:00</time>
      </trkpt>
      <trkpt lat="45.37911" lon="6.16631">
        <ele>1752</ele>
        <time>2024-06-05T19:38:31+00:00</time>
      </trkpt>
      <trkpt lat="45.37907" lon="6.16638">
        <ele>1758</ele>
        <time>2024-06-05T19:38:34+00:00</time>
      </trkpt>
      <trkpt lat="45.37907" lon="6.16658">
        <ele>1762</ele>
        <time>2024-06-05T19:38:37+00:00</time>
      </trkpt>
      <trkpt lat="45.37908" lon="6.16681">
        <ele>1769</ele>
        <time>2024-06-05T19:38:40+00:00</time>
      </trkpt>
      <trkpt lat="45.37915" lon="6.16707">
        <ele>1765</ele>
        <time>2024-06-05T19:38:43+00:00</time>
      </trkpt>
      <trkpt lat="45.37916" lon="6.16731">
        <ele>1770</ele>
        <time>2024-06-05T19:38:46+00:00</time>
      </trkpt>
      <trkpt lat="45.37916" lon="6.16765">
        <ele>1776</ele>
        <time>2024-06-05T19:38:49+00:00</time>
      </trkpt>
      <trkpt lat="45.37921" lon="6.16787">
        <ele>1770</ele>
        <time>2024-06-05T19:38:52+00:00</time>
      </trkpt>
      <trkpt lat="45.37929" lon="6.16814">
        <ele>1779</ele>
        <time>2024-06-05T19:38:55+00:00</time>
      </trkpt>
      <trkpt lat="45.3794" lon="6.16841">
        <ele>1777</ele>
        <time>2024-06-05T19:38:58+00:00</time>
      </trkpt>
      <trkpt lat="45.37945" lon="6.16855">
        <ele>1778</ele>
        <time>2024-06-05T19:39:01+00:00</time>
      </trkpt>
      <trkpt lat="45.37951" lon="6.16872">
        <ele>1776</ele>
        <time>2024-06-05T19:39:04+00:00</time>
      </trkpt>
      <trkpt lat="45.37957" lon="6.16881">
        <ele>1778</ele>
        <time>2024-06-05T19:39:07+00:00</time>
      </trkpt>
      <trkpt lat="45.37963" lon="6.16902">
        <ele>1772</ele>
        <time>2024-06-05T19:39:10+00:00</time>
      </trkpt>
      <trkpt lat="45.37975" lon="6.16922">
        <ele>1769</ele>
        <time>2024-06-05T19:39:13+00:00</time>
      </trkpt>
      <trkpt lat="45.3799" lon="6.16953">
        <ele>1771</ele>
        <time>2024-06-05T19:39:16+00:00</time>
      </trkpt>
      <trkpt lat="45.37995" lon="6.16968">
        <ele>1764</ele>
        <time>2024-06-05T19:39:19+00:00</time>
      </trkpt>
      <trkpt lat="45.37994" lon="6.16983">
        <ele>1770</ele>
        <time>2024-06-05T19:39:22+00:00</time>
      </trkpt>
      <trkpt lat="45.38002" lon="6.17008">
        <ele>1768</ele>
        <time>2024-06-05T19:39:25+00:00</time>
      </trkpt>
      <trkpt lat="45.38004" lon="6.17016">
        <ele>1770</ele>
        <time>2024-06-05T19:39:28+00:00</time>
      </trkpt>
      <trkpt lat="45.38004" lon="6.17023">
        <ele>1770</ele>
        <time>2024-06-05T19:39:31+00:00</time>
      </trkpt>
      <trkpt lat="45.38003" lon="6.17025">
        <ele>1770</ele>
        <time>2024-06-05T19:39:34+00:00</time>
      </trkpt>
      <trkpt lat="45.38003" lon="6.17029">
        <ele>1770</ele>
        <time>2024-06-05T19:39:37+00:00</time>
      </trkpt>
      <trkpt lat="45.38003" lon="6.17036">
        <ele>1769</ele>
        <time>2024-06-05T19:39:40+00:00</time>
      </trkpt>
      <trkpt lat="45.38002" lon="6.17041">
        <ele>1766</ele>
        <time>2024-06-05T19:39:43+00:00</time>
      </trkpt>
      <trkpt lat="45.38003" lon="6.17044">
        <ele>1766</ele>
        <time>2024-06-05T19:39:46+00:00</time>
      </trkpt>
      <trkpt lat="45.38003" lon="6.17046">
        <ele>1766</ele>
        <time>2024-06-05T19:39:49+00:00</time>
      </trkpt>
      <trkpt lat="45.38" lon="6.1705">
        <ele>1760</ele>
        <time>2024-06-05T19:39:52+00:00</time>
      </trkpt>
      <trkpt lat="45.37993" lon="6.17057">
        <ele>1761</ele>
        <time>2024-06-05T19:39:55+00:00</time>
      </trkpt>
      <trkpt lat="45.3799" lon="6.17057">
        <ele>1761</ele>
        <time>2024-06-05T19:39:58+00:00</time>
      </trkpt>
      <trkpt lat="45.37985" lon="6.1706">
        <ele>1757</ele>
        <time>2024-06-05T19:40:01+00:00</time>
      </trkpt>
      <trkpt lat="45.37979" lon="6.17066">
        <ele>1758</ele>
        <time>2024-06-05T19:40:04+00:00</time>
      </trkpt>
      <trkpt lat="45.37975" lon="6.17067">
        <ele>1758</ele>
        <time>2024-06-05T19:40:07+00:00</time>
      </trkpt>
      <trkpt lat="45.37972" lon="6.17069">
        <ele>1758</ele>
        <time>2024-06-05T19:40:10+00:00</time>
      </trkpt>
      <trkpt lat="45.37966" lon="6.17074">
        <ele>1755</ele>
        <time>2024-06-05T19:40:13+00:00</time>
      </trkpt>
      <trkpt lat="45.37963" lon="6.17081">
        <ele>1748</ele>
        <time>2024-06-05T19:40:16+00:00</time>
      </trkpt>
      <trkpt lat="45.37956" lon="6.17085">
        <ele>1749</ele>
        <time>2024-06-05T19:40:19+00:00</time>
      </trkpt>
      <trkpt lat="45.37956" lon="6.17085">
        <ele>1749</ele>
        <time>2024-06-05T19:40:22+00:00</time>
      </trkpt>
      <trkpt lat="45.37956" lon="6.17085">
        <ele>1749</ele>
        <time>2024-06-05T19:40:25+00:00</time>
      </trkpt>
      <trkpt lat="45.37944" lon="6.17095">
        <ele>1745</ele>
        <time>2024-06-05T19:40:28+00:00</time>
      </trkpt>
      <trkpt lat="45.37941" lon="6.17098">
        <ele>1745</ele>
        <time>2024-06-05T19:40:31+00:00</time>
      </trkpt>
      <trkpt lat="45.37939" lon="6.17107">
        <ele>1741</ele>
        <time>2024-06-05T19:40:34+00:00</time>
      </trkpt>
      <trkpt lat="45.37934" lon="6.1711">
        <ele>1736</ele>
        <time>2024-06-05T19:40:37+00:00</time>
      </trkpt>
      <trkpt lat="45.37929" lon="6.17112">
        <ele>1741</ele>
        <time>2024-06-05T19:40:40+00:00</time>
      </trkpt>
      <trkpt lat="45.37924" lon="6.1711">
        <ele>1739</ele>
        <time>2024-06-05T19:40:43+00:00</time>
      </trkpt>
      <trkpt lat="45.37917" lon="6.17107">
        <ele>1733</ele>
        <time>2024-06-05T19:40:46+00:00</time>
      </trkpt>
      <trkpt lat="45.37916" lon="6.17103">
        <ele>1733</ele>
        <time>2024-06-05T19:40:49+00:00</time>
      </trkpt>
      <trkpt lat="45.37913" lon="6.17096">
        <ele>1738</ele>
        <time>2024-06-05T19:40:52+00:00</time>
      </trkpt>
      <trkpt lat="45.37907" lon="6.17091">
        <ele>1734</ele>
        <time>2024-06-05T19:40:55+00:00</time>
      </trkpt>
      <trkpt lat="45.37902" lon="6.1709">
        <ele>1739</ele>
        <time>2024-06-05T19:40:58+00:00</time>
      </trkpt>
      <trkpt lat="45.37896" lon="6.17088">
        <ele>1738</ele>
        <time>2024-06-05T19:41:01+00:00</time>
      </trkpt>
      <trkpt lat="45.37893" lon="6.17086">
        <ele>1738</ele>
        <time>2024-06-05T19:41:04+00:00</time>
      </trkpt>
      <trkpt lat="45.37887" lon="6.17087">
        <ele>1736</ele>
        <time>2024-06-05T19:41:07+00:00</time>
      </trkpt>
      <trkpt lat="45.37881" lon="6.17085">
        <ele>1736</ele>
        <time>2024-06-05T19:41:10+00:00</time>
      </trkpt>
      <trkpt lat="45.37875" lon="6.17084">
        <ele>1735</ele>
        <time>2024-06-05T19:41:13+00:00</time>
      </trkpt>
      <trkpt lat="45.37872" lon="6.17081">
        <ele>1739</ele>
        <time>2024-06-05T19:41:16+00:00</time>
      </trkpt>
      <trkpt lat="45.37868" lon="6.1708">
        <ele>1743</ele>
        <time>2024-06-05T19:41:19+00:00</time>
      </trkpt>
      <trkpt lat="45.37863" lon="6.17079">
        <ele>1743</ele>
        <time>2024-06-05T19:41:22+00:00</time>
      </trkpt>
      <trkpt lat="45.37857" lon="6.17081">
        <ele>1740</ele>
        <time>2024-06-05T19:41:25+00:00</time>
      </trkpt>
      <trkpt lat="45.37852" lon="6.17086">
        <ele>1733</ele>
        <time>2024-06-05T19:41:28+00:00</time>
      </trkpt>
      <trkpt lat="45.3785" lon="6.17096">
        <ele>1736</ele>
        <time>2024-06-05T19:41:31+00:00</time>
      </trkpt>
      <trkpt lat="45.37845" lon="6.17104">
        <ele>1734</ele>
        <time>2024-06-05T19:41:34+00:00</time>
      </trkpt>
      <trkpt lat="45.37841" lon="6.1711">
        <ele>1727</ele>
        <time>2024-06-05T19:41:37+00:00</time>
      </trkpt>
      <trkpt lat="45.37835" lon="6.17117">
        <ele>1728</ele>
        <time>2024-06-05T19:41:40+00:00</time>
      </trkpt>
      <trkpt lat="45.37828" lon="6.1712">
        <ele>1725</ele>
        <time>2024-06-05T19:41:43+00:00</time>
      </trkpt>
      <trkpt lat="45.37823" lon="6.1712">
        <ele>1725</ele>
        <time>2024-06-05T19:41:46+00:00</time>
      </trkpt>
      <trkpt lat="45.37818" lon="6.1712">
        <ele>1725</ele>
        <time>2024-06-05T19:41:49+00:00</time>
      </trkpt>
      <trkpt lat="45.37813" lon="6.17121">
        <ele>1725</ele>
        <time>2024-06-05T19:41:52+00:00</time>
      </trkpt>
      <trkpt lat="45.37809" lon="6.17124">
        <ele>1725</ele>
        <time>2024-06-05T19:41:55+00:00</time>
      </trkpt>
      <trkpt lat="45.37804" lon="6.17129">
        <ele>1725</ele>
        <time>2024-06-05T19:41:58+00:00</time>
      </trkpt>
      <trkpt lat="45.378" lon="6.17132">
        <ele>1719</ele>
        <time>2024-06-05T19:42:01+00:00</time>
      </trkpt>
      <trkpt lat="45.37794" lon="6.17134">
        <ele>1719</ele>
        <time>2024-06-05T19:42:04+00:00</time>
      </trkpt>
      <trkpt lat="45.37787" lon="6.17134">
        <ele>1717</ele>
        <time>2024-06-05T19:42:07+00:00</time>
      </trkpt>
      <trkpt lat="45.37783" lon="6.17131">
        <ele>1717</ele>
        <time>2024-06-05T19:42:10+00:00</time>
      </trkpt>
      <trkpt lat="45.37778" lon="6.17128">
        <ele>1719</ele>
        <time>2024-06-05T19:42:13+00:00</time>
      </trkpt>
      <trkpt lat="45.37774" lon="6.17125">
        <ele>1719</ele>
        <time>2024-06-05T19:42:16+00:00</time>
      </trkpt>
      <trkpt lat="45.37766" lon="6.17123">
        <ele>1714</ele>
        <time>2024-06-05T19:42:19+00:00</time>
      </trkpt>
      <trkpt lat="45.3776" lon="6.17127">
        <ele>1714</ele>
        <time>2024-06-05T19:42:22+00:00</time>
      </trkpt>
      <trkpt lat="45.37756" lon="6.17133">
        <ele>1710</ele>
        <time>2024-06-05T19:42:25+00:00</time>
      </trkpt>
      <trkpt lat="45.37754" lon="6.17143">
        <ele>1708</ele>
        <time>2024-06-05T19:42:28+00:00</time>
      </trkpt>
      <trkpt lat="45.37755" lon="6.17152">
        <ele>1706</ele>
        <time>2024-06-05T19:42:31+00:00</time>
      </trkpt>
      <trkpt lat="45.37751" lon="6.17157">
        <ele>1706</ele>
        <time>2024-06-05T19:42:34+00:00</time>
      </trkpt>
      <trkpt lat="45.37741" lon="6.17165">
        <ele>1705</ele>
        <time>2024-06-05T19:42:37+00:00</time>
      </trkpt>
      <trkpt lat="45.37735" lon="6.17172">
        <ele>1702</ele>
        <time>2024-06-05T19:42:40+00:00</time>
      </trkpt>
      <trkpt lat="45.37735" lon="6.17178">
        <ele>1702</ele>
        <time>2024-06-05T19:42:43+00:00</time>
      </trkpt>
      <trkpt lat="45.37734" lon="6.17183">
        <ele>1700</ele>
        <time>2024-06-05T19:42:46+00:00</time>
      </trkpt>
      <trkpt lat="45.37737" lon="6.17188">
        <ele>1700</ele>
        <time>2024-06-05T19:42:49+00:00</time>
      </trkpt>
      <trkpt lat="45.37739" lon="6.17193">
        <ele>1698</ele>
        <time>2024-06-05T19:42:52+00:00</time>
      </trkpt>
      <trkpt lat="45.37736" lon="6.17196">
        <ele>1698</ele>
        <time>2024-06-05T19:42:55+00:00</time>
      </trkpt>
      <trkpt lat="45.37732" lon="6.17197">
        <ele>1698</ele>
        <time>2024-06-05T19:42:58+00:00</time>
      </trkpt>
      <trkpt lat="45.37728" lon="6.172">
        <ele>1694</ele>
        <time>2024-06-05T19:43:01+00:00</time>
      </trkpt>
      <trkpt lat="45.37722" lon="6.17206">
        <ele>1694</ele>
        <time>2024-06-05T19:43:04+00:00</time>
      </trkpt>
      <trkpt lat="45.37719" lon="6.17211">
        <ele>1691</ele>
        <time>2024-06-05T19:43:07+00:00</time>
      </trkpt>
      <trkpt lat="45.37716" lon="6.17214">
        <ele>1691</ele>
        <time>2024-06-05T19:43:10+00:00</time>
      </trkpt>
      <trkpt lat="45.37711" lon="6.17214">
        <ele>1691</ele>
        <time>2024-06-05T19:43:13+00:00</time>
      </trkpt>
      <trkpt lat="45.37708" lon="6.17212">
        <ele>1690</ele>
        <time>2024-06-05T19:43:16+00:00</time>
      </trkpt>
      <trkpt lat="45.37705" lon="6.17212">
        <ele>1690</ele>
        <time>2024-06-05T19:43:19+00:00</time>
      </trkpt>
      <trkpt lat="45.37702" lon="6.17218">
        <ele>1690</ele>
        <time>2024-06-05T19:43:22+00:00</time>
      </trkpt>
      <trkpt lat="45.37698" lon="6.17223">
        <ele>1687</ele>
        <time>2024-06-05T19:43:25+00:00</time>
      </trkpt>
      <trkpt lat="45.37695" lon="6.1723">
        <ele>1687</ele>
        <time>2024-06-05T19:43:28+00:00</time>
      </trkpt>
      <trkpt lat="45.37689" lon="6.17231">
        <ele>1685</ele>
        <time>2024-06-05T19:43:31+00:00</time>
      </trkpt>
      <trkpt lat="45.37683" lon="6.17236">
        <ele>1685</ele>
        <time>2024-06-05T19:43:34+00:00</time>
      </trkpt>
      <trkpt lat="45.3768" lon="6.17245">
        <ele>1683</ele>
        <time>2024-06-05T19:43:37+00:00</time>
      </trkpt>
      <trkpt lat="45.37678" lon="6.17252">
        <ele>1684</ele>
        <time>2024-06-05T19:43:40+00:00</time>
      </trkpt>
      <trkpt lat="45.37677" lon="6.17272">
        <ele>1680</ele>
        <time>2024-06-05T19:43:43+00:00</time>
      </trkpt>
      <trkpt lat="45.37669" lon="6.17292">
        <ele>1679</ele>
        <time>2024-06-05T19:43:46+00:00</time>
      </trkpt>
      <trkpt lat="45.37663" lon="6.17321">
        <ele>1676</ele>
        <time>2024-06-05T19:43:49+00:00</time>
      </trkpt>
      <trkpt lat="45.37674" lon="6.17358">
        <ele>1674</ele>
        <time>2024-06-05T19:43:52+00:00</time>
      </trkpt>
      <trkpt lat="45.37702" lon="6.17376">
        <ele>1666</ele>
        <time>2024-06-05T19:43:55+00:00</time>
      </trkpt>
      <trkpt lat="45.37721" lon="6.17394">
        <ele>1662</ele>
        <time>2024-06-05T19:43:58+00:00</time>
      </trkpt>
      <trkpt lat="45.37742" lon="6.1742">
        <ele>1665</ele>
        <time>2024-06-05T19:44:01+00:00</time>
      </trkpt>
      <trkpt lat="45.37768" lon="6.1745">
        <ele>1666</ele>
        <time>2024-06-05T19:44:04+00:00</time>
      </trkpt>
      <trkpt lat="45.3778" lon="6.17473">
        <ele>1668</ele>
        <time>2024-06-05T19:44:07+00:00</time>
      </trkpt>
      <trkpt lat="45.37788" lon="6.17488">
        <ele>1672</ele>
        <time>2024-06-05T19:44:10+00:00</time>
      </trkpt>
      <trkpt lat="45.37797" lon="6.17505">
        <ele>1668</ele>
        <time>2024-06-05T19:44:13+00:00</time>
      </trkpt>
      <trkpt lat="45.37792" lon="6.17515">
        <ele>1670</ele>
        <time>2024-06-05T19:44:16+00:00</time>
      </trkpt>
      <trkpt lat="45.37774" lon="6.17523">
        <ele>1668</ele>
        <time>2024-06-05T19:44:19+00:00</time>
      </trkpt>
      <trkpt lat="45.37771" lon="6.17534">
        <ele>1668</ele>
        <time>2024-06-05T19:44:22+00:00</time>
      </trkpt>
      <trkpt lat="45.37776" lon="6.17546">
        <ele>1669</ele>
        <time>2024-06-05T19:44:25+00:00</time>
      </trkpt>
      <trkpt lat="45.37782" lon="6.17556">
        <ele>1668</ele>
        <time>2024-06-05T19:44:28+00:00</time>
      </trkpt>
      <trkpt lat="45.37782" lon="6.17577">
        <ele>1674</ele>
        <time>2024-06-05T19:44:31+00:00</time>
      </trkpt>
      <trkpt lat="45.37785" lon="6.17596">
        <ele>1678</ele>
        <time>2024-06-05T19:44:34+00:00</time>
      </trkpt>
      <trkpt lat="45.37782" lon="6.17624">
        <ele>1678</ele>
        <time>2024-06-05T19:44:37+00:00</time>
      </trkpt>
      <trkpt lat="45.37784" lon="6.17655">
        <ele>1678</ele>
        <time>2024-06-05T19:44:40+00:00</time>
      </trkpt>
      <trkpt lat="45.37787" lon="6.17685">
        <ele>1673</ele>
        <time>2024-06-05T19:44:43+00:00</time>
      </trkpt>
      <trkpt lat="45.37781" lon="6.17705">
        <ele>1668</ele>
        <time>2024-06-05T19:44:46+00:00</time>
      </trkpt>
      <trkpt lat="45.37784" lon="6.17717">
        <ele>1665</ele>
        <time>2024-06-05T19:44:49+00:00</time>
      </trkpt>
      <trkpt lat="45.37794" lon="6.17719">
        <ele>1663</ele>
        <time>2024-06-05T19:44:52+00:00</time>
      </trkpt>
      <trkpt lat="45.37799" lon="6.17723">
        <ele>1660</ele>
        <time>2024-06-05T19:44:55+00:00</time>
      </trkpt>
      <trkpt lat="45.378" lon="6.17744">
        <ele>1655</ele>
        <time>2024-06-05T19:44:58+00:00</time>
      </trkpt>
      <trkpt lat="45.37802" lon="6.17759">
        <ele>1653</ele>
        <time>2024-06-05T19:45:01+00:00</time>
      </trkpt>
      <trkpt lat="45.37806" lon="6.17786">
        <ele>1653</ele>
        <time>2024-06-05T19:45:04+00:00</time>
      </trkpt>
      <trkpt lat="45.37807" lon="6.17802">
        <ele>1651</ele>
        <time>2024-06-05T19:45:07+00:00</time>
      </trkpt>
      <trkpt lat="45.37809" lon="6.17815">
        <ele>1652</ele>
        <time>2024-06-05T19:45:10+00:00</time>
      </trkpt>
      <trkpt lat="45.37812" lon="6.17822">
        <ele>1646</ele>
        <time>2024-06-05T19:45:13+00:00</time>
      </trkpt>
      <trkpt lat="45.37812" lon="6.17836">
        <ele>1643</ele>
        <time>2024-06-05T19:45:16+00:00</time>
      </trkpt>
      <trkpt lat="45.37825" lon="6.17839">
        <ele>1639</ele>
        <time>2024-06-05T19:45:19+00:00</time>
      </trkpt>
      <trkpt lat="45.3783" lon="6.1785">
        <ele>1632</ele>
        <time>2024-06-05T19:45:22+00:00</time>
      </trkpt>
      <trkpt lat="45.37829" lon="6.17864">
        <ele>1630</ele>
        <time>2024-06-05T19:45:25+00:00</time>
      </trkpt>
      <trkpt lat="45.37829" lon="6.17869">
        <ele>1630</ele>
        <time>2024-06-05T19:45:28+00:00</time>
      </trkpt>
      <trkpt lat="45.37825" lon="6.1788">
        <ele>1621</ele>
        <time>2024-06-05T19:45:31+00:00</time>
      </trkpt>
      <trkpt lat="45.37815" lon="6.17877">
        <ele>1623</ele>
        <time>2024-06-05T19:45:34+00:00</time>
      </trkpt>
      <trkpt lat="45.37805" lon="6.17888">
        <ele>1620</ele>
        <time>2024-06-05T19:45:37+00:00</time>
      </trkpt>
      <trkpt lat="45.37799" lon="6.17905">
        <ele>1611</ele>
        <time>2024-06-05T19:45:40+00:00</time>
      </trkpt>
      <trkpt lat="45.37791" lon="6.17915">
        <ele>1607</ele>
        <time>2024-06-05T19:45:43+00:00</time>
      </trkpt>
      <trkpt lat="45.37799" lon="6.17927">
        <ele>1604</ele>
        <time>2024-06-05T19:45:46+00:00</time>
      </trkpt>
      <trkpt lat="45.37796" lon="6.17938">
        <ele>1597</ele>
        <time>2024-06-05T19:45:49+00:00</time>
      </trkpt>
      <trkpt lat="45.37797" lon="6.17949">
        <ele>1593</ele>
        <time>2024-06-05T19:45:52+00:00</time>
      </trkpt>
      <trkpt lat="45.37794" lon="6.17962">
        <ele>1583</ele>
        <time>2024-06-05T19:45:55+00:00</time>
      </trkpt>
      <trkpt lat="45.37792" lon="6.17966">
        <ele>1583</ele>
        <time>2024-06-05T19:45:58+00:00</time>
      </trkpt>
      <trkpt lat="45.37786" lon="6.17968">
        <ele>1582</ele>
        <time>2024-06-05T19:46:01+00:00</time>
      </trkpt>
      <trkpt lat="45.37781" lon="6.1797">
        <ele>1582</ele>
        <time>2024-06-05T19:46:04+00:00</time>
      </trkpt>
      <trkpt lat="45.37775" lon="6.17973">
        <ele>1577</ele>
        <time>2024-06-05T19:46:07+00:00</time>
      </trkpt>
      <trkpt lat="45.37779" lon="6.17985">
        <ele>1573</ele>
        <time>2024-06-05T19:46:10+00:00</time>
      </trkpt>
      <trkpt lat="45.37774" lon="6.17992">
        <ele>1567</ele>
        <time>2024-06-05T19:46:13+00:00</time>
      </trkpt>
      <trkpt lat="45.37774" lon="6.18002">
        <ele>1564</ele>
        <time>2024-06-05T19:46:16+00:00</time>
      </trkpt>
      <trkpt lat="45.37767" lon="6.18007">
        <ele>1564</ele>
        <time>2024-06-05T19:46:19+00:00</time>
      </trkpt>
      <trkpt lat="45.37761" lon="6.18007">
        <ele>1564</ele>
        <time>2024-06-05T19:46:22+00:00</time>
      </trkpt>
      <trkpt lat="45.37759" lon="6.18013">
        <ele>1562</ele>
        <time>2024-06-05T19:46:25+00:00</time>
      </trkpt>
      <trkpt lat="45.3776" lon="6.18021">
        <ele>1558</ele>
        <time>2024-06-05T19:46:28+00:00</time>
      </trkpt>
      <trkpt lat="45.37757" lon="6.18028">
        <ele>1560</ele>
        <time>2024-06-05T19:46:31+00:00</time>
      </trkpt>
      <trkpt lat="45.37761" lon="6.1804">
        <ele>1556</ele>
        <time>2024-06-05T19:46:34+00:00</time>
      </trkpt>
      <trkpt lat="45.37762" lon="6.18052">
        <ele>1551</ele>
        <time>2024-06-05T19:46:37+00:00</time>
      </trkpt>
      <trkpt lat="45.37752" lon="6.1806">
        <ele>1552</ele>
        <time>2024-06-05T19:46:40+00:00</time>
      </trkpt>
      <trkpt lat="45.37746" lon="6.18064">
        <ele>1548</ele>
        <time>2024-06-05T19:46:43+00:00</time>
      </trkpt>
      <trkpt lat="45.37739" lon="6.18068">
        <ele>1551</ele>
        <time>2024-06-05T19:46:46+00:00</time>
      </trkpt>
      <trkpt lat="45.37728" lon="6.18079">
        <ele>1548</ele>
        <time>2024-06-05T19:46:49+00:00</time>
      </trkpt>
      <trkpt lat="45.37723" lon="6.18085">
        <ele>1542</ele>
        <time>2024-06-05T19:46:52+00:00</time>
      </trkpt>
      <trkpt lat="45.37717" lon="6.18096">
        <ele>1542</ele>
        <time>2024-06-05T19:46:55+00:00</time>
      </trkpt>
      <trkpt lat="45.37716" lon="6.18105">
        <ele>1540</ele>
        <time>2024-06-05T19:46:58+00:00</time>
      </trkpt>
      <trkpt lat="45.37713" lon="6.18112">
        <ele>1535</ele>
        <time>2024-06-05T19:47:01+00:00</time>
      </trkpt>
      <trkpt lat="45.37709" lon="6.18116">
        <ele>1535</ele>
        <time>2024-06-05T19:47:04+00:00</time>
      </trkpt>
      <trkpt lat="45.37703" lon="6.18126">
        <ele>1531</ele>
        <time>2024-06-05T19:47:07+00:00</time>
      </trkpt>
      <trkpt lat="45.37703" lon="6.18137">
        <ele>1533</ele>
        <time>2024-06-05T19:47:10+00:00</time>
      </trkpt>
      <trkpt lat="45.37702" lon="6.18147">
        <ele>1532</ele>
        <time>2024-06-05T19:47:13+00:00</time>
      </trkpt>
      <trkpt lat="45.37701" lon="6.18153">
        <ele>1531</ele>
        <time>2024-06-05T19:47:16+00:00</time>
      </trkpt>
      <trkpt lat="45.37698" lon="6.18166">
        <ele>1532</ele>
        <time>2024-06-05T19:47:19+00:00</time>
      </trkpt>
      <trkpt lat="45.37698" lon="6.18178">
        <ele>1529</ele>
        <time>2024-06-05T19:47:22+00:00</time>
      </trkpt>
      <trkpt lat="45.37699" lon="6.18186">
        <ele>1530</ele>
        <time>2024-06-05T19:47:25+00:00</time>
      </trkpt>
      <trkpt lat="45.37699" lon="6.18197">
        <ele>1529</ele>
        <time>2024-06-05T19:47:28+00:00</time>
      </trkpt>
      <trkpt lat="45.37699" lon="6.18205">
        <ele>1526</ele>
        <time>2024-06-05T19:47:31+00:00</time>
      </trkpt>
      <trkpt lat="45.37699" lon="6.18213">
        <ele>1525</ele>
        <time>2024-06-05T19:47:34+00:00</time>
      </trkpt>
      <trkpt lat="45.37698" lon="6.1823">
        <ele>1524</ele>
        <time>2024-06-05T19:47:37+00:00</time>
      </trkpt>
      <trkpt lat="45.37699" lon="6.18244">
        <ele>1523</ele>
        <time>2024-06-05T19:47:40+00:00</time>
      </trkpt>
      <trkpt lat="45.37699" lon="6.18261">
        <ele>1521</ele>
        <time>2024-06-05T19:47:43+00:00</time>
      </trkpt>
      <trkpt lat="45.37698" lon="6.18272">
        <ele>1520</ele>
        <time>2024-06-05T19:47:46+00:00</time>
      </trkpt>
      <trkpt lat="45.37696" lon="6.18279">
        <ele>1520</ele>
        <time>2024-06-05T19:47:49+00:00</time>
      </trkpt>
      <trkpt lat="45.37692" lon="6.18286">
        <ele>1517</ele>
        <time>2024-06-05T19:47:52+00:00</time>
      </trkpt>
      <trkpt lat="45.37684" lon="6.18292">
        <ele>1513</ele>
        <time>2024-06-05T19:47:55+00:00</time>
      </trkpt>
      <trkpt lat="45.37679" lon="6.18299">
        <ele>1517</ele>
        <time>2024-06-05T19:47:58+00:00</time>
      </trkpt>
      <trkpt lat="45.37677" lon="6.18304">
        <ele>1514</ele>
        <time>2024-06-05T19:48:01+00:00</time>
      </trkpt>
      <trkpt lat="45.37677" lon="6.18308">
        <ele>1514</ele>
        <time>2024-06-05T19:48:04+00:00</time>
      </trkpt>
      <trkpt lat="45.3768" lon="6.18312">
        <ele>1510</ele>
        <time>2024-06-05T19:48:07+00:00</time>
      </trkpt>
      <trkpt lat="45.37684" lon="6.18314">
        <ele>1507</ele>
        <time>2024-06-05T19:48:10+00:00</time>
      </trkpt>
      <trkpt lat="45.3769" lon="6.18312">
        <ele>1505</ele>
        <time>2024-06-05T19:48:13+00:00</time>
      </trkpt>
      <trkpt lat="45.37687" lon="6.18333">
        <ele>1503</ele>
        <time>2024-06-05T19:48:16+00:00</time>
      </trkpt>
      <trkpt lat="45.37704" lon="6.18337">
        <ele>1498</ele>
        <time>2024-06-05T19:48:19+00:00</time>
      </trkpt>
      <trkpt lat="45.37715" lon="6.18353">
        <ele>1489</ele>
        <time>2024-06-05T19:48:22+00:00</time>
      </trkpt>
      <trkpt lat="45.37718" lon="6.18379">
        <ele>1484</ele>
        <time>2024-06-05T19:48:25+00:00</time>
      </trkpt>
      <trkpt lat="45.37714" lon="6.18408">
        <ele>1481</ele>
        <time>2024-06-05T19:48:28+00:00</time>
      </trkpt>
      <trkpt lat="45.37716" lon="6.18436">
        <ele>1479</ele>
        <time>2024-06-05T19:48:31+00:00</time>
      </trkpt>
      <trkpt lat="45.37731" lon="6.18437">
        <ele>1472</ele>
        <time>2024-06-05T19:48:34+00:00</time>
      </trkpt>
      <trkpt lat="45.37741" lon="6.1845">
        <ele>1466</ele>
        <time>2024-06-05T19:48:37+00:00</time>
      </trkpt>
      <trkpt lat="45.37757" lon="6.18431">
        <ele>1462</ele>
        <time>2024-06-05T19:48:40+00:00</time>
      </trkpt>
      <trkpt lat="45.37772" lon="6.18423">
        <ele>1455</ele>
        <time>2024-06-05T19:48:43+00:00</time>
      </trkpt>
      <trkpt lat="45.37791" lon="6.18431">
        <ele>1449</ele>
        <time>2024-06-05T19:48:46+00:00</time>
      </trkpt>
      <trkpt lat="45.37809" lon="6.18443">
        <ele>1445</ele>
        <time>2024-06-05T19:48:49+00:00</time>
      </trkpt>
      <trkpt lat="45.37837" lon="6.18441">
        <ele>1440</ele>
        <time>2024-06-05T19:48:52+00:00</time>
      </trkpt>
      <trkpt lat="45.37852" lon="6.18444">
        <ele>1435</ele>
        <time>2024-06-05T19:48:55+00:00</time>
      </trkpt>
      <trkpt lat="45.37868" lon="6.1843">
        <ele>1430</ele>
        <time>2024-06-05T19:48:58+00:00</time>
      </trkpt>
      <trkpt lat="45.37873" lon="6.18431">
        <ele>1430</ele>
        <time>2024-06-05T19:49:01+00:00</time>
      </trkpt>
      <trkpt lat="45.37887" lon="6.18431">
        <ele>1428</ele>
        <time>2024-06-05T19:49:04+00:00</time>
      </trkpt>
      <trkpt lat="45.3789" lon="6.18441">
        <ele>1425</ele>
        <time>2024-06-05T19:49:07+00:00</time>
      </trkpt>
      <trkpt lat="45.37893" lon="6.18451">
        <ele>1424</ele>
        <time>2024-06-05T19:49:10+00:00</time>
      </trkpt>
      <trkpt lat="45.37892" lon="6.18471">
        <ele>1424</ele>
        <time>2024-06-05T19:49:13+00:00</time>
      </trkpt>
      <trkpt lat="45.37894" lon="6.18471">
        <ele>1424</ele>
        <time>2024-06-05T19:49:16+00:00</time>
      </trkpt>
      <trkpt lat="45.37902" lon="6.18472">
        <ele>1422</ele>
        <time>2024-06-05T19:49:19+00:00</time>
      </trkpt>
      <trkpt lat="45.37911" lon="6.18467">
        <ele>1420</ele>
        <time>2024-06-05T19:49:22+00:00</time>
      </trkpt>
      <trkpt lat="45.37917" lon="6.18481">
        <ele>1418</ele>
        <time>2024-06-05T19:49:25+00:00</time>
      </trkpt>
      <trkpt lat="45.3792" lon="6.18482">
        <ele>1418</ele>
        <time>2024-06-05T19:49:28+00:00</time>
      </trkpt>
      <trkpt lat="45.37928" lon="6.18491">
        <ele>1420</ele>
        <time>2024-06-05T19:49:31+00:00</time>
      </trkpt>
      <trkpt lat="45.37928" lon="6.18492">
        <ele>1419</ele>
        <time>2024-06-05T19:49:34+00:00</time>
      </trkpt>
      <trkpt lat="45.37931" lon="6.18495">
        <ele>1418</ele>
        <time>2024-06-05T19:49:37+00:00</time>
      </trkpt>
      <trkpt lat="45.37931" lon="6.18498">
        <ele>1418</ele>
        <time>2024-06-05T19:49:40+00:00</time>
      </trkpt>
      <trkpt lat="45.37928" lon="6.185">
        <ele>1420</ele>
        <time>2024-06-05T19:49:43+00:00</time>
      </trkpt>
      <trkpt lat="45.37928" lon="6.18501">
        <ele>1420</ele>
        <time>2024-06-05T19:49:46+00:00</time>
      </trkpt>
      <trkpt lat="45.37929" lon="6.18502">
        <ele>1420</ele>
        <time>2024-06-05T19:49:49+00:00</time>
      </trkpt>
      <trkpt lat="45.37933" lon="6.18499">
        <ele>1418</ele>
        <time>2024-06-05T19:49:52+00:00</time>
      </trkpt>
      <trkpt lat="45.37934" lon="6.185">
        <ele>1418</ele>
        <time>2024-06-05T19:49:55+00:00</time>
      </trkpt>
      <trkpt lat="45.37934" lon="6.18503">
        <ele>1421</ele>
        <time>2024-06-05T19:49:58+00:00</time>
      </trkpt>
      <trkpt lat="45.37932" lon="6.18509">
        <ele>1421</ele>
        <time>2024-06-05T19:50:01+00:00</time>
      </trkpt>
      <trkpt lat="45.37932" lon="6.1851">
        <ele>1421</ele>
        <time>2024-06-05T19:50:04+00:00</time>
      </trkpt>
      <trkpt lat="45.3794" lon="6.1851">
        <ele>1426</ele>
        <time>2024-06-05T19:50:07+00:00</time>
      </trkpt>
      <trkpt lat="45.37943" lon="6.18511">
        <ele>1427</ele>
        <time>2024-06-05T19:50:10+00:00</time>
      </trkpt>
      <trkpt lat="45.37951" lon="6.18524">
        <ele>1428</ele>
        <time>2024-06-05T19:50:13+00:00</time>
      </trkpt>
      <trkpt lat="45.37959" lon="6.18525">
        <ele>1428</ele>
        <time>2024-06-05T19:50:16+00:00</time>
      </trkpt>
      <trkpt lat="45.37962" lon="6.18526">
        <ele>1429</ele>
        <time>2024-06-05T19:50:19+00:00</time>
      </trkpt>
      <trkpt lat="45.37961" lon="6.18536">
        <ele>1430</ele>
        <time>2024-06-05T19:50:22+00:00</time>
      </trkpt>
      <trkpt lat="45.3796" lon="6.18541">
        <ele>1434</ele>
        <time>2024-06-05T19:50:25+00:00</time>
      </trkpt>
      <trkpt lat="45.37957" lon="6.18547">
        <ele>1434</ele>
        <time>2024-06-05T19:50:28+00:00</time>
      </trkpt>
      <trkpt lat="45.37955" lon="6.1855">
        <ele>1434</ele>
        <time>2024-06-05T19:50:31+00:00</time>
      </trkpt>
      <trkpt lat="45.37953" lon="6.18552">
        <ele>1437</ele>
        <time>2024-06-05T19:50:34+00:00</time>
      </trkpt>
      <trkpt lat="45.3795" lon="6.18554">
        <ele>1437</ele>
        <time>2024-06-05T19:50:37+00:00</time>
      </trkpt>
      <trkpt lat="45.37947" lon="6.18556">
        <ele>1437</ele>
        <time>2024-06-05T19:50:40+00:00</time>
      </trkpt>
      <trkpt lat="45.37944" lon="6.18562">
        <ele>1440</ele>
        <time>2024-06-05T19:50:43+00:00</time>
      </trkpt>
      <trkpt lat="45.3794" lon="6.18566">
        <ele>1440</ele>
        <time>2024-06-05T19:50:46+00:00</time>
      </trkpt>
      <trkpt lat="45.37935" lon="6.18567">
        <ele>1441</ele>
        <time>2024-06-05T19:50:49+00:00</time>
      </trkpt>
      <trkpt lat="45.37931" lon="6.18569">
        <ele>1441</ele>
        <time>2024-06-05T19:50:52+00:00</time>
      </trkpt>
      <trkpt lat="45.37926" lon="6.18569">
        <ele>1440</ele>
        <time>2024-06-05T19:50:55+00:00</time>
      </trkpt>
      <trkpt lat="45.37921" lon="6.1857">
        <ele>1444</ele>
        <time>2024-06-05T19:50:58+00:00</time>
      </trkpt>
      <trkpt lat="45.37916" lon="6.18572">
        <ele>1445</ele>
        <time>2024-06-05T19:51:01+00:00</time>
      </trkpt>
      <trkpt lat="45.37911" lon="6.18574">
        <ele>1445</ele>
        <time>2024-06-05T19:51:04+00:00</time>
      </trkpt>
      <trkpt lat="45.37905" lon="6.18577">
        <ele>1446</ele>
        <time>2024-06-05T19:51:07+00:00</time>
      </trkpt>
      <trkpt lat="45.37901" lon="6.1858">
        <ele>1448</ele>
        <time>2024-06-05T19:51:10+00:00</time>
      </trkpt>
      <trkpt lat="45.37896" lon="6.18584">
        <ele>1449</ele>
        <time>2024-06-05T19:51:13+00:00</time>
      </trkpt>
      <trkpt lat="45.37892" lon="6.18586">
        <ele>1449</ele>
        <time>2024-06-05T19:51:16+00:00</time>
      </trkpt>
      <trkpt lat="45.37888" lon="6.18587">
        <ele>1451</ele>
        <time>2024-06-05T19:51:19+00:00</time>
      </trkpt>
      <trkpt lat="45.37884" lon="6.18587">
        <ele>1451</ele>
        <time>2024-06-05T19:51:22+00:00</time>
      </trkpt>
      <trkpt lat="45.37879" lon="6.18587">
        <ele>1452</ele>
        <time>2024-06-05T19:51:25+00:00</time>
      </trkpt>
      <trkpt lat="45.37874" lon="6.18589">
        <ele>1452</ele>
        <time>2024-06-05T19:51:28+00:00</time>
      </trkpt>
      <trkpt lat="45.37871" lon="6.18593">
        <ele>1454</ele>
        <time>2024-06-05T19:51:31+00:00</time>
      </trkpt>
      <trkpt lat="45.37867" lon="6.18595">
        <ele>1455</ele>
        <time>2024-06-05T19:51:34+00:00</time>
      </trkpt>
      <trkpt lat="45.37864" lon="6.18599">
        <ele>1455</ele>
        <time>2024-06-05T19:51:37+00:00</time>
      </trkpt>
      <trkpt lat="45.37862" lon="6.18603">
        <ele>1458</ele>
        <time>2024-06-05T19:51:40+00:00</time>
      </trkpt>
      <trkpt lat="45.37861" lon="6.18608">
        <ele>1458</ele>
        <time>2024-06-05T19:51:43+00:00</time>
      </trkpt>
      <trkpt lat="45.37861" lon="6.18614">
        <ele>1460</ele>
        <time>2024-06-05T19:51:46+00:00</time>
      </trkpt>
      <trkpt lat="45.37858" lon="6.18622">
        <ele>1463</ele>
        <time>2024-06-05T19:51:49+00:00</time>
      </trkpt>
      <trkpt lat="45.37855" lon="6.18629">
        <ele>1463</ele>
        <time>2024-06-05T19:51:52+00:00</time>
      </trkpt>
      <trkpt lat="45.37851" lon="6.18635">
        <ele>1467</ele>
        <time>2024-06-05T19:51:55+00:00</time>
      </trkpt>
      <trkpt lat="45.37849" lon="6.1864">
        <ele>1469</ele>
        <time>2024-06-05T19:51:58+00:00</time>
      </trkpt>
      <trkpt lat="45.37845" lon="6.18645">
        <ele>1469</ele>
        <time>2024-06-05T19:52:01+00:00</time>
      </trkpt>
      <trkpt lat="45.37841" lon="6.18648">
        <ele>1469</ele>
        <time>2024-06-05T19:52:04+00:00</time>
      </trkpt>
      <trkpt lat="45.37836" lon="6.18649">
        <ele>1470</ele>
        <time>2024-06-05T19:52:07+00:00</time>
      </trkpt>
      <trkpt lat="45.37832" lon="6.18652">
        <ele>1472</ele>
        <time>2024-06-05T19:52:10+00:00</time>
      </trkpt>
      <trkpt lat="45.37828" lon="6.18655">
        <ele>1473</ele>
        <time>2024-06-05T19:52:13+00:00</time>
      </trkpt>
      <trkpt lat="45.37825" lon="6.18659">
        <ele>1473</ele>
        <time>2024-06-05T19:52:16+00:00</time>
      </trkpt>
      <trkpt lat="45.37823" lon="6.18661">
        <ele>1476</ele>
        <time>2024-06-05T19:52:19+00:00</time>
      </trkpt>
      <trkpt lat="45.37819" lon="6.18663">
        <ele>1477</ele>
        <time>2024-06-05T19:52:22+00:00</time>
      </trkpt>
      <trkpt lat="45.37816" lon="6.18666">
        <ele>1477</ele>
        <time>2024-06-05T19:52:25+00:00</time>
      </trkpt>
      <trkpt lat="45.37813" lon="6.18671">
        <ele>1479</ele>
        <time>2024-06-05T19:52:28+00:00</time>
      </trkpt>
      <trkpt lat="45.37812" lon="6.18677">
        <ele>1479</ele>
        <time>2024-06-05T19:52:31+00:00</time>
      </trkpt>
      <trkpt lat="45.3781" lon="6.18681">
        <ele>1482</ele>
        <time>2024-06-05T19:52:34+00:00</time>
      </trkpt>
      <trkpt lat="45.37808" lon="6.18688">
        <ele>1482</ele>
        <time>2024-06-05T19:52:37+00:00</time>
      </trkpt>
      <trkpt lat="45.37806" lon="6.18694">
        <ele>1485</ele>
        <time>2024-06-05T19:52:40+00:00</time>
      </trkpt>
      <trkpt lat="45.37804" lon="6.18699">
        <ele>1485</ele>
        <time>2024-06-05T19:52:43+00:00</time>
      </trkpt>
      <trkpt lat="45.37803" lon="6.18704">
        <ele>1487</ele>
        <time>2024-06-05T19:52:46+00:00</time>
      </trkpt>
      <trkpt lat="45.37804" lon="6.18711">
        <ele>1489</ele>
        <time>2024-06-05T19:52:49+00:00</time>
      </trkpt>
      <trkpt lat="45.37804" lon="6.18717">
        <ele>1489</ele>
        <time>2024-06-05T19:52:52+00:00</time>
      </trkpt>
      <trkpt lat="45.37801" lon="6.18724">
        <ele>1493</ele>
        <time>2024-06-05T19:52:55+00:00</time>
      </trkpt>
      <trkpt lat="45.37798" lon="6.18731">
        <ele>1495</ele>
        <time>2024-06-05T19:52:58+00:00</time>
      </trkpt>
      <trkpt lat="45.37794" lon="6.18736">
        <ele>1495</ele>
        <time>2024-06-05T19:53:01+00:00</time>
      </trkpt>
      <trkpt lat="45.3779" lon="6.18738">
        <ele>1495</ele>
        <time>2024-06-05T19:53:04+00:00</time>
      </trkpt>
      <trkpt lat="45.37786" lon="6.18739">
        <ele>1496</ele>
        <time>2024-06-05T19:53:07+00:00</time>
      </trkpt>
      <trkpt lat="45.37782" lon="6.18743">
        <ele>1499</ele>
        <time>2024-06-05T19:53:10+00:00</time>
      </trkpt>
      <trkpt lat="45.37781" lon="6.18747">
        <ele>1499</ele>
        <time>2024-06-05T19:53:13+00:00</time>
      </trkpt>
      <trkpt lat="45.37781" lon="6.18752">
        <ele>1502</ele>
        <time>2024-06-05T19:53:16+00:00</time>
      </trkpt>
      <trkpt lat="45.37782" lon="6.18758">
        <ele>1502</ele>
        <time>2024-06-05T19:53:19+00:00</time>
      </trkpt>
      <trkpt lat="45.37779" lon="6.18762">
        <ele>1505</ele>
        <time>2024-06-05T19:53:22+00:00</time>
      </trkpt>
      <trkpt lat="45.37776" lon="6.18764">
        <ele>1505</ele>
        <time>2024-06-05T19:53:25+00:00</time>
      </trkpt>
      <trkpt lat="45.37773" lon="6.18768">
        <ele>1505</ele>
        <time>2024-06-05T19:53:28+00:00</time>
      </trkpt>
      <trkpt lat="45.37771" lon="6.18772">
        <ele>1507</ele>
        <time>2024-06-05T19:53:31+00:00</time>
      </trkpt>
      <trkpt lat="45.37767" lon="6.18773">
        <ele>1508</ele>
        <time>2024-06-05T19:53:34+00:00</time>
      </trkpt>
      <trkpt lat="45.37765" lon="6.18776">
        <ele>1508</ele>
        <time>2024-06-05T19:53:37+00:00</time>
      </trkpt>
      <trkpt lat="45.37763" lon="6.1878">
        <ele>1508</ele>
        <time>2024-06-05T19:53:40+00:00</time>
      </trkpt>
      <trkpt lat="45.37758" lon="6.18783">
        <ele>1511</ele>
        <time>2024-06-05T19:53:43+00:00</time>
      </trkpt>
      <trkpt lat="45.37754" lon="6.18786">
        <ele>1511</ele>
        <time>2024-06-05T19:53:46+00:00</time>
      </trkpt>
      <trkpt lat="45.37749" lon="6.18789">
        <ele>1511</ele>
        <time>2024-06-05T19:53:49+00:00</time>
      </trkpt>
      <trkpt lat="45.37744" lon="6.18794">
        <ele>1513</ele>
        <time>2024-06-05T19:53:52+00:00</time>
      </trkpt>
      <trkpt lat="45.3774" lon="6.18798">
        <ele>1513</ele>
        <time>2024-06-05T19:53:55+00:00</time>
      </trkpt>
      <trkpt lat="45.37737" lon="6.18804">
        <ele>1515</ele>
        <time>2024-06-05T19:53:58+00:00</time>
      </trkpt>
      <trkpt lat="45.37734" lon="6.18808">
        <ele>1515</ele>
        <time>2024-06-05T19:54:01+00:00</time>
      </trkpt>
      <trkpt lat="45.37731" lon="6.18814">
        <ele>1519</ele>
        <time>2024-06-05T19:54:04+00:00</time>
      </trkpt>
      <trkpt lat="45.37728" lon="6.1882">
        <ele>1522</ele>
        <time>2024-06-05T19:54:07+00:00</time>
      </trkpt>
      <trkpt lat="45.37725" lon="6.18824">
        <ele>1522</ele>
        <time>2024-06-05T19:54:10+00:00</time>
      </trkpt>
      <trkpt lat="45.3772" lon="6.18825">
        <ele>1522</ele>
        <time>2024-06-05T19:54:13+00:00</time>
      </trkpt>
      <trkpt lat="45.37718" lon="6.18825">
        <ele>1525</ele>
        <time>2024-06-05T19:54:16+00:00</time>
      </trkpt>
      <trkpt lat="45.37714" lon="6.18824">
        <ele>1525</ele>
        <time>2024-06-05T19:54:19+00:00</time>
      </trkpt>
      <trkpt lat="45.3771" lon="6.18824">
        <ele>1525</ele>
        <time>2024-06-05T19:54:22+00:00</time>
      </trkpt>
      <trkpt lat="45.37706" lon="6.18825">
        <ele>1528</ele>
        <time>2024-06-05T19:54:25+00:00</time>
      </trkpt>
      <trkpt lat="45.37701" lon="6.18829">
        <ele>1528</ele>
        <time>2024-06-05T19:54:28+00:00</time>
      </trkpt>
      <trkpt lat="45.37698" lon="6.18833">
        <ele>1532</ele>
        <time>2024-06-05T19:54:31+00:00</time>
      </trkpt>
      <trkpt lat="45.37695" lon="6.18837">
        <ele>1532</ele>
        <time>2024-06-05T19:54:34+00:00</time>
      </trkpt>
      <trkpt lat="45.37695" lon="6.18842">
        <ele>1535</ele>
        <time>2024-06-05T19:54:37+00:00</time>
      </trkpt>
      <trkpt lat="45.37694" lon="6.18847">
        <ele>1535</ele>
        <time>2024-06-05T19:54:40+00:00</time>
      </trkpt>
      <trkpt lat="45.37692" lon="6.1885">
        <ele>1535</ele>
        <time>2024-06-05T19:54:43+00:00</time>
      </trkpt>
      <trkpt lat="45.37688" lon="6.18852">
        <ele>1539</ele>
        <time>2024-06-05T19:54:46+00:00</time>
      </trkpt>
      <trkpt lat="45.37686" lon="6.18854">
        <ele>1539</ele>
        <time>2024-06-05T19:54:49+00:00</time>
      </trkpt>
      <trkpt lat="45.37685" lon="6.18858">
        <ele>1539</ele>
        <time>2024-06-05T19:54:52+00:00</time>
      </trkpt>
      <trkpt lat="45.37683" lon="6.18865">
        <ele>1541</ele>
        <time>2024-06-05T19:54:55+00:00</time>
      </trkpt>
      <trkpt lat="45.37682" lon="6.18871">
        <ele>1544</ele>
        <time>2024-06-05T19:54:58+00:00</time>
      </trkpt>
      <trkpt lat="45.37681" lon="6.18877">
        <ele>1544</ele>
        <time>2024-06-05T19:55:01+00:00</time>
      </trkpt>
      <trkpt lat="45.37679" lon="6.18885">
        <ele>1549</ele>
        <time>2024-06-05T19:55:04+00:00</time>
      </trkpt>
      <trkpt lat="45.37676" lon="6.18891">
        <ele>1550</ele>
        <time>2024-06-05T19:55:07+00:00</time>
      </trkpt>
      <trkpt lat="45.37675" lon="6.18898">
        <ele>1550</ele>
        <time>2024-06-05T19:55:10+00:00</time>
      </trkpt>
      <trkpt lat="45.37673" lon="6.18902">
        <ele>1551</ele>
        <time>2024-06-05T19:55:13+00:00</time>
      </trkpt>
      <trkpt lat="45.3767" lon="6.18902">
        <ele>1554</ele>
        <time>2024-06-05T19:55:16+00:00</time>
      </trkpt>
      <trkpt lat="45.37666" lon="6.189">
        <ele>1554</ele>
        <time>2024-06-05T19:55:19+00:00</time>
      </trkpt>
      <trkpt lat="45.37661" lon="6.189">
        <ele>1554</ele>
        <time>2024-06-05T19:55:22+00:00</time>
      </trkpt>
      <trkpt lat="45.37658" lon="6.18902">
        <ele>1558</ele>
        <time>2024-06-05T19:55:25+00:00</time>
      </trkpt>
      <trkpt lat="45.37654" lon="6.18905">
        <ele>1558</ele>
        <time>2024-06-05T19:55:28+00:00</time>
      </trkpt>
      <trkpt lat="45.3765" lon="6.18908">
        <ele>1558</ele>
        <time>2024-06-05T19:55:31+00:00</time>
      </trkpt>
      <trkpt lat="45.37647" lon="6.1891">
        <ele>1562</ele>
        <time>2024-06-05T19:55:34+00:00</time>
      </trkpt>
      <trkpt lat="45.37643" lon="6.1891">
        <ele>1562</ele>
        <time>2024-06-05T19:55:37+00:00</time>
      </trkpt>
      <trkpt lat="45.37638" lon="6.1891">
        <ele>1563</ele>
        <time>2024-06-05T19:55:40+00:00</time>
      </trkpt>
      <trkpt lat="45.37633" lon="6.1891">
        <ele>1566</ele>
        <time>2024-06-05T19:55:43+00:00</time>
      </trkpt>
      <trkpt lat="45.37629" lon="6.1891">
        <ele>1566</ele>
        <time>2024-06-05T19:55:46+00:00</time>
      </trkpt>
      <trkpt lat="45.37626" lon="6.18911">
        <ele>1568</ele>
        <time>2024-06-05T19:55:49+00:00</time>
      </trkpt>
      <trkpt lat="45.37621" lon="6.18913">
        <ele>1568</ele>
        <time>2024-06-05T19:55:52+00:00</time>
      </trkpt>
      <trkpt lat="45.37618" lon="6.18915">
        <ele>1572</ele>
        <time>2024-06-05T19:55:55+00:00</time>
      </trkpt>
      <trkpt lat="45.37616" lon="6.1892">
        <ele>1574</ele>
        <time>2024-06-05T19:55:58+00:00</time>
      </trkpt>
      <trkpt lat="45.37613" lon="6.18926">
        <ele>1574</ele>
        <time>2024-06-05T19:56:01+00:00</time>
      </trkpt>
      <trkpt lat="45.37611" lon="6.18931">
        <ele>1577</ele>
        <time>2024-06-05T19:56:04+00:00</time>
      </trkpt>
      <trkpt lat="45.37607" lon="6.18935">
        <ele>1579</ele>
        <time>2024-06-05T19:56:07+00:00</time>
      </trkpt>
      <trkpt lat="45.37603" lon="6.18938">
        <ele>1579</ele>
        <time>2024-06-05T19:56:10+00:00</time>
      </trkpt>
      <trkpt lat="45.376" lon="6.1894">
        <ele>1580</ele>
        <time>2024-06-05T19:56:13+00:00</time>
      </trkpt>
      <trkpt lat="45.37597" lon="6.18942">
        <ele>1583</ele>
        <time>2024-06-05T19:56:16+00:00</time>
      </trkpt>
      <trkpt lat="45.37594" lon="6.18945">
        <ele>1583</ele>
        <time>2024-06-05T19:56:19+00:00</time>
      </trkpt>
      <trkpt lat="45.37593" lon="6.1895">
        <ele>1586</ele>
        <time>2024-06-05T19:56:22+00:00</time>
      </trkpt>
      <trkpt lat="45.37591" lon="6.18954">
        <ele>1586</ele>
        <time>2024-06-05T19:56:25+00:00</time>
      </trkpt>
      <trkpt lat="45.3759" lon="6.18958">
        <ele>1586</ele>
        <time>2024-06-05T19:56:28+00:00</time>
      </trkpt>
      <trkpt lat="45.37589" lon="6.18963">
        <ele>1592</ele>
        <time>2024-06-05T19:56:31+00:00</time>
      </trkpt>
      <trkpt lat="45.37587" lon="6.18966">
        <ele>1592</ele>
        <time>2024-06-05T19:56:34+00:00</time>
      </trkpt>
      <trkpt lat="45.37584" lon="6.18971">
        <ele>1595</ele>
        <time>2024-06-05T19:56:37+00:00</time>
      </trkpt>
      <trkpt lat="45.37579" lon="6.18974">
        <ele>1597</ele>
        <time>2024-06-05T19:56:40+00:00</time>
      </trkpt>
      <trkpt lat="45.37575" lon="6.18974">
        <ele>1597</ele>
        <time>2024-06-05T19:56:43+00:00</time>
      </trkpt>
      <trkpt lat="45.3757" lon="6.18974">
        <ele>1597</ele>
        <time>2024-06-05T19:56:46+00:00</time>
      </trkpt>
      <trkpt lat="45.37566" lon="6.18974">
        <ele>1598</ele>
        <time>2024-06-05T19:56:49+00:00</time>
      </trkpt>
      <trkpt lat="45.37562" lon="6.18977">
        <ele>1598</ele>
        <time>2024-06-05T19:56:52+00:00</time>
      </trkpt>
      <trkpt lat="45.37557" lon="6.18976">
        <ele>1602</ele>
        <time>2024-06-05T19:56:55+00:00</time>
      </trkpt>
      <trkpt lat="45.37553" lon="6.18973">
        <ele>1602</ele>
        <time>2024-06-05T19:56:58+00:00</time>
      </trkpt>
      <trkpt lat="45.37549" lon="6.18972">
        <ele>1605</ele>
        <time>2024-06-05T19:57:01+00:00</time>
      </trkpt>
      <trkpt lat="45.37543" lon="6.1897">
        <ele>1605</ele>
        <time>2024-06-05T19:57:04+00:00</time>
      </trkpt>
      <trkpt lat="45.37539" lon="6.18965">
        <ele>1605</ele>
        <time>2024-06-05T19:57:07+00:00</time>
      </trkpt>
      <trkpt lat="45.37536" lon="6.18962">
        <ele>1605</ele>
        <time>2024-06-05T19:57:10+00:00</time>
      </trkpt>
      <trkpt lat="45.37532" lon="6.18957">
        <ele>1604</ele>
        <time>2024-06-05T19:57:13+00:00</time>
      </trkpt>
      <trkpt lat="45.37529" lon="6.18952">
        <ele>1607</ele>
        <time>2024-06-05T19:57:16+00:00</time>
      </trkpt>
      <trkpt lat="45.37525" lon="6.18948">
        <ele>1605</ele>
        <time>2024-06-05T19:57:19+00:00</time>
      </trkpt>
      <trkpt lat="45.37523" lon="6.18949">
        <ele>1605</ele>
        <time>2024-06-05T19:57:22+00:00</time>
      </trkpt>
      <trkpt lat="45.3752" lon="6.18952">
        <ele>1607</ele>
        <time>2024-06-05T19:57:25+00:00</time>
      </trkpt>
      <trkpt lat="45.37518" lon="6.18953">
        <ele>1609</ele>
        <time>2024-06-05T19:57:28+00:00</time>
      </trkpt>
      <trkpt lat="45.37514" lon="6.18953">
        <ele>1609</ele>
        <time>2024-06-05T19:57:31+00:00</time>
      </trkpt>
      <trkpt lat="45.37511" lon="6.18952">
        <ele>1609</ele>
        <time>2024-06-05T19:57:34+00:00</time>
      </trkpt>
      <trkpt lat="45.37508" lon="6.1895">
        <ele>1610</ele>
        <time>2024-06-05T19:57:37+00:00</time>
      </trkpt>
      <trkpt lat="45.37504" lon="6.18949">
        <ele>1610</ele>
        <time>2024-06-05T19:57:40+00:00</time>
      </trkpt>
      <trkpt lat="45.37502" lon="6.18948">
        <ele>1610</ele>
        <time>2024-06-05T19:57:43+00:00</time>
      </trkpt>
      <trkpt lat="45.37499" lon="6.18946">
        <ele>1615</ele>
        <time>2024-06-05T19:57:46+00:00</time>
      </trkpt>
      <trkpt lat="45.37495" lon="6.18945">
        <ele>1615</ele>
        <time>2024-06-05T19:57:49+00:00</time>
      </trkpt>
      <trkpt lat="45.3749" lon="6.18945">
        <ele>1618</ele>
        <time>2024-06-05T19:57:52+00:00</time>
      </trkpt>
      <trkpt lat="45.37485" lon="6.18943">
        <ele>1618</ele>
        <time>2024-06-05T19:57:55+00:00</time>
      </trkpt>
      <trkpt lat="45.37483" lon="6.18936">
        <ele>1617</ele>
        <time>2024-06-05T19:57:58+00:00</time>
      </trkpt>
      <trkpt lat="45.37481" lon="6.1893">
        <ele>1616</ele>
        <time>2024-06-05T19:58:01+00:00</time>
      </trkpt>
      <trkpt lat="45.37478" lon="6.18925">
        <ele>1619</ele>
        <time>2024-06-05T19:58:04+00:00</time>
      </trkpt>
      <trkpt lat="45.37475" lon="6.18922">
        <ele>1619</ele>
        <time>2024-06-05T19:58:07+00:00</time>
      </trkpt>
      <trkpt lat="45.37473" lon="6.18921">
        <ele>1619</ele>
        <time>2024-06-05T19:58:10+00:00</time>
      </trkpt>
      <trkpt lat="45.37471" lon="6.18923">
        <ele>1619</ele>
        <time>2024-06-05T19:58:13+00:00</time>
      </trkpt>
      <trkpt lat="45.3747" lon="6.18928">
        <ele>1623</ele>
        <time>2024-06-05T19:58:16+00:00</time>
      </trkpt>
      <trkpt lat="45.37469" lon="6.18933">
        <ele>1625</ele>
        <time>2024-06-05T19:58:19+00:00</time>
      </trkpt>
      <trkpt lat="45.37468" lon="6.18939">
        <ele>1625</ele>
        <time>2024-06-05T19:58:22+00:00</time>
      </trkpt>
      <trkpt lat="45.37465" lon="6.18946">
        <ele>1626</ele>
        <time>2024-06-05T19:58:25+00:00</time>
      </trkpt>
      <trkpt lat="45.37463" lon="6.1895">
        <ele>1627</ele>
        <time>2024-06-05T19:58:28+00:00</time>
      </trkpt>
      <trkpt lat="45.37461" lon="6.18955">
        <ele>1627</ele>
        <time>2024-06-05T19:58:31+00:00</time>
      </trkpt>
      <trkpt lat="45.37457" lon="6.1896">
        <ele>1631</ele>
        <time>2024-06-05T19:58:34+00:00</time>
      </trkpt>
      <trkpt lat="45.37454" lon="6.18965">
        <ele>1631</ele>
        <time>2024-06-05T19:58:37+00:00</time>
      </trkpt>
      <trkpt lat="45.37451" lon="6.18969">
        <ele>1631</ele>
        <time>2024-06-05T19:58:40+00:00</time>
      </trkpt>
      <trkpt lat="45.37448" lon="6.18972">
        <ele>1636</ele>
        <time>2024-06-05T19:58:43+00:00</time>
      </trkpt>
      <trkpt lat="45.37445" lon="6.18973">
        <ele>1636</ele>
        <time>2024-06-05T19:58:46+00:00</time>
      </trkpt>
      <trkpt lat="45.37442" lon="6.18973">
        <ele>1636</ele>
        <time>2024-06-05T19:58:49+00:00</time>
      </trkpt>
      <trkpt lat="45.37438" lon="6.18973">
        <ele>1640</ele>
        <time>2024-06-05T19:58:52+00:00</time>
      </trkpt>
      <trkpt lat="45.37435" lon="6.18975">
        <ele>1640</ele>
        <time>2024-06-05T19:58:55+00:00</time>
      </trkpt>
      <trkpt lat="45.37433" lon="6.18978">
        <ele>1640</ele>
        <time>2024-06-05T19:58:58+00:00</time>
      </trkpt>
      <trkpt lat="45.37432" lon="6.18984">
        <ele>1642</ele>
        <time>2024-06-05T19:59:01+00:00</time>
      </trkpt>
      <trkpt lat="45.37429" lon="6.18989">
        <ele>1646</ele>
        <time>2024-06-05T19:59:04+00:00</time>
      </trkpt>
      <trkpt lat="45.37427" lon="6.18992">
        <ele>1647</ele>
        <time>2024-06-05T19:59:07+00:00</time>
      </trkpt>
      <trkpt lat="45.37426" lon="6.18995">
        <ele>1647</ele>
        <time>2024-06-05T19:59:10+00:00</time>
      </trkpt>
      <trkpt lat="45.37424" lon="6.18997">
        <ele>1647</ele>
        <time>2024-06-05T19:59:13+00:00</time>
      </trkpt>
      <trkpt lat="45.37421" lon="6.19">
        <ele>1647</ele>
        <time>2024-06-05T19:59:16+00:00</time>
      </trkpt>
      <trkpt lat="45.37419" lon="6.19003">
        <ele>1651</ele>
        <time>2024-06-05T19:59:19+00:00</time>
      </trkpt>
      <trkpt lat="45.37417" lon="6.19007">
        <ele>1651</ele>
        <time>2024-06-05T19:59:22+00:00</time>
      </trkpt>
      <trkpt lat="45.37415" lon="6.1901">
        <ele>1651</ele>
        <time>2024-06-05T19:59:25+00:00</time>
      </trkpt>
      <trkpt lat="45.37413" lon="6.1901">
        <ele>1651</ele>
        <time>2024-06-05T19:59:28+00:00</time>
      </trkpt>
      <trkpt lat="45.37411" lon="6.19007">
        <ele>1651</ele>
        <time>2024-06-05T19:59:31+00:00</time>
      </trkpt>
      <trkpt lat="45.3741" lon="6.19002">
        <ele>1658</ele>
        <time>2024-06-05T19:59:34+00:00</time>
      </trkpt>
      <trkpt lat="45.37409" lon="6.18997">
        <ele>1657</ele>
        <time>2024-06-05T19:59:37+00:00</time>
      </trkpt>
      <trkpt lat="45.37407" lon="6.18988">
        <ele>1653</ele>
        <time>2024-06-05T19:59:40+00:00</time>
      </trkpt>
      <trkpt lat="45.37404" lon="6.1899">
        <ele>1657</ele>
        <time>2024-06-05T19:59:43+00:00</time>
      </trkpt>
      <trkpt lat="45.37402" lon="6.18993">
        <ele>1657</ele>
        <time>2024-06-05T19:59:46+00:00</time>
      </trkpt>
      <trkpt lat="45.374" lon="6.18994">
        <ele>1657</ele>
        <time>2024-06-05T19:59:49+00:00</time>
      </trkpt>
      <trkpt lat="45.37398" lon="6.18994">
        <ele>1659</ele>
        <time>2024-06-05T19:59:52+00:00</time>
      </trkpt>
      <trkpt lat="45.3739" lon="6.18998">
        <ele>1659</ele>
        <time>2024-06-05T19:59:55+00:00</time>
      </trkpt>
      <trkpt lat="45.37387" lon="6.19">
        <ele>1662</ele>
        <time>2024-06-05T19:59:58+00:00</time>
      </trkpt>
      <trkpt lat="45.37384" lon="6.19">
        <ele>1664</ele>
        <time>2024-06-05T20:00:01+00:00</time>
      </trkpt>
      <trkpt lat="45.37379" lon="6.18997">
        <ele>1667</ele>
        <time>2024-06-05T20:00:04+00:00</time>
      </trkpt>
      <trkpt lat="45.37373" lon="6.18995">
        <ele>1667</ele>
        <time>2024-06-05T20:00:07+00:00</time>
      </trkpt>
      <trkpt lat="45.37369" lon="6.18993">
        <ele>1670</ele>
        <time>2024-06-05T20:00:10+00:00</time>
      </trkpt>
      <trkpt lat="45.37364" lon="6.18989">
        <ele>1671</ele>
        <time>2024-06-05T20:00:13+00:00</time>
      </trkpt>
      <trkpt lat="45.37361" lon="6.18986">
        <ele>1671</ele>
        <time>2024-06-05T20:00:16+00:00</time>
      </trkpt>
      <trkpt lat="45.37357" lon="6.18983">
        <ele>1675</ele>
        <time>2024-06-05T20:00:19+00:00</time>
      </trkpt>
      <trkpt lat="45.37352" lon="6.18979">
        <ele>1675</ele>
        <time>2024-06-05T20:00:22+00:00</time>
      </trkpt>
      <trkpt lat="45.37348" lon="6.18975">
        <ele>1682</ele>
        <time>2024-06-05T20:00:25+00:00</time>
      </trkpt>
      <trkpt lat="45.37346" lon="6.1897">
        <ele>1683</ele>
        <time>2024-06-05T20:00:28+00:00</time>
      </trkpt>
      <trkpt lat="45.37343" lon="6.18961">
        <ele>1683</ele>
        <time>2024-06-05T20:00:31+00:00</time>
      </trkpt>
      <trkpt lat="45.37342" lon="6.18952">
        <ele>1684</ele>
        <time>2024-06-05T20:00:34+00:00</time>
      </trkpt>
      <trkpt lat="45.3734" lon="6.18943">
        <ele>1691</ele>
        <time>2024-06-05T20:00:37+00:00</time>
      </trkpt>
      <trkpt lat="45.37337" lon="6.18934">
        <ele>1691</ele>
        <time>2024-06-05T20:00:40+00:00</time>
      </trkpt>
      <trkpt lat="45.37334" lon="6.18925">
        <ele>1690</ele>
        <time>2024-06-05T20:00:43+00:00</time>
      </trkpt>
      <trkpt lat="45.37332" lon="6.18919">
        <ele>1687</ele>
        <time>2024-06-05T20:00:46+00:00</time>
      </trkpt>
      <trkpt lat="45.37329" lon="6.18914">
        <ele>1691</ele>
        <time>2024-06-05T20:00:49+00:00</time>
      </trkpt>
      <trkpt lat="45.37325" lon="6.18912">
        <ele>1691</ele>
        <time>2024-06-05T20:00:52+00:00</time>
      </trkpt>
      <trkpt lat="45.3732" lon="6.1891">
        <ele>1691</ele>
        <time>2024-06-05T20:00:55+00:00</time>
      </trkpt>
      <trkpt lat="45.37317" lon="6.18911">
        <ele>1696</ele>
        <time>2024-06-05T20:00:58+00:00</time>
      </trkpt>
      <trkpt lat="45.37314" lon="6.18911">
        <ele>1696</ele>
        <time>2024-06-05T20:01:01+00:00</time>
      </trkpt>
      <trkpt lat="45.3731" lon="6.18911">
        <ele>1696</ele>
        <time>2024-06-05T20:01:04+00:00</time>
      </trkpt>
      <trkpt lat="45.37305" lon="6.18913">
        <ele>1696</ele>
        <time>2024-06-05T20:01:07+00:00</time>
      </trkpt>
      <trkpt lat="45.37302" lon="6.18915">
        <ele>1696</ele>
        <time>2024-06-05T20:01:10+00:00</time>
      </trkpt>
      <trkpt lat="45.37299" lon="6.18918">
        <ele>1697</ele>
        <time>2024-06-05T20:01:13+00:00</time>
      </trkpt>
      <trkpt lat="45.37296" lon="6.18922">
        <ele>1701</ele>
        <time>2024-06-05T20:01:16+00:00</time>
      </trkpt>
      <trkpt lat="45.37294" lon="6.18923">
        <ele>1701</ele>
        <time>2024-06-05T20:01:19+00:00</time>
      </trkpt>
      <trkpt lat="45.37294" lon="6.18926">
        <ele>1701</ele>
        <time>2024-06-05T20:01:22+00:00</time>
      </trkpt>
      <trkpt lat="45.37293" lon="6.1893">
        <ele>1701</ele>
        <time>2024-06-05T20:01:25+00:00</time>
      </trkpt>
      <trkpt lat="45.3729" lon="6.18932">
        <ele>1706</ele>
        <time>2024-06-05T20:01:28+00:00</time>
      </trkpt>
      <trkpt lat="45.37287" lon="6.18932">
        <ele>1711</ele>
        <time>2024-06-05T20:01:31+00:00</time>
      </trkpt>
      <trkpt lat="45.37285" lon="6.18933">
        <ele>1711</ele>
        <time>2024-06-05T20:01:34+00:00</time>
      </trkpt>
      <trkpt lat="45.37281" lon="6.18934">
        <ele>1711</ele>
        <time>2024-06-05T20:01:37+00:00</time>
      </trkpt>
      <trkpt lat="45.37277" lon="6.18933">
        <ele>1715</ele>
        <time>2024-06-05T20:01:40+00:00</time>
      </trkpt>
      <trkpt lat="45.37274" lon="6.18931">
        <ele>1715</ele>
        <time>2024-06-05T20:01:43+00:00</time>
      </trkpt>
      <trkpt lat="45.37268" lon="6.18928">
        <ele>1713</ele>
        <time>2024-06-05T20:01:46+00:00</time>
      </trkpt>
      <trkpt lat="45.37265" lon="6.18927">
        <ele>1713</ele>
        <time>2024-06-05T20:01:49+00:00</time>
      </trkpt>
      <trkpt lat="45.37267" lon="6.18931">
        <ele>1718</ele>
        <time>2024-06-05T20:01:52+00:00</time>
      </trkpt>
      <trkpt lat="45.37267" lon="6.18935">
        <ele>1718</ele>
        <time>2024-06-05T20:01:55+00:00</time>
      </trkpt>
      <trkpt lat="45.37268" lon="6.18941">
        <ele>1722</ele>
        <time>2024-06-05T20:01:58+00:00</time>
      </trkpt>
      <trkpt lat="45.37268" lon="6.18946">
        <ele>1722</ele>
        <time>2024-06-05T20:02:01+00:00</time>
      </trkpt>
      <trkpt lat="45.37266" lon="6.18945">
        <ele>1722</ele>
        <time>2024-06-05T20:02:04+00:00</time>
      </trkpt>
      <trkpt lat="45.37264" lon="6.18946">
        <ele>1722</ele>
        <time>2024-06-05T20:02:07+00:00</time>
      </trkpt>
      <trkpt lat="45.37263" lon="6.18948">
        <ele>1722</ele>
        <time>2024-06-05T20:02:10+00:00</time>
      </trkpt>
      <trkpt lat="45.37264" lon="6.18951">
        <ele>1724</ele>
        <time>2024-06-05T20:02:13+00:00</time>
      </trkpt>
      <trkpt lat="45.37264" lon="6.18956">
        <ele>1724</ele>
        <time>2024-06-05T20:02:16+00:00</time>
      </trkpt>
      <trkpt lat="45.37265" lon="6.18961">
        <ele>1727</ele>
        <time>2024-06-05T20:02:19+00:00</time>
      </trkpt>
      <trkpt lat="45.37266" lon="6.18968">
        <ele>1727</ele>
        <time>2024-06-05T20:02:22+00:00</time>
      </trkpt>
      <trkpt lat="45.37267" lon="6.18974">
        <ele>1730</ele>
        <time>2024-06-05T20:02:25+00:00</time>
      </trkpt>
      <trkpt lat="45.37267" lon="6.1898">
        <ele>1732</ele>
        <time>2024-06-05T20:02:28+00:00</time>
      </trkpt>
      <trkpt lat="45.37267" lon="6.1898">
        <ele>1732</ele>
        <time>2024-06-05T20:02:31+00:00</time>
      </trkpt>
      <trkpt lat="45.37266" lon="6.18986">
        <ele>1732</ele>
        <time>2024-06-05T20:02:34+00:00</time>
      </trkpt>
      <trkpt lat="45.37264" lon="6.1899">
        <ele>1736</ele>
        <time>2024-06-05T20:02:37+00:00</time>
      </trkpt>
      <trkpt lat="45.37262" lon="6.18994">
        <ele>1736</ele>
        <time>2024-06-05T20:02:40+00:00</time>
      </trkpt>
      <trkpt lat="45.3726" lon="6.18998">
        <ele>1737</ele>
        <time>2024-06-05T20:02:43+00:00</time>
      </trkpt>
      <trkpt lat="45.37258" lon="6.19001">
        <ele>1739</ele>
        <time>2024-06-05T20:02:46+00:00</time>
      </trkpt>
      <trkpt lat="45.37256" lon="6.19005">
        <ele>1739</ele>
        <time>2024-06-05T20:02:49+00:00</time>
      </trkpt>
      <trkpt lat="45.37254" lon="6.19009">
        <ele>1739</ele>
        <time>2024-06-05T20:02:52+00:00</time>
      </trkpt>
      <trkpt lat="45.37251" lon="6.19013">
        <ele>1743</ele>
        <time>2024-06-05T20:02:55+00:00</time>
      </trkpt>
      <trkpt lat="45.37249" lon="6.19018">
        <ele>1744</ele>
        <time>2024-06-05T20:02:58+00:00</time>
      </trkpt>
      <trkpt lat="45.37246" lon="6.19022">
        <ele>1749</ele>
        <time>2024-06-05T20:03:01+00:00</time>
      </trkpt>
      <trkpt lat="45.37243" lon="6.19022">
        <ele>1749</ele>
        <time>2024-06-05T20:03:04+00:00</time>
      </trkpt>
      <trkpt lat="45.3724" lon="6.19023">
        <ele>1750</ele>
        <time>2024-06-05T20:03:07+00:00</time>
      </trkpt>
      <trkpt lat="45.37237" lon="6.19024">
        <ele>1750</ele>
        <time>2024-06-05T20:03:10+00:00</time>
      </trkpt>
      <trkpt lat="45.37234" lon="6.19025">
        <ele>1750</ele>
        <time>2024-06-05T20:03:13+00:00</time>
      </trkpt>
      <trkpt lat="45.37232" lon="6.19028">
        <ele>1750</ele>
        <time>2024-06-05T20:03:16+00:00</time>
      </trkpt>
      <trkpt lat="45.37228" lon="6.19029">
        <ele>1753</ele>
        <time>2024-06-05T20:03:19+00:00</time>
      </trkpt>
      <trkpt lat="45.37223" lon="6.1903">
        <ele>1753</ele>
        <time>2024-06-05T20:03:22+00:00</time>
      </trkpt>
      <trkpt lat="45.37216" lon="6.19036">
        <ele>1756</ele>
        <time>2024-06-05T20:03:25+00:00</time>
      </trkpt>
      <trkpt lat="45.37212" lon="6.19039">
        <ele>1756</ele>
        <time>2024-06-05T20:03:28+00:00</time>
      </trkpt>
      <trkpt lat="45.37208" lon="6.19041">
        <ele>1758</ele>
        <time>2024-06-05T20:03:31+00:00</time>
      </trkpt>
      <trkpt lat="45.37205" lon="6.19042">
        <ele>1758</ele>
        <time>2024-06-05T20:03:34+00:00</time>
      </trkpt>
      <trkpt lat="45.37204" lon="6.19047">
        <ele>1758</ele>
        <time>2024-06-05T20:03:37+00:00</time>
      </trkpt>
      <trkpt lat="45.37202" lon="6.19051">
        <ele>1761</ele>
        <time>2024-06-05T20:03:40+00:00</time>
      </trkpt>
      <trkpt lat="45.37199" lon="6.19056">
        <ele>1763</ele>
        <time>2024-06-05T20:03:43+00:00</time>
      </trkpt>
      <trkpt lat="45.37197" lon="6.19059">
        <ele>1763</ele>
        <time>2024-06-05T20:03:46+00:00</time>
      </trkpt>
      <trkpt lat="45.37195" lon="6.19069">
        <ele>1764</ele>
        <time>2024-06-05T20:03:49+00:00</time>
      </trkpt>
      <trkpt lat="45.37196" lon="6.19074">
        <ele>1767</ele>
        <time>2024-06-05T20:03:52+00:00</time>
      </trkpt>
      <trkpt lat="45.37199" lon="6.19076">
        <ele>1767</ele>
        <time>2024-06-05T20:03:55+00:00</time>
      </trkpt>
      <trkpt lat="45.37201" lon="6.19078">
        <ele>1763</ele>
        <time>2024-06-05T20:03:58+00:00</time>
      </trkpt>
      <trkpt lat="45.37203" lon="6.19082">
        <ele>1766</ele>
        <time>2024-06-05T20:04:01+00:00</time>
      </trkpt>
      <trkpt lat="45.37204" lon="6.19087">
        <ele>1766</ele>
        <time>2024-06-05T20:04:04+00:00</time>
      </trkpt>
      <trkpt lat="45.37203" lon="6.1909">
        <ele>1768</ele>
        <time>2024-06-05T20:04:07+00:00</time>
      </trkpt>
      <trkpt lat="45.37202" lon="6.19093">
        <ele>1768</ele>
        <time>2024-06-05T20:04:10+00:00</time>
      </trkpt>
      <trkpt lat="45.372" lon="6.19096">
        <ele>1772</ele>
        <time>2024-06-05T20:04:13+00:00</time>
      </trkpt>
      <trkpt lat="45.37196" lon="6.19098">
        <ele>1772</ele>
        <time>2024-06-05T20:04:16+00:00</time>
      </trkpt>
      <trkpt lat="45.37194" lon="6.19099">
        <ele>1772</ele>
        <time>2024-06-05T20:04:19+00:00</time>
      </trkpt>
      <trkpt lat="45.37193" lon="6.19102">
        <ele>1774</ele>
        <time>2024-06-05T20:04:22+00:00</time>
      </trkpt>
      <trkpt lat="45.37192" lon="6.19108">
        <ele>1774</ele>
        <time>2024-06-05T20:04:25+00:00</time>
      </trkpt>
      <trkpt lat="45.37193" lon="6.19114">
        <ele>1778</ele>
        <time>2024-06-05T20:04:28+00:00</time>
      </trkpt>
      <trkpt lat="45.37192" lon="6.19117">
        <ele>1778</ele>
        <time>2024-06-05T20:04:31+00:00</time>
      </trkpt>
      <trkpt lat="45.37191" lon="6.1912">
        <ele>1779</ele>
        <time>2024-06-05T20:04:34+00:00</time>
      </trkpt>
      <trkpt lat="45.37188" lon="6.19123">
        <ele>1783</ele>
        <time>2024-06-05T20:04:37+00:00</time>
      </trkpt>
      <trkpt lat="45.37188" lon="6.19124">
        <ele>1783</ele>
        <time>2024-06-05T20:04:40+00:00</time>
      </trkpt>
      <trkpt lat="45.37188" lon="6.19128">
        <ele>1783</ele>
        <time>2024-06-05T20:04:43+00:00</time>
      </trkpt>
      <trkpt lat="45.37186" lon="6.1913">
        <ele>1783</ele>
        <time>2024-06-05T20:04:46+00:00</time>
      </trkpt>
      <trkpt lat="45.37183" lon="6.19129">
        <ele>1783</ele>
        <time>2024-06-05T20:04:49+00:00</time>
      </trkpt>
      <trkpt lat="45.37179" lon="6.19129">
        <ele>1787</ele>
        <time>2024-06-05T20:04:52+00:00</time>
      </trkpt>
      <trkpt lat="45.37175" lon="6.19128">
        <ele>1787</ele>
        <time>2024-06-05T20:04:55+00:00</time>
      </trkpt>
      <trkpt lat="45.37171" lon="6.19128">
        <ele>1787</ele>
        <time>2024-06-05T20:04:58+00:00</time>
      </trkpt>
      <trkpt lat="45.37166" lon="6.19127">
        <ele>1791</ele>
        <time>2024-06-05T20:05:01+00:00</time>
      </trkpt>
      <trkpt lat="45.37161" lon="6.19127">
        <ele>1791</ele>
        <time>2024-06-05T20:05:04+00:00</time>
      </trkpt>
      <trkpt lat="45.37156" lon="6.19126">
        <ele>1796</ele>
        <time>2024-06-05T20:05:07+00:00</time>
      </trkpt>
      <trkpt lat="45.37151" lon="6.19124">
        <ele>1796</ele>
        <time>2024-06-05T20:05:10+00:00</time>
      </trkpt>
      <trkpt lat="45.37147" lon="6.19123">
        <ele>1800</ele>
        <time>2024-06-05T20:05:13+00:00</time>
      </trkpt>
      <trkpt lat="45.37143" lon="6.19122">
        <ele>1800</ele>
        <time>2024-06-05T20:05:16+00:00</time>
      </trkpt>
      <trkpt lat="45.3714" lon="6.19121">
        <ele>1807</ele>
        <time>2024-06-05T20:05:19+00:00</time>
      </trkpt>
      <trkpt lat="45.37137" lon="6.1912">
        <ele>1807</ele>
        <time>2024-06-05T20:05:22+00:00</time>
      </trkpt>
      <trkpt lat="45.37135" lon="6.19117">
        <ele>1805</ele>
        <time>2024-06-05T20:05:25+00:00</time>
      </trkpt>
      <trkpt lat="45.37132" lon="6.19111">
        <ele>1805</ele>
        <time>2024-06-05T20:05:28+00:00</time>
      </trkpt>
      <trkpt lat="45.37129" lon="6.19106">
        <ele>1808</ele>
        <time>2024-06-05T20:05:31+00:00</time>
      </trkpt>
      <trkpt lat="45.37126" lon="6.19102">
        <ele>1808</ele>
        <time>2024-06-05T20:05:34+00:00</time>
      </trkpt>
      <trkpt lat="45.37123" lon="6.19099">
        <ele>1808</ele>
        <time>2024-06-05T20:05:37+00:00</time>
      </trkpt>
      <trkpt lat="45.37119" lon="6.19097">
        <ele>1811</ele>
        <time>2024-06-05T20:05:40+00:00</time>
      </trkpt>
      <trkpt lat="45.37116" lon="6.19096">
        <ele>1811</ele>
        <time>2024-06-05T20:05:43+00:00</time>
      </trkpt>
      <trkpt lat="45.37113" lon="6.19094">
        <ele>1811</ele>
        <time>2024-06-05T20:05:46+00:00</time>
      </trkpt>
      <trkpt lat="45.37111" lon="6.1909">
        <ele>1810</ele>
        <time>2024-06-05T20:05:49+00:00</time>
      </trkpt>
      <trkpt lat="45.37108" lon="6.19087">
        <ele>1818</ele>
        <time>2024-06-05T20:05:52+00:00</time>
      </trkpt>
      <trkpt lat="45.37104" lon="6.19086">
        <ele>1818</ele>
        <time>2024-06-05T20:05:55+00:00</time>
      </trkpt>
      <trkpt lat="45.37101" lon="6.19085">
        <ele>1818</ele>
        <time>2024-06-05T20:05:58+00:00</time>
      </trkpt>
      <trkpt lat="45.37098" lon="6.19088">
        <ele>1820</ele>
        <time>2024-06-05T20:06:01+00:00</time>
      </trkpt>
      <trkpt lat="45.37098" lon="6.19091">
        <ele>1822</ele>
        <time>2024-06-05T20:06:04+00:00</time>
      </trkpt>
      <trkpt lat="45.37099" lon="6.19095">
        <ele>1822</ele>
        <time>2024-06-05T20:06:07+00:00</time>
      </trkpt>
      <trkpt lat="45.371" lon="6.19099">
        <ele>1817</ele>
        <time>2024-06-05T20:06:10+00:00</time>
      </trkpt>
      <trkpt lat="45.371" lon="6.19103">
        <ele>1819</ele>
        <time>2024-06-05T20:06:13+00:00</time>
      </trkpt>
      <trkpt lat="45.37098" lon="6.19105">
        <ele>1823</ele>
        <time>2024-06-05T20:06:16+00:00</time>
      </trkpt>
      <trkpt lat="45.37096" lon="6.19105">
        <ele>1823</ele>
        <time>2024-06-05T20:06:19+00:00</time>
      </trkpt>
      <trkpt lat="45.37094" lon="6.19103">
        <ele>1823</ele>
        <time>2024-06-05T20:06:22+00:00</time>
      </trkpt>
      <trkpt lat="45.37092" lon="6.191">
        <ele>1823</ele>
        <time>2024-06-05T20:06:25+00:00</time>
      </trkpt>
      <trkpt lat="45.37089" lon="6.19099">
        <ele>1821</ele>
        <time>2024-06-05T20:06:28+00:00</time>
      </trkpt>
      <trkpt lat="45.37087" lon="6.19099">
        <ele>1821</ele>
        <time>2024-06-05T20:06:31+00:00</time>
      </trkpt>
      <trkpt lat="45.37083" lon="6.191">
        <ele>1821</ele>
        <time>2024-06-05T20:06:34+00:00</time>
      </trkpt>
      <trkpt lat="45.3708" lon="6.19103">
        <ele>1827</ele>
        <time>2024-06-05T20:06:37+00:00</time>
      </trkpt>
      <trkpt lat="45.37078" lon="6.19107">
        <ele>1815</ele>
        <time>2024-06-05T20:06:40+00:00</time>
      </trkpt>
      <trkpt lat="45.37076" lon="6.19111">
        <ele>1828</ele>
        <time>2024-06-05T20:06:43+00:00</time>
      </trkpt>
      <trkpt lat="45.37075" lon="6.19115">
        <ele>1828</ele>
        <time>2024-06-05T20:06:46+00:00</time>
      </trkpt>
      <trkpt lat="45.37074" lon="6.19119">
        <ele>1828</ele>
        <time>2024-06-05T20:06:49+00:00</time>
      </trkpt>
      <trkpt lat="45.37074" lon="6.19125">
        <ele>1830</ele>
        <time>2024-06-05T20:06:52+00:00</time>
      </trkpt>
      <trkpt lat="45.37073" lon="6.1913">
        <ele>1830</ele>
        <time>2024-06-05T20:06:55+00:00</time>
      </trkpt>
      <trkpt lat="45.37074" lon="6.19136">
        <ele>1833</ele>
        <time>2024-06-05T20:06:58+00:00</time>
      </trkpt>
      <trkpt lat="45.37074" lon="6.19139">
        <ele>1833</ele>
        <time>2024-06-05T20:07:01+00:00</time>
      </trkpt>
      <trkpt lat="45.37072" lon="6.19142">
        <ele>1837</ele>
        <time>2024-06-05T20:07:04+00:00</time>
      </trkpt>
      <trkpt lat="45.37071" lon="6.19145">
        <ele>1837</ele>
        <time>2024-06-05T20:07:07+00:00</time>
      </trkpt>
      <trkpt lat="45.37069" lon="6.19149">
        <ele>1835</ele>
        <time>2024-06-05T20:07:10+00:00</time>
      </trkpt>
      <trkpt lat="45.37067" lon="6.19153">
        <ele>1839</ele>
        <time>2024-06-05T20:07:13+00:00</time>
      </trkpt>
      <trkpt lat="45.37066" lon="6.19156">
        <ele>1839</ele>
        <time>2024-06-05T20:07:16+00:00</time>
      </trkpt>
      <trkpt lat="45.37068" lon="6.19159">
        <ele>1839</ele>
        <time>2024-06-05T20:07:19+00:00</time>
      </trkpt>
      <trkpt lat="45.37071" lon="6.19158">
        <ele>1840</ele>
        <time>2024-06-05T20:07:22+00:00</time>
      </trkpt>
      <trkpt lat="45.37075" lon="6.19158">
        <ele>1840</ele>
        <time>2024-06-05T20:07:25+00:00</time>
      </trkpt>
      <trkpt lat="45.37078" lon="6.19158">
        <ele>1840</ele>
        <time>2024-06-05T20:07:28+00:00</time>
      </trkpt>
      <trkpt lat="45.3708" lon="6.19161">
        <ele>1847</ele>
        <time>2024-06-05T20:07:31+00:00</time>
      </trkpt>
      <trkpt lat="45.37079" lon="6.19165">
        <ele>1844</ele>
        <time>2024-06-05T20:07:34+00:00</time>
      </trkpt>
      <trkpt lat="45.37079" lon="6.1917">
        <ele>1848</ele>
        <time>2024-06-05T20:07:37+00:00</time>
      </trkpt>
      <trkpt lat="45.37077" lon="6.19173">
        <ele>1848</ele>
        <time>2024-06-05T20:07:40+00:00</time>
      </trkpt>
      <trkpt lat="45.37075" lon="6.19178">
        <ele>1848</ele>
        <time>2024-06-05T20:07:43+00:00</time>
      </trkpt>
      <trkpt lat="45.37074" lon="6.19182">
        <ele>1851</ele>
        <time>2024-06-05T20:07:46+00:00</time>
      </trkpt>
      <trkpt lat="45.37074" lon="6.19186">
        <ele>1851</ele>
        <time>2024-06-05T20:07:49+00:00</time>
      </trkpt>
      <trkpt lat="45.37076" lon="6.1919">
        <ele>1851</ele>
        <time>2024-06-05T20:07:52+00:00</time>
      </trkpt>
      <trkpt lat="45.37078" lon="6.19192">
        <ele>1854</ele>
        <time>2024-06-05T20:07:55+00:00</time>
      </trkpt>
      <trkpt lat="45.37081" lon="6.19194">
        <ele>1857</ele>
        <time>2024-06-05T20:07:58+00:00</time>
      </trkpt>
      <trkpt lat="45.37083" lon="6.19196">
        <ele>1857</ele>
        <time>2024-06-05T20:08:01+00:00</time>
      </trkpt>
      <trkpt lat="45.37085" lon="6.19198">
        <ele>1857</ele>
        <time>2024-06-05T20:08:04+00:00</time>
      </trkpt>
      <trkpt lat="45.37087" lon="6.19201">
        <ele>1861</ele>
        <time>2024-06-05T20:08:07+00:00</time>
      </trkpt>
      <trkpt lat="45.37085" lon="6.19204">
        <ele>1861</ele>
        <time>2024-06-05T20:08:10+00:00</time>
      </trkpt>
      <trkpt lat="45.37082" lon="6.19208">
        <ele>1861</ele>
        <time>2024-06-05T20:08:13+00:00</time>
      </trkpt>
      <trkpt lat="45.3708" lon="6.19214">
        <ele>1861</ele>
        <time>2024-06-05T20:08:16+00:00</time>
      </trkpt>
      <trkpt lat="45.3708" lon="6.19215">
        <ele>1861</ele>
        <time>2024-06-05T20:08:19+00:00</time>
      </trkpt>
      <trkpt lat="45.37084" lon="6.19216">
        <ele>1864</ele>
        <time>2024-06-05T20:08:22+00:00</time>
      </trkpt>
      <trkpt lat="45.37087" lon="6.19218">
        <ele>1864</ele>
        <time>2024-06-05T20:08:25+00:00</time>
      </trkpt>
      <trkpt lat="45.3709" lon="6.19221">
        <ele>1868</ele>
        <time>2024-06-05T20:08:28+00:00</time>
      </trkpt>
      <trkpt lat="45.37091" lon="6.19225">
        <ele>1868</ele>
        <time>2024-06-05T20:08:31+00:00</time>
      </trkpt>
      <trkpt lat="45.3709" lon="6.19231">
        <ele>1872</ele>
        <time>2024-06-05T20:08:34+00:00</time>
      </trkpt>
      <trkpt lat="45.37088" lon="6.19233">
        <ele>1873</ele>
        <time>2024-06-05T20:08:37+00:00</time>
      </trkpt>
      <trkpt lat="45.37085" lon="6.19234">
        <ele>1873</ele>
        <time>2024-06-05T20:08:40+00:00</time>
      </trkpt>
      <trkpt lat="45.37082" lon="6.19235">
        <ele>1873</ele>
        <time>2024-06-05T20:08:43+00:00</time>
      </trkpt>
      <trkpt lat="45.37079" lon="6.19235">
        <ele>1872</ele>
        <time>2024-06-05T20:08:46+00:00</time>
      </trkpt>
      <trkpt lat="45.37077" lon="6.19235">
        <ele>1872</ele>
        <time>2024-06-05T20:08:49+00:00</time>
      </trkpt>
      <trkpt lat="45.37074" lon="6.19236">
        <ele>1872</ele>
        <time>2024-06-05T20:08:52+00:00</time>
      </trkpt>
      <trkpt lat="45.37073" lon="6.19238">
        <ele>1872</ele>
        <time>2024-06-05T20:08:55+00:00</time>
      </trkpt>
      <trkpt lat="45.37071" lon="6.19241">
        <ele>1876</ele>
        <time>2024-06-05T20:08:58+00:00</time>
      </trkpt>
      <trkpt lat="45.37069" lon="6.19244">
        <ele>1873</ele>
        <time>2024-06-05T20:09:01+00:00</time>
      </trkpt>
      <trkpt lat="45.37068" lon="6.19246">
        <ele>1873</ele>
        <time>2024-06-05T20:09:04+00:00</time>
      </trkpt>
      <trkpt lat="45.37068" lon="6.1925">
        <ele>1877</ele>
        <time>2024-06-05T20:09:07+00:00</time>
      </trkpt>
      <trkpt lat="45.37067" lon="6.19253">
        <ele>1877</ele>
        <time>2024-06-05T20:09:10+00:00</time>
      </trkpt>
      <trkpt lat="45.37066" lon="6.19254">
        <ele>1877</ele>
        <time>2024-06-05T20:09:13+00:00</time>
      </trkpt>
      <trkpt lat="45.37066" lon="6.19256">
        <ele>1877</ele>
        <time>2024-06-05T20:09:16+00:00</time>
      </trkpt>
      <trkpt lat="45.37069" lon="6.19259">
        <ele>1877</ele>
        <time>2024-06-05T20:09:19+00:00</time>
      </trkpt>
      <trkpt lat="45.37071" lon="6.19261">
        <ele>1885</ele>
        <time>2024-06-05T20:09:22+00:00</time>
      </trkpt>
      <trkpt lat="45.37071" lon="6.19265">
        <ele>1885</ele>
        <time>2024-06-05T20:09:25+00:00</time>
      </trkpt>
      <trkpt lat="45.3707" lon="6.19268">
        <ele>1885</ele>
        <time>2024-06-05T20:09:28+00:00</time>
      </trkpt>
      <trkpt lat="45.37069" lon="6.19271">
        <ele>1886</ele>
        <time>2024-06-05T20:09:31+00:00</time>
      </trkpt>
      <trkpt lat="45.3707" lon="6.19273">
        <ele>1886</ele>
        <time>2024-06-05T20:09:34+00:00</time>
      </trkpt>
      <trkpt lat="45.37072" lon="6.19274">
        <ele>1888</ele>
        <time>2024-06-05T20:09:37+00:00</time>
      </trkpt>
      <trkpt lat="45.37076" lon="6.19274">
        <ele>1888</ele>
        <time>2024-06-05T20:09:40+00:00</time>
      </trkpt>
      <trkpt lat="45.3708" lon="6.19274">
        <ele>1882</ele>
        <time>2024-06-05T20:09:43+00:00</time>
      </trkpt>
      <trkpt lat="45.37083" lon="6.19274">
        <ele>1887</ele>
        <time>2024-06-05T20:09:46+00:00</time>
      </trkpt>
      <trkpt lat="45.37086" lon="6.19277">
        <ele>1887</ele>
        <time>2024-06-05T20:09:49+00:00</time>
      </trkpt>
      <trkpt lat="45.37088" lon="6.19281">
        <ele>1891</ele>
        <time>2024-06-05T20:09:52+00:00</time>
      </trkpt>
      <trkpt lat="45.37092" lon="6.19286">
        <ele>1887</ele>
        <time>2024-06-05T20:09:55+00:00</time>
      </trkpt>
      <trkpt lat="45.37096" lon="6.19288">
        <ele>1887</ele>
        <time>2024-06-05T20:09:58+00:00</time>
      </trkpt>
      <trkpt lat="45.37099" lon="6.19292">
        <ele>1892</ele>
        <time>2024-06-05T20:10:01+00:00</time>
      </trkpt>
      <trkpt lat="45.37103" lon="6.19296">
        <ele>1889</ele>
        <time>2024-06-05T20:10:04+00:00</time>
      </trkpt>
      <trkpt lat="45.37107" lon="6.19299">
        <ele>1889</ele>
        <time>2024-06-05T20:10:07+00:00</time>
      </trkpt>
      <trkpt lat="45.3711" lon="6.19304">
        <ele>1887</ele>
        <time>2024-06-05T20:10:10+00:00</time>
      </trkpt>
      <trkpt lat="45.37114" lon="6.19307">
        <ele>1887</ele>
        <time>2024-06-05T20:10:13+00:00</time>
      </trkpt>
      <trkpt lat="45.37117" lon="6.19311">
        <ele>1890</ele>
        <time>2024-06-05T20:10:16+00:00</time>
      </trkpt>
      <trkpt lat="45.3712" lon="6.19314">
        <ele>1888</ele>
        <time>2024-06-05T20:10:19+00:00</time>
      </trkpt>
      <trkpt lat="45.37124" lon="6.19317">
        <ele>1888</ele>
        <time>2024-06-05T20:10:22+00:00</time>
      </trkpt>
      <trkpt lat="45.37129" lon="6.19319">
        <ele>1888</ele>
        <time>2024-06-05T20:10:25+00:00</time>
      </trkpt>
      <trkpt lat="45.37134" lon="6.19322">
        <ele>1888</ele>
        <time>2024-06-05T20:10:28+00:00</time>
      </trkpt>
      <trkpt lat="45.37137" lon="6.19325">
        <ele>1891</ele>
        <time>2024-06-05T20:10:31+00:00</time>
      </trkpt>
      <trkpt lat="45.3714" lon="6.1933">
        <ele>1889</ele>
        <time>2024-06-05T20:10:34+00:00</time>
      </trkpt>
      <trkpt lat="45.37144" lon="6.19334">
        <ele>1891</ele>
        <time>2024-06-05T20:10:37+00:00</time>
      </trkpt>
      <trkpt lat="45.37149" lon="6.19337">
        <ele>1891</ele>
        <time>2024-06-05T20:10:40+00:00</time>
      </trkpt>
      <trkpt lat="45.37153" lon="6.19337">
        <ele>1889</ele>
        <time>2024-06-05T20:10:43+00:00</time>
      </trkpt>
      <trkpt lat="45.37156" lon="6.19337">
        <ele>1889</ele>
        <time>2024-06-05T20:10:46+00:00</time>
      </trkpt>
      <trkpt lat="45.37159" lon="6.19337">
        <ele>1889</ele>
        <time>2024-06-05T20:10:49+00:00</time>
      </trkpt>
      <trkpt lat="45.37161" lon="6.1934">
        <ele>1888</ele>
        <time>2024-06-05T20:10:52+00:00</time>
      </trkpt>
      <trkpt lat="45.37163" lon="6.19345">
        <ele>1892</ele>
        <time>2024-06-05T20:10:55+00:00</time>
      </trkpt>
      <trkpt lat="45.37166" lon="6.1935">
        <ele>1892</ele>
        <time>2024-06-05T20:10:58+00:00</time>
      </trkpt>
      <trkpt lat="45.37169" lon="6.19353">
        <ele>1892</ele>
        <time>2024-06-05T20:11:01+00:00</time>
      </trkpt>
      <trkpt lat="45.37172" lon="6.19353">
        <ele>1895</ele>
        <time>2024-06-05T20:11:04+00:00</time>
      </trkpt>
      <trkpt lat="45.37175" lon="6.19355">
        <ele>1895</ele>
        <time>2024-06-05T20:11:07+00:00</time>
      </trkpt>
      <trkpt lat="45.37178" lon="6.19359">
        <ele>1895</ele>
        <time>2024-06-05T20:11:10+00:00</time>
      </trkpt>
      <trkpt lat="45.37182" lon="6.19363">
        <ele>1895</ele>
        <time>2024-06-05T20:11:13+00:00</time>
      </trkpt>
      <trkpt lat="45.37185" lon="6.19367">
        <ele>1895</ele>
        <time>2024-06-05T20:11:16+00:00</time>
      </trkpt>
      <trkpt lat="45.37188" lon="6.19369">
        <ele>1895</ele>
        <time>2024-06-05T20:11:19+00:00</time>
      </trkpt>
      <trkpt lat="45.37191" lon="6.19369">
        <ele>1894</ele>
        <time>2024-06-05T20:11:22+00:00</time>
      </trkpt>
      <trkpt lat="45.37193" lon="6.19368">
        <ele>1894</ele>
        <time>2024-06-05T20:11:25+00:00</time>
      </trkpt>
      <trkpt lat="45.37196" lon="6.19369">
        <ele>1894</ele>
        <time>2024-06-05T20:11:28+00:00</time>
      </trkpt>
      <trkpt lat="45.37198" lon="6.1937">
        <ele>1896</ele>
        <time>2024-06-05T20:11:31+00:00</time>
      </trkpt>
      <trkpt lat="45.37199" lon="6.19374">
        <ele>1896</ele>
        <time>2024-06-05T20:11:34+00:00</time>
      </trkpt>
      <trkpt lat="45.372" lon="6.19378">
        <ele>1898</ele>
        <time>2024-06-05T20:11:37+00:00</time>
      </trkpt>
      <trkpt lat="45.37201" lon="6.19384">
        <ele>1902</ele>
        <time>2024-06-05T20:11:40+00:00</time>
      </trkpt>
      <trkpt lat="45.37199" lon="6.19395">
        <ele>1903</ele>
        <time>2024-06-05T20:11:43+00:00</time>
      </trkpt>
      <trkpt lat="45.37197" lon="6.19399">
        <ele>1903</ele>
        <time>2024-06-05T20:11:46+00:00</time>
      </trkpt>
      <trkpt lat="45.37197" lon="6.19404">
        <ele>1906</ele>
        <time>2024-06-05T20:11:49+00:00</time>
      </trkpt>
      <trkpt lat="45.37197" lon="6.19407">
        <ele>1906</ele>
        <time>2024-06-05T20:11:52+00:00</time>
      </trkpt>
      <trkpt lat="45.37198" lon="6.19411">
        <ele>1908</ele>
        <time>2024-06-05T20:11:55+00:00</time>
      </trkpt>
      <trkpt lat="45.37201" lon="6.19414">
        <ele>1909</ele>
        <time>2024-06-05T20:11:58+00:00</time>
      </trkpt>
      <trkpt lat="45.37206" lon="6.19416">
        <ele>1909</ele>
        <time>2024-06-05T20:12:01+00:00</time>
      </trkpt>
      <trkpt lat="45.37209" lon="6.19417">
        <ele>1909</ele>
        <time>2024-06-05T20:12:04+00:00</time>
      </trkpt>
      <trkpt lat="45.37214" lon="6.19416">
        <ele>1907</ele>
        <time>2024-06-05T20:12:07+00:00</time>
      </trkpt>
      <trkpt lat="45.37218" lon="6.19415">
        <ele>1907</ele>
        <time>2024-06-05T20:12:10+00:00</time>
      </trkpt>
      <trkpt lat="45.37221" lon="6.19416">
        <ele>1907</ele>
        <time>2024-06-05T20:12:13+00:00</time>
      </trkpt>
      <trkpt lat="45.37223" lon="6.19418">
        <ele>1907</ele>
        <time>2024-06-05T20:12:16+00:00</time>
      </trkpt>
      <trkpt lat="45.37226" lon="6.19421">
        <ele>1912</ele>
        <time>2024-06-05T20:12:19+00:00</time>
      </trkpt>
      <trkpt lat="45.3723" lon="6.19423">
        <ele>1912</ele>
        <time>2024-06-05T20:12:22+00:00</time>
      </trkpt>
      <trkpt lat="45.37233" lon="6.19425">
        <ele>1905</ele>
        <time>2024-06-05T20:12:25+00:00</time>
      </trkpt>
      <trkpt lat="45.37235" lon="6.19427">
        <ele>1908</ele>
        <time>2024-06-05T20:12:28+00:00</time>
      </trkpt>
      <trkpt lat="45.37237" lon="6.19431">
        <ele>1911</ele>
        <time>2024-06-05T20:12:31+00:00</time>
      </trkpt>
      <trkpt lat="45.37238" lon="6.19433">
        <ele>1911</ele>
        <time>2024-06-05T20:12:34+00:00</time>
      </trkpt>
      <trkpt lat="45.37241" lon="6.19435">
        <ele>1906</ele>
        <time>2024-06-05T20:12:37+00:00</time>
      </trkpt>
      <trkpt lat="45.37244" lon="6.19436">
        <ele>1906</ele>
        <time>2024-06-05T20:12:40+00:00</time>
      </trkpt>
      <trkpt lat="45.3725" lon="6.19436">
        <ele>1904</ele>
        <time>2024-06-05T20:12:43+00:00</time>
      </trkpt>
      <trkpt lat="45.37259" lon="6.19438">
        <ele>1904</ele>
        <time>2024-06-05T20:12:46+00:00</time>
      </trkpt>
      <trkpt lat="45.37264" lon="6.1944">
        <ele>1901</ele>
        <time>2024-06-05T20:12:49+00:00</time>
      </trkpt>
      <trkpt lat="45.37269" lon="6.1944">
        <ele>1904</ele>
        <time>2024-06-05T20:12:52+00:00</time>
      </trkpt>
      <trkpt lat="45.37274" lon="6.19441">
        <ele>1901</ele>
        <time>2024-06-05T20:12:55+00:00</time>
      </trkpt>
      <trkpt lat="45.37279" lon="6.19442">
        <ele>1901</ele>
        <time>2024-06-05T20:12:58+00:00</time>
      </trkpt>
      <trkpt lat="45.37283" lon="6.19445">
        <ele>1898</ele>
        <time>2024-06-05T20:13:01+00:00</time>
      </trkpt>
      <trkpt lat="45.37288" lon="6.19449">
        <ele>1898</ele>
        <time>2024-06-05T20:13:04+00:00</time>
      </trkpt>
      <trkpt lat="45.37292" lon="6.19454">
        <ele>1897</ele>
        <time>2024-06-05T20:13:07+00:00</time>
      </trkpt>
      <trkpt lat="45.37299" lon="6.19461">
        <ele>1899</ele>
        <time>2024-06-05T20:13:10+00:00</time>
      </trkpt>
      <trkpt lat="45.37304" lon="6.19465">
        <ele>1894</ele>
        <time>2024-06-05T20:13:13+00:00</time>
      </trkpt>
      <trkpt lat="45.37308" lon="6.19467">
        <ele>1894</ele>
        <time>2024-06-05T20:13:16+00:00</time>
      </trkpt>
      <trkpt lat="45.37311" lon="6.19468">
        <ele>1890</ele>
        <time>2024-06-05T20:13:19+00:00</time>
      </trkpt>
      <trkpt lat="45.37315" lon="6.19469">
        <ele>1890</ele>
        <time>2024-06-05T20:13:22+00:00</time>
      </trkpt>
      <trkpt lat="45.37318" lon="6.1947">
        <ele>1893</ele>
        <time>2024-06-05T20:13:25+00:00</time>
      </trkpt>
      <trkpt lat="45.37322" lon="6.19473">
        <ele>1890</ele>
        <time>2024-06-05T20:13:28+00:00</time>
      </trkpt>
      <trkpt lat="45.37326" lon="6.19476">
        <ele>1894</ele>
        <time>2024-06-05T20:13:31+00:00</time>
      </trkpt>
      <trkpt lat="45.37331" lon="6.1948">
        <ele>1893</ele>
        <time>2024-06-05T20:13:34+00:00</time>
      </trkpt>
      <trkpt lat="45.37336" lon="6.19483">
        <ele>1893</ele>
        <time>2024-06-05T20:13:37+00:00</time>
      </trkpt>
      <trkpt lat="45.37341" lon="6.19488">
        <ele>1892</ele>
        <time>2024-06-05T20:13:40+00:00</time>
      </trkpt>
      <trkpt lat="45.37345" lon="6.19493">
        <ele>1892</ele>
        <time>2024-06-05T20:13:43+00:00</time>
      </trkpt>
      <trkpt lat="45.37349" lon="6.19497">
        <ele>1895</ele>
        <time>2024-06-05T20:13:46+00:00</time>
      </trkpt>
      <trkpt lat="45.37352" lon="6.19501">
        <ele>1894</ele>
        <time>2024-06-05T20:13:49+00:00</time>
      </trkpt>
      <trkpt lat="45.37355" lon="6.19505">
        <ele>1894</ele>
        <time>2024-06-05T20:13:52+00:00</time>
      </trkpt>
      <trkpt lat="45.37357" lon="6.19506">
        <ele>1894</ele>
        <time>2024-06-05T20:13:55+00:00</time>
      </trkpt>
      <trkpt lat="45.3736" lon="6.19505">
        <ele>1894</ele>
        <time>2024-06-05T20:13:58+00:00</time>
      </trkpt>
      <trkpt lat="45.37362" lon="6.19505">
        <ele>1895</ele>
        <time>2024-06-05T20:14:01+00:00</time>
      </trkpt>
      <trkpt lat="45.37366" lon="6.19506">
        <ele>1891</ele>
        <time>2024-06-05T20:14:04+00:00</time>
      </trkpt>
      <trkpt lat="45.37371" lon="6.19509">
        <ele>1893</ele>
        <time>2024-06-05T20:14:07+00:00</time>
      </trkpt>
      <trkpt lat="45.37375" lon="6.19511">
        <ele>1899</ele>
        <time>2024-06-05T20:14:10+00:00</time>
      </trkpt>
      <trkpt lat="45.37381" lon="6.19514">
        <ele>1898</ele>
        <time>2024-06-05T20:14:13+00:00</time>
      </trkpt>
      <trkpt lat="45.37384" lon="6.19516">
        <ele>1898</ele>
        <time>2024-06-05T20:14:16+00:00</time>
      </trkpt>
      <trkpt lat="45.37391" lon="6.1952">
        <ele>1897</ele>
        <time>2024-06-05T20:14:19+00:00</time>
      </trkpt>
      <trkpt lat="45.37397" lon="6.19518">
        <ele>1897</ele>
        <time>2024-06-05T20:14:22+00:00</time>
      </trkpt>
      <trkpt lat="45.37403" lon="6.1951">
        <ele>1898</ele>
        <time>2024-06-05T20:14:25+00:00</time>
      </trkpt>
      <trkpt lat="45.37412" lon="6.1951">
        <ele>1895</ele>
        <time>2024-06-05T20:14:28+00:00</time>
      </trkpt>
      <trkpt lat="45.37419" lon="6.19506">
        <ele>1895</ele>
        <time>2024-06-05T20:14:31+00:00</time>
      </trkpt>
      <trkpt lat="45.37429" lon="6.19501">
        <ele>1897</ele>
        <time>2024-06-05T20:14:34+00:00</time>
      </trkpt>
      <trkpt lat="45.37442" lon="6.19497">
        <ele>1894</ele>
        <time>2024-06-05T20:14:37+00:00</time>
      </trkpt>
      <trkpt lat="45.37449" lon="6.1949">
        <ele>1891</ele>
        <time>2024-06-05T20:14:40+00:00</time>
      </trkpt>
      <trkpt lat="45.37453" lon="6.19487">
        <ele>1890</ele>
        <time>2024-06-05T20:14:43+00:00</time>
      </trkpt>
      <trkpt lat="45.37453" lon="6.19487">
        <ele>1890</ele>
        <time>2024-06-05T20:14:46+00:00</time>
      </trkpt>
      <trkpt lat="45.37458" lon="6.19482">
        <ele>1890</ele>
        <time>2024-06-05T20:14:49+00:00</time>
      </trkpt>
      <trkpt lat="45.37468" lon="6.19475">
        <ele>1884</ele>
        <time>2024-06-05T20:14:52+00:00</time>
      </trkpt>
      <trkpt lat="45.37476" lon="6.19471">
        <ele>1883</ele>
        <time>2024-06-05T20:14:55+00:00</time>
      </trkpt>
      <trkpt lat="45.37483" lon="6.19469">
        <ele>1878</ele>
        <time>2024-06-05T20:14:58+00:00</time>
      </trkpt>
      <trkpt lat="45.37487" lon="6.19468">
        <ele>1878</ele>
        <time>2024-06-05T20:15:01+00:00</time>
      </trkpt>
      <trkpt lat="45.3749" lon="6.19468">
        <ele>1875</ele>
        <time>2024-06-05T20:15:04+00:00</time>
      </trkpt>
      <trkpt lat="45.37493" lon="6.19467">
        <ele>1875</ele>
        <time>2024-06-05T20:15:07+00:00</time>
      </trkpt>
      <trkpt lat="45.37496" lon="6.19465">
        <ele>1875</ele>
        <time>2024-06-05T20:15:10+00:00</time>
      </trkpt>
      <trkpt lat="45.375" lon="6.19464">
        <ele>1875</ele>
        <time>2024-06-05T20:15:13+00:00</time>
      </trkpt>
      <trkpt lat="45.37506" lon="6.19462">
        <ele>1877</ele>
        <time>2024-06-05T20:15:16+00:00</time>
      </trkpt>
      <trkpt lat="45.37511" lon="6.1946">
        <ele>1876</ele>
        <time>2024-06-05T20:15:19+00:00</time>
      </trkpt>
      <trkpt lat="45.37518" lon="6.19458">
        <ele>1872</ele>
        <time>2024-06-05T20:15:22+00:00</time>
      </trkpt>
      <trkpt lat="45.37525" lon="6.19457">
        <ele>1870</ele>
        <time>2024-06-05T20:15:25+00:00</time>
      </trkpt>
      <trkpt lat="45.37534" lon="6.19456">
        <ele>1869</ele>
        <time>2024-06-05T20:15:28+00:00</time>
      </trkpt>
      <trkpt lat="45.37545" lon="6.19457">
        <ele>1868</ele>
        <time>2024-06-05T20:15:31+00:00</time>
      </trkpt>
      <trkpt lat="45.37554" lon="6.19457">
        <ele>1867</ele>
        <time>2024-06-05T20:15:34+00:00</time>
      </trkpt>
      <trkpt lat="45.37559" lon="6.19458">
        <ele>1867</ele>
        <time>2024-06-05T20:15:37+00:00</time>
      </trkpt>
      <trkpt lat="45.37563" lon="6.19461">
        <ele>1868</ele>
        <time>2024-06-05T20:15:40+00:00</time>
      </trkpt>
      <trkpt lat="45.37567" lon="6.19465">
        <ele>1868</ele>
        <time>2024-06-05T20:15:43+00:00</time>
      </trkpt>
      <trkpt lat="45.37572" lon="6.19466">
        <ele>1865</ele>
        <time>2024-06-05T20:15:46+00:00</time>
      </trkpt>
      <trkpt lat="45.37576" lon="6.19469">
        <ele>1865</ele>
        <time>2024-06-05T20:15:49+00:00</time>
      </trkpt>
      <trkpt lat="45.37582" lon="6.19472">
        <ele>1868</ele>
        <time>2024-06-05T20:15:52+00:00</time>
      </trkpt>
      <trkpt lat="45.37589" lon="6.19475">
        <ele>1868</ele>
        <time>2024-06-05T20:15:55+00:00</time>
      </trkpt>
      <trkpt lat="45.37595" lon="6.19477">
        <ele>1864</ele>
        <time>2024-06-05T20:15:58+00:00</time>
      </trkpt>
      <trkpt lat="45.37599" lon="6.19479">
        <ele>1864</ele>
        <time>2024-06-05T20:16:01+00:00</time>
      </trkpt>
      <trkpt lat="45.37605" lon="6.19484">
        <ele>1869</ele>
        <time>2024-06-05T20:16:04+00:00</time>
      </trkpt>
      <trkpt lat="45.3761" lon="6.19488">
        <ele>1868</ele>
        <time>2024-06-05T20:16:07+00:00</time>
      </trkpt>
      <trkpt lat="45.37614" lon="6.19489">
        <ele>1867</ele>
        <time>2024-06-05T20:16:10+00:00</time>
      </trkpt>
      <trkpt lat="45.37619" lon="6.19488">
        <ele>1867</ele>
        <time>2024-06-05T20:16:13+00:00</time>
      </trkpt>
      <trkpt lat="45.37623" lon="6.19487">
        <ele>1868</ele>
        <time>2024-06-05T20:16:16+00:00</time>
      </trkpt>
      <trkpt lat="45.37625" lon="6.19485">
        <ele>1868</ele>
        <time>2024-06-05T20:16:19+00:00</time>
      </trkpt>
      <trkpt lat="45.37629" lon="6.19483">
        <ele>1868</ele>
        <time>2024-06-05T20:16:22+00:00</time>
      </trkpt>
      <trkpt lat="45.37634" lon="6.19482">
        <ele>1871</ele>
        <time>2024-06-05T20:16:25+00:00</time>
      </trkpt>
      <trkpt lat="45.37641" lon="6.19482">
        <ele>1873</ele>
        <time>2024-06-05T20:16:28+00:00</time>
      </trkpt>
      <trkpt lat="45.37646" lon="6.19482">
        <ele>1873</ele>
        <time>2024-06-05T20:16:31+00:00</time>
      </trkpt>
      <trkpt lat="45.37652" lon="6.19482">
        <ele>1877</ele>
        <time>2024-06-05T20:16:34+00:00</time>
      </trkpt>
      <trkpt lat="45.37661" lon="6.19479">
        <ele>1875</ele>
        <time>2024-06-05T20:16:37+00:00</time>
      </trkpt>
      <trkpt lat="45.37666" lon="6.19477">
        <ele>1875</ele>
        <time>2024-06-05T20:16:40+00:00</time>
      </trkpt>
      <trkpt lat="45.37668" lon="6.19476">
        <ele>1875</ele>
        <time>2024-06-05T20:16:43+00:00</time>
      </trkpt>
      <trkpt lat="45.37674" lon="6.19476">
        <ele>1881</ele>
        <time>2024-06-05T20:16:46+00:00</time>
      </trkpt>
      <trkpt lat="45.37679" lon="6.19476">
        <ele>1881</ele>
        <time>2024-06-05T20:16:49+00:00</time>
      </trkpt>
      <trkpt lat="45.37689" lon="6.19475">
        <ele>1883</ele>
        <time>2024-06-05T20:16:52+00:00</time>
      </trkpt>
      <trkpt lat="45.37697" lon="6.19474">
        <ele>1883</ele>
        <time>2024-06-05T20:16:55+00:00</time>
      </trkpt>
      <trkpt lat="45.37703" lon="6.19472">
        <ele>1884</ele>
        <time>2024-06-05T20:16:58+00:00</time>
      </trkpt>
      <trkpt lat="45.3771" lon="6.19472">
        <ele>1884</ele>
        <time>2024-06-05T20:17:01+00:00</time>
      </trkpt>
      <trkpt lat="45.37718" lon="6.19471">
        <ele>1883</ele>
        <time>2024-06-05T20:17:04+00:00</time>
      </trkpt>
      <trkpt lat="45.37724" lon="6.1947">
        <ele>1882</ele>
        <time>2024-06-05T20:17:07+00:00</time>
      </trkpt>
      <trkpt lat="45.37729" lon="6.1947">
        <ele>1887</ele>
        <time>2024-06-05T20:17:10+00:00</time>
      </trkpt>
      <trkpt lat="45.37733" lon="6.19469">
        <ele>1884</ele>
        <time>2024-06-05T20:17:13+00:00</time>
      </trkpt>
      <trkpt lat="45.37737" lon="6.19469">
        <ele>1884</ele>
        <time>2024-06-05T20:17:16+00:00</time>
      </trkpt>
      <trkpt lat="45.3774" lon="6.19466">
        <ele>1892</ele>
        <time>2024-06-05T20:17:19+00:00</time>
      </trkpt>
      <trkpt lat="45.37744" lon="6.19464">
        <ele>1892</ele>
        <time>2024-06-05T20:17:22+00:00</time>
      </trkpt>
      <trkpt lat="45.37748" lon="6.19464">
        <ele>1892</ele>
        <time>2024-06-05T20:17:25+00:00</time>
      </trkpt>
      <trkpt lat="45.37752" lon="6.19465">
        <ele>1895</ele>
        <time>2024-06-05T20:17:28+00:00</time>
      </trkpt>
      <trkpt lat="45.37757" lon="6.19469">
        <ele>1895</ele>
        <time>2024-06-05T20:17:31+00:00</time>
      </trkpt>
      <trkpt lat="45.37761" lon="6.19472">
        <ele>1901</ele>
        <time>2024-06-05T20:17:34+00:00</time>
      </trkpt>
      <trkpt lat="45.37764" lon="6.19472">
        <ele>1901</ele>
        <time>2024-06-05T20:17:37+00:00</time>
      </trkpt>
      <trkpt lat="45.37767" lon="6.19472">
        <ele>1901</ele>
        <time>2024-06-05T20:17:40+00:00</time>
      </trkpt>
      <trkpt lat="45.3777" lon="6.19472">
        <ele>1906</ele>
        <time>2024-06-05T20:17:43+00:00</time>
      </trkpt>
      <trkpt lat="45.37773" lon="6.19473">
        <ele>1906</ele>
        <time>2024-06-05T20:17:46+00:00</time>
      </trkpt>
      <trkpt lat="45.37775" lon="6.19476">
        <ele>1906</ele>
        <time>2024-06-05T20:17:49+00:00</time>
      </trkpt>
      <trkpt lat="45.37776" lon="6.19478">
        <ele>1906</ele>
        <time>2024-06-05T20:17:52+00:00</time>
      </trkpt>
      <trkpt lat="45.37777" lon="6.19479">
        <ele>1906</ele>
        <time>2024-06-05T20:17:55+00:00</time>
      </trkpt>
      <trkpt lat="45.37781" lon="6.19478">
        <ele>1908</ele>
        <time>2024-06-05T20:17:58+00:00</time>
      </trkpt>
      <trkpt lat="45.37783" lon="6.19479">
        <ele>1908</ele>
        <time>2024-06-05T20:18:01+00:00</time>
      </trkpt>
      <trkpt lat="45.37785" lon="6.19483">
        <ele>1914</ele>
        <time>2024-06-05T20:18:04+00:00</time>
      </trkpt>
      <trkpt lat="45.3779" lon="6.19488">
        <ele>1915</ele>
        <time>2024-06-05T20:18:07+00:00</time>
      </trkpt>
      <trkpt lat="45.37797" lon="6.19496">
        <ele>1918</ele>
        <time>2024-06-05T20:18:10+00:00</time>
      </trkpt>
      <trkpt lat="45.37801" lon="6.195">
        <ele>1922</ele>
        <time>2024-06-05T20:18:13+00:00</time>
      </trkpt>
      <trkpt lat="45.37806" lon="6.19501">
        <ele>1922</ele>
        <time>2024-06-05T20:18:16+00:00</time>
      </trkpt>
      <trkpt lat="45.3781" lon="6.19505">
        <ele>1922</ele>
        <time>2024-06-05T20:18:19+00:00</time>
      </trkpt>
      <trkpt lat="45.37816" lon="6.19511">
        <ele>1928</ele>
        <time>2024-06-05T20:18:22+00:00</time>
      </trkpt>
      <trkpt lat="45.37821" lon="6.19518">
        <ele>1928</ele>
        <time>2024-06-05T20:18:25+00:00</time>
      </trkpt>
      <trkpt lat="45.37827" lon="6.19525">
        <ele>1931</ele>
        <time>2024-06-05T20:18:28+00:00</time>
      </trkpt>
      <trkpt lat="45.37834" lon="6.19532">
        <ele>1936</ele>
        <time>2024-06-05T20:18:31+00:00</time>
      </trkpt>
      <trkpt lat="45.37842" lon="6.19537">
        <ele>1938</ele>
        <time>2024-06-05T20:18:34+00:00</time>
      </trkpt>
      <trkpt lat="45.37846" lon="6.19542">
        <ele>1944</ele>
        <time>2024-06-05T20:18:37+00:00</time>
      </trkpt>
      <trkpt lat="45.37849" lon="6.19546">
        <ele>1944</ele>
        <time>2024-06-05T20:18:40+00:00</time>
      </trkpt>
      <trkpt lat="45.37851" lon="6.19551">
        <ele>1948</ele>
        <time>2024-06-05T20:18:43+00:00</time>
      </trkpt>
      <trkpt lat="45.37854" lon="6.19555">
        <ele>1948</ele>
        <time>2024-06-05T20:18:46+00:00</time>
      </trkpt>
      <trkpt lat="45.37856" lon="6.19558">
        <ele>1948</ele>
        <time>2024-06-05T20:18:49+00:00</time>
      </trkpt>
      <trkpt lat="45.37858" lon="6.1956">
        <ele>1952</ele>
        <time>2024-06-05T20:18:52+00:00</time>
      </trkpt>
      <trkpt lat="45.37862" lon="6.1956">
        <ele>1948</ele>
        <time>2024-06-05T20:18:55+00:00</time>
      </trkpt>
      <trkpt lat="45.37866" lon="6.19561">
        <ele>1948</ele>
        <time>2024-06-05T20:18:58+00:00</time>
      </trkpt>
      <trkpt lat="45.37874" lon="6.19562">
        <ele>1950</ele>
        <time>2024-06-05T20:19:01+00:00</time>
      </trkpt>
      <trkpt lat="45.3788" lon="6.19563">
        <ele>1950</ele>
        <time>2024-06-05T20:19:04+00:00</time>
      </trkpt>
      <trkpt lat="45.37885" lon="6.19563">
        <ele>1953</ele>
        <time>2024-06-05T20:19:07+00:00</time>
      </trkpt>
      <trkpt lat="45.3789" lon="6.19562">
        <ele>1957</ele>
        <time>2024-06-05T20:19:10+00:00</time>
      </trkpt>
      <trkpt lat="45.37894" lon="6.19562">
        <ele>1957</ele>
        <time>2024-06-05T20:19:13+00:00</time>
      </trkpt>
      <trkpt lat="45.37896" lon="6.19564">
        <ele>1957</ele>
        <time>2024-06-05T20:19:16+00:00</time>
      </trkpt>
      <trkpt lat="45.379" lon="6.19567">
        <ele>1957</ele>
        <time>2024-06-05T20:19:19+00:00</time>
      </trkpt>
      <trkpt lat="45.37905" lon="6.19574">
        <ele>1962</ele>
        <time>2024-06-05T20:19:22+00:00</time>
      </trkpt>
      <trkpt lat="45.37914" lon="6.19583">
        <ele>1963</ele>
        <time>2024-06-05T20:19:25+00:00</time>
      </trkpt>
      <trkpt lat="45.3792" lon="6.19589">
        <ele>1958</ele>
        <time>2024-06-05T20:19:28+00:00</time>
      </trkpt>
      <trkpt lat="45.37923" lon="6.1959">
        <ele>1962</ele>
        <time>2024-06-05T20:19:31+00:00</time>
      </trkpt>
      <trkpt lat="45.37927" lon="6.19592">
        <ele>1962</ele>
        <time>2024-06-05T20:19:34+00:00</time>
      </trkpt>
      <trkpt lat="45.37929" lon="6.19596">
        <ele>1962</ele>
        <time>2024-06-05T20:19:37+00:00</time>
      </trkpt>
      <trkpt lat="45.37932" lon="6.19598">
        <ele>1961</ele>
        <time>2024-06-05T20:19:40+00:00</time>
      </trkpt>
      <trkpt lat="45.37936" lon="6.196">
        <ele>1961</ele>
        <time>2024-06-05T20:19:43+00:00</time>
      </trkpt>
      <trkpt lat="45.37946" lon="6.19602">
        <ele>1969</ele>
        <time>2024-06-05T20:19:46+00:00</time>
      </trkpt>
      <trkpt lat="45.37954" lon="6.19605">
        <ele>1970</ele>
        <time>2024-06-05T20:19:49+00:00</time>
      </trkpt>
      <trkpt lat="45.3796" lon="6.19607">
        <ele>1972</ele>
        <time>2024-06-05T20:19:52+00:00</time>
      </trkpt>
      <trkpt lat="45.37968" lon="6.19608">
        <ele>1972</ele>
        <time>2024-06-05T20:19:55+00:00</time>
      </trkpt>
      <trkpt lat="45.37973" lon="6.19609">
        <ele>1974</ele>
        <time>2024-06-05T20:19:58+00:00</time>
      </trkpt>
      <trkpt lat="45.3798" lon="6.19607">
        <ele>1974</ele>
        <time>2024-06-05T20:20:01+00:00</time>
      </trkpt>
      <trkpt lat="45.37987" lon="6.19604">
        <ele>1978</ele>
        <time>2024-06-05T20:20:04+00:00</time>
      </trkpt>
      <trkpt lat="45.3799" lon="6.19604">
        <ele>1978</ele>
        <time>2024-06-05T20:20:07+00:00</time>
      </trkpt>
      <trkpt lat="45.37993" lon="6.19606">
        <ele>1985</ele>
        <time>2024-06-05T20:20:10+00:00</time>
      </trkpt>
      <trkpt lat="45.37995" lon="6.19609">
        <ele>1985</ele>
        <time>2024-06-05T20:20:13+00:00</time>
      </trkpt>
      <trkpt lat="45.37998" lon="6.19613">
        <ele>1988</ele>
        <time>2024-06-05T20:20:16+00:00</time>
      </trkpt>
      <trkpt lat="45.38002" lon="6.19618">
        <ele>1993</ele>
        <time>2024-06-05T20:20:19+00:00</time>
      </trkpt>
      <trkpt lat="45.38007" lon="6.19622">
        <ele>1996</ele>
        <time>2024-06-05T20:20:22+00:00</time>
      </trkpt>
      <trkpt lat="45.38011" lon="6.19629">
        <ele>2002</ele>
        <time>2024-06-05T20:20:25+00:00</time>
      </trkpt>
      <trkpt lat="45.38014" lon="6.19633">
        <ele>2004</ele>
        <time>2024-06-05T20:20:28+00:00</time>
      </trkpt>
      <trkpt lat="45.38017" lon="6.1964">
        <ele>2004</ele>
        <time>2024-06-05T20:20:31+00:00</time>
      </trkpt>
      <trkpt lat="45.38021" lon="6.19647">
        <ele>2013</ele>
        <time>2024-06-05T20:20:34+00:00</time>
      </trkpt>
      <trkpt lat="45.38024" lon="6.19653">
        <ele>2014</ele>
        <time>2024-06-05T20:20:37+00:00</time>
      </trkpt>
      <trkpt lat="45.38027" lon="6.19659">
        <ele>2014</ele>
        <time>2024-06-05T20:20:40+00:00</time>
      </trkpt>
      <trkpt lat="45.38029" lon="6.19662">
        <ele>2015</ele>
        <time>2024-06-05T20:20:43+00:00</time>
      </trkpt>
      <trkpt lat="45.3803" lon="6.19663">
        <ele>2021</ele>
        <time>2024-06-05T20:20:46+00:00</time>
      </trkpt>
      <trkpt lat="45.38034" lon="6.19666">
        <ele>2021</ele>
        <time>2024-06-05T20:20:49+00:00</time>
      </trkpt>
      <trkpt lat="45.38042" lon="6.19672">
        <ele>2025</ele>
        <time>2024-06-05T20:20:52+00:00</time>
      </trkpt>
      <trkpt lat="45.38047" lon="6.19684">
        <ele>2025</ele>
        <time>2024-06-05T20:20:55+00:00</time>
      </trkpt>
      <trkpt lat="45.38051" lon="6.1969">
        <ele>2035</ele>
        <time>2024-06-05T20:20:58+00:00</time>
      </trkpt>
      <trkpt lat="45.38054" lon="6.19688">
        <ele>2035</ele>
        <time>2024-06-05T20:21:01+00:00</time>
      </trkpt>
      <trkpt lat="45.38059" lon="6.19689">
        <ele>2035</ele>
        <time>2024-06-05T20:21:04+00:00</time>
      </trkpt>
      <trkpt lat="45.38065" lon="6.1968">
        <ele>2043</ele>
        <time>2024-06-05T20:21:07+00:00</time>
      </trkpt>
      <trkpt lat="45.38068" lon="6.1968">
        <ele>2043</ele>
        <time>2024-06-05T20:21:10+00:00</time>
      </trkpt>
      <trkpt lat="45.38072" lon="6.19667">
        <ele>2053</ele>
        <time>2024-06-05T20:21:13+00:00</time>
      </trkpt>
      <trkpt lat="45.38079" lon="6.19675">
        <ele>2049</ele>
        <time>2024-06-05T20:21:16+00:00</time>
      </trkpt>
      <trkpt lat="45.38083" lon="6.19667">
        <ele>2058</ele>
        <time>2024-06-05T20:21:19+00:00</time>
      </trkpt>
      <trkpt lat="45.38091" lon="6.19659">
        <ele>2067</ele>
        <time>2024-06-05T20:21:22+00:00</time>
      </trkpt>
      <trkpt lat="45.38095" lon="6.19658">
        <ele>2056</ele>
        <time>2024-06-05T20:21:25+00:00</time>
      </trkpt>
      <trkpt lat="45.38101" lon="6.19674">
        <ele>2063</ele>
        <time>2024-06-05T20:21:28+00:00</time>
      </trkpt>
      <trkpt lat="45.38102" lon="6.19689">
        <ele>2058</ele>
        <time>2024-06-05T20:21:31+00:00</time>
      </trkpt>
      <trkpt lat="45.38104" lon="6.19696">
        <ele>2065</ele>
        <time>2024-06-05T20:21:34+00:00</time>
      </trkpt>
      <trkpt lat="45.38108" lon="6.19706">
        <ele>2067</ele>
        <time>2024-06-05T20:21:37+00:00</time>
      </trkpt>
      <trkpt lat="45.38111" lon="6.19712">
        <ele>2060</ele>
        <time>2024-06-05T20:21:40+00:00</time>
      </trkpt>
      <trkpt lat="45.38114" lon="6.19719">
        <ele>2060</ele>
        <time>2024-06-05T20:21:43+00:00</time>
      </trkpt>
      <trkpt lat="45.38122" lon="6.19724">
        <ele>2063</ele>
        <time>2024-06-05T20:21:46+00:00</time>
      </trkpt>
      <trkpt lat="45.38127" lon="6.19728">
        <ele>2063</ele>
        <time>2024-06-05T20:21:49+00:00</time>
      </trkpt>
      <trkpt lat="45.38134" lon="6.19733">
        <ele>2065</ele>
        <time>2024-06-05T20:21:52+00:00</time>
      </trkpt>
      <trkpt lat="45.38147" lon="6.19734">
        <ele>2064</ele>
        <time>2024-06-05T20:21:55+00:00</time>
      </trkpt>
      <trkpt lat="45.38162" lon="6.19738">
        <ele>2066</ele>
        <time>2024-06-05T20:21:58+00:00</time>
      </trkpt>
      <trkpt lat="45.38172" lon="6.19734">
        <ele>2070</ele>
        <time>2024-06-05T20:22:01+00:00</time>
      </trkpt>
      <trkpt lat="45.38183" lon="6.19737">
        <ele>2067</ele>
        <time>2024-06-05T20:22:04+00:00</time>
      </trkpt>
      <trkpt lat="45.38195" lon="6.1974">
        <ele>2071</ele>
        <time>2024-06-05T20:22:07+00:00</time>
      </trkpt>
      <trkpt lat="45.38204" lon="6.19742">
        <ele>2067</ele>
        <time>2024-06-05T20:22:10+00:00</time>
      </trkpt>
      <trkpt lat="45.38211" lon="6.19745">
        <ele>2068</ele>
        <time>2024-06-05T20:22:13+00:00</time>
      </trkpt>
      <trkpt lat="45.38233" lon="6.1975">
        <ele>2067</ele>
        <time>2024-06-05T20:22:16+00:00</time>
      </trkpt>
      <trkpt lat="45.38241" lon="6.19749">
        <ele>2068</ele>
        <time>2024-06-05T20:22:19+00:00</time>
      </trkpt>
      <trkpt lat="45.38251" lon="6.19741">
        <ele>2064</ele>
        <time>2024-06-05T20:22:22+00:00</time>
      </trkpt>
      <trkpt lat="45.38266" lon="6.19744">
        <ele>2067</ele>
        <time>2024-06-05T20:22:25+00:00</time>
      </trkpt>
      <trkpt lat="45.38278" lon="6.19738">
        <ele>2062</ele>
        <time>2024-06-05T20:22:28+00:00</time>
      </trkpt>
      <trkpt lat="45.38288" lon="6.19722">
        <ele>2060</ele>
        <time>2024-06-05T20:22:31+00:00</time>
      </trkpt>
      <trkpt lat="45.3831" lon="6.1971">
        <ele>2049</ele>
        <time>2024-06-05T20:22:34+00:00</time>
      </trkpt>
      <trkpt lat="45.38327" lon="6.19707">
        <ele>2050</ele>
        <time>2024-06-05T20:22:37+00:00</time>
      </trkpt>
      <trkpt lat="45.3835" lon="6.19687">
        <ele>2045</ele>
        <time>2024-06-05T20:22:40+00:00</time>
      </trkpt>
      <trkpt lat="45.38382" lon="6.1966">
        <ele>2041</ele>
        <time>2024-06-05T20:22:43+00:00</time>
      </trkpt>
      <trkpt lat="45.38385" lon="6.19659">
        <ele>2031</ele>
        <time>2024-06-05T20:22:46+00:00</time>
      </trkpt>
      <trkpt lat="45.3839" lon="6.19659">
        <ele>2033</ele>
        <time>2024-06-05T20:22:49+00:00</time>
      </trkpt>
      <trkpt lat="45.38404" lon="6.19644">
        <ele>2029</ele>
        <time>2024-06-05T20:22:52+00:00</time>
      </trkpt>
      <trkpt lat="45.38426" lon="6.19616">
        <ele>2018</ele>
        <time>2024-06-05T20:22:55+00:00</time>
      </trkpt>
      <trkpt lat="45.38435" lon="6.19613">
        <ele>2019</ele>
        <time>2024-06-05T20:22:58+00:00</time>
      </trkpt>
      <trkpt lat="45.38446" lon="6.19602">
        <ele>2021</ele>
        <time>2024-06-05T20:23:01+00:00</time>
      </trkpt>
      <trkpt lat="45.38453" lon="6.19596">
        <ele>2014</ele>
        <time>2024-06-05T20:23:04+00:00</time>
      </trkpt>
      <trkpt lat="45.38455" lon="6.19589">
        <ele>2012</ele>
        <time>2024-06-05T20:23:07+00:00</time>
      </trkpt>
      <trkpt lat="45.38475" lon="6.19574">
        <ele>2024</ele>
        <time>2024-06-05T20:23:10+00:00</time>
      </trkpt>
      <trkpt lat="45.38483" lon="6.19569">
        <ele>2022</ele>
        <time>2024-06-05T20:23:13+00:00</time>
      </trkpt>
      <trkpt lat="45.38503" lon="6.19568">
        <ele>2028</ele>
        <time>2024-06-05T20:23:16+00:00</time>
      </trkpt>
      <trkpt lat="45.38514" lon="6.19567">
        <ele>2029</ele>
        <time>2024-06-05T20:23:19+00:00</time>
      </trkpt>
      <trkpt lat="45.38525" lon="6.19575">
        <ele>2033</ele>
        <time>2024-06-05T20:23:22+00:00</time>
      </trkpt>
      <trkpt lat="45.38528" lon="6.19586">
        <ele>2035</ele>
        <time>2024-06-05T20:23:25+00:00</time>
      </trkpt>
      <trkpt lat="45.38534" lon="6.19596">
        <ele>2038</ele>
        <time>2024-06-05T20:23:28+00:00</time>
      </trkpt>
      <trkpt lat="45.38541" lon="6.19608">
        <ele>2041</ele>
        <time>2024-06-05T20:23:31+00:00</time>
      </trkpt>
      <trkpt lat="45.38549" lon="6.1962">
        <ele>2041</ele>
        <time>2024-06-05T20:23:34+00:00</time>
      </trkpt>
      <trkpt lat="45.38556" lon="6.19629">
        <ele>2043</ele>
        <time>2024-06-05T20:23:37+00:00</time>
      </trkpt>
      <trkpt lat="45.38561" lon="6.19645">
        <ele>2050</ele>
        <time>2024-06-05T20:23:40+00:00</time>
      </trkpt>
      <trkpt lat="45.38559" lon="6.19671">
        <ele>2057</ele>
        <time>2024-06-05T20:23:43+00:00</time>
      </trkpt>
      <trkpt lat="45.3856" lon="6.1968">
        <ele>2057</ele>
        <time>2024-06-05T20:23:46+00:00</time>
      </trkpt>
      <trkpt lat="45.38559" lon="6.19715">
        <ele>2069</ele>
        <time>2024-06-05T20:23:49+00:00</time>
      </trkpt>
      <trkpt lat="45.38563" lon="6.19728">
        <ele>2077</ele>
        <time>2024-06-05T20:23:52+00:00</time>
      </trkpt>
      <trkpt lat="45.38567" lon="6.19745">
        <ele>2082</ele>
        <time>2024-06-05T20:23:55+00:00</time>
      </trkpt>
      <trkpt lat="45.3857" lon="6.19755">
        <ele>2085</ele>
        <time>2024-06-05T20:23:58+00:00</time>
      </trkpt>
      <trkpt lat="45.38573" lon="6.19761">
        <ele>2090</ele>
        <time>2024-06-05T20:24:01+00:00</time>
      </trkpt>
      <trkpt lat="45.38579" lon="6.19765">
        <ele>2090</ele>
        <time>2024-06-05T20:24:04+00:00</time>
      </trkpt>
      <trkpt lat="45.38586" lon="6.19771">
        <ele>2096</ele>
        <time>2024-06-05T20:24:07+00:00</time>
      </trkpt>
      <trkpt lat="45.38594" lon="6.19779">
        <ele>2100</ele>
        <time>2024-06-05T20:24:10+00:00</time>
      </trkpt>
      <trkpt lat="45.38598" lon="6.19783">
        <ele>2103</ele>
        <time>2024-06-05T20:24:13+00:00</time>
      </trkpt>
      <trkpt lat="45.38602" lon="6.19793">
        <ele>2107</ele>
        <time>2024-06-05T20:24:16+00:00</time>
      </trkpt>
      <trkpt lat="45.38611" lon="6.1981">
        <ele>2112</ele>
        <time>2024-06-05T20:24:19+00:00</time>
      </trkpt>
      <trkpt lat="45.38617" lon="6.19823">
        <ele>2111</ele>
        <time>2024-06-05T20:24:22+00:00</time>
      </trkpt>
      <trkpt lat="45.38626" lon="6.19835">
        <ele>2120</ele>
        <time>2024-06-05T20:24:25+00:00</time>
      </trkpt>
      <trkpt lat="45.38631" lon="6.1986">
        <ele>2127</ele>
        <time>2024-06-05T20:24:28+00:00</time>
      </trkpt>
      <trkpt lat="45.38636" lon="6.1986">
        <ele>2127</ele>
        <time>2024-06-05T20:24:31+00:00</time>
      </trkpt>
      <trkpt lat="45.38642" lon="6.19852">
        <ele>2132</ele>
        <time>2024-06-05T20:24:34+00:00</time>
      </trkpt>
      <trkpt lat="45.3865" lon="6.19847">
        <ele>2131</ele>
        <time>2024-06-05T20:24:37+00:00</time>
      </trkpt>
      <trkpt lat="45.38656" lon="6.19833">
        <ele>2142</ele>
        <time>2024-06-05T20:24:40+00:00</time>
      </trkpt>
      <trkpt lat="45.38664" lon="6.19832">
        <ele>2149</ele>
        <time>2024-06-05T20:24:43+00:00</time>
      </trkpt>
      <trkpt lat="45.38671" lon="6.19808">
        <ele>2158</ele>
        <time>2024-06-05T20:24:46+00:00</time>
      </trkpt>
      <trkpt lat="45.38684" lon="6.1977">
        <ele>2167</ele>
        <time>2024-06-05T20:24:49+00:00</time>
      </trkpt>
      <trkpt lat="45.38692" lon="6.19746">
        <ele>2172</ele>
        <time>2024-06-05T20:24:52+00:00</time>
      </trkpt>
      <trkpt lat="45.38696" lon="6.19726">
        <ele>2177</ele>
        <time>2024-06-05T20:24:55+00:00</time>
      </trkpt>
      <trkpt lat="45.38702" lon="6.19718">
        <ele>2175</ele>
        <time>2024-06-05T20:24:58+00:00</time>
      </trkpt>
      <trkpt lat="45.38725" lon="6.19728">
        <ele>2188</ele>
        <time>2024-06-05T20:25:01+00:00</time>
      </trkpt>
      <trkpt lat="45.38742" lon="6.1973">
        <ele>2192</ele>
        <time>2024-06-05T20:25:04+00:00</time>
      </trkpt>
      <trkpt lat="45.38765" lon="6.19737">
        <ele>2200</ele>
        <time>2024-06-05T20:25:07+00:00</time>
      </trkpt>
      <trkpt lat="45.38787" lon="6.19751">
        <ele>2214</ele>
        <time>2024-06-05T20:25:10+00:00</time>
      </trkpt>
      <trkpt lat="45.3882" lon="6.19758">
        <ele>2221</ele>
        <time>2024-06-05T20:25:13+00:00</time>
      </trkpt>
      <trkpt lat="45.3883" lon="6.19768">
        <ele>2220</ele>
        <time>2024-06-05T20:25:16+00:00</time>
      </trkpt>
      <trkpt lat="45.38844" lon="6.19794">
        <ele>2224</ele>
        <time>2024-06-05T20:25:19+00:00</time>
      </trkpt>
      <trkpt lat="45.38866" lon="6.19808">
        <ele>2226</ele>
        <time>2024-06-05T20:25:22+00:00</time>
      </trkpt>
      <trkpt lat="45.38894" lon="6.19812">
        <ele>2232</ele>
        <time>2024-06-05T20:25:25+00:00</time>
      </trkpt>
      <trkpt lat="45.38905" lon="6.19814">
        <ele>2234</ele>
        <time>2024-06-05T20:25:28+00:00</time>
      </trkpt>
      <trkpt lat="45.3894" lon="6.19825">
        <ele>2242</ele>
        <time>2024-06-05T20:25:31+00:00</time>
      </trkpt>
      <trkpt lat="45.38968" lon="6.19848">
        <ele>2246</ele>
        <time>2024-06-05T20:25:34+00:00</time>
      </trkpt>
      <trkpt lat="45.38997" lon="6.19867">
        <ele>2255</ele>
        <time>2024-06-05T20:25:37+00:00</time>
      </trkpt>
      <trkpt lat="45.39012" lon="6.19855">
        <ele>2260</ele>
        <time>2024-06-05T20:25:40+00:00</time>
      </trkpt>
      <trkpt lat="45.39032" lon="6.19859">
        <ele>2260</ele>
        <time>2024-06-05T20:25:43+00:00</time>
      </trkpt>
      <trkpt lat="45.39046" lon="6.19868">
        <ele>2262</ele>
        <time>2024-06-05T20:25:46+00:00</time>
      </trkpt>
      <trkpt lat="45.39054" lon="6.19872">
        <ele>2264</ele>
        <time>2024-06-05T20:25:49+00:00</time>
      </trkpt>
      <trkpt lat="45.39064" lon="6.19878">
        <ele>2268</ele>
        <time>2024-06-05T20:25:52+00:00</time>
      </trkpt>
      <trkpt lat="45.39083" lon="6.19882">
        <ele>2271</ele>
        <time>2024-06-05T20:25:55+00:00</time>
      </trkpt>
      <trkpt lat="45.39104" lon="6.19883">
        <ele>2270</ele>
        <time>2024-06-05T20:25:58+00:00</time>
      </trkpt>
      <trkpt lat="45.39126" lon="6.19885">
        <ele>2269</ele>
        <time>2024-06-05T20:26:01+00:00</time>
      </trkpt>
      <trkpt lat="45.39141" lon="6.19877">
        <ele>2265</ele>
        <time>2024-06-05T20:26:04+00:00</time>
      </trkpt>
      <trkpt lat="45.3915" lon="6.1988">
        <ele>2264</ele>
        <time>2024-06-05T20:26:07+00:00</time>
      </trkpt>
      <trkpt lat="45.3917" lon="6.199">
        <ele>2262</ele>
        <time>2024-06-05T20:26:10+00:00</time>
      </trkpt>
      <trkpt lat="45.39187" lon="6.1991">
        <ele>2258</ele>
        <time>2024-06-05T20:26:13+00:00</time>
      </trkpt>
      <trkpt lat="45.392" lon="6.1991">
        <ele>2260</ele>
        <time>2024-06-05T20:26:16+00:00</time>
      </trkpt>
      <trkpt lat="45.3921" lon="6.19903">
        <ele>2255</ele>
        <time>2024-06-05T20:26:19+00:00</time>
      </trkpt>
      <trkpt lat="45.39215" lon="6.19907">
        <ele>2253</ele>
        <time>2024-06-05T20:26:22+00:00</time>
      </trkpt>
      <trkpt lat="45.39224" lon="6.19929">
        <ele>2260</ele>
        <time>2024-06-05T20:26:25+00:00</time>
      </trkpt>
      <trkpt lat="45.39234" lon="6.19956">
        <ele>2260</ele>
        <time>2024-06-05T20:26:28+00:00</time>
      </trkpt>
      <trkpt lat="45.39238" lon="6.19982">
        <ele>2260</ele>
        <time>2024-06-05T20:26:31+00:00</time>
      </trkpt>
      <trkpt lat="45.39248" lon="6.20001">
        <ele>2263</ele>
        <time>2024-06-05T20:26:34+00:00</time>
      </trkpt>
      <trkpt lat="45.39259" lon="6.20005">
        <ele>2260</ele>
        <time>2024-06-05T20:26:37+00:00</time>
      </trkpt>
      <trkpt lat="45.39265" lon="6.2001">
        <ele>2255</ele>
        <time>2024-06-05T20:26:40+00:00</time>
      </trkpt>
      <trkpt lat="45.3927" lon="6.2002">
        <ele>2252</ele>
        <time>2024-06-05T20:26:43+00:00</time>
      </trkpt>
      <trkpt lat="45.39281" lon="6.20023">
        <ele>2244</ele>
        <time>2024-06-05T20:26:46+00:00</time>
      </trkpt>
      <trkpt lat="45.39306" lon="6.20051">
        <ele>2230</ele>
        <time>2024-06-05T20:26:49+00:00</time>
      </trkpt>
      <trkpt lat="45.39344" lon="6.20084">
        <ele>2214</ele>
        <time>2024-06-05T20:26:52+00:00</time>
      </trkpt>
      <trkpt lat="45.39356" lon="6.20091">
        <ele>2208</ele>
        <time>2024-06-05T20:26:55+00:00</time>
      </trkpt>
      <trkpt lat="45.3937" lon="6.20101">
        <ele>2206</ele>
        <time>2024-06-05T20:26:58+00:00</time>
      </trkpt>
      <trkpt lat="45.39384" lon="6.20105">
        <ele>2202</ele>
        <time>2024-06-05T20:27:01+00:00</time>
      </trkpt>
      <trkpt lat="45.39394" lon="6.20102">
        <ele>2201</ele>
        <time>2024-06-05T20:27:04+00:00</time>
      </trkpt>
      <trkpt lat="45.39404" lon="6.20103">
        <ele>2200</ele>
        <time>2024-06-05T20:27:07+00:00</time>
      </trkpt>
      <trkpt lat="45.39414" lon="6.20107">
        <ele>2196</ele>
        <time>2024-06-05T20:27:10+00:00</time>
      </trkpt>
      <trkpt lat="45.3943" lon="6.20105">
        <ele>2197</ele>
        <time>2024-06-05T20:27:13+00:00</time>
      </trkpt>
      <trkpt lat="45.3945" lon="6.20097">
        <ele>2196</ele>
        <time>2024-06-05T20:27:16+00:00</time>
      </trkpt>
      <trkpt lat="45.39466" lon="6.20082">
        <ele>2197</ele>
        <time>2024-06-05T20:27:19+00:00</time>
      </trkpt>
      <trkpt lat="45.39505" lon="6.20072">
        <ele>2204</ele>
        <time>2024-06-05T20:27:22+00:00</time>
      </trkpt>
      <trkpt lat="45.39525" lon="6.20071">
        <ele>2214</ele>
        <time>2024-06-05T20:27:25+00:00</time>
      </trkpt>
      <trkpt lat="45.3955" lon="6.20062">
        <ele>2229</ele>
        <time>2024-06-05T20:27:28+00:00</time>
      </trkpt>
      <trkpt lat="45.39556" lon="6.20065">
        <ele>2229</ele>
        <time>2024-06-05T20:27:31+00:00</time>
      </trkpt>
      <trkpt lat="45.39561" lon="6.20066">
        <ele>2237</ele>
        <time>2024-06-05T20:27:34+00:00</time>
      </trkpt>
      <trkpt lat="45.39568" lon="6.20061">
        <ele>2237</ele>
        <time>2024-06-05T20:27:37+00:00</time>
      </trkpt>
      <trkpt lat="45.39574" lon="6.20062">
        <ele>2235</ele>
        <time>2024-06-05T20:27:40+00:00</time>
      </trkpt>
      <trkpt lat="45.39579" lon="6.20063">
        <ele>2244</ele>
        <time>2024-06-05T20:27:43+00:00</time>
      </trkpt>
      <trkpt lat="45.39581" lon="6.20064">
        <ele>2248</ele>
        <time>2024-06-05T20:27:46+00:00</time>
      </trkpt>
      <trkpt lat="45.39589" lon="6.20049">
        <ele>2234</ele>
        <time>2024-06-05T20:27:49+00:00</time>
      </trkpt>
      <trkpt lat="45.39596" lon="6.20043">
        <ele>2243</ele>
        <time>2024-06-05T20:27:52+00:00</time>
      </trkpt>
      <trkpt lat="45.39599" lon="6.20035">
        <ele>2239</ele>
        <time>2024-06-05T20:27:55+00:00</time>
      </trkpt>
      <trkpt lat="45.39604" lon="6.20029">
        <ele>2234</ele>
        <time>2024-06-05T20:27:58+00:00</time>
      </trkpt>
      <trkpt lat="45.39604" lon="6.20008">
        <ele>2226</ele>
        <time>2024-06-05T20:28:01+00:00</time>
      </trkpt>
      <trkpt lat="45.39601" lon="6.19984">
        <ele>2219</ele>
        <time>2024-06-05T20:28:04+00:00</time>
      </trkpt>
      <trkpt lat="45.39601" lon="6.19965">
        <ele>2214</ele>
        <time>2024-06-05T20:28:07+00:00</time>
      </trkpt>
      <trkpt lat="45.39603" lon="6.19946">
        <ele>2217</ele>
        <time>2024-06-05T20:28:10+00:00</time>
      </trkpt>
      <trkpt lat="45.39621" lon="6.19929">
        <ele>2219</ele>
        <time>2024-06-05T20:28:13+00:00</time>
      </trkpt>
      <trkpt lat="45.39633" lon="6.19919">
        <ele>2221</ele>
        <time>2024-06-05T20:28:16+00:00</time>
      </trkpt>
      <trkpt lat="45.39637" lon="6.19907">
        <ele>2222</ele>
        <time>2024-06-05T20:28:19+00:00</time>
      </trkpt>
      <trkpt lat="45.39647" lon="6.19896">
        <ele>2229</ele>
        <time>2024-06-05T20:28:22+00:00</time>
      </trkpt>
      <trkpt lat="45.39653" lon="6.19874">
        <ele>2226</ele>
        <time>2024-06-05T20:28:25+00:00</time>
      </trkpt>
      <trkpt lat="45.39657" lon="6.19867">
        <ele>2233</ele>
        <time>2024-06-05T20:28:28+00:00</time>
      </trkpt>
      <trkpt lat="45.3966" lon="6.19866">
        <ele>2231</ele>
        <time>2024-06-05T20:28:31+00:00</time>
      </trkpt>
      <trkpt lat="45.39666" lon="6.19865">
        <ele>2231</ele>
        <time>2024-06-05T20:28:34+00:00</time>
      </trkpt>
      <trkpt lat="45.39673" lon="6.19864">
        <ele>2227</ele>
        <time>2024-06-05T20:28:37+00:00</time>
      </trkpt>
      <trkpt lat="45.39679" lon="6.19862">
        <ele>2230</ele>
        <time>2024-06-05T20:28:40+00:00</time>
      </trkpt>
      <trkpt lat="45.39684" lon="6.19879">
        <ele>2227</ele>
        <time>2024-06-05T20:28:43+00:00</time>
      </trkpt>
      <trkpt lat="45.39686" lon="6.19892">
        <ele>2229</ele>
        <time>2024-06-05T20:28:46+00:00</time>
      </trkpt>
      <trkpt lat="45.39691" lon="6.19909">
        <ele>2227</ele>
        <time>2024-06-05T20:28:49+00:00</time>
      </trkpt>
      <trkpt lat="45.39694" lon="6.19921">
        <ele>2229</ele>
        <time>2024-06-05T20:28:52+00:00</time>
      </trkpt>
      <trkpt lat="45.39698" lon="6.19929">
        <ele>2229</ele>
        <time>2024-06-05T20:28:55+00:00</time>
      </trkpt>
      <trkpt lat="45.39703" lon="6.19936">
        <ele>2224</ele>
        <time>2024-06-05T20:28:58+00:00</time>
      </trkpt>
      <trkpt lat="45.3971" lon="6.19945">
        <ele>2217</ele>
        <time>2024-06-05T20:29:01+00:00</time>
      </trkpt>
      <trkpt lat="45.39718" lon="6.19959">
        <ele>2219</ele>
        <time>2024-06-05T20:29:04+00:00</time>
      </trkpt>
      <trkpt lat="45.39729" lon="6.19972">
        <ele>2217</ele>
        <time>2024-06-05T20:29:07+00:00</time>
      </trkpt>
      <trkpt lat="45.39735" lon="6.19975">
        <ele>2211</ele>
        <time>2024-06-05T20:29:10+00:00</time>
      </trkpt>
      <trkpt lat="45.39744" lon="6.19981">
        <ele>2205</ele>
        <time>2024-06-05T20:29:13+00:00</time>
      </trkpt>
      <trkpt lat="45.39748" lon="6.19986">
        <ele>2205</ele>
        <time>2024-06-05T20:29:16+00:00</time>
      </trkpt>
      <trkpt lat="45.39755" lon="6.1999">
        <ele>2198</ele>
        <time>2024-06-05T20:29:19+00:00</time>
      </trkpt>
      <trkpt lat="45.39761" lon="6.19992">
        <ele>2199</ele>
        <time>2024-06-05T20:29:22+00:00</time>
      </trkpt>
      <trkpt lat="45.39772" lon="6.19999">
        <ele>2192</ele>
        <time>2024-06-05T20:29:25+00:00</time>
      </trkpt>
      <trkpt lat="45.39776" lon="6.20004">
        <ele>2196</ele>
        <time>2024-06-05T20:29:28+00:00</time>
      </trkpt>
      <trkpt lat="45.39788" lon="6.20009">
        <ele>2189</ele>
        <time>2024-06-05T20:29:31+00:00</time>
      </trkpt>
      <trkpt lat="45.39796" lon="6.20016">
        <ele>2194</ele>
        <time>2024-06-05T20:29:34+00:00</time>
      </trkpt>
      <trkpt lat="45.39802" lon="6.20021">
        <ele>2194</ele>
        <time>2024-06-05T20:29:37+00:00</time>
      </trkpt>
      <trkpt lat="45.39806" lon="6.20028">
        <ele>2194</ele>
        <time>2024-06-05T20:29:40+00:00</time>
      </trkpt>
      <trkpt lat="45.39817" lon="6.20034">
        <ele>2190</ele>
        <time>2024-06-05T20:29:43+00:00</time>
      </trkpt>
      <trkpt lat="45.39821" lon="6.20037">
        <ele>2191</ele>
        <time>2024-06-05T20:29:46+00:00</time>
      </trkpt>
      <trkpt lat="45.39824" lon="6.20042">
        <ele>2185</ele>
        <time>2024-06-05T20:29:49+00:00</time>
      </trkpt>
      <trkpt lat="45.39825" lon="6.20046">
        <ele>2185</ele>
        <time>2024-06-05T20:29:52+00:00</time>
      </trkpt>
      <trkpt lat="45.39827" lon="6.20048">
        <ele>2185</ele>
        <time>2024-06-05T20:29:55+00:00</time>
      </trkpt>
      <trkpt lat="45.39831" lon="6.20046">
        <ele>2179</ele>
        <time>2024-06-05T20:29:58+00:00</time>
      </trkpt>
      <trkpt lat="45.39836" lon="6.20043">
        <ele>2179</ele>
        <time>2024-06-05T20:30:01+00:00</time>
      </trkpt>
      <trkpt lat="45.39839" lon="6.20043">
        <ele>2179</ele>
        <time>2024-06-05T20:30:04+00:00</time>
      </trkpt>
      <trkpt lat="45.39844" lon="6.20041">
        <ele>2173</ele>
        <time>2024-06-05T20:30:07+00:00</time>
      </trkpt>
      <trkpt lat="45.39847" lon="6.20041">
        <ele>2173</ele>
        <time>2024-06-05T20:30:10+00:00</time>
      </trkpt>
      <trkpt lat="45.39853" lon="6.20041">
        <ele>2167</ele>
        <time>2024-06-05T20:30:13+00:00</time>
      </trkpt>
      <trkpt lat="45.39857" lon="6.20041">
        <ele>2167</ele>
        <time>2024-06-05T20:30:16+00:00</time>
      </trkpt>
      <trkpt lat="45.39862" lon="6.20042">
        <ele>2162</ele>
        <time>2024-06-05T20:30:19+00:00</time>
      </trkpt>
      <trkpt lat="45.39869" lon="6.2004">
        <ele>2168</ele>
        <time>2024-06-05T20:30:22+00:00</time>
      </trkpt>
      <trkpt lat="45.39872" lon="6.20037">
        <ele>2164</ele>
        <time>2024-06-05T20:30:25+00:00</time>
      </trkpt>
      <trkpt lat="45.39875" lon="6.20034">
        <ele>2166</ele>
        <time>2024-06-05T20:30:28+00:00</time>
      </trkpt>
      <trkpt lat="45.39879" lon="6.20032">
        <ele>2164</ele>
        <time>2024-06-05T20:30:31+00:00</time>
      </trkpt>
      <trkpt lat="45.39881" lon="6.20031">
        <ele>2162</ele>
        <time>2024-06-05T20:30:34+00:00</time>
      </trkpt>
      <trkpt lat="45.39885" lon="6.2003">
        <ele>2162</ele>
        <time>2024-06-05T20:30:37+00:00</time>
      </trkpt>
      <trkpt lat="45.39891" lon="6.2003">
        <ele>2166</ele>
        <time>2024-06-05T20:30:40+00:00</time>
      </trkpt>
      <trkpt lat="45.39893" lon="6.2003">
        <ele>2166</ele>
        <time>2024-06-05T20:30:43+00:00</time>
      </trkpt>
      <trkpt lat="45.39896" lon="6.20028">
        <ele>2166</ele>
        <time>2024-06-05T20:30:46+00:00</time>
      </trkpt>
      <trkpt lat="45.39899" lon="6.20026">
        <ele>2166</ele>
        <time>2024-06-05T20:30:49+00:00</time>
      </trkpt>
      <trkpt lat="45.39903" lon="6.20025">
        <ele>2165</ele>
        <time>2024-06-05T20:30:52+00:00</time>
      </trkpt>
      <trkpt lat="45.39908" lon="6.20024">
        <ele>2165</ele>
        <time>2024-06-05T20:30:55+00:00</time>
      </trkpt>
      <trkpt lat="45.39912" lon="6.20022">
        <ele>2166</ele>
        <time>2024-06-05T20:30:58+00:00</time>
      </trkpt>
      <trkpt lat="45.39915" lon="6.2002">
        <ele>2167</ele>
        <time>2024-06-05T20:31:01+00:00</time>
      </trkpt>
      <trkpt lat="45.39922" lon="6.20019">
        <ele>2175</ele>
        <time>2024-06-05T20:31:04+00:00</time>
      </trkpt>
      <trkpt lat="45.39932" lon="6.2002">
        <ele>2176</ele>
        <time>2024-06-05T20:31:07+00:00</time>
      </trkpt>
      <trkpt lat="45.39939" lon="6.20021">
        <ele>2169</ele>
        <time>2024-06-05T20:31:10+00:00</time>
      </trkpt>
      <trkpt lat="45.39945" lon="6.20024">
        <ele>2171</ele>
        <time>2024-06-05T20:31:13+00:00</time>
      </trkpt>
      <trkpt lat="45.39947" lon="6.20025">
        <ele>2171</ele>
        <time>2024-06-05T20:31:16+00:00</time>
      </trkpt>
      <trkpt lat="45.39948" lon="6.20024">
        <ele>2171</ele>
        <time>2024-06-05T20:31:19+00:00</time>
      </trkpt>
      <trkpt lat="45.39952" lon="6.20028">
        <ele>2175</ele>
        <time>2024-06-05T20:31:22+00:00</time>
      </trkpt>
      <trkpt lat="45.39957" lon="6.20033">
        <ele>2167</ele>
        <time>2024-06-05T20:31:25+00:00</time>
      </trkpt>
      <trkpt lat="45.39958" lon="6.20037">
        <ele>2171</ele>
        <time>2024-06-05T20:31:28+00:00</time>
      </trkpt>
      <trkpt lat="45.39964" lon="6.20043">
        <ele>2170</ele>
        <time>2024-06-05T20:31:31+00:00</time>
      </trkpt>
      <trkpt lat="45.39965" lon="6.2005">
        <ele>2166</ele>
        <time>2024-06-05T20:31:34+00:00</time>
      </trkpt>
      <trkpt lat="45.39967" lon="6.20054">
        <ele>2166</ele>
        <time>2024-06-05T20:31:37+00:00</time>
      </trkpt>
      <trkpt lat="45.3997" lon="6.20058">
        <ele>2167</ele>
        <time>2024-06-05T20:31:40+00:00</time>
      </trkpt>
      <trkpt lat="45.39979" lon="6.20076">
        <ele>2165</ele>
        <time>2024-06-05T20:31:43+00:00</time>
      </trkpt>
      <trkpt lat="45.39983" lon="6.20085">
        <ele>2167</ele>
        <time>2024-06-05T20:31:46+00:00</time>
      </trkpt>
      <trkpt lat="45.39988" lon="6.20092">
        <ele>2164</ele>
        <time>2024-06-05T20:31:49+00:00</time>
      </trkpt>
      <trkpt lat="45.39996" lon="6.20099">
        <ele>2167</ele>
        <time>2024-06-05T20:31:52+00:00</time>
      </trkpt>
      <trkpt lat="45.39998" lon="6.20105">
        <ele>2163</ele>
        <time>2024-06-05T20:31:55+00:00</time>
      </trkpt>
      <trkpt lat="45.39997" lon="6.20113">
        <ele>2159</ele>
        <time>2024-06-05T20:31:58+00:00</time>
      </trkpt>
      <trkpt lat="45.39994" lon="6.2012">
        <ele>2158</ele>
        <time>2024-06-05T20:32:01+00:00</time>
      </trkpt>
      <trkpt lat="45.39993" lon="6.20125">
        <ele>2158</ele>
        <time>2024-06-05T20:32:04+00:00</time>
      </trkpt>
      <trkpt lat="45.39999" lon="6.20138">
        <ele>2155</ele>
        <time>2024-06-05T20:32:07+00:00</time>
      </trkpt>
      <trkpt lat="45.40002" lon="6.20148">
        <ele>2153</ele>
        <time>2024-06-05T20:32:10+00:00</time>
      </trkpt>
      <trkpt lat="45.40004" lon="6.20154">
        <ele>2152</ele>
        <time>2024-06-05T20:32:13+00:00</time>
      </trkpt>
      <trkpt lat="45.40001" lon="6.2016">
        <ele>2152</ele>
        <time>2024-06-05T20:32:16+00:00</time>
      </trkpt>
      <trkpt lat="45.39999" lon="6.20165">
        <ele>2150</ele>
        <time>2024-06-05T20:32:19+00:00</time>
      </trkpt>
      <trkpt lat="45.4" lon="6.20172">
        <ele>2147</ele>
        <time>2024-06-05T20:32:22+00:00</time>
      </trkpt>
      <trkpt lat="45.4" lon="6.20177">
        <ele>2147</ele>
        <time>2024-06-05T20:32:25+00:00</time>
      </trkpt>
      <trkpt lat="45.40005" lon="6.20184">
        <ele>2145</ele>
        <time>2024-06-05T20:32:28+00:00</time>
      </trkpt>
      <trkpt lat="45.40004" lon="6.20192">
        <ele>2144</ele>
        <time>2024-06-05T20:32:31+00:00</time>
      </trkpt>
      <trkpt lat="45.39998" lon="6.20196">
        <ele>2141</ele>
        <time>2024-06-05T20:32:34+00:00</time>
      </trkpt>
      <trkpt lat="45.39991" lon="6.20198">
        <ele>2141</ele>
        <time>2024-06-05T20:32:37+00:00</time>
      </trkpt>
      <trkpt lat="45.39986" lon="6.20199">
        <ele>2139</ele>
        <time>2024-06-05T20:32:40+00:00</time>
      </trkpt>
      <trkpt lat="45.39983" lon="6.20199">
        <ele>2139</ele>
        <time>2024-06-05T20:32:43+00:00</time>
      </trkpt>
      <trkpt lat="45.39979" lon="6.20207">
        <ele>2131</ele>
        <time>2024-06-05T20:32:46+00:00</time>
      </trkpt>
      <trkpt lat="45.39976" lon="6.20213">
        <ele>2130</ele>
        <time>2024-06-05T20:32:49+00:00</time>
      </trkpt>
      <trkpt lat="45.39975" lon="6.2022">
        <ele>2130</ele>
        <time>2024-06-05T20:32:52+00:00</time>
      </trkpt>
      <trkpt lat="45.39975" lon="6.2023">
        <ele>2130</ele>
        <time>2024-06-05T20:32:55+00:00</time>
      </trkpt>
      <trkpt lat="45.39974" lon="6.20235">
        <ele>2128</ele>
        <time>2024-06-05T20:32:58+00:00</time>
      </trkpt>
      <trkpt lat="45.39974" lon="6.20242">
        <ele>2126</ele>
        <time>2024-06-05T20:33:01+00:00</time>
      </trkpt>
      <trkpt lat="45.39974" lon="6.20246">
        <ele>2126</ele>
        <time>2024-06-05T20:33:04+00:00</time>
      </trkpt>
      <trkpt lat="45.39973" lon="6.20248">
        <ele>2126</ele>
        <time>2024-06-05T20:33:07+00:00</time>
      </trkpt>
      <trkpt lat="45.39972" lon="6.20252">
        <ele>2123</ele>
        <time>2024-06-05T20:33:10+00:00</time>
      </trkpt>
      <trkpt lat="45.39971" lon="6.20254">
        <ele>2123</ele>
        <time>2024-06-05T20:33:13+00:00</time>
      </trkpt>
      <trkpt lat="45.3997" lon="6.20256">
        <ele>2120</ele>
        <time>2024-06-05T20:33:16+00:00</time>
      </trkpt>
      <trkpt lat="45.39968" lon="6.20259">
        <ele>2120</ele>
        <time>2024-06-05T20:33:19+00:00</time>
      </trkpt>
      <trkpt lat="45.39968" lon="6.20263">
        <ele>2116</ele>
        <time>2024-06-05T20:33:22+00:00</time>
      </trkpt>
      <trkpt lat="45.39968" lon="6.20268">
        <ele>2116</ele>
        <time>2024-06-05T20:33:25+00:00</time>
      </trkpt>
      <trkpt lat="45.39967" lon="6.2027">
        <ele>2116</ele>
        <time>2024-06-05T20:33:28+00:00</time>
      </trkpt>
      <trkpt lat="45.39966" lon="6.2027">
        <ele>2116</ele>
        <time>2024-06-05T20:33:31+00:00</time>
      </trkpt>
      <trkpt lat="45.39964" lon="6.20269">
        <ele>2116</ele>
        <time>2024-06-05T20:33:34+00:00</time>
      </trkpt>
      <trkpt lat="45.39962" lon="6.20267">
        <ele>2116</ele>
        <time>2024-06-05T20:33:37+00:00</time>
      </trkpt>
      <trkpt lat="45.39961" lon="6.20266">
        <ele>2116</ele>
        <time>2024-06-05T20:33:40+00:00</time>
      </trkpt>
      <trkpt lat="45.39959" lon="6.20267">
        <ele>2113</ele>
        <time>2024-06-05T20:33:43+00:00</time>
      </trkpt>
      <trkpt lat="45.39958" lon="6.2027">
        <ele>2113</ele>
        <time>2024-06-05T20:33:46+00:00</time>
      </trkpt>
      <trkpt lat="45.39957" lon="6.20274">
        <ele>2112</ele>
        <time>2024-06-05T20:33:49+00:00</time>
      </trkpt>
      <trkpt lat="45.39954" lon="6.20276">
        <ele>2112</ele>
        <time>2024-06-05T20:33:52+00:00</time>
      </trkpt>
      <trkpt lat="45.39952" lon="6.20276">
        <ele>2112</ele>
        <time>2024-06-05T20:33:55+00:00</time>
      </trkpt>
      <trkpt lat="45.39952" lon="6.20279">
        <ele>2112</ele>
        <time>2024-06-05T20:33:58+00:00</time>
      </trkpt>
      <trkpt lat="45.3995" lon="6.20283">
        <ele>2110</ele>
        <time>2024-06-05T20:34:01+00:00</time>
      </trkpt>
      <trkpt lat="45.39949" lon="6.20285">
        <ele>2104</ele>
        <time>2024-06-05T20:34:04+00:00</time>
      </trkpt>
      <trkpt lat="45.39947" lon="6.20288">
        <ele>2104</ele>
        <time>2024-06-05T20:34:07+00:00</time>
      </trkpt>
      <trkpt lat="45.39943" lon="6.20289">
        <ele>2109</ele>
        <time>2024-06-05T20:34:10+00:00</time>
      </trkpt>
      <trkpt lat="45.39941" lon="6.20288">
        <ele>2104</ele>
        <time>2024-06-05T20:34:13+00:00</time>
      </trkpt>
      <trkpt lat="45.39939" lon="6.20288">
        <ele>2103</ele>
        <time>2024-06-05T20:34:16+00:00</time>
      </trkpt>
      <trkpt lat="45.39937" lon="6.2029">
        <ele>2103</ele>
        <time>2024-06-05T20:34:19+00:00</time>
      </trkpt>
      <trkpt lat="45.39936" lon="6.20293">
        <ele>2104</ele>
        <time>2024-06-05T20:34:22+00:00</time>
      </trkpt>
      <trkpt lat="45.39936" lon="6.20298">
        <ele>2104</ele>
        <time>2024-06-05T20:34:25+00:00</time>
      </trkpt>
      <trkpt lat="45.39936" lon="6.20303">
        <ele>2105</ele>
        <time>2024-06-05T20:34:28+00:00</time>
      </trkpt>
      <trkpt lat="45.39937" lon="6.20306">
        <ele>2105</ele>
        <time>2024-06-05T20:34:31+00:00</time>
      </trkpt>
      <trkpt lat="45.39937" lon="6.20308">
        <ele>2105</ele>
        <time>2024-06-05T20:34:34+00:00</time>
      </trkpt>
      <trkpt lat="45.39936" lon="6.20309">
        <ele>2105</ele>
        <time>2024-06-05T20:34:37+00:00</time>
      </trkpt>
      <trkpt lat="45.39934" lon="6.2031">
        <ele>2105</ele>
        <time>2024-06-05T20:34:40+00:00</time>
      </trkpt>
      <trkpt lat="45.39934" lon="6.20314">
        <ele>2105</ele>
        <time>2024-06-05T20:34:43+00:00</time>
      </trkpt>
      <trkpt lat="45.39932" lon="6.20317">
        <ele>2105</ele>
        <time>2024-06-05T20:34:46+00:00</time>
      </trkpt>
      <trkpt lat="45.39929" lon="6.20319">
        <ele>2105</ele>
        <time>2024-06-05T20:34:49+00:00</time>
      </trkpt>
      <trkpt lat="45.39925" lon="6.20321">
        <ele>2104</ele>
        <time>2024-06-05T20:34:52+00:00</time>
      </trkpt>
      <trkpt lat="45.3992" lon="6.20324">
        <ele>2102</ele>
        <time>2024-06-05T20:34:55+00:00</time>
      </trkpt>
      <trkpt lat="45.39915" lon="6.20326">
        <ele>2102</ele>
        <time>2024-06-05T20:34:58+00:00</time>
      </trkpt>
      <trkpt lat="45.3991" lon="6.20327">
        <ele>2102</ele>
        <time>2024-06-05T20:35:01+00:00</time>
      </trkpt>
      <trkpt lat="45.39905" lon="6.20327">
        <ele>2102</ele>
        <time>2024-06-05T20:35:04+00:00</time>
      </trkpt>
      <trkpt lat="45.39903" lon="6.20328">
        <ele>2102</ele>
        <time>2024-06-05T20:35:07+00:00</time>
      </trkpt>
      <trkpt lat="45.39901" lon="6.20332">
        <ele>2101</ele>
        <time>2024-06-05T20:35:10+00:00</time>
      </trkpt>
      <trkpt lat="45.39901" lon="6.20332">
        <ele>2101</ele>
        <time>2024-06-05T20:35:13+00:00</time>
      </trkpt>
      <trkpt lat="45.39901" lon="6.20332">
        <ele>2101</ele>
        <time>2024-06-05T20:35:16+00:00</time>
      </trkpt>
      <trkpt lat="45.39901" lon="6.20332">
        <ele>2101</ele>
        <time>2024-06-05T20:35:19+00:00</time>
      </trkpt>
      <trkpt lat="45.39901" lon="6.20332">
        <ele>2101</ele>
        <time>2024-06-05T20:35:22+00:00</time>
      </trkpt>
      <trkpt lat="45.39899" lon="6.20334">
        <ele>2098</ele>
        <time>2024-06-05T20:35:25+00:00</time>
      </trkpt>
      <trkpt lat="45.39897" lon="6.20335">
        <ele>2098</ele>
        <time>2024-06-05T20:35:28+00:00</time>
      </trkpt>
      <trkpt lat="45.39895" lon="6.20334">
        <ele>2098</ele>
        <time>2024-06-05T20:35:31+00:00</time>
      </trkpt>
      <trkpt lat="45.39892" lon="6.20334">
        <ele>2098</ele>
        <time>2024-06-05T20:35:34+00:00</time>
      </trkpt>
      <trkpt lat="45.39889" lon="6.20331">
        <ele>2097</ele>
        <time>2024-06-05T20:35:37+00:00</time>
      </trkpt>
      <trkpt lat="45.39885" lon="6.20329">
        <ele>2097</ele>
        <time>2024-06-05T20:35:40+00:00</time>
      </trkpt>
      <trkpt lat="45.39881" lon="6.20326">
        <ele>2097</ele>
        <time>2024-06-05T20:35:43+00:00</time>
      </trkpt>
      <trkpt lat="45.39876" lon="6.20323">
        <ele>2095</ele>
        <time>2024-06-05T20:35:46+00:00</time>
      </trkpt>
      <trkpt lat="45.39874" lon="6.20319">
        <ele>2097</ele>
        <time>2024-06-05T20:35:49+00:00</time>
      </trkpt>
      <trkpt lat="45.39868" lon="6.20318">
        <ele>2096</ele>
        <time>2024-06-05T20:35:52+00:00</time>
      </trkpt>
      <trkpt lat="45.39863" lon="6.20316">
        <ele>2096</ele>
        <time>2024-06-05T20:35:55+00:00</time>
      </trkpt>
      <trkpt lat="45.39859" lon="6.20317">
        <ele>2093</ele>
        <time>2024-06-05T20:35:58+00:00</time>
      </trkpt>
      <trkpt lat="45.39855" lon="6.20322">
        <ele>2095</ele>
        <time>2024-06-05T20:36:01+00:00</time>
      </trkpt>
      <trkpt lat="45.39854" lon="6.20325">
        <ele>2095</ele>
        <time>2024-06-05T20:36:04+00:00</time>
      </trkpt>
      <trkpt lat="45.39851" lon="6.20325">
        <ele>2095</ele>
        <time>2024-06-05T20:36:07+00:00</time>
      </trkpt>
      <trkpt lat="45.39849" lon="6.20324">
        <ele>2093</ele>
        <time>2024-06-05T20:36:10+00:00</time>
      </trkpt>
      <trkpt lat="45.39848" lon="6.20326">
        <ele>2093</ele>
        <time>2024-06-05T20:36:13+00:00</time>
      </trkpt>
      <trkpt lat="45.39845" lon="6.20328">
        <ele>2093</ele>
        <time>2024-06-05T20:36:16+00:00</time>
      </trkpt>
      <trkpt lat="45.39844" lon="6.2033">
        <ele>2093</ele>
        <time>2024-06-05T20:36:19+00:00</time>
      </trkpt>
      <trkpt lat="45.39846" lon="6.20337">
        <ele>2091</ele>
        <time>2024-06-05T20:36:22+00:00</time>
      </trkpt>
      <trkpt lat="45.39846" lon="6.2034">
        <ele>2089</ele>
        <time>2024-06-05T20:36:25+00:00</time>
      </trkpt>
      <trkpt lat="45.39843" lon="6.20347">
        <ele>2089</ele>
        <time>2024-06-05T20:36:28+00:00</time>
      </trkpt>
      <trkpt lat="45.39845" lon="6.20353">
        <ele>2091</ele>
        <time>2024-06-05T20:36:31+00:00</time>
      </trkpt>
      <trkpt lat="45.39843" lon="6.20356">
        <ele>2087</ele>
        <time>2024-06-05T20:36:34+00:00</time>
      </trkpt>
      <trkpt lat="45.39843" lon="6.20363">
        <ele>2086</ele>
        <time>2024-06-05T20:36:37+00:00</time>
      </trkpt>
      <trkpt lat="45.39845" lon="6.20369">
        <ele>2086</ele>
        <time>2024-06-05T20:36:40+00:00</time>
      </trkpt>
      <trkpt lat="45.39845" lon="6.20373">
        <ele>2087</ele>
        <time>2024-06-05T20:36:43+00:00</time>
      </trkpt>
      <trkpt lat="45.39846" lon="6.20378">
        <ele>2087</ele>
        <time>2024-06-05T20:36:46+00:00</time>
      </trkpt>
      <trkpt lat="45.39844" lon="6.20382">
        <ele>2089</ele>
        <time>2024-06-05T20:36:49+00:00</time>
      </trkpt>
      <trkpt lat="45.39843" lon="6.20387">
        <ele>2089</ele>
        <time>2024-06-05T20:36:52+00:00</time>
      </trkpt>
      <trkpt lat="45.39845" lon="6.20393">
        <ele>2091</ele>
        <time>2024-06-05T20:36:55+00:00</time>
      </trkpt>
      <trkpt lat="45.39847" lon="6.20405">
        <ele>2092</ele>
        <time>2024-06-05T20:36:58+00:00</time>
      </trkpt>
      <trkpt lat="45.39851" lon="6.20416">
        <ele>2089</ele>
        <time>2024-06-05T20:37:01+00:00</time>
      </trkpt>
      <trkpt lat="45.39858" lon="6.20426">
        <ele>2090</ele>
        <time>2024-06-05T20:37:04+00:00</time>
      </trkpt>
      <trkpt lat="45.39862" lon="6.20434">
        <ele>2085</ele>
        <time>2024-06-05T20:37:07+00:00</time>
      </trkpt>
      <trkpt lat="45.39866" lon="6.20441">
        <ele>2087</ele>
        <time>2024-06-05T20:37:10+00:00</time>
      </trkpt>
      <trkpt lat="45.3987" lon="6.20445">
        <ele>2082</ele>
        <time>2024-06-05T20:37:13+00:00</time>
      </trkpt>
      <trkpt lat="45.39873" lon="6.20448">
        <ele>2082</ele>
        <time>2024-06-05T20:37:16+00:00</time>
      </trkpt>
      <trkpt lat="45.39877" lon="6.20454">
        <ele>2086</ele>
        <time>2024-06-05T20:37:19+00:00</time>
      </trkpt>
      <trkpt lat="45.39877" lon="6.2045">
        <ele>2082</ele>
        <time>2024-06-05T20:37:22+00:00</time>
      </trkpt>
      <trkpt lat="45.3988" lon="6.20453">
        <ele>2079</ele>
        <time>2024-06-05T20:37:25+00:00</time>
      </trkpt>
      <trkpt lat="45.39883" lon="6.20453">
        <ele>2079</ele>
        <time>2024-06-05T20:37:28+00:00</time>
      </trkpt>
      <trkpt lat="45.39887" lon="6.20458">
        <ele>2079</ele>
        <time>2024-06-05T20:37:31+00:00</time>
      </trkpt>
      <trkpt lat="45.39891" lon="6.20465">
        <ele>2073</ele>
        <time>2024-06-05T20:37:34+00:00</time>
      </trkpt>
      <trkpt lat="45.39895" lon="6.20469">
        <ele>2073</ele>
        <time>2024-06-05T20:37:37+00:00</time>
      </trkpt>
      <trkpt lat="45.39899" lon="6.20477">
        <ele>2074</ele>
        <time>2024-06-05T20:37:40+00:00</time>
      </trkpt>
      <trkpt lat="45.39901" lon="6.2048">
        <ele>2070</ele>
        <time>2024-06-05T20:37:43+00:00</time>
      </trkpt>
      <trkpt lat="45.39903" lon="6.20485">
        <ele>2070</ele>
        <time>2024-06-05T20:37:46+00:00</time>
      </trkpt>
      <trkpt lat="45.39906" lon="6.20487">
        <ele>2070</ele>
        <time>2024-06-05T20:37:49+00:00</time>
      </trkpt>
      <trkpt lat="45.39908" lon="6.20492">
        <ele>2071</ele>
        <time>2024-06-05T20:37:52+00:00</time>
      </trkpt>
      <trkpt lat="45.3991" lon="6.20496">
        <ele>2065</ele>
        <time>2024-06-05T20:37:55+00:00</time>
      </trkpt>
      <trkpt lat="45.39914" lon="6.20502">
        <ele>2067</ele>
        <time>2024-06-05T20:37:58+00:00</time>
      </trkpt>
      <trkpt lat="45.39917" lon="6.20508">
        <ele>2067</ele>
        <time>2024-06-05T20:38:01+00:00</time>
      </trkpt>
      <trkpt lat="45.39919" lon="6.20511">
        <ele>2067</ele>
        <time>2024-06-05T20:38:04+00:00</time>
      </trkpt>
      <trkpt lat="45.39921" lon="6.20516">
        <ele>2059</ele>
        <time>2024-06-05T20:38:07+00:00</time>
      </trkpt>
      <trkpt lat="45.39924" lon="6.20519">
        <ele>2059</ele>
        <time>2024-06-05T20:38:10+00:00</time>
      </trkpt>
      <trkpt lat="45.39925" lon="6.20517">
        <ele>2059</ele>
        <time>2024-06-05T20:38:13+00:00</time>
      </trkpt>
      <trkpt lat="45.39926" lon="6.20514">
        <ele>2059</ele>
        <time>2024-06-05T20:38:16+00:00</time>
      </trkpt>
      <trkpt lat="45.39927" lon="6.2051">
        <ele>2058</ele>
        <time>2024-06-05T20:38:19+00:00</time>
      </trkpt>
      <trkpt lat="45.39927" lon="6.20504">
        <ele>2058</ele>
        <time>2024-06-05T20:38:22+00:00</time>
      </trkpt>
      <trkpt lat="45.39928" lon="6.20499">
        <ele>2057</ele>
        <time>2024-06-05T20:38:25+00:00</time>
      </trkpt>
      <trkpt lat="45.39929" lon="6.20498">
        <ele>2057</ele>
        <time>2024-06-05T20:38:28+00:00</time>
      </trkpt>
      <trkpt lat="45.39931" lon="6.20498">
        <ele>2052</ele>
        <time>2024-06-05T20:38:31+00:00</time>
      </trkpt>
      <trkpt lat="45.39934" lon="6.205">
        <ele>2053</ele>
        <time>2024-06-05T20:38:34+00:00</time>
      </trkpt>
      <trkpt lat="45.39937" lon="6.20507">
        <ele>2053</ele>
        <time>2024-06-05T20:38:37+00:00</time>
      </trkpt>
      <trkpt lat="45.3994" lon="6.20511">
        <ele>2049</ele>
        <time>2024-06-05T20:38:40+00:00</time>
      </trkpt>
      <trkpt lat="45.39944" lon="6.20515">
        <ele>2049</ele>
        <time>2024-06-05T20:38:43+00:00</time>
      </trkpt>
      <trkpt lat="45.39948" lon="6.20519">
        <ele>2049</ele>
        <time>2024-06-05T20:38:46+00:00</time>
      </trkpt>
      <trkpt lat="45.39951" lon="6.20522">
        <ele>2043</ele>
        <time>2024-06-05T20:38:49+00:00</time>
      </trkpt>
      <trkpt lat="45.39953" lon="6.20523">
        <ele>2043</ele>
        <time>2024-06-05T20:38:52+00:00</time>
      </trkpt>
      <trkpt lat="45.39954" lon="6.20527">
        <ele>2043</ele>
        <time>2024-06-05T20:38:55+00:00</time>
      </trkpt>
      <trkpt lat="45.39957" lon="6.20532">
        <ele>2042</ele>
        <time>2024-06-05T20:38:58+00:00</time>
      </trkpt>
      <trkpt lat="45.39957" lon="6.20535">
        <ele>2042</ele>
        <time>2024-06-05T20:39:01+00:00</time>
      </trkpt>
      <trkpt lat="45.39958" lon="6.20539">
        <ele>2042</ele>
        <time>2024-06-05T20:39:04+00:00</time>
      </trkpt>
      <trkpt lat="45.39961" lon="6.20543">
        <ele>2037</ele>
        <time>2024-06-05T20:39:07+00:00</time>
      </trkpt>
      <trkpt lat="45.39964" lon="6.20547">
        <ele>2037</ele>
        <time>2024-06-05T20:39:10+00:00</time>
      </trkpt>
      <trkpt lat="45.39968" lon="6.20552">
        <ele>2036</ele>
        <time>2024-06-05T20:39:13+00:00</time>
      </trkpt>
      <trkpt lat="45.39971" lon="6.20557">
        <ele>2033</ele>
        <time>2024-06-05T20:39:16+00:00</time>
      </trkpt>
      <trkpt lat="45.39974" lon="6.20562">
        <ele>2032</ele>
        <time>2024-06-05T20:39:19+00:00</time>
      </trkpt>
      <trkpt lat="45.39975" lon="6.20568">
        <ele>2032</ele>
        <time>2024-06-05T20:39:22+00:00</time>
      </trkpt>
      <trkpt lat="45.39975" lon="6.20572">
        <ele>2030</ele>
        <time>2024-06-05T20:39:25+00:00</time>
      </trkpt>
      <trkpt lat="45.39973" lon="6.20579">
        <ele>2030</ele>
        <time>2024-06-05T20:39:28+00:00</time>
      </trkpt>
      <trkpt lat="45.39972" lon="6.20584">
        <ele>2028</ele>
        <time>2024-06-05T20:39:31+00:00</time>
      </trkpt>
      <trkpt lat="45.39971" lon="6.2059">
        <ele>2028</ele>
        <time>2024-06-05T20:39:34+00:00</time>
      </trkpt>
      <trkpt lat="45.39971" lon="6.20596">
        <ele>2025</ele>
        <time>2024-06-05T20:39:37+00:00</time>
      </trkpt>
      <trkpt lat="45.39973" lon="6.20601">
        <ele>2022</ele>
        <time>2024-06-05T20:39:40+00:00</time>
      </trkpt>
      <trkpt lat="45.39974" lon="6.20604">
        <ele>2022</ele>
        <time>2024-06-05T20:39:43+00:00</time>
      </trkpt>
      <trkpt lat="45.39977" lon="6.20607">
        <ele>2022</ele>
        <time>2024-06-05T20:39:46+00:00</time>
      </trkpt>
      <trkpt lat="45.39978" lon="6.20612">
        <ele>2020</ele>
        <time>2024-06-05T20:39:49+00:00</time>
      </trkpt>
      <trkpt lat="45.39982" lon="6.20616">
        <ele>2015</ele>
        <time>2024-06-05T20:39:52+00:00</time>
      </trkpt>
      <trkpt lat="45.39984" lon="6.20619">
        <ele>2015</ele>
        <time>2024-06-05T20:39:55+00:00</time>
      </trkpt>
      <trkpt lat="45.39985" lon="6.20625">
        <ele>2014</ele>
        <time>2024-06-05T20:39:58+00:00</time>
      </trkpt>
      <trkpt lat="45.39988" lon="6.20625">
        <ele>2014</ele>
        <time>2024-06-05T20:40:01+00:00</time>
      </trkpt>
      <trkpt lat="45.39992" lon="6.20624">
        <ele>2010</ele>
        <time>2024-06-05T20:40:04+00:00</time>
      </trkpt>
      <trkpt lat="45.39995" lon="6.20623">
        <ele>2010</ele>
        <time>2024-06-05T20:40:07+00:00</time>
      </trkpt>
      <trkpt lat="45.40001" lon="6.20627">
        <ele>2007</ele>
        <time>2024-06-05T20:40:10+00:00</time>
      </trkpt>
      <trkpt lat="45.4001" lon="6.20631">
        <ele>2005</ele>
        <time>2024-06-05T20:40:13+00:00</time>
      </trkpt>
      <trkpt lat="45.40023" lon="6.20644">
        <ele>2000</ele>
        <time>2024-06-05T20:40:16+00:00</time>
      </trkpt>
      <trkpt lat="45.40036" lon="6.20651">
        <ele>1998</ele>
        <time>2024-06-05T20:40:19+00:00</time>
      </trkpt>
      <trkpt lat="45.4004" lon="6.20648">
        <ele>2003</ele>
        <time>2024-06-05T20:40:22+00:00</time>
      </trkpt>
      <trkpt lat="45.40043" lon="6.20649">
        <ele>2003</ele>
        <time>2024-06-05T20:40:25+00:00</time>
      </trkpt>
      <trkpt lat="45.40047" lon="6.20646">
        <ele>2003</ele>
        <time>2024-06-05T20:40:28+00:00</time>
      </trkpt>
      <trkpt lat="45.4005" lon="6.20641">
        <ele>2003</ele>
        <time>2024-06-05T20:40:31+00:00</time>
      </trkpt>
      <trkpt lat="45.40052" lon="6.20639">
        <ele>1998</ele>
        <time>2024-06-05T20:40:34+00:00</time>
      </trkpt>
      <trkpt lat="45.40053" lon="6.20639">
        <ele>1998</ele>
        <time>2024-06-05T20:40:37+00:00</time>
      </trkpt>
      <trkpt lat="45.40054" lon="6.20646">
        <ele>1998</ele>
        <time>2024-06-05T20:40:40+00:00</time>
      </trkpt>
      <trkpt lat="45.40055" lon="6.20655">
        <ele>1996</ele>
        <time>2024-06-05T20:40:43+00:00</time>
      </trkpt>
      <trkpt lat="45.40056" lon="6.20665">
        <ele>1993</ele>
        <time>2024-06-05T20:40:46+00:00</time>
      </trkpt>
      <trkpt lat="45.40058" lon="6.20677">
        <ele>1996</ele>
        <time>2024-06-05T20:40:49+00:00</time>
      </trkpt>
      <trkpt lat="45.40062" lon="6.2067">
        <ele>1992</ele>
        <time>2024-06-05T20:40:52+00:00</time>
      </trkpt>
      <trkpt lat="45.40064" lon="6.20666">
        <ele>1992</ele>
        <time>2024-06-05T20:40:55+00:00</time>
      </trkpt>
      <trkpt lat="45.40066" lon="6.20663">
        <ele>1992</ele>
        <time>2024-06-05T20:40:58+00:00</time>
      </trkpt>
      <trkpt lat="45.40068" lon="6.20659">
        <ele>1994</ele>
        <time>2024-06-05T20:41:01+00:00</time>
      </trkpt>
      <trkpt lat="45.40073" lon="6.20655">
        <ele>1998</ele>
        <time>2024-06-05T20:41:04+00:00</time>
      </trkpt>
      <trkpt lat="45.40078" lon="6.20655">
        <ele>1994</ele>
        <time>2024-06-05T20:41:07+00:00</time>
      </trkpt>
      <trkpt lat="45.40085" lon="6.20653">
        <ele>1999</ele>
        <time>2024-06-05T20:41:10+00:00</time>
      </trkpt>
      <trkpt lat="45.40091" lon="6.20652">
        <ele>2001</ele>
        <time>2024-06-05T20:41:13+00:00</time>
      </trkpt>
      <trkpt lat="45.40097" lon="6.20652">
        <ele>2001</ele>
        <time>2024-06-05T20:41:16+00:00</time>
      </trkpt>
      <trkpt lat="45.40105" lon="6.2065">
        <ele>2008</ele>
        <time>2024-06-05T20:41:19+00:00</time>
      </trkpt>
      <trkpt lat="45.40112" lon="6.20648">
        <ele>2010</ele>
        <time>2024-06-05T20:41:22+00:00</time>
      </trkpt>
      <trkpt lat="45.40122" lon="6.20648">
        <ele>2011</ele>
        <time>2024-06-05T20:41:25+00:00</time>
      </trkpt>
      <trkpt lat="45.40128" lon="6.20646">
        <ele>2011</ele>
        <time>2024-06-05T20:41:28+00:00</time>
      </trkpt>
      <trkpt lat="45.40135" lon="6.20644">
        <ele>2012</ele>
        <time>2024-06-05T20:41:31+00:00</time>
      </trkpt>
      <trkpt lat="45.40143" lon="6.20641">
        <ele>2011</ele>
        <time>2024-06-05T20:41:34+00:00</time>
      </trkpt>
      <trkpt lat="45.40148" lon="6.20642">
        <ele>2011</ele>
        <time>2024-06-05T20:41:37+00:00</time>
      </trkpt>
      <trkpt lat="45.40154" lon="6.20643">
        <ele>2012</ele>
        <time>2024-06-05T20:41:40+00:00</time>
      </trkpt>
      <trkpt lat="45.40163" lon="6.20642">
        <ele>2014</ele>
        <time>2024-06-05T20:41:43+00:00</time>
      </trkpt>
      <trkpt lat="45.40177" lon="6.2064">
        <ele>2021</ele>
        <time>2024-06-05T20:41:46+00:00</time>
      </trkpt>
      <trkpt lat="45.4019" lon="6.20637">
        <ele>2024</ele>
        <time>2024-06-05T20:41:49+00:00</time>
      </trkpt>
      <trkpt lat="45.40203" lon="6.20632">
        <ele>2025</ele>
        <time>2024-06-05T20:41:52+00:00</time>
      </trkpt>
      <trkpt lat="45.40211" lon="6.20626">
        <ele>2032</ele>
        <time>2024-06-05T20:41:55+00:00</time>
      </trkpt>
      <trkpt lat="45.4022" lon="6.20616">
        <ele>2036</ele>
        <time>2024-06-05T20:41:58+00:00</time>
      </trkpt>
      <trkpt lat="45.40226" lon="6.20609">
        <ele>2041</ele>
        <time>2024-06-05T20:42:01+00:00</time>
      </trkpt>
      <trkpt lat="45.40232" lon="6.20605">
        <ele>2038</ele>
        <time>2024-06-05T20:42:04+00:00</time>
      </trkpt>
      <trkpt lat="45.4024" lon="6.20592">
        <ele>2043</ele>
        <time>2024-06-05T20:42:07+00:00</time>
      </trkpt>
      <trkpt lat="45.40246" lon="6.20581">
        <ele>2048</ele>
        <time>2024-06-05T20:42:10+00:00</time>
      </trkpt>
      <trkpt lat="45.40248" lon="6.20577">
        <ele>2052</ele>
        <time>2024-06-05T20:42:13+00:00</time>
      </trkpt>
      <trkpt lat="45.40249" lon="6.20574">
        <ele>2052</ele>
        <time>2024-06-05T20:42:16+00:00</time>
      </trkpt>
      <trkpt lat="45.40252" lon="6.20572">
        <ele>2049</ele>
        <time>2024-06-05T20:42:19+00:00</time>
      </trkpt>
      <trkpt lat="45.40256" lon="6.20566">
        <ele>2056</ele>
        <time>2024-06-05T20:42:22+00:00</time>
      </trkpt>
      <trkpt lat="45.4026" lon="6.20561">
        <ele>2050</ele>
        <time>2024-06-05T20:42:25+00:00</time>
      </trkpt>
      <trkpt lat="45.40267" lon="6.20557">
        <ele>2059</ele>
        <time>2024-06-05T20:42:28+00:00</time>
      </trkpt>
      <trkpt lat="45.40269" lon="6.20557">
        <ele>2059</ele>
        <time>2024-06-05T20:42:31+00:00</time>
      </trkpt>
      <trkpt lat="45.40272" lon="6.20556">
        <ele>2058</ele>
        <time>2024-06-05T20:42:34+00:00</time>
      </trkpt>
      <trkpt lat="45.40278" lon="6.20558">
        <ele>2058</ele>
        <time>2024-06-05T20:42:37+00:00</time>
      </trkpt>
      <trkpt lat="45.40287" lon="6.20576">
        <ele>2053</ele>
        <time>2024-06-05T20:42:40+00:00</time>
      </trkpt>
      <trkpt lat="45.40291" lon="6.20586">
        <ele>2058</ele>
        <time>2024-06-05T20:42:43+00:00</time>
      </trkpt>
      <trkpt lat="45.40297" lon="6.20595">
        <ele>2056</ele>
        <time>2024-06-05T20:42:46+00:00</time>
      </trkpt>
      <trkpt lat="45.403" lon="6.20598">
        <ele>2053</ele>
        <time>2024-06-05T20:42:49+00:00</time>
      </trkpt>
      <trkpt lat="45.40303" lon="6.20599">
        <ele>2061</ele>
        <time>2024-06-05T20:42:52+00:00</time>
      </trkpt>
      <trkpt lat="45.40308" lon="6.20602">
        <ele>2056</ele>
        <time>2024-06-05T20:42:55+00:00</time>
      </trkpt>
      <trkpt lat="45.40312" lon="6.20609">
        <ele>2058</ele>
        <time>2024-06-05T20:42:58+00:00</time>
      </trkpt>
      <trkpt lat="45.40315" lon="6.20615">
        <ele>2054</ele>
        <time>2024-06-05T20:43:01+00:00</time>
      </trkpt>
      <trkpt lat="45.40331" lon="6.2063">
        <ele>2057</ele>
        <time>2024-06-05T20:43:04+00:00</time>
      </trkpt>
      <trkpt lat="45.40351" lon="6.2065">
        <ele>2057</ele>
        <time>2024-06-05T20:43:07+00:00</time>
      </trkpt>
      <trkpt lat="45.40363" lon="6.20659">
        <ele>2060</ele>
        <time>2024-06-05T20:43:10+00:00</time>
      </trkpt>
      <trkpt lat="45.40371" lon="6.20666">
        <ele>2057</ele>
        <time>2024-06-05T20:43:13+00:00</time>
      </trkpt>
      <trkpt lat="45.40372" lon="6.20668">
        <ele>2057</ele>
        <time>2024-06-05T20:43:16+00:00</time>
      </trkpt>
      <trkpt lat="45.40376" lon="6.20677">
        <ele>2054</ele>
        <time>2024-06-05T20:43:19+00:00</time>
      </trkpt>
      <trkpt lat="45.40377" lon="6.20683">
        <ele>2051</ele>
        <time>2024-06-05T20:43:22+00:00</time>
      </trkpt>
      <trkpt lat="45.40377" lon="6.20691">
        <ele>2056</ele>
        <time>2024-06-05T20:43:25+00:00</time>
      </trkpt>
      <trkpt lat="45.4038" lon="6.20702">
        <ele>2057</ele>
        <time>2024-06-05T20:43:28+00:00</time>
      </trkpt>
      <trkpt lat="45.40388" lon="6.20723">
        <ele>2057</ele>
        <time>2024-06-05T20:43:31+00:00</time>
      </trkpt>
      <trkpt lat="45.40393" lon="6.20734">
        <ele>2059</ele>
        <time>2024-06-05T20:43:34+00:00</time>
      </trkpt>
      <trkpt lat="45.40402" lon="6.20756">
        <ele>2056</ele>
        <time>2024-06-05T20:43:37+00:00</time>
      </trkpt>
      <trkpt lat="45.40406" lon="6.20759">
        <ele>2059</ele>
        <time>2024-06-05T20:43:40+00:00</time>
      </trkpt>
      <trkpt lat="45.40411" lon="6.2077">
        <ele>2063</ele>
        <time>2024-06-05T20:43:43+00:00</time>
      </trkpt>
      <trkpt lat="45.4042" lon="6.20784">
        <ele>2056</ele>
        <time>2024-06-05T20:43:46+00:00</time>
      </trkpt>
      <trkpt lat="45.40427" lon="6.20788">
        <ele>2060</ele>
        <time>2024-06-05T20:43:49+00:00</time>
      </trkpt>
      <trkpt lat="45.40436" lon="6.20793">
        <ele>2060</ele>
        <time>2024-06-05T20:43:52+00:00</time>
      </trkpt>
      <trkpt lat="45.4044" lon="6.20796">
        <ele>2056</ele>
        <time>2024-06-05T20:43:55+00:00</time>
      </trkpt>
      <trkpt lat="45.40444" lon="6.20805">
        <ele>2063</ele>
        <time>2024-06-05T20:43:58+00:00</time>
      </trkpt>
      <trkpt lat="45.40447" lon="6.20811">
        <ele>2059</ele>
        <time>2024-06-05T20:44:01+00:00</time>
      </trkpt>
      <trkpt lat="45.40448" lon="6.20818">
        <ele>2059</ele>
        <time>2024-06-05T20:44:04+00:00</time>
      </trkpt>
      <trkpt lat="45.40449" lon="6.20823">
        <ele>2056</ele>
        <time>2024-06-05T20:44:07+00:00</time>
      </trkpt>
      <trkpt lat="45.40449" lon="6.20825">
        <ele>2056</ele>
        <time>2024-06-05T20:44:10+00:00</time>
      </trkpt>
      <trkpt lat="45.40449" lon="6.20828">
        <ele>2056</ele>
        <time>2024-06-05T20:44:13+00:00</time>
      </trkpt>
      <trkpt lat="45.4045" lon="6.20832">
        <ele>2058</ele>
        <time>2024-06-05T20:44:16+00:00</time>
      </trkpt>
      <trkpt lat="45.40449" lon="6.20838">
        <ele>2053</ele>
        <time>2024-06-05T20:44:19+00:00</time>
      </trkpt>
      <trkpt lat="45.4045" lon="6.20844">
        <ele>2049</ele>
        <time>2024-06-05T20:44:22+00:00</time>
      </trkpt>
      <trkpt lat="45.40451" lon="6.20847">
        <ele>2054</ele>
        <time>2024-06-05T20:44:25+00:00</time>
      </trkpt>
      <trkpt lat="45.40452" lon="6.20851">
        <ele>2052</ele>
        <time>2024-06-05T20:44:28+00:00</time>
      </trkpt>
      <trkpt lat="45.40453" lon="6.20855">
        <ele>2052</ele>
        <time>2024-06-05T20:44:31+00:00</time>
      </trkpt>
      <trkpt lat="45.40454" lon="6.20857">
        <ele>2052</ele>
        <time>2024-06-05T20:44:34+00:00</time>
      </trkpt>
      <trkpt lat="45.40455" lon="6.20871">
        <ele>2049</ele>
        <time>2024-06-05T20:44:37+00:00</time>
      </trkpt>
      <trkpt lat="45.40458" lon="6.20883">
        <ele>2048</ele>
        <time>2024-06-05T20:44:40+00:00</time>
      </trkpt>
      <trkpt lat="45.40458" lon="6.2089">
        <ele>2046</ele>
        <time>2024-06-05T20:44:43+00:00</time>
      </trkpt>
      <trkpt lat="45.40459" lon="6.20896">
        <ele>2046</ele>
        <time>2024-06-05T20:44:46+00:00</time>
      </trkpt>
      <trkpt lat="45.4046" lon="6.20902">
        <ele>2048</ele>
        <time>2024-06-05T20:44:49+00:00</time>
      </trkpt>
      <trkpt lat="45.40461" lon="6.2092">
        <ele>2050</ele>
        <time>2024-06-05T20:44:52+00:00</time>
      </trkpt>
      <trkpt lat="45.40462" lon="6.20925">
        <ele>2048</ele>
        <time>2024-06-05T20:44:55+00:00</time>
      </trkpt>
      <trkpt lat="45.40463" lon="6.20928">
        <ele>2048</ele>
        <time>2024-06-05T20:44:58+00:00</time>
      </trkpt>
      <trkpt lat="45.40463" lon="6.20933">
        <ele>2051</ele>
        <time>2024-06-05T20:45:01+00:00</time>
      </trkpt>
      <trkpt lat="45.40464" lon="6.20937">
        <ele>2051</ele>
        <time>2024-06-05T20:45:04+00:00</time>
      </trkpt>
      <trkpt lat="45.40466" lon="6.20942">
        <ele>2052</ele>
        <time>2024-06-05T20:45:07+00:00</time>
      </trkpt>
      <trkpt lat="45.40469" lon="6.20945">
        <ele>2052</ele>
        <time>2024-06-05T20:45:10+00:00</time>
      </trkpt>
      <trkpt lat="45.40472" lon="6.20951">
        <ele>2062</ele>
        <time>2024-06-05T20:45:13+00:00</time>
      </trkpt>
      <trkpt lat="45.40473" lon="6.20955">
        <ele>2062</ele>
        <time>2024-06-05T20:45:16+00:00</time>
      </trkpt>
      <trkpt lat="45.40475" lon="6.20965">
        <ele>2063</ele>
        <time>2024-06-05T20:45:19+00:00</time>
      </trkpt>
      <trkpt lat="45.40476" lon="6.20968">
        <ele>2063</ele>
        <time>2024-06-05T20:45:22+00:00</time>
      </trkpt>
      <trkpt lat="45.40478" lon="6.20972">
        <ele>2063</ele>
        <time>2024-06-05T20:45:25+00:00</time>
      </trkpt>
      <trkpt lat="45.40481" lon="6.20977">
        <ele>2069</ele>
        <time>2024-06-05T20:45:28+00:00</time>
      </trkpt>
      <trkpt lat="45.40481" lon="6.20982">
        <ele>2068</ele>
        <time>2024-06-05T20:45:31+00:00</time>
      </trkpt>
      <trkpt lat="45.40485" lon="6.2099">
        <ele>2068</ele>
        <time>2024-06-05T20:45:34+00:00</time>
      </trkpt>
      <trkpt lat="45.40489" lon="6.20996">
        <ele>2061</ele>
        <time>2024-06-05T20:45:37+00:00</time>
      </trkpt>
      <trkpt lat="45.40492" lon="6.21002">
        <ele>2065</ele>
        <time>2024-06-05T20:45:40+00:00</time>
      </trkpt>
      <trkpt lat="45.40495" lon="6.21007">
        <ele>2065</ele>
        <time>2024-06-05T20:45:43+00:00</time>
      </trkpt>
      <trkpt lat="45.40496" lon="6.21012">
        <ele>2062</ele>
        <time>2024-06-05T20:45:46+00:00</time>
      </trkpt>
      <trkpt lat="45.40496" lon="6.21016">
        <ele>2062</ele>
        <time>2024-06-05T20:45:49+00:00</time>
      </trkpt>
      <trkpt lat="45.40496" lon="6.21024">
        <ele>2068</ele>
        <time>2024-06-05T20:45:52+00:00</time>
      </trkpt>
      <trkpt lat="45.40497" lon="6.21035">
        <ele>2061</ele>
        <time>2024-06-05T20:45:55+00:00</time>
      </trkpt>
      <trkpt lat="45.40499" lon="6.21042">
        <ele>2062</ele>
        <time>2024-06-05T20:45:58+00:00</time>
      </trkpt>
      <trkpt lat="45.405" lon="6.21045">
        <ele>2071</ele>
        <time>2024-06-05T20:46:01+00:00</time>
      </trkpt>
      <trkpt lat="45.40501" lon="6.21049">
        <ele>2071</ele>
        <time>2024-06-05T20:46:04+00:00</time>
      </trkpt>
      <trkpt lat="45.40514" lon="6.21068">
        <ele>2076</ele>
        <time>2024-06-05T20:46:07+00:00</time>
      </trkpt>
      <trkpt lat="45.40529" lon="6.21093">
        <ele>2082</ele>
        <time>2024-06-05T20:46:10+00:00</time>
      </trkpt>
      <trkpt lat="45.40546" lon="6.21121">
        <ele>2095</ele>
        <time>2024-06-05T20:46:13+00:00</time>
      </trkpt>
      <trkpt lat="45.40573" lon="6.21142">
        <ele>2116</ele>
        <time>2024-06-05T20:46:16+00:00</time>
      </trkpt>
      <trkpt lat="45.40575" lon="6.21147">
        <ele>2116</ele>
        <time>2024-06-05T20:46:19+00:00</time>
      </trkpt>
      <trkpt lat="45.40575" lon="6.2115">
        <ele>2118</ele>
        <time>2024-06-05T20:46:22+00:00</time>
      </trkpt>
      <trkpt lat="45.40574" lon="6.21156">
        <ele>2118</ele>
        <time>2024-06-05T20:46:25+00:00</time>
      </trkpt>
      <trkpt lat="45.40573" lon="6.21161">
        <ele>2121</ele>
        <time>2024-06-05T20:46:28+00:00</time>
      </trkpt>
      <trkpt lat="45.40573" lon="6.21164">
        <ele>2121</ele>
        <time>2024-06-05T20:46:31+00:00</time>
      </trkpt>
      <trkpt lat="45.40573" lon="6.2117">
        <ele>2121</ele>
        <time>2024-06-05T20:46:34+00:00</time>
      </trkpt>
      <trkpt lat="45.40571" lon="6.2118">
        <ele>2125</ele>
        <time>2024-06-05T20:46:37+00:00</time>
      </trkpt>
      <trkpt lat="45.40573" lon="6.21189">
        <ele>2128</ele>
        <time>2024-06-05T20:46:40+00:00</time>
      </trkpt>
      <trkpt lat="45.40574" lon="6.21199">
        <ele>2131</ele>
        <time>2024-06-05T20:46:43+00:00</time>
      </trkpt>
      <trkpt lat="45.40575" lon="6.21206">
        <ele>2136</ele>
        <time>2024-06-05T20:46:46+00:00</time>
      </trkpt>
      <trkpt lat="45.40576" lon="6.21209">
        <ele>2136</ele>
        <time>2024-06-05T20:46:49+00:00</time>
      </trkpt>
      <trkpt lat="45.40577" lon="6.2121">
        <ele>2136</ele>
        <time>2024-06-05T20:46:52+00:00</time>
      </trkpt>
      <trkpt lat="45.40577" lon="6.21211">
        <ele>2140</ele>
        <time>2024-06-05T20:46:55+00:00</time>
      </trkpt>
      <trkpt lat="45.40578" lon="6.21212">
        <ele>2140</ele>
        <time>2024-06-05T20:46:58+00:00</time>
      </trkpt>
      <trkpt lat="45.4058" lon="6.21213">
        <ele>2141</ele>
        <time>2024-06-05T20:47:01+00:00</time>
      </trkpt>
      <trkpt lat="45.40582" lon="6.21213">
        <ele>2141</ele>
        <time>2024-06-05T20:47:04+00:00</time>
      </trkpt>
      <trkpt lat="45.40582" lon="6.21216">
        <ele>2141</ele>
        <time>2024-06-05T20:47:07+00:00</time>
      </trkpt>
      <trkpt lat="45.40583" lon="6.21216">
        <ele>2141</ele>
        <time>2024-06-05T20:47:10+00:00</time>
      </trkpt>
      <trkpt lat="45.40584" lon="6.21217">
        <ele>2141</ele>
        <time>2024-06-05T20:47:13+00:00</time>
      </trkpt>
      <trkpt lat="45.40583" lon="6.21218">
        <ele>2133</ele>
        <time>2024-06-05T20:47:16+00:00</time>
      </trkpt>
      <trkpt lat="45.40583" lon="6.2122">
        <ele>2141</ele>
        <time>2024-06-05T20:47:19+00:00</time>
      </trkpt>
      <trkpt lat="45.40583" lon="6.21221">
        <ele>2140</ele>
        <time>2024-06-05T20:47:22+00:00</time>
      </trkpt>
      <trkpt lat="45.40586" lon="6.21221">
        <ele>2140</ele>
        <time>2024-06-05T20:47:25+00:00</time>
      </trkpt>
      <trkpt lat="45.40591" lon="6.21223">
        <ele>2137</ele>
        <time>2024-06-05T20:47:28+00:00</time>
      </trkpt>
      <trkpt lat="45.40593" lon="6.21224">
        <ele>2137</ele>
        <time>2024-06-05T20:47:31+00:00</time>
      </trkpt>
      <trkpt lat="45.40598" lon="6.21226">
        <ele>2137</ele>
        <time>2024-06-05T20:47:34+00:00</time>
      </trkpt>
      <trkpt lat="45.40603" lon="6.21226">
        <ele>2127</ele>
        <time>2024-06-05T20:47:37+00:00</time>
      </trkpt>
      <trkpt lat="45.40604" lon="6.21226">
        <ele>2136</ele>
        <time>2024-06-05T20:47:40+00:00</time>
      </trkpt>
      <trkpt lat="45.40609" lon="6.21232">
        <ele>2128</ele>
        <time>2024-06-05T20:47:43+00:00</time>
      </trkpt>
      <trkpt lat="45.40614" lon="6.21236">
        <ele>2126</ele>
        <time>2024-06-05T20:47:46+00:00</time>
      </trkpt>
      <trkpt lat="45.40619" lon="6.21238">
        <ele>2126</ele>
        <time>2024-06-05T20:47:49+00:00</time>
      </trkpt>
      <trkpt lat="45.40618" lon="6.21239">
        <ele>2126</ele>
        <time>2024-06-05T20:47:52+00:00</time>
      </trkpt>
      <trkpt lat="45.40617" lon="6.21241">
        <ele>2122</ele>
        <time>2024-06-05T20:47:55+00:00</time>
      </trkpt>
      <trkpt lat="45.40615" lon="6.21243">
        <ele>2122</ele>
        <time>2024-06-05T20:47:58+00:00</time>
      </trkpt>
      <trkpt lat="45.40613" lon="6.21246">
        <ele>2122</ele>
        <time>2024-06-05T20:48:01+00:00</time>
      </trkpt>
      <trkpt lat="45.40612" lon="6.21249">
        <ele>2122</ele>
        <time>2024-06-05T20:48:04+00:00</time>
      </trkpt>
      <trkpt lat="45.40613" lon="6.2125">
        <ele>2118</ele>
        <time>2024-06-05T20:48:07+00:00</time>
      </trkpt>
      <trkpt lat="45.40615" lon="6.21251">
        <ele>2118</ele>
        <time>2024-06-05T20:48:10+00:00</time>
      </trkpt>
      <trkpt lat="45.40618" lon="6.21251">
        <ele>2118</ele>
        <time>2024-06-05T20:48:13+00:00</time>
      </trkpt>
      <trkpt lat="45.40619" lon="6.21253">
        <ele>2118</ele>
        <time>2024-06-05T20:48:16+00:00</time>
      </trkpt>
      <trkpt lat="45.40624" lon="6.21254">
        <ele>2115</ele>
        <time>2024-06-05T20:48:19+00:00</time>
      </trkpt>
      <trkpt lat="45.40634" lon="6.21258">
        <ele>2112</ele>
        <time>2024-06-05T20:48:22+00:00</time>
      </trkpt>
      <trkpt lat="45.40639" lon="6.21259">
        <ele>2112</ele>
        <time>2024-06-05T20:48:25+00:00</time>
      </trkpt>
      <trkpt lat="45.40641" lon="6.21259">
        <ele>2109</ele>
        <time>2024-06-05T20:48:28+00:00</time>
      </trkpt>
      <trkpt lat="45.40642" lon="6.2126">
        <ele>2105</ele>
        <time>2024-06-05T20:48:31+00:00</time>
      </trkpt>
      <trkpt lat="45.40643" lon="6.21264">
        <ele>2105</ele>
        <time>2024-06-05T20:48:34+00:00</time>
      </trkpt>
      <trkpt lat="45.40644" lon="6.21265">
        <ele>2105</ele>
        <time>2024-06-05T20:48:37+00:00</time>
      </trkpt>
      <trkpt lat="45.40645" lon="6.21263">
        <ele>2105</ele>
        <time>2024-06-05T20:48:40+00:00</time>
      </trkpt>
      <trkpt lat="45.40646" lon="6.21263">
        <ele>2105</ele>
        <time>2024-06-05T20:48:43+00:00</time>
      </trkpt>
      <trkpt lat="45.40645" lon="6.21269">
        <ele>2105</ele>
        <time>2024-06-05T20:48:46+00:00</time>
      </trkpt>
      <trkpt lat="45.40643" lon="6.21275">
        <ele>2101</ele>
        <time>2024-06-05T20:48:49+00:00</time>
      </trkpt>
      <trkpt lat="45.40639" lon="6.21285">
        <ele>2098</ele>
        <time>2024-06-05T20:48:52+00:00</time>
      </trkpt>
      <trkpt lat="45.40632" lon="6.21301">
        <ele>2088</ele>
        <time>2024-06-05T20:48:55+00:00</time>
      </trkpt>
      <trkpt lat="45.40627" lon="6.21313">
        <ele>2088</ele>
        <time>2024-06-05T20:48:58+00:00</time>
      </trkpt>
      <trkpt lat="45.40624" lon="6.21325">
        <ele>2083</ele>
        <time>2024-06-05T20:49:01+00:00</time>
      </trkpt>
      <trkpt lat="45.40623" lon="6.2133">
        <ele>2080</ele>
        <time>2024-06-05T20:49:04+00:00</time>
      </trkpt>
      <trkpt lat="45.40623" lon="6.21338">
        <ele>2080</ele>
        <time>2024-06-05T20:49:07+00:00</time>
      </trkpt>
      <trkpt lat="45.40624" lon="6.21346">
        <ele>2078</ele>
        <time>2024-06-05T20:49:10+00:00</time>
      </trkpt>
      <trkpt lat="45.40627" lon="6.21359">
        <ele>2076</ele>
        <time>2024-06-05T20:49:13+00:00</time>
      </trkpt>
      <trkpt lat="45.40633" lon="6.21373">
        <ele>2071</ele>
        <time>2024-06-05T20:49:16+00:00</time>
      </trkpt>
      <trkpt lat="45.40636" lon="6.2138">
        <ele>2074</ele>
        <time>2024-06-05T20:49:19+00:00</time>
      </trkpt>
      <trkpt lat="45.40639" lon="6.21385">
        <ele>2074</ele>
        <time>2024-06-05T20:49:22+00:00</time>
      </trkpt>
      <trkpt lat="45.40642" lon="6.21392">
        <ele>2071</ele>
        <time>2024-06-05T20:49:25+00:00</time>
      </trkpt>
      <trkpt lat="45.40646" lon="6.21399">
        <ele>2071</ele>
        <time>2024-06-05T20:49:28+00:00</time>
      </trkpt>
      <trkpt lat="45.40652" lon="6.21409">
        <ele>2066</ele>
        <time>2024-06-05T20:49:31+00:00</time>
      </trkpt>
      <trkpt lat="45.40657" lon="6.21421">
        <ele>2070</ele>
        <time>2024-06-05T20:49:34+00:00</time>
      </trkpt>
      <trkpt lat="45.40661" lon="6.21436">
        <ele>2066</ele>
        <time>2024-06-05T20:49:37+00:00</time>
      </trkpt>
      <trkpt lat="45.40666" lon="6.2144">
        <ele>2066</ele>
        <time>2024-06-05T20:49:40+00:00</time>
      </trkpt>
      <trkpt lat="45.4067" lon="6.21446">
        <ele>2066</ele>
        <time>2024-06-05T20:49:43+00:00</time>
      </trkpt>
      <trkpt lat="45.40672" lon="6.21454">
        <ele>2060</ele>
        <time>2024-06-05T20:49:46+00:00</time>
      </trkpt>
      <trkpt lat="45.40674" lon="6.21456">
        <ele>2060</ele>
        <time>2024-06-05T20:49:49+00:00</time>
      </trkpt>
      <trkpt lat="45.40674" lon="6.2146">
        <ele>2061</ele>
        <time>2024-06-05T20:49:52+00:00</time>
      </trkpt>
      <trkpt lat="45.40676" lon="6.21466">
        <ele>2061</ele>
        <time>2024-06-05T20:49:55+00:00</time>
      </trkpt>
      <trkpt lat="45.40678" lon="6.21469">
        <ele>2061</ele>
        <time>2024-06-05T20:49:58+00:00</time>
      </trkpt>
      <trkpt lat="45.4068" lon="6.21475">
        <ele>2062</ele>
        <time>2024-06-05T20:50:01+00:00</time>
      </trkpt>
      <trkpt lat="45.40683" lon="6.21487">
        <ele>2053</ele>
        <time>2024-06-05T20:50:04+00:00</time>
      </trkpt>
      <trkpt lat="45.40684" lon="6.21491">
        <ele>2054</ele>
        <time>2024-06-05T20:50:07+00:00</time>
      </trkpt>
      <trkpt lat="45.40686" lon="6.215">
        <ele>2054</ele>
        <time>2024-06-05T20:50:10+00:00</time>
      </trkpt>
      <trkpt lat="45.40688" lon="6.21503">
        <ele>2054</ele>
        <time>2024-06-05T20:50:13+00:00</time>
      </trkpt>
      <trkpt lat="45.40691" lon="6.2151">
        <ele>2046</ele>
        <time>2024-06-05T20:50:16+00:00</time>
      </trkpt>
      <trkpt lat="45.40693" lon="6.21516">
        <ele>2047</ele>
        <time>2024-06-05T20:50:19+00:00</time>
      </trkpt>
      <trkpt lat="45.40695" lon="6.21521">
        <ele>2048</ele>
        <time>2024-06-05T20:50:22+00:00</time>
      </trkpt>
      <trkpt lat="45.40697" lon="6.21527">
        <ele>2048</ele>
        <time>2024-06-05T20:50:25+00:00</time>
      </trkpt>
      <trkpt lat="45.40702" lon="6.21534">
        <ele>2041</ele>
        <time>2024-06-05T20:50:28+00:00</time>
      </trkpt>
      <trkpt lat="45.40703" lon="6.21538">
        <ele>2047</ele>
        <time>2024-06-05T20:50:31+00:00</time>
      </trkpt>
      <trkpt lat="45.40703" lon="6.21546">
        <ele>2042</ele>
        <time>2024-06-05T20:50:34+00:00</time>
      </trkpt>
      <trkpt lat="45.40705" lon="6.21553">
        <ele>2047</ele>
        <time>2024-06-05T20:50:37+00:00</time>
      </trkpt>
      <trkpt lat="45.40708" lon="6.21562">
        <ele>2048</ele>
        <time>2024-06-05T20:50:40+00:00</time>
      </trkpt>
      <trkpt lat="45.40709" lon="6.21569">
        <ele>2037</ele>
        <time>2024-06-05T20:50:43+00:00</time>
      </trkpt>
      <trkpt lat="45.40709" lon="6.21575">
        <ele>2039</ele>
        <time>2024-06-05T20:50:46+00:00</time>
      </trkpt>
      <trkpt lat="45.40709" lon="6.21591">
        <ele>2030</ele>
        <time>2024-06-05T20:50:49+00:00</time>
      </trkpt>
      <trkpt lat="45.40712" lon="6.21607">
        <ele>2028</ele>
        <time>2024-06-05T20:50:52+00:00</time>
      </trkpt>
      <trkpt lat="45.40716" lon="6.21615">
        <ele>2026</ele>
        <time>2024-06-05T20:50:55+00:00</time>
      </trkpt>
      <trkpt lat="45.40722" lon="6.21624">
        <ele>2024</ele>
        <time>2024-06-05T20:50:58+00:00</time>
      </trkpt>
      <trkpt lat="45.40729" lon="6.21631">
        <ele>2021</ele>
        <time>2024-06-05T20:51:01+00:00</time>
      </trkpt>
      <trkpt lat="45.40734" lon="6.2164">
        <ele>2020</ele>
        <time>2024-06-05T20:51:04+00:00</time>
      </trkpt>
      <trkpt lat="45.4074" lon="6.2165">
        <ele>2020</ele>
        <time>2024-06-05T20:51:07+00:00</time>
      </trkpt>
      <trkpt lat="45.40746" lon="6.21656">
        <ele>2020</ele>
        <time>2024-06-05T20:51:10+00:00</time>
      </trkpt>
      <trkpt lat="45.40752" lon="6.21662">
        <ele>2018</ele>
        <time>2024-06-05T20:51:13+00:00</time>
      </trkpt>
      <trkpt lat="45.40758" lon="6.21667">
        <ele>2018</ele>
        <time>2024-06-05T20:51:16+00:00</time>
      </trkpt>
      <trkpt lat="45.40764" lon="6.2167">
        <ele>2019</ele>
        <time>2024-06-05T20:51:19+00:00</time>
      </trkpt>
      <trkpt lat="45.40768" lon="6.21676">
        <ele>2019</ele>
        <time>2024-06-05T20:51:22+00:00</time>
      </trkpt>
      <trkpt lat="45.40772" lon="6.2168">
        <ele>2020</ele>
        <time>2024-06-05T20:51:25+00:00</time>
      </trkpt>
      <trkpt lat="45.40777" lon="6.21682">
        <ele>2019</ele>
        <time>2024-06-05T20:51:28+00:00</time>
      </trkpt>
      <trkpt lat="45.4078" lon="6.21687">
        <ele>2018</ele>
        <time>2024-06-05T20:51:31+00:00</time>
      </trkpt>
      <trkpt lat="45.40787" lon="6.21689">
        <ele>2018</ele>
        <time>2024-06-05T20:51:34+00:00</time>
      </trkpt>
      <trkpt lat="45.40791" lon="6.21693">
        <ele>2012</ele>
        <time>2024-06-05T20:51:37+00:00</time>
      </trkpt>
      <trkpt lat="45.40798" lon="6.21704">
        <ele>2012</ele>
        <time>2024-06-05T20:51:40+00:00</time>
      </trkpt>
      <trkpt lat="45.40804" lon="6.21717">
        <ele>2007</ele>
        <time>2024-06-05T20:51:43+00:00</time>
      </trkpt>
      <trkpt lat="45.40809" lon="6.21726">
        <ele>2007</ele>
        <time>2024-06-05T20:51:46+00:00</time>
      </trkpt>
      <trkpt lat="45.40815" lon="6.21735">
        <ele>2003</ele>
        <time>2024-06-05T20:51:49+00:00</time>
      </trkpt>
      <trkpt lat="45.40818" lon="6.2174">
        <ele>2003</ele>
        <time>2024-06-05T20:51:52+00:00</time>
      </trkpt>
      <trkpt lat="45.40818" lon="6.21743">
        <ele>2002</ele>
        <time>2024-06-05T20:51:55+00:00</time>
      </trkpt>
      <trkpt lat="45.40817" lon="6.21749">
        <ele>2002</ele>
        <time>2024-06-05T20:51:58+00:00</time>
      </trkpt>
      <trkpt lat="45.40819" lon="6.2175">
        <ele>2002</ele>
        <time>2024-06-05T20:52:01+00:00</time>
      </trkpt>
      <trkpt lat="45.40821" lon="6.21753">
        <ele>1998</ele>
        <time>2024-06-05T20:52:04+00:00</time>
      </trkpt>
      <trkpt lat="45.40822" lon="6.21757">
        <ele>1998</ele>
        <time>2024-06-05T20:52:07+00:00</time>
      </trkpt>
      <trkpt lat="45.40824" lon="6.21761">
        <ele>1995</ele>
        <time>2024-06-05T20:52:10+00:00</time>
      </trkpt>
      <trkpt lat="45.40827" lon="6.21763">
        <ele>1995</ele>
        <time>2024-06-05T20:52:13+00:00</time>
      </trkpt>
      <trkpt lat="45.40829" lon="6.21767">
        <ele>1995</ele>
        <time>2024-06-05T20:52:16+00:00</time>
      </trkpt>
      <trkpt lat="45.4083" lon="6.2177">
        <ele>1992</ele>
        <time>2024-06-05T20:52:19+00:00</time>
      </trkpt>
      <trkpt lat="45.4083" lon="6.21774">
        <ele>1992</ele>
        <time>2024-06-05T20:52:22+00:00</time>
      </trkpt>
      <trkpt lat="45.40832" lon="6.21777">
        <ele>1992</ele>
        <time>2024-06-05T20:52:25+00:00</time>
      </trkpt>
      <trkpt lat="45.40835" lon="6.21781">
        <ele>1989</ele>
        <time>2024-06-05T20:52:28+00:00</time>
      </trkpt>
      <trkpt lat="45.40837" lon="6.21785">
        <ele>1989</ele>
        <time>2024-06-05T20:52:31+00:00</time>
      </trkpt>
      <trkpt lat="45.40835" lon="6.21786">
        <ele>1989</ele>
        <time>2024-06-05T20:52:34+00:00</time>
      </trkpt>
      <trkpt lat="45.40832" lon="6.21786">
        <ele>1989</ele>
        <time>2024-06-05T20:52:37+00:00</time>
      </trkpt>
      <trkpt lat="45.40833" lon="6.21789">
        <ele>1989</ele>
        <time>2024-06-05T20:52:40+00:00</time>
      </trkpt>
      <trkpt lat="45.40832" lon="6.21792">
        <ele>1986</ele>
        <time>2024-06-05T20:52:43+00:00</time>
      </trkpt>
      <trkpt lat="45.40832" lon="6.21797">
        <ele>1986</ele>
        <time>2024-06-05T20:52:46+00:00</time>
      </trkpt>
      <trkpt lat="45.40831" lon="6.21799">
        <ele>1986</ele>
        <time>2024-06-05T20:52:49+00:00</time>
      </trkpt>
      <trkpt lat="45.40828" lon="6.21798">
        <ele>1983</ele>
        <time>2024-06-05T20:52:52+00:00</time>
      </trkpt>
      <trkpt lat="45.4083" lon="6.21802">
        <ele>1980</ele>
        <time>2024-06-05T20:52:55+00:00</time>
      </trkpt>
      <trkpt lat="45.40829" lon="6.21807">
        <ele>1980</ele>
        <time>2024-06-05T20:52:58+00:00</time>
      </trkpt>
      <trkpt lat="45.4083" lon="6.21815">
        <ele>1980</ele>
        <time>2024-06-05T20:53:01+00:00</time>
      </trkpt>
      <trkpt lat="45.40831" lon="6.21822">
        <ele>1979</ele>
        <time>2024-06-05T20:53:04+00:00</time>
      </trkpt>
      <trkpt lat="45.40833" lon="6.21827">
        <ele>1979</ele>
        <time>2024-06-05T20:53:07+00:00</time>
      </trkpt>
      <trkpt lat="45.40836" lon="6.21833">
        <ele>1977</ele>
        <time>2024-06-05T20:53:10+00:00</time>
      </trkpt>
      <trkpt lat="45.40842" lon="6.21841">
        <ele>1976</ele>
        <time>2024-06-05T20:53:13+00:00</time>
      </trkpt>
      <trkpt lat="45.40847" lon="6.21862">
        <ele>1973</ele>
        <time>2024-06-05T20:53:16+00:00</time>
      </trkpt>
      <trkpt lat="45.40854" lon="6.21881">
        <ele>1973</ele>
        <time>2024-06-05T20:53:19+00:00</time>
      </trkpt>
      <trkpt lat="45.40859" lon="6.21887">
        <ele>1970</ele>
        <time>2024-06-05T20:53:22+00:00</time>
      </trkpt>
      <trkpt lat="45.4086" lon="6.21893">
        <ele>1967</ele>
        <time>2024-06-05T20:53:25+00:00</time>
      </trkpt>
      <trkpt lat="45.40867" lon="6.21908">
        <ele>1971</ele>
        <time>2024-06-05T20:53:28+00:00</time>
      </trkpt>
      <trkpt lat="45.40869" lon="6.21913">
        <ele>1970</ele>
        <time>2024-06-05T20:53:31+00:00</time>
      </trkpt>
      <trkpt lat="45.40871" lon="6.21919">
        <ele>1972</ele>
        <time>2024-06-05T20:53:34+00:00</time>
      </trkpt>
      <trkpt lat="45.40872" lon="6.21925">
        <ele>1972</ele>
        <time>2024-06-05T20:53:37+00:00</time>
      </trkpt>
      <trkpt lat="45.40872" lon="6.21929">
        <ele>1972</ele>
        <time>2024-06-05T20:53:40+00:00</time>
      </trkpt>
      <trkpt lat="45.40873" lon="6.21938">
        <ele>1971</ele>
        <time>2024-06-05T20:53:43+00:00</time>
      </trkpt>
      <trkpt lat="45.40874" lon="6.21948">
        <ele>1970</ele>
        <time>2024-06-05T20:53:46+00:00</time>
      </trkpt>
      <trkpt lat="45.40876" lon="6.21955">
        <ele>1968</ele>
        <time>2024-06-05T20:53:49+00:00</time>
      </trkpt>
      <trkpt lat="45.40879" lon="6.21963">
        <ele>1965</ele>
        <time>2024-06-05T20:53:52+00:00</time>
      </trkpt>
      <trkpt lat="45.4088" lon="6.21967">
        <ele>1965</ele>
        <time>2024-06-05T20:53:55+00:00</time>
      </trkpt>
      <trkpt lat="45.40878" lon="6.21972">
        <ele>1963</ele>
        <time>2024-06-05T20:53:58+00:00</time>
      </trkpt>
      <trkpt lat="45.40878" lon="6.21979">
        <ele>1963</ele>
        <time>2024-06-05T20:54:01+00:00</time>
      </trkpt>
      <trkpt lat="45.40879" lon="6.21985">
        <ele>1961</ele>
        <time>2024-06-05T20:54:04+00:00</time>
      </trkpt>
      <trkpt lat="45.40882" lon="6.21992">
        <ele>1964</ele>
        <time>2024-06-05T20:54:07+00:00</time>
      </trkpt>
      <trkpt lat="45.40885" lon="6.21997">
        <ele>1963</ele>
        <time>2024-06-05T20:54:10+00:00</time>
      </trkpt>
      <trkpt lat="45.40888" lon="6.22002">
        <ele>1961</ele>
        <time>2024-06-05T20:54:13+00:00</time>
      </trkpt>
      <trkpt lat="45.4089" lon="6.22008">
        <ele>1962</ele>
        <time>2024-06-05T20:54:16+00:00</time>
      </trkpt>
      <trkpt lat="45.40893" lon="6.22014">
        <ele>1964</ele>
        <time>2024-06-05T20:54:19+00:00</time>
      </trkpt>
      <trkpt lat="45.40897" lon="6.22017">
        <ele>1964</ele>
        <time>2024-06-05T20:54:22+00:00</time>
      </trkpt>
      <trkpt lat="45.40903" lon="6.2202">
        <ele>1964</ele>
        <time>2024-06-05T20:54:25+00:00</time>
      </trkpt>
      <trkpt lat="45.40908" lon="6.2203">
        <ele>1963</ele>
        <time>2024-06-05T20:54:28+00:00</time>
      </trkpt>
      <trkpt lat="45.40911" lon="6.22036">
        <ele>1964</ele>
        <time>2024-06-05T20:54:31+00:00</time>
      </trkpt>
      <trkpt lat="45.40913" lon="6.22043">
        <ele>1963</ele>
        <time>2024-06-05T20:54:34+00:00</time>
      </trkpt>
      <trkpt lat="45.40917" lon="6.22051">
        <ele>1960</ele>
        <time>2024-06-05T20:54:37+00:00</time>
      </trkpt>
      <trkpt lat="45.4092" lon="6.22055">
        <ele>1960</ele>
        <time>2024-06-05T20:54:40+00:00</time>
      </trkpt>
      <trkpt lat="45.40926" lon="6.22059">
        <ele>1960</ele>
        <time>2024-06-05T20:54:43+00:00</time>
      </trkpt>
      <trkpt lat="45.4093" lon="6.22063">
        <ele>1960</ele>
        <time>2024-06-05T20:54:46+00:00</time>
      </trkpt>
      <trkpt lat="45.40935" lon="6.22064">
        <ele>1960</ele>
        <time>2024-06-05T20:54:49+00:00</time>
      </trkpt>
      <trkpt lat="45.40939" lon="6.22063">
        <ele>1960</ele>
        <time>2024-06-05T20:54:52+00:00</time>
      </trkpt>
      <trkpt lat="45.40942" lon="6.22064">
        <ele>1960</ele>
        <time>2024-06-05T20:54:55+00:00</time>
      </trkpt>
      <trkpt lat="45.40946" lon="6.22067">
        <ele>1960</ele>
        <time>2024-06-05T20:54:58+00:00</time>
      </trkpt>
      <trkpt lat="45.4095" lon="6.22067">
        <ele>1960</ele>
        <time>2024-06-05T20:55:01+00:00</time>
      </trkpt>
      <trkpt lat="45.40956" lon="6.22062">
        <ele>1960</ele>
        <time>2024-06-05T20:55:04+00:00</time>
      </trkpt>
      <trkpt lat="45.40963" lon="6.22061">
        <ele>1961</ele>
        <time>2024-06-05T20:55:07+00:00</time>
      </trkpt>
      <trkpt lat="45.40969" lon="6.22063">
        <ele>1960</ele>
        <time>2024-06-05T20:55:10+00:00</time>
      </trkpt>
      <trkpt lat="45.40973" lon="6.22069">
        <ele>1961</ele>
        <time>2024-06-05T20:55:13+00:00</time>
      </trkpt>
      <trkpt lat="45.40977" lon="6.22073">
        <ele>1962</ele>
        <time>2024-06-05T20:55:16+00:00</time>
      </trkpt>
      <trkpt lat="45.40981" lon="6.22076">
        <ele>1960</ele>
        <time>2024-06-05T20:55:19+00:00</time>
      </trkpt>
      <trkpt lat="45.40983" lon="6.22076">
        <ele>1960</ele>
        <time>2024-06-05T20:55:22+00:00</time>
      </trkpt>
      <trkpt lat="45.40987" lon="6.22073">
        <ele>1960</ele>
        <time>2024-06-05T20:55:25+00:00</time>
      </trkpt>
      <trkpt lat="45.40988" lon="6.22074">
        <ele>1960</ele>
        <time>2024-06-05T20:55:28+00:00</time>
      </trkpt>
      <trkpt lat="45.40991" lon="6.22073">
        <ele>1958</ele>
        <time>2024-06-05T20:55:31+00:00</time>
      </trkpt>
      <trkpt lat="45.40992" lon="6.2207">
        <ele>1958</ele>
        <time>2024-06-05T20:55:34+00:00</time>
      </trkpt>
      <trkpt lat="45.40994" lon="6.22072">
        <ele>1958</ele>
        <time>2024-06-05T20:55:37+00:00</time>
      </trkpt>
      <trkpt lat="45.40996" lon="6.22072">
        <ele>1958</ele>
        <time>2024-06-05T20:55:40+00:00</time>
      </trkpt>
      <trkpt lat="45.40998" lon="6.22073">
        <ele>1958</ele>
        <time>2024-06-05T20:55:43+00:00</time>
      </trkpt>
      <trkpt lat="45.40999" lon="6.22074">
        <ele>1958</ele>
        <time>2024-06-05T20:55:46+00:00</time>
      </trkpt>
      <trkpt lat="45.41004" lon="6.22077">
        <ele>1955</ele>
        <time>2024-06-05T20:55:49+00:00</time>
      </trkpt>
      <trkpt lat="45.41005" lon="6.22079">
        <ele>1955</ele>
        <time>2024-06-05T20:55:52+00:00</time>
      </trkpt>
      <trkpt lat="45.41011" lon="6.2209">
        <ele>1952</ele>
        <time>2024-06-05T20:55:55+00:00</time>
      </trkpt>
      <trkpt lat="45.41014" lon="6.22096">
        <ele>1952</ele>
        <time>2024-06-05T20:55:58+00:00</time>
      </trkpt>
      <trkpt lat="45.41018" lon="6.22098">
        <ele>1952</ele>
        <time>2024-06-05T20:56:01+00:00</time>
      </trkpt>
      <trkpt lat="45.41023" lon="6.22101">
        <ele>1951</ele>
        <time>2024-06-05T20:56:04+00:00</time>
      </trkpt>
      <trkpt lat="45.41024" lon="6.22101">
        <ele>1951</ele>
        <time>2024-06-05T20:56:07+00:00</time>
      </trkpt>
      <trkpt lat="45.41026" lon="6.22099">
        <ele>1952</ele>
        <time>2024-06-05T20:56:10+00:00</time>
      </trkpt>
      <trkpt lat="45.41028" lon="6.22097">
        <ele>1952</ele>
        <time>2024-06-05T20:56:13+00:00</time>
      </trkpt>
      <trkpt lat="45.4103" lon="6.22095">
        <ele>1952</ele>
        <time>2024-06-05T20:56:16+00:00</time>
      </trkpt>
      <trkpt lat="45.41033" lon="6.22095">
        <ele>1951</ele>
        <time>2024-06-05T20:56:19+00:00</time>
      </trkpt>
      <trkpt lat="45.41034" lon="6.22094">
        <ele>1951</ele>
        <time>2024-06-05T20:56:22+00:00</time>
      </trkpt>
      <trkpt lat="45.41036" lon="6.22093">
        <ele>1951</ele>
        <time>2024-06-05T20:56:25+00:00</time>
      </trkpt>
      <trkpt lat="45.41039" lon="6.22095">
        <ele>1951</ele>
        <time>2024-06-05T20:56:28+00:00</time>
      </trkpt>
      <trkpt lat="45.41043" lon="6.22094">
        <ele>1951</ele>
        <time>2024-06-05T20:56:31+00:00</time>
      </trkpt>
      <trkpt lat="45.41046" lon="6.22093">
        <ele>1951</ele>
        <time>2024-06-05T20:56:34+00:00</time>
      </trkpt>
      <trkpt lat="45.41049" lon="6.22092">
        <ele>1951</ele>
        <time>2024-06-05T20:56:37+00:00</time>
      </trkpt>
      <trkpt lat="45.41052" lon="6.22091">
        <ele>1950</ele>
        <time>2024-06-05T20:56:40+00:00</time>
      </trkpt>
      <trkpt lat="45.41055" lon="6.22091">
        <ele>1950</ele>
        <time>2024-06-05T20:56:43+00:00</time>
      </trkpt>
      <trkpt lat="45.41058" lon="6.22091">
        <ele>1950</ele>
        <time>2024-06-05T20:56:46+00:00</time>
      </trkpt>
      <trkpt lat="45.41061" lon="6.22091">
        <ele>1949</ele>
        <time>2024-06-05T20:56:49+00:00</time>
      </trkpt>
      <trkpt lat="45.41065" lon="6.22086">
        <ele>1949</ele>
        <time>2024-06-05T20:56:52+00:00</time>
      </trkpt>
      <trkpt lat="45.41071" lon="6.22083">
        <ele>1947</ele>
        <time>2024-06-05T20:56:55+00:00</time>
      </trkpt>
      <trkpt lat="45.41075" lon="6.22083">
        <ele>1947</ele>
        <time>2024-06-05T20:56:58+00:00</time>
      </trkpt>
      <trkpt lat="45.4108" lon="6.22087">
        <ele>1947</ele>
        <time>2024-06-05T20:57:01+00:00</time>
      </trkpt>
      <trkpt lat="45.41082" lon="6.22089">
        <ele>1944</ele>
        <time>2024-06-05T20:57:04+00:00</time>
      </trkpt>
      <trkpt lat="45.41086" lon="6.22089">
        <ele>1944</ele>
        <time>2024-06-05T20:57:07+00:00</time>
      </trkpt>
      <trkpt lat="45.41087" lon="6.22093">
        <ele>1944</ele>
        <time>2024-06-05T20:57:10+00:00</time>
      </trkpt>
      <trkpt lat="45.41091" lon="6.22096">
        <ele>1941</ele>
        <time>2024-06-05T20:57:13+00:00</time>
      </trkpt>
      <trkpt lat="45.41093" lon="6.22098">
        <ele>1941</ele>
        <time>2024-06-05T20:57:16+00:00</time>
      </trkpt>
      <trkpt lat="45.41096" lon="6.22099">
        <ele>1941</ele>
        <time>2024-06-05T20:57:19+00:00</time>
      </trkpt>
      <trkpt lat="45.411" lon="6.22098">
        <ele>1937</ele>
        <time>2024-06-05T20:57:22+00:00</time>
      </trkpt>
      <trkpt lat="45.41103" lon="6.221">
        <ele>1938</ele>
        <time>2024-06-05T20:57:25+00:00</time>
      </trkpt>
      <trkpt lat="45.41106" lon="6.22105">
        <ele>1938</ele>
        <time>2024-06-05T20:57:28+00:00</time>
      </trkpt>
      <trkpt lat="45.4111" lon="6.22113">
        <ele>1932</ele>
        <time>2024-06-05T20:57:31+00:00</time>
      </trkpt>
      <trkpt lat="45.41112" lon="6.22123">
        <ele>1927</ele>
        <time>2024-06-05T20:57:34+00:00</time>
      </trkpt>
      <trkpt lat="45.41112" lon="6.22127">
        <ele>1927</ele>
        <time>2024-06-05T20:57:37+00:00</time>
      </trkpt>
      <trkpt lat="45.41111" lon="6.22136">
        <ele>1924</ele>
        <time>2024-06-05T20:57:40+00:00</time>
      </trkpt>
      <trkpt lat="45.41111" lon="6.22142">
        <ele>1924</ele>
        <time>2024-06-05T20:57:43+00:00</time>
      </trkpt>
      <trkpt lat="45.41112" lon="6.22146">
        <ele>1924</ele>
        <time>2024-06-05T20:57:46+00:00</time>
      </trkpt>
      <trkpt lat="45.41113" lon="6.22148">
        <ele>1924</ele>
        <time>2024-06-05T20:57:49+00:00</time>
      </trkpt>
      <trkpt lat="45.41117" lon="6.2215">
        <ele>1924</ele>
        <time>2024-06-05T20:57:52+00:00</time>
      </trkpt>
      <trkpt lat="45.41121" lon="6.22158">
        <ele>1922</ele>
        <time>2024-06-05T20:57:55+00:00</time>
      </trkpt>
      <trkpt lat="45.41124" lon="6.22169">
        <ele>1921</ele>
        <time>2024-06-05T20:57:58+00:00</time>
      </trkpt>
      <trkpt lat="45.41124" lon="6.22178">
        <ele>1919</ele>
        <time>2024-06-05T20:58:01+00:00</time>
      </trkpt>
      <trkpt lat="45.41125" lon="6.2219">
        <ele>1918</ele>
        <time>2024-06-05T20:58:04+00:00</time>
      </trkpt>
      <trkpt lat="45.41128" lon="6.22217">
        <ele>1921</ele>
        <time>2024-06-05T20:58:07+00:00</time>
      </trkpt>
      <trkpt lat="45.41126" lon="6.22221">
        <ele>1918</ele>
        <time>2024-06-05T20:58:10+00:00</time>
      </trkpt>
      <trkpt lat="45.41121" lon="6.22228">
        <ele>1918</ele>
        <time>2024-06-05T20:58:13+00:00</time>
      </trkpt>
      <trkpt lat="45.41118" lon="6.22237">
        <ele>1921</ele>
        <time>2024-06-05T20:58:16+00:00</time>
      </trkpt>
      <trkpt lat="45.41119" lon="6.22247">
        <ele>1921</ele>
        <time>2024-06-05T20:58:19+00:00</time>
      </trkpt>
      <trkpt lat="45.41118" lon="6.22255">
        <ele>1921</ele>
        <time>2024-06-05T20:58:22+00:00</time>
      </trkpt>
      <trkpt lat="45.41115" lon="6.22261">
        <ele>1921</ele>
        <time>2024-06-05T20:58:25+00:00</time>
      </trkpt>
      <trkpt lat="45.41115" lon="6.2227">
        <ele>1922</ele>
        <time>2024-06-05T20:58:28+00:00</time>
      </trkpt>
      <trkpt lat="45.41116" lon="6.22281">
        <ele>1921</ele>
        <time>2024-06-05T20:58:31+00:00</time>
      </trkpt>
      <trkpt lat="45.41118" lon="6.22297">
        <ele>1922</ele>
        <time>2024-06-05T20:58:34+00:00</time>
      </trkpt>
      <trkpt lat="45.41115" lon="6.22302">
        <ele>1921</ele>
        <time>2024-06-05T20:58:37+00:00</time>
      </trkpt>
      <trkpt lat="45.41111" lon="6.22306">
        <ele>1921</ele>
        <time>2024-06-05T20:58:40+00:00</time>
      </trkpt>
      <trkpt lat="45.41114" lon="6.22327">
        <ele>1920</ele>
        <time>2024-06-05T20:58:43+00:00</time>
      </trkpt>
      <trkpt lat="45.41118" lon="6.22346">
        <ele>1917</ele>
        <time>2024-06-05T20:58:46+00:00</time>
      </trkpt>
      <trkpt lat="45.41121" lon="6.22357">
        <ele>1913</ele>
        <time>2024-06-05T20:58:49+00:00</time>
      </trkpt>
      <trkpt lat="45.41121" lon="6.22364">
        <ele>1910</ele>
        <time>2024-06-05T20:58:52+00:00</time>
      </trkpt>
      <trkpt lat="45.41127" lon="6.22363">
        <ele>1917</ele>
        <time>2024-06-05T20:58:55+00:00</time>
      </trkpt>
      <trkpt lat="45.41135" lon="6.22364">
        <ele>1912</ele>
        <time>2024-06-05T20:58:58+00:00</time>
      </trkpt>
      <trkpt lat="45.41145" lon="6.22356">
        <ele>1917</ele>
        <time>2024-06-05T20:59:01+00:00</time>
      </trkpt>
      <trkpt lat="45.41152" lon="6.22345">
        <ele>1922</ele>
        <time>2024-06-05T20:59:04+00:00</time>
      </trkpt>
      <trkpt lat="45.41159" lon="6.22333">
        <ele>1926</ele>
        <time>2024-06-05T20:59:07+00:00</time>
      </trkpt>
      <trkpt lat="45.41163" lon="6.22329">
        <ele>1930</ele>
        <time>2024-06-05T20:59:10+00:00</time>
      </trkpt>
      <trkpt lat="45.41166" lon="6.22327">
        <ele>1930</ele>
        <time>2024-06-05T20:59:13+00:00</time>
      </trkpt>
      <trkpt lat="45.41169" lon="6.22323">
        <ele>1930</ele>
        <time>2024-06-05T20:59:16+00:00</time>
      </trkpt>
      <trkpt lat="45.41175" lon="6.22316">
        <ele>1933</ele>
        <time>2024-06-05T20:59:19+00:00</time>
      </trkpt>
      <trkpt lat="45.41178" lon="6.2231">
        <ele>1932</ele>
        <time>2024-06-05T20:59:22+00:00</time>
      </trkpt>
      <trkpt lat="45.41181" lon="6.22299">
        <ele>1936</ele>
        <time>2024-06-05T20:59:25+00:00</time>
      </trkpt>
      <trkpt lat="45.41182" lon="6.22287">
        <ele>1934</ele>
        <time>2024-06-05T20:59:28+00:00</time>
      </trkpt>
      <trkpt lat="45.41184" lon="6.2228">
        <ele>1934</ele>
        <time>2024-06-05T20:59:31+00:00</time>
      </trkpt>
      <trkpt lat="45.41186" lon="6.22276">
        <ele>1934</ele>
        <time>2024-06-05T20:59:34+00:00</time>
      </trkpt>
      <trkpt lat="45.4119" lon="6.22267">
        <ele>1934</ele>
        <time>2024-06-05T20:59:37+00:00</time>
      </trkpt>
      <trkpt lat="45.41196" lon="6.22248">
        <ele>1938</ele>
        <time>2024-06-05T20:59:40+00:00</time>
      </trkpt>
      <trkpt lat="45.41199" lon="6.22238">
        <ele>1938</ele>
        <time>2024-06-05T20:59:43+00:00</time>
      </trkpt>
      <trkpt lat="45.41204" lon="6.22231">
        <ele>1945</ele>
        <time>2024-06-05T20:59:46+00:00</time>
      </trkpt>
      <trkpt lat="45.41206" lon="6.22226">
        <ele>1945</ele>
        <time>2024-06-05T20:59:49+00:00</time>
      </trkpt>
      <trkpt lat="45.41206" lon="6.2222">
        <ele>1945</ele>
        <time>2024-06-05T20:59:52+00:00</time>
      </trkpt>
      <trkpt lat="45.41208" lon="6.22214">
        <ele>1946</ele>
        <time>2024-06-05T20:59:55+00:00</time>
      </trkpt>
      <trkpt lat="45.41212" lon="6.22213">
        <ele>1951</ele>
        <time>2024-06-05T20:59:58+00:00</time>
      </trkpt>
      <trkpt lat="45.41218" lon="6.22213">
        <ele>1951</ele>
        <time>2024-06-05T21:00:01+00:00</time>
      </trkpt>
      <trkpt lat="45.41223" lon="6.22213">
        <ele>1949</ele>
        <time>2024-06-05T21:00:04+00:00</time>
      </trkpt>
      <trkpt lat="45.41228" lon="6.22211">
        <ele>1955</ele>
        <time>2024-06-05T21:00:07+00:00</time>
      </trkpt>
      <trkpt lat="45.41232" lon="6.22211">
        <ele>1955</ele>
        <time>2024-06-05T21:00:10+00:00</time>
      </trkpt>
      <trkpt lat="45.41234" lon="6.22216">
        <ele>1955</ele>
        <time>2024-06-05T21:00:13+00:00</time>
      </trkpt>
      <trkpt lat="45.41236" lon="6.22224">
        <ele>1949</ele>
        <time>2024-06-05T21:00:16+00:00</time>
      </trkpt>
      <trkpt lat="45.41239" lon="6.22231">
        <ele>1957</ele>
        <time>2024-06-05T21:00:19+00:00</time>
      </trkpt>
      <trkpt lat="45.41243" lon="6.22226">
        <ele>1949</ele>
        <time>2024-06-05T21:00:22+00:00</time>
      </trkpt>
      <trkpt lat="45.41247" lon="6.22219">
        <ele>1952</ele>
        <time>2024-06-05T21:00:25+00:00</time>
      </trkpt>
      <trkpt lat="45.41248" lon="6.22227">
        <ele>1949</ele>
        <time>2024-06-05T21:00:28+00:00</time>
      </trkpt>
      <trkpt lat="45.4125" lon="6.22232">
        <ele>1943</ele>
        <time>2024-06-05T21:00:31+00:00</time>
      </trkpt>
      <trkpt lat="45.41252" lon="6.22225">
        <ele>1944</ele>
        <time>2024-06-05T21:00:34+00:00</time>
      </trkpt>
      <trkpt lat="45.41256" lon="6.22222">
        <ele>1944</ele>
        <time>2024-06-05T21:00:37+00:00</time>
      </trkpt>
      <trkpt lat="45.41257" lon="6.22224">
        <ele>1944</ele>
        <time>2024-06-05T21:00:40+00:00</time>
      </trkpt>
      <trkpt lat="45.41256" lon="6.22227">
        <ele>1944</ele>
        <time>2024-06-05T21:00:43+00:00</time>
      </trkpt>
      <trkpt lat="45.41256" lon="6.22231">
        <ele>1943</ele>
        <time>2024-06-05T21:00:46+00:00</time>
      </trkpt>
      <trkpt lat="45.41259" lon="6.22239">
        <ele>1943</ele>
        <time>2024-06-05T21:00:49+00:00</time>
      </trkpt>
      <trkpt lat="45.41261" lon="6.22234">
        <ele>1933</ele>
        <time>2024-06-05T21:00:52+00:00</time>
      </trkpt>
      <trkpt lat="45.41264" lon="6.22242">
        <ele>1932</ele>
        <time>2024-06-05T21:00:55+00:00</time>
      </trkpt>
      <trkpt lat="45.41265" lon="6.22237">
        <ele>1933</ele>
        <time>2024-06-05T21:00:58+00:00</time>
      </trkpt>
      <trkpt lat="45.41267" lon="6.22246">
        <ele>1932</ele>
        <time>2024-06-05T21:01:01+00:00</time>
      </trkpt>
      <trkpt lat="45.41273" lon="6.22255">
        <ele>1926</ele>
        <time>2024-06-05T21:01:04+00:00</time>
      </trkpt>
      <trkpt lat="45.41275" lon="6.22261">
        <ele>1926</ele>
        <time>2024-06-05T21:01:07+00:00</time>
      </trkpt>
      <trkpt lat="45.41278" lon="6.22264">
        <ele>1926</ele>
        <time>2024-06-05T21:01:10+00:00</time>
      </trkpt>
      <trkpt lat="45.41279" lon="6.22269">
        <ele>1926</ele>
        <time>2024-06-05T21:01:13+00:00</time>
      </trkpt>
      <trkpt lat="45.4128" lon="6.22274">
        <ele>1919</ele>
        <time>2024-06-05T21:01:16+00:00</time>
      </trkpt>
      <trkpt lat="45.41283" lon="6.22279">
        <ele>1919</ele>
        <time>2024-06-05T21:01:19+00:00</time>
      </trkpt>
      <trkpt lat="45.41284" lon="6.22289">
        <ele>1920</ele>
        <time>2024-06-05T21:01:22+00:00</time>
      </trkpt>
      <trkpt lat="45.41284" lon="6.223">
        <ele>1916</ele>
        <time>2024-06-05T21:01:25+00:00</time>
      </trkpt>
      <trkpt lat="45.41288" lon="6.22308">
        <ele>1916</ele>
        <time>2024-06-05T21:01:28+00:00</time>
      </trkpt>
      <trkpt lat="45.4129" lon="6.22315">
        <ele>1915</ele>
        <time>2024-06-05T21:01:31+00:00</time>
      </trkpt>
      <trkpt lat="45.41291" lon="6.22326">
        <ele>1905</ele>
        <time>2024-06-05T21:01:34+00:00</time>
      </trkpt>
      <trkpt lat="45.4129" lon="6.22333">
        <ele>1904</ele>
        <time>2024-06-05T21:01:37+00:00</time>
      </trkpt>
      <trkpt lat="45.4129" lon="6.22347">
        <ele>1902</ele>
        <time>2024-06-05T21:01:40+00:00</time>
      </trkpt>
      <trkpt lat="45.41287" lon="6.22357">
        <ele>1909</ele>
        <time>2024-06-05T21:01:43+00:00</time>
      </trkpt>
      <trkpt lat="45.41291" lon="6.2235">
        <ele>1900</ele>
        <time>2024-06-05T21:01:46+00:00</time>
      </trkpt>
      <trkpt lat="45.41296" lon="6.22347">
        <ele>1902</ele>
        <time>2024-06-05T21:01:49+00:00</time>
      </trkpt>
      <trkpt lat="45.41297" lon="6.22358">
        <ele>1900</ele>
        <time>2024-06-05T21:01:52+00:00</time>
      </trkpt>
      <trkpt lat="45.41296" lon="6.22363">
        <ele>1898</ele>
        <time>2024-06-05T21:01:55+00:00</time>
      </trkpt>
      <trkpt lat="45.41296" lon="6.22372">
        <ele>1897</ele>
        <time>2024-06-05T21:01:58+00:00</time>
      </trkpt>
      <trkpt lat="45.41295" lon="6.22384">
        <ele>1896</ele>
        <time>2024-06-05T21:02:01+00:00</time>
      </trkpt>
      <trkpt lat="45.41298" lon="6.22394">
        <ele>1894</ele>
        <time>2024-06-05T21:02:04+00:00</time>
      </trkpt>
      <trkpt lat="45.41301" lon="6.22401">
        <ele>1888</ele>
        <time>2024-06-05T21:02:07+00:00</time>
      </trkpt>
      <trkpt lat="45.41305" lon="6.22406">
        <ele>1888</ele>
        <time>2024-06-05T21:02:10+00:00</time>
      </trkpt>
      <trkpt lat="45.41308" lon="6.224">
        <ele>1888</ele>
        <time>2024-06-05T21:02:13+00:00</time>
      </trkpt>
      <trkpt lat="45.41313" lon="6.22395">
        <ele>1885</ele>
        <time>2024-06-05T21:02:16+00:00</time>
      </trkpt>
      <trkpt lat="45.41316" lon="6.22397">
        <ele>1885</ele>
        <time>2024-06-05T21:02:19+00:00</time>
      </trkpt>
      <trkpt lat="45.41318" lon="6.22393">
        <ele>1885</ele>
        <time>2024-06-05T21:02:22+00:00</time>
      </trkpt>
      <trkpt lat="45.4132" lon="6.22394">
        <ele>1885</ele>
        <time>2024-06-05T21:02:25+00:00</time>
      </trkpt>
      <trkpt lat="45.41322" lon="6.22401">
        <ele>1877</ele>
        <time>2024-06-05T21:02:28+00:00</time>
      </trkpt>
      <trkpt lat="45.41322" lon="6.22405">
        <ele>1877</ele>
        <time>2024-06-05T21:02:31+00:00</time>
      </trkpt>
      <trkpt lat="45.41323" lon="6.22412">
        <ele>1875</ele>
        <time>2024-06-05T21:02:34+00:00</time>
      </trkpt>
      <trkpt lat="45.41326" lon="6.22421">
        <ele>1874</ele>
        <time>2024-06-05T21:02:37+00:00</time>
      </trkpt>
      <trkpt lat="45.41329" lon="6.22425">
        <ele>1874</ele>
        <time>2024-06-05T21:02:40+00:00</time>
      </trkpt>
      <trkpt lat="45.41332" lon="6.22429">
        <ele>1868</ele>
        <time>2024-06-05T21:02:43+00:00</time>
      </trkpt>
      <trkpt lat="45.41335" lon="6.22436">
        <ele>1869</ele>
        <time>2024-06-05T21:02:46+00:00</time>
      </trkpt>
      <trkpt lat="45.41339" lon="6.22443">
        <ele>1869</ele>
        <time>2024-06-05T21:02:49+00:00</time>
      </trkpt>
      <trkpt lat="45.41345" lon="6.22443">
        <ele>1864</ele>
        <time>2024-06-05T21:02:52+00:00</time>
      </trkpt>
      <trkpt lat="45.41347" lon="6.22452">
        <ele>1864</ele>
        <time>2024-06-05T21:02:55+00:00</time>
      </trkpt>
      <trkpt lat="45.4135" lon="6.22462">
        <ele>1855</ele>
        <time>2024-06-05T21:02:58+00:00</time>
      </trkpt>
      <trkpt lat="45.41354" lon="6.22468">
        <ele>1855</ele>
        <time>2024-06-05T21:03:01+00:00</time>
      </trkpt>
      <trkpt lat="45.41358" lon="6.22462">
        <ele>1855</ele>
        <time>2024-06-05T21:03:04+00:00</time>
      </trkpt>
      <trkpt lat="45.41362" lon="6.22453">
        <ele>1851</ele>
        <time>2024-06-05T21:03:07+00:00</time>
      </trkpt>
      <trkpt lat="45.41364" lon="6.22457">
        <ele>1851</ele>
        <time>2024-06-05T21:03:10+00:00</time>
      </trkpt>
      <trkpt lat="45.41365" lon="6.22464">
        <ele>1850</ele>
        <time>2024-06-05T21:03:13+00:00</time>
      </trkpt>
      <trkpt lat="45.41366" lon="6.22473">
        <ele>1849</ele>
        <time>2024-06-05T21:03:16+00:00</time>
      </trkpt>
      <trkpt lat="45.41371" lon="6.22471">
        <ele>1843</ele>
        <time>2024-06-05T21:03:19+00:00</time>
      </trkpt>
      <trkpt lat="45.41374" lon="6.22471">
        <ele>1843</ele>
        <time>2024-06-05T21:03:22+00:00</time>
      </trkpt>
      <trkpt lat="45.41374" lon="6.22482">
        <ele>1843</ele>
        <time>2024-06-05T21:03:25+00:00</time>
      </trkpt>
      <trkpt lat="45.41376" lon="6.22482">
        <ele>1843</ele>
        <time>2024-06-05T21:03:28+00:00</time>
      </trkpt>
      <trkpt lat="45.41377" lon="6.22488">
        <ele>1843</ele>
        <time>2024-06-05T21:03:31+00:00</time>
      </trkpt>
      <trkpt lat="45.41381" lon="6.22488">
        <ele>1835</ele>
        <time>2024-06-05T21:03:34+00:00</time>
      </trkpt>
      <trkpt lat="45.41382" lon="6.22494">
        <ele>1835</ele>
        <time>2024-06-05T21:03:37+00:00</time>
      </trkpt>
      <trkpt lat="45.41384" lon="6.22502">
        <ele>1833</ele>
        <time>2024-06-05T21:03:40+00:00</time>
      </trkpt>
      <trkpt lat="45.41388" lon="6.22508">
        <ele>1833</ele>
        <time>2024-06-05T21:03:43+00:00</time>
      </trkpt>
      <trkpt lat="45.41392" lon="6.22516">
        <ele>1828</ele>
        <time>2024-06-05T21:03:46+00:00</time>
      </trkpt>
      <trkpt lat="45.41399" lon="6.22528">
        <ele>1830</ele>
        <time>2024-06-05T21:03:49+00:00</time>
      </trkpt>
      <trkpt lat="45.41402" lon="6.22531">
        <ele>1827</ele>
        <time>2024-06-05T21:03:52+00:00</time>
      </trkpt>
      <trkpt lat="45.41403" lon="6.22537">
        <ele>1827</ele>
        <time>2024-06-05T21:03:55+00:00</time>
      </trkpt>
      <trkpt lat="45.41403" lon="6.22545">
        <ele>1826</ele>
        <time>2024-06-05T21:03:58+00:00</time>
      </trkpt>
      <trkpt lat="45.41406" lon="6.22555">
        <ele>1825</ele>
        <time>2024-06-05T21:04:01+00:00</time>
      </trkpt>
      <trkpt lat="45.41409" lon="6.22568">
        <ele>1826</ele>
        <time>2024-06-05T21:04:04+00:00</time>
      </trkpt>
      <trkpt lat="45.41411" lon="6.22577">
        <ele>1816</ele>
        <time>2024-06-05T21:04:07+00:00</time>
      </trkpt>
      <trkpt lat="45.41411" lon="6.22588">
        <ele>1816</ele>
        <time>2024-06-05T21:04:10+00:00</time>
      </trkpt>
      <trkpt lat="45.4141" lon="6.22597">
        <ele>1815</ele>
        <time>2024-06-05T21:04:13+00:00</time>
      </trkpt>
      <trkpt lat="45.41411" lon="6.22606">
        <ele>1813</ele>
        <time>2024-06-05T21:04:16+00:00</time>
      </trkpt>
      <trkpt lat="45.41414" lon="6.22611">
        <ele>1813</ele>
        <time>2024-06-05T21:04:19+00:00</time>
      </trkpt>
      <trkpt lat="45.41416" lon="6.22616">
        <ele>1813</ele>
        <time>2024-06-05T21:04:22+00:00</time>
      </trkpt>
      <trkpt lat="45.41416" lon="6.22625">
        <ele>1813</ele>
        <time>2024-06-05T21:04:25+00:00</time>
      </trkpt>
      <trkpt lat="45.4142" lon="6.22632">
        <ele>1814</ele>
        <time>2024-06-05T21:04:28+00:00</time>
      </trkpt>
      <trkpt lat="45.41424" lon="6.22637">
        <ele>1810</ele>
        <time>2024-06-05T21:04:31+00:00</time>
      </trkpt>
      <trkpt lat="45.41431" lon="6.22642">
        <ele>1807</ele>
        <time>2024-06-05T21:04:34+00:00</time>
      </trkpt>
      <trkpt lat="45.41433" lon="6.22643">
        <ele>1807</ele>
        <time>2024-06-05T21:04:37+00:00</time>
      </trkpt>
      <trkpt lat="45.41435" lon="6.2265">
        <ele>1807</ele>
        <time>2024-06-05T21:04:40+00:00</time>
      </trkpt>
      <trkpt lat="45.41441" lon="6.22656">
        <ele>1803</ele>
        <time>2024-06-05T21:04:43+00:00</time>
      </trkpt>
      <trkpt lat="45.41445" lon="6.22659">
        <ele>1803</ele>
        <time>2024-06-05T21:04:46+00:00</time>
      </trkpt>
      <trkpt lat="45.41448" lon="6.22662">
        <ele>1805</ele>
        <time>2024-06-05T21:04:49+00:00</time>
      </trkpt>
      <trkpt lat="45.41452" lon="6.22663">
        <ele>1803</ele>
        <time>2024-06-05T21:04:52+00:00</time>
      </trkpt>
      <trkpt lat="45.41457" lon="6.22666">
        <ele>1803</ele>
        <time>2024-06-05T21:04:55+00:00</time>
      </trkpt>
      <trkpt lat="45.41462" lon="6.2267">
        <ele>1801</ele>
        <time>2024-06-05T21:04:58+00:00</time>
      </trkpt>
      <trkpt lat="45.41468" lon="6.2267">
        <ele>1802</ele>
        <time>2024-06-05T21:05:01+00:00</time>
      </trkpt>
      <trkpt lat="45.41473" lon="6.22672">
        <ele>1802</ele>
        <time>2024-06-05T21:05:04+00:00</time>
      </trkpt>
      <trkpt lat="45.41478" lon="6.22668">
        <ele>1801</ele>
        <time>2024-06-05T21:05:07+00:00</time>
      </trkpt>
      <trkpt lat="45.41481" lon="6.22668">
        <ele>1801</ele>
        <time>2024-06-05T21:05:10+00:00</time>
      </trkpt>
      <trkpt lat="45.41487" lon="6.2267">
        <ele>1801</ele>
        <time>2024-06-05T21:05:13+00:00</time>
      </trkpt>
      <trkpt lat="45.41494" lon="6.22671">
        <ele>1802</ele>
        <time>2024-06-05T21:05:16+00:00</time>
      </trkpt>
      <trkpt lat="45.41498" lon="6.22679">
        <ele>1798</ele>
        <time>2024-06-05T21:05:19+00:00</time>
      </trkpt>
      <trkpt lat="45.41502" lon="6.22686">
        <ele>1801</ele>
        <time>2024-06-05T21:05:22+00:00</time>
      </trkpt>
      <trkpt lat="45.41503" lon="6.2269">
        <ele>1798</ele>
        <time>2024-06-05T21:05:25+00:00</time>
      </trkpt>
      <trkpt lat="45.41505" lon="6.22696">
        <ele>1798</ele>
        <time>2024-06-05T21:05:28+00:00</time>
      </trkpt>
      <trkpt lat="45.41509" lon="6.22701">
        <ele>1795</ele>
        <time>2024-06-05T21:05:31+00:00</time>
      </trkpt>
      <trkpt lat="45.41514" lon="6.22708">
        <ele>1794</ele>
        <time>2024-06-05T21:05:34+00:00</time>
      </trkpt>
      <trkpt lat="45.41518" lon="6.22712">
        <ele>1793</ele>
        <time>2024-06-05T21:05:37+00:00</time>
      </trkpt>
      <trkpt lat="45.41522" lon="6.22715">
        <ele>1791</ele>
        <time>2024-06-05T21:05:40+00:00</time>
      </trkpt>
      <trkpt lat="45.41528" lon="6.2272">
        <ele>1791</ele>
        <time>2024-06-05T21:05:43+00:00</time>
      </trkpt>
      <trkpt lat="45.41531" lon="6.22725">
        <ele>1786</ele>
        <time>2024-06-05T21:05:46+00:00</time>
      </trkpt>
      <trkpt lat="45.41535" lon="6.22733">
        <ele>1787</ele>
        <time>2024-06-05T21:05:49+00:00</time>
      </trkpt>
      <trkpt lat="45.41538" lon="6.2274">
        <ele>1786</ele>
        <time>2024-06-05T21:05:52+00:00</time>
      </trkpt>
      <trkpt lat="45.41542" lon="6.22748">
        <ele>1783</ele>
        <time>2024-06-05T21:05:55+00:00</time>
      </trkpt>
      <trkpt lat="45.41545" lon="6.22755">
        <ele>1783</ele>
        <time>2024-06-05T21:05:58+00:00</time>
      </trkpt>
      <trkpt lat="45.41548" lon="6.22762">
        <ele>1781</ele>
        <time>2024-06-05T21:06:01+00:00</time>
      </trkpt>
      <trkpt lat="45.41552" lon="6.22769">
        <ele>1779</ele>
        <time>2024-06-05T21:06:04+00:00</time>
      </trkpt>
      <trkpt lat="45.41557" lon="6.22777">
        <ele>1779</ele>
        <time>2024-06-05T21:06:07+00:00</time>
      </trkpt>
      <trkpt lat="45.4156" lon="6.22786">
        <ele>1777</ele>
        <time>2024-06-05T21:06:10+00:00</time>
      </trkpt>
      <trkpt lat="45.41565" lon="6.22795">
        <ele>1775</ele>
        <time>2024-06-05T21:06:13+00:00</time>
      </trkpt>
      <trkpt lat="45.4157" lon="6.22799">
        <ele>1775</ele>
        <time>2024-06-05T21:06:16+00:00</time>
      </trkpt>
      <trkpt lat="45.41573" lon="6.22801">
        <ele>1773</ele>
        <time>2024-06-05T21:06:19+00:00</time>
      </trkpt>
      <trkpt lat="45.41576" lon="6.22812">
        <ele>1771</ele>
        <time>2024-06-05T21:06:22+00:00</time>
      </trkpt>
      <trkpt lat="45.41577" lon="6.2282">
        <ele>1771</ele>
        <time>2024-06-05T21:06:25+00:00</time>
      </trkpt>
      <trkpt lat="45.41581" lon="6.22829">
        <ele>1769</ele>
        <time>2024-06-05T21:06:28+00:00</time>
      </trkpt>
      <trkpt lat="45.41582" lon="6.22841">
        <ele>1766</ele>
        <time>2024-06-05T21:06:31+00:00</time>
      </trkpt>
      <trkpt lat="45.41581" lon="6.22851">
        <ele>1764</ele>
        <time>2024-06-05T21:06:34+00:00</time>
      </trkpt>
      <trkpt lat="45.41581" lon="6.22859">
        <ele>1764</ele>
        <time>2024-06-05T21:06:37+00:00</time>
      </trkpt>
      <trkpt lat="45.41584" lon="6.22866">
        <ele>1763</ele>
        <time>2024-06-05T21:06:40+00:00</time>
      </trkpt>
      <trkpt lat="45.41585" lon="6.22874">
        <ele>1761</ele>
        <time>2024-06-05T21:06:43+00:00</time>
      </trkpt>
      <trkpt lat="45.41588" lon="6.2288">
        <ele>1760</ele>
        <time>2024-06-05T21:06:46+00:00</time>
      </trkpt>
      <trkpt lat="45.41593" lon="6.22885">
        <ele>1759</ele>
        <time>2024-06-05T21:06:49+00:00</time>
      </trkpt>
      <trkpt lat="45.41599" lon="6.22888">
        <ele>1759</ele>
        <time>2024-06-05T21:06:52+00:00</time>
      </trkpt>
      <trkpt lat="45.41604" lon="6.2289">
        <ele>1759</ele>
        <time>2024-06-05T21:06:55+00:00</time>
      </trkpt>
      <trkpt lat="45.41608" lon="6.22892">
        <ele>1757</ele>
        <time>2024-06-05T21:06:58+00:00</time>
      </trkpt>
      <trkpt lat="45.41611" lon="6.22895">
        <ele>1755</ele>
        <time>2024-06-05T21:07:01+00:00</time>
      </trkpt>
      <trkpt lat="45.41616" lon="6.22897">
        <ele>1755</ele>
        <time>2024-06-05T21:07:04+00:00</time>
      </trkpt>
      <trkpt lat="45.41623" lon="6.229">
        <ele>1752</ele>
        <time>2024-06-05T21:07:07+00:00</time>
      </trkpt>
      <trkpt lat="45.41628" lon="6.22905">
        <ele>1753</ele>
        <time>2024-06-05T21:07:10+00:00</time>
      </trkpt>
      <trkpt lat="45.41631" lon="6.22911">
        <ele>1751</ele>
        <time>2024-06-05T21:07:13+00:00</time>
      </trkpt>
      <trkpt lat="45.41636" lon="6.22914">
        <ele>1751</ele>
        <time>2024-06-05T21:07:16+00:00</time>
      </trkpt>
      <trkpt lat="45.41643" lon="6.22914">
        <ele>1751</ele>
        <time>2024-06-05T21:07:19+00:00</time>
      </trkpt>
      <trkpt lat="45.41649" lon="6.22912">
        <ele>1751</ele>
        <time>2024-06-05T21:07:22+00:00</time>
      </trkpt>
      <trkpt lat="45.41653" lon="6.22914">
        <ele>1749</ele>
        <time>2024-06-05T21:07:25+00:00</time>
      </trkpt>
      <trkpt lat="45.41657" lon="6.22913">
        <ele>1749</ele>
        <time>2024-06-05T21:07:28+00:00</time>
      </trkpt>
      <trkpt lat="45.41661" lon="6.22909">
        <ele>1751</ele>
        <time>2024-06-05T21:07:31+00:00</time>
      </trkpt>
      <trkpt lat="45.41667" lon="6.22911">
        <ele>1747</ele>
        <time>2024-06-05T21:07:34+00:00</time>
      </trkpt>
      <trkpt lat="45.41672" lon="6.22914">
        <ele>1749</ele>
        <time>2024-06-05T21:07:37+00:00</time>
      </trkpt>
      <trkpt lat="45.41677" lon="6.22914">
        <ele>1749</ele>
        <time>2024-06-05T21:07:40+00:00</time>
      </trkpt>
      <trkpt lat="45.41684" lon="6.22906">
        <ele>1749</ele>
        <time>2024-06-05T21:07:43+00:00</time>
      </trkpt>
      <trkpt lat="45.41691" lon="6.229">
        <ele>1749</ele>
        <time>2024-06-05T21:07:46+00:00</time>
      </trkpt>
      <trkpt lat="45.41696" lon="6.22899">
        <ele>1751</ele>
        <time>2024-06-05T21:07:49+00:00</time>
      </trkpt>
      <trkpt lat="45.41702" lon="6.22902">
        <ele>1749</ele>
        <time>2024-06-05T21:07:52+00:00</time>
      </trkpt>
      <trkpt lat="45.4171" lon="6.22909">
        <ele>1749</ele>
        <time>2024-06-05T21:07:55+00:00</time>
      </trkpt>
      <trkpt lat="45.41716" lon="6.22917">
        <ele>1753</ele>
        <time>2024-06-05T21:07:58+00:00</time>
      </trkpt>
      <trkpt lat="45.41714" lon="6.22927">
        <ele>1756</ele>
        <time>2024-06-05T21:08:01+00:00</time>
      </trkpt>
      <trkpt lat="45.41718" lon="6.22933">
        <ele>1748</ele>
        <time>2024-06-05T21:08:04+00:00</time>
      </trkpt>
      <trkpt lat="45.41724" lon="6.22934">
        <ele>1752</ele>
        <time>2024-06-05T21:08:07+00:00</time>
      </trkpt>
      <trkpt lat="45.41733" lon="6.22934">
        <ele>1748</ele>
        <time>2024-06-05T21:08:10+00:00</time>
      </trkpt>
      <trkpt lat="45.41742" lon="6.22936">
        <ele>1747</ele>
        <time>2024-06-05T21:08:13+00:00</time>
      </trkpt>
      <trkpt lat="45.41742" lon="6.2295">
        <ele>1746</ele>
        <time>2024-06-05T21:08:16+00:00</time>
      </trkpt>
      <trkpt lat="45.41742" lon="6.22958">
        <ele>1746</ele>
        <time>2024-06-05T21:08:19+00:00</time>
      </trkpt>
      <trkpt lat="45.41746" lon="6.22962">
        <ele>1747</ele>
        <time>2024-06-05T21:08:22+00:00</time>
      </trkpt>
      <trkpt lat="45.41751" lon="6.22965">
        <ele>1742</ele>
        <time>2024-06-05T21:08:25+00:00</time>
      </trkpt>
      <trkpt lat="45.41755" lon="6.22957">
        <ele>1746</ele>
        <time>2024-06-05T21:08:28+00:00</time>
      </trkpt>
      <trkpt lat="45.41759" lon="6.22949">
        <ele>1748</ele>
        <time>2024-06-05T21:08:31+00:00</time>
      </trkpt>
      <trkpt lat="45.41763" lon="6.22938">
        <ele>1747</ele>
        <time>2024-06-05T21:08:34+00:00</time>
      </trkpt>
      <trkpt lat="45.41765" lon="6.22927">
        <ele>1749</ele>
        <time>2024-06-05T21:08:37+00:00</time>
      </trkpt>
      <trkpt lat="45.41766" lon="6.22918">
        <ele>1750</ele>
        <time>2024-06-05T21:08:40+00:00</time>
      </trkpt>
      <trkpt lat="45.41765" lon="6.22913">
        <ele>1750</ele>
        <time>2024-06-05T21:08:43+00:00</time>
      </trkpt>
      <trkpt lat="45.41764" lon="6.22906">
        <ele>1750</ele>
        <time>2024-06-05T21:08:46+00:00</time>
      </trkpt>
      <trkpt lat="45.41766" lon="6.22899">
        <ele>1752</ele>
        <time>2024-06-05T21:08:49+00:00</time>
      </trkpt>
      <trkpt lat="45.41766" lon="6.22895">
        <ele>1752</ele>
        <time>2024-06-05T21:08:52+00:00</time>
      </trkpt>
      <trkpt lat="45.41764" lon="6.22891">
        <ele>1752</ele>
        <time>2024-06-05T21:08:55+00:00</time>
      </trkpt>
      <trkpt lat="45.41762" lon="6.22884">
        <ele>1753</ele>
        <time>2024-06-05T21:08:58+00:00</time>
      </trkpt>
      <trkpt lat="45.41762" lon="6.22878">
        <ele>1754</ele>
        <time>2024-06-05T21:09:01+00:00</time>
      </trkpt>
      <trkpt lat="45.41758" lon="6.22874">
        <ele>1755</ele>
        <time>2024-06-05T21:09:04+00:00</time>
      </trkpt>
      <trkpt lat="45.41756" lon="6.22868">
        <ele>1757</ele>
        <time>2024-06-05T21:09:07+00:00</time>
      </trkpt>
      <trkpt lat="45.41757" lon="6.22861">
        <ele>1753</ele>
        <time>2024-06-05T21:09:10+00:00</time>
      </trkpt>
      <trkpt lat="45.41757" lon="6.22853">
        <ele>1757</ele>
        <time>2024-06-05T21:09:13+00:00</time>
      </trkpt>
      <trkpt lat="45.41756" lon="6.22838">
        <ele>1756</ele>
        <time>2024-06-05T21:09:16+00:00</time>
      </trkpt>
      <trkpt lat="45.41757" lon="6.22826">
        <ele>1751</ele>
        <time>2024-06-05T21:09:19+00:00</time>
      </trkpt>
      <trkpt lat="45.41761" lon="6.22819">
        <ele>1752</ele>
        <time>2024-06-05T21:09:22+00:00</time>
      </trkpt>
      <trkpt lat="45.41764" lon="6.22809">
        <ele>1749</ele>
        <time>2024-06-05T21:09:25+00:00</time>
      </trkpt>
      <trkpt lat="45.41765" lon="6.22802">
        <ele>1753</ele>
        <time>2024-06-05T21:09:28+00:00</time>
      </trkpt>
      <trkpt lat="45.41765" lon="6.22794">
        <ele>1750</ele>
        <time>2024-06-05T21:09:31+00:00</time>
      </trkpt>
      <trkpt lat="45.41764" lon="6.22789">
        <ele>1752</ele>
        <time>2024-06-05T21:09:34+00:00</time>
      </trkpt>
      <trkpt lat="45.4176" lon="6.22781">
        <ele>1752</ele>
        <time>2024-06-05T21:09:37+00:00</time>
      </trkpt>
      <trkpt lat="45.41757" lon="6.22776">
        <ele>1756</ele>
        <time>2024-06-05T21:09:40+00:00</time>
      </trkpt>
      <trkpt lat="45.41753" lon="6.22767">
        <ele>1756</ele>
        <time>2024-06-05T21:09:43+00:00</time>
      </trkpt>
      <trkpt lat="45.4175" lon="6.22759">
        <ele>1757</ele>
        <time>2024-06-05T21:09:46+00:00</time>
      </trkpt>
      <trkpt lat="45.41749" lon="6.22748">
        <ele>1758</ele>
        <time>2024-06-05T21:09:49+00:00</time>
      </trkpt>
      <trkpt lat="45.41748" lon="6.22737">
        <ele>1760</ele>
        <time>2024-06-05T21:09:52+00:00</time>
      </trkpt>
      <trkpt lat="45.41748" lon="6.22723">
        <ele>1762</ele>
        <time>2024-06-05T21:09:55+00:00</time>
      </trkpt>
      <trkpt lat="45.41744" lon="6.22714">
        <ele>1764</ele>
        <time>2024-06-05T21:09:58+00:00</time>
      </trkpt>
      <trkpt lat="45.41744" lon="6.22705">
        <ele>1766</ele>
        <time>2024-06-05T21:10:01+00:00</time>
      </trkpt>
      <trkpt lat="45.41744" lon="6.22697">
        <ele>1765</ele>
        <time>2024-06-05T21:10:04+00:00</time>
      </trkpt>
      <trkpt lat="45.41743" lon="6.2269">
        <ele>1765</ele>
        <time>2024-06-05T21:10:07+00:00</time>
      </trkpt>
      <trkpt lat="45.4174" lon="6.22684">
        <ele>1766</ele>
        <time>2024-06-05T21:10:10+00:00</time>
      </trkpt>
      <trkpt lat="45.41735" lon="6.22678">
        <ele>1767</ele>
        <time>2024-06-05T21:10:13+00:00</time>
      </trkpt>
      <trkpt lat="45.41727" lon="6.22673">
        <ele>1769</ele>
        <time>2024-06-05T21:10:16+00:00</time>
      </trkpt>
      <trkpt lat="45.41721" lon="6.22674">
        <ele>1766</ele>
        <time>2024-06-05T21:10:19+00:00</time>
      </trkpt>
      <trkpt lat="45.41715" lon="6.22671">
        <ele>1768</ele>
        <time>2024-06-05T21:10:22+00:00</time>
      </trkpt>
      <trkpt lat="45.41712" lon="6.22668">
        <ele>1766</ele>
        <time>2024-06-05T21:10:25+00:00</time>
      </trkpt>
      <trkpt lat="45.41711" lon="6.22661">
        <ele>1766</ele>
        <time>2024-06-05T21:10:28+00:00</time>
      </trkpt>
      <trkpt lat="45.41712" lon="6.2265">
        <ele>1766</ele>
        <time>2024-06-05T21:10:31+00:00</time>
      </trkpt>
      <trkpt lat="45.41711" lon="6.2264">
        <ele>1767</ele>
        <time>2024-06-05T21:10:34+00:00</time>
      </trkpt>
      <trkpt lat="45.41708" lon="6.2263">
        <ele>1767</ele>
        <time>2024-06-05T21:10:37+00:00</time>
      </trkpt>
      <trkpt lat="45.41702" lon="6.22624">
        <ele>1767</ele>
        <time>2024-06-05T21:10:40+00:00</time>
      </trkpt>
      <trkpt lat="45.41698" lon="6.22619">
        <ele>1771</ele>
        <time>2024-06-05T21:10:43+00:00</time>
      </trkpt>
      <trkpt lat="45.41696" lon="6.22613">
        <ele>1771</ele>
        <time>2024-06-05T21:10:46+00:00</time>
      </trkpt>
      <trkpt lat="45.41699" lon="6.22602">
        <ele>1772</ele>
        <time>2024-06-05T21:10:49+00:00</time>
      </trkpt>
      <trkpt lat="45.41701" lon="6.22595">
        <ele>1769</ele>
        <time>2024-06-05T21:10:52+00:00</time>
      </trkpt>
      <trkpt lat="45.41701" lon="6.22585">
        <ele>1770</ele>
        <time>2024-06-05T21:10:55+00:00</time>
      </trkpt>
      <trkpt lat="45.41701" lon="6.22577">
        <ele>1772</ele>
        <time>2024-06-05T21:10:58+00:00</time>
      </trkpt>
      <trkpt lat="45.41703" lon="6.22574">
        <ele>1772</ele>
        <time>2024-06-05T21:11:01+00:00</time>
      </trkpt>
      <trkpt lat="45.41703" lon="6.22569">
        <ele>1770</ele>
        <time>2024-06-05T21:11:04+00:00</time>
      </trkpt>
      <trkpt lat="45.41702" lon="6.22568">
        <ele>1772</ele>
        <time>2024-06-05T21:11:07+00:00</time>
      </trkpt>
      <trkpt lat="45.41701" lon="6.22564">
        <ele>1772</ele>
        <time>2024-06-05T21:11:10+00:00</time>
      </trkpt>
      <trkpt lat="45.41703" lon="6.2256">
        <ele>1771</ele>
        <time>2024-06-05T21:11:13+00:00</time>
      </trkpt>
      <trkpt lat="45.41709" lon="6.22549">
        <ele>1769</ele>
        <time>2024-06-05T21:11:16+00:00</time>
      </trkpt>
      <trkpt lat="45.41714" lon="6.2254">
        <ele>1771</ele>
        <time>2024-06-05T21:11:19+00:00</time>
      </trkpt>
      <trkpt lat="45.41719" lon="6.22528">
        <ele>1769</ele>
        <time>2024-06-05T21:11:22+00:00</time>
      </trkpt>
      <trkpt lat="45.41721" lon="6.22519">
        <ele>1776</ele>
        <time>2024-06-05T21:11:25+00:00</time>
      </trkpt>
      <trkpt lat="45.41723" lon="6.22509">
        <ele>1777</ele>
        <time>2024-06-05T21:11:28+00:00</time>
      </trkpt>
      <trkpt lat="45.41723" lon="6.22489">
        <ele>1783</ele>
        <time>2024-06-05T21:11:31+00:00</time>
      </trkpt>
      <trkpt lat="45.41719" lon="6.22472">
        <ele>1781</ele>
        <time>2024-06-05T21:11:34+00:00</time>
      </trkpt>
      <trkpt lat="45.41717" lon="6.22462">
        <ele>1786</ele>
        <time>2024-06-05T21:11:37+00:00</time>
      </trkpt>
      <trkpt lat="45.41717" lon="6.22455">
        <ele>1789</ele>
        <time>2024-06-05T21:11:40+00:00</time>
      </trkpt>
      <trkpt lat="45.41712" lon="6.22449">
        <ele>1793</ele>
        <time>2024-06-05T21:11:43+00:00</time>
      </trkpt>
      <trkpt lat="45.41707" lon="6.2244">
        <ele>1790</ele>
        <time>2024-06-05T21:11:46+00:00</time>
      </trkpt>
      <trkpt lat="45.41704" lon="6.22424">
        <ele>1793</ele>
        <time>2024-06-05T21:11:49+00:00</time>
      </trkpt>
      <trkpt lat="45.41699" lon="6.22409">
        <ele>1799</ele>
        <time>2024-06-05T21:11:52+00:00</time>
      </trkpt>
      <trkpt lat="45.41683" lon="6.22384">
        <ele>1804</ele>
        <time>2024-06-05T21:11:55+00:00</time>
      </trkpt>
      <trkpt lat="45.41706" lon="6.22389">
        <ele>1812</ele>
        <time>2024-06-05T21:11:58+00:00</time>
      </trkpt>
      <trkpt lat="45.41717" lon="6.22393">
        <ele>1815</ele>
        <time>2024-06-05T21:12:01+00:00</time>
      </trkpt>
      <trkpt lat="45.41736" lon="6.224">
        <ele>1824</ele>
        <time>2024-06-05T21:12:04+00:00</time>
      </trkpt>
      <trkpt lat="45.41743" lon="6.22403">
        <ele>1827</ele>
        <time>2024-06-05T21:12:07+00:00</time>
      </trkpt>
      <trkpt lat="45.41741" lon="6.22396">
        <ele>1831</ele>
        <time>2024-06-05T21:12:10+00:00</time>
      </trkpt>
      <trkpt lat="45.41735" lon="6.22385">
        <ele>1828</ele>
        <time>2024-06-05T21:12:13+00:00</time>
      </trkpt>
      <trkpt lat="45.41749" lon="6.2239">
        <ele>1835</ele>
        <time>2024-06-05T21:12:16+00:00</time>
      </trkpt>
      <trkpt lat="45.41742" lon="6.22371">
        <ele>1841</ele>
        <time>2024-06-05T21:12:19+00:00</time>
      </trkpt>
      <trkpt lat="45.41749" lon="6.22372">
        <ele>1841</ele>
        <time>2024-06-05T21:12:22+00:00</time>
      </trkpt>
      <trkpt lat="45.41741" lon="6.22356">
        <ele>1847</ele>
        <time>2024-06-05T21:12:25+00:00</time>
      </trkpt>
      <trkpt lat="45.41735" lon="6.22346">
        <ele>1845</ele>
        <time>2024-06-05T21:12:28+00:00</time>
      </trkpt>
      <trkpt lat="45.41732" lon="6.22335">
        <ele>1846</ele>
        <time>2024-06-05T21:12:31+00:00</time>
      </trkpt>
      <trkpt lat="45.4174" lon="6.22337">
        <ele>1855</ele>
        <time>2024-06-05T21:12:34+00:00</time>
      </trkpt>
      <trkpt lat="45.4175" lon="6.22342">
        <ele>1855</ele>
        <time>2024-06-05T21:12:37+00:00</time>
      </trkpt>
      <trkpt lat="45.41759" lon="6.22347">
        <ele>1855</ele>
        <time>2024-06-05T21:12:40+00:00</time>
      </trkpt>
      <trkpt lat="45.41773" lon="6.22351">
        <ele>1862</ele>
        <time>2024-06-05T21:12:43+00:00</time>
      </trkpt>
      <trkpt lat="45.41782" lon="6.22357">
        <ele>1866</ele>
        <time>2024-06-05T21:12:46+00:00</time>
      </trkpt>
      <trkpt lat="45.41788" lon="6.22362">
        <ele>1863</ele>
        <time>2024-06-05T21:12:49+00:00</time>
      </trkpt>
      <trkpt lat="45.41799" lon="6.22364">
        <ele>1868</ele>
        <time>2024-06-05T21:12:52+00:00</time>
      </trkpt>
      <trkpt lat="45.41803" lon="6.22366">
        <ele>1875</ele>
        <time>2024-06-05T21:12:55+00:00</time>
      </trkpt>
      <trkpt lat="45.41806" lon="6.22368">
        <ele>1875</ele>
        <time>2024-06-05T21:12:58+00:00</time>
      </trkpt>
      <trkpt lat="45.41806" lon="6.22364">
        <ele>1875</ele>
        <time>2024-06-05T21:13:01+00:00</time>
      </trkpt>
      <trkpt lat="45.41802" lon="6.22357">
        <ele>1878</ele>
        <time>2024-06-05T21:13:04+00:00</time>
      </trkpt>
      <trkpt lat="45.41798" lon="6.22346">
        <ele>1875</ele>
        <time>2024-06-05T21:13:07+00:00</time>
      </trkpt>
      <trkpt lat="45.41794" lon="6.22329">
        <ele>1882</ele>
        <time>2024-06-05T21:13:10+00:00</time>
      </trkpt>
      <trkpt lat="45.41789" lon="6.22311">
        <ele>1883</ele>
        <time>2024-06-05T21:13:13+00:00</time>
      </trkpt>
      <trkpt lat="45.41787" lon="6.22293">
        <ele>1889</ele>
        <time>2024-06-05T21:13:16+00:00</time>
      </trkpt>
      <trkpt lat="45.41784" lon="6.22281">
        <ele>1894</ele>
        <time>2024-06-05T21:13:19+00:00</time>
      </trkpt>
      <trkpt lat="45.4179" lon="6.22286">
        <ele>1894</ele>
        <time>2024-06-05T21:13:22+00:00</time>
      </trkpt>
      <trkpt lat="45.41797" lon="6.22293">
        <ele>1894</ele>
        <time>2024-06-05T21:13:25+00:00</time>
      </trkpt>
      <trkpt lat="45.41801" lon="6.22294">
        <ele>1902</ele>
        <time>2024-06-05T21:13:28+00:00</time>
      </trkpt>
      <trkpt lat="45.41804" lon="6.22296">
        <ele>1902</ele>
        <time>2024-06-05T21:13:31+00:00</time>
      </trkpt>
      <trkpt lat="45.41811" lon="6.22299">
        <ele>1907</ele>
        <time>2024-06-05T21:13:34+00:00</time>
      </trkpt>
      <trkpt lat="45.41815" lon="6.22304">
        <ele>1902</ele>
        <time>2024-06-05T21:13:37+00:00</time>
      </trkpt>
      <trkpt lat="45.41818" lon="6.22303">
        <ele>1902</ele>
        <time>2024-06-05T21:13:40+00:00</time>
      </trkpt>
      <trkpt lat="45.41816" lon="6.22298">
        <ele>1907</ele>
        <time>2024-06-05T21:13:43+00:00</time>
      </trkpt>
      <trkpt lat="45.41815" lon="6.22294">
        <ele>1907</ele>
        <time>2024-06-05T21:13:46+00:00</time>
      </trkpt>
      <trkpt lat="45.41819" lon="6.22294">
        <ele>1907</ele>
        <time>2024-06-05T21:13:49+00:00</time>
      </trkpt>
      <trkpt lat="45.41816" lon="6.22288">
        <ele>1913</ele>
        <time>2024-06-05T21:13:52+00:00</time>
      </trkpt>
      <trkpt lat="45.41814" lon="6.22283">
        <ele>1913</ele>
        <time>2024-06-05T21:13:55+00:00</time>
      </trkpt>
      <trkpt lat="45.4181" lon="6.22278">
        <ele>1917</ele>
        <time>2024-06-05T21:13:58+00:00</time>
      </trkpt>
      <trkpt lat="45.4181" lon="6.22272">
        <ele>1912</ele>
        <time>2024-06-05T21:14:01+00:00</time>
      </trkpt>
      <trkpt lat="45.41808" lon="6.22269">
        <ele>1915</ele>
        <time>2024-06-05T21:14:04+00:00</time>
      </trkpt>
      <trkpt lat="45.41808" lon="6.22262">
        <ele>1915</ele>
        <time>2024-06-05T21:14:07+00:00</time>
      </trkpt>
      <trkpt lat="45.41806" lon="6.22258">
        <ele>1921</ele>
        <time>2024-06-05T21:14:10+00:00</time>
      </trkpt>
      <trkpt lat="45.41805" lon="6.22253">
        <ele>1921</ele>
        <time>2024-06-05T21:14:13+00:00</time>
      </trkpt>
      <trkpt lat="45.41805" lon="6.22253">
        <ele>1921</ele>
        <time>2024-06-05T21:14:16+00:00</time>
      </trkpt>
      <trkpt lat="45.41805" lon="6.22253">
        <ele>1921</ele>
        <time>2024-06-05T21:14:19+00:00</time>
      </trkpt>
      <trkpt lat="45.41803" lon="6.22246">
        <ele>1926</ele>
        <time>2024-06-05T21:14:22+00:00</time>
      </trkpt>
      <trkpt lat="45.41796" lon="6.22231">
        <ele>1926</ele>
        <time>2024-06-05T21:14:25+00:00</time>
      </trkpt>
      <trkpt lat="45.41794" lon="6.22226">
        <ele>1929</ele>
        <time>2024-06-05T21:14:28+00:00</time>
      </trkpt>
      <trkpt lat="45.41792" lon="6.22219">
        <ele>1931</ele>
        <time>2024-06-05T21:14:31+00:00</time>
      </trkpt>
      <trkpt lat="45.41792" lon="6.22211">
        <ele>1931</ele>
        <time>2024-06-05T21:14:34+00:00</time>
      </trkpt>
      <trkpt lat="45.41793" lon="6.22204">
        <ele>1934</ele>
        <time>2024-06-05T21:14:37+00:00</time>
      </trkpt>
      <trkpt lat="45.41793" lon="6.22199">
        <ele>1939</ele>
        <time>2024-06-05T21:14:40+00:00</time>
      </trkpt>
      <trkpt lat="45.4179" lon="6.22196">
        <ele>1939</ele>
        <time>2024-06-05T21:14:43+00:00</time>
      </trkpt>
      <trkpt lat="45.41789" lon="6.22192">
        <ele>1933</ele>
        <time>2024-06-05T21:14:46+00:00</time>
      </trkpt>
      <trkpt lat="45.41791" lon="6.22185">
        <ele>1939</ele>
        <time>2024-06-05T21:14:49+00:00</time>
      </trkpt>
      <trkpt lat="45.41786" lon="6.22179">
        <ele>1941</ele>
        <time>2024-06-05T21:14:52+00:00</time>
      </trkpt>
      <trkpt lat="45.41777" lon="6.22165">
        <ele>1944</ele>
        <time>2024-06-05T21:14:55+00:00</time>
      </trkpt>
      <trkpt lat="45.41771" lon="6.22161">
        <ele>1944</ele>
        <time>2024-06-05T21:14:58+00:00</time>
      </trkpt>
      <trkpt lat="45.41763" lon="6.2216">
        <ele>1949</ele>
        <time>2024-06-05T21:15:01+00:00</time>
      </trkpt>
      <trkpt lat="45.4176" lon="6.22157">
        <ele>1949</ele>
        <time>2024-06-05T21:15:04+00:00</time>
      </trkpt>
      <trkpt lat="45.41755" lon="6.22157">
        <ele>1946</ele>
        <time>2024-06-05T21:15:07+00:00</time>
      </trkpt>
      <trkpt lat="45.41744" lon="6.22155">
        <ele>1950</ele>
        <time>2024-06-05T21:15:10+00:00</time>
      </trkpt>
      <trkpt lat="45.41737" lon="6.22148">
        <ele>1948</ele>
        <time>2024-06-05T21:15:13+00:00</time>
      </trkpt>
      <trkpt lat="45.41733" lon="6.22139">
        <ele>1953</ele>
        <time>2024-06-05T21:15:16+00:00</time>
      </trkpt>
      <trkpt lat="45.41731" lon="6.22134">
        <ele>1953</ele>
        <time>2024-06-05T21:15:19+00:00</time>
      </trkpt>
      <trkpt lat="45.41732" lon="6.22127">
        <ele>1958</ele>
        <time>2024-06-05T21:15:22+00:00</time>
      </trkpt>
      <trkpt lat="45.41734" lon="6.22121">
        <ele>1958</ele>
        <time>2024-06-05T21:15:25+00:00</time>
      </trkpt>
      <trkpt lat="45.41731" lon="6.22118">
        <ele>1959</ele>
        <time>2024-06-05T21:15:28+00:00</time>
      </trkpt>
      <trkpt lat="45.41727" lon="6.2211">
        <ele>1964</ele>
        <time>2024-06-05T21:15:31+00:00</time>
      </trkpt>
      <trkpt lat="45.41727" lon="6.221">
        <ele>1964</ele>
        <time>2024-06-05T21:15:34+00:00</time>
      </trkpt>
      <trkpt lat="45.41719" lon="6.22087">
        <ele>1968</ele>
        <time>2024-06-05T21:15:37+00:00</time>
      </trkpt>
      <trkpt lat="45.4171" lon="6.2208">
        <ele>1968</ele>
        <time>2024-06-05T21:15:40+00:00</time>
      </trkpt>
      <trkpt lat="45.41705" lon="6.22077">
        <ele>1972</ele>
        <time>2024-06-05T21:15:43+00:00</time>
      </trkpt>
      <trkpt lat="45.41702" lon="6.22071">
        <ele>1972</ele>
        <time>2024-06-05T21:15:46+00:00</time>
      </trkpt>
      <trkpt lat="45.41699" lon="6.22068">
        <ele>1973</ele>
        <time>2024-06-05T21:15:49+00:00</time>
      </trkpt>
      <trkpt lat="45.41697" lon="6.22059">
        <ele>1975</ele>
        <time>2024-06-05T21:15:52+00:00</time>
      </trkpt>
      <trkpt lat="45.41696" lon="6.22054">
        <ele>1975</ele>
        <time>2024-06-05T21:15:55+00:00</time>
      </trkpt>
      <trkpt lat="45.41693" lon="6.22051">
        <ele>1975</ele>
        <time>2024-06-05T21:15:58+00:00</time>
      </trkpt>
      <trkpt lat="45.41691" lon="6.22046">
        <ele>1976</ele>
        <time>2024-06-05T21:16:01+00:00</time>
      </trkpt>
      <trkpt lat="45.41688" lon="6.22041">
        <ele>1976</ele>
        <time>2024-06-05T21:16:04+00:00</time>
      </trkpt>
      <trkpt lat="45.41687" lon="6.22035">
        <ele>1978</ele>
        <time>2024-06-05T21:16:07+00:00</time>
      </trkpt>
      <trkpt lat="45.41689" lon="6.22035">
        <ele>1978</ele>
        <time>2024-06-05T21:16:10+00:00</time>
      </trkpt>
      <trkpt lat="45.41689" lon="6.2203">
        <ele>1978</ele>
        <time>2024-06-05T21:16:13+00:00</time>
      </trkpt>
      <trkpt lat="45.41687" lon="6.22022">
        <ele>1978</ele>
        <time>2024-06-05T21:16:16+00:00</time>
      </trkpt>
      <trkpt lat="45.41684" lon="6.22016">
        <ele>1979</ele>
        <time>2024-06-05T21:16:19+00:00</time>
      </trkpt>
      <trkpt lat="45.4168" lon="6.22012">
        <ele>1979</ele>
        <time>2024-06-05T21:16:22+00:00</time>
      </trkpt>
      <trkpt lat="45.41677" lon="6.22007">
        <ele>1984</ele>
        <time>2024-06-05T21:16:25+00:00</time>
      </trkpt>
      <trkpt lat="45.41674" lon="6.21999">
        <ele>1985</ele>
        <time>2024-06-05T21:16:28+00:00</time>
      </trkpt>
      <trkpt lat="45.41669" lon="6.21992">
        <ele>1987</ele>
        <time>2024-06-05T21:16:31+00:00</time>
      </trkpt>
      <trkpt lat="45.41665" lon="6.21986">
        <ele>1988</ele>
        <time>2024-06-05T21:16:34+00:00</time>
      </trkpt>
      <trkpt lat="45.41661" lon="6.21983">
        <ele>1988</ele>
        <time>2024-06-05T21:16:37+00:00</time>
      </trkpt>
      <trkpt lat="45.41658" lon="6.2198">
        <ele>1989</ele>
        <time>2024-06-05T21:16:40+00:00</time>
      </trkpt>
      <trkpt lat="45.41656" lon="6.21978">
        <ele>1990</ele>
        <time>2024-06-05T21:16:43+00:00</time>
      </trkpt>
      <trkpt lat="45.41654" lon="6.21975">
        <ele>1990</ele>
        <time>2024-06-05T21:16:46+00:00</time>
      </trkpt>
      <trkpt lat="45.41653" lon="6.21972">
        <ele>1990</ele>
        <time>2024-06-05T21:16:49+00:00</time>
      </trkpt>
      <trkpt lat="45.4165" lon="6.21968">
        <ele>1994</ele>
        <time>2024-06-05T21:16:52+00:00</time>
      </trkpt>
      <trkpt lat="45.41654" lon="6.21965">
        <ele>1994</ele>
        <time>2024-06-05T21:16:55+00:00</time>
      </trkpt>
      <trkpt lat="45.41659" lon="6.21963">
        <ele>1994</ele>
        <time>2024-06-05T21:16:58+00:00</time>
      </trkpt>
      <trkpt lat="45.41661" lon="6.2196">
        <ele>2001</ele>
        <time>2024-06-05T21:17:01+00:00</time>
      </trkpt>
      <trkpt lat="45.41664" lon="6.21957">
        <ele>2001</ele>
        <time>2024-06-05T21:17:04+00:00</time>
      </trkpt>
      <trkpt lat="45.41668" lon="6.21956">
        <ele>2001</ele>
        <time>2024-06-05T21:17:07+00:00</time>
      </trkpt>
      <trkpt lat="45.41674" lon="6.21957">
        <ele>2003</ele>
        <time>2024-06-05T21:17:10+00:00</time>
      </trkpt>
      <trkpt lat="45.41681" lon="6.21956">
        <ele>2005</ele>
        <time>2024-06-05T21:17:13+00:00</time>
      </trkpt>
      <trkpt lat="45.41684" lon="6.21951">
        <ele>2005</ele>
        <time>2024-06-05T21:17:16+00:00</time>
      </trkpt>
      <trkpt lat="45.41696" lon="6.21955">
        <ele>2006</ele>
        <time>2024-06-05T21:17:19+00:00</time>
      </trkpt>
      <trkpt lat="45.41698" lon="6.21952">
        <ele>2006</ele>
        <time>2024-06-05T21:17:22+00:00</time>
      </trkpt>
      <trkpt lat="45.41712" lon="6.21945">
        <ele>2019</ele>
        <time>2024-06-05T21:17:25+00:00</time>
      </trkpt>
      <trkpt lat="45.4172" lon="6.21946">
        <ele>2019</ele>
        <time>2024-06-05T21:17:28+00:00</time>
      </trkpt>
      <trkpt lat="45.41732" lon="6.21947">
        <ele>2029</ele>
        <time>2024-06-05T21:17:31+00:00</time>
      </trkpt>
      <trkpt lat="45.41746" lon="6.2195">
        <ele>2036</ele>
        <time>2024-06-05T21:17:34+00:00</time>
      </trkpt>
      <trkpt lat="45.41751" lon="6.21953">
        <ele>2037</ele>
        <time>2024-06-05T21:17:37+00:00</time>
      </trkpt>
      <trkpt lat="45.41762" lon="6.21949">
        <ele>2044</ele>
        <time>2024-06-05T21:17:40+00:00</time>
      </trkpt>
      <trkpt lat="45.41768" lon="6.21951">
        <ele>2041</ele>
        <time>2024-06-05T21:17:43+00:00</time>
      </trkpt>
      <trkpt lat="45.41777" lon="6.21955">
        <ele>2045</ele>
        <time>2024-06-05T21:17:46+00:00</time>
      </trkpt>
      <trkpt lat="45.41782" lon="6.21954">
        <ele>2048</ele>
        <time>2024-06-05T21:17:49+00:00</time>
      </trkpt>
      <trkpt lat="45.41791" lon="6.21955">
        <ele>2052</ele>
        <time>2024-06-05T21:17:52+00:00</time>
      </trkpt>
      <trkpt lat="45.41809" lon="6.21957">
        <ele>2057</ele>
        <time>2024-06-05T21:17:55+00:00</time>
      </trkpt>
      <trkpt lat="45.41811" lon="6.21954">
        <ele>2060</ele>
        <time>2024-06-05T21:17:58+00:00</time>
      </trkpt>
      <trkpt lat="45.41817" lon="6.21955">
        <ele>2060</ele>
        <time>2024-06-05T21:18:01+00:00</time>
      </trkpt>
      <trkpt lat="45.41824" lon="6.2195">
        <ele>2062</ele>
        <time>2024-06-05T21:18:04+00:00</time>
      </trkpt>
      <trkpt lat="45.41834" lon="6.21946">
        <ele>2068</ele>
        <time>2024-06-05T21:18:07+00:00</time>
      </trkpt>
      <trkpt lat="45.41849" lon="6.21945">
        <ele>2070</ele>
        <time>2024-06-05T21:18:10+00:00</time>
      </trkpt>
      <trkpt lat="45.41856" lon="6.21941">
        <ele>2074</ele>
        <time>2024-06-05T21:18:13+00:00</time>
      </trkpt>
      <trkpt lat="45.41865" lon="6.2194">
        <ele>2083</ele>
        <time>2024-06-05T21:18:16+00:00</time>
      </trkpt>
      <trkpt lat="45.41868" lon="6.21937">
        <ele>2083</ele>
        <time>2024-06-05T21:18:19+00:00</time>
      </trkpt>
      <trkpt lat="45.41878" lon="6.21935">
        <ele>2086</ele>
        <time>2024-06-05T21:18:22+00:00</time>
      </trkpt>
      <trkpt lat="45.41878" lon="6.2193">
        <ele>2086</ele>
        <time>2024-06-05T21:18:25+00:00</time>
      </trkpt>
      <trkpt lat="45.41887" lon="6.21926">
        <ele>2093</ele>
        <time>2024-06-05T21:18:28+00:00</time>
      </trkpt>
      <trkpt lat="45.4189" lon="6.21928">
        <ele>2093</ele>
        <time>2024-06-05T21:18:31+00:00</time>
      </trkpt>
      <trkpt lat="45.41901" lon="6.21926">
        <ele>2093</ele>
        <time>2024-06-05T21:18:34+00:00</time>
      </trkpt>
      <trkpt lat="45.41918" lon="6.21917">
        <ele>2093</ele>
        <time>2024-06-05T21:18:37+00:00</time>
      </trkpt>
      <trkpt lat="45.41932" lon="6.21922">
        <ele>2101</ele>
        <time>2024-06-05T21:18:40+00:00</time>
      </trkpt>
      <trkpt lat="45.41962" lon="6.21936">
        <ele>2110</ele>
        <time>2024-06-05T21:18:43+00:00</time>
      </trkpt>
      <trkpt lat="45.41969" lon="6.21937">
        <ele>2110</ele>
        <time>2024-06-05T21:18:46+00:00</time>
      </trkpt>
      <trkpt lat="45.41965" lon="6.21918">
        <ele>2115</ele>
        <time>2024-06-05T21:18:49+00:00</time>
      </trkpt>
      <trkpt lat="45.41964" lon="6.21902">
        <ele>2117</ele>
        <time>2024-06-05T21:18:52+00:00</time>
      </trkpt>
      <trkpt lat="45.41962" lon="6.21878">
        <ele>2123</ele>
        <time>2024-06-05T21:18:55+00:00</time>
      </trkpt>
      <trkpt lat="45.41965" lon="6.2186">
        <ele>2127</ele>
        <time>2024-06-05T21:18:58+00:00</time>
      </trkpt>
      <trkpt lat="45.41977" lon="6.2185">
        <ele>2131</ele>
        <time>2024-06-05T21:19:01+00:00</time>
      </trkpt>
      <trkpt lat="45.41992" lon="6.21841">
        <ele>2131</ele>
        <time>2024-06-05T21:19:04+00:00</time>
      </trkpt>
      <trkpt lat="45.42006" lon="6.21834">
        <ele>2136</ele>
        <time>2024-06-05T21:19:07+00:00</time>
      </trkpt>
      <trkpt lat="45.42017" lon="6.21825">
        <ele>2135</ele>
        <time>2024-06-05T21:19:10+00:00</time>
      </trkpt>
      <trkpt lat="45.42029" lon="6.21816">
        <ele>2136</ele>
        <time>2024-06-05T21:19:13+00:00</time>
      </trkpt>
      <trkpt lat="45.42043" lon="6.21808">
        <ele>2139</ele>
        <time>2024-06-05T21:19:16+00:00</time>
      </trkpt>
      <trkpt lat="45.42055" lon="6.21805">
        <ele>2140</ele>
        <time>2024-06-05T21:19:19+00:00</time>
      </trkpt>
      <trkpt lat="45.42064" lon="6.21806">
        <ele>2144</ele>
        <time>2024-06-05T21:19:22+00:00</time>
      </trkpt>
      <trkpt lat="45.42066" lon="6.21798">
        <ele>2145</ele>
        <time>2024-06-05T21:19:25+00:00</time>
      </trkpt>
      <trkpt lat="45.42067" lon="6.21791">
        <ele>2145</ele>
        <time>2024-06-05T21:19:28+00:00</time>
      </trkpt>
      <trkpt lat="45.42069" lon="6.21788">
        <ele>2146</ele>
        <time>2024-06-05T21:19:31+00:00</time>
      </trkpt>
      <trkpt lat="45.4207" lon="6.21781">
        <ele>2146</ele>
        <time>2024-06-05T21:19:34+00:00</time>
      </trkpt>
      <trkpt lat="45.42071" lon="6.21778">
        <ele>2155</ele>
        <time>2024-06-05T21:19:37+00:00</time>
      </trkpt>
      <trkpt lat="45.42074" lon="6.2177">
        <ele>2155</ele>
        <time>2024-06-05T21:19:40+00:00</time>
      </trkpt>
      <trkpt lat="45.42077" lon="6.21767">
        <ele>2156</ele>
        <time>2024-06-05T21:19:43+00:00</time>
      </trkpt>
      <trkpt lat="45.42079" lon="6.2176">
        <ele>2157</ele>
        <time>2024-06-05T21:19:46+00:00</time>
      </trkpt>
      <trkpt lat="45.42084" lon="6.21752">
        <ele>2162</ele>
        <time>2024-06-05T21:19:49+00:00</time>
      </trkpt>
      <trkpt lat="45.42086" lon="6.21745">
        <ele>2164</ele>
        <time>2024-06-05T21:19:52+00:00</time>
      </trkpt>
      <trkpt lat="45.42088" lon="6.21738">
        <ele>2165</ele>
        <time>2024-06-05T21:19:55+00:00</time>
      </trkpt>
      <trkpt lat="45.42092" lon="6.21729">
        <ele>2172</ele>
        <time>2024-06-05T21:19:58+00:00</time>
      </trkpt>
      <trkpt lat="45.42097" lon="6.21724">
        <ele>2172</ele>
        <time>2024-06-05T21:20:01+00:00</time>
      </trkpt>
      <trkpt lat="45.42104" lon="6.21721">
        <ele>2179</ele>
        <time>2024-06-05T21:20:04+00:00</time>
      </trkpt>
      <trkpt lat="45.42106" lon="6.21715">
        <ele>2179</ele>
        <time>2024-06-05T21:20:07+00:00</time>
      </trkpt>
      <trkpt lat="45.42112" lon="6.21705">
        <ele>2184</ele>
        <time>2024-06-05T21:20:10+00:00</time>
      </trkpt>
      <trkpt lat="45.42117" lon="6.21699">
        <ele>2182</ele>
        <time>2024-06-05T21:20:13+00:00</time>
      </trkpt>
      <trkpt lat="45.42121" lon="6.21691">
        <ele>2188</ele>
        <time>2024-06-05T21:20:16+00:00</time>
      </trkpt>
      <trkpt lat="45.42123" lon="6.21679">
        <ele>2189</ele>
        <time>2024-06-05T21:20:19+00:00</time>
      </trkpt>
      <trkpt lat="45.42123" lon="6.21674">
        <ele>2189</ele>
        <time>2024-06-05T21:20:22+00:00</time>
      </trkpt>
      <trkpt lat="45.42122" lon="6.21669">
        <ele>2189</ele>
        <time>2024-06-05T21:20:25+00:00</time>
      </trkpt>
      <trkpt lat="45.42122" lon="6.21665">
        <ele>2189</ele>
        <time>2024-06-05T21:20:28+00:00</time>
      </trkpt>
      <trkpt lat="45.42125" lon="6.21667">
        <ele>2189</ele>
        <time>2024-06-05T21:20:31+00:00</time>
      </trkpt>
      <trkpt lat="45.42125" lon="6.21664">
        <ele>2189</ele>
        <time>2024-06-05T21:20:34+00:00</time>
      </trkpt>
      <trkpt lat="45.42125" lon="6.2166">
        <ele>2191</ele>
        <time>2024-06-05T21:20:37+00:00</time>
      </trkpt>
      <trkpt lat="45.42125" lon="6.21653">
        <ele>2191</ele>
        <time>2024-06-05T21:20:40+00:00</time>
      </trkpt>
      <trkpt lat="45.42127" lon="6.21648">
        <ele>2191</ele>
        <time>2024-06-05T21:20:43+00:00</time>
      </trkpt>
      <trkpt lat="45.42128" lon="6.21643">
        <ele>2191</ele>
        <time>2024-06-05T21:20:46+00:00</time>
      </trkpt>
      <trkpt lat="45.42129" lon="6.21639">
        <ele>2191</ele>
        <time>2024-06-05T21:20:49+00:00</time>
      </trkpt>
      <trkpt lat="45.4213" lon="6.21634">
        <ele>2200</ele>
        <time>2024-06-05T21:20:52+00:00</time>
      </trkpt>
      <trkpt lat="45.42132" lon="6.21632">
        <ele>2200</ele>
        <time>2024-06-05T21:20:55+00:00</time>
      </trkpt>
      <trkpt lat="45.42133" lon="6.2163">
        <ele>2200</ele>
        <time>2024-06-05T21:20:58+00:00</time>
      </trkpt>
      <trkpt lat="45.42133" lon="6.21628">
        <ele>2200</ele>
        <time>2024-06-05T21:21:01+00:00</time>
      </trkpt>
      <trkpt lat="45.42134" lon="6.21622">
        <ele>2200</ele>
        <time>2024-06-05T21:21:04+00:00</time>
      </trkpt>
      <trkpt lat="45.42135" lon="6.21618">
        <ele>2201</ele>
        <time>2024-06-05T21:21:07+00:00</time>
      </trkpt>
      <trkpt lat="45.42136" lon="6.21614">
        <ele>2201</ele>
        <time>2024-06-05T21:21:10+00:00</time>
      </trkpt>
      <trkpt lat="45.42138" lon="6.21609">
        <ele>2202</ele>
        <time>2024-06-05T21:21:13+00:00</time>
      </trkpt>
      <trkpt lat="45.4214" lon="6.21604">
        <ele>2202</ele>
        <time>2024-06-05T21:21:16+00:00</time>
      </trkpt>
      <trkpt lat="45.42139" lon="6.21596">
        <ele>2204</ele>
        <time>2024-06-05T21:21:19+00:00</time>
      </trkpt>
      <trkpt lat="45.42139" lon="6.21588">
        <ele>2205</ele>
        <time>2024-06-05T21:21:22+00:00</time>
      </trkpt>
      <trkpt lat="45.42139" lon="6.21579">
        <ele>2207</ele>
        <time>2024-06-05T21:21:25+00:00</time>
      </trkpt>
      <trkpt lat="45.42138" lon="6.21572">
        <ele>2207</ele>
        <time>2024-06-05T21:21:28+00:00</time>
      </trkpt>
      <trkpt lat="45.42138" lon="6.21565">
        <ele>2211</ele>
        <time>2024-06-05T21:21:31+00:00</time>
      </trkpt>
      <trkpt lat="45.42137" lon="6.21559">
        <ele>2213</ele>
        <time>2024-06-05T21:21:34+00:00</time>
      </trkpt>
      <trkpt lat="45.42136" lon="6.21556">
        <ele>2213</ele>
        <time>2024-06-05T21:21:37+00:00</time>
      </trkpt>
      <trkpt lat="45.42135" lon="6.21553">
        <ele>2213</ele>
        <time>2024-06-05T21:21:40+00:00</time>
      </trkpt>
      <trkpt lat="45.42135" lon="6.2155">
        <ele>2213</ele>
        <time>2024-06-05T21:21:43+00:00</time>
      </trkpt>
      <trkpt lat="45.42135" lon="6.21546">
        <ele>2216</ele>
        <time>2024-06-05T21:21:46+00:00</time>
      </trkpt>
      <trkpt lat="45.42134" lon="6.21539">
        <ele>2220</ele>
        <time>2024-06-05T21:21:49+00:00</time>
      </trkpt>
      <trkpt lat="45.42134" lon="6.21534">
        <ele>2220</ele>
        <time>2024-06-05T21:21:52+00:00</time>
      </trkpt>
      <trkpt lat="45.42135" lon="6.2153">
        <ele>2222</ele>
        <time>2024-06-05T21:21:55+00:00</time>
      </trkpt>
      <trkpt lat="45.42135" lon="6.21523">
        <ele>2222</ele>
        <time>2024-06-05T21:21:58+00:00</time>
      </trkpt>
      <trkpt lat="45.42134" lon="6.21517">
        <ele>2224</ele>
        <time>2024-06-05T21:22:01+00:00</time>
      </trkpt>
      <trkpt lat="45.42132" lon="6.21515">
        <ele>2224</ele>
        <time>2024-06-05T21:22:04+00:00</time>
      </trkpt>
      <trkpt lat="45.42132" lon="6.21509">
        <ele>2229</ele>
        <time>2024-06-05T21:22:07+00:00</time>
      </trkpt>
      <trkpt lat="45.42131" lon="6.21506">
        <ele>2229</ele>
        <time>2024-06-05T21:22:10+00:00</time>
      </trkpt>
      <trkpt lat="45.4213" lon="6.21501">
        <ele>2229</ele>
        <time>2024-06-05T21:22:13+00:00</time>
      </trkpt>
      <trkpt lat="45.42129" lon="6.21494">
        <ele>2224</ele>
        <time>2024-06-05T21:22:16+00:00</time>
      </trkpt>
      <trkpt lat="45.42127" lon="6.21489">
        <ele>2228</ele>
        <time>2024-06-05T21:22:19+00:00</time>
      </trkpt>
      <trkpt lat="45.42127" lon="6.21484">
        <ele>2228</ele>
        <time>2024-06-05T21:22:22+00:00</time>
      </trkpt>
      <trkpt lat="45.42125" lon="6.21478">
        <ele>2232</ele>
        <time>2024-06-05T21:22:25+00:00</time>
      </trkpt>
      <trkpt lat="45.42124" lon="6.21472">
        <ele>2232</ele>
        <time>2024-06-05T21:22:28+00:00</time>
      </trkpt>
      <trkpt lat="45.42122" lon="6.21469">
        <ele>2239</ele>
        <time>2024-06-05T21:22:31+00:00</time>
      </trkpt>
      <trkpt lat="45.4212" lon="6.21467">
        <ele>2239</ele>
        <time>2024-06-05T21:22:34+00:00</time>
      </trkpt>
      <trkpt lat="45.42118" lon="6.21465">
        <ele>2236</ele>
        <time>2024-06-05T21:22:37+00:00</time>
      </trkpt>
      <trkpt lat="45.42117" lon="6.2146">
        <ele>2236</ele>
        <time>2024-06-05T21:22:40+00:00</time>
      </trkpt>
      <trkpt lat="45.42116" lon="6.21458">
        <ele>2239</ele>
        <time>2024-06-05T21:22:43+00:00</time>
      </trkpt>
      <trkpt lat="45.42115" lon="6.21453">
        <ele>2239</ele>
        <time>2024-06-05T21:22:46+00:00</time>
      </trkpt>
      <trkpt lat="45.42115" lon="6.21449">
        <ele>2243</ele>
        <time>2024-06-05T21:22:49+00:00</time>
      </trkpt>
      <trkpt lat="45.42114" lon="6.21444">
        <ele>2243</ele>
        <time>2024-06-05T21:22:52+00:00</time>
      </trkpt>
      <trkpt lat="45.42112" lon="6.21441">
        <ele>2243</ele>
        <time>2024-06-05T21:22:55+00:00</time>
      </trkpt>
      <trkpt lat="45.4211" lon="6.21439">
        <ele>2250</ele>
        <time>2024-06-05T21:22:58+00:00</time>
      </trkpt>
      <trkpt lat="45.42108" lon="6.21437">
        <ele>2250</ele>
        <time>2024-06-05T21:23:01+00:00</time>
      </trkpt>
      <trkpt lat="45.42111" lon="6.21436">
        <ele>2250</ele>
        <time>2024-06-05T21:23:04+00:00</time>
      </trkpt>
      <trkpt lat="45.42114" lon="6.21435">
        <ele>2250</ele>
        <time>2024-06-05T21:23:07+00:00</time>
      </trkpt>
      <trkpt lat="45.42116" lon="6.21435">
        <ele>2250</ele>
        <time>2024-06-05T21:23:10+00:00</time>
      </trkpt>
      <trkpt lat="45.42119" lon="6.21434">
        <ele>2250</ele>
        <time>2024-06-05T21:23:13+00:00</time>
      </trkpt>
      <trkpt lat="45.42123" lon="6.21435">
        <ele>2251</ele>
        <time>2024-06-05T21:23:16+00:00</time>
      </trkpt>
      <trkpt lat="45.42126" lon="6.21437">
        <ele>2251</ele>
        <time>2024-06-05T21:23:19+00:00</time>
      </trkpt>
      <trkpt lat="45.4213" lon="6.21439">
        <ele>2258</ele>
        <time>2024-06-05T21:23:22+00:00</time>
      </trkpt>
      <trkpt lat="45.42134" lon="6.21441">
        <ele>2253</ele>
        <time>2024-06-05T21:23:25+00:00</time>
      </trkpt>
      <trkpt lat="45.42137" lon="6.21443">
        <ele>2253</ele>
        <time>2024-06-05T21:23:28+00:00</time>
      </trkpt>
      <trkpt lat="45.42138" lon="6.21443">
        <ele>2253</ele>
        <time>2024-06-05T21:23:31+00:00</time>
      </trkpt>
      <trkpt lat="45.42141" lon="6.21447">
        <ele>2258</ele>
        <time>2024-06-05T21:23:34+00:00</time>
      </trkpt>
      <trkpt lat="45.42143" lon="6.21449">
        <ele>2258</ele>
        <time>2024-06-05T21:23:37+00:00</time>
      </trkpt>
      <trkpt lat="45.42146" lon="6.21449">
        <ele>2258</ele>
        <time>2024-06-05T21:23:40+00:00</time>
      </trkpt>
      <trkpt lat="45.42148" lon="6.2145">
        <ele>2258</ele>
        <time>2024-06-05T21:23:43+00:00</time>
      </trkpt>
      <trkpt lat="45.42147" lon="6.21445">
        <ele>2258</ele>
        <time>2024-06-05T21:23:46+00:00</time>
      </trkpt>
      <trkpt lat="45.42145" lon="6.21439">
        <ele>2264</ele>
        <time>2024-06-05T21:23:49+00:00</time>
      </trkpt>
      <trkpt lat="45.42144" lon="6.21434">
        <ele>2264</ele>
        <time>2024-06-05T21:23:52+00:00</time>
      </trkpt>
      <trkpt lat="45.42141" lon="6.2143">
        <ele>2268</ele>
        <time>2024-06-05T21:23:55+00:00</time>
      </trkpt>
      <trkpt lat="45.4214" lon="6.21425">
        <ele>2263</ele>
        <time>2024-06-05T21:23:58+00:00</time>
      </trkpt>
      <trkpt lat="45.42138" lon="6.21421">
        <ele>2263</ele>
        <time>2024-06-05T21:24:01+00:00</time>
      </trkpt>
      <trkpt lat="45.42136" lon="6.21416">
        <ele>2267</ele>
        <time>2024-06-05T21:24:04+00:00</time>
      </trkpt>
      <trkpt lat="45.42135" lon="6.2141">
        <ele>2272</ele>
        <time>2024-06-05T21:24:07+00:00</time>
      </trkpt>
      <trkpt lat="45.42134" lon="6.21406">
        <ele>2272</ele>
        <time>2024-06-05T21:24:10+00:00</time>
      </trkpt>
      <trkpt lat="45.42134" lon="6.21402">
        <ele>2272</ele>
        <time>2024-06-05T21:24:13+00:00</time>
      </trkpt>
      <trkpt lat="45.42134" lon="6.21397">
        <ele>2275</ele>
        <time>2024-06-05T21:24:16+00:00</time>
      </trkpt>
      <trkpt lat="45.42137" lon="6.214">
        <ele>2275</ele>
        <time>2024-06-05T21:24:19+00:00</time>
      </trkpt>
      <trkpt lat="45.4214" lon="6.214">
        <ele>2278</ele>
        <time>2024-06-05T21:24:22+00:00</time>
      </trkpt>
      <trkpt lat="45.42143" lon="6.214">
        <ele>2278</ele>
        <time>2024-06-05T21:24:25+00:00</time>
      </trkpt>
      <trkpt lat="45.42146" lon="6.21401">
        <ele>2275</ele>
        <time>2024-06-05T21:24:28+00:00</time>
      </trkpt>
      <trkpt lat="45.42148" lon="6.21403">
        <ele>2275</ele>
        <time>2024-06-05T21:24:31+00:00</time>
      </trkpt>
      <trkpt lat="45.42152" lon="6.21404">
        <ele>2279</ele>
        <time>2024-06-05T21:24:34+00:00</time>
      </trkpt>
      <trkpt lat="45.42155" lon="6.21405">
        <ele>2279</ele>
        <time>2024-06-05T21:24:37+00:00</time>
      </trkpt>
      <trkpt lat="45.42158" lon="6.21407">
        <ele>2279</ele>
        <time>2024-06-05T21:24:40+00:00</time>
      </trkpt>
      <trkpt lat="45.42161" lon="6.21408">
        <ele>2282</ele>
        <time>2024-06-05T21:24:43+00:00</time>
      </trkpt>
      <trkpt lat="45.42164" lon="6.21407">
        <ele>2282</ele>
        <time>2024-06-05T21:24:46+00:00</time>
      </trkpt>
      <trkpt lat="45.42167" lon="6.21409">
        <ele>2282</ele>
        <time>2024-06-05T21:24:49+00:00</time>
      </trkpt>
      <trkpt lat="45.42171" lon="6.2141">
        <ele>2284</ele>
        <time>2024-06-05T21:24:52+00:00</time>
      </trkpt>
      <trkpt lat="45.42175" lon="6.21412">
        <ele>2284</ele>
        <time>2024-06-05T21:24:55+00:00</time>
      </trkpt>
      <trkpt lat="45.42178" lon="6.21414">
        <ele>2284</ele>
        <time>2024-06-05T21:24:58+00:00</time>
      </trkpt>
      <trkpt lat="45.4218" lon="6.21416">
        <ele>2288</ele>
        <time>2024-06-05T21:25:01+00:00</time>
      </trkpt>
      <trkpt lat="45.42185" lon="6.21419">
        <ele>2288</ele>
        <time>2024-06-05T21:25:04+00:00</time>
      </trkpt>
      <trkpt lat="45.42189" lon="6.21422">
        <ele>2286</ele>
        <time>2024-06-05T21:25:07+00:00</time>
      </trkpt>
      <trkpt lat="45.42192" lon="6.21423">
        <ele>2290</ele>
        <time>2024-06-05T21:25:10+00:00</time>
      </trkpt>
      <trkpt lat="45.42194" lon="6.21424">
        <ele>2290</ele>
        <time>2024-06-05T21:25:13+00:00</time>
      </trkpt>
      <trkpt lat="45.42195" lon="6.21427">
        <ele>2290</ele>
        <time>2024-06-05T21:25:16+00:00</time>
      </trkpt>
      <trkpt lat="45.42198" lon="6.21431">
        <ele>2288</ele>
        <time>2024-06-05T21:25:19+00:00</time>
      </trkpt>
      <trkpt lat="45.42201" lon="6.21434">
        <ele>2294</ele>
        <time>2024-06-05T21:25:22+00:00</time>
      </trkpt>
      <trkpt lat="45.42203" lon="6.21437">
        <ele>2294</ele>
        <time>2024-06-05T21:25:25+00:00</time>
      </trkpt>
      <trkpt lat="45.42206" lon="6.21441">
        <ele>2292</ele>
        <time>2024-06-05T21:25:28+00:00</time>
      </trkpt>
      <trkpt lat="45.42209" lon="6.21445">
        <ele>2292</ele>
        <time>2024-06-05T21:25:31+00:00</time>
      </trkpt>
      <trkpt lat="45.4221" lon="6.2145">
        <ele>2297</ele>
        <time>2024-06-05T21:25:34+00:00</time>
      </trkpt>
      <trkpt lat="45.42213" lon="6.21453">
        <ele>2295</ele>
        <time>2024-06-05T21:25:37+00:00</time>
      </trkpt>
      <trkpt lat="45.42215" lon="6.21456">
        <ele>2295</ele>
        <time>2024-06-05T21:25:40+00:00</time>
      </trkpt>
      <trkpt lat="45.42215" lon="6.21462">
        <ele>2293</ele>
        <time>2024-06-05T21:25:43+00:00</time>
      </trkpt>
      <trkpt lat="45.42216" lon="6.21466">
        <ele>2291</ele>
        <time>2024-06-05T21:25:46+00:00</time>
      </trkpt>
      <trkpt lat="45.42218" lon="6.21469">
        <ele>2293</ele>
        <time>2024-06-05T21:25:49+00:00</time>
      </trkpt>
      <trkpt lat="45.42221" lon="6.21474">
        <ele>2294</ele>
        <time>2024-06-05T21:25:52+00:00</time>
      </trkpt>
      <trkpt lat="45.42223" lon="6.21487">
        <ele>2293</ele>
        <time>2024-06-05T21:25:55+00:00</time>
      </trkpt>
      <trkpt lat="45.42227" lon="6.21496">
        <ele>2291</ele>
        <time>2024-06-05T21:25:58+00:00</time>
      </trkpt>
      <trkpt lat="45.4223" lon="6.21505">
        <ele>2288</ele>
        <time>2024-06-05T21:26:01+00:00</time>
      </trkpt>
      <trkpt lat="45.4223" lon="6.21517">
        <ele>2295</ele>
        <time>2024-06-05T21:26:04+00:00</time>
      </trkpt>
      <trkpt lat="45.42228" lon="6.21529">
        <ele>2291</ele>
        <time>2024-06-05T21:26:07+00:00</time>
      </trkpt>
      <trkpt lat="45.42228" lon="6.21533">
        <ele>2289</ele>
        <time>2024-06-05T21:26:10+00:00</time>
      </trkpt>
      <trkpt lat="45.42226" lon="6.21535">
        <ele>2289</ele>
        <time>2024-06-05T21:26:13+00:00</time>
      </trkpt>
      <trkpt lat="45.42227" lon="6.21542">
        <ele>2285</ele>
        <time>2024-06-05T21:26:16+00:00</time>
      </trkpt>
      <trkpt lat="45.42228" lon="6.21547">
        <ele>2285</ele>
        <time>2024-06-05T21:26:19+00:00</time>
      </trkpt>
      <trkpt lat="45.4223" lon="6.21552">
        <ele>2282</ele>
        <time>2024-06-05T21:26:22+00:00</time>
      </trkpt>
      <trkpt lat="45.4223" lon="6.21557">
        <ele>2290</ele>
        <time>2024-06-05T21:26:25+00:00</time>
      </trkpt>
      <trkpt lat="45.4223" lon="6.21562">
        <ele>2288</ele>
        <time>2024-06-05T21:26:28+00:00</time>
      </trkpt>
      <trkpt lat="45.42231" lon="6.21566">
        <ele>2288</ele>
        <time>2024-06-05T21:26:31+00:00</time>
      </trkpt>
      <trkpt lat="45.42232" lon="6.2157">
        <ele>2285</ele>
        <time>2024-06-05T21:26:34+00:00</time>
      </trkpt>
      <trkpt lat="45.42233" lon="6.21572">
        <ele>2285</ele>
        <time>2024-06-05T21:26:37+00:00</time>
      </trkpt>
      <trkpt lat="45.42234" lon="6.21572">
        <ele>2285</ele>
        <time>2024-06-05T21:26:40+00:00</time>
      </trkpt>
      <trkpt lat="45.42236" lon="6.21571">
        <ele>2285</ele>
        <time>2024-06-05T21:26:43+00:00</time>
      </trkpt>
      <trkpt lat="45.42237" lon="6.21573">
        <ele>2285</ele>
        <time>2024-06-05T21:26:46+00:00</time>
      </trkpt>
      <trkpt lat="45.42239" lon="6.21576">
        <ele>2285</ele>
        <time>2024-06-05T21:26:49+00:00</time>
      </trkpt>
      <trkpt lat="45.42239" lon="6.21579">
        <ele>2285</ele>
        <time>2024-06-05T21:26:52+00:00</time>
      </trkpt>
      <trkpt lat="45.42239" lon="6.21581">
        <ele>2284</ele>
        <time>2024-06-05T21:26:55+00:00</time>
      </trkpt>
      <trkpt lat="45.42241" lon="6.21583">
        <ele>2285</ele>
        <time>2024-06-05T21:26:58+00:00</time>
      </trkpt>
      <trkpt lat="45.42242" lon="6.21585">
        <ele>2285</ele>
        <time>2024-06-05T21:27:01+00:00</time>
      </trkpt>
      <trkpt lat="45.42246" lon="6.21588">
        <ele>2285</ele>
        <time>2024-06-05T21:27:04+00:00</time>
      </trkpt>
      <trkpt lat="45.42249" lon="6.21591">
        <ele>2283</ele>
        <time>2024-06-05T21:27:07+00:00</time>
      </trkpt>
      <trkpt lat="45.42252" lon="6.21592">
        <ele>2285</ele>
        <time>2024-06-05T21:27:10+00:00</time>
      </trkpt>
      <trkpt lat="45.42255" lon="6.21595">
        <ele>2285</ele>
        <time>2024-06-05T21:27:13+00:00</time>
      </trkpt>
      <trkpt lat="45.42258" lon="6.21595">
        <ele>2285</ele>
        <time>2024-06-05T21:27:16+00:00</time>
      </trkpt>
      <trkpt lat="45.42261" lon="6.21595">
        <ele>2285</ele>
        <time>2024-06-05T21:27:19+00:00</time>
      </trkpt>
      <trkpt lat="45.42265" lon="6.21595">
        <ele>2285</ele>
        <time>2024-06-05T21:27:22+00:00</time>
      </trkpt>
      <trkpt lat="45.42268" lon="6.21597">
        <ele>2285</ele>
        <time>2024-06-05T21:27:25+00:00</time>
      </trkpt>
      <trkpt lat="45.4227" lon="6.21601">
        <ele>2289</ele>
        <time>2024-06-05T21:27:28+00:00</time>
      </trkpt>
      <trkpt lat="45.42272" lon="6.21604">
        <ele>2289</ele>
        <time>2024-06-05T21:27:31+00:00</time>
      </trkpt>
      <trkpt lat="45.42272" lon="6.21607">
        <ele>2289</ele>
        <time>2024-06-05T21:27:34+00:00</time>
      </trkpt>
      <trkpt lat="45.42271" lon="6.21609">
        <ele>2289</ele>
        <time>2024-06-05T21:27:37+00:00</time>
      </trkpt>
      <trkpt lat="45.42271" lon="6.21613">
        <ele>2291</ele>
        <time>2024-06-05T21:27:40+00:00</time>
      </trkpt>
      <trkpt lat="45.42271" lon="6.21618">
        <ele>2291</ele>
        <time>2024-06-05T21:27:43+00:00</time>
      </trkpt>
      <trkpt lat="45.42271" lon="6.21623">
        <ele>2293</ele>
        <time>2024-06-05T21:27:46+00:00</time>
      </trkpt>
      <trkpt lat="45.42273" lon="6.21628">
        <ele>2293</ele>
        <time>2024-06-05T21:27:49+00:00</time>
      </trkpt>
      <trkpt lat="45.42274" lon="6.21631">
        <ele>2297</ele>
        <time>2024-06-05T21:27:52+00:00</time>
      </trkpt>
      <trkpt lat="45.42276" lon="6.21633">
        <ele>2297</ele>
        <time>2024-06-05T21:27:55+00:00</time>
      </trkpt>
      <trkpt lat="45.42276" lon="6.21635">
        <ele>2297</ele>
        <time>2024-06-05T21:27:58+00:00</time>
      </trkpt>
      <trkpt lat="45.42277" lon="6.21638">
        <ele>2297</ele>
        <time>2024-06-05T21:28:01+00:00</time>
      </trkpt>
      <trkpt lat="45.42278" lon="6.21642">
        <ele>2300</ele>
        <time>2024-06-05T21:28:04+00:00</time>
      </trkpt>
      <trkpt lat="45.4228" lon="6.21646">
        <ele>2300</ele>
        <time>2024-06-05T21:28:07+00:00</time>
      </trkpt>
      <trkpt lat="45.42283" lon="6.2165">
        <ele>2294</ele>
        <time>2024-06-05T21:28:10+00:00</time>
      </trkpt>
      <trkpt lat="45.42285" lon="6.21652">
        <ele>2297</ele>
        <time>2024-06-05T21:28:13+00:00</time>
      </trkpt>
      <trkpt lat="45.42287" lon="6.21654">
        <ele>2297</ele>
        <time>2024-06-05T21:28:16+00:00</time>
      </trkpt>
      <trkpt lat="45.42289" lon="6.21657">
        <ele>2297</ele>
        <time>2024-06-05T21:28:19+00:00</time>
      </trkpt>
      <trkpt lat="45.42292" lon="6.21658">
        <ele>2289</ele>
        <time>2024-06-05T21:28:22+00:00</time>
      </trkpt>
      <trkpt lat="45.42294" lon="6.2166">
        <ele>2289</ele>
        <time>2024-06-05T21:28:25+00:00</time>
      </trkpt>
      <trkpt lat="45.42298" lon="6.21665">
        <ele>2296</ele>
        <time>2024-06-05T21:28:28+00:00</time>
      </trkpt>
      <trkpt lat="45.423" lon="6.21669">
        <ele>2296</ele>
        <time>2024-06-05T21:28:31+00:00</time>
      </trkpt>
      <trkpt lat="45.42302" lon="6.21674">
        <ele>2296</ele>
        <time>2024-06-05T21:28:34+00:00</time>
      </trkpt>
      <trkpt lat="45.42306" lon="6.21675">
        <ele>2296</ele>
        <time>2024-06-05T21:28:37+00:00</time>
      </trkpt>
      <trkpt lat="45.42308" lon="6.21676">
        <ele>2296</ele>
        <time>2024-06-05T21:28:40+00:00</time>
      </trkpt>
      <trkpt lat="45.42309" lon="6.21678">
        <ele>2296</ele>
        <time>2024-06-05T21:28:43+00:00</time>
      </trkpt>
      <trkpt lat="45.42311" lon="6.21681">
        <ele>2297</ele>
        <time>2024-06-05T21:28:46+00:00</time>
      </trkpt>
      <trkpt lat="45.42314" lon="6.21684">
        <ele>2297</ele>
        <time>2024-06-05T21:28:49+00:00</time>
      </trkpt>
      <trkpt lat="45.42316" lon="6.21689">
        <ele>2297</ele>
        <time>2024-06-05T21:28:52+00:00</time>
      </trkpt>
      <trkpt lat="45.42317" lon="6.21694">
        <ele>2297</ele>
        <time>2024-06-05T21:28:55+00:00</time>
      </trkpt>
      <trkpt lat="45.42318" lon="6.21699">
        <ele>2297</ele>
        <time>2024-06-05T21:28:58+00:00</time>
      </trkpt>
      <trkpt lat="45.42319" lon="6.2171">
        <ele>2299</ele>
        <time>2024-06-05T21:29:01+00:00</time>
      </trkpt>
      <trkpt lat="45.42322" lon="6.21717">
        <ele>2300</ele>
        <time>2024-06-05T21:29:04+00:00</time>
      </trkpt>
      <trkpt lat="45.42327" lon="6.21725">
        <ele>2302</ele>
        <time>2024-06-05T21:29:07+00:00</time>
      </trkpt>
      <trkpt lat="45.42329" lon="6.2173">
        <ele>2302</ele>
        <time>2024-06-05T21:29:10+00:00</time>
      </trkpt>
      <trkpt lat="45.42331" lon="6.21738">
        <ele>2305</ele>
        <time>2024-06-05T21:29:13+00:00</time>
      </trkpt>
      <trkpt lat="45.42331" lon="6.21744">
        <ele>2306</ele>
        <time>2024-06-05T21:29:16+00:00</time>
      </trkpt>
      <trkpt lat="45.42333" lon="6.21751">
        <ele>2308</ele>
        <time>2024-06-05T21:29:19+00:00</time>
      </trkpt>
      <trkpt lat="45.42334" lon="6.21758">
        <ele>2308</ele>
        <time>2024-06-05T21:29:22+00:00</time>
      </trkpt>
      <trkpt lat="45.42336" lon="6.21765">
        <ele>2309</ele>
        <time>2024-06-05T21:29:25+00:00</time>
      </trkpt>
      <trkpt lat="45.42335" lon="6.21772">
        <ele>2311</ele>
        <time>2024-06-05T21:29:28+00:00</time>
      </trkpt>
      <trkpt lat="45.42336" lon="6.21781">
        <ele>2316</ele>
        <time>2024-06-05T21:29:31+00:00</time>
      </trkpt>
      <trkpt lat="45.42336" lon="6.21791">
        <ele>2318</ele>
        <time>2024-06-05T21:29:34+00:00</time>
      </trkpt>
      <trkpt lat="45.42337" lon="6.21799">
        <ele>2318</ele>
        <time>2024-06-05T21:29:37+00:00</time>
      </trkpt>
      <trkpt lat="45.42338" lon="6.21807">
        <ele>2325</ele>
        <time>2024-06-05T21:29:40+00:00</time>
      </trkpt>
      <trkpt lat="45.42339" lon="6.21812">
        <ele>2335</ele>
        <time>2024-06-05T21:29:43+00:00</time>
      </trkpt>
      <trkpt lat="45.42341" lon="6.21816">
        <ele>2327</ele>
        <time>2024-06-05T21:29:46+00:00</time>
      </trkpt>
      <trkpt lat="45.42343" lon="6.2182">
        <ele>2327</ele>
        <time>2024-06-05T21:29:49+00:00</time>
      </trkpt>
      <trkpt lat="45.42346" lon="6.21825">
        <ele>2336</ele>
        <time>2024-06-05T21:29:52+00:00</time>
      </trkpt>
      <trkpt lat="45.4235" lon="6.21828">
        <ele>2336</ele>
        <time>2024-06-05T21:29:55+00:00</time>
      </trkpt>
      <trkpt lat="45.42352" lon="6.21832">
        <ele>2334</ele>
        <time>2024-06-05T21:29:58+00:00</time>
      </trkpt>
      <trkpt lat="45.42349" lon="6.21831">
        <ele>2340</ele>
        <time>2024-06-05T21:30:01+00:00</time>
      </trkpt>
      <trkpt lat="45.42346" lon="6.2183">
        <ele>2340</ele>
        <time>2024-06-05T21:30:04+00:00</time>
      </trkpt>
      <trkpt lat="45.42343" lon="6.21831">
        <ele>2340</ele>
        <time>2024-06-05T21:30:07+00:00</time>
      </trkpt>
      <trkpt lat="45.42343" lon="6.21835">
        <ele>2332</ele>
        <time>2024-06-05T21:30:10+00:00</time>
      </trkpt>
      <trkpt lat="45.4234" lon="6.21835">
        <ele>2340</ele>
        <time>2024-06-05T21:30:13+00:00</time>
      </trkpt>
      <trkpt lat="45.42339" lon="6.21835">
        <ele>2332</ele>
        <time>2024-06-05T21:30:16+00:00</time>
      </trkpt>
      <trkpt lat="45.42337" lon="6.21838">
        <ele>2332</ele>
        <time>2024-06-05T21:30:19+00:00</time>
      </trkpt>
      <trkpt lat="45.42335" lon="6.21841">
        <ele>2336</ele>
        <time>2024-06-05T21:30:22+00:00</time>
      </trkpt>
      <trkpt lat="45.42332" lon="6.21844">
        <ele>2336</ele>
        <time>2024-06-05T21:30:25+00:00</time>
      </trkpt>
      <trkpt lat="45.42329" lon="6.21848">
        <ele>2329</ele>
        <time>2024-06-05T21:30:28+00:00</time>
      </trkpt>
      <trkpt lat="45.42328" lon="6.21852">
        <ele>2328</ele>
        <time>2024-06-05T21:30:31+00:00</time>
      </trkpt>
      <trkpt lat="45.42327" lon="6.21859">
        <ele>2328</ele>
        <time>2024-06-05T21:30:34+00:00</time>
      </trkpt>
      <trkpt lat="45.42347" lon="6.21891">
        <ele>2309</ele>
        <time>2024-06-05T21:30:37+00:00</time>
      </trkpt>
      <trkpt lat="45.42359" lon="6.21909">
        <ele>2299</ele>
        <time>2024-06-05T21:30:40+00:00</time>
      </trkpt>
      <trkpt lat="45.42371" lon="6.21919">
        <ele>2292</ele>
        <time>2024-06-05T21:30:43+00:00</time>
      </trkpt>
      <trkpt lat="45.42391" lon="6.21934">
        <ele>2277</ele>
        <time>2024-06-05T21:30:46+00:00</time>
      </trkpt>
      <trkpt lat="45.42402" lon="6.21949">
        <ele>2272</ele>
        <time>2024-06-05T21:30:49+00:00</time>
      </trkpt>
      <trkpt lat="45.42418" lon="6.2196">
        <ele>2259</ele>
        <time>2024-06-05T21:30:52+00:00</time>
      </trkpt>
      <trkpt lat="45.42416" lon="6.21992">
        <ele>2244</ele>
        <time>2024-06-05T21:30:55+00:00</time>
      </trkpt>
      <trkpt lat="45.42433" lon="6.22041">
        <ele>2222</ele>
        <time>2024-06-05T21:30:58+00:00</time>
      </trkpt>
      <trkpt lat="45.42444" lon="6.22068">
        <ele>2222</ele>
        <time>2024-06-05T21:31:01+00:00</time>
      </trkpt>
      <trkpt lat="45.42447" lon="6.2208">
        <ele>2220</ele>
        <time>2024-06-05T21:31:04+00:00</time>
      </trkpt>
      <trkpt lat="45.42449" lon="6.2209">
        <ele>2215</ele>
        <time>2024-06-05T21:31:07+00:00</time>
      </trkpt>
      <trkpt lat="45.4245" lon="6.22098">
        <ele>2215</ele>
        <time>2024-06-05T21:31:10+00:00</time>
      </trkpt>
      <trkpt lat="45.42453" lon="6.22112">
        <ele>2217</ele>
        <time>2024-06-05T21:31:13+00:00</time>
      </trkpt>
      <trkpt lat="45.42458" lon="6.22122">
        <ele>2213</ele>
        <time>2024-06-05T21:31:16+00:00</time>
      </trkpt>
      <trkpt lat="45.42458" lon="6.22131">
        <ele>2210</ele>
        <time>2024-06-05T21:31:19+00:00</time>
      </trkpt>
      <trkpt lat="45.42459" lon="6.22137">
        <ele>2210</ele>
        <time>2024-06-05T21:31:22+00:00</time>
      </trkpt>
      <trkpt lat="45.4246" lon="6.2214">
        <ele>2210</ele>
        <time>2024-06-05T21:31:25+00:00</time>
      </trkpt>
      <trkpt lat="45.42462" lon="6.22142">
        <ele>2210</ele>
        <time>2024-06-05T21:31:28+00:00</time>
      </trkpt>
      <trkpt lat="45.42467" lon="6.22144">
        <ele>2210</ele>
        <time>2024-06-05T21:31:31+00:00</time>
      </trkpt>
      <trkpt lat="45.42466" lon="6.22146">
        <ele>2210</ele>
        <time>2024-06-05T21:31:34+00:00</time>
      </trkpt>
      <trkpt lat="45.42469" lon="6.22147">
        <ele>2210</ele>
        <time>2024-06-05T21:31:37+00:00</time>
      </trkpt>
      <trkpt lat="45.42467" lon="6.22149">
        <ele>2210</ele>
        <time>2024-06-05T21:31:40+00:00</time>
      </trkpt>
      <trkpt lat="45.4247" lon="6.22151">
        <ele>2207</ele>
        <time>2024-06-05T21:31:43+00:00</time>
      </trkpt>
      <trkpt lat="45.42469" lon="6.22154">
        <ele>2206</ele>
        <time>2024-06-05T21:31:46+00:00</time>
      </trkpt>
      <trkpt lat="45.42471" lon="6.22155">
        <ele>2207</ele>
        <time>2024-06-05T21:31:49+00:00</time>
      </trkpt>
      <trkpt lat="45.42469" lon="6.22157">
        <ele>2206</ele>
        <time>2024-06-05T21:31:52+00:00</time>
      </trkpt>
      <trkpt lat="45.42467" lon="6.22165">
        <ele>2201</ele>
        <time>2024-06-05T21:31:55+00:00</time>
      </trkpt>
      <trkpt lat="45.42475" lon="6.22185">
        <ele>2196</ele>
        <time>2024-06-05T21:31:58+00:00</time>
      </trkpt>
      <trkpt lat="45.42483" lon="6.22207">
        <ele>2192</ele>
        <time>2024-06-05T21:32:01+00:00</time>
      </trkpt>
      <trkpt lat="45.42488" lon="6.22222">
        <ele>2189</ele>
        <time>2024-06-05T21:32:04+00:00</time>
      </trkpt>
      <trkpt lat="45.42487" lon="6.22228">
        <ele>2189</ele>
        <time>2024-06-05T21:32:07+00:00</time>
      </trkpt>
      <trkpt lat="45.42486" lon="6.2224">
        <ele>2189</ele>
        <time>2024-06-05T21:32:10+00:00</time>
      </trkpt>
      <trkpt lat="45.42488" lon="6.22251">
        <ele>2183</ele>
        <time>2024-06-05T21:32:13+00:00</time>
      </trkpt>
      <trkpt lat="45.42494" lon="6.22262">
        <ele>2186</ele>
        <time>2024-06-05T21:32:16+00:00</time>
      </trkpt>
      <trkpt lat="45.42494" lon="6.22262">
        <ele>2186</ele>
        <time>2024-06-05T21:32:19+00:00</time>
      </trkpt>
      <trkpt lat="45.42494" lon="6.22262">
        <ele>2186</ele>
        <time>2024-06-05T21:32:22+00:00</time>
      </trkpt>
      <trkpt lat="45.42499" lon="6.22266">
        <ele>2186</ele>
        <time>2024-06-05T21:32:25+00:00</time>
      </trkpt>
      <trkpt lat="45.42501" lon="6.22276">
        <ele>2187</ele>
        <time>2024-06-05T21:32:28+00:00</time>
      </trkpt>
      <trkpt lat="45.42507" lon="6.22282">
        <ele>2186</ele>
        <time>2024-06-05T21:32:31+00:00</time>
      </trkpt>
      <trkpt lat="45.42511" lon="6.22294">
        <ele>2185</ele>
        <time>2024-06-05T21:32:34+00:00</time>
      </trkpt>
      <trkpt lat="45.42516" lon="6.22299">
        <ele>2185</ele>
        <time>2024-06-05T21:32:37+00:00</time>
      </trkpt>
      <trkpt lat="45.42516" lon="6.22355">
        <ele>2176</ele>
        <time>2024-06-05T21:32:40+00:00</time>
      </trkpt>
      <trkpt lat="45.42522" lon="6.22363">
        <ele>2177</ele>
        <time>2024-06-05T21:32:43+00:00</time>
      </trkpt>
      <trkpt lat="45.42528" lon="6.22385">
        <ele>2173</ele>
        <time>2024-06-05T21:32:46+00:00</time>
      </trkpt>
      <trkpt lat="45.42538" lon="6.22409">
        <ele>2173</ele>
        <time>2024-06-05T21:32:49+00:00</time>
      </trkpt>
      <trkpt lat="45.42537" lon="6.22432">
        <ele>2163</ele>
        <time>2024-06-05T21:32:52+00:00</time>
      </trkpt>
      <trkpt lat="45.42542" lon="6.2244">
        <ele>2166</ele>
        <time>2024-06-05T21:32:55+00:00</time>
      </trkpt>
      <trkpt lat="45.42551" lon="6.22463">
        <ele>2167</ele>
        <time>2024-06-05T21:32:58+00:00</time>
      </trkpt>
      <trkpt lat="45.42555" lon="6.22473">
        <ele>2166</ele>
        <time>2024-06-05T21:33:01+00:00</time>
      </trkpt>
      <trkpt lat="45.42567" lon="6.22495">
        <ele>2167</ele>
        <time>2024-06-05T21:33:04+00:00</time>
      </trkpt>
      <trkpt lat="45.42572" lon="6.22504">
        <ele>2168</ele>
        <time>2024-06-05T21:33:07+00:00</time>
      </trkpt>
      <trkpt lat="45.42578" lon="6.22516">
        <ele>2167</ele>
        <time>2024-06-05T21:33:10+00:00</time>
      </trkpt>
      <trkpt lat="45.42583" lon="6.22524">
        <ele>2170</ele>
        <time>2024-06-05T21:33:13+00:00</time>
      </trkpt>
      <trkpt lat="45.42587" lon="6.22526">
        <ele>2170</ele>
        <time>2024-06-05T21:33:16+00:00</time>
      </trkpt>
      <trkpt lat="45.42592" lon="6.22537">
        <ele>2173</ele>
        <time>2024-06-05T21:33:19+00:00</time>
      </trkpt>
      <trkpt lat="45.42596" lon="6.2254">
        <ele>2173</ele>
        <time>2024-06-05T21:33:22+00:00</time>
      </trkpt>
      <trkpt lat="45.42597" lon="6.22542">
        <ele>2174</ele>
        <time>2024-06-05T21:33:25+00:00</time>
      </trkpt>
      <trkpt lat="45.426" lon="6.22545">
        <ele>2174</ele>
        <time>2024-06-05T21:33:28+00:00</time>
      </trkpt>
      <trkpt lat="45.42604" lon="6.22553">
        <ele>2178</ele>
        <time>2024-06-05T21:33:31+00:00</time>
      </trkpt>
      <trkpt lat="45.42607" lon="6.22557">
        <ele>2178</ele>
        <time>2024-06-05T21:33:34+00:00</time>
      </trkpt>
      <trkpt lat="45.42618" lon="6.22563">
        <ele>2183</ele>
        <time>2024-06-05T21:33:37+00:00</time>
      </trkpt>
      <trkpt lat="45.42624" lon="6.22574">
        <ele>2190</ele>
        <time>2024-06-05T21:33:40+00:00</time>
      </trkpt>
      <trkpt lat="45.4263" lon="6.22582">
        <ele>2189</ele>
        <time>2024-06-05T21:33:43+00:00</time>
      </trkpt>
      <trkpt lat="45.42637" lon="6.22586">
        <ele>2193</ele>
        <time>2024-06-05T21:33:46+00:00</time>
      </trkpt>
      <trkpt lat="45.42654" lon="6.22608">
        <ele>2199</ele>
        <time>2024-06-05T21:33:49+00:00</time>
      </trkpt>
      <trkpt lat="45.42657" lon="6.22615">
        <ele>2198</ele>
        <time>2024-06-05T21:33:52+00:00</time>
      </trkpt>
      <trkpt lat="45.42662" lon="6.22631">
        <ele>2200</ele>
        <time>2024-06-05T21:33:55+00:00</time>
      </trkpt>
      <trkpt lat="45.42666" lon="6.22637">
        <ele>2197</ele>
        <time>2024-06-05T21:33:58+00:00</time>
      </trkpt>
      <trkpt lat="45.42669" lon="6.22648">
        <ele>2199</ele>
        <time>2024-06-05T21:34:01+00:00</time>
      </trkpt>
      <trkpt lat="45.42669" lon="6.22664">
        <ele>2195</ele>
        <time>2024-06-05T21:34:04+00:00</time>
      </trkpt>
      <trkpt lat="45.42668" lon="6.2267">
        <ele>2195</ele>
        <time>2024-06-05T21:34:07+00:00</time>
      </trkpt>
      <trkpt lat="45.42669" lon="6.22678">
        <ele>2195</ele>
        <time>2024-06-05T21:34:10+00:00</time>
      </trkpt>
      <trkpt lat="45.4267" lon="6.22689">
        <ele>2193</ele>
        <time>2024-06-05T21:34:13+00:00</time>
      </trkpt>
      <trkpt lat="45.42671" lon="6.22696">
        <ele>2192</ele>
        <time>2024-06-05T21:34:16+00:00</time>
      </trkpt>
      <trkpt lat="45.4267" lon="6.22705">
        <ele>2190</ele>
        <time>2024-06-05T21:34:19+00:00</time>
      </trkpt>
      <trkpt lat="45.42671" lon="6.22709">
        <ele>2190</ele>
        <time>2024-06-05T21:34:22+00:00</time>
      </trkpt>
      <trkpt lat="45.4267" lon="6.22716">
        <ele>2186</ele>
        <time>2024-06-05T21:34:25+00:00</time>
      </trkpt>
      <trkpt lat="45.4267" lon="6.22727">
        <ele>2184</ele>
        <time>2024-06-05T21:34:28+00:00</time>
      </trkpt>
      <trkpt lat="45.42659" lon="6.22767">
        <ele>2174</ele>
        <time>2024-06-05T21:34:31+00:00</time>
      </trkpt>
      <trkpt lat="45.42656" lon="6.22777">
        <ele>2171</ele>
        <time>2024-06-05T21:34:34+00:00</time>
      </trkpt>
      <trkpt lat="45.4265" lon="6.22781">
        <ele>2164</ele>
        <time>2024-06-05T21:34:37+00:00</time>
      </trkpt>
      <trkpt lat="45.42654" lon="6.2279">
        <ele>2159</ele>
        <time>2024-06-05T21:34:40+00:00</time>
      </trkpt>
      <trkpt lat="45.42653" lon="6.22802">
        <ele>2156</ele>
        <time>2024-06-05T21:34:43+00:00</time>
      </trkpt>
      <trkpt lat="45.42651" lon="6.22811">
        <ele>2151</ele>
        <time>2024-06-05T21:34:46+00:00</time>
      </trkpt>
      <trkpt lat="45.42642" lon="6.22832">
        <ele>2139</ele>
        <time>2024-06-05T21:34:49+00:00</time>
      </trkpt>
      <trkpt lat="45.42638" lon="6.22849">
        <ele>2133</ele>
        <time>2024-06-05T21:34:52+00:00</time>
      </trkpt>
      <trkpt lat="45.42641" lon="6.22869">
        <ele>2133</ele>
        <time>2024-06-05T21:34:55+00:00</time>
      </trkpt>
      <trkpt lat="45.42644" lon="6.22886">
        <ele>2127</ele>
        <time>2024-06-05T21:34:58+00:00</time>
      </trkpt>
      <trkpt lat="45.42645" lon="6.22895">
        <ele>2123</ele>
        <time>2024-06-05T21:35:01+00:00</time>
      </trkpt>
      <trkpt lat="45.42641" lon="6.229">
        <ele>2123</ele>
        <time>2024-06-05T21:35:04+00:00</time>
      </trkpt>
      <trkpt lat="45.4264" lon="6.22904">
        <ele>2118</ele>
        <time>2024-06-05T21:35:07+00:00</time>
      </trkpt>
      <trkpt lat="45.42643" lon="6.22913">
        <ele>2116</ele>
        <time>2024-06-05T21:35:10+00:00</time>
      </trkpt>
      <trkpt lat="45.42644" lon="6.22918">
        <ele>2116</ele>
        <time>2024-06-05T21:35:13+00:00</time>
      </trkpt>
      <trkpt lat="45.42644" lon="6.22923">
        <ele>2113</ele>
        <time>2024-06-05T21:35:16+00:00</time>
      </trkpt>
      <trkpt lat="45.42647" lon="6.22928">
        <ele>2113</ele>
        <time>2024-06-05T21:35:19+00:00</time>
      </trkpt>
      <trkpt lat="45.42651" lon="6.22933">
        <ele>2115</ele>
        <time>2024-06-05T21:35:22+00:00</time>
      </trkpt>
      <trkpt lat="45.42661" lon="6.22944">
        <ele>2109</ele>
        <time>2024-06-05T21:35:25+00:00</time>
      </trkpt>
      <trkpt lat="45.42663" lon="6.22947">
        <ele>2109</ele>
        <time>2024-06-05T21:35:28+00:00</time>
      </trkpt>
      <trkpt lat="45.42665" lon="6.22949">
        <ele>2109</ele>
        <time>2024-06-05T21:35:31+00:00</time>
      </trkpt>
      <trkpt lat="45.42666" lon="6.22944">
        <ele>2109</ele>
        <time>2024-06-05T21:35:34+00:00</time>
      </trkpt>
      <trkpt lat="45.42666" lon="6.22941">
        <ele>2109</ele>
        <time>2024-06-05T21:35:37+00:00</time>
      </trkpt>
      <trkpt lat="45.42668" lon="6.22931">
        <ele>2108</ele>
        <time>2024-06-05T21:35:40+00:00</time>
      </trkpt>
      <trkpt lat="45.4267" lon="6.22929">
        <ele>2102</ele>
        <time>2024-06-05T21:35:43+00:00</time>
      </trkpt>
      <trkpt lat="45.42672" lon="6.22922">
        <ele>2102</ele>
        <time>2024-06-05T21:35:46+00:00</time>
      </trkpt>
      <trkpt lat="45.42675" lon="6.22916">
        <ele>2106</ele>
        <time>2024-06-05T21:35:49+00:00</time>
      </trkpt>
      <trkpt lat="45.42682" lon="6.22912">
        <ele>2094</ele>
        <time>2024-06-05T21:35:52+00:00</time>
      </trkpt>
      <trkpt lat="45.42687" lon="6.22903">
        <ele>2097</ele>
        <time>2024-06-05T21:35:55+00:00</time>
      </trkpt>
      <trkpt lat="45.42697" lon="6.229">
        <ele>2096</ele>
        <time>2024-06-05T21:35:58+00:00</time>
      </trkpt>
      <trkpt lat="45.42708" lon="6.22895">
        <ele>2091</ele>
        <time>2024-06-05T21:36:01+00:00</time>
      </trkpt>
      <trkpt lat="45.42714" lon="6.22887">
        <ele>2085</ele>
        <time>2024-06-05T21:36:04+00:00</time>
      </trkpt>
      <trkpt lat="45.42718" lon="6.22887">
        <ele>2085</ele>
        <time>2024-06-05T21:36:07+00:00</time>
      </trkpt>
      <trkpt lat="45.42724" lon="6.22887">
        <ele>2082</ele>
        <time>2024-06-05T21:36:10+00:00</time>
      </trkpt>
      <trkpt lat="45.42731" lon="6.22884">
        <ele>2086</ele>
        <time>2024-06-05T21:36:13+00:00</time>
      </trkpt>
      <trkpt lat="45.42732" lon="6.22882">
        <ele>2078</ele>
        <time>2024-06-05T21:36:16+00:00</time>
      </trkpt>
      <trkpt lat="45.42734" lon="6.2288">
        <ele>2078</ele>
        <time>2024-06-05T21:36:19+00:00</time>
      </trkpt>
      <trkpt lat="45.42735" lon="6.22879">
        <ele>2083</ele>
        <time>2024-06-05T21:36:22+00:00</time>
      </trkpt>
      <trkpt lat="45.42736" lon="6.22881">
        <ele>2078</ele>
        <time>2024-06-05T21:36:25+00:00</time>
      </trkpt>
      <trkpt lat="45.42738" lon="6.2288">
        <ele>2078</ele>
        <time>2024-06-05T21:36:28+00:00</time>
      </trkpt>
      <trkpt lat="45.42741" lon="6.22875">
        <ele>2074</ele>
        <time>2024-06-05T21:36:31+00:00</time>
      </trkpt>
      <trkpt lat="45.42743" lon="6.22871">
        <ele>2074</ele>
        <time>2024-06-05T21:36:34+00:00</time>
      </trkpt>
      <trkpt lat="45.42744" lon="6.2287">
        <ele>2081</ele>
        <time>2024-06-05T21:36:37+00:00</time>
      </trkpt>
      <trkpt lat="45.42747" lon="6.22869">
        <ele>2081</ele>
        <time>2024-06-05T21:36:40+00:00</time>
      </trkpt>
      <trkpt lat="45.4275" lon="6.22868">
        <ele>2081</ele>
        <time>2024-06-05T21:36:43+00:00</time>
      </trkpt>
      <trkpt lat="45.42754" lon="6.22867">
        <ele>2073</ele>
        <time>2024-06-05T21:36:46+00:00</time>
      </trkpt>
      <trkpt lat="45.42757" lon="6.22866">
        <ele>2073</ele>
        <time>2024-06-05T21:36:49+00:00</time>
      </trkpt>
      <trkpt lat="45.42761" lon="6.22866">
        <ele>2068</ele>
        <time>2024-06-05T21:36:52+00:00</time>
      </trkpt>
      <trkpt lat="45.42779" lon="6.22858">
        <ele>2065</ele>
        <time>2024-06-05T21:36:55+00:00</time>
      </trkpt>
      <trkpt lat="45.42783" lon="6.22856">
        <ele>2060</ele>
        <time>2024-06-05T21:36:58+00:00</time>
      </trkpt>
      <trkpt lat="45.42786" lon="6.22855">
        <ele>2060</ele>
        <time>2024-06-05T21:37:01+00:00</time>
      </trkpt>
      <trkpt lat="45.42789" lon="6.22855">
        <ele>2060</ele>
        <time>2024-06-05T21:37:04+00:00</time>
      </trkpt>
      <trkpt lat="45.42793" lon="6.22856">
        <ele>2057</ele>
        <time>2024-06-05T21:37:07+00:00</time>
      </trkpt>
      <trkpt lat="45.42797" lon="6.22856">
        <ele>2057</ele>
        <time>2024-06-05T21:37:10+00:00</time>
      </trkpt>
      <trkpt lat="45.42799" lon="6.22857">
        <ele>2057</ele>
        <time>2024-06-05T21:37:13+00:00</time>
      </trkpt>
      <trkpt lat="45.42802" lon="6.2286">
        <ele>2053</ele>
        <time>2024-06-05T21:37:16+00:00</time>
      </trkpt>
      <trkpt lat="45.42805" lon="6.22862">
        <ele>2049</ele>
        <time>2024-06-05T21:37:19+00:00</time>
      </trkpt>
      <trkpt lat="45.42808" lon="6.22861">
        <ele>2049</ele>
        <time>2024-06-05T21:37:22+00:00</time>
      </trkpt>
      <trkpt lat="45.4281" lon="6.22858">
        <ele>2048</ele>
        <time>2024-06-05T21:37:25+00:00</time>
      </trkpt>
      <trkpt lat="45.42814" lon="6.22859">
        <ele>2048</ele>
        <time>2024-06-05T21:37:28+00:00</time>
      </trkpt>
      <trkpt lat="45.42817" lon="6.22856">
        <ele>2048</ele>
        <time>2024-06-05T21:37:31+00:00</time>
      </trkpt>
      <trkpt lat="45.42822" lon="6.22851">
        <ele>2041</ele>
        <time>2024-06-05T21:37:34+00:00</time>
      </trkpt>
      <trkpt lat="45.42825" lon="6.22849">
        <ele>2045</ele>
        <time>2024-06-05T21:37:37+00:00</time>
      </trkpt>
      <trkpt lat="45.42829" lon="6.22848">
        <ele>2045</ele>
        <time>2024-06-05T21:37:40+00:00</time>
      </trkpt>
      <trkpt lat="45.42832" lon="6.22846">
        <ele>2039</ele>
        <time>2024-06-05T21:37:43+00:00</time>
      </trkpt>
      <trkpt lat="45.42839" lon="6.22845">
        <ele>2039</ele>
        <time>2024-06-05T21:37:46+00:00</time>
      </trkpt>
      <trkpt lat="45.42841" lon="6.22843">
        <ele>2035</ele>
        <time>2024-06-05T21:37:49+00:00</time>
      </trkpt>
      <trkpt lat="45.42843" lon="6.2284">
        <ele>2040</ele>
        <time>2024-06-05T21:37:52+00:00</time>
      </trkpt>
      <trkpt lat="45.42845" lon="6.22839">
        <ele>2040</ele>
        <time>2024-06-05T21:37:55+00:00</time>
      </trkpt>
      <trkpt lat="45.42847" lon="6.22839">
        <ele>2040</ele>
        <time>2024-06-05T21:37:58+00:00</time>
      </trkpt>
      <trkpt lat="45.4285" lon="6.22838">
        <ele>2040</ele>
        <time>2024-06-05T21:38:01+00:00</time>
      </trkpt>
      <trkpt lat="45.42852" lon="6.22836">
        <ele>2034</ele>
        <time>2024-06-05T21:38:04+00:00</time>
      </trkpt>
      <trkpt lat="45.42854" lon="6.22834">
        <ele>2034</ele>
        <time>2024-06-05T21:38:07+00:00</time>
      </trkpt>
      <trkpt lat="45.42855" lon="6.22831">
        <ele>2034</ele>
        <time>2024-06-05T21:38:10+00:00</time>
      </trkpt>
      <trkpt lat="45.42856" lon="6.22828">
        <ele>2038</ele>
        <time>2024-06-05T21:38:13+00:00</time>
      </trkpt>
      <trkpt lat="45.42858" lon="6.22826">
        <ele>2038</ele>
        <time>2024-06-05T21:38:16+00:00</time>
      </trkpt>
      <trkpt lat="45.4286" lon="6.22824">
        <ele>2031</ele>
        <time>2024-06-05T21:38:19+00:00</time>
      </trkpt>
      <trkpt lat="45.42864" lon="6.22822">
        <ele>2031</ele>
        <time>2024-06-05T21:38:22+00:00</time>
      </trkpt>
      <trkpt lat="45.42875" lon="6.22817">
        <ele>2032</ele>
        <time>2024-06-05T21:38:25+00:00</time>
      </trkpt>
      <trkpt lat="45.42882" lon="6.22815">
        <ele>2029</ele>
        <time>2024-06-05T21:38:28+00:00</time>
      </trkpt>
      <trkpt lat="45.42888" lon="6.22812">
        <ele>2029</ele>
        <time>2024-06-05T21:38:31+00:00</time>
      </trkpt>
      <trkpt lat="45.4289" lon="6.2281">
        <ele>2029</ele>
        <time>2024-06-05T21:38:34+00:00</time>
      </trkpt>
      <trkpt lat="45.429" lon="6.22808">
        <ele>2027</ele>
        <time>2024-06-05T21:38:37+00:00</time>
      </trkpt>
      <trkpt lat="45.42913" lon="6.22804">
        <ele>2025</ele>
        <time>2024-06-05T21:38:40+00:00</time>
      </trkpt>
      <trkpt lat="45.42917" lon="6.22806">
        <ele>2025</ele>
        <time>2024-06-05T21:38:43+00:00</time>
      </trkpt>
      <trkpt lat="45.42921" lon="6.22807">
        <ele>2024</ele>
        <time>2024-06-05T21:38:46+00:00</time>
      </trkpt>
      <trkpt lat="45.42924" lon="6.22807">
        <ele>2024</ele>
        <time>2024-06-05T21:38:49+00:00</time>
      </trkpt>
      <trkpt lat="45.42927" lon="6.22806">
        <ele>2024</ele>
        <time>2024-06-05T21:38:52+00:00</time>
      </trkpt>
      <trkpt lat="45.4293" lon="6.22806">
        <ele>2024</ele>
        <time>2024-06-05T21:38:55+00:00</time>
      </trkpt>
      <trkpt lat="45.42932" lon="6.22806">
        <ele>2023</ele>
        <time>2024-06-05T21:38:58+00:00</time>
      </trkpt>
      <trkpt lat="45.42934" lon="6.22806">
        <ele>2023</ele>
        <time>2024-06-05T21:39:01+00:00</time>
      </trkpt>
      <trkpt lat="45.4294" lon="6.22809">
        <ele>2022</ele>
        <time>2024-06-05T21:39:04+00:00</time>
      </trkpt>
      <trkpt lat="45.42945" lon="6.2281">
        <ele>2014</ele>
        <time>2024-06-05T21:39:07+00:00</time>
      </trkpt>
      <trkpt lat="45.42948" lon="6.22812">
        <ele>2014</ele>
        <time>2024-06-05T21:39:10+00:00</time>
      </trkpt>
      <trkpt lat="45.42951" lon="6.22814">
        <ele>2014</ele>
        <time>2024-06-05T21:39:13+00:00</time>
      </trkpt>
      <trkpt lat="45.42953" lon="6.22815">
        <ele>2014</ele>
        <time>2024-06-05T21:39:16+00:00</time>
      </trkpt>
      <trkpt lat="45.42958" lon="6.22817">
        <ele>2014</ele>
        <time>2024-06-05T21:39:19+00:00</time>
      </trkpt>
      <trkpt lat="45.42964" lon="6.22821">
        <ele>2011</ele>
        <time>2024-06-05T21:39:22+00:00</time>
      </trkpt>
      <trkpt lat="45.42969" lon="6.22824">
        <ele>2011</ele>
        <time>2024-06-05T21:39:25+00:00</time>
      </trkpt>
      <trkpt lat="45.42977" lon="6.22834">
        <ele>2008</ele>
        <time>2024-06-05T21:39:28+00:00</time>
      </trkpt>
      <trkpt lat="45.42987" lon="6.22847">
        <ele>2007</ele>
        <time>2024-06-05T21:39:31+00:00</time>
      </trkpt>
      <trkpt lat="45.42993" lon="6.22858">
        <ele>2007</ele>
        <time>2024-06-05T21:39:34+00:00</time>
      </trkpt>
      <trkpt lat="45.43003" lon="6.22874">
        <ele>2005</ele>
        <time>2024-06-05T21:39:37+00:00</time>
      </trkpt>
      <trkpt lat="45.43006" lon="6.22879">
        <ele>2005</ele>
        <time>2024-06-05T21:39:40+00:00</time>
      </trkpt>
      <trkpt lat="45.43009" lon="6.22885">
        <ele>2005</ele>
        <time>2024-06-05T21:39:43+00:00</time>
      </trkpt>
      <trkpt lat="45.43012" lon="6.2289">
        <ele>2005</ele>
        <time>2024-06-05T21:39:46+00:00</time>
      </trkpt>
      <trkpt lat="45.43016" lon="6.22896">
        <ele>2005</ele>
        <time>2024-06-05T21:39:49+00:00</time>
      </trkpt>
      <trkpt lat="45.4302" lon="6.22901">
        <ele>2007</ele>
        <time>2024-06-05T21:39:52+00:00</time>
      </trkpt>
      <trkpt lat="45.43022" lon="6.22902">
        <ele>2004</ele>
        <time>2024-06-05T21:39:55+00:00</time>
      </trkpt>
      <trkpt lat="45.43026" lon="6.22904">
        <ele>2004</ele>
        <time>2024-06-05T21:39:58+00:00</time>
      </trkpt>
      <trkpt lat="45.4303" lon="6.22904">
        <ele>2004</ele>
        <time>2024-06-05T21:40:01+00:00</time>
      </trkpt>
      <trkpt lat="45.43035" lon="6.22902">
        <ele>2007</ele>
        <time>2024-06-05T21:40:04+00:00</time>
      </trkpt>
      <trkpt lat="45.43045" lon="6.22896">
        <ele>2008</ele>
        <time>2024-06-05T21:40:07+00:00</time>
      </trkpt>
      <trkpt lat="45.43049" lon="6.22894">
        <ele>2008</ele>
        <time>2024-06-05T21:40:10+00:00</time>
      </trkpt>
      <trkpt lat="45.43053" lon="6.22893">
        <ele>2010</ele>
        <time>2024-06-05T21:40:13+00:00</time>
      </trkpt>
      <trkpt lat="45.43057" lon="6.22895">
        <ele>2010</ele>
        <time>2024-06-05T21:40:16+00:00</time>
      </trkpt>
      <trkpt lat="45.43076" lon="6.22913">
        <ele>2013</ele>
        <time>2024-06-05T21:40:19+00:00</time>
      </trkpt>
      <trkpt lat="45.43091" lon="6.22925">
        <ele>2017</ele>
        <time>2024-06-05T21:40:22+00:00</time>
      </trkpt>
      <trkpt lat="45.43094" lon="6.22928">
        <ele>2017</ele>
        <time>2024-06-05T21:40:25+00:00</time>
      </trkpt>
      <trkpt lat="45.43096" lon="6.22931">
        <ele>2015</ele>
        <time>2024-06-05T21:40:28+00:00</time>
      </trkpt>
      <trkpt lat="45.43099" lon="6.22932">
        <ele>2015</ele>
        <time>2024-06-05T21:40:31+00:00</time>
      </trkpt>
      <trkpt lat="45.43102" lon="6.22933">
        <ele>2021</ele>
        <time>2024-06-05T21:40:34+00:00</time>
      </trkpt>
      <trkpt lat="45.43104" lon="6.22933">
        <ele>2021</ele>
        <time>2024-06-05T21:40:37+00:00</time>
      </trkpt>
      <trkpt lat="45.43107" lon="6.22935">
        <ele>2021</ele>
        <time>2024-06-05T21:40:40+00:00</time>
      </trkpt>
      <trkpt lat="45.4311" lon="6.22938">
        <ele>2021</ele>
        <time>2024-06-05T21:40:43+00:00</time>
      </trkpt>
      <trkpt lat="45.43114" lon="6.22941">
        <ele>2023</ele>
        <time>2024-06-05T21:40:46+00:00</time>
      </trkpt>
      <trkpt lat="45.43117" lon="6.22943">
        <ele>2023</ele>
        <time>2024-06-05T21:40:49+00:00</time>
      </trkpt>
      <trkpt lat="45.4312" lon="6.22943">
        <ele>2023</ele>
        <time>2024-06-05T21:40:52+00:00</time>
      </trkpt>
      <trkpt lat="45.43121" lon="6.22944">
        <ele>2026</ele>
        <time>2024-06-05T21:40:55+00:00</time>
      </trkpt>
      <trkpt lat="45.43122" lon="6.22946">
        <ele>2026</ele>
        <time>2024-06-05T21:40:58+00:00</time>
      </trkpt>
      <trkpt lat="45.43128" lon="6.22951">
        <ele>2025</ele>
        <time>2024-06-05T21:41:01+00:00</time>
      </trkpt>
      <trkpt lat="45.43131" lon="6.22954">
        <ele>2025</ele>
        <time>2024-06-05T21:41:04+00:00</time>
      </trkpt>
      <trkpt lat="45.43132" lon="6.22956">
        <ele>2029</ele>
        <time>2024-06-05T21:41:07+00:00</time>
      </trkpt>
      <trkpt lat="45.43135" lon="6.22957">
        <ele>2029</ele>
        <time>2024-06-05T21:41:10+00:00</time>
      </trkpt>
      <trkpt lat="45.43137" lon="6.22957">
        <ele>2029</ele>
        <time>2024-06-05T21:41:13+00:00</time>
      </trkpt>
      <trkpt lat="45.4314" lon="6.22957">
        <ele>2029</ele>
        <time>2024-06-05T21:41:16+00:00</time>
      </trkpt>
      <trkpt lat="45.43142" lon="6.22959">
        <ele>2028</ele>
        <time>2024-06-05T21:41:19+00:00</time>
      </trkpt>
      <trkpt lat="45.43145" lon="6.22958">
        <ele>2028</ele>
        <time>2024-06-05T21:41:22+00:00</time>
      </trkpt>
      <trkpt lat="45.43148" lon="6.2296">
        <ele>2025</ele>
        <time>2024-06-05T21:41:25+00:00</time>
      </trkpt>
      <trkpt lat="45.43151" lon="6.22962">
        <ele>2028</ele>
        <time>2024-06-05T21:41:28+00:00</time>
      </trkpt>
      <trkpt lat="45.43153" lon="6.22964">
        <ele>2028</ele>
        <time>2024-06-05T21:41:31+00:00</time>
      </trkpt>
      <trkpt lat="45.43155" lon="6.22967">
        <ele>2028</ele>
        <time>2024-06-05T21:41:34+00:00</time>
      </trkpt>
      <trkpt lat="45.43158" lon="6.22971">
        <ele>2028</ele>
        <time>2024-06-05T21:41:37+00:00</time>
      </trkpt>
      <trkpt lat="45.43162" lon="6.22975">
        <ele>2026</ele>
        <time>2024-06-05T21:41:40+00:00</time>
      </trkpt>
      <trkpt lat="45.43165" lon="6.22978">
        <ele>2023</ele>
        <time>2024-06-05T21:41:43+00:00</time>
      </trkpt>
      <trkpt lat="45.43167" lon="6.22979">
        <ele>2026</ele>
        <time>2024-06-05T21:41:46+00:00</time>
      </trkpt>
      <trkpt lat="45.4317" lon="6.22982">
        <ele>2025</ele>
        <time>2024-06-05T21:41:49+00:00</time>
      </trkpt>
      <trkpt lat="45.43172" lon="6.22985">
        <ele>2024</ele>
        <time>2024-06-05T21:41:52+00:00</time>
      </trkpt>
      <trkpt lat="45.43174" lon="6.22987">
        <ele>2024</ele>
        <time>2024-06-05T21:41:55+00:00</time>
      </trkpt>
      <trkpt lat="45.43176" lon="6.22992">
        <ele>2022</ele>
        <time>2024-06-05T21:41:58+00:00</time>
      </trkpt>
      <trkpt lat="45.4318" lon="6.22996">
        <ele>2022</ele>
        <time>2024-06-05T21:42:01+00:00</time>
      </trkpt>
      <trkpt lat="45.43183" lon="6.23001">
        <ele>2019</ele>
        <time>2024-06-05T21:42:04+00:00</time>
      </trkpt>
      <trkpt lat="45.43185" lon="6.23006">
        <ele>2019</ele>
        <time>2024-06-05T21:42:07+00:00</time>
      </trkpt>
      <trkpt lat="45.43185" lon="6.23013">
        <ele>2018</ele>
        <time>2024-06-05T21:42:10+00:00</time>
      </trkpt>
      <trkpt lat="45.43186" lon="6.23016">
        <ele>2018</ele>
        <time>2024-06-05T21:42:13+00:00</time>
      </trkpt>
      <trkpt lat="45.43187" lon="6.23018">
        <ele>2018</ele>
        <time>2024-06-05T21:42:16+00:00</time>
      </trkpt>
      <trkpt lat="45.4319" lon="6.23016">
        <ele>2015</ele>
        <time>2024-06-05T21:42:19+00:00</time>
      </trkpt>
      <trkpt lat="45.43193" lon="6.23012">
        <ele>2015</ele>
        <time>2024-06-05T21:42:22+00:00</time>
      </trkpt>
      <trkpt lat="45.43195" lon="6.23009">
        <ele>2017</ele>
        <time>2024-06-05T21:42:25+00:00</time>
      </trkpt>
      <trkpt lat="45.43198" lon="6.23007">
        <ele>2017</ele>
        <time>2024-06-05T21:42:28+00:00</time>
      </trkpt>
      <trkpt lat="45.432" lon="6.23005">
        <ele>2011</ele>
        <time>2024-06-05T21:42:31+00:00</time>
      </trkpt>
      <trkpt lat="45.43202" lon="6.23008">
        <ele>2011</ele>
        <time>2024-06-05T21:42:34+00:00</time>
      </trkpt>
      <trkpt lat="45.43204" lon="6.2301">
        <ele>2011</ele>
        <time>2024-06-05T21:42:37+00:00</time>
      </trkpt>
      <trkpt lat="45.43206" lon="6.23012">
        <ele>2011</ele>
        <time>2024-06-05T21:42:40+00:00</time>
      </trkpt>
      <trkpt lat="45.43208" lon="6.23013">
        <ele>2011</ele>
        <time>2024-06-05T21:42:43+00:00</time>
      </trkpt>
      <trkpt lat="45.43211" lon="6.23014">
        <ele>2009</ele>
        <time>2024-06-05T21:42:46+00:00</time>
      </trkpt>
      <trkpt lat="45.43214" lon="6.23013">
        <ele>2009</ele>
        <time>2024-06-05T21:42:49+00:00</time>
      </trkpt>
      <trkpt lat="45.43218" lon="6.23011">
        <ele>2009</ele>
        <time>2024-06-05T21:42:52+00:00</time>
      </trkpt>
      <trkpt lat="45.43219" lon="6.23017">
        <ele>2009</ele>
        <time>2024-06-05T21:42:55+00:00</time>
      </trkpt>
      <trkpt lat="45.43222" lon="6.23029">
        <ele>2003</ele>
        <time>2024-06-05T21:42:58+00:00</time>
      </trkpt>
      <trkpt lat="45.43226" lon="6.23028">
        <ele>2003</ele>
        <time>2024-06-05T21:43:01+00:00</time>
      </trkpt>
      <trkpt lat="45.43229" lon="6.23024">
        <ele>2003</ele>
        <time>2024-06-05T21:43:04+00:00</time>
      </trkpt>
      <trkpt lat="45.43231" lon="6.23024">
        <ele>1997</ele>
        <time>2024-06-05T21:43:07+00:00</time>
      </trkpt>
      <trkpt lat="45.43233" lon="6.23022">
        <ele>1997</ele>
        <time>2024-06-05T21:43:10+00:00</time>
      </trkpt>
      <trkpt lat="45.43237" lon="6.23019">
        <ele>1999</ele>
        <time>2024-06-05T21:43:13+00:00</time>
      </trkpt>
      <trkpt lat="45.43239" lon="6.23022">
        <ele>1997</ele>
        <time>2024-06-05T21:43:16+00:00</time>
      </trkpt>
      <trkpt lat="45.43242" lon="6.23019">
        <ele>1996</ele>
        <time>2024-06-05T21:43:19+00:00</time>
      </trkpt>
      <trkpt lat="45.43245" lon="6.23017">
        <ele>1996</ele>
        <time>2024-06-05T21:43:22+00:00</time>
      </trkpt>
      <trkpt lat="45.43246" lon="6.23017">
        <ele>1996</ele>
        <time>2024-06-05T21:43:25+00:00</time>
      </trkpt>
      <trkpt lat="45.43249" lon="6.2302">
        <ele>1996</ele>
        <time>2024-06-05T21:43:28+00:00</time>
      </trkpt>
      <trkpt lat="45.43251" lon="6.23022">
        <ele>1990</ele>
        <time>2024-06-05T21:43:31+00:00</time>
      </trkpt>
      <trkpt lat="45.43255" lon="6.23024">
        <ele>1990</ele>
        <time>2024-06-05T21:43:34+00:00</time>
      </trkpt>
      <trkpt lat="45.43257" lon="6.23026">
        <ele>1990</ele>
        <time>2024-06-05T21:43:37+00:00</time>
      </trkpt>
      <trkpt lat="45.43258" lon="6.23027">
        <ele>1990</ele>
        <time>2024-06-05T21:43:40+00:00</time>
      </trkpt>
      <trkpt lat="45.43259" lon="6.2303">
        <ele>1990</ele>
        <time>2024-06-05T21:43:43+00:00</time>
      </trkpt>
      <trkpt lat="45.43259" lon="6.23034">
        <ele>1989</ele>
        <time>2024-06-05T21:43:46+00:00</time>
      </trkpt>
      <trkpt lat="45.43261" lon="6.23036">
        <ele>1986</ele>
        <time>2024-06-05T21:43:49+00:00</time>
      </trkpt>
      <trkpt lat="45.43264" lon="6.23036">
        <ele>1986</ele>
        <time>2024-06-05T21:43:52+00:00</time>
      </trkpt>
      <trkpt lat="45.43267" lon="6.23036">
        <ele>1986</ele>
        <time>2024-06-05T21:43:55+00:00</time>
      </trkpt>
      <trkpt lat="45.43272" lon="6.23037">
        <ele>1985</ele>
        <time>2024-06-05T21:43:58+00:00</time>
      </trkpt>
      <trkpt lat="45.43275" lon="6.23038">
        <ele>1985</ele>
        <time>2024-06-05T21:44:01+00:00</time>
      </trkpt>
      <trkpt lat="45.43278" lon="6.23038">
        <ele>1985</ele>
        <time>2024-06-05T21:44:04+00:00</time>
      </trkpt>
      <trkpt lat="45.43282" lon="6.23041">
        <ele>1982</ele>
        <time>2024-06-05T21:44:07+00:00</time>
      </trkpt>
      <trkpt lat="45.43285" lon="6.23043">
        <ele>1982</ele>
        <time>2024-06-05T21:44:10+00:00</time>
      </trkpt>
      <trkpt lat="45.43288" lon="6.23046">
        <ele>1982</ele>
        <time>2024-06-05T21:44:13+00:00</time>
      </trkpt>
      <trkpt lat="45.4329" lon="6.23049">
        <ele>1982</ele>
        <time>2024-06-05T21:44:16+00:00</time>
      </trkpt>
      <trkpt lat="45.43293" lon="6.23049">
        <ele>1982</ele>
        <time>2024-06-05T21:44:19+00:00</time>
      </trkpt>
      <trkpt lat="45.43295" lon="6.2305">
        <ele>1982</ele>
        <time>2024-06-05T21:44:22+00:00</time>
      </trkpt>
      <trkpt lat="45.43298" lon="6.23052">
        <ele>1979</ele>
        <time>2024-06-05T21:44:25+00:00</time>
      </trkpt>
      <trkpt lat="45.43302" lon="6.23053">
        <ele>1977</ele>
        <time>2024-06-05T21:44:28+00:00</time>
      </trkpt>
      <trkpt lat="45.43303" lon="6.23054">
        <ele>1977</ele>
        <time>2024-06-05T21:44:31+00:00</time>
      </trkpt>
      <trkpt lat="45.43307" lon="6.23057">
        <ele>1977</ele>
        <time>2024-06-05T21:44:34+00:00</time>
      </trkpt>
      <trkpt lat="45.43308" lon="6.23059">
        <ele>1977</ele>
        <time>2024-06-05T21:44:37+00:00</time>
      </trkpt>
      <trkpt lat="45.43309" lon="6.23062">
        <ele>1974</ele>
        <time>2024-06-05T21:44:40+00:00</time>
      </trkpt>
      <trkpt lat="45.43311" lon="6.23064">
        <ele>1974</ele>
        <time>2024-06-05T21:44:43+00:00</time>
      </trkpt>
      <trkpt lat="45.43313" lon="6.23066">
        <ele>1974</ele>
        <time>2024-06-05T21:44:46+00:00</time>
      </trkpt>
      <trkpt lat="45.43316" lon="6.23068">
        <ele>1974</ele>
        <time>2024-06-05T21:44:49+00:00</time>
      </trkpt>
      <trkpt lat="45.43319" lon="6.2307">
        <ele>1974</ele>
        <time>2024-06-05T21:44:52+00:00</time>
      </trkpt>
      <trkpt lat="45.43325" lon="6.23071">
        <ele>1973</ele>
        <time>2024-06-05T21:44:55+00:00</time>
      </trkpt>
      <trkpt lat="45.43327" lon="6.23072">
        <ele>1973</ele>
        <time>2024-06-05T21:44:58+00:00</time>
      </trkpt>
      <trkpt lat="45.43329" lon="6.23074">
        <ele>1973</ele>
        <time>2024-06-05T21:45:01+00:00</time>
      </trkpt>
      <trkpt lat="45.43334" lon="6.23082">
        <ele>1969</ele>
        <time>2024-06-05T21:45:04+00:00</time>
      </trkpt>
      <trkpt lat="45.43337" lon="6.23085">
        <ele>1969</ele>
        <time>2024-06-05T21:45:07+00:00</time>
      </trkpt>
      <trkpt lat="45.43339" lon="6.23086">
        <ele>1969</ele>
        <time>2024-06-05T21:45:10+00:00</time>
      </trkpt>
      <trkpt lat="45.4334" lon="6.23088">
        <ele>1970</ele>
        <time>2024-06-05T21:45:13+00:00</time>
      </trkpt>
      <trkpt lat="45.43342" lon="6.23092">
        <ele>1968</ele>
        <time>2024-06-05T21:45:16+00:00</time>
      </trkpt>
      <trkpt lat="45.43344" lon="6.23096">
        <ele>1968</ele>
        <time>2024-06-05T21:45:19+00:00</time>
      </trkpt>
      <trkpt lat="45.43344" lon="6.23099">
        <ele>1968</ele>
        <time>2024-06-05T21:45:22+00:00</time>
      </trkpt>
      <trkpt lat="45.43345" lon="6.231">
        <ele>1966</ele>
        <time>2024-06-05T21:45:25+00:00</time>
      </trkpt>
      <trkpt lat="45.43347" lon="6.23102">
        <ele>1966</ele>
        <time>2024-06-05T21:45:28+00:00</time>
      </trkpt>
      <trkpt lat="45.43348" lon="6.23103">
        <ele>1966</ele>
        <time>2024-06-05T21:45:31+00:00</time>
      </trkpt>
      <trkpt lat="45.43348" lon="6.23106">
        <ele>1966</ele>
        <time>2024-06-05T21:45:34+00:00</time>
      </trkpt>
      <trkpt lat="45.43348" lon="6.23109">
        <ele>1966</ele>
        <time>2024-06-05T21:45:37+00:00</time>
      </trkpt>
      <trkpt lat="45.43349" lon="6.23111">
        <ele>1962</ele>
        <time>2024-06-05T21:45:40+00:00</time>
      </trkpt>
      <trkpt lat="45.4335" lon="6.23114">
        <ele>1963</ele>
        <time>2024-06-05T21:45:43+00:00</time>
      </trkpt>
      <trkpt lat="45.43353" lon="6.23124">
        <ele>1960</ele>
        <time>2024-06-05T21:45:46+00:00</time>
      </trkpt>
      <trkpt lat="45.43353" lon="6.23132">
        <ele>1958</ele>
        <time>2024-06-05T21:45:49+00:00</time>
      </trkpt>
      <trkpt lat="45.43355" lon="6.23136">
        <ele>1958</ele>
        <time>2024-06-05T21:45:52+00:00</time>
      </trkpt>
      <trkpt lat="45.43362" lon="6.23147">
        <ele>1957</ele>
        <time>2024-06-05T21:45:55+00:00</time>
      </trkpt>
      <trkpt lat="45.43366" lon="6.23155">
        <ele>1956</ele>
        <time>2024-06-05T21:45:58+00:00</time>
      </trkpt>
      <trkpt lat="45.43368" lon="6.2316">
        <ele>1956</ele>
        <time>2024-06-05T21:46:01+00:00</time>
      </trkpt>
      <trkpt lat="45.43371" lon="6.23169">
        <ele>1959</ele>
        <time>2024-06-05T21:46:04+00:00</time>
      </trkpt>
      <trkpt lat="45.43376" lon="6.23178">
        <ele>1957</ele>
        <time>2024-06-05T21:46:07+00:00</time>
      </trkpt>
      <trkpt lat="45.43382" lon="6.23186">
        <ele>1958</ele>
        <time>2024-06-05T21:46:10+00:00</time>
      </trkpt>
      <trkpt lat="45.43385" lon="6.23191">
        <ele>1957</ele>
        <time>2024-06-05T21:46:13+00:00</time>
      </trkpt>
      <trkpt lat="45.43388" lon="6.232">
        <ele>1955</ele>
        <time>2024-06-05T21:46:16+00:00</time>
      </trkpt>
      <trkpt lat="45.43392" lon="6.2321">
        <ele>1956</ele>
        <time>2024-06-05T21:46:19+00:00</time>
      </trkpt>
      <trkpt lat="45.43394" lon="6.23215">
        <ele>1956</ele>
        <time>2024-06-05T21:46:22+00:00</time>
      </trkpt>
      <trkpt lat="45.43396" lon="6.23219">
        <ele>1956</ele>
        <time>2024-06-05T21:46:25+00:00</time>
      </trkpt>
      <trkpt lat="45.43398" lon="6.23224">
        <ele>1955</ele>
        <time>2024-06-05T21:46:28+00:00</time>
      </trkpt>
      <trkpt lat="45.434" lon="6.23228">
        <ele>1955</ele>
        <time>2024-06-05T21:46:31+00:00</time>
      </trkpt>
      <trkpt lat="45.43401" lon="6.23235">
        <ele>1955</ele>
        <time>2024-06-05T21:46:34+00:00</time>
      </trkpt>
      <trkpt lat="45.43401" lon="6.23244">
        <ele>1954</ele>
        <time>2024-06-05T21:46:37+00:00</time>
      </trkpt>
      <trkpt lat="45.43403" lon="6.23248">
        <ele>1954</ele>
        <time>2024-06-05T21:46:40+00:00</time>
      </trkpt>
      <trkpt lat="45.43407" lon="6.23257">
        <ele>1953</ele>
        <time>2024-06-05T21:46:43+00:00</time>
      </trkpt>
      <trkpt lat="45.43411" lon="6.23265">
        <ele>1954</ele>
        <time>2024-06-05T21:46:46+00:00</time>
      </trkpt>
      <trkpt lat="45.43415" lon="6.23272">
        <ele>1953</ele>
        <time>2024-06-05T21:46:49+00:00</time>
      </trkpt>
      <trkpt lat="45.43418" lon="6.23277">
        <ele>1953</ele>
        <time>2024-06-05T21:46:52+00:00</time>
      </trkpt>
      <trkpt lat="45.43419" lon="6.23283">
        <ele>1951</ele>
        <time>2024-06-05T21:46:55+00:00</time>
      </trkpt>
      <trkpt lat="45.43422" lon="6.23294">
        <ele>1950</ele>
        <time>2024-06-05T21:46:58+00:00</time>
      </trkpt>
      <trkpt lat="45.43424" lon="6.233">
        <ele>1950</ele>
        <time>2024-06-05T21:47:01+00:00</time>
      </trkpt>
      <trkpt lat="45.43427" lon="6.23305">
        <ele>1949</ele>
        <time>2024-06-05T21:47:04+00:00</time>
      </trkpt>
      <trkpt lat="45.43431" lon="6.2331">
        <ele>1949</ele>
        <time>2024-06-05T21:47:07+00:00</time>
      </trkpt>
      <trkpt lat="45.43436" lon="6.23314">
        <ele>1948</ele>
        <time>2024-06-05T21:47:10+00:00</time>
      </trkpt>
      <trkpt lat="45.4344" lon="6.23316">
        <ele>1948</ele>
        <time>2024-06-05T21:47:13+00:00</time>
      </trkpt>
      <trkpt lat="45.43442" lon="6.23319">
        <ele>1951</ele>
        <time>2024-06-05T21:47:16+00:00</time>
      </trkpt>
      <trkpt lat="45.43444" lon="6.23324">
        <ele>1948</ele>
        <time>2024-06-05T21:47:19+00:00</time>
      </trkpt>
      <trkpt lat="45.43446" lon="6.23329">
        <ele>1948</ele>
        <time>2024-06-05T21:47:22+00:00</time>
      </trkpt>
      <trkpt lat="45.43448" lon="6.2333">
        <ele>1945</ele>
        <time>2024-06-05T21:47:25+00:00</time>
      </trkpt>
      <trkpt lat="45.43456" lon="6.23331">
        <ele>1943</ele>
        <time>2024-06-05T21:47:28+00:00</time>
      </trkpt>
      <trkpt lat="45.43462" lon="6.23329">
        <ele>1944</ele>
        <time>2024-06-05T21:47:31+00:00</time>
      </trkpt>
      <trkpt lat="45.43467" lon="6.23327">
        <ele>1944</ele>
        <time>2024-06-05T21:47:34+00:00</time>
      </trkpt>
      <trkpt lat="45.43469" lon="6.23326">
        <ele>1944</ele>
        <time>2024-06-05T21:47:37+00:00</time>
      </trkpt>
      <trkpt lat="45.43471" lon="6.23326">
        <ele>1939</ele>
        <time>2024-06-05T21:47:40+00:00</time>
      </trkpt>
      <trkpt lat="45.43473" lon="6.23327">
        <ele>1939</ele>
        <time>2024-06-05T21:47:43+00:00</time>
      </trkpt>
      <trkpt lat="45.43476" lon="6.23332">
        <ele>1938</ele>
        <time>2024-06-05T21:47:46+00:00</time>
      </trkpt>
      <trkpt lat="45.43479" lon="6.23339">
        <ele>1938</ele>
        <time>2024-06-05T21:47:49+00:00</time>
      </trkpt>
      <trkpt lat="45.43479" lon="6.23343">
        <ele>1937</ele>
        <time>2024-06-05T21:47:52+00:00</time>
      </trkpt>
      <trkpt lat="45.43481" lon="6.23348">
        <ele>1939</ele>
        <time>2024-06-05T21:47:55+00:00</time>
      </trkpt>
      <trkpt lat="45.43484" lon="6.23357">
        <ele>1938</ele>
        <time>2024-06-05T21:47:58+00:00</time>
      </trkpt>
      <trkpt lat="45.43485" lon="6.2336">
        <ele>1938</ele>
        <time>2024-06-05T21:48:01+00:00</time>
      </trkpt>
      <trkpt lat="45.43488" lon="6.23363">
        <ele>1936</ele>
        <time>2024-06-05T21:48:04+00:00</time>
      </trkpt>
      <trkpt lat="45.4349" lon="6.23365">
        <ele>1936</ele>
        <time>2024-06-05T21:48:07+00:00</time>
      </trkpt>
      <trkpt lat="45.43493" lon="6.23367">
        <ele>1936</ele>
        <time>2024-06-05T21:48:10+00:00</time>
      </trkpt>
      <trkpt lat="45.43496" lon="6.23369">
        <ele>1936</ele>
        <time>2024-06-05T21:48:13+00:00</time>
      </trkpt>
      <trkpt lat="45.43502" lon="6.23376">
        <ele>1934</ele>
        <time>2024-06-05T21:48:16+00:00</time>
      </trkpt>
      <trkpt lat="45.43503" lon="6.23383">
        <ele>1933</ele>
        <time>2024-06-05T21:48:19+00:00</time>
      </trkpt>
      <trkpt lat="45.43503" lon="6.2339">
        <ele>1933</ele>
        <time>2024-06-05T21:48:22+00:00</time>
      </trkpt>
      <trkpt lat="45.43502" lon="6.23396">
        <ele>1931</ele>
        <time>2024-06-05T21:48:25+00:00</time>
      </trkpt>
      <trkpt lat="45.43501" lon="6.23401">
        <ele>1928</ele>
        <time>2024-06-05T21:48:28+00:00</time>
      </trkpt>
      <trkpt lat="45.43502" lon="6.23406">
        <ele>1928</ele>
        <time>2024-06-05T21:48:31+00:00</time>
      </trkpt>
      <trkpt lat="45.43504" lon="6.2341">
        <ele>1928</ele>
        <time>2024-06-05T21:48:34+00:00</time>
      </trkpt>
      <trkpt lat="45.43505" lon="6.23412">
        <ele>1925</ele>
        <time>2024-06-05T21:48:37+00:00</time>
      </trkpt>
      <trkpt lat="45.43509" lon="6.23414">
        <ele>1925</ele>
        <time>2024-06-05T21:48:40+00:00</time>
      </trkpt>
      <trkpt lat="45.4351" lon="6.2342">
        <ele>1925</ele>
        <time>2024-06-05T21:48:43+00:00</time>
      </trkpt>
      <trkpt lat="45.43509" lon="6.23423">
        <ele>1923</ele>
        <time>2024-06-05T21:48:46+00:00</time>
      </trkpt>
      <trkpt lat="45.43506" lon="6.23426">
        <ele>1923</ele>
        <time>2024-06-05T21:48:49+00:00</time>
      </trkpt>
      <trkpt lat="45.43504" lon="6.2343">
        <ele>1923</ele>
        <time>2024-06-05T21:48:52+00:00</time>
      </trkpt>
      <trkpt lat="45.43501" lon="6.23439">
        <ele>1921</ele>
        <time>2024-06-05T21:48:55+00:00</time>
      </trkpt>
      <trkpt lat="45.43501" lon="6.23444">
        <ele>1919</ele>
        <time>2024-06-05T21:48:58+00:00</time>
      </trkpt>
      <trkpt lat="45.43505" lon="6.23454">
        <ele>1917</ele>
        <time>2024-06-05T21:49:01+00:00</time>
      </trkpt>
      <trkpt lat="45.43506" lon="6.23459">
        <ele>1917</ele>
        <time>2024-06-05T21:49:04+00:00</time>
      </trkpt>
      <trkpt lat="45.43506" lon="6.23467">
        <ele>1915</ele>
        <time>2024-06-05T21:49:07+00:00</time>
      </trkpt>
      <trkpt lat="45.43506" lon="6.2347">
        <ele>1911</ele>
        <time>2024-06-05T21:49:10+00:00</time>
      </trkpt>
      <trkpt lat="45.43506" lon="6.23474">
        <ele>1911</ele>
        <time>2024-06-05T21:49:13+00:00</time>
      </trkpt>
      <trkpt lat="45.43507" lon="6.23476">
        <ele>1911</ele>
        <time>2024-06-05T21:49:16+00:00</time>
      </trkpt>
      <trkpt lat="45.43509" lon="6.23476">
        <ele>1911</ele>
        <time>2024-06-05T21:49:19+00:00</time>
      </trkpt>
      <trkpt lat="45.43512" lon="6.23477">
        <ele>1915</ele>
        <time>2024-06-05T21:49:22+00:00</time>
      </trkpt>
      <trkpt lat="45.43515" lon="6.23482">
        <ele>1914</ele>
        <time>2024-06-05T21:49:25+00:00</time>
      </trkpt>
      <trkpt lat="45.43516" lon="6.23489">
        <ele>1914</ele>
        <time>2024-06-05T21:49:28+00:00</time>
      </trkpt>
      <trkpt lat="45.43517" lon="6.23495">
        <ele>1912</ele>
        <time>2024-06-05T21:49:31+00:00</time>
      </trkpt>
      <trkpt lat="45.43519" lon="6.23497">
        <ele>1912</ele>
        <time>2024-06-05T21:49:34+00:00</time>
      </trkpt>
      <trkpt lat="45.43521" lon="6.23498">
        <ele>1915</ele>
        <time>2024-06-05T21:49:37+00:00</time>
      </trkpt>
      <trkpt lat="45.43529" lon="6.23499">
        <ele>1915</ele>
        <time>2024-06-05T21:49:40+00:00</time>
      </trkpt>
      <trkpt lat="45.43532" lon="6.23501">
        <ele>1908</ele>
        <time>2024-06-05T21:49:43+00:00</time>
      </trkpt>
      <trkpt lat="45.43535" lon="6.23504">
        <ele>1908</ele>
        <time>2024-06-05T21:49:46+00:00</time>
      </trkpt>
      <trkpt lat="45.43537" lon="6.23508">
        <ele>1908</ele>
        <time>2024-06-05T21:49:49+00:00</time>
      </trkpt>
      <trkpt lat="45.43537" lon="6.23511">
        <ele>1907</ele>
        <time>2024-06-05T21:49:52+00:00</time>
      </trkpt>
      <trkpt lat="45.43536" lon="6.23515">
        <ele>1907</ele>
        <time>2024-06-05T21:49:55+00:00</time>
      </trkpt>
      <trkpt lat="45.43535" lon="6.23522">
        <ele>1905</ele>
        <time>2024-06-05T21:49:58+00:00</time>
      </trkpt>
      <trkpt lat="45.43536" lon="6.23526">
        <ele>1905</ele>
        <time>2024-06-05T21:50:01+00:00</time>
      </trkpt>
      <trkpt lat="45.43537" lon="6.23529">
        <ele>1905</ele>
        <time>2024-06-05T21:50:04+00:00</time>
      </trkpt>
      <trkpt lat="45.43539" lon="6.23531">
        <ele>1904</ele>
        <time>2024-06-05T21:50:07+00:00</time>
      </trkpt>
      <trkpt lat="45.43547" lon="6.23532">
        <ele>1903</ele>
        <time>2024-06-05T21:50:10+00:00</time>
      </trkpt>
      <trkpt lat="45.43551" lon="6.23533">
        <ele>1899</ele>
        <time>2024-06-05T21:50:13+00:00</time>
      </trkpt>
      <trkpt lat="45.43554" lon="6.23536">
        <ele>1903</ele>
        <time>2024-06-05T21:50:16+00:00</time>
      </trkpt>
      <trkpt lat="45.43557" lon="6.23541">
        <ele>1900</ele>
        <time>2024-06-05T21:50:19+00:00</time>
      </trkpt>
      <trkpt lat="45.4356" lon="6.23547">
        <ele>1901</ele>
        <time>2024-06-05T21:50:22+00:00</time>
      </trkpt>
      <trkpt lat="45.43562" lon="6.23552">
        <ele>1901</ele>
        <time>2024-06-05T21:50:25+00:00</time>
      </trkpt>
      <trkpt lat="45.43564" lon="6.23561">
        <ele>1901</ele>
        <time>2024-06-05T21:50:28+00:00</time>
      </trkpt>
      <trkpt lat="45.43566" lon="6.23566">
        <ele>1901</ele>
        <time>2024-06-05T21:50:31+00:00</time>
      </trkpt>
      <trkpt lat="45.43571" lon="6.23574">
        <ele>1901</ele>
        <time>2024-06-05T21:50:34+00:00</time>
      </trkpt>
      <trkpt lat="45.43574" lon="6.23578">
        <ele>1901</ele>
        <time>2024-06-05T21:50:37+00:00</time>
      </trkpt>
      <trkpt lat="45.43576" lon="6.23584">
        <ele>1901</ele>
        <time>2024-06-05T21:50:40+00:00</time>
      </trkpt>
      <trkpt lat="45.43578" lon="6.23592">
        <ele>1902</ele>
        <time>2024-06-05T21:50:43+00:00</time>
      </trkpt>
      <trkpt lat="45.43579" lon="6.23599">
        <ele>1902</ele>
        <time>2024-06-05T21:50:46+00:00</time>
      </trkpt>
      <trkpt lat="45.43579" lon="6.23605">
        <ele>1902</ele>
        <time>2024-06-05T21:50:49+00:00</time>
      </trkpt>
      <trkpt lat="45.43579" lon="6.23612">
        <ele>1900</ele>
        <time>2024-06-05T21:50:52+00:00</time>
      </trkpt>
      <trkpt lat="45.43582" lon="6.2364">
        <ele>1899</ele>
        <time>2024-06-05T21:50:55+00:00</time>
      </trkpt>
      <trkpt lat="45.43581" lon="6.23648">
        <ele>1899</ele>
        <time>2024-06-05T21:50:58+00:00</time>
      </trkpt>
      <trkpt lat="45.43579" lon="6.23656">
        <ele>1897</ele>
        <time>2024-06-05T21:51:01+00:00</time>
      </trkpt>
      <trkpt lat="45.43577" lon="6.23662">
        <ele>1896</ele>
        <time>2024-06-05T21:51:04+00:00</time>
      </trkpt>
      <trkpt lat="45.43574" lon="6.23675">
        <ele>1895</ele>
        <time>2024-06-05T21:51:07+00:00</time>
      </trkpt>
      <trkpt lat="45.43574" lon="6.2368">
        <ele>1893</ele>
        <time>2024-06-05T21:51:10+00:00</time>
      </trkpt>
      <trkpt lat="45.43574" lon="6.23685">
        <ele>1893</ele>
        <time>2024-06-05T21:51:13+00:00</time>
      </trkpt>
      <trkpt lat="45.43576" lon="6.2369">
        <ele>1893</ele>
        <time>2024-06-05T21:51:16+00:00</time>
      </trkpt>
      <trkpt lat="45.43579" lon="6.23694">
        <ele>1892</ele>
        <time>2024-06-05T21:51:19+00:00</time>
      </trkpt>
      <trkpt lat="45.43588" lon="6.23706">
        <ele>1893</ele>
        <time>2024-06-05T21:51:22+00:00</time>
      </trkpt>
      <trkpt lat="45.43599" lon="6.23713">
        <ele>1894</ele>
        <time>2024-06-05T21:51:25+00:00</time>
      </trkpt>
      <trkpt lat="45.43611" lon="6.23724">
        <ele>1891</ele>
        <time>2024-06-05T21:51:28+00:00</time>
      </trkpt>
      <trkpt lat="45.43622" lon="6.23732">
        <ele>1882</ele>
        <time>2024-06-05T21:51:31+00:00</time>
      </trkpt>
      <trkpt lat="45.43624" lon="6.23735">
        <ele>1882</ele>
        <time>2024-06-05T21:51:34+00:00</time>
      </trkpt>
      <trkpt lat="45.43626" lon="6.23738">
        <ele>1882</ele>
        <time>2024-06-05T21:51:37+00:00</time>
      </trkpt>
      <trkpt lat="45.43627" lon="6.23742">
        <ele>1882</ele>
        <time>2024-06-05T21:51:40+00:00</time>
      </trkpt>
      <trkpt lat="45.43628" lon="6.23747">
        <ele>1882</ele>
        <time>2024-06-05T21:51:43+00:00</time>
      </trkpt>
      <trkpt lat="45.4363" lon="6.23752">
        <ele>1881</ele>
        <time>2024-06-05T21:51:46+00:00</time>
      </trkpt>
      <trkpt lat="45.43631" lon="6.23754">
        <ele>1880</ele>
        <time>2024-06-05T21:51:49+00:00</time>
      </trkpt>
      <trkpt lat="45.43634" lon="6.23756">
        <ele>1880</ele>
        <time>2024-06-05T21:51:52+00:00</time>
      </trkpt>
      <trkpt lat="45.43638" lon="6.23756">
        <ele>1880</ele>
        <time>2024-06-05T21:51:55+00:00</time>
      </trkpt>
      <trkpt lat="45.43644" lon="6.23759">
        <ele>1878</ele>
        <time>2024-06-05T21:51:58+00:00</time>
      </trkpt>
      <trkpt lat="45.43661" lon="6.23778">
        <ele>1870</ele>
        <time>2024-06-05T21:52:01+00:00</time>
      </trkpt>
      <trkpt lat="45.43665" lon="6.23781">
        <ele>1867</ele>
        <time>2024-06-05T21:52:04+00:00</time>
      </trkpt>
      <trkpt lat="45.43667" lon="6.23784">
        <ele>1867</ele>
        <time>2024-06-05T21:52:07+00:00</time>
      </trkpt>
      <trkpt lat="45.43675" lon="6.23812">
        <ele>1860</ele>
        <time>2024-06-05T21:52:10+00:00</time>
      </trkpt>
      <trkpt lat="45.43678" lon="6.23825">
        <ele>1859</ele>
        <time>2024-06-05T21:52:13+00:00</time>
      </trkpt>
      <trkpt lat="45.43684" lon="6.23853">
        <ele>1851</ele>
        <time>2024-06-05T21:52:16+00:00</time>
      </trkpt>
      <trkpt lat="45.43685" lon="6.23861">
        <ele>1850</ele>
        <time>2024-06-05T21:52:19+00:00</time>
      </trkpt>
      <trkpt lat="45.43685" lon="6.23869">
        <ele>1850</ele>
        <time>2024-06-05T21:52:22+00:00</time>
      </trkpt>
      <trkpt lat="45.43685" lon="6.23876">
        <ele>1848</ele>
        <time>2024-06-05T21:52:25+00:00</time>
      </trkpt>
      <trkpt lat="45.43684" lon="6.23884">
        <ele>1846</ele>
        <time>2024-06-05T21:52:28+00:00</time>
      </trkpt>
      <trkpt lat="45.43684" lon="6.23891">
        <ele>1845</ele>
        <time>2024-06-05T21:52:31+00:00</time>
      </trkpt>
      <trkpt lat="45.43684" lon="6.23898">
        <ele>1845</ele>
        <time>2024-06-05T21:52:34+00:00</time>
      </trkpt>
      <trkpt lat="45.43684" lon="6.23907">
        <ele>1843</ele>
        <time>2024-06-05T21:52:37+00:00</time>
      </trkpt>
      <trkpt lat="45.43685" lon="6.23936">
        <ele>1837</ele>
        <time>2024-06-05T21:52:40+00:00</time>
      </trkpt>
      <trkpt lat="45.43686" lon="6.23976">
        <ele>1831</ele>
        <time>2024-06-05T21:52:43+00:00</time>
      </trkpt>
      <trkpt lat="45.43684" lon="6.23993">
        <ele>1821</ele>
        <time>2024-06-05T21:52:46+00:00</time>
      </trkpt>
      <trkpt lat="45.43684" lon="6.23999">
        <ele>1821</ele>
        <time>2024-06-05T21:52:49+00:00</time>
      </trkpt>
      <trkpt lat="45.43679" lon="6.24015">
        <ele>1814</ele>
        <time>2024-06-05T21:52:52+00:00</time>
      </trkpt>
      <trkpt lat="45.43677" lon="6.24025">
        <ele>1808</ele>
        <time>2024-06-05T21:52:55+00:00</time>
      </trkpt>
      <trkpt lat="45.43678" lon="6.24031">
        <ele>1804</ele>
        <time>2024-06-05T21:52:58+00:00</time>
      </trkpt>
      <trkpt lat="45.43688" lon="6.24054">
        <ele>1793</ele>
        <time>2024-06-05T21:53:01+00:00</time>
      </trkpt>
      <trkpt lat="45.43698" lon="6.24067">
        <ele>1787</ele>
        <time>2024-06-05T21:53:04+00:00</time>
      </trkpt>
      <trkpt lat="45.43712" lon="6.24078">
        <ele>1777</ele>
        <time>2024-06-05T21:53:07+00:00</time>
      </trkpt>
      <trkpt lat="45.43721" lon="6.24082">
        <ele>1769</ele>
        <time>2024-06-05T21:53:10+00:00</time>
      </trkpt>
      <trkpt lat="45.43748" lon="6.24091">
        <ele>1759</ele>
        <time>2024-06-05T21:53:13+00:00</time>
      </trkpt>
      <trkpt lat="45.43775" lon="6.24093">
        <ele>1751</ele>
        <time>2024-06-05T21:53:16+00:00</time>
      </trkpt>
      <trkpt lat="45.43786" lon="6.24092">
        <ele>1748</ele>
        <time>2024-06-05T21:53:19+00:00</time>
      </trkpt>
      <trkpt lat="45.43792" lon="6.24091">
        <ele>1745</ele>
        <time>2024-06-05T21:53:22+00:00</time>
      </trkpt>
      <trkpt lat="45.43798" lon="6.24091">
        <ele>1745</ele>
        <time>2024-06-05T21:53:25+00:00</time>
      </trkpt>
      <trkpt lat="45.43802" lon="6.24092">
        <ele>1742</ele>
        <time>2024-06-05T21:53:28+00:00</time>
      </trkpt>
      <trkpt lat="45.43806" lon="6.24095">
        <ele>1742</ele>
        <time>2024-06-05T21:53:31+00:00</time>
      </trkpt>
      <trkpt lat="45.43809" lon="6.24102">
        <ele>1739</ele>
        <time>2024-06-05T21:53:34+00:00</time>
      </trkpt>
      <trkpt lat="45.43813" lon="6.24104">
        <ele>1739</ele>
        <time>2024-06-05T21:53:37+00:00</time>
      </trkpt>
      <trkpt lat="45.43826" lon="6.24105">
        <ele>1739</ele>
        <time>2024-06-05T21:53:40+00:00</time>
      </trkpt>
      <trkpt lat="45.43847" lon="6.24092">
        <ele>1728</ele>
        <time>2024-06-05T21:53:43+00:00</time>
      </trkpt>
      <trkpt lat="45.43849" lon="6.24128">
        <ele>1721</ele>
        <time>2024-06-05T21:53:46+00:00</time>
      </trkpt>
      <trkpt lat="45.43845" lon="6.24167">
        <ele>1711</ele>
        <time>2024-06-05T21:53:49+00:00</time>
      </trkpt>
      <trkpt lat="45.43859" lon="6.24171">
        <ele>1697</ele>
        <time>2024-06-05T21:53:52+00:00</time>
      </trkpt>
      <trkpt lat="45.43849" lon="6.2418">
        <ele>1704</ele>
        <time>2024-06-05T21:53:55+00:00</time>
      </trkpt>
      <trkpt lat="45.43865" lon="6.2419">
        <ele>1685</ele>
        <time>2024-06-05T21:53:58+00:00</time>
      </trkpt>
      <trkpt lat="45.43849" lon="6.24201">
        <ele>1684</ele>
        <time>2024-06-05T21:54:01+00:00</time>
      </trkpt>
      <trkpt lat="45.43866" lon="6.24223">
        <ele>1663</ele>
        <time>2024-06-05T21:54:04+00:00</time>
      </trkpt>
      <trkpt lat="45.4385" lon="6.24237">
        <ele>1661</ele>
        <time>2024-06-05T21:54:07+00:00</time>
      </trkpt>
      <trkpt lat="45.43871" lon="6.24243">
        <ele>1649</ele>
        <time>2024-06-05T21:54:10+00:00</time>
      </trkpt>
      <trkpt lat="45.43901" lon="6.24253">
        <ele>1648</ele>
        <time>2024-06-05T21:54:13+00:00</time>
      </trkpt>
      <trkpt lat="45.4394" lon="6.24264">
        <ele>1648</ele>
        <time>2024-06-05T21:54:16+00:00</time>
      </trkpt>
      <trkpt lat="45.43977" lon="6.24278">
        <ele>1648</ele>
        <time>2024-06-05T21:54:19+00:00</time>
      </trkpt>
      <trkpt lat="45.44016" lon="6.24307">
        <ele>1644</ele>
        <time>2024-06-05T21:54:22+00:00</time>
      </trkpt>
      <trkpt lat="45.44042" lon="6.24345">
        <ele>1642</ele>
        <time>2024-06-05T21:54:25+00:00</time>
      </trkpt>
      <trkpt lat="45.44048" lon="6.24354">
        <ele>1640</ele>
        <time>2024-06-05T21:54:28+00:00</time>
      </trkpt>
      <trkpt lat="45.44053" lon="6.24364">
        <ele>1639</ele>
        <time>2024-06-05T21:54:31+00:00</time>
      </trkpt>
      <trkpt lat="45.44058" lon="6.24379">
        <ele>1640</ele>
        <time>2024-06-05T21:54:34+00:00</time>
      </trkpt>
      <trkpt lat="45.44063" lon="6.24398">
        <ele>1638</ele>
        <time>2024-06-05T21:54:37+00:00</time>
      </trkpt>
      <trkpt lat="45.44063" lon="6.24398">
        <ele>1638</ele>
        <time>2024-06-05T21:54:40+00:00</time>
      </trkpt>
      <trkpt lat="45.44064" lon="6.2441">
        <ele>1636</ele>
        <time>2024-06-05T21:54:43+00:00</time>
      </trkpt>
      <trkpt lat="45.44064" lon="6.24421">
        <ele>1635</ele>
        <time>2024-06-05T21:54:46+00:00</time>
      </trkpt>
      <trkpt lat="45.44067" lon="6.24434">
        <ele>1634</ele>
        <time>2024-06-05T21:54:49+00:00</time>
      </trkpt>
      <trkpt lat="45.44072" lon="6.24449">
        <ele>1626</ele>
        <time>2024-06-05T21:54:52+00:00</time>
      </trkpt>
      <trkpt lat="45.44074" lon="6.24461">
        <ele>1623</ele>
        <time>2024-06-05T21:54:55+00:00</time>
      </trkpt>
      <trkpt lat="45.44071" lon="6.24479">
        <ele>1620</ele>
        <time>2024-06-05T21:54:58+00:00</time>
      </trkpt>
      <trkpt lat="45.44068" lon="6.24493">
        <ele>1621</ele>
        <time>2024-06-05T21:55:01+00:00</time>
      </trkpt>
      <trkpt lat="45.44066" lon="6.245">
        <ele>1617</ele>
        <time>2024-06-05T21:55:04+00:00</time>
      </trkpt>
      <trkpt lat="45.44061" lon="6.24512">
        <ele>1613</ele>
        <time>2024-06-05T21:55:07+00:00</time>
      </trkpt>
      <trkpt lat="45.44058" lon="6.2452">
        <ele>1612</ele>
        <time>2024-06-05T21:55:10+00:00</time>
      </trkpt>
      <trkpt lat="45.44058" lon="6.24528">
        <ele>1612</ele>
        <time>2024-06-05T21:55:13+00:00</time>
      </trkpt>
      <trkpt lat="45.44058" lon="6.24535">
        <ele>1607</ele>
        <time>2024-06-05T21:55:16+00:00</time>
      </trkpt>
      <trkpt lat="45.44059" lon="6.2454">
        <ele>1603</ele>
        <time>2024-06-05T21:55:19+00:00</time>
      </trkpt>
      <trkpt lat="45.44062" lon="6.24544">
        <ele>1603</ele>
        <time>2024-06-05T21:55:22+00:00</time>
      </trkpt>
      <trkpt lat="45.44067" lon="6.24548">
        <ele>1603</ele>
        <time>2024-06-05T21:55:25+00:00</time>
      </trkpt>
      <trkpt lat="45.44077" lon="6.24549">
        <ele>1601</ele>
        <time>2024-06-05T21:55:28+00:00</time>
      </trkpt>
      <trkpt lat="45.44087" lon="6.2455">
        <ele>1599</ele>
        <time>2024-06-05T21:55:31+00:00</time>
      </trkpt>
      <trkpt lat="45.44094" lon="6.2455">
        <ele>1595</ele>
        <time>2024-06-05T21:55:34+00:00</time>
      </trkpt>
      <trkpt lat="45.44098" lon="6.24554">
        <ele>1593</ele>
        <time>2024-06-05T21:55:37+00:00</time>
      </trkpt>
      <trkpt lat="45.44102" lon="6.24558">
        <ele>1590</ele>
        <time>2024-06-05T21:55:40+00:00</time>
      </trkpt>
      <trkpt lat="45.44104" lon="6.24561">
        <ele>1587</ele>
        <time>2024-06-05T21:55:43+00:00</time>
      </trkpt>
      <trkpt lat="45.4411" lon="6.24564">
        <ele>1585</ele>
        <time>2024-06-05T21:55:46+00:00</time>
      </trkpt>
      <trkpt lat="45.44116" lon="6.24564">
        <ele>1585</ele>
        <time>2024-06-05T21:55:49+00:00</time>
      </trkpt>
      <trkpt lat="45.44125" lon="6.24559">
        <ele>1584</ele>
        <time>2024-06-05T21:55:52+00:00</time>
      </trkpt>
      <trkpt lat="45.44134" lon="6.24554">
        <ele>1581</ele>
        <time>2024-06-05T21:55:55+00:00</time>
      </trkpt>
      <trkpt lat="45.4414" lon="6.24546">
        <ele>1581</ele>
        <time>2024-06-05T21:55:58+00:00</time>
      </trkpt>
      <trkpt lat="45.44147" lon="6.2454">
        <ele>1578</ele>
        <time>2024-06-05T21:56:01+00:00</time>
      </trkpt>
      <trkpt lat="45.44155" lon="6.24539">
        <ele>1577</ele>
        <time>2024-06-05T21:56:04+00:00</time>
      </trkpt>
      <trkpt lat="45.4416" lon="6.24538">
        <ele>1574</ele>
        <time>2024-06-05T21:56:07+00:00</time>
      </trkpt>
      <trkpt lat="45.44166" lon="6.24533">
        <ele>1574</ele>
        <time>2024-06-05T21:56:10+00:00</time>
      </trkpt>
      <trkpt lat="45.44172" lon="6.24528">
        <ele>1571</ele>
        <time>2024-06-05T21:56:13+00:00</time>
      </trkpt>
      <trkpt lat="45.44177" lon="6.2452">
        <ele>1571</ele>
        <time>2024-06-05T21:56:16+00:00</time>
      </trkpt>
      <trkpt lat="45.44181" lon="6.24516">
        <ele>1568</ele>
        <time>2024-06-05T21:56:19+00:00</time>
      </trkpt>
      <trkpt lat="45.44189" lon="6.24515">
        <ele>1568</ele>
        <time>2024-06-05T21:56:22+00:00</time>
      </trkpt>
      <trkpt lat="45.44194" lon="6.24517">
        <ele>1566</ele>
        <time>2024-06-05T21:56:25+00:00</time>
      </trkpt>
      <trkpt lat="45.44197" lon="6.24522">
        <ele>1567</ele>
        <time>2024-06-05T21:56:28+00:00</time>
      </trkpt>
      <trkpt lat="45.44203" lon="6.24528">
        <ele>1565</ele>
        <time>2024-06-05T21:56:31+00:00</time>
      </trkpt>
      <trkpt lat="45.44207" lon="6.24533">
        <ele>1565</ele>
        <time>2024-06-05T21:56:34+00:00</time>
      </trkpt>
      <trkpt lat="45.44209" lon="6.24539">
        <ele>1565</ele>
        <time>2024-06-05T21:56:37+00:00</time>
      </trkpt>
      <trkpt lat="45.4421" lon="6.24547">
        <ele>1562</ele>
        <time>2024-06-05T21:56:40+00:00</time>
      </trkpt>
      <trkpt lat="45.44212" lon="6.24555">
        <ele>1561</ele>
        <time>2024-06-05T21:56:43+00:00</time>
      </trkpt>
      <trkpt lat="45.44214" lon="6.24565">
        <ele>1561</ele>
        <time>2024-06-05T21:56:46+00:00</time>
      </trkpt>
      <trkpt lat="45.44214" lon="6.24573">
        <ele>1559</ele>
        <time>2024-06-05T21:56:49+00:00</time>
      </trkpt>
      <trkpt lat="45.44215" lon="6.2458">
        <ele>1558</ele>
        <time>2024-06-05T21:56:52+00:00</time>
      </trkpt>
      <trkpt lat="45.44216" lon="6.24589">
        <ele>1558</ele>
        <time>2024-06-05T21:56:55+00:00</time>
      </trkpt>
      <trkpt lat="45.44217" lon="6.24597">
        <ele>1557</ele>
        <time>2024-06-05T21:56:58+00:00</time>
      </trkpt>
      <trkpt lat="45.44218" lon="6.24607">
        <ele>1557</ele>
        <time>2024-06-05T21:57:01+00:00</time>
      </trkpt>
      <trkpt lat="45.44219" lon="6.24614">
        <ele>1557</ele>
        <time>2024-06-05T21:57:04+00:00</time>
      </trkpt>
      <trkpt lat="45.44224" lon="6.24622">
        <ele>1555</ele>
        <time>2024-06-05T21:57:07+00:00</time>
      </trkpt>
      <trkpt lat="45.44227" lon="6.24629">
        <ele>1555</ele>
        <time>2024-06-05T21:57:10+00:00</time>
      </trkpt>
      <trkpt lat="45.44228" lon="6.24633">
        <ele>1555</ele>
        <time>2024-06-05T21:57:13+00:00</time>
      </trkpt>
      <trkpt lat="45.44235" lon="6.2464">
        <ele>1553</ele>
        <time>2024-06-05T21:57:16+00:00</time>
      </trkpt>
      <trkpt lat="45.4424" lon="6.24644">
        <ele>1551</ele>
        <time>2024-06-05T21:57:19+00:00</time>
      </trkpt>
      <trkpt lat="45.44244" lon="6.24646">
        <ele>1548</ele>
        <time>2024-06-05T21:57:22+00:00</time>
      </trkpt>
      <trkpt lat="45.44249" lon="6.24642">
        <ele>1548</ele>
        <time>2024-06-05T21:57:25+00:00</time>
      </trkpt>
      <trkpt lat="45.44255" lon="6.24638">
        <ele>1547</ele>
        <time>2024-06-05T21:57:28+00:00</time>
      </trkpt>
      <trkpt lat="45.44261" lon="6.24628">
        <ele>1541</ele>
        <time>2024-06-05T21:57:31+00:00</time>
      </trkpt>
      <trkpt lat="45.44267" lon="6.24615">
        <ele>1543</ele>
        <time>2024-06-05T21:57:34+00:00</time>
      </trkpt>
      <trkpt lat="45.44274" lon="6.24606">
        <ele>1541</ele>
        <time>2024-06-05T21:57:37+00:00</time>
      </trkpt>
      <trkpt lat="45.44278" lon="6.24595">
        <ele>1541</ele>
        <time>2024-06-05T21:57:40+00:00</time>
      </trkpt>
      <trkpt lat="45.44281" lon="6.24583">
        <ele>1538</ele>
        <time>2024-06-05T21:57:43+00:00</time>
      </trkpt>
      <trkpt lat="45.44282" lon="6.24571">
        <ele>1538</ele>
        <time>2024-06-05T21:57:46+00:00</time>
      </trkpt>
      <trkpt lat="45.44283" lon="6.24563">
        <ele>1537</ele>
        <time>2024-06-05T21:57:49+00:00</time>
      </trkpt>
      <trkpt lat="45.44283" lon="6.24555">
        <ele>1535</ele>
        <time>2024-06-05T21:57:52+00:00</time>
      </trkpt>
      <trkpt lat="45.44283" lon="6.2455">
        <ele>1534</ele>
        <time>2024-06-05T21:57:55+00:00</time>
      </trkpt>
      <trkpt lat="45.44285" lon="6.24546">
        <ele>1534</ele>
        <time>2024-06-05T21:57:58+00:00</time>
      </trkpt>
      <trkpt lat="45.44287" lon="6.24542">
        <ele>1534</ele>
        <time>2024-06-05T21:58:01+00:00</time>
      </trkpt>
      <trkpt lat="45.44288" lon="6.24536">
        <ele>1532</ele>
        <time>2024-06-05T21:58:04+00:00</time>
      </trkpt>
      <trkpt lat="45.44287" lon="6.24531">
        <ele>1532</ele>
        <time>2024-06-05T21:58:07+00:00</time>
      </trkpt>
      <trkpt lat="45.44286" lon="6.24525">
        <ele>1530</ele>
        <time>2024-06-05T21:58:10+00:00</time>
      </trkpt>
      <trkpt lat="45.44285" lon="6.24513">
        <ele>1528</ele>
        <time>2024-06-05T21:58:13+00:00</time>
      </trkpt>
      <trkpt lat="45.44284" lon="6.24501">
        <ele>1526</ele>
        <time>2024-06-05T21:58:16+00:00</time>
      </trkpt>
      <trkpt lat="45.44283" lon="6.24494">
        <ele>1524</ele>
        <time>2024-06-05T21:58:19+00:00</time>
      </trkpt>
      <trkpt lat="45.44282" lon="6.24489">
        <ele>1523</ele>
        <time>2024-06-05T21:58:22+00:00</time>
      </trkpt>
      <trkpt lat="45.44282" lon="6.24484">
        <ele>1523</ele>
        <time>2024-06-05T21:58:25+00:00</time>
      </trkpt>
      <trkpt lat="45.44282" lon="6.24477">
        <ele>1522</ele>
        <time>2024-06-05T21:58:28+00:00</time>
      </trkpt>
      <trkpt lat="45.44283" lon="6.24471">
        <ele>1522</ele>
        <time>2024-06-05T21:58:31+00:00</time>
      </trkpt>
      <trkpt lat="45.44282" lon="6.24453">
        <ele>1518</ele>
        <time>2024-06-05T21:58:34+00:00</time>
      </trkpt>
      <trkpt lat="45.44282" lon="6.24442">
        <ele>1517</ele>
        <time>2024-06-05T21:58:37+00:00</time>
      </trkpt>
      <trkpt lat="45.44282" lon="6.24432">
        <ele>1516</ele>
        <time>2024-06-05T21:58:40+00:00</time>
      </trkpt>
      <trkpt lat="45.44283" lon="6.24422">
        <ele>1514</ele>
        <time>2024-06-05T21:58:43+00:00</time>
      </trkpt>
      <trkpt lat="45.44285" lon="6.24409">
        <ele>1510</ele>
        <time>2024-06-05T21:58:46+00:00</time>
      </trkpt>
      <trkpt lat="45.44285" lon="6.244">
        <ele>1508</ele>
        <time>2024-06-05T21:58:49+00:00</time>
      </trkpt>
      <trkpt lat="45.44282" lon="6.24386">
        <ele>1506</ele>
        <time>2024-06-05T21:58:52+00:00</time>
      </trkpt>
      <trkpt lat="45.44278" lon="6.24375">
        <ele>1506</ele>
        <time>2024-06-05T21:58:55+00:00</time>
      </trkpt>
      <trkpt lat="45.44268" lon="6.24342">
        <ele>1503</ele>
        <time>2024-06-05T21:58:58+00:00</time>
      </trkpt>
      <trkpt lat="45.44262" lon="6.24315">
        <ele>1494</ele>
        <time>2024-06-05T21:59:01+00:00</time>
      </trkpt>
      <trkpt lat="45.44258" lon="6.24292">
        <ele>1494</ele>
        <time>2024-06-05T21:59:04+00:00</time>
      </trkpt>
      <trkpt lat="45.44256" lon="6.24257">
        <ele>1485</ele>
        <time>2024-06-05T21:59:07+00:00</time>
      </trkpt>
      <trkpt lat="45.44256" lon="6.24242">
        <ele>1483</ele>
        <time>2024-06-05T21:59:10+00:00</time>
      </trkpt>
      <trkpt lat="45.44256" lon="6.24236">
        <ele>1481</ele>
        <time>2024-06-05T21:59:13+00:00</time>
      </trkpt>
      <trkpt lat="45.44254" lon="6.24196">
        <ele>1472</ele>
        <time>2024-06-05T21:59:16+00:00</time>
      </trkpt>
      <trkpt lat="45.44251" lon="6.24161">
        <ele>1465</ele>
        <time>2024-06-05T21:59:19+00:00</time>
      </trkpt>
      <trkpt lat="45.44248" lon="6.24124">
        <ele>1460</ele>
        <time>2024-06-05T21:59:22+00:00</time>
      </trkpt>
      <trkpt lat="45.44253" lon="6.24091">
        <ele>1445</ele>
        <time>2024-06-05T21:59:25+00:00</time>
      </trkpt>
      <trkpt lat="45.44247" lon="6.24075">
        <ele>1446</ele>
        <time>2024-06-05T21:59:28+00:00</time>
      </trkpt>
      <trkpt lat="45.44243" lon="6.24063">
        <ele>1445</ele>
        <time>2024-06-05T21:59:31+00:00</time>
      </trkpt>
      <trkpt lat="45.44241" lon="6.24053">
        <ele>1444</ele>
        <time>2024-06-05T21:59:34+00:00</time>
      </trkpt>
      <trkpt lat="45.44241" lon="6.24046">
        <ele>1445</ele>
        <time>2024-06-05T21:59:37+00:00</time>
      </trkpt>
      <trkpt lat="45.44243" lon="6.24034">
        <ele>1446</ele>
        <time>2024-06-05T21:59:40+00:00</time>
      </trkpt>
      <trkpt lat="45.44247" lon="6.24018">
        <ele>1448</ele>
        <time>2024-06-05T21:59:43+00:00</time>
      </trkpt>
      <trkpt lat="45.44253" lon="6.23999">
        <ele>1448</ele>
        <time>2024-06-05T21:59:46+00:00</time>
      </trkpt>
      <trkpt lat="45.44258" lon="6.23976">
        <ele>1449</ele>
        <time>2024-06-05T21:59:49+00:00</time>
      </trkpt>
      <trkpt lat="45.44261" lon="6.23967">
        <ele>1450</ele>
        <time>2024-06-05T21:59:52+00:00</time>
      </trkpt>
      <trkpt lat="45.44261" lon="6.23955">
        <ele>1451</ele>
        <time>2024-06-05T21:59:55+00:00</time>
      </trkpt>
      <trkpt lat="45.44257" lon="6.23936">
        <ele>1454</ele>
        <time>2024-06-05T21:59:58+00:00</time>
      </trkpt>
      <trkpt lat="45.44248" lon="6.23904">
        <ele>1452</ele>
        <time>2024-06-05T22:00:01+00:00</time>
      </trkpt>
      <trkpt lat="45.44248" lon="6.23902">
        <ele>1459</ele>
        <time>2024-06-05T22:00:04+00:00</time>
      </trkpt>
      <trkpt lat="45.44264" lon="6.23878">
        <ele>1453</ele>
        <time>2024-06-05T22:00:07+00:00</time>
      </trkpt>
      <trkpt lat="45.44256" lon="6.23835">
        <ele>1455</ele>
        <time>2024-06-05T22:00:10+00:00</time>
      </trkpt>
      <trkpt lat="45.44227" lon="6.23808">
        <ele>1460</ele>
        <time>2024-06-05T22:00:13+00:00</time>
      </trkpt>
      <trkpt lat="45.44212" lon="6.23773">
        <ele>1461</ele>
        <time>2024-06-05T22:00:16+00:00</time>
      </trkpt>
      <trkpt lat="45.44205" lon="6.23765">
        <ele>1461</ele>
        <time>2024-06-05T22:00:19+00:00</time>
      </trkpt>
      <trkpt lat="45.44198" lon="6.23759">
        <ele>1462</ele>
        <time>2024-06-05T22:00:22+00:00</time>
      </trkpt>
      <trkpt lat="45.44188" lon="6.23751">
        <ele>1463</ele>
        <time>2024-06-05T22:00:25+00:00</time>
      </trkpt>
      <trkpt lat="45.4418" lon="6.23737">
        <ele>1462</ele>
        <time>2024-06-05T22:00:28+00:00</time>
      </trkpt>
      <trkpt lat="45.44177" lon="6.23728">
        <ele>1463</ele>
        <time>2024-06-05T22:00:31+00:00</time>
      </trkpt>
      <trkpt lat="45.44176" lon="6.23716">
        <ele>1463</ele>
        <time>2024-06-05T22:00:34+00:00</time>
      </trkpt>
      <trkpt lat="45.44175" lon="6.23704">
        <ele>1463</ele>
        <time>2024-06-05T22:00:37+00:00</time>
      </trkpt>
      <trkpt lat="45.44174" lon="6.23693">
        <ele>1463</ele>
        <time>2024-06-05T22:00:40+00:00</time>
      </trkpt>
      <trkpt lat="45.44177" lon="6.23683">
        <ele>1464</ele>
        <time>2024-06-05T22:00:43+00:00</time>
      </trkpt>
      <trkpt lat="45.44178" lon="6.23676">
        <ele>1464</ele>
        <time>2024-06-05T22:00:46+00:00</time>
      </trkpt>
      <trkpt lat="45.44171" lon="6.23647">
        <ele>1466</ele>
        <time>2024-06-05T22:00:49+00:00</time>
      </trkpt>
      <trkpt lat="45.44167" lon="6.23633">
        <ele>1467</ele>
        <time>2024-06-05T22:00:52+00:00</time>
      </trkpt>
      <trkpt lat="45.44165" lon="6.23622">
        <ele>1467</ele>
        <time>2024-06-05T22:00:55+00:00</time>
      </trkpt>
      <trkpt lat="45.44162" lon="6.23612">
        <ele>1467</ele>
        <time>2024-06-05T22:00:58+00:00</time>
      </trkpt>
      <trkpt lat="45.4416" lon="6.236">
        <ele>1468</ele>
        <time>2024-06-05T22:01:01+00:00</time>
      </trkpt>
      <trkpt lat="45.44157" lon="6.2359">
        <ele>1468</ele>
        <time>2024-06-05T22:01:04+00:00</time>
      </trkpt>
      <trkpt lat="45.44154" lon="6.23583">
        <ele>1469</ele>
        <time>2024-06-05T22:01:07+00:00</time>
      </trkpt>
      <trkpt lat="45.44148" lon="6.23575">
        <ele>1470</ele>
        <time>2024-06-05T22:01:10+00:00</time>
      </trkpt>
      <trkpt lat="45.44144" lon="6.23563">
        <ele>1471</ele>
        <time>2024-06-05T22:01:13+00:00</time>
      </trkpt>
      <trkpt lat="45.44143" lon="6.23553">
        <ele>1471</ele>
        <time>2024-06-05T22:01:16+00:00</time>
      </trkpt>
      <trkpt lat="45.44142" lon="6.23539">
        <ele>1471</ele>
        <time>2024-06-05T22:01:19+00:00</time>
      </trkpt>
      <trkpt lat="45.44137" lon="6.23528">
        <ele>1474</ele>
        <time>2024-06-05T22:01:22+00:00</time>
      </trkpt>
      <trkpt lat="45.44133" lon="6.23514">
        <ele>1474</ele>
        <time>2024-06-05T22:01:25+00:00</time>
      </trkpt>
      <trkpt lat="45.44128" lon="6.23503">
        <ele>1476</ele>
        <time>2024-06-05T22:01:28+00:00</time>
      </trkpt>
      <trkpt lat="45.44125" lon="6.23494">
        <ele>1477</ele>
        <time>2024-06-05T22:01:31+00:00</time>
      </trkpt>
      <trkpt lat="45.44123" lon="6.23483">
        <ele>1477</ele>
        <time>2024-06-05T22:01:34+00:00</time>
      </trkpt>
      <trkpt lat="45.4412" lon="6.2347">
        <ele>1478</ele>
        <time>2024-06-05T22:01:37+00:00</time>
      </trkpt>
      <trkpt lat="45.44115" lon="6.23453">
        <ele>1478</ele>
        <time>2024-06-05T22:01:40+00:00</time>
      </trkpt>
      <trkpt lat="45.44111" lon="6.23444">
        <ele>1478</ele>
        <time>2024-06-05T22:01:43+00:00</time>
      </trkpt>
      <trkpt lat="45.44107" lon="6.23436">
        <ele>1480</ele>
        <time>2024-06-05T22:01:46+00:00</time>
      </trkpt>
      <trkpt lat="45.44102" lon="6.23424">
        <ele>1481</ele>
        <time>2024-06-05T22:01:49+00:00</time>
      </trkpt>
      <trkpt lat="45.44097" lon="6.2341">
        <ele>1483</ele>
        <time>2024-06-05T22:01:52+00:00</time>
      </trkpt>
      <trkpt lat="45.44094" lon="6.23398">
        <ele>1485</ele>
        <time>2024-06-05T22:01:55+00:00</time>
      </trkpt>
      <trkpt lat="45.4409" lon="6.23377">
        <ele>1486</ele>
        <time>2024-06-05T22:01:58+00:00</time>
      </trkpt>
      <trkpt lat="45.44086" lon="6.23359">
        <ele>1488</ele>
        <time>2024-06-05T22:02:01+00:00</time>
      </trkpt>
      <trkpt lat="45.44079" lon="6.23342">
        <ele>1490</ele>
        <time>2024-06-05T22:02:04+00:00</time>
      </trkpt>
      <trkpt lat="45.44072" lon="6.23323">
        <ele>1492</ele>
        <time>2024-06-05T22:02:07+00:00</time>
      </trkpt>
      <trkpt lat="45.44064" lon="6.23309">
        <ele>1496</ele>
        <time>2024-06-05T22:02:10+00:00</time>
      </trkpt>
      <trkpt lat="45.44059" lon="6.23295">
        <ele>1501</ele>
        <time>2024-06-05T22:02:13+00:00</time>
      </trkpt>
      <trkpt lat="45.44053" lon="6.23279">
        <ele>1502</ele>
        <time>2024-06-05T22:02:16+00:00</time>
      </trkpt>
      <trkpt lat="45.44047" lon="6.23261">
        <ele>1506</ele>
        <time>2024-06-05T22:02:19+00:00</time>
      </trkpt>
      <trkpt lat="45.44043" lon="6.23246">
        <ele>1509</ele>
        <time>2024-06-05T22:02:22+00:00</time>
      </trkpt>
      <trkpt lat="45.44041" lon="6.2323">
        <ele>1512</ele>
        <time>2024-06-05T22:02:25+00:00</time>
      </trkpt>
      <trkpt lat="45.44042" lon="6.23207">
        <ele>1516</ele>
        <time>2024-06-05T22:02:28+00:00</time>
      </trkpt>
      <trkpt lat="45.44045" lon="6.23196">
        <ele>1517</ele>
        <time>2024-06-05T22:02:31+00:00</time>
      </trkpt>
      <trkpt lat="45.44045" lon="6.2318">
        <ele>1516</ele>
        <time>2024-06-05T22:02:34+00:00</time>
      </trkpt>
      <trkpt lat="45.44044" lon="6.23165">
        <ele>1518</ele>
        <time>2024-06-05T22:02:37+00:00</time>
      </trkpt>
      <trkpt lat="45.44041" lon="6.23151">
        <ele>1516</ele>
        <time>2024-06-05T22:02:40+00:00</time>
      </trkpt>
      <trkpt lat="45.44035" lon="6.2314">
        <ele>1520</ele>
        <time>2024-06-05T22:02:43+00:00</time>
      </trkpt>
      <trkpt lat="45.44024" lon="6.23114">
        <ele>1522</ele>
        <time>2024-06-05T22:02:46+00:00</time>
      </trkpt>
      <trkpt lat="45.44017" lon="6.23098">
        <ele>1525</ele>
        <time>2024-06-05T22:02:49+00:00</time>
      </trkpt>
      <trkpt lat="45.4401" lon="6.23085">
        <ele>1528</ele>
        <time>2024-06-05T22:02:52+00:00</time>
      </trkpt>
      <trkpt lat="45.43998" lon="6.23076">
        <ele>1530</ele>
        <time>2024-06-05T22:02:55+00:00</time>
      </trkpt>
      <trkpt lat="45.43987" lon="6.23062">
        <ele>1531</ele>
        <time>2024-06-05T22:02:58+00:00</time>
      </trkpt>
      <trkpt lat="45.43979" lon="6.23052">
        <ele>1533</ele>
        <time>2024-06-05T22:03:01+00:00</time>
      </trkpt>
      <trkpt lat="45.4397" lon="6.23043">
        <ele>1536</ele>
        <time>2024-06-05T22:03:04+00:00</time>
      </trkpt>
      <trkpt lat="45.43962" lon="6.23031">
        <ele>1537</ele>
        <time>2024-06-05T22:03:07+00:00</time>
      </trkpt>
      <trkpt lat="45.43954" lon="6.23017">
        <ele>1539</ele>
        <time>2024-06-05T22:03:10+00:00</time>
      </trkpt>
      <trkpt lat="45.43944" lon="6.23004">
        <ele>1542</ele>
        <time>2024-06-05T22:03:13+00:00</time>
      </trkpt>
      <trkpt lat="45.43936" lon="6.22994">
        <ele>1543</ele>
        <time>2024-06-05T22:03:16+00:00</time>
      </trkpt>
      <trkpt lat="45.43922" lon="6.22977">
        <ele>1545</ele>
        <time>2024-06-05T22:03:19+00:00</time>
      </trkpt>
      <trkpt lat="45.43908" lon="6.2297">
        <ele>1552</ele>
        <time>2024-06-05T22:03:22+00:00</time>
      </trkpt>
      <trkpt lat="45.43899" lon="6.2296">
        <ele>1556</ele>
        <time>2024-06-05T22:03:25+00:00</time>
      </trkpt>
      <trkpt lat="45.43897" lon="6.22949">
        <ele>1556</ele>
        <time>2024-06-05T22:03:28+00:00</time>
      </trkpt>
      <trkpt lat="45.43893" lon="6.22941">
        <ele>1556</ele>
        <time>2024-06-05T22:03:31+00:00</time>
      </trkpt>
      <trkpt lat="45.43888" lon="6.22937">
        <ele>1560</ele>
        <time>2024-06-05T22:03:34+00:00</time>
      </trkpt>
      <trkpt lat="45.43886" lon="6.22932">
        <ele>1560</ele>
        <time>2024-06-05T22:03:37+00:00</time>
      </trkpt>
      <trkpt lat="45.43882" lon="6.22926">
        <ele>1561</ele>
        <time>2024-06-05T22:03:40+00:00</time>
      </trkpt>
      <trkpt lat="45.43879" lon="6.2292">
        <ele>1564</ele>
        <time>2024-06-05T22:03:43+00:00</time>
      </trkpt>
      <trkpt lat="45.43878" lon="6.22911">
        <ele>1564</ele>
        <time>2024-06-05T22:03:46+00:00</time>
      </trkpt>
      <trkpt lat="45.43876" lon="6.22905">
        <ele>1565</ele>
        <time>2024-06-05T22:03:49+00:00</time>
      </trkpt>
      <trkpt lat="45.43872" lon="6.22899">
        <ele>1565</ele>
        <time>2024-06-05T22:03:52+00:00</time>
      </trkpt>
      <trkpt lat="45.43867" lon="6.22893">
        <ele>1568</ele>
        <time>2024-06-05T22:03:55+00:00</time>
      </trkpt>
      <trkpt lat="45.43863" lon="6.22884">
        <ele>1568</ele>
        <time>2024-06-05T22:03:58+00:00</time>
      </trkpt>
      <trkpt lat="45.43858" lon="6.22877">
        <ele>1571</ele>
        <time>2024-06-05T22:04:01+00:00</time>
      </trkpt>
      <trkpt lat="45.43852" lon="6.22872">
        <ele>1571</ele>
        <time>2024-06-05T22:04:04+00:00</time>
      </trkpt>
      <trkpt lat="45.43844" lon="6.22867">
        <ele>1573</ele>
        <time>2024-06-05T22:04:07+00:00</time>
      </trkpt>
      <trkpt lat="45.43834" lon="6.22861">
        <ele>1576</ele>
        <time>2024-06-05T22:04:10+00:00</time>
      </trkpt>
      <trkpt lat="45.43826" lon="6.22851">
        <ele>1579</ele>
        <time>2024-06-05T22:04:13+00:00</time>
      </trkpt>
      <trkpt lat="45.43818" lon="6.22834">
        <ele>1580</ele>
        <time>2024-06-05T22:04:16+00:00</time>
      </trkpt>
      <trkpt lat="45.43813" lon="6.22827">
        <ele>1579</ele>
        <time>2024-06-05T22:04:19+00:00</time>
      </trkpt>
      <trkpt lat="45.43807" lon="6.22817">
        <ele>1582</ele>
        <time>2024-06-05T22:04:22+00:00</time>
      </trkpt>
      <trkpt lat="45.43802" lon="6.22807">
        <ele>1580</ele>
        <time>2024-06-05T22:04:25+00:00</time>
      </trkpt>
      <trkpt lat="45.43798" lon="6.22797">
        <ele>1582</ele>
        <time>2024-06-05T22:04:28+00:00</time>
      </trkpt>
      <trkpt lat="45.43794" lon="6.22786">
        <ele>1584</ele>
        <time>2024-06-05T22:04:31+00:00</time>
      </trkpt>
      <trkpt lat="45.4379" lon="6.22776">
        <ele>1586</ele>
        <time>2024-06-05T22:04:34+00:00</time>
      </trkpt>
      <trkpt lat="45.43783" lon="6.22768">
        <ele>1585</ele>
        <time>2024-06-05T22:04:37+00:00</time>
      </trkpt>
      <trkpt lat="45.43779" lon="6.2276">
        <ele>1587</ele>
        <time>2024-06-05T22:04:40+00:00</time>
      </trkpt>
      <trkpt lat="45.43776" lon="6.22755">
        <ele>1587</ele>
        <time>2024-06-05T22:04:43+00:00</time>
      </trkpt>
      <trkpt lat="45.43772" lon="6.22754">
        <ele>1587</ele>
        <time>2024-06-05T22:04:46+00:00</time>
      </trkpt>
      <trkpt lat="45.43769" lon="6.22754">
        <ele>1592</ele>
        <time>2024-06-05T22:04:49+00:00</time>
      </trkpt>
      <trkpt lat="45.43762" lon="6.22746">
        <ele>1590</ele>
        <time>2024-06-05T22:04:52+00:00</time>
      </trkpt>
      <trkpt lat="45.43754" lon="6.22735">
        <ele>1592</ele>
        <time>2024-06-05T22:04:55+00:00</time>
      </trkpt>
      <trkpt lat="45.43746" lon="6.22728">
        <ele>1593</ele>
        <time>2024-06-05T22:04:58+00:00</time>
      </trkpt>
      <trkpt lat="45.43739" lon="6.22716">
        <ele>1595</ele>
        <time>2024-06-05T22:05:01+00:00</time>
      </trkpt>
      <trkpt lat="45.4373" lon="6.22701">
        <ele>1595</ele>
        <time>2024-06-05T22:05:04+00:00</time>
      </trkpt>
      <trkpt lat="45.43726" lon="6.22694">
        <ele>1598</ele>
        <time>2024-06-05T22:05:07+00:00</time>
      </trkpt>
      <trkpt lat="45.43722" lon="6.22687">
        <ele>1598</ele>
        <time>2024-06-05T22:05:10+00:00</time>
      </trkpt>
      <trkpt lat="45.43718" lon="6.2268">
        <ele>1601</ele>
        <time>2024-06-05T22:05:13+00:00</time>
      </trkpt>
      <trkpt lat="45.43719" lon="6.22672">
        <ele>1601</ele>
        <time>2024-06-05T22:05:16+00:00</time>
      </trkpt>
      <trkpt lat="45.43718" lon="6.22662">
        <ele>1602</ele>
        <time>2024-06-05T22:05:19+00:00</time>
      </trkpt>
      <trkpt lat="45.43712" lon="6.22647">
        <ele>1603</ele>
        <time>2024-06-05T22:05:22+00:00</time>
      </trkpt>
      <trkpt lat="45.43707" lon="6.22638">
        <ele>1607</ele>
        <time>2024-06-05T22:05:25+00:00</time>
      </trkpt>
      <trkpt lat="45.43704" lon="6.22628">
        <ele>1608</ele>
        <time>2024-06-05T22:05:28+00:00</time>
      </trkpt>
      <trkpt lat="45.43699" lon="6.22622">
        <ele>1611</ele>
        <time>2024-06-05T22:05:31+00:00</time>
      </trkpt>
      <trkpt lat="45.43694" lon="6.22615">
        <ele>1611</ele>
        <time>2024-06-05T22:05:34+00:00</time>
      </trkpt>
      <trkpt lat="45.4369" lon="6.22607">
        <ele>1613</ele>
        <time>2024-06-05T22:05:37+00:00</time>
      </trkpt>
      <trkpt lat="45.43688" lon="6.22606">
        <ele>1613</ele>
        <time>2024-06-05T22:05:40+00:00</time>
      </trkpt>
      <trkpt lat="45.43674" lon="6.22574">
        <ele>1617</ele>
        <time>2024-06-05T22:05:43+00:00</time>
      </trkpt>
      <trkpt lat="45.43647" lon="6.22512">
        <ele>1625</ele>
        <time>2024-06-05T22:05:46+00:00</time>
      </trkpt>
      <trkpt lat="45.43634" lon="6.22497">
        <ele>1628</ele>
        <time>2024-06-05T22:05:49+00:00</time>
      </trkpt>
      <trkpt lat="45.43631" lon="6.22489">
        <ele>1628</ele>
        <time>2024-06-05T22:05:52+00:00</time>
      </trkpt>
      <trkpt lat="45.43627" lon="6.22479">
        <ele>1632</ele>
        <time>2024-06-05T22:05:55+00:00</time>
      </trkpt>
      <trkpt lat="45.43624" lon="6.22468">
        <ele>1631</ele>
        <time>2024-06-05T22:05:58+00:00</time>
      </trkpt>
      <trkpt lat="45.43619" lon="6.22459">
        <ele>1637</ele>
        <time>2024-06-05T22:06:01+00:00</time>
      </trkpt>
      <trkpt lat="45.43611" lon="6.22452">
        <ele>1637</ele>
        <time>2024-06-05T22:06:04+00:00</time>
      </trkpt>
      <trkpt lat="45.43605" lon="6.22444">
        <ele>1641</ele>
        <time>2024-06-05T22:06:07+00:00</time>
      </trkpt>
      <trkpt lat="45.43598" lon="6.22435">
        <ele>1643</ele>
        <time>2024-06-05T22:06:10+00:00</time>
      </trkpt>
      <trkpt lat="45.43591" lon="6.22425">
        <ele>1641</ele>
        <time>2024-06-05T22:06:13+00:00</time>
      </trkpt>
      <trkpt lat="45.43586" lon="6.22414">
        <ele>1645</ele>
        <time>2024-06-05T22:06:16+00:00</time>
      </trkpt>
      <trkpt lat="45.43577" lon="6.22407">
        <ele>1645</ele>
        <time>2024-06-05T22:06:19+00:00</time>
      </trkpt>
      <trkpt lat="45.43569" lon="6.22397">
        <ele>1647</ele>
        <time>2024-06-05T22:06:22+00:00</time>
      </trkpt>
      <trkpt lat="45.43564" lon="6.22387">
        <ele>1646</ele>
        <time>2024-06-05T22:06:25+00:00</time>
      </trkpt>
      <trkpt lat="45.43561" lon="6.22383">
        <ele>1646</ele>
        <time>2024-06-05T22:06:28+00:00</time>
      </trkpt>
      <trkpt lat="45.43555" lon="6.22382">
        <ele>1652</ele>
        <time>2024-06-05T22:06:31+00:00</time>
      </trkpt>
      <trkpt lat="45.43549" lon="6.22373">
        <ele>1650</ele>
        <time>2024-06-05T22:06:34+00:00</time>
      </trkpt>
      <trkpt lat="45.43548" lon="6.22369">
        <ele>1654</ele>
        <time>2024-06-05T22:06:37+00:00</time>
      </trkpt>
      <trkpt lat="45.43545" lon="6.22363">
        <ele>1654</ele>
        <time>2024-06-05T22:06:40+00:00</time>
      </trkpt>
      <trkpt lat="45.43544" lon="6.22358">
        <ele>1652</ele>
        <time>2024-06-05T22:06:43+00:00</time>
      </trkpt>
      <trkpt lat="45.43542" lon="6.22353">
        <ele>1652</ele>
        <time>2024-06-05T22:06:46+00:00</time>
      </trkpt>
      <trkpt lat="45.43539" lon="6.22349">
        <ele>1654</ele>
        <time>2024-06-05T22:06:49+00:00</time>
      </trkpt>
      <trkpt lat="45.43534" lon="6.22341">
        <ele>1654</ele>
        <time>2024-06-05T22:06:52+00:00</time>
      </trkpt>
      <trkpt lat="45.43526" lon="6.22334">
        <ele>1657</ele>
        <time>2024-06-05T22:06:55+00:00</time>
      </trkpt>
      <trkpt lat="45.4352" lon="6.22329">
        <ele>1657</ele>
        <time>2024-06-05T22:06:58+00:00</time>
      </trkpt>
      <trkpt lat="45.43516" lon="6.22325">
        <ele>1658</ele>
        <time>2024-06-05T22:07:01+00:00</time>
      </trkpt>
      <trkpt lat="45.43513" lon="6.2232">
        <ele>1658</ele>
        <time>2024-06-05T22:07:04+00:00</time>
      </trkpt>
      <trkpt lat="45.4351" lon="6.22313">
        <ele>1660</ele>
        <time>2024-06-05T22:07:07+00:00</time>
      </trkpt>
      <trkpt lat="45.43503" lon="6.22306">
        <ele>1660</ele>
        <time>2024-06-05T22:07:10+00:00</time>
      </trkpt>
      <trkpt lat="45.43499" lon="6.22298">
        <ele>1664</ele>
        <time>2024-06-05T22:07:13+00:00</time>
      </trkpt>
      <trkpt lat="45.43494" lon="6.22292">
        <ele>1664</ele>
        <time>2024-06-05T22:07:16+00:00</time>
      </trkpt>
      <trkpt lat="45.43487" lon="6.22285">
        <ele>1664</ele>
        <time>2024-06-05T22:07:19+00:00</time>
      </trkpt>
      <trkpt lat="45.4348" lon="6.22284">
        <ele>1664</ele>
        <time>2024-06-05T22:07:22+00:00</time>
      </trkpt>
      <trkpt lat="45.43472" lon="6.22283">
        <ele>1666</ele>
        <time>2024-06-05T22:07:25+00:00</time>
      </trkpt>
      <trkpt lat="45.43467" lon="6.22277">
        <ele>1669</ele>
        <time>2024-06-05T22:07:28+00:00</time>
      </trkpt>
      <trkpt lat="45.43469" lon="6.22269">
        <ele>1668</ele>
        <time>2024-06-05T22:07:31+00:00</time>
      </trkpt>
      <trkpt lat="45.43464" lon="6.22268">
        <ele>1668</ele>
        <time>2024-06-05T22:07:34+00:00</time>
      </trkpt>
      <trkpt lat="45.4346" lon="6.22264">
        <ele>1670</ele>
        <time>2024-06-05T22:07:37+00:00</time>
      </trkpt>
      <trkpt lat="45.43457" lon="6.22261">
        <ele>1670</ele>
        <time>2024-06-05T22:07:40+00:00</time>
      </trkpt>
      <trkpt lat="45.43457" lon="6.22256">
        <ele>1669</ele>
        <time>2024-06-05T22:07:43+00:00</time>
      </trkpt>
      <trkpt lat="45.43454" lon="6.22253">
        <ele>1669</ele>
        <time>2024-06-05T22:07:46+00:00</time>
      </trkpt>
      <trkpt lat="45.43452" lon="6.22248">
        <ele>1668</ele>
        <time>2024-06-05T22:07:49+00:00</time>
      </trkpt>
      <trkpt lat="45.43444" lon="6.2224">
        <ele>1670</ele>
        <time>2024-06-05T22:07:52+00:00</time>
      </trkpt>
      <trkpt lat="45.43436" lon="6.22231">
        <ele>1672</ele>
        <time>2024-06-05T22:07:55+00:00</time>
      </trkpt>
      <trkpt lat="45.43429" lon="6.22227">
        <ele>1673</ele>
        <time>2024-06-05T22:07:58+00:00</time>
      </trkpt>
      <trkpt lat="45.43423" lon="6.22225">
        <ele>1673</ele>
        <time>2024-06-05T22:08:01+00:00</time>
      </trkpt>
      <trkpt lat="45.43418" lon="6.22221">
        <ele>1675</ele>
        <time>2024-06-05T22:08:04+00:00</time>
      </trkpt>
      <trkpt lat="45.43414" lon="6.22209">
        <ele>1675</ele>
        <time>2024-06-05T22:08:07+00:00</time>
      </trkpt>
      <trkpt lat="45.43412" lon="6.22202">
        <ele>1675</ele>
        <time>2024-06-05T22:08:10+00:00</time>
      </trkpt>
      <trkpt lat="45.4341" lon="6.22199">
        <ele>1676</ele>
        <time>2024-06-05T22:08:13+00:00</time>
      </trkpt>
      <trkpt lat="45.43407" lon="6.22189">
        <ele>1679</ele>
        <time>2024-06-05T22:08:16+00:00</time>
      </trkpt>
      <trkpt lat="45.43405" lon="6.22181">
        <ele>1679</ele>
        <time>2024-06-05T22:08:19+00:00</time>
      </trkpt>
      <trkpt lat="45.43401" lon="6.22176">
        <ele>1679</ele>
        <time>2024-06-05T22:08:22+00:00</time>
      </trkpt>
      <trkpt lat="45.43394" lon="6.22165">
        <ele>1680</ele>
        <time>2024-06-05T22:08:25+00:00</time>
      </trkpt>
      <trkpt lat="45.43388" lon="6.22157">
        <ele>1682</ele>
        <time>2024-06-05T22:08:28+00:00</time>
      </trkpt>
      <trkpt lat="45.43383" lon="6.22155">
        <ele>1682</ele>
        <time>2024-06-05T22:08:31+00:00</time>
      </trkpt>
      <trkpt lat="45.43378" lon="6.22154">
        <ele>1685</ele>
        <time>2024-06-05T22:08:34+00:00</time>
      </trkpt>
      <trkpt lat="45.43373" lon="6.22152">
        <ele>1685</ele>
        <time>2024-06-05T22:08:37+00:00</time>
      </trkpt>
      <trkpt lat="45.43369" lon="6.22148">
        <ele>1687</ele>
        <time>2024-06-05T22:08:40+00:00</time>
      </trkpt>
      <trkpt lat="45.43365" lon="6.22139">
        <ele>1688</ele>
        <time>2024-06-05T22:08:43+00:00</time>
      </trkpt>
      <trkpt lat="45.43364" lon="6.22136">
        <ele>1688</ele>
        <time>2024-06-05T22:08:46+00:00</time>
      </trkpt>
      <trkpt lat="45.43363" lon="6.22134">
        <ele>1688</ele>
        <time>2024-06-05T22:08:49+00:00</time>
      </trkpt>
      <trkpt lat="45.4336" lon="6.2213">
        <ele>1688</ele>
        <time>2024-06-05T22:08:52+00:00</time>
      </trkpt>
      <trkpt lat="45.4336" lon="6.22124">
        <ele>1691</ele>
        <time>2024-06-05T22:08:55+00:00</time>
      </trkpt>
      <trkpt lat="45.43359" lon="6.2212">
        <ele>1691</ele>
        <time>2024-06-05T22:08:58+00:00</time>
      </trkpt>
      <trkpt lat="45.43357" lon="6.22117">
        <ele>1691</ele>
        <time>2024-06-05T22:09:01+00:00</time>
      </trkpt>
      <trkpt lat="45.43355" lon="6.22115">
        <ele>1691</ele>
        <time>2024-06-05T22:09:04+00:00</time>
      </trkpt>
      <trkpt lat="45.43353" lon="6.22111">
        <ele>1691</ele>
        <time>2024-06-05T22:09:07+00:00</time>
      </trkpt>
      <trkpt lat="45.43351" lon="6.22104">
        <ele>1691</ele>
        <time>2024-06-05T22:09:10+00:00</time>
      </trkpt>
      <trkpt lat="45.4335" lon="6.22101">
        <ele>1694</ele>
        <time>2024-06-05T22:09:13+00:00</time>
      </trkpt>
      <trkpt lat="45.43348" lon="6.22099">
        <ele>1695</ele>
        <time>2024-06-05T22:09:16+00:00</time>
      </trkpt>
      <trkpt lat="45.43343" lon="6.22097">
        <ele>1695</ele>
        <time>2024-06-05T22:09:19+00:00</time>
      </trkpt>
      <trkpt lat="45.43335" lon="6.22096">
        <ele>1697</ele>
        <time>2024-06-05T22:09:22+00:00</time>
      </trkpt>
      <trkpt lat="45.43326" lon="6.22094">
        <ele>1699</ele>
        <time>2024-06-05T22:09:25+00:00</time>
      </trkpt>
      <trkpt lat="45.43321" lon="6.22092">
        <ele>1699</ele>
        <time>2024-06-05T22:09:28+00:00</time>
      </trkpt>
      <trkpt lat="45.43319" lon="6.2209">
        <ele>1702</ele>
        <time>2024-06-05T22:09:31+00:00</time>
      </trkpt>
      <trkpt lat="45.43317" lon="6.22089">
        <ele>1702</ele>
        <time>2024-06-05T22:09:34+00:00</time>
      </trkpt>
      <trkpt lat="45.43315" lon="6.22086">
        <ele>1702</ele>
        <time>2024-06-05T22:09:37+00:00</time>
      </trkpt>
      <trkpt lat="45.43312" lon="6.22081">
        <ele>1702</ele>
        <time>2024-06-05T22:09:40+00:00</time>
      </trkpt>
      <trkpt lat="45.4331" lon="6.22078">
        <ele>1703</ele>
        <time>2024-06-05T22:09:43+00:00</time>
      </trkpt>
      <trkpt lat="45.43307" lon="6.22077">
        <ele>1706</ele>
        <time>2024-06-05T22:09:46+00:00</time>
      </trkpt>
      <trkpt lat="45.43303" lon="6.22071">
        <ele>1706</ele>
        <time>2024-06-05T22:09:49+00:00</time>
      </trkpt>
      <trkpt lat="45.43296" lon="6.22063">
        <ele>1710</ele>
        <time>2024-06-05T22:09:52+00:00</time>
      </trkpt>
      <trkpt lat="45.43291" lon="6.22054">
        <ele>1711</ele>
        <time>2024-06-05T22:09:55+00:00</time>
      </trkpt>
      <trkpt lat="45.43283" lon="6.22041">
        <ele>1716</ele>
        <time>2024-06-05T22:09:58+00:00</time>
      </trkpt>
      <trkpt lat="45.43276" lon="6.22019">
        <ele>1721</ele>
        <time>2024-06-05T22:10:01+00:00</time>
      </trkpt>
      <trkpt lat="45.4327" lon="6.21997">
        <ele>1723</ele>
        <time>2024-06-05T22:10:04+00:00</time>
      </trkpt>
      <trkpt lat="45.43261" lon="6.21992">
        <ele>1726</ele>
        <time>2024-06-05T22:10:07+00:00</time>
      </trkpt>
      <trkpt lat="45.43252" lon="6.21977">
        <ele>1732</ele>
        <time>2024-06-05T22:10:10+00:00</time>
      </trkpt>
      <trkpt lat="45.43237" lon="6.21969">
        <ele>1740</ele>
        <time>2024-06-05T22:10:13+00:00</time>
      </trkpt>
      <trkpt lat="45.43219" lon="6.21966">
        <ele>1748</ele>
        <time>2024-06-05T22:10:16+00:00</time>
      </trkpt>
      <trkpt lat="45.43207" lon="6.2196">
        <ele>1756</ele>
        <time>2024-06-05T22:10:19+00:00</time>
      </trkpt>
      <trkpt lat="45.43189" lon="6.21948">
        <ele>1764</ele>
        <time>2024-06-05T22:10:22+00:00</time>
      </trkpt>
      <trkpt lat="45.43175" lon="6.2194">
        <ele>1769</ele>
        <time>2024-06-05T22:10:25+00:00</time>
      </trkpt>
      <trkpt lat="45.43182" lon="6.2193">
        <ele>1767</ele>
        <time>2024-06-05T22:10:28+00:00</time>
      </trkpt>
      <trkpt lat="45.4319" lon="6.21911">
        <ele>1769</ele>
        <time>2024-06-05T22:10:31+00:00</time>
      </trkpt>
      <trkpt lat="45.43191" lon="6.21893">
        <ele>1770</ele>
        <time>2024-06-05T22:10:34+00:00</time>
      </trkpt>
      <trkpt lat="45.43198" lon="6.21873">
        <ele>1775</ele>
        <time>2024-06-05T22:10:37+00:00</time>
      </trkpt>
      <trkpt lat="45.43205" lon="6.21854">
        <ele>1777</ele>
        <time>2024-06-05T22:10:40+00:00</time>
      </trkpt>
      <trkpt lat="45.4321" lon="6.21826">
        <ele>1784</ele>
        <time>2024-06-05T22:10:43+00:00</time>
      </trkpt>
      <trkpt lat="45.432" lon="6.21804">
        <ele>1786</ele>
        <time>2024-06-05T22:10:46+00:00</time>
      </trkpt>
      <trkpt lat="45.43193" lon="6.21776">
        <ele>1794</ele>
        <time>2024-06-05T22:10:49+00:00</time>
      </trkpt>
      <trkpt lat="45.43181" lon="6.21755">
        <ele>1799</ele>
        <time>2024-06-05T22:10:52+00:00</time>
      </trkpt>
      <trkpt lat="45.4318" lon="6.2174">
        <ele>1800</ele>
        <time>2024-06-05T22:10:55+00:00</time>
      </trkpt>
      <trkpt lat="45.43169" lon="6.21728">
        <ele>1808</ele>
        <time>2024-06-05T22:10:58+00:00</time>
      </trkpt>
      <trkpt lat="45.43158" lon="6.21713">
        <ele>1812</ele>
        <time>2024-06-05T22:11:01+00:00</time>
      </trkpt>
      <trkpt lat="45.43138" lon="6.21688">
        <ele>1823</ele>
        <time>2024-06-05T22:11:04+00:00</time>
      </trkpt>
      <trkpt lat="45.43113" lon="6.21653">
        <ele>1833</ele>
        <time>2024-06-05T22:11:07+00:00</time>
      </trkpt>
      <trkpt lat="45.43094" lon="6.21627">
        <ele>1844</ele>
        <time>2024-06-05T22:11:10+00:00</time>
      </trkpt>
      <trkpt lat="45.43076" lon="6.21597">
        <ele>1853</ele>
        <time>2024-06-05T22:11:13+00:00</time>
      </trkpt>
      <trkpt lat="45.43065" lon="6.21573">
        <ele>1858</ele>
        <time>2024-06-05T22:11:16+00:00</time>
      </trkpt>
      <trkpt lat="45.43055" lon="6.21549">
        <ele>1866</ele>
        <time>2024-06-05T22:11:19+00:00</time>
      </trkpt>
      <trkpt lat="45.43044" lon="6.21533">
        <ele>1870</ele>
        <time>2024-06-05T22:11:22+00:00</time>
      </trkpt>
      <trkpt lat="45.43025" lon="6.21502">
        <ele>1881</ele>
        <time>2024-06-05T22:11:25+00:00</time>
      </trkpt>
      <trkpt lat="45.43022" lon="6.21486">
        <ele>1885</ele>
        <time>2024-06-05T22:11:28+00:00</time>
      </trkpt>
      <trkpt lat="45.43012" lon="6.21467">
        <ele>1890</ele>
        <time>2024-06-05T22:11:31+00:00</time>
      </trkpt>
      <trkpt lat="45.43008" lon="6.2145">
        <ele>1896</ele>
        <time>2024-06-05T22:11:34+00:00</time>
      </trkpt>
      <trkpt lat="45.42998" lon="6.2143">
        <ele>1903</ele>
        <time>2024-06-05T22:11:37+00:00</time>
      </trkpt>
      <trkpt lat="45.42989" lon="6.21413">
        <ele>1908</ele>
        <time>2024-06-05T22:11:40+00:00</time>
      </trkpt>
      <trkpt lat="45.42977" lon="6.21393">
        <ele>1915</ele>
        <time>2024-06-05T22:11:43+00:00</time>
      </trkpt>
      <trkpt lat="45.42968" lon="6.21382">
        <ele>1918</ele>
        <time>2024-06-05T22:11:46+00:00</time>
      </trkpt>
      <trkpt lat="45.42965" lon="6.21368">
        <ele>1924</ele>
        <time>2024-06-05T22:11:49+00:00</time>
      </trkpt>
      <trkpt lat="45.42958" lon="6.21351">
        <ele>1927</ele>
        <time>2024-06-05T22:11:52+00:00</time>
      </trkpt>
      <trkpt lat="45.42946" lon="6.21345">
        <ele>1930</ele>
        <time>2024-06-05T22:11:55+00:00</time>
      </trkpt>
      <trkpt lat="45.42936" lon="6.21335">
        <ele>1932</ele>
        <time>2024-06-05T22:11:58+00:00</time>
      </trkpt>
      <trkpt lat="45.42924" lon="6.21319">
        <ele>1938</ele>
        <time>2024-06-05T22:12:01+00:00</time>
      </trkpt>
      <trkpt lat="45.42913" lon="6.21306">
        <ele>1939</ele>
        <time>2024-06-05T22:12:04+00:00</time>
      </trkpt>
      <trkpt lat="45.429" lon="6.21292">
        <ele>1942</ele>
        <time>2024-06-05T22:12:07+00:00</time>
      </trkpt>
      <trkpt lat="45.42894" lon="6.21272">
        <ele>1949</ele>
        <time>2024-06-05T22:12:10+00:00</time>
      </trkpt>
      <trkpt lat="45.42887" lon="6.21268">
        <ele>1951</ele>
        <time>2024-06-05T22:12:13+00:00</time>
      </trkpt>
      <trkpt lat="45.42878" lon="6.21245">
        <ele>1955</ele>
        <time>2024-06-05T22:12:16+00:00</time>
      </trkpt>
      <trkpt lat="45.42876" lon="6.21235">
        <ele>1957</ele>
        <time>2024-06-05T22:12:19+00:00</time>
      </trkpt>
      <trkpt lat="45.4287" lon="6.21227">
        <ele>1962</ele>
        <time>2024-06-05T22:12:22+00:00</time>
      </trkpt>
      <trkpt lat="45.42862" lon="6.21214">
        <ele>1961</ele>
        <time>2024-06-05T22:12:25+00:00</time>
      </trkpt>
      <trkpt lat="45.42858" lon="6.21199">
        <ele>1966</ele>
        <time>2024-06-05T22:12:28+00:00</time>
      </trkpt>
      <trkpt lat="45.42849" lon="6.21192">
        <ele>1967</ele>
        <time>2024-06-05T22:12:31+00:00</time>
      </trkpt>
      <trkpt lat="45.42839" lon="6.21187">
        <ele>1971</ele>
        <time>2024-06-05T22:12:34+00:00</time>
      </trkpt>
      <trkpt lat="45.4283" lon="6.21184">
        <ele>1976</ele>
        <time>2024-06-05T22:12:37+00:00</time>
      </trkpt>
      <trkpt lat="45.42825" lon="6.21175">
        <ele>1976</ele>
        <time>2024-06-05T22:12:40+00:00</time>
      </trkpt>
      <trkpt lat="45.4282" lon="6.2117">
        <ele>1980</ele>
        <time>2024-06-05T22:12:43+00:00</time>
      </trkpt>
      <trkpt lat="45.42812" lon="6.21162">
        <ele>1980</ele>
        <time>2024-06-05T22:12:46+00:00</time>
      </trkpt>
      <trkpt lat="45.4281" lon="6.2115">
        <ele>1985</ele>
        <time>2024-06-05T22:12:49+00:00</time>
      </trkpt>
      <trkpt lat="45.42813" lon="6.21148">
        <ele>1986</ele>
        <time>2024-06-05T22:12:52+00:00</time>
      </trkpt>
      <trkpt lat="45.42817" lon="6.21147">
        <ele>1986</ele>
        <time>2024-06-05T22:12:55+00:00</time>
      </trkpt>
      <trkpt lat="45.4282" lon="6.21148">
        <ele>1986</ele>
        <time>2024-06-05T22:12:58+00:00</time>
      </trkpt>
      <trkpt lat="45.42822" lon="6.21149">
        <ele>1981</ele>
        <time>2024-06-05T22:13:01+00:00</time>
      </trkpt>
      <trkpt lat="45.42824" lon="6.2115">
        <ele>1986</ele>
        <time>2024-06-05T22:13:04+00:00</time>
      </trkpt>
      <trkpt lat="45.42828" lon="6.2115">
        <ele>1986</ele>
        <time>2024-06-05T22:13:07+00:00</time>
      </trkpt>
      <trkpt lat="45.42831" lon="6.2115">
        <ele>1986</ele>
        <time>2024-06-05T22:13:10+00:00</time>
      </trkpt>
      <trkpt lat="45.42841" lon="6.21155">
        <ele>1983</ele>
        <time>2024-06-05T22:13:13+00:00</time>
      </trkpt>
      <trkpt lat="45.42848" lon="6.2116">
        <ele>1983</ele>
        <time>2024-06-05T22:13:16+00:00</time>
      </trkpt>
      <trkpt lat="45.42851" lon="6.21162">
        <ele>1981</ele>
        <time>2024-06-05T22:13:19+00:00</time>
      </trkpt>
      <trkpt lat="45.42855" lon="6.21163">
        <ele>1981</ele>
        <time>2024-06-05T22:13:22+00:00</time>
      </trkpt>
      <trkpt lat="45.42861" lon="6.21168">
        <ele>1983</ele>
        <time>2024-06-05T22:13:25+00:00</time>
      </trkpt>
      <trkpt lat="45.42865" lon="6.2117">
        <ele>1977</ele>
        <time>2024-06-05T22:13:28+00:00</time>
      </trkpt>
      <trkpt lat="45.4287" lon="6.21172">
        <ele>1979</ele>
        <time>2024-06-05T22:13:31+00:00</time>
      </trkpt>
      <trkpt lat="45.42874" lon="6.21174">
        <ele>1979</ele>
        <time>2024-06-05T22:13:34+00:00</time>
      </trkpt>
      <trkpt lat="45.42878" lon="6.21178">
        <ele>1979</ele>
        <time>2024-06-05T22:13:37+00:00</time>
      </trkpt>
      <trkpt lat="45.4288" lon="6.21181">
        <ele>1977</ele>
        <time>2024-06-05T22:13:40+00:00</time>
      </trkpt>
      <trkpt lat="45.42881" lon="6.21183">
        <ele>1977</ele>
        <time>2024-06-05T22:13:43+00:00</time>
      </trkpt>
      <trkpt lat="45.42883" lon="6.21186">
        <ele>1977</ele>
        <time>2024-06-05T22:13:46+00:00</time>
      </trkpt>
      <trkpt lat="45.42895" lon="6.21198">
        <ele>1977</ele>
        <time>2024-06-05T22:13:49+00:00</time>
      </trkpt>
      <trkpt lat="45.42897" lon="6.21204">
        <ele>1975</ele>
        <time>2024-06-05T22:13:52+00:00</time>
      </trkpt>
      <trkpt lat="45.429" lon="6.21208">
        <ele>1973</ele>
        <time>2024-06-05T22:13:55+00:00</time>
      </trkpt>
      <trkpt lat="45.42902" lon="6.21209">
        <ele>1976</ele>
        <time>2024-06-05T22:13:58+00:00</time>
      </trkpt>
      <trkpt lat="45.42905" lon="6.2121">
        <ele>1973</ele>
        <time>2024-06-05T22:14:01+00:00</time>
      </trkpt>
      <trkpt lat="45.42908" lon="6.21211">
        <ele>1973</ele>
        <time>2024-06-05T22:14:04+00:00</time>
      </trkpt>
      <trkpt lat="45.4291" lon="6.21212">
        <ele>1974</ele>
        <time>2024-06-05T22:14:07+00:00</time>
      </trkpt>
      <trkpt lat="45.42919" lon="6.21218">
        <ele>1974</ele>
        <time>2024-06-05T22:14:10+00:00</time>
      </trkpt>
      <trkpt lat="45.4293" lon="6.21223">
        <ele>1973</ele>
        <time>2024-06-05T22:14:13+00:00</time>
      </trkpt>
      <trkpt lat="45.42938" lon="6.21228">
        <ele>1973</ele>
        <time>2024-06-05T22:14:16+00:00</time>
      </trkpt>
      <trkpt lat="45.42947" lon="6.21234">
        <ele>1968</ele>
        <time>2024-06-05T22:14:19+00:00</time>
      </trkpt>
      <trkpt lat="45.42955" lon="6.21238">
        <ele>1969</ele>
        <time>2024-06-05T22:14:22+00:00</time>
      </trkpt>
      <trkpt lat="45.42957" lon="6.2124">
        <ele>1965</ele>
        <time>2024-06-05T22:14:25+00:00</time>
      </trkpt>
      <trkpt lat="45.42959" lon="6.21238">
        <ele>1969</ele>
        <time>2024-06-05T22:14:28+00:00</time>
      </trkpt>
      <trkpt lat="45.42962" lon="6.21238">
        <ele>1969</ele>
        <time>2024-06-05T22:14:31+00:00</time>
      </trkpt>
      <trkpt lat="45.42966" lon="6.21238">
        <ele>1969</ele>
        <time>2024-06-05T22:14:34+00:00</time>
      </trkpt>
      <trkpt lat="45.42969" lon="6.21239">
        <ele>1969</ele>
        <time>2024-06-05T22:14:37+00:00</time>
      </trkpt>
      <trkpt lat="45.42973" lon="6.21241">
        <ele>1965</ele>
        <time>2024-06-05T22:14:40+00:00</time>
      </trkpt>
      <trkpt lat="45.42977" lon="6.21247">
        <ele>1965</ele>
        <time>2024-06-05T22:14:43+00:00</time>
      </trkpt>
      <trkpt lat="45.42982" lon="6.21251">
        <ele>1965</ele>
        <time>2024-06-05T22:14:46+00:00</time>
      </trkpt>
      <trkpt lat="45.42984" lon="6.21252">
        <ele>1965</ele>
        <time>2024-06-05T22:14:49+00:00</time>
      </trkpt>
      <trkpt lat="45.42993" lon="6.21256">
        <ele>1966</ele>
        <time>2024-06-05T22:14:52+00:00</time>
      </trkpt>
      <trkpt lat="45.42996" lon="6.21257">
        <ele>1963</ele>
        <time>2024-06-05T22:14:55+00:00</time>
      </trkpt>
      <trkpt lat="45.42997" lon="6.21259">
        <ele>1966</ele>
        <time>2024-06-05T22:14:58+00:00</time>
      </trkpt>
      <trkpt lat="45.42998" lon="6.21261">
        <ele>1961</ele>
        <time>2024-06-05T22:15:01+00:00</time>
      </trkpt>
      <trkpt lat="45.43001" lon="6.21264">
        <ele>1963</ele>
        <time>2024-06-05T22:15:04+00:00</time>
      </trkpt>
      <trkpt lat="45.4301" lon="6.2127">
        <ele>1963</ele>
        <time>2024-06-05T22:15:07+00:00</time>
      </trkpt>
      <trkpt lat="45.43013" lon="6.21272">
        <ele>1962</ele>
        <time>2024-06-05T22:15:10+00:00</time>
      </trkpt>
      <trkpt lat="45.43015" lon="6.21274">
        <ele>1961</ele>
        <time>2024-06-05T22:15:13+00:00</time>
      </trkpt>
      <trkpt lat="45.43017" lon="6.21277">
        <ele>1961</ele>
        <time>2024-06-05T22:15:16+00:00</time>
      </trkpt>
      <trkpt lat="45.4302" lon="6.21279">
        <ele>1961</ele>
        <time>2024-06-05T22:15:19+00:00</time>
      </trkpt>
      <trkpt lat="45.43021" lon="6.21281">
        <ele>1961</ele>
        <time>2024-06-05T22:15:22+00:00</time>
      </trkpt>
      <trkpt lat="45.43028" lon="6.21285">
        <ele>1961</ele>
        <time>2024-06-05T22:15:25+00:00</time>
      </trkpt>
      <trkpt lat="45.43031" lon="6.21287">
        <ele>1962</ele>
        <time>2024-06-05T22:15:28+00:00</time>
      </trkpt>
      <trkpt lat="45.43033" lon="6.21288">
        <ele>1962</ele>
        <time>2024-06-05T22:15:31+00:00</time>
      </trkpt>
      <trkpt lat="45.43036" lon="6.21291">
        <ele>1960</ele>
        <time>2024-06-05T22:15:34+00:00</time>
      </trkpt>
      <trkpt lat="45.4304" lon="6.21294">
        <ele>1960</ele>
        <time>2024-06-05T22:15:37+00:00</time>
      </trkpt>
      <trkpt lat="45.43048" lon="6.21298">
        <ele>1960</ele>
        <time>2024-06-05T22:15:40+00:00</time>
      </trkpt>
      <trkpt lat="45.43051" lon="6.21301">
        <ele>1960</ele>
        <time>2024-06-05T22:15:43+00:00</time>
      </trkpt>
      <trkpt lat="45.43056" lon="6.21305">
        <ele>1957</ele>
        <time>2024-06-05T22:15:46+00:00</time>
      </trkpt>
      <trkpt lat="45.4306" lon="6.21308">
        <ele>1957</ele>
        <time>2024-06-05T22:15:49+00:00</time>
      </trkpt>
      <trkpt lat="45.43061" lon="6.21308">
        <ele>1958</ele>
        <time>2024-06-05T22:15:52+00:00</time>
      </trkpt>
      <trkpt lat="45.43063" lon="6.21309">
        <ele>1958</ele>
        <time>2024-06-05T22:15:55+00:00</time>
      </trkpt>
      <trkpt lat="45.43064" lon="6.21309">
        <ele>1958</ele>
        <time>2024-06-05T22:15:58+00:00</time>
      </trkpt>
      <trkpt lat="45.43066" lon="6.21309">
        <ele>1958</ele>
        <time>2024-06-05T22:16:01+00:00</time>
      </trkpt>
      <trkpt lat="45.43068" lon="6.21309">
        <ele>1958</ele>
        <time>2024-06-05T22:16:04+00:00</time>
      </trkpt>
      <trkpt lat="45.4307" lon="6.2131">
        <ele>1958</ele>
        <time>2024-06-05T22:16:07+00:00</time>
      </trkpt>
      <trkpt lat="45.43072" lon="6.21311">
        <ele>1955</ele>
        <time>2024-06-05T22:16:10+00:00</time>
      </trkpt>
      <trkpt lat="45.43075" lon="6.21311">
        <ele>1955</ele>
        <time>2024-06-05T22:16:13+00:00</time>
      </trkpt>
      <trkpt lat="45.4308" lon="6.21309">
        <ele>1955</ele>
        <time>2024-06-05T22:16:16+00:00</time>
      </trkpt>
      <trkpt lat="45.43096" lon="6.21307">
        <ele>1953</ele>
        <time>2024-06-05T22:16:19+00:00</time>
      </trkpt>
      <trkpt lat="45.4311" lon="6.21304">
        <ele>1952</ele>
        <time>2024-06-05T22:16:22+00:00</time>
      </trkpt>
      <trkpt lat="45.43117" lon="6.21304">
        <ele>1951</ele>
        <time>2024-06-05T22:16:25+00:00</time>
      </trkpt>
      <trkpt lat="45.4312" lon="6.21303">
        <ele>1950</ele>
        <time>2024-06-05T22:16:28+00:00</time>
      </trkpt>
      <trkpt lat="45.43123" lon="6.21302">
        <ele>1950</ele>
        <time>2024-06-05T22:16:31+00:00</time>
      </trkpt>
      <trkpt lat="45.43127" lon="6.213">
        <ele>1950</ele>
        <time>2024-06-05T22:16:34+00:00</time>
      </trkpt>
      <trkpt lat="45.43137" lon="6.21292">
        <ele>1951</ele>
        <time>2024-06-05T22:16:37+00:00</time>
      </trkpt>
      <trkpt lat="45.43139" lon="6.21291">
        <ele>1949</ele>
        <time>2024-06-05T22:16:40+00:00</time>
      </trkpt>
      <trkpt lat="45.43145" lon="6.21289">
        <ele>1952</ele>
        <time>2024-06-05T22:16:43+00:00</time>
      </trkpt>
      <trkpt lat="45.43152" lon="6.21288">
        <ele>1951</ele>
        <time>2024-06-05T22:16:46+00:00</time>
      </trkpt>
      <trkpt lat="45.43158" lon="6.21288">
        <ele>1951</ele>
        <time>2024-06-05T22:16:49+00:00</time>
      </trkpt>
      <trkpt lat="45.43165" lon="6.2129">
        <ele>1944</ele>
        <time>2024-06-05T22:16:52+00:00</time>
      </trkpt>
      <trkpt lat="45.43166" lon="6.21292">
        <ele>1944</ele>
        <time>2024-06-05T22:16:55+00:00</time>
      </trkpt>
      <trkpt lat="45.43167" lon="6.21293">
        <ele>1944</ele>
        <time>2024-06-05T22:16:58+00:00</time>
      </trkpt>
      <trkpt lat="45.4317" lon="6.21297">
        <ele>1944</ele>
        <time>2024-06-05T22:17:01+00:00</time>
      </trkpt>
      <trkpt lat="45.4317" lon="6.213">
        <ele>1945</ele>
        <time>2024-06-05T22:17:04+00:00</time>
      </trkpt>
      <trkpt lat="45.43171" lon="6.21302">
        <ele>1943</ele>
        <time>2024-06-05T22:17:07+00:00</time>
      </trkpt>
      <trkpt lat="45.43171" lon="6.21302">
        <ele>1943</ele>
        <time>2024-06-05T22:17:10+00:00</time>
      </trkpt>
      <trkpt lat="45.43171" lon="6.21302">
        <ele>1943</ele>
        <time>2024-06-05T22:17:13+00:00</time>
      </trkpt>
      <trkpt lat="45.43172" lon="6.21303">
        <ele>1943</ele>
        <time>2024-06-05T22:17:16+00:00</time>
      </trkpt>
      <trkpt lat="45.43174" lon="6.21303">
        <ele>1943</ele>
        <time>2024-06-05T22:17:19+00:00</time>
      </trkpt>
      <trkpt lat="45.43176" lon="6.21304">
        <ele>1943</ele>
        <time>2024-06-05T22:17:22+00:00</time>
      </trkpt>
      <trkpt lat="45.43181" lon="6.21309">
        <ele>1943</ele>
        <time>2024-06-05T22:17:25+00:00</time>
      </trkpt>
      <trkpt lat="45.43184" lon="6.2131">
        <ele>1943</ele>
        <time>2024-06-05T22:17:28+00:00</time>
      </trkpt>
      <trkpt lat="45.43187" lon="6.21311">
        <ele>1941</ele>
        <time>2024-06-05T22:17:31+00:00</time>
      </trkpt>
      <trkpt lat="45.43192" lon="6.21311">
        <ele>1941</ele>
        <time>2024-06-05T22:17:34+00:00</time>
      </trkpt>
      <trkpt lat="45.43196" lon="6.21309">
        <ele>1943</ele>
        <time>2024-06-05T22:17:37+00:00</time>
      </trkpt>
      <trkpt lat="45.43203" lon="6.21304">
        <ele>1940</ele>
        <time>2024-06-05T22:17:40+00:00</time>
      </trkpt>
      <trkpt lat="45.43204" lon="6.21302">
        <ele>1940</ele>
        <time>2024-06-05T22:17:43+00:00</time>
      </trkpt>
      <trkpt lat="45.43207" lon="6.21301">
        <ele>1940</ele>
        <time>2024-06-05T22:17:46+00:00</time>
      </trkpt>
      <trkpt lat="45.43212" lon="6.21301">
        <ele>1938</ele>
        <time>2024-06-05T22:17:49+00:00</time>
      </trkpt>
      <trkpt lat="45.43218" lon="6.21301">
        <ele>1938</ele>
        <time>2024-06-05T22:17:52+00:00</time>
      </trkpt>
      <trkpt lat="45.43224" lon="6.21302">
        <ele>1937</ele>
        <time>2024-06-05T22:17:55+00:00</time>
      </trkpt>
      <trkpt lat="45.43231" lon="6.21302">
        <ele>1936</ele>
        <time>2024-06-05T22:17:58+00:00</time>
      </trkpt>
      <trkpt lat="45.43235" lon="6.21301">
        <ele>1936</ele>
        <time>2024-06-05T22:18:01+00:00</time>
      </trkpt>
      <trkpt lat="45.43237" lon="6.21302">
        <ele>1936</ele>
        <time>2024-06-05T22:18:04+00:00</time>
      </trkpt>
      <trkpt lat="45.4324" lon="6.21301">
        <ele>1935</ele>
        <time>2024-06-05T22:18:07+00:00</time>
      </trkpt>
      <trkpt lat="45.43243" lon="6.21302">
        <ele>1935</ele>
        <time>2024-06-05T22:18:10+00:00</time>
      </trkpt>
      <trkpt lat="45.43247" lon="6.21301">
        <ele>1935</ele>
        <time>2024-06-05T22:18:13+00:00</time>
      </trkpt>
      <trkpt lat="45.43252" lon="6.21301">
        <ele>1934</ele>
        <time>2024-06-05T22:18:16+00:00</time>
      </trkpt>
      <trkpt lat="45.43254" lon="6.21302">
        <ele>1934</ele>
        <time>2024-06-05T22:18:19+00:00</time>
      </trkpt>
      <trkpt lat="45.43259" lon="6.2131">
        <ele>1933</ele>
        <time>2024-06-05T22:18:22+00:00</time>
      </trkpt>
      <trkpt lat="45.43259" lon="6.21312">
        <ele>1933</ele>
        <time>2024-06-05T22:18:25+00:00</time>
      </trkpt>
      <trkpt lat="45.4326" lon="6.21316">
        <ele>1933</ele>
        <time>2024-06-05T22:18:28+00:00</time>
      </trkpt>
      <trkpt lat="45.43261" lon="6.21321">
        <ele>1932</ele>
        <time>2024-06-05T22:18:31+00:00</time>
      </trkpt>
      <trkpt lat="45.43262" lon="6.21324">
        <ele>1932</ele>
        <time>2024-06-05T22:18:34+00:00</time>
      </trkpt>
      <trkpt lat="45.43263" lon="6.21326">
        <ele>1932</ele>
        <time>2024-06-05T22:18:37+00:00</time>
      </trkpt>
      <trkpt lat="45.43264" lon="6.2133">
        <ele>1932</ele>
        <time>2024-06-05T22:18:40+00:00</time>
      </trkpt>
      <trkpt lat="45.43265" lon="6.21333">
        <ele>1931</ele>
        <time>2024-06-05T22:18:43+00:00</time>
      </trkpt>
      <trkpt lat="45.43268" lon="6.21342">
        <ele>1930</ele>
        <time>2024-06-05T22:18:46+00:00</time>
      </trkpt>
      <trkpt lat="45.43271" lon="6.21348">
        <ele>1931</ele>
        <time>2024-06-05T22:18:49+00:00</time>
      </trkpt>
      <trkpt lat="45.43271" lon="6.21351">
        <ele>1928</ele>
        <time>2024-06-05T22:18:52+00:00</time>
      </trkpt>
      <trkpt lat="45.43271" lon="6.21355">
        <ele>1928</ele>
        <time>2024-06-05T22:18:55+00:00</time>
      </trkpt>
      <trkpt lat="45.43271" lon="6.21358">
        <ele>1928</ele>
        <time>2024-06-05T22:18:58+00:00</time>
      </trkpt>
      <trkpt lat="45.43277" lon="6.21367">
        <ele>1927</ele>
        <time>2024-06-05T22:19:01+00:00</time>
      </trkpt>
      <trkpt lat="45.43281" lon="6.2137">
        <ele>1929</ele>
        <time>2024-06-05T22:19:04+00:00</time>
      </trkpt>
      <trkpt lat="45.43287" lon="6.21372">
        <ele>1926</ele>
        <time>2024-06-05T22:19:07+00:00</time>
      </trkpt>
      <trkpt lat="45.4329" lon="6.21377">
        <ele>1925</ele>
        <time>2024-06-05T22:19:10+00:00</time>
      </trkpt>
      <trkpt lat="45.43297" lon="6.21377">
        <ele>1925</ele>
        <time>2024-06-05T22:19:13+00:00</time>
      </trkpt>
      <trkpt lat="45.43301" lon="6.21377">
        <ele>1922</ele>
        <time>2024-06-05T22:19:16+00:00</time>
      </trkpt>
      <trkpt lat="45.43307" lon="6.21377">
        <ele>1922</ele>
        <time>2024-06-05T22:19:19+00:00</time>
      </trkpt>
      <trkpt lat="45.43312" lon="6.21376">
        <ele>1920</ele>
        <time>2024-06-05T22:19:22+00:00</time>
      </trkpt>
      <trkpt lat="45.4332" lon="6.21372">
        <ele>1916</ele>
        <time>2024-06-05T22:19:25+00:00</time>
      </trkpt>
      <trkpt lat="45.43324" lon="6.21371">
        <ele>1916</ele>
        <time>2024-06-05T22:19:28+00:00</time>
      </trkpt>
      <trkpt lat="45.43331" lon="6.21371">
        <ele>1914</ele>
        <time>2024-06-05T22:19:31+00:00</time>
      </trkpt>
      <trkpt lat="45.4334" lon="6.21375">
        <ele>1913</ele>
        <time>2024-06-05T22:19:34+00:00</time>
      </trkpt>
      <trkpt lat="45.43346" lon="6.21377">
        <ele>1913</ele>
        <time>2024-06-05T22:19:37+00:00</time>
      </trkpt>
      <trkpt lat="45.43348" lon="6.21379">
        <ele>1913</ele>
        <time>2024-06-05T22:19:40+00:00</time>
      </trkpt>
      <trkpt lat="45.4335" lon="6.21383">
        <ele>1910</ele>
        <time>2024-06-05T22:19:43+00:00</time>
      </trkpt>
      <trkpt lat="45.43352" lon="6.21386">
        <ele>1910</ele>
        <time>2024-06-05T22:19:46+00:00</time>
      </trkpt>
      <trkpt lat="45.43354" lon="6.2139">
        <ele>1910</ele>
        <time>2024-06-05T22:19:49+00:00</time>
      </trkpt>
      <trkpt lat="45.43358" lon="6.21395">
        <ele>1908</ele>
        <time>2024-06-05T22:19:52+00:00</time>
      </trkpt>
      <trkpt lat="45.4336" lon="6.21397">
        <ele>1908</ele>
        <time>2024-06-05T22:19:55+00:00</time>
      </trkpt>
      <trkpt lat="45.43367" lon="6.21396">
        <ele>1908</ele>
        <time>2024-06-05T22:19:58+00:00</time>
      </trkpt>
      <trkpt lat="45.43369" lon="6.21396">
        <ele>1908</ele>
        <time>2024-06-05T22:20:01+00:00</time>
      </trkpt>
      <trkpt lat="45.43372" lon="6.21396">
        <ele>1907</ele>
        <time>2024-06-05T22:20:04+00:00</time>
      </trkpt>
      <trkpt lat="45.43385" lon="6.21401">
        <ele>1903</ele>
        <time>2024-06-05T22:20:07+00:00</time>
      </trkpt>
      <trkpt lat="45.43388" lon="6.21402">
        <ele>1903</ele>
        <time>2024-06-05T22:20:10+00:00</time>
      </trkpt>
      <trkpt lat="45.43394" lon="6.21408">
        <ele>1903</ele>
        <time>2024-06-05T22:20:13+00:00</time>
      </trkpt>
      <trkpt lat="45.43403" lon="6.21416">
        <ele>1899</ele>
        <time>2024-06-05T22:20:16+00:00</time>
      </trkpt>
      <trkpt lat="45.43409" lon="6.21421">
        <ele>1896</ele>
        <time>2024-06-05T22:20:19+00:00</time>
      </trkpt>
      <trkpt lat="45.43411" lon="6.21423">
        <ele>1896</ele>
        <time>2024-06-05T22:20:22+00:00</time>
      </trkpt>
      <trkpt lat="45.43414" lon="6.21427">
        <ele>1896</ele>
        <time>2024-06-05T22:20:25+00:00</time>
      </trkpt>
      <trkpt lat="45.43418" lon="6.2143">
        <ele>1893</ele>
        <time>2024-06-05T22:20:28+00:00</time>
      </trkpt>
      <trkpt lat="45.43421" lon="6.21431">
        <ele>1894</ele>
        <time>2024-06-05T22:20:31+00:00</time>
      </trkpt>
      <trkpt lat="45.43423" lon="6.21433">
        <ele>1894</ele>
        <time>2024-06-05T22:20:34+00:00</time>
      </trkpt>
      <trkpt lat="45.43426" lon="6.2144">
        <ele>1890</ele>
        <time>2024-06-05T22:20:37+00:00</time>
      </trkpt>
      <trkpt lat="45.43427" lon="6.21443">
        <ele>1890</ele>
        <time>2024-06-05T22:20:40+00:00</time>
      </trkpt>
      <trkpt lat="45.4343" lon="6.21443">
        <ele>1890</ele>
        <time>2024-06-05T22:20:43+00:00</time>
      </trkpt>
      <trkpt lat="45.43431" lon="6.21444">
        <ele>1891</ele>
        <time>2024-06-05T22:20:46+00:00</time>
      </trkpt>
      <trkpt lat="45.43432" lon="6.21445">
        <ele>1891</ele>
        <time>2024-06-05T22:20:49+00:00</time>
      </trkpt>
      <trkpt lat="45.43433" lon="6.21449">
        <ele>1891</ele>
        <time>2024-06-05T22:20:52+00:00</time>
      </trkpt>
      <trkpt lat="45.43434" lon="6.21457">
        <ele>1888</ele>
        <time>2024-06-05T22:20:55+00:00</time>
      </trkpt>
      <trkpt lat="45.43434" lon="6.21465">
        <ele>1887</ele>
        <time>2024-06-05T22:20:58+00:00</time>
      </trkpt>
      <trkpt lat="45.43434" lon="6.21467">
        <ele>1887</ele>
        <time>2024-06-05T22:21:01+00:00</time>
      </trkpt>
      <trkpt lat="45.43435" lon="6.21468">
        <ele>1887</ele>
        <time>2024-06-05T22:21:04+00:00</time>
      </trkpt>
      <trkpt lat="45.43437" lon="6.21469">
        <ele>1887</ele>
        <time>2024-06-05T22:21:07+00:00</time>
      </trkpt>
      <trkpt lat="45.43441" lon="6.21478">
        <ele>1887</ele>
        <time>2024-06-05T22:21:10+00:00</time>
      </trkpt>
      <trkpt lat="45.43443" lon="6.21479">
        <ele>1887</ele>
        <time>2024-06-05T22:21:13+00:00</time>
      </trkpt>
      <trkpt lat="45.43443" lon="6.21481">
        <ele>1884</ele>
        <time>2024-06-05T22:21:16+00:00</time>
      </trkpt>
      <trkpt lat="45.43445" lon="6.21485">
        <ele>1884</ele>
        <time>2024-06-05T22:21:19+00:00</time>
      </trkpt>
      <trkpt lat="45.43451" lon="6.21492">
        <ele>1887</ele>
        <time>2024-06-05T22:21:22+00:00</time>
      </trkpt>
      <trkpt lat="45.43455" lon="6.21497">
        <ele>1884</ele>
        <time>2024-06-05T22:21:25+00:00</time>
      </trkpt>
      <trkpt lat="45.43462" lon="6.21501">
        <ele>1884</ele>
        <time>2024-06-05T22:21:28+00:00</time>
      </trkpt>
      <trkpt lat="45.43468" lon="6.21503">
        <ele>1884</ele>
        <time>2024-06-05T22:21:31+00:00</time>
      </trkpt>
      <trkpt lat="45.43473" lon="6.215">
        <ele>1887</ele>
        <time>2024-06-05T22:21:34+00:00</time>
      </trkpt>
      <trkpt lat="45.4348" lon="6.215">
        <ele>1888</ele>
        <time>2024-06-05T22:21:37+00:00</time>
      </trkpt>
      <trkpt lat="45.43488" lon="6.21501">
        <ele>1886</ele>
        <time>2024-06-05T22:21:40+00:00</time>
      </trkpt>
      <trkpt lat="45.43492" lon="6.21501">
        <ele>1887</ele>
        <time>2024-06-05T22:21:43+00:00</time>
      </trkpt>
      <trkpt lat="45.43496" lon="6.215">
        <ele>1889</ele>
        <time>2024-06-05T22:21:46+00:00</time>
      </trkpt>
      <trkpt lat="45.435" lon="6.215">
        <ele>1888</ele>
        <time>2024-06-05T22:21:49+00:00</time>
      </trkpt>
      <trkpt lat="45.43506" lon="6.21503">
        <ele>1888</ele>
        <time>2024-06-05T22:21:52+00:00</time>
      </trkpt>
      <trkpt lat="45.4351" lon="6.21505">
        <ele>1888</ele>
        <time>2024-06-05T22:21:55+00:00</time>
      </trkpt>
      <trkpt lat="45.43515" lon="6.21509">
        <ele>1889</ele>
        <time>2024-06-05T22:21:58+00:00</time>
      </trkpt>
      <trkpt lat="45.43519" lon="6.21513">
        <ele>1885</ele>
        <time>2024-06-05T22:22:01+00:00</time>
      </trkpt>
      <trkpt lat="45.43524" lon="6.21515">
        <ele>1886</ele>
        <time>2024-06-05T22:22:04+00:00</time>
      </trkpt>
      <trkpt lat="45.43529" lon="6.21517">
        <ele>1886</ele>
        <time>2024-06-05T22:22:07+00:00</time>
      </trkpt>
      <trkpt lat="45.43535" lon="6.2152">
        <ele>1889</ele>
        <time>2024-06-05T22:22:10+00:00</time>
      </trkpt>
      <trkpt lat="45.43539" lon="6.21524">
        <ele>1886</ele>
        <time>2024-06-05T22:22:13+00:00</time>
      </trkpt>
      <trkpt lat="45.43544" lon="6.21529">
        <ele>1887</ele>
        <time>2024-06-05T22:22:16+00:00</time>
      </trkpt>
      <trkpt lat="45.43555" lon="6.21536">
        <ele>1887</ele>
        <time>2024-06-05T22:22:19+00:00</time>
      </trkpt>
      <trkpt lat="45.43564" lon="6.21541">
        <ele>1886</ele>
        <time>2024-06-05T22:22:22+00:00</time>
      </trkpt>
      <trkpt lat="45.4357" lon="6.21546">
        <ele>1886</ele>
        <time>2024-06-05T22:22:25+00:00</time>
      </trkpt>
      <trkpt lat="45.43575" lon="6.2155">
        <ele>1888</ele>
        <time>2024-06-05T22:22:28+00:00</time>
      </trkpt>
      <trkpt lat="45.43578" lon="6.21556">
        <ele>1886</ele>
        <time>2024-06-05T22:22:31+00:00</time>
      </trkpt>
      <trkpt lat="45.43583" lon="6.21559">
        <ele>1887</ele>
        <time>2024-06-05T22:22:34+00:00</time>
      </trkpt>
      <trkpt lat="45.43588" lon="6.21562">
        <ele>1886</ele>
        <time>2024-06-05T22:22:37+00:00</time>
      </trkpt>
      <trkpt lat="45.43593" lon="6.21567">
        <ele>1888</ele>
        <time>2024-06-05T22:22:40+00:00</time>
      </trkpt>
      <trkpt lat="45.436" lon="6.21577">
        <ele>1890</ele>
        <time>2024-06-05T22:22:43+00:00</time>
      </trkpt>
      <trkpt lat="45.43606" lon="6.2158">
        <ele>1890</ele>
        <time>2024-06-05T22:22:46+00:00</time>
      </trkpt>
      <trkpt lat="45.43612" lon="6.21578">
        <ele>1887</ele>
        <time>2024-06-05T22:22:49+00:00</time>
      </trkpt>
      <trkpt lat="45.4362" lon="6.21577">
        <ele>1885</ele>
        <time>2024-06-05T22:22:52+00:00</time>
      </trkpt>
      <trkpt lat="45.43626" lon="6.21579">
        <ele>1885</ele>
        <time>2024-06-05T22:22:55+00:00</time>
      </trkpt>
      <trkpt lat="45.43634" lon="6.21582">
        <ele>1886</ele>
        <time>2024-06-05T22:22:58+00:00</time>
      </trkpt>
      <trkpt lat="45.43643" lon="6.21585">
        <ele>1885</ele>
        <time>2024-06-05T22:23:01+00:00</time>
      </trkpt>
      <trkpt lat="45.4365" lon="6.21591">
        <ele>1886</ele>
        <time>2024-06-05T22:23:04+00:00</time>
      </trkpt>
      <trkpt lat="45.43657" lon="6.21596">
        <ele>1886</ele>
        <time>2024-06-05T22:23:07+00:00</time>
      </trkpt>
      <trkpt lat="45.43664" lon="6.21605">
        <ele>1887</ele>
        <time>2024-06-05T22:23:10+00:00</time>
      </trkpt>
      <trkpt lat="45.43677" lon="6.21624">
        <ele>1885</ele>
        <time>2024-06-05T22:23:13+00:00</time>
      </trkpt>
      <trkpt lat="45.43688" lon="6.21637">
        <ele>1885</ele>
        <time>2024-06-05T22:23:16+00:00</time>
      </trkpt>
      <trkpt lat="45.43699" lon="6.21653">
        <ele>1884</ele>
        <time>2024-06-05T22:23:19+00:00</time>
      </trkpt>
      <trkpt lat="45.43704" lon="6.21659">
        <ele>1885</ele>
        <time>2024-06-05T22:23:22+00:00</time>
      </trkpt>
      <trkpt lat="45.43711" lon="6.21666">
        <ele>1886</ele>
        <time>2024-06-05T22:23:25+00:00</time>
      </trkpt>
      <trkpt lat="45.43719" lon="6.21678">
        <ele>1883</ele>
        <time>2024-06-05T22:23:28+00:00</time>
      </trkpt>
      <trkpt lat="45.43725" lon="6.21689">
        <ele>1883</ele>
        <time>2024-06-05T22:23:31+00:00</time>
      </trkpt>
      <trkpt lat="45.43729" lon="6.21695">
        <ele>1882</ele>
        <time>2024-06-05T22:23:34+00:00</time>
      </trkpt>
      <trkpt lat="45.43738" lon="6.21708">
        <ele>1881</ele>
        <time>2024-06-05T22:23:37+00:00</time>
      </trkpt>
      <trkpt lat="45.43744" lon="6.21718">
        <ele>1879</ele>
        <time>2024-06-05T22:23:40+00:00</time>
      </trkpt>
      <trkpt lat="45.43752" lon="6.21732">
        <ele>1877</ele>
        <time>2024-06-05T22:23:43+00:00</time>
      </trkpt>
      <trkpt lat="45.43755" lon="6.21738">
        <ele>1872</ele>
        <time>2024-06-05T22:23:46+00:00</time>
      </trkpt>
      <trkpt lat="45.43758" lon="6.21741">
        <ele>1869</ele>
        <time>2024-06-05T22:23:49+00:00</time>
      </trkpt>
      <trkpt lat="45.4376" lon="6.21743">
        <ele>1870</ele>
        <time>2024-06-05T22:23:52+00:00</time>
      </trkpt>
      <trkpt lat="45.43763" lon="6.21743">
        <ele>1870</ele>
        <time>2024-06-05T22:23:55+00:00</time>
      </trkpt>
      <trkpt lat="45.43764" lon="6.2174">
        <ele>1873</ele>
        <time>2024-06-05T22:23:58+00:00</time>
      </trkpt>
      <trkpt lat="45.43765" lon="6.21735">
        <ele>1873</ele>
        <time>2024-06-05T22:24:01+00:00</time>
      </trkpt>
      <trkpt lat="45.43766" lon="6.21732">
        <ele>1873</ele>
        <time>2024-06-05T22:24:04+00:00</time>
      </trkpt>
      <trkpt lat="45.43772" lon="6.2173">
        <ele>1867</ele>
        <time>2024-06-05T22:24:07+00:00</time>
      </trkpt>
      <trkpt lat="45.43785" lon="6.21728">
        <ele>1864</ele>
        <time>2024-06-05T22:24:10+00:00</time>
      </trkpt>
      <trkpt lat="45.438" lon="6.21725">
        <ele>1863</ele>
        <time>2024-06-05T22:24:13+00:00</time>
      </trkpt>
      <trkpt lat="45.43815" lon="6.21721">
        <ele>1862</ele>
        <time>2024-06-05T22:24:16+00:00</time>
      </trkpt>
      <trkpt lat="45.43827" lon="6.21716">
        <ele>1862</ele>
        <time>2024-06-05T22:24:19+00:00</time>
      </trkpt>
      <trkpt lat="45.43836" lon="6.21724">
        <ele>1862</ele>
        <time>2024-06-05T22:24:22+00:00</time>
      </trkpt>
      <trkpt lat="45.43841" lon="6.21725">
        <ele>1862</ele>
        <time>2024-06-05T22:24:25+00:00</time>
      </trkpt>
      <trkpt lat="45.43847" lon="6.21726">
        <ele>1862</ele>
        <time>2024-06-05T22:24:28+00:00</time>
      </trkpt>
      <trkpt lat="45.4385" lon="6.21726">
        <ele>1862</ele>
        <time>2024-06-05T22:24:31+00:00</time>
      </trkpt>
      <trkpt lat="45.43855" lon="6.21726">
        <ele>1862</ele>
        <time>2024-06-05T22:24:34+00:00</time>
      </trkpt>
      <trkpt lat="45.43862" lon="6.2173">
        <ele>1862</ele>
        <time>2024-06-05T22:24:37+00:00</time>
      </trkpt>
      <trkpt lat="45.43867" lon="6.21732">
        <ele>1859</ele>
        <time>2024-06-05T22:24:40+00:00</time>
      </trkpt>
      <trkpt lat="45.43872" lon="6.21736">
        <ele>1861</ele>
        <time>2024-06-05T22:24:43+00:00</time>
      </trkpt>
      <trkpt lat="45.43876" lon="6.21739">
        <ele>1862</ele>
        <time>2024-06-05T22:24:46+00:00</time>
      </trkpt>
      <trkpt lat="45.4388" lon="6.21742">
        <ele>1860</ele>
        <time>2024-06-05T22:24:49+00:00</time>
      </trkpt>
      <trkpt lat="45.43884" lon="6.21744">
        <ele>1860</ele>
        <time>2024-06-05T22:24:52+00:00</time>
      </trkpt>
      <trkpt lat="45.43888" lon="6.21746">
        <ele>1860</ele>
        <time>2024-06-05T22:24:55+00:00</time>
      </trkpt>
      <trkpt lat="45.43895" lon="6.21745">
        <ele>1863</ele>
        <time>2024-06-05T22:24:58+00:00</time>
      </trkpt>
      <trkpt lat="45.43899" lon="6.21747">
        <ele>1863</ele>
        <time>2024-06-05T22:25:01+00:00</time>
      </trkpt>
      <trkpt lat="45.43905" lon="6.21747">
        <ele>1864</ele>
        <time>2024-06-05T22:25:04+00:00</time>
      </trkpt>
      <trkpt lat="45.43907" lon="6.21742">
        <ele>1864</ele>
        <time>2024-06-05T22:25:07+00:00</time>
      </trkpt>
      <trkpt lat="45.43908" lon="6.21736">
        <ele>1866</ele>
        <time>2024-06-05T22:25:10+00:00</time>
      </trkpt>
      <trkpt lat="45.43911" lon="6.21729">
        <ele>1864</ele>
        <time>2024-06-05T22:25:13+00:00</time>
      </trkpt>
      <trkpt lat="45.43915" lon="6.21714">
        <ele>1864</ele>
        <time>2024-06-05T22:25:16+00:00</time>
      </trkpt>
      <trkpt lat="45.43917" lon="6.21715">
        <ele>1864</ele>
        <time>2024-06-05T22:25:19+00:00</time>
      </trkpt>
      <trkpt lat="45.43926" lon="6.21722">
        <ele>1865</ele>
        <time>2024-06-05T22:25:22+00:00</time>
      </trkpt>
      <trkpt lat="45.43926" lon="6.21722">
        <ele>1865</ele>
        <time>2024-06-05T22:25:25+00:00</time>
      </trkpt>
      <trkpt lat="45.43927" lon="6.21722">
        <ele>1865</ele>
        <time>2024-06-05T22:25:28+00:00</time>
      </trkpt>
      <trkpt lat="45.43948" lon="6.21745">
        <ele>1868</ele>
        <time>2024-06-05T22:25:31+00:00</time>
      </trkpt>
      <trkpt lat="45.43957" lon="6.2175">
        <ele>1869</ele>
        <time>2024-06-05T22:25:34+00:00</time>
      </trkpt>
      <trkpt lat="45.43987" lon="6.2176">
        <ele>1878</ele>
        <time>2024-06-05T22:25:37+00:00</time>
      </trkpt>
      <trkpt lat="45.43995" lon="6.21761">
        <ele>1880</ele>
        <time>2024-06-05T22:25:40+00:00</time>
      </trkpt>
      <trkpt lat="45.44003" lon="6.21762">
        <ele>1882</ele>
        <time>2024-06-05T22:25:43+00:00</time>
      </trkpt>
      <trkpt lat="45.44011" lon="6.21762">
        <ele>1886</ele>
        <time>2024-06-05T22:25:46+00:00</time>
      </trkpt>
      <trkpt lat="45.44016" lon="6.2176">
        <ele>1882</ele>
        <time>2024-06-05T22:25:49+00:00</time>
      </trkpt>
      <trkpt lat="45.4402" lon="6.21761">
        <ele>1888</ele>
        <time>2024-06-05T22:25:52+00:00</time>
      </trkpt>
      <trkpt lat="45.44031" lon="6.21763">
        <ele>1890</ele>
        <time>2024-06-05T22:25:55+00:00</time>
      </trkpt>
      <trkpt lat="45.44039" lon="6.21764">
        <ele>1890</ele>
        <time>2024-06-05T22:25:58+00:00</time>
      </trkpt>
      <trkpt lat="45.44043" lon="6.21765">
        <ele>1892</ele>
        <time>2024-06-05T22:26:01+00:00</time>
      </trkpt>
      <trkpt lat="45.44047" lon="6.21763">
        <ele>1892</ele>
        <time>2024-06-05T22:26:04+00:00</time>
      </trkpt>
      <trkpt lat="45.4405" lon="6.21763">
        <ele>1892</ele>
        <time>2024-06-05T22:26:07+00:00</time>
      </trkpt>
      <trkpt lat="45.44052" lon="6.21762">
        <ele>1891</ele>
        <time>2024-06-05T22:26:10+00:00</time>
      </trkpt>
      <trkpt lat="45.44053" lon="6.21757">
        <ele>1894</ele>
        <time>2024-06-05T22:26:13+00:00</time>
      </trkpt>
      <trkpt lat="45.44056" lon="6.21752">
        <ele>1894</ele>
        <time>2024-06-05T22:26:16+00:00</time>
      </trkpt>
      <trkpt lat="45.44062" lon="6.21744">
        <ele>1895</ele>
        <time>2024-06-05T22:26:19+00:00</time>
      </trkpt>
      <trkpt lat="45.44069" lon="6.21736">
        <ele>1893</ele>
        <time>2024-06-05T22:26:22+00:00</time>
      </trkpt>
      <trkpt lat="45.44079" lon="6.2172">
        <ele>1895</ele>
        <time>2024-06-05T22:26:25+00:00</time>
      </trkpt>
      <trkpt lat="45.4409" lon="6.21707">
        <ele>1897</ele>
        <time>2024-06-05T22:26:28+00:00</time>
      </trkpt>
      <trkpt lat="45.44098" lon="6.217">
        <ele>1899</ele>
        <time>2024-06-05T22:26:31+00:00</time>
      </trkpt>
      <trkpt lat="45.44109" lon="6.21695">
        <ele>1905</ele>
        <time>2024-06-05T22:26:34+00:00</time>
      </trkpt>
      <trkpt lat="45.44115" lon="6.21693">
        <ele>1908</ele>
        <time>2024-06-05T22:26:37+00:00</time>
      </trkpt>
      <trkpt lat="45.44121" lon="6.21692">
        <ele>1911</ele>
        <time>2024-06-05T22:26:40+00:00</time>
      </trkpt>
      <trkpt lat="45.44132" lon="6.21694">
        <ele>1913</ele>
        <time>2024-06-05T22:26:43+00:00</time>
      </trkpt>
      <trkpt lat="45.44139" lon="6.21692">
        <ele>1913</ele>
        <time>2024-06-05T22:26:46+00:00</time>
      </trkpt>
      <trkpt lat="45.44146" lon="6.21693">
        <ele>1915</ele>
        <time>2024-06-05T22:26:49+00:00</time>
      </trkpt>
      <trkpt lat="45.44153" lon="6.21695">
        <ele>1912</ele>
        <time>2024-06-05T22:26:52+00:00</time>
      </trkpt>
      <trkpt lat="45.44159" lon="6.21697">
        <ele>1915</ele>
        <time>2024-06-05T22:26:55+00:00</time>
      </trkpt>
      <trkpt lat="45.44165" lon="6.217">
        <ele>1912</ele>
        <time>2024-06-05T22:26:58+00:00</time>
      </trkpt>
      <trkpt lat="45.44171" lon="6.217">
        <ele>1911</ele>
        <time>2024-06-05T22:27:01+00:00</time>
      </trkpt>
      <trkpt lat="45.44177" lon="6.217">
        <ele>1914</ele>
        <time>2024-06-05T22:27:04+00:00</time>
      </trkpt>
      <trkpt lat="45.44184" lon="6.21698">
        <ele>1912</ele>
        <time>2024-06-05T22:27:07+00:00</time>
      </trkpt>
      <trkpt lat="45.44191" lon="6.21696">
        <ele>1916</ele>
        <time>2024-06-05T22:27:10+00:00</time>
      </trkpt>
      <trkpt lat="45.44199" lon="6.21695">
        <ele>1916</ele>
        <time>2024-06-05T22:27:13+00:00</time>
      </trkpt>
      <trkpt lat="45.44206" lon="6.21695">
        <ele>1917</ele>
        <time>2024-06-05T22:27:16+00:00</time>
      </trkpt>
      <trkpt lat="45.4421" lon="6.21697">
        <ele>1917</ele>
        <time>2024-06-05T22:27:19+00:00</time>
      </trkpt>
      <trkpt lat="45.44214" lon="6.21697">
        <ele>1918</ele>
        <time>2024-06-05T22:27:22+00:00</time>
      </trkpt>
      <trkpt lat="45.44224" lon="6.21698">
        <ele>1919</ele>
        <time>2024-06-05T22:27:25+00:00</time>
      </trkpt>
      <trkpt lat="45.44232" lon="6.21698">
        <ele>1918</ele>
        <time>2024-06-05T22:27:28+00:00</time>
      </trkpt>
      <trkpt lat="45.4424" lon="6.21697">
        <ele>1919</ele>
        <time>2024-06-05T22:27:31+00:00</time>
      </trkpt>
      <trkpt lat="45.44248" lon="6.21698">
        <ele>1919</ele>
        <time>2024-06-05T22:27:34+00:00</time>
      </trkpt>
      <trkpt lat="45.44256" lon="6.217">
        <ele>1919</ele>
        <time>2024-06-05T22:27:37+00:00</time>
      </trkpt>
      <trkpt lat="45.44263" lon="6.21703">
        <ele>1921</ele>
        <time>2024-06-05T22:27:40+00:00</time>
      </trkpt>
      <trkpt lat="45.44269" lon="6.21703">
        <ele>1921</ele>
        <time>2024-06-05T22:27:43+00:00</time>
      </trkpt>
      <trkpt lat="45.44276" lon="6.21702">
        <ele>1921</ele>
        <time>2024-06-05T22:27:46+00:00</time>
      </trkpt>
      <trkpt lat="45.44284" lon="6.217">
        <ele>1918</ele>
        <time>2024-06-05T22:27:49+00:00</time>
      </trkpt>
      <trkpt lat="45.44291" lon="6.21697">
        <ele>1921</ele>
        <time>2024-06-05T22:27:52+00:00</time>
      </trkpt>
      <trkpt lat="45.44298" lon="6.21694">
        <ele>1921</ele>
        <time>2024-06-05T22:27:55+00:00</time>
      </trkpt>
      <trkpt lat="45.44304" lon="6.21692">
        <ele>1922</ele>
        <time>2024-06-05T22:27:58+00:00</time>
      </trkpt>
      <trkpt lat="45.4431" lon="6.2169">
        <ele>1920</ele>
        <time>2024-06-05T22:28:01+00:00</time>
      </trkpt>
      <trkpt lat="45.44317" lon="6.21689">
        <ele>1918</ele>
        <time>2024-06-05T22:28:04+00:00</time>
      </trkpt>
      <trkpt lat="45.44322" lon="6.21687">
        <ele>1919</ele>
        <time>2024-06-05T22:28:07+00:00</time>
      </trkpt>
      <trkpt lat="45.44332" lon="6.21684">
        <ele>1920</ele>
        <time>2024-06-05T22:28:10+00:00</time>
      </trkpt>
      <trkpt lat="45.44337" lon="6.21682">
        <ele>1920</ele>
        <time>2024-06-05T22:28:13+00:00</time>
      </trkpt>
      <trkpt lat="45.44344" lon="6.21681">
        <ele>1921</ele>
        <time>2024-06-05T22:28:16+00:00</time>
      </trkpt>
      <trkpt lat="45.44349" lon="6.21681">
        <ele>1921</ele>
        <time>2024-06-05T22:28:19+00:00</time>
      </trkpt>
      <trkpt lat="45.44353" lon="6.2168">
        <ele>1922</ele>
        <time>2024-06-05T22:28:22+00:00</time>
      </trkpt>
      <trkpt lat="45.4436" lon="6.21681">
        <ele>1923</ele>
        <time>2024-06-05T22:28:25+00:00</time>
      </trkpt>
      <trkpt lat="45.44369" lon="6.21677">
        <ele>1920</ele>
        <time>2024-06-05T22:28:28+00:00</time>
      </trkpt>
      <trkpt lat="45.4438" lon="6.21672">
        <ele>1922</ele>
        <time>2024-06-05T22:28:31+00:00</time>
      </trkpt>
      <trkpt lat="45.44387" lon="6.2167">
        <ele>1925</ele>
        <time>2024-06-05T22:28:34+00:00</time>
      </trkpt>
      <trkpt lat="45.44393" lon="6.21669">
        <ele>1923</ele>
        <time>2024-06-05T22:28:37+00:00</time>
      </trkpt>
      <trkpt lat="45.44398" lon="6.21668">
        <ele>1923</ele>
        <time>2024-06-05T22:28:40+00:00</time>
      </trkpt>
      <trkpt lat="45.44403" lon="6.21665">
        <ele>1924</ele>
        <time>2024-06-05T22:28:43+00:00</time>
      </trkpt>
      <trkpt lat="45.44407" lon="6.21662">
        <ele>1924</ele>
        <time>2024-06-05T22:28:46+00:00</time>
      </trkpt>
      <trkpt lat="45.44411" lon="6.21662">
        <ele>1927</ele>
        <time>2024-06-05T22:28:49+00:00</time>
      </trkpt>
      <trkpt lat="45.44414" lon="6.21662">
        <ele>1927</ele>
        <time>2024-06-05T22:28:52+00:00</time>
      </trkpt>
      <trkpt lat="45.4442" lon="6.2166">
        <ele>1927</ele>
        <time>2024-06-05T22:28:55+00:00</time>
      </trkpt>
      <trkpt lat="45.44429" lon="6.21654">
        <ele>1928</ele>
        <time>2024-06-05T22:28:58+00:00</time>
      </trkpt>
      <trkpt lat="45.44437" lon="6.21649">
        <ele>1929</ele>
        <time>2024-06-05T22:29:01+00:00</time>
      </trkpt>
      <trkpt lat="45.44441" lon="6.21643">
        <ele>1933</ele>
        <time>2024-06-05T22:29:04+00:00</time>
      </trkpt>
      <trkpt lat="45.44448" lon="6.21637">
        <ele>1932</ele>
        <time>2024-06-05T22:29:07+00:00</time>
      </trkpt>
      <trkpt lat="45.44453" lon="6.21633">
        <ele>1935</ele>
        <time>2024-06-05T22:29:10+00:00</time>
      </trkpt>
      <trkpt lat="45.4446" lon="6.21625">
        <ele>1936</ele>
        <time>2024-06-05T22:29:13+00:00</time>
      </trkpt>
      <trkpt lat="45.44466" lon="6.21619">
        <ele>1934</ele>
        <time>2024-06-05T22:29:16+00:00</time>
      </trkpt>
      <trkpt lat="45.44471" lon="6.21617">
        <ele>1940</ele>
        <time>2024-06-05T22:29:19+00:00</time>
      </trkpt>
      <trkpt lat="45.44478" lon="6.21614">
        <ele>1940</ele>
        <time>2024-06-05T22:29:22+00:00</time>
      </trkpt>
      <trkpt lat="45.44488" lon="6.21608">
        <ele>1943</ele>
        <time>2024-06-05T22:29:25+00:00</time>
      </trkpt>
      <trkpt lat="45.44495" lon="6.21603">
        <ele>1947</ele>
        <time>2024-06-05T22:29:28+00:00</time>
      </trkpt>
      <trkpt lat="45.44503" lon="6.21594">
        <ele>1951</ele>
        <time>2024-06-05T22:29:31+00:00</time>
      </trkpt>
      <trkpt lat="45.44512" lon="6.21585">
        <ele>1954</ele>
        <time>2024-06-05T22:29:34+00:00</time>
      </trkpt>
      <trkpt lat="45.44524" lon="6.21574">
        <ele>1957</ele>
        <time>2024-06-05T22:29:37+00:00</time>
      </trkpt>
      <trkpt lat="45.44531" lon="6.21569">
        <ele>1961</ele>
        <time>2024-06-05T22:29:40+00:00</time>
      </trkpt>
      <trkpt lat="45.44538" lon="6.21563">
        <ele>1961</ele>
        <time>2024-06-05T22:29:43+00:00</time>
      </trkpt>
      <trkpt lat="45.4454" lon="6.21558">
        <ele>1965</ele>
        <time>2024-06-05T22:29:46+00:00</time>
      </trkpt>
      <trkpt lat="45.44544" lon="6.21555">
        <ele>1965</ele>
        <time>2024-06-05T22:29:49+00:00</time>
      </trkpt>
      <trkpt lat="45.44547" lon="6.21551">
        <ele>1965</ele>
        <time>2024-06-05T22:29:52+00:00</time>
      </trkpt>
      <trkpt lat="45.44552" lon="6.21545">
        <ele>1968</ele>
        <time>2024-06-05T22:29:55+00:00</time>
      </trkpt>
      <trkpt lat="45.44559" lon="6.21537">
        <ele>1965</ele>
        <time>2024-06-05T22:29:58+00:00</time>
      </trkpt>
      <trkpt lat="45.44572" lon="6.21524">
        <ele>1976</ele>
        <time>2024-06-05T22:30:01+00:00</time>
      </trkpt>
      <trkpt lat="45.4458" lon="6.21515">
        <ele>1974</ele>
        <time>2024-06-05T22:30:04+00:00</time>
      </trkpt>
      <trkpt lat="45.44587" lon="6.21506">
        <ele>1976</ele>
        <time>2024-06-05T22:30:07+00:00</time>
      </trkpt>
      <trkpt lat="45.44595" lon="6.21498">
        <ele>1981</ele>
        <time>2024-06-05T22:30:10+00:00</time>
      </trkpt>
      <trkpt lat="45.4461" lon="6.21483">
        <ele>1983</ele>
        <time>2024-06-05T22:30:13+00:00</time>
      </trkpt>
      <trkpt lat="45.44621" lon="6.21473">
        <ele>1991</ele>
        <time>2024-06-05T22:30:16+00:00</time>
      </trkpt>
      <trkpt lat="45.44627" lon="6.2147">
        <ele>1988</ele>
        <time>2024-06-05T22:30:19+00:00</time>
      </trkpt>
      <trkpt lat="45.44633" lon="6.21467">
        <ele>1991</ele>
        <time>2024-06-05T22:30:22+00:00</time>
      </trkpt>
      <trkpt lat="45.44637" lon="6.21464">
        <ele>1991</ele>
        <time>2024-06-05T22:30:25+00:00</time>
      </trkpt>
      <trkpt lat="45.44642" lon="6.21462">
        <ele>1992</ele>
        <time>2024-06-05T22:30:28+00:00</time>
      </trkpt>
      <trkpt lat="45.44649" lon="6.21461">
        <ele>1988</ele>
        <time>2024-06-05T22:30:31+00:00</time>
      </trkpt>
      <trkpt lat="45.44656" lon="6.21461">
        <ele>1991</ele>
        <time>2024-06-05T22:30:34+00:00</time>
      </trkpt>
      <trkpt lat="45.44662" lon="6.21461">
        <ele>1989</ele>
        <time>2024-06-05T22:30:37+00:00</time>
      </trkpt>
      <trkpt lat="45.44668" lon="6.21461">
        <ele>1986</ele>
        <time>2024-06-05T22:30:40+00:00</time>
      </trkpt>
      <trkpt lat="45.44673" lon="6.21462">
        <ele>1986</ele>
        <time>2024-06-05T22:30:43+00:00</time>
      </trkpt>
      <trkpt lat="45.44677" lon="6.21462">
        <ele>1986</ele>
        <time>2024-06-05T22:30:46+00:00</time>
      </trkpt>
      <trkpt lat="45.44681" lon="6.21462">
        <ele>1984</ele>
        <time>2024-06-05T22:30:49+00:00</time>
      </trkpt>
      <trkpt lat="45.44686" lon="6.21462">
        <ele>1984</ele>
        <time>2024-06-05T22:30:52+00:00</time>
      </trkpt>
      <trkpt lat="45.4469" lon="6.21462">
        <ele>1984</ele>
        <time>2024-06-05T22:30:55+00:00</time>
      </trkpt>
      <trkpt lat="45.44696" lon="6.21461">
        <ele>1984</ele>
        <time>2024-06-05T22:30:58+00:00</time>
      </trkpt>
      <trkpt lat="45.44701" lon="6.2146">
        <ele>1982</ele>
        <time>2024-06-05T22:31:01+00:00</time>
      </trkpt>
      <trkpt lat="45.44707" lon="6.2146">
        <ele>1983</ele>
        <time>2024-06-05T22:31:04+00:00</time>
      </trkpt>
      <trkpt lat="45.44712" lon="6.2146">
        <ele>1982</ele>
        <time>2024-06-05T22:31:07+00:00</time>
      </trkpt>
      <trkpt lat="45.44719" lon="6.21461">
        <ele>1982</ele>
        <time>2024-06-05T22:31:10+00:00</time>
      </trkpt>
      <trkpt lat="45.44724" lon="6.21462">
        <ele>1982</ele>
        <time>2024-06-05T22:31:13+00:00</time>
      </trkpt>
      <trkpt lat="45.4473" lon="6.21466">
        <ele>1982</ele>
        <time>2024-06-05T22:31:16+00:00</time>
      </trkpt>
      <trkpt lat="45.44734" lon="6.2147">
        <ele>1982</ele>
        <time>2024-06-05T22:31:19+00:00</time>
      </trkpt>
      <trkpt lat="45.4474" lon="6.21472">
        <ele>1983</ele>
        <time>2024-06-05T22:31:22+00:00</time>
      </trkpt>
      <trkpt lat="45.44746" lon="6.21473">
        <ele>1982</ele>
        <time>2024-06-05T22:31:25+00:00</time>
      </trkpt>
      <trkpt lat="45.44754" lon="6.21474">
        <ele>1982</ele>
        <time>2024-06-05T22:31:28+00:00</time>
      </trkpt>
      <trkpt lat="45.44762" lon="6.21474">
        <ele>1982</ele>
        <time>2024-06-05T22:31:31+00:00</time>
      </trkpt>
      <trkpt lat="45.44773" lon="6.21474">
        <ele>1982</ele>
        <time>2024-06-05T22:31:34+00:00</time>
      </trkpt>
      <trkpt lat="45.4478" lon="6.21474">
        <ele>1982</ele>
        <time>2024-06-05T22:31:37+00:00</time>
      </trkpt>
      <trkpt lat="45.44789" lon="6.21472">
        <ele>1983</ele>
        <time>2024-06-05T22:31:40+00:00</time>
      </trkpt>
      <trkpt lat="45.44796" lon="6.21471">
        <ele>1982</ele>
        <time>2024-06-05T22:31:43+00:00</time>
      </trkpt>
      <trkpt lat="45.44806" lon="6.21467">
        <ele>1983</ele>
        <time>2024-06-05T22:31:46+00:00</time>
      </trkpt>
      <trkpt lat="45.44813" lon="6.21462">
        <ele>1983</ele>
        <time>2024-06-05T22:31:49+00:00</time>
      </trkpt>
      <trkpt lat="45.4482" lon="6.21459">
        <ele>1983</ele>
        <time>2024-06-05T22:31:52+00:00</time>
      </trkpt>
      <trkpt lat="45.44828" lon="6.21457">
        <ele>1983</ele>
        <time>2024-06-05T22:31:55+00:00</time>
      </trkpt>
      <trkpt lat="45.44835" lon="6.21454">
        <ele>1984</ele>
        <time>2024-06-05T22:31:58+00:00</time>
      </trkpt>
      <trkpt lat="45.44846" lon="6.2145">
        <ele>1985</ele>
        <time>2024-06-05T22:32:01+00:00</time>
      </trkpt>
      <trkpt lat="45.44857" lon="6.21446">
        <ele>1981</ele>
        <time>2024-06-05T22:32:04+00:00</time>
      </trkpt>
      <trkpt lat="45.4487" lon="6.2144">
        <ele>1983</ele>
        <time>2024-06-05T22:32:07+00:00</time>
      </trkpt>
      <trkpt lat="45.44878" lon="6.21437">
        <ele>1979</ele>
        <time>2024-06-05T22:32:10+00:00</time>
      </trkpt>
      <trkpt lat="45.44878" lon="6.21437">
        <ele>1979</ele>
        <time>2024-06-05T22:32:13+00:00</time>
      </trkpt>
      <trkpt lat="45.44878" lon="6.21437">
        <ele>1979</ele>
        <time>2024-06-05T22:32:16+00:00</time>
      </trkpt>
      <trkpt lat="45.44884" lon="6.21434">
        <ele>1978</ele>
        <time>2024-06-05T22:32:19+00:00</time>
      </trkpt>
      <trkpt lat="45.4489" lon="6.2143">
        <ele>1978</ele>
        <time>2024-06-05T22:32:22+00:00</time>
      </trkpt>
      <trkpt lat="45.44896" lon="6.21427">
        <ele>1974</ele>
        <time>2024-06-05T22:32:25+00:00</time>
      </trkpt>
      <trkpt lat="45.44903" lon="6.21426">
        <ele>1974</ele>
        <time>2024-06-05T22:32:28+00:00</time>
      </trkpt>
      <trkpt lat="45.4491" lon="6.21423">
        <ele>1974</ele>
        <time>2024-06-05T22:32:31+00:00</time>
      </trkpt>
      <trkpt lat="45.44917" lon="6.21422">
        <ele>1974</ele>
        <time>2024-06-05T22:32:34+00:00</time>
      </trkpt>
      <trkpt lat="45.44923" lon="6.2142">
        <ele>1971</ele>
        <time>2024-06-05T22:32:37+00:00</time>
      </trkpt>
      <trkpt lat="45.4493" lon="6.21417">
        <ele>1971</ele>
        <time>2024-06-05T22:32:40+00:00</time>
      </trkpt>
      <trkpt lat="45.44937" lon="6.21415">
        <ele>1971</ele>
        <time>2024-06-05T22:32:43+00:00</time>
      </trkpt>
      <trkpt lat="45.44943" lon="6.21412">
        <ele>1971</ele>
        <time>2024-06-05T22:32:46+00:00</time>
      </trkpt>
      <trkpt lat="45.44947" lon="6.21411">
        <ele>1971</ele>
        <time>2024-06-05T22:32:49+00:00</time>
      </trkpt>
      <trkpt lat="45.44952" lon="6.21406">
        <ele>1969</ele>
        <time>2024-06-05T22:32:52+00:00</time>
      </trkpt>
      <trkpt lat="45.44955" lon="6.21401">
        <ele>1970</ele>
        <time>2024-06-05T22:32:55+00:00</time>
      </trkpt>
      <trkpt lat="45.44961" lon="6.21394">
        <ele>1971</ele>
        <time>2024-06-05T22:32:58+00:00</time>
      </trkpt>
      <trkpt lat="45.44965" lon="6.21388">
        <ele>1970</ele>
        <time>2024-06-05T22:33:01+00:00</time>
      </trkpt>
      <trkpt lat="45.4497" lon="6.21383">
        <ele>1970</ele>
        <time>2024-06-05T22:33:04+00:00</time>
      </trkpt>
      <trkpt lat="45.44975" lon="6.21381">
        <ele>1973</ele>
        <time>2024-06-05T22:33:07+00:00</time>
      </trkpt>
      <trkpt lat="45.44984" lon="6.21376">
        <ele>1974</ele>
        <time>2024-06-05T22:33:10+00:00</time>
      </trkpt>
      <trkpt lat="45.44993" lon="6.21366">
        <ele>1974</ele>
        <time>2024-06-05T22:33:13+00:00</time>
      </trkpt>
      <trkpt lat="45.45005" lon="6.21358">
        <ele>1974</ele>
        <time>2024-06-05T22:33:16+00:00</time>
      </trkpt>
      <trkpt lat="45.4501" lon="6.21355">
        <ele>1974</ele>
        <time>2024-06-05T22:33:19+00:00</time>
      </trkpt>
      <trkpt lat="45.45014" lon="6.21355">
        <ele>1975</ele>
        <time>2024-06-05T22:33:22+00:00</time>
      </trkpt>
      <trkpt lat="45.45019" lon="6.21354">
        <ele>1975</ele>
        <time>2024-06-05T22:33:25+00:00</time>
      </trkpt>
      <trkpt lat="45.45023" lon="6.21354">
        <ele>1975</ele>
        <time>2024-06-05T22:33:28+00:00</time>
      </trkpt>
      <trkpt lat="45.45029" lon="6.21353">
        <ele>1975</ele>
        <time>2024-06-05T22:33:31+00:00</time>
      </trkpt>
      <trkpt lat="45.45033" lon="6.21352">
        <ele>1975</ele>
        <time>2024-06-05T22:33:34+00:00</time>
      </trkpt>
      <trkpt lat="45.45038" lon="6.21352">
        <ele>1975</ele>
        <time>2024-06-05T22:33:37+00:00</time>
      </trkpt>
      <trkpt lat="45.45044" lon="6.2135">
        <ele>1975</ele>
        <time>2024-06-05T22:33:40+00:00</time>
      </trkpt>
      <trkpt lat="45.4505" lon="6.21348">
        <ele>1972</ele>
        <time>2024-06-05T22:33:43+00:00</time>
      </trkpt>
      <trkpt lat="45.45056" lon="6.21343">
        <ele>1972</ele>
        <time>2024-06-05T22:33:46+00:00</time>
      </trkpt>
      <trkpt lat="45.45063" lon="6.21337">
        <ele>1971</ele>
        <time>2024-06-05T22:33:49+00:00</time>
      </trkpt>
      <trkpt lat="45.45071" lon="6.21332">
        <ele>1971</ele>
        <time>2024-06-05T22:33:52+00:00</time>
      </trkpt>
      <trkpt lat="45.45083" lon="6.21327">
        <ele>1971</ele>
        <time>2024-06-05T22:33:55+00:00</time>
      </trkpt>
      <trkpt lat="45.45096" lon="6.21323">
        <ele>1970</ele>
        <time>2024-06-05T22:33:58+00:00</time>
      </trkpt>
      <trkpt lat="45.45102" lon="6.21321">
        <ele>1971</ele>
        <time>2024-06-05T22:34:01+00:00</time>
      </trkpt>
      <trkpt lat="45.4511" lon="6.21318">
        <ele>1970</ele>
        <time>2024-06-05T22:34:04+00:00</time>
      </trkpt>
      <trkpt lat="45.45121" lon="6.21316">
        <ele>1971</ele>
        <time>2024-06-05T22:34:07+00:00</time>
      </trkpt>
      <trkpt lat="45.45133" lon="6.21313">
        <ele>1973</ele>
        <time>2024-06-05T22:34:10+00:00</time>
      </trkpt>
      <trkpt lat="45.45145" lon="6.21308">
        <ele>1972</ele>
        <time>2024-06-05T22:34:13+00:00</time>
      </trkpt>
      <trkpt lat="45.45156" lon="6.21302">
        <ele>1973</ele>
        <time>2024-06-05T22:34:16+00:00</time>
      </trkpt>
      <trkpt lat="45.45165" lon="6.21298">
        <ele>1974</ele>
        <time>2024-06-05T22:34:19+00:00</time>
      </trkpt>
      <trkpt lat="45.45175" lon="6.21293">
        <ele>1976</ele>
        <time>2024-06-05T22:34:22+00:00</time>
      </trkpt>
      <trkpt lat="45.45186" lon="6.21288">
        <ele>1974</ele>
        <time>2024-06-05T22:34:25+00:00</time>
      </trkpt>
      <trkpt lat="45.45191" lon="6.21284">
        <ele>1975</ele>
        <time>2024-06-05T22:34:28+00:00</time>
      </trkpt>
      <trkpt lat="45.45196" lon="6.21284">
        <ele>1975</ele>
        <time>2024-06-05T22:34:31+00:00</time>
      </trkpt>
      <trkpt lat="45.452" lon="6.21285">
        <ele>1975</ele>
        <time>2024-06-05T22:34:34+00:00</time>
      </trkpt>
      <trkpt lat="45.45204" lon="6.2129">
        <ele>1972</ele>
        <time>2024-06-05T22:34:37+00:00</time>
      </trkpt>
      <trkpt lat="45.4521" lon="6.21293">
        <ele>1975</ele>
        <time>2024-06-05T22:34:40+00:00</time>
      </trkpt>
      <trkpt lat="45.45216" lon="6.21296">
        <ele>1974</ele>
        <time>2024-06-05T22:34:43+00:00</time>
      </trkpt>
      <trkpt lat="45.45221" lon="6.21298">
        <ele>1970</ele>
        <time>2024-06-05T22:34:46+00:00</time>
      </trkpt>
      <trkpt lat="45.45234" lon="6.21307">
        <ele>1970</ele>
        <time>2024-06-05T22:34:49+00:00</time>
      </trkpt>
      <trkpt lat="45.45246" lon="6.21315">
        <ele>1967</ele>
        <time>2024-06-05T22:34:52+00:00</time>
      </trkpt>
      <trkpt lat="45.45254" lon="6.21322">
        <ele>1964</ele>
        <time>2024-06-05T22:34:55+00:00</time>
      </trkpt>
      <trkpt lat="45.45266" lon="6.21323">
        <ele>1961</ele>
        <time>2024-06-05T22:34:58+00:00</time>
      </trkpt>
      <trkpt lat="45.45272" lon="6.21324">
        <ele>1957</ele>
        <time>2024-06-05T22:35:01+00:00</time>
      </trkpt>
      <trkpt lat="45.45276" lon="6.21326">
        <ele>1957</ele>
        <time>2024-06-05T22:35:04+00:00</time>
      </trkpt>
      <trkpt lat="45.4528" lon="6.21329">
        <ele>1957</ele>
        <time>2024-06-05T22:35:07+00:00</time>
      </trkpt>
      <trkpt lat="45.45284" lon="6.21334">
        <ele>1953</ele>
        <time>2024-06-05T22:35:10+00:00</time>
      </trkpt>
      <trkpt lat="45.45287" lon="6.21338">
        <ele>1953</ele>
        <time>2024-06-05T22:35:13+00:00</time>
      </trkpt>
      <trkpt lat="45.45291" lon="6.21341">
        <ele>1950</ele>
        <time>2024-06-05T22:35:16+00:00</time>
      </trkpt>
      <trkpt lat="45.45296" lon="6.21343">
        <ele>1950</ele>
        <time>2024-06-05T22:35:19+00:00</time>
      </trkpt>
      <trkpt lat="45.453" lon="6.21346">
        <ele>1950</ele>
        <time>2024-06-05T22:35:22+00:00</time>
      </trkpt>
      <trkpt lat="45.45304" lon="6.21349">
        <ele>1947</ele>
        <time>2024-06-05T22:35:25+00:00</time>
      </trkpt>
      <trkpt lat="45.45305" lon="6.21347">
        <ele>1947</ele>
        <time>2024-06-05T22:35:28+00:00</time>
      </trkpt>
      <trkpt lat="45.45308" lon="6.2134">
        <ele>1946</ele>
        <time>2024-06-05T22:35:31+00:00</time>
      </trkpt>
      <trkpt lat="45.45309" lon="6.21336">
        <ele>1946</ele>
        <time>2024-06-05T22:35:34+00:00</time>
      </trkpt>
      <trkpt lat="45.4531" lon="6.2133">
        <ele>1945</ele>
        <time>2024-06-05T22:35:37+00:00</time>
      </trkpt>
      <trkpt lat="45.45311" lon="6.21324">
        <ele>1940</ele>
        <time>2024-06-05T22:35:40+00:00</time>
      </trkpt>
      <trkpt lat="45.45312" lon="6.2132">
        <ele>1940</ele>
        <time>2024-06-05T22:35:43+00:00</time>
      </trkpt>
      <trkpt lat="45.45314" lon="6.2132">
        <ele>1938</ele>
        <time>2024-06-05T22:35:46+00:00</time>
      </trkpt>
      <trkpt lat="45.45318" lon="6.21323">
        <ele>1940</ele>
        <time>2024-06-05T22:35:49+00:00</time>
      </trkpt>
      <trkpt lat="45.45321" lon="6.21327">
        <ele>1935</ele>
        <time>2024-06-05T22:35:52+00:00</time>
      </trkpt>
      <trkpt lat="45.45325" lon="6.21331">
        <ele>1936</ele>
        <time>2024-06-05T22:35:55+00:00</time>
      </trkpt>
      <trkpt lat="45.45329" lon="6.21333">
        <ele>1936</ele>
        <time>2024-06-05T22:35:58+00:00</time>
      </trkpt>
      <trkpt lat="45.45338" lon="6.21336">
        <ele>1933</ele>
        <time>2024-06-05T22:36:01+00:00</time>
      </trkpt>
      <trkpt lat="45.45347" lon="6.21341">
        <ele>1930</ele>
        <time>2024-06-05T22:36:04+00:00</time>
      </trkpt>
      <trkpt lat="45.45353" lon="6.21346">
        <ele>1926</ele>
        <time>2024-06-05T22:36:07+00:00</time>
      </trkpt>
      <trkpt lat="45.45357" lon="6.21349">
        <ele>1926</ele>
        <time>2024-06-05T22:36:10+00:00</time>
      </trkpt>
      <trkpt lat="45.45362" lon="6.21352">
        <ele>1922</ele>
        <time>2024-06-05T22:36:13+00:00</time>
      </trkpt>
      <trkpt lat="45.45364" lon="6.21352">
        <ele>1922</ele>
        <time>2024-06-05T22:36:16+00:00</time>
      </trkpt>
      <trkpt lat="45.45373" lon="6.21357">
        <ele>1919</ele>
        <time>2024-06-05T22:36:19+00:00</time>
      </trkpt>
      <trkpt lat="45.45378" lon="6.21358">
        <ele>1919</ele>
        <time>2024-06-05T22:36:22+00:00</time>
      </trkpt>
      <trkpt lat="45.45385" lon="6.2136">
        <ele>1916</ele>
        <time>2024-06-05T22:36:25+00:00</time>
      </trkpt>
      <trkpt lat="45.4539" lon="6.21362">
        <ele>1915</ele>
        <time>2024-06-05T22:36:28+00:00</time>
      </trkpt>
      <trkpt lat="45.45396" lon="6.21364">
        <ele>1913</ele>
        <time>2024-06-05T22:36:31+00:00</time>
      </trkpt>
      <trkpt lat="45.45404" lon="6.21368">
        <ele>1911</ele>
        <time>2024-06-05T22:36:34+00:00</time>
      </trkpt>
      <trkpt lat="45.4541" lon="6.21371">
        <ele>1911</ele>
        <time>2024-06-05T22:36:37+00:00</time>
      </trkpt>
      <trkpt lat="45.45414" lon="6.21374">
        <ele>1908</ele>
        <time>2024-06-05T22:36:40+00:00</time>
      </trkpt>
      <trkpt lat="45.45417" lon="6.21375">
        <ele>1908</ele>
        <time>2024-06-05T22:36:43+00:00</time>
      </trkpt>
      <trkpt lat="45.45421" lon="6.21374">
        <ele>1906</ele>
        <time>2024-06-05T22:36:46+00:00</time>
      </trkpt>
      <trkpt lat="45.45423" lon="6.21372">
        <ele>1906</ele>
        <time>2024-06-05T22:36:49+00:00</time>
      </trkpt>
      <trkpt lat="45.45428" lon="6.21369">
        <ele>1906</ele>
        <time>2024-06-05T22:36:52+00:00</time>
      </trkpt>
      <trkpt lat="45.45432" lon="6.21368">
        <ele>1904</ele>
        <time>2024-06-05T22:36:55+00:00</time>
      </trkpt>
      <trkpt lat="45.45436" lon="6.21366">
        <ele>1904</ele>
        <time>2024-06-05T22:36:58+00:00</time>
      </trkpt>
      <trkpt lat="45.45443" lon="6.21367">
        <ele>1899</ele>
        <time>2024-06-05T22:37:01+00:00</time>
      </trkpt>
      <trkpt lat="45.45449" lon="6.21369">
        <ele>1899</ele>
        <time>2024-06-05T22:37:04+00:00</time>
      </trkpt>
      <trkpt lat="45.45454" lon="6.21373">
        <ele>1898</ele>
        <time>2024-06-05T22:37:07+00:00</time>
      </trkpt>
      <trkpt lat="45.45458" lon="6.21378">
        <ele>1898</ele>
        <time>2024-06-05T22:37:10+00:00</time>
      </trkpt>
      <trkpt lat="45.45463" lon="6.21382">
        <ele>1897</ele>
        <time>2024-06-05T22:37:13+00:00</time>
      </trkpt>
      <trkpt lat="45.45468" lon="6.21384">
        <ele>1897</ele>
        <time>2024-06-05T22:37:16+00:00</time>
      </trkpt>
      <trkpt lat="45.45475" lon="6.21386">
        <ele>1895</ele>
        <time>2024-06-05T22:37:19+00:00</time>
      </trkpt>
      <trkpt lat="45.45481" lon="6.21388">
        <ele>1895</ele>
        <time>2024-06-05T22:37:22+00:00</time>
      </trkpt>
      <trkpt lat="45.45487" lon="6.2139">
        <ele>1896</ele>
        <time>2024-06-05T22:37:25+00:00</time>
      </trkpt>
      <trkpt lat="45.45493" lon="6.21391">
        <ele>1896</ele>
        <time>2024-06-05T22:37:28+00:00</time>
      </trkpt>
      <trkpt lat="45.45499" lon="6.21392">
        <ele>1896</ele>
        <time>2024-06-05T22:37:31+00:00</time>
      </trkpt>
      <trkpt lat="45.45506" lon="6.21393">
        <ele>1896</ele>
        <time>2024-06-05T22:37:34+00:00</time>
      </trkpt>
      <trkpt lat="45.45512" lon="6.21394">
        <ele>1896</ele>
        <time>2024-06-05T22:37:37+00:00</time>
      </trkpt>
      <trkpt lat="45.45517" lon="6.21396">
        <ele>1896</ele>
        <time>2024-06-05T22:37:40+00:00</time>
      </trkpt>
      <trkpt lat="45.45525" lon="6.21399">
        <ele>1895</ele>
        <time>2024-06-05T22:37:43+00:00</time>
      </trkpt>
      <trkpt lat="45.45531" lon="6.21402">
        <ele>1893</ele>
        <time>2024-06-05T22:37:46+00:00</time>
      </trkpt>
      <trkpt lat="45.45539" lon="6.21405">
        <ele>1893</ele>
        <time>2024-06-05T22:37:49+00:00</time>
      </trkpt>
      <trkpt lat="45.45546" lon="6.21411">
        <ele>1894</ele>
        <time>2024-06-05T22:37:52+00:00</time>
      </trkpt>
      <trkpt lat="45.45557" lon="6.21418">
        <ele>1892</ele>
        <time>2024-06-05T22:37:55+00:00</time>
      </trkpt>
      <trkpt lat="45.45565" lon="6.21425">
        <ele>1894</ele>
        <time>2024-06-05T22:37:58+00:00</time>
      </trkpt>
      <trkpt lat="45.45571" lon="6.21431">
        <ele>1895</ele>
        <time>2024-06-05T22:38:01+00:00</time>
      </trkpt>
      <trkpt lat="45.4558" lon="6.21438">
        <ele>1895</ele>
        <time>2024-06-05T22:38:04+00:00</time>
      </trkpt>
      <trkpt lat="45.45585" lon="6.21441">
        <ele>1893</ele>
        <time>2024-06-05T22:38:07+00:00</time>
      </trkpt>
      <trkpt lat="45.4559" lon="6.21445">
        <ele>1893</ele>
        <time>2024-06-05T22:38:10+00:00</time>
      </trkpt>
      <trkpt lat="45.45596" lon="6.21451">
        <ele>1894</ele>
        <time>2024-06-05T22:38:13+00:00</time>
      </trkpt>
      <trkpt lat="45.45602" lon="6.21458">
        <ele>1893</ele>
        <time>2024-06-05T22:38:16+00:00</time>
      </trkpt>
      <trkpt lat="45.45607" lon="6.21463">
        <ele>1893</ele>
        <time>2024-06-05T22:38:19+00:00</time>
      </trkpt>
      <trkpt lat="45.45613" lon="6.21466">
        <ele>1893</ele>
        <time>2024-06-05T22:38:22+00:00</time>
      </trkpt>
      <trkpt lat="45.45616" lon="6.21471">
        <ele>1890</ele>
        <time>2024-06-05T22:38:25+00:00</time>
      </trkpt>
      <trkpt lat="45.4562" lon="6.21476">
        <ele>1891</ele>
        <time>2024-06-05T22:38:28+00:00</time>
      </trkpt>
      <trkpt lat="45.45626" lon="6.21484">
        <ele>1890</ele>
        <time>2024-06-05T22:38:31+00:00</time>
      </trkpt>
      <trkpt lat="45.45634" lon="6.2149">
        <ele>1889</ele>
        <time>2024-06-05T22:38:34+00:00</time>
      </trkpt>
      <trkpt lat="45.45638" lon="6.21494">
        <ele>1889</ele>
        <time>2024-06-05T22:38:37+00:00</time>
      </trkpt>
      <trkpt lat="45.45644" lon="6.215">
        <ele>1887</ele>
        <time>2024-06-05T22:38:40+00:00</time>
      </trkpt>
      <trkpt lat="45.45652" lon="6.21507">
        <ele>1886</ele>
        <time>2024-06-05T22:38:43+00:00</time>
      </trkpt>
      <trkpt lat="45.45659" lon="6.21514">
        <ele>1885</ele>
        <time>2024-06-05T22:38:46+00:00</time>
      </trkpt>
      <trkpt lat="45.45666" lon="6.21522">
        <ele>1884</ele>
        <time>2024-06-05T22:38:49+00:00</time>
      </trkpt>
      <trkpt lat="45.45672" lon="6.21527">
        <ele>1884</ele>
        <time>2024-06-05T22:38:52+00:00</time>
      </trkpt>
      <trkpt lat="45.45675" lon="6.21529">
        <ele>1884</ele>
        <time>2024-06-05T22:38:55+00:00</time>
      </trkpt>
      <trkpt lat="45.45678" lon="6.21531">
        <ele>1883</ele>
        <time>2024-06-05T22:38:58+00:00</time>
      </trkpt>
      <trkpt lat="45.45685" lon="6.21535">
        <ele>1883</ele>
        <time>2024-06-05T22:39:01+00:00</time>
      </trkpt>
      <trkpt lat="45.45692" lon="6.21542">
        <ele>1881</ele>
        <time>2024-06-05T22:39:04+00:00</time>
      </trkpt>
      <trkpt lat="45.45699" lon="6.21549">
        <ele>1881</ele>
        <time>2024-06-05T22:39:07+00:00</time>
      </trkpt>
      <trkpt lat="45.45703" lon="6.21555">
        <ele>1880</ele>
        <time>2024-06-05T22:39:10+00:00</time>
      </trkpt>
      <trkpt lat="45.45706" lon="6.21559">
        <ele>1880</ele>
        <time>2024-06-05T22:39:13+00:00</time>
      </trkpt>
      <trkpt lat="45.45711" lon="6.21563">
        <ele>1879</ele>
        <time>2024-06-05T22:39:16+00:00</time>
      </trkpt>
      <trkpt lat="45.45716" lon="6.2157">
        <ele>1880</ele>
        <time>2024-06-05T22:39:19+00:00</time>
      </trkpt>
      <trkpt lat="45.45721" lon="6.21576">
        <ele>1879</ele>
        <time>2024-06-05T22:39:22+00:00</time>
      </trkpt>
      <trkpt lat="45.45727" lon="6.21583">
        <ele>1879</ele>
        <time>2024-06-05T22:39:25+00:00</time>
      </trkpt>
      <trkpt lat="45.45728" lon="6.21587">
        <ele>1879</ele>
        <time>2024-06-05T22:39:28+00:00</time>
      </trkpt>
      <trkpt lat="45.4573" lon="6.2159">
        <ele>1877</ele>
        <time>2024-06-05T22:39:31+00:00</time>
      </trkpt>
      <trkpt lat="45.45733" lon="6.21594">
        <ele>1877</ele>
        <time>2024-06-05T22:39:34+00:00</time>
      </trkpt>
      <trkpt lat="45.45735" lon="6.216">
        <ele>1873</ele>
        <time>2024-06-05T22:39:37+00:00</time>
      </trkpt>
      <trkpt lat="45.45739" lon="6.21607">
        <ele>1873</ele>
        <time>2024-06-05T22:39:40+00:00</time>
      </trkpt>
      <trkpt lat="45.45742" lon="6.21613">
        <ele>1877</ele>
        <time>2024-06-05T22:39:43+00:00</time>
      </trkpt>
      <trkpt lat="45.45743" lon="6.21618">
        <ele>1877</ele>
        <time>2024-06-05T22:39:46+00:00</time>
      </trkpt>
      <trkpt lat="45.45743" lon="6.21624">
        <ele>1876</ele>
        <time>2024-06-05T22:39:49+00:00</time>
      </trkpt>
      <trkpt lat="45.45745" lon="6.21628">
        <ele>1876</ele>
        <time>2024-06-05T22:39:52+00:00</time>
      </trkpt>
      <trkpt lat="45.45749" lon="6.21632">
        <ele>1872</ele>
        <time>2024-06-05T22:39:55+00:00</time>
      </trkpt>
      <trkpt lat="45.45754" lon="6.21636">
        <ele>1873</ele>
        <time>2024-06-05T22:39:58+00:00</time>
      </trkpt>
      <trkpt lat="45.45758" lon="6.21641">
        <ele>1870</ele>
        <time>2024-06-05T22:40:01+00:00</time>
      </trkpt>
      <trkpt lat="45.45763" lon="6.21644">
        <ele>1871</ele>
        <time>2024-06-05T22:40:04+00:00</time>
      </trkpt>
      <trkpt lat="45.45767" lon="6.21647">
        <ele>1871</ele>
        <time>2024-06-05T22:40:07+00:00</time>
      </trkpt>
      <trkpt lat="45.4577" lon="6.21648">
        <ele>1868</ele>
        <time>2024-06-05T22:40:10+00:00</time>
      </trkpt>
      <trkpt lat="45.45772" lon="6.21652">
        <ele>1868</ele>
        <time>2024-06-05T22:40:13+00:00</time>
      </trkpt>
      <trkpt lat="45.45772" lon="6.21655">
        <ele>1868</ele>
        <time>2024-06-05T22:40:16+00:00</time>
      </trkpt>
      <trkpt lat="45.45773" lon="6.21657">
        <ele>1868</ele>
        <time>2024-06-05T22:40:19+00:00</time>
      </trkpt>
      <trkpt lat="45.45776" lon="6.2166">
        <ele>1864</ele>
        <time>2024-06-05T22:40:22+00:00</time>
      </trkpt>
      <trkpt lat="45.45778" lon="6.21662">
        <ele>1864</ele>
        <time>2024-06-05T22:40:25+00:00</time>
      </trkpt>
      <trkpt lat="45.4578" lon="6.21666">
        <ele>1864</ele>
        <time>2024-06-05T22:40:28+00:00</time>
      </trkpt>
      <trkpt lat="45.45783" lon="6.21669">
        <ele>1864</ele>
        <time>2024-06-05T22:40:31+00:00</time>
      </trkpt>
      <trkpt lat="45.45788" lon="6.21676">
        <ele>1862</ele>
        <time>2024-06-05T22:40:34+00:00</time>
      </trkpt>
      <trkpt lat="45.45796" lon="6.21686">
        <ele>1859</ele>
        <time>2024-06-05T22:40:37+00:00</time>
      </trkpt>
      <trkpt lat="45.45804" lon="6.21693">
        <ele>1854</ele>
        <time>2024-06-05T22:40:40+00:00</time>
      </trkpt>
      <trkpt lat="45.45811" lon="6.21703">
        <ele>1852</ele>
        <time>2024-06-05T22:40:43+00:00</time>
      </trkpt>
      <trkpt lat="45.45828" lon="6.21721">
        <ele>1852</ele>
        <time>2024-06-05T22:40:46+00:00</time>
      </trkpt>
      <trkpt lat="45.45838" lon="6.21734">
        <ele>1853</ele>
        <time>2024-06-05T22:40:49+00:00</time>
      </trkpt>
      <trkpt lat="45.45857" lon="6.21746">
        <ele>1851</ele>
        <time>2024-06-05T22:40:52+00:00</time>
      </trkpt>
      <trkpt lat="45.45859" lon="6.2175">
        <ele>1847</ele>
        <time>2024-06-05T22:40:55+00:00</time>
      </trkpt>
      <trkpt lat="45.45862" lon="6.21755">
        <ele>1849</ele>
        <time>2024-06-05T22:40:58+00:00</time>
      </trkpt>
      <trkpt lat="45.45864" lon="6.21761">
        <ele>1847</ele>
        <time>2024-06-05T22:41:01+00:00</time>
      </trkpt>
      <trkpt lat="45.45868" lon="6.2177">
        <ele>1847</ele>
        <time>2024-06-05T22:41:04+00:00</time>
      </trkpt>
      <trkpt lat="45.45871" lon="6.21775">
        <ele>1845</ele>
        <time>2024-06-05T22:41:07+00:00</time>
      </trkpt>
      <trkpt lat="45.45872" lon="6.21779">
        <ele>1845</ele>
        <time>2024-06-05T22:41:10+00:00</time>
      </trkpt>
      <trkpt lat="45.45873" lon="6.21783">
        <ele>1845</ele>
        <time>2024-06-05T22:41:13+00:00</time>
      </trkpt>
      <trkpt lat="45.45876" lon="6.21785">
        <ele>1845</ele>
        <time>2024-06-05T22:41:16+00:00</time>
      </trkpt>
      <trkpt lat="45.45878" lon="6.21789">
        <ele>1845</ele>
        <time>2024-06-05T22:41:19+00:00</time>
      </trkpt>
      <trkpt lat="45.45877" lon="6.21792">
        <ele>1842</ele>
        <time>2024-06-05T22:41:22+00:00</time>
      </trkpt>
      <trkpt lat="45.45879" lon="6.21797">
        <ele>1842</ele>
        <time>2024-06-05T22:41:25+00:00</time>
      </trkpt>
      <trkpt lat="45.45879" lon="6.21802">
        <ele>1840</ele>
        <time>2024-06-05T22:41:28+00:00</time>
      </trkpt>
      <trkpt lat="45.4588" lon="6.21805">
        <ele>1842</ele>
        <time>2024-06-05T22:41:31+00:00</time>
      </trkpt>
      <trkpt lat="45.45882" lon="6.21809">
        <ele>1842</ele>
        <time>2024-06-05T22:41:34+00:00</time>
      </trkpt>
      <trkpt lat="45.45883" lon="6.21814">
        <ele>1838</ele>
        <time>2024-06-05T22:41:37+00:00</time>
      </trkpt>
      <trkpt lat="45.45886" lon="6.21817">
        <ele>1838</ele>
        <time>2024-06-05T22:41:40+00:00</time>
      </trkpt>
      <trkpt lat="45.45888" lon="6.21821">
        <ele>1836</ele>
        <time>2024-06-05T22:41:43+00:00</time>
      </trkpt>
      <trkpt lat="45.45891" lon="6.21823">
        <ele>1838</ele>
        <time>2024-06-05T22:41:46+00:00</time>
      </trkpt>
      <trkpt lat="45.45896" lon="6.21824">
        <ele>1838</ele>
        <time>2024-06-05T22:41:49+00:00</time>
      </trkpt>
      <trkpt lat="45.45899" lon="6.21825">
        <ele>1838</ele>
        <time>2024-06-05T22:41:52+00:00</time>
      </trkpt>
      <trkpt lat="45.45901" lon="6.21828">
        <ele>1836</ele>
        <time>2024-06-05T22:41:55+00:00</time>
      </trkpt>
      <trkpt lat="45.45904" lon="6.2183">
        <ele>1837</ele>
        <time>2024-06-05T22:41:58+00:00</time>
      </trkpt>
      <trkpt lat="45.45907" lon="6.21832">
        <ele>1837</ele>
        <time>2024-06-05T22:42:01+00:00</time>
      </trkpt>
      <trkpt lat="45.4591" lon="6.21834">
        <ele>1834</ele>
        <time>2024-06-05T22:42:04+00:00</time>
      </trkpt>
      <trkpt lat="45.45914" lon="6.21837">
        <ele>1834</ele>
        <time>2024-06-05T22:42:07+00:00</time>
      </trkpt>
      <trkpt lat="45.45916" lon="6.21841">
        <ele>1834</ele>
        <time>2024-06-05T22:42:10+00:00</time>
      </trkpt>
      <trkpt lat="45.45919" lon="6.21844">
        <ele>1834</ele>
        <time>2024-06-05T22:42:13+00:00</time>
      </trkpt>
      <trkpt lat="45.45921" lon="6.21847">
        <ele>1829</ele>
        <time>2024-06-05T22:42:16+00:00</time>
      </trkpt>
      <trkpt lat="45.45922" lon="6.21852">
        <ele>1828</ele>
        <time>2024-06-05T22:42:19+00:00</time>
      </trkpt>
      <trkpt lat="45.45922" lon="6.21856">
        <ele>1828</ele>
        <time>2024-06-05T22:42:22+00:00</time>
      </trkpt>
      <trkpt lat="45.45923" lon="6.21859">
        <ele>1828</ele>
        <time>2024-06-05T22:42:25+00:00</time>
      </trkpt>
      <trkpt lat="45.45925" lon="6.2186">
        <ele>1825</ele>
        <time>2024-06-05T22:42:28+00:00</time>
      </trkpt>
      <trkpt lat="45.45925" lon="6.21863">
        <ele>1825</ele>
        <time>2024-06-05T22:42:31+00:00</time>
      </trkpt>
      <trkpt lat="45.45927" lon="6.21866">
        <ele>1825</ele>
        <time>2024-06-05T22:42:34+00:00</time>
      </trkpt>
      <trkpt lat="45.4593" lon="6.21868">
        <ele>1825</ele>
        <time>2024-06-05T22:42:37+00:00</time>
      </trkpt>
      <trkpt lat="45.45931" lon="6.21871">
        <ele>1819</ele>
        <time>2024-06-05T22:42:40+00:00</time>
      </trkpt>
      <trkpt lat="45.45932" lon="6.21875">
        <ele>1819</ele>
        <time>2024-06-05T22:42:43+00:00</time>
      </trkpt>
      <trkpt lat="45.45935" lon="6.21877">
        <ele>1819</ele>
        <time>2024-06-05T22:42:46+00:00</time>
      </trkpt>
      <trkpt lat="45.45937" lon="6.21879">
        <ele>1819</ele>
        <time>2024-06-05T22:42:49+00:00</time>
      </trkpt>
      <trkpt lat="45.4594" lon="6.21882">
        <ele>1817</ele>
        <time>2024-06-05T22:42:52+00:00</time>
      </trkpt>
      <trkpt lat="45.45945" lon="6.21886">
        <ele>1817</ele>
        <time>2024-06-05T22:42:55+00:00</time>
      </trkpt>
      <trkpt lat="45.45949" lon="6.21889">
        <ele>1817</ele>
        <time>2024-06-05T22:42:58+00:00</time>
      </trkpt>
      <trkpt lat="45.45951" lon="6.21892">
        <ele>1813</ele>
        <time>2024-06-05T22:43:01+00:00</time>
      </trkpt>
      <trkpt lat="45.45952" lon="6.21895">
        <ele>1813</ele>
        <time>2024-06-05T22:43:04+00:00</time>
      </trkpt>
      <trkpt lat="45.45953" lon="6.21897">
        <ele>1813</ele>
        <time>2024-06-05T22:43:07+00:00</time>
      </trkpt>
      <trkpt lat="45.45956" lon="6.21899">
        <ele>1813</ele>
        <time>2024-06-05T22:43:10+00:00</time>
      </trkpt>
      <trkpt lat="45.45959" lon="6.21901">
        <ele>1808</ele>
        <time>2024-06-05T22:43:13+00:00</time>
      </trkpt>
      <trkpt lat="45.45962" lon="6.21903">
        <ele>1807</ele>
        <time>2024-06-05T22:43:16+00:00</time>
      </trkpt>
      <trkpt lat="45.45965" lon="6.21905">
        <ele>1807</ele>
        <time>2024-06-05T22:43:19+00:00</time>
      </trkpt>
      <trkpt lat="45.45968" lon="6.21905">
        <ele>1807</ele>
        <time>2024-06-05T22:43:22+00:00</time>
      </trkpt>
      <trkpt lat="45.45971" lon="6.21906">
        <ele>1805</ele>
        <time>2024-06-05T22:43:25+00:00</time>
      </trkpt>
      <trkpt lat="45.45974" lon="6.21906">
        <ele>1805</ele>
        <time>2024-06-05T22:43:28+00:00</time>
      </trkpt>
      <trkpt lat="45.45976" lon="6.21908">
        <ele>1805</ele>
        <time>2024-06-05T22:43:31+00:00</time>
      </trkpt>
      <trkpt lat="45.45977" lon="6.21911">
        <ele>1803</ele>
        <time>2024-06-05T22:43:34+00:00</time>
      </trkpt>
      <trkpt lat="45.45979" lon="6.21913">
        <ele>1803</ele>
        <time>2024-06-05T22:43:37+00:00</time>
      </trkpt>
      <trkpt lat="45.45981" lon="6.21914">
        <ele>1799</ele>
        <time>2024-06-05T22:43:40+00:00</time>
      </trkpt>
      <trkpt lat="45.45983" lon="6.21914">
        <ele>1799</ele>
        <time>2024-06-05T22:43:43+00:00</time>
      </trkpt>
      <trkpt lat="45.45984" lon="6.21917">
        <ele>1799</ele>
        <time>2024-06-05T22:43:46+00:00</time>
      </trkpt>
      <trkpt lat="45.45984" lon="6.21921">
        <ele>1797</ele>
        <time>2024-06-05T22:43:49+00:00</time>
      </trkpt>
      <trkpt lat="45.45981" lon="6.21924">
        <ele>1797</ele>
        <time>2024-06-05T22:43:52+00:00</time>
      </trkpt>
      <trkpt lat="45.45978" lon="6.21927">
        <ele>1799</ele>
        <time>2024-06-05T22:43:55+00:00</time>
      </trkpt>
      <trkpt lat="45.45976" lon="6.21929">
        <ele>1799</ele>
        <time>2024-06-05T22:43:58+00:00</time>
      </trkpt>
      <trkpt lat="45.45975" lon="6.21932">
        <ele>1794</ele>
        <time>2024-06-05T22:44:01+00:00</time>
      </trkpt>
      <trkpt lat="45.45975" lon="6.21935">
        <ele>1794</ele>
        <time>2024-06-05T22:44:04+00:00</time>
      </trkpt>
      <trkpt lat="45.45978" lon="6.21935">
        <ele>1794</ele>
        <time>2024-06-05T22:44:07+00:00</time>
      </trkpt>
      <trkpt lat="45.45982" lon="6.21935">
        <ele>1792</ele>
        <time>2024-06-05T22:44:10+00:00</time>
      </trkpt>
      <trkpt lat="45.45985" lon="6.21935">
        <ele>1792</ele>
        <time>2024-06-05T22:44:13+00:00</time>
      </trkpt>
      <trkpt lat="45.45988" lon="6.21939">
        <ele>1792</ele>
        <time>2024-06-05T22:44:16+00:00</time>
      </trkpt>
      <trkpt lat="45.45991" lon="6.21943">
        <ele>1786</ele>
        <time>2024-06-05T22:44:19+00:00</time>
      </trkpt>
      <trkpt lat="45.45994" lon="6.21943">
        <ele>1786</ele>
        <time>2024-06-05T22:44:22+00:00</time>
      </trkpt>
      <trkpt lat="45.45997" lon="6.21947">
        <ele>1786</ele>
        <time>2024-06-05T22:44:25+00:00</time>
      </trkpt>
      <trkpt lat="45.46" lon="6.21951">
        <ele>1780</ele>
        <time>2024-06-05T22:44:28+00:00</time>
      </trkpt>
      <trkpt lat="45.46002" lon="6.21957">
        <ele>1780</ele>
        <time>2024-06-05T22:44:31+00:00</time>
      </trkpt>
      <trkpt lat="45.46005" lon="6.21962">
        <ele>1779</ele>
        <time>2024-06-05T22:44:34+00:00</time>
      </trkpt>
      <trkpt lat="45.46005" lon="6.21965">
        <ele>1779</ele>
        <time>2024-06-05T22:44:37+00:00</time>
      </trkpt>
      <trkpt lat="45.46008" lon="6.21969">
        <ele>1779</ele>
        <time>2024-06-05T22:44:40+00:00</time>
      </trkpt>
      <trkpt lat="45.4601" lon="6.21971">
        <ele>1771</ele>
        <time>2024-06-05T22:44:43+00:00</time>
      </trkpt>
      <trkpt lat="45.46013" lon="6.21973">
        <ele>1771</ele>
        <time>2024-06-05T22:44:46+00:00</time>
      </trkpt>
      <trkpt lat="45.46016" lon="6.21976">
        <ele>1771</ele>
        <time>2024-06-05T22:44:49+00:00</time>
      </trkpt>
      <trkpt lat="45.46018" lon="6.21979">
        <ele>1771</ele>
        <time>2024-06-05T22:44:52+00:00</time>
      </trkpt>
      <trkpt lat="45.46019" lon="6.21982">
        <ele>1770</ele>
        <time>2024-06-05T22:44:55+00:00</time>
      </trkpt>
      <trkpt lat="45.4602" lon="6.2198">
        <ele>1768</ele>
        <time>2024-06-05T22:44:58+00:00</time>
      </trkpt>
      <trkpt lat="45.46022" lon="6.21978">
        <ele>1769</ele>
        <time>2024-06-05T22:45:01+00:00</time>
      </trkpt>
      <trkpt lat="45.46024" lon="6.21977">
        <ele>1769</ele>
        <time>2024-06-05T22:45:04+00:00</time>
      </trkpt>
      <trkpt lat="45.46026" lon="6.21979">
        <ele>1769</ele>
        <time>2024-06-05T22:45:07+00:00</time>
      </trkpt>
      <trkpt lat="45.46027" lon="6.21976">
        <ele>1769</ele>
        <time>2024-06-05T22:45:10+00:00</time>
      </trkpt>
      <trkpt lat="45.46027" lon="6.21971">
        <ele>1769</ele>
        <time>2024-06-05T22:45:13+00:00</time>
      </trkpt>
      <trkpt lat="45.46027" lon="6.21966">
        <ele>1769</ele>
        <time>2024-06-05T22:45:16+00:00</time>
      </trkpt>
      <trkpt lat="45.46028" lon="6.21963">
        <ele>1769</ele>
        <time>2024-06-05T22:45:19+00:00</time>
      </trkpt>
      <trkpt lat="45.46029" lon="6.2196">
        <ele>1769</ele>
        <time>2024-06-05T22:45:22+00:00</time>
      </trkpt>
      <trkpt lat="45.46032" lon="6.2196">
        <ele>1761</ele>
        <time>2024-06-05T22:45:25+00:00</time>
      </trkpt>
      <trkpt lat="45.46035" lon="6.21964">
        <ele>1761</ele>
        <time>2024-06-05T22:45:28+00:00</time>
      </trkpt>
      <trkpt lat="45.46039" lon="6.21968">
        <ele>1761</ele>
        <time>2024-06-05T22:45:31+00:00</time>
      </trkpt>
      <trkpt lat="45.46042" lon="6.21971">
        <ele>1755</ele>
        <time>2024-06-05T22:45:34+00:00</time>
      </trkpt>
      <trkpt lat="45.46044" lon="6.21977">
        <ele>1755</ele>
        <time>2024-06-05T22:45:37+00:00</time>
      </trkpt>
      <trkpt lat="45.46045" lon="6.21981">
        <ele>1755</ele>
        <time>2024-06-05T22:45:40+00:00</time>
      </trkpt>
      <trkpt lat="45.46047" lon="6.21984">
        <ele>1755</ele>
        <time>2024-06-05T22:45:43+00:00</time>
      </trkpt>
      <trkpt lat="45.46049" lon="6.21988">
        <ele>1755</ele>
        <time>2024-06-05T22:45:46+00:00</time>
      </trkpt>
      <trkpt lat="45.46052" lon="6.21994">
        <ele>1748</ele>
        <time>2024-06-05T22:45:49+00:00</time>
      </trkpt>
      <trkpt lat="45.46054" lon="6.21997">
        <ele>1748</ele>
        <time>2024-06-05T22:45:52+00:00</time>
      </trkpt>
      <trkpt lat="45.46056" lon="6.21999">
        <ele>1748</ele>
        <time>2024-06-05T22:45:55+00:00</time>
      </trkpt>
      <trkpt lat="45.46058" lon="6.22002">
        <ele>1748</ele>
        <time>2024-06-05T22:45:58+00:00</time>
      </trkpt>
      <trkpt lat="45.4606" lon="6.22005">
        <ele>1742</ele>
        <time>2024-06-05T22:46:01+00:00</time>
      </trkpt>
      <trkpt lat="45.46063" lon="6.22005">
        <ele>1742</ele>
        <time>2024-06-05T22:46:04+00:00</time>
      </trkpt>
      <trkpt lat="45.46065" lon="6.22004">
        <ele>1742</ele>
        <time>2024-06-05T22:46:07+00:00</time>
      </trkpt>
      <trkpt lat="45.46067" lon="6.22003">
        <ele>1742</ele>
        <time>2024-06-05T22:46:10+00:00</time>
      </trkpt>
      <trkpt lat="45.4607" lon="6.22001">
        <ele>1739</ele>
        <time>2024-06-05T22:46:13+00:00</time>
      </trkpt>
      <trkpt lat="45.46073" lon="6.22001">
        <ele>1739</ele>
        <time>2024-06-05T22:46:16+00:00</time>
      </trkpt>
      <trkpt lat="45.46077" lon="6.22001">
        <ele>1739</ele>
        <time>2024-06-05T22:46:19+00:00</time>
      </trkpt>
      <trkpt lat="45.46079" lon="6.22003">
        <ele>1739</ele>
        <time>2024-06-05T22:46:22+00:00</time>
      </trkpt>
      <trkpt lat="45.46102" lon="6.2202">
        <ele>1729</ele>
        <time>2024-06-05T22:46:25+00:00</time>
      </trkpt>
      <trkpt lat="45.4613" lon="6.2204">
        <ele>1725</ele>
        <time>2024-06-05T22:46:28+00:00</time>
      </trkpt>
      <trkpt lat="45.46135" lon="6.22036">
        <ele>1722</ele>
        <time>2024-06-05T22:46:31+00:00</time>
      </trkpt>
      <trkpt lat="45.46137" lon="6.22018">
        <ele>1721</ele>
        <time>2024-06-05T22:46:34+00:00</time>
      </trkpt>
      <trkpt lat="45.46147" lon="6.21994">
        <ele>1719</ele>
        <time>2024-06-05T22:46:37+00:00</time>
      </trkpt>
      <trkpt lat="45.46164" lon="6.21971">
        <ele>1711</ele>
        <time>2024-06-05T22:46:40+00:00</time>
      </trkpt>
      <trkpt lat="45.46181" lon="6.21958">
        <ele>1702</ele>
        <time>2024-06-05T22:46:43+00:00</time>
      </trkpt>
      <trkpt lat="45.46197" lon="6.21944">
        <ele>1698</ele>
        <time>2024-06-05T22:46:46+00:00</time>
      </trkpt>
      <trkpt lat="45.462" lon="6.21944">
        <ele>1697</ele>
        <time>2024-06-05T22:46:49+00:00</time>
      </trkpt>
      <trkpt lat="45.46215" lon="6.21943">
        <ele>1697</ele>
        <time>2024-06-05T22:46:52+00:00</time>
      </trkpt>
      <trkpt lat="45.46226" lon="6.21942">
        <ele>1696</ele>
        <time>2024-06-05T22:46:55+00:00</time>
      </trkpt>
      <trkpt lat="45.46237" lon="6.21939">
        <ele>1691</ele>
        <time>2024-06-05T22:46:58+00:00</time>
      </trkpt>
      <trkpt lat="45.46242" lon="6.21942">
        <ele>1692</ele>
        <time>2024-06-05T22:47:01+00:00</time>
      </trkpt>
      <trkpt lat="45.46255" lon="6.21953">
        <ele>1691</ele>
        <time>2024-06-05T22:47:04+00:00</time>
      </trkpt>
      <trkpt lat="45.46265" lon="6.21955">
        <ele>1690</ele>
        <time>2024-06-05T22:47:07+00:00</time>
      </trkpt>
      <trkpt lat="45.46275" lon="6.21962">
        <ele>1691</ele>
        <time>2024-06-05T22:47:10+00:00</time>
      </trkpt>
      <trkpt lat="45.46283" lon="6.21969">
        <ele>1687</ele>
        <time>2024-06-05T22:47:13+00:00</time>
      </trkpt>
      <trkpt lat="45.46292" lon="6.2197">
        <ele>1684</ele>
        <time>2024-06-05T22:47:16+00:00</time>
      </trkpt>
      <trkpt lat="45.46299" lon="6.21967">
        <ele>1685</ele>
        <time>2024-06-05T22:47:19+00:00</time>
      </trkpt>
      <trkpt lat="45.46305" lon="6.21968">
        <ele>1683</ele>
        <time>2024-06-05T22:47:22+00:00</time>
      </trkpt>
      <trkpt lat="45.46312" lon="6.21973">
        <ele>1679</ele>
        <time>2024-06-05T22:47:25+00:00</time>
      </trkpt>
      <trkpt lat="45.4632" lon="6.2198">
        <ele>1679</ele>
        <time>2024-06-05T22:47:28+00:00</time>
      </trkpt>
      <trkpt lat="45.46329" lon="6.21987">
        <ele>1677</ele>
        <time>2024-06-05T22:47:31+00:00</time>
      </trkpt>
      <trkpt lat="45.46334" lon="6.21987">
        <ele>1674</ele>
        <time>2024-06-05T22:47:34+00:00</time>
      </trkpt>
      <trkpt lat="45.46342" lon="6.21988">
        <ele>1669</ele>
        <time>2024-06-05T22:47:37+00:00</time>
      </trkpt>
      <trkpt lat="45.46352" lon="6.21991">
        <ele>1669</ele>
        <time>2024-06-05T22:47:40+00:00</time>
      </trkpt>
      <trkpt lat="45.46358" lon="6.21991">
        <ele>1669</ele>
        <time>2024-06-05T22:47:43+00:00</time>
      </trkpt>
      <trkpt lat="45.46365" lon="6.21991">
        <ele>1668</ele>
        <time>2024-06-05T22:47:46+00:00</time>
      </trkpt>
      <trkpt lat="45.46372" lon="6.21985">
        <ele>1663</ele>
        <time>2024-06-05T22:47:49+00:00</time>
      </trkpt>
      <trkpt lat="45.46377" lon="6.21979">
        <ele>1660</ele>
        <time>2024-06-05T22:47:52+00:00</time>
      </trkpt>
      <trkpt lat="45.46385" lon="6.21974">
        <ele>1659</ele>
        <time>2024-06-05T22:47:55+00:00</time>
      </trkpt>
      <trkpt lat="45.46389" lon="6.2197">
        <ele>1659</ele>
        <time>2024-06-05T22:47:58+00:00</time>
      </trkpt>
      <trkpt lat="45.46393" lon="6.21969">
        <ele>1657</ele>
        <time>2024-06-05T22:48:01+00:00</time>
      </trkpt>
      <trkpt lat="45.46399" lon="6.21972">
        <ele>1658</ele>
        <time>2024-06-05T22:48:04+00:00</time>
      </trkpt>
      <trkpt lat="45.46406" lon="6.21971">
        <ele>1656</ele>
        <time>2024-06-05T22:48:07+00:00</time>
      </trkpt>
      <trkpt lat="45.46412" lon="6.21969">
        <ele>1650</ele>
        <time>2024-06-05T22:48:10+00:00</time>
      </trkpt>
      <trkpt lat="45.4642" lon="6.21971">
        <ele>1653</ele>
        <time>2024-06-05T22:48:13+00:00</time>
      </trkpt>
      <trkpt lat="45.46426" lon="6.21973">
        <ele>1651</ele>
        <time>2024-06-05T22:48:16+00:00</time>
      </trkpt>
      <trkpt lat="45.46436" lon="6.21972">
        <ele>1650</ele>
        <time>2024-06-05T22:48:19+00:00</time>
      </trkpt>
      <trkpt lat="45.46441" lon="6.21965">
        <ele>1647</ele>
        <time>2024-06-05T22:48:22+00:00</time>
      </trkpt>
      <trkpt lat="45.46445" lon="6.21941">
        <ele>1642</ele>
        <time>2024-06-05T22:48:25+00:00</time>
      </trkpt>
      <trkpt lat="45.46478" lon="6.21918">
        <ele>1634</ele>
        <time>2024-06-05T22:48:28+00:00</time>
      </trkpt>
      <trkpt lat="45.46495" lon="6.21912">
        <ele>1629</ele>
        <time>2024-06-05T22:48:31+00:00</time>
      </trkpt>
      <trkpt lat="45.46503" lon="6.21909">
        <ele>1625</ele>
        <time>2024-06-05T22:48:34+00:00</time>
      </trkpt>
      <trkpt lat="45.46536" lon="6.21911">
        <ele>1623</ele>
        <time>2024-06-05T22:48:37+00:00</time>
      </trkpt>
      <trkpt lat="45.46544" lon="6.21911">
        <ele>1621</ele>
        <time>2024-06-05T22:48:40+00:00</time>
      </trkpt>
      <trkpt lat="45.46553" lon="6.21911">
        <ele>1619</ele>
        <time>2024-06-05T22:48:43+00:00</time>
      </trkpt>
      <trkpt lat="45.46562" lon="6.2191">
        <ele>1617</ele>
        <time>2024-06-05T22:48:46+00:00</time>
      </trkpt>
      <trkpt lat="45.46571" lon="6.21909">
        <ele>1611</ele>
        <time>2024-06-05T22:48:49+00:00</time>
      </trkpt>
      <trkpt lat="45.46578" lon="6.21909">
        <ele>1611</ele>
        <time>2024-06-05T22:48:52+00:00</time>
      </trkpt>
      <trkpt lat="45.46587" lon="6.21908">
        <ele>1610</ele>
        <time>2024-06-05T22:48:55+00:00</time>
      </trkpt>
      <trkpt lat="45.46594" lon="6.21905">
        <ele>1610</ele>
        <time>2024-06-05T22:48:58+00:00</time>
      </trkpt>
      <trkpt lat="45.46601" lon="6.21905">
        <ele>1610</ele>
        <time>2024-06-05T22:49:01+00:00</time>
      </trkpt>
      <trkpt lat="45.46602" lon="6.21905">
        <ele>1610</ele>
        <time>2024-06-05T22:49:04+00:00</time>
      </trkpt>
      <trkpt lat="45.46611" lon="6.21895">
        <ele>1609</ele>
        <time>2024-06-05T22:49:07+00:00</time>
      </trkpt>
      <trkpt lat="45.46607" lon="6.21875">
        <ele>1605</ele>
        <time>2024-06-05T22:49:10+00:00</time>
      </trkpt>
      <trkpt lat="45.46601" lon="6.21873">
        <ele>1605</ele>
        <time>2024-06-05T22:49:13+00:00</time>
      </trkpt>
      <trkpt lat="45.46596" lon="6.21871">
        <ele>1604</ele>
        <time>2024-06-05T22:49:16+00:00</time>
      </trkpt>
      <trkpt lat="45.46594" lon="6.2187">
        <ele>1601</ele>
        <time>2024-06-05T22:49:19+00:00</time>
      </trkpt>
      <trkpt lat="45.46587" lon="6.21861">
        <ele>1599</ele>
        <time>2024-06-05T22:49:22+00:00</time>
      </trkpt>
      <trkpt lat="45.46588" lon="6.21826">
        <ele>1588</ele>
        <time>2024-06-05T22:49:25+00:00</time>
      </trkpt>
      <trkpt lat="45.46599" lon="6.21797">
        <ele>1579</ele>
        <time>2024-06-05T22:49:28+00:00</time>
      </trkpt>
      <trkpt lat="45.46634" lon="6.21808">
        <ele>1573</ele>
        <time>2024-06-05T22:49:31+00:00</time>
      </trkpt>
      <trkpt lat="45.4665" lon="6.21816">
        <ele>1569</ele>
        <time>2024-06-05T22:49:34+00:00</time>
      </trkpt>
      <trkpt lat="45.46662" lon="6.21821">
        <ele>1569</ele>
        <time>2024-06-05T22:49:37+00:00</time>
      </trkpt>
      <trkpt lat="45.46674" lon="6.2183">
        <ele>1566</ele>
        <time>2024-06-05T22:49:40+00:00</time>
      </trkpt>
      <trkpt lat="45.46683" lon="6.21841">
        <ele>1569</ele>
        <time>2024-06-05T22:49:43+00:00</time>
      </trkpt>
      <trkpt lat="45.46699" lon="6.21853">
        <ele>1570</ele>
        <time>2024-06-05T22:49:46+00:00</time>
      </trkpt>
      <trkpt lat="45.46725" lon="6.21864">
        <ele>1568</ele>
        <time>2024-06-05T22:49:49+00:00</time>
      </trkpt>
      <trkpt lat="45.4674" lon="6.21873">
        <ele>1567</ele>
        <time>2024-06-05T22:49:52+00:00</time>
      </trkpt>
      <trkpt lat="45.4675" lon="6.21876">
        <ele>1565</ele>
        <time>2024-06-05T22:49:55+00:00</time>
      </trkpt>
      <trkpt lat="45.46761" lon="6.21874">
        <ele>1563</ele>
        <time>2024-06-05T22:49:58+00:00</time>
      </trkpt>
      <trkpt lat="45.46772" lon="6.21878">
        <ele>1560</ele>
        <time>2024-06-05T22:50:01+00:00</time>
      </trkpt>
      <trkpt lat="45.46793" lon="6.21881">
        <ele>1555</ele>
        <time>2024-06-05T22:50:04+00:00</time>
      </trkpt>
      <trkpt lat="45.46818" lon="6.21894">
        <ele>1549</ele>
        <time>2024-06-05T22:50:07+00:00</time>
      </trkpt>
      <trkpt lat="45.46848" lon="6.21911">
        <ele>1543</ele>
        <time>2024-06-05T22:50:10+00:00</time>
      </trkpt>
      <trkpt lat="45.46873" lon="6.21921">
        <ele>1535</ele>
        <time>2024-06-05T22:50:13+00:00</time>
      </trkpt>
      <trkpt lat="45.46881" lon="6.21922">
        <ele>1533</ele>
        <time>2024-06-05T22:50:16+00:00</time>
      </trkpt>
      <trkpt lat="45.46885" lon="6.21919">
        <ele>1530</ele>
        <time>2024-06-05T22:50:19+00:00</time>
      </trkpt>
      <trkpt lat="45.46887" lon="6.2191">
        <ele>1530</ele>
        <time>2024-06-05T22:50:22+00:00</time>
      </trkpt>
      <trkpt lat="45.46884" lon="6.21897">
        <ele>1526</ele>
        <time>2024-06-05T22:50:25+00:00</time>
      </trkpt>
      <trkpt lat="45.46882" lon="6.21883">
        <ele>1525</ele>
        <time>2024-06-05T22:50:28+00:00</time>
      </trkpt>
      <trkpt lat="45.4688" lon="6.21872">
        <ele>1523</ele>
        <time>2024-06-05T22:50:31+00:00</time>
      </trkpt>
      <trkpt lat="45.4688" lon="6.21872">
        <ele>1523</ele>
        <time>2024-06-05T22:50:34+00:00</time>
      </trkpt>
      <trkpt lat="45.46877" lon="6.21858">
        <ele>1517</ele>
        <time>2024-06-05T22:50:37+00:00</time>
      </trkpt>
      <trkpt lat="45.46865" lon="6.21821">
        <ele>1512</ele>
        <time>2024-06-05T22:50:40+00:00</time>
      </trkpt>
      <trkpt lat="45.46853" lon="6.21797">
        <ele>1509</ele>
        <time>2024-06-05T22:50:43+00:00</time>
      </trkpt>
      <trkpt lat="45.46878" lon="6.21782">
        <ele>1506</ele>
        <time>2024-06-05T22:50:46+00:00</time>
      </trkpt>
      <trkpt lat="45.46905" lon="6.2179">
        <ele>1501</ele>
        <time>2024-06-05T22:50:49+00:00</time>
      </trkpt>
      <trkpt lat="45.46913" lon="6.21789">
        <ele>1500</ele>
        <time>2024-06-05T22:50:52+00:00</time>
      </trkpt>
      <trkpt lat="45.46921" lon="6.21784">
        <ele>1498</ele>
        <time>2024-06-05T22:50:55+00:00</time>
      </trkpt>
      <trkpt lat="45.46947" lon="6.21796">
        <ele>1496</ele>
        <time>2024-06-05T22:50:58+00:00</time>
      </trkpt>
      <trkpt lat="45.46962" lon="6.21802">
        <ele>1495</ele>
        <time>2024-06-05T22:51:01+00:00</time>
      </trkpt>
      <trkpt lat="45.46981" lon="6.21812">
        <ele>1493</ele>
        <time>2024-06-05T22:51:04+00:00</time>
      </trkpt>
      <trkpt lat="45.47011" lon="6.21825">
        <ele>1489</ele>
        <time>2024-06-05T22:51:07+00:00</time>
      </trkpt>
      <trkpt lat="45.47036" lon="6.21846">
        <ele>1488</ele>
        <time>2024-06-05T22:51:10+00:00</time>
      </trkpt>
      <trkpt lat="45.4705" lon="6.21854">
        <ele>1479</ele>
        <time>2024-06-05T22:51:13+00:00</time>
      </trkpt>
      <trkpt lat="45.47066" lon="6.21862">
        <ele>1478</ele>
        <time>2024-06-05T22:51:16+00:00</time>
      </trkpt>
      <trkpt lat="45.47075" lon="6.21868">
        <ele>1475</ele>
        <time>2024-06-05T22:51:19+00:00</time>
      </trkpt>
      <trkpt lat="45.47087" lon="6.21876">
        <ele>1477</ele>
        <time>2024-06-05T22:51:22+00:00</time>
      </trkpt>
      <trkpt lat="45.47116" lon="6.21894">
        <ele>1472</ele>
        <time>2024-06-05T22:51:25+00:00</time>
      </trkpt>
      <trkpt lat="45.47133" lon="6.21918">
        <ele>1468</ele>
        <time>2024-06-05T22:51:28+00:00</time>
      </trkpt>
      <trkpt lat="45.47142" lon="6.21922">
        <ele>1467</ele>
        <time>2024-06-05T22:51:31+00:00</time>
      </trkpt>
      <trkpt lat="45.47155" lon="6.21927">
        <ele>1467</ele>
        <time>2024-06-05T22:51:34+00:00</time>
      </trkpt>
      <trkpt lat="45.47179" lon="6.21909">
        <ele>1464</ele>
        <time>2024-06-05T22:51:37+00:00</time>
      </trkpt>
      <trkpt lat="45.47194" lon="6.21894">
        <ele>1462</ele>
        <time>2024-06-05T22:51:40+00:00</time>
      </trkpt>
      <trkpt lat="45.47201" lon="6.21864">
        <ele>1458</ele>
        <time>2024-06-05T22:51:43+00:00</time>
      </trkpt>
      <trkpt lat="45.47198" lon="6.21839">
        <ele>1455</ele>
        <time>2024-06-05T22:51:46+00:00</time>
      </trkpt>
      <trkpt lat="45.47194" lon="6.21819">
        <ele>1451</ele>
        <time>2024-06-05T22:51:49+00:00</time>
      </trkpt>
      <trkpt lat="45.47195" lon="6.21802">
        <ele>1449</ele>
        <time>2024-06-05T22:51:52+00:00</time>
      </trkpt>
      <trkpt lat="45.47211" lon="6.21795">
        <ele>1445</ele>
        <time>2024-06-05T22:51:55+00:00</time>
      </trkpt>
      <trkpt lat="45.47239" lon="6.21806">
        <ele>1441</ele>
        <time>2024-06-05T22:51:58+00:00</time>
      </trkpt>
      <trkpt lat="45.47264" lon="6.21814">
        <ele>1434</ele>
        <time>2024-06-05T22:52:01+00:00</time>
      </trkpt>
      <trkpt lat="45.4727" lon="6.21805">
        <ele>1431</ele>
        <time>2024-06-05T22:52:04+00:00</time>
      </trkpt>
      <trkpt lat="45.47271" lon="6.21789">
        <ele>1426</ele>
        <time>2024-06-05T22:52:07+00:00</time>
      </trkpt>
      <trkpt lat="45.47274" lon="6.21779">
        <ele>1423</ele>
        <time>2024-06-05T22:52:10+00:00</time>
      </trkpt>
      <trkpt lat="45.47281" lon="6.21776">
        <ele>1419</ele>
        <time>2024-06-05T22:52:13+00:00</time>
      </trkpt>
      <trkpt lat="45.47298" lon="6.21784">
        <ele>1420</ele>
        <time>2024-06-05T22:52:16+00:00</time>
      </trkpt>
      <trkpt lat="45.47325" lon="6.21796">
        <ele>1410</ele>
        <time>2024-06-05T22:52:19+00:00</time>
      </trkpt>
      <trkpt lat="45.47339" lon="6.21794">
        <ele>1406</ele>
        <time>2024-06-05T22:52:22+00:00</time>
      </trkpt>
      <trkpt lat="45.47348" lon="6.21791">
        <ele>1402</ele>
        <time>2024-06-05T22:52:25+00:00</time>
      </trkpt>
      <trkpt lat="45.47356" lon="6.21798">
        <ele>1398</ele>
        <time>2024-06-05T22:52:28+00:00</time>
      </trkpt>
      <trkpt lat="45.47381" lon="6.21823">
        <ele>1391</ele>
        <time>2024-06-05T22:52:31+00:00</time>
      </trkpt>
      <trkpt lat="45.47393" lon="6.21828">
        <ele>1387</ele>
        <time>2024-06-05T22:52:34+00:00</time>
      </trkpt>
      <trkpt lat="45.47404" lon="6.21832">
        <ele>1382</ele>
        <time>2024-06-05T22:52:37+00:00</time>
      </trkpt>
      <trkpt lat="45.47406" lon="6.21821">
        <ele>1380</ele>
        <time>2024-06-05T22:52:40+00:00</time>
      </trkpt>
      <trkpt lat="45.47402" lon="6.21807">
        <ele>1374</ele>
        <time>2024-06-05T22:52:43+00:00</time>
      </trkpt>
      <trkpt lat="45.47398" lon="6.21794">
        <ele>1380</ele>
        <time>2024-06-05T22:52:46+00:00</time>
      </trkpt>
      <trkpt lat="45.47401" lon="6.21782">
        <ele>1371</ele>
        <time>2024-06-05T22:52:49+00:00</time>
      </trkpt>
      <trkpt lat="45.47404" lon="6.21782">
        <ele>1371</ele>
        <time>2024-06-05T22:52:52+00:00</time>
      </trkpt>
      <trkpt lat="45.47413" lon="6.21792">
        <ele>1369</ele>
        <time>2024-06-05T22:52:55+00:00</time>
      </trkpt>
      <trkpt lat="45.4742" lon="6.21804">
        <ele>1366</ele>
        <time>2024-06-05T22:52:58+00:00</time>
      </trkpt>
      <trkpt lat="45.4743" lon="6.21803">
        <ele>1360</ele>
        <time>2024-06-05T22:53:01+00:00</time>
      </trkpt>
      <trkpt lat="45.47433" lon="6.21796">
        <ele>1358</ele>
        <time>2024-06-05T22:53:04+00:00</time>
      </trkpt>
      <trkpt lat="45.4743" lon="6.21779">
        <ele>1357</ele>
        <time>2024-06-05T22:53:07+00:00</time>
      </trkpt>
      <trkpt lat="45.47437" lon="6.21772">
        <ele>1352</ele>
        <time>2024-06-05T22:53:10+00:00</time>
      </trkpt>
      <trkpt lat="45.4745" lon="6.21773">
        <ele>1340</ele>
        <time>2024-06-05T22:53:13+00:00</time>
      </trkpt>
      <trkpt lat="45.47458" lon="6.21764">
        <ele>1338</ele>
        <time>2024-06-05T22:53:16+00:00</time>
      </trkpt>
      <trkpt lat="45.47463" lon="6.21749">
        <ele>1328</ele>
        <time>2024-06-05T22:53:19+00:00</time>
      </trkpt>
      <trkpt lat="45.47459" lon="6.21725">
        <ele>1328</ele>
        <time>2024-06-05T22:53:22+00:00</time>
      </trkpt>
      <trkpt lat="45.47462" lon="6.21708">
        <ele>1318</ele>
        <time>2024-06-05T22:53:25+00:00</time>
      </trkpt>
      <trkpt lat="45.47471" lon="6.21704">
        <ele>1313</ele>
        <time>2024-06-05T22:53:28+00:00</time>
      </trkpt>
      <trkpt lat="45.47488" lon="6.21718">
        <ele>1312</ele>
        <time>2024-06-05T22:53:31+00:00</time>
      </trkpt>
      <trkpt lat="45.47509" lon="6.21736">
        <ele>1305</ele>
        <time>2024-06-05T22:53:34+00:00</time>
      </trkpt>
      <trkpt lat="45.47524" lon="6.21753">
        <ele>1300</ele>
        <time>2024-06-05T22:53:37+00:00</time>
      </trkpt>
      <trkpt lat="45.4754" lon="6.21778">
        <ele>1291</ele>
        <time>2024-06-05T22:53:40+00:00</time>
      </trkpt>
      <trkpt lat="45.47558" lon="6.21805">
        <ele>1290</ele>
        <time>2024-06-05T22:53:43+00:00</time>
      </trkpt>
      <trkpt lat="45.4758" lon="6.21824">
        <ele>1278</ele>
        <time>2024-06-05T22:53:46+00:00</time>
      </trkpt>
      <trkpt lat="45.47598" lon="6.21837">
        <ele>1273</ele>
        <time>2024-06-05T22:53:49+00:00</time>
      </trkpt>
      <trkpt lat="45.47607" lon="6.21841">
        <ele>1269</ele>
        <time>2024-06-05T22:53:52+00:00</time>
      </trkpt>
      <trkpt lat="45.47619" lon="6.21836">
        <ele>1265</ele>
        <time>2024-06-05T22:53:55+00:00</time>
      </trkpt>
      <trkpt lat="45.47626" lon="6.21825">
        <ele>1257</ele>
        <time>2024-06-05T22:53:58+00:00</time>
      </trkpt>
      <trkpt lat="45.47629" lon="6.21815">
        <ele>1256</ele>
        <time>2024-06-05T22:54:01+00:00</time>
      </trkpt>
      <trkpt lat="45.47632" lon="6.21803">
        <ele>1248</ele>
        <time>2024-06-05T22:54:04+00:00</time>
      </trkpt>
      <trkpt lat="45.47638" lon="6.21779">
        <ele>1244</ele>
        <time>2024-06-05T22:54:07+00:00</time>
      </trkpt>
      <trkpt lat="45.47641" lon="6.21752">
        <ele>1236</ele>
        <time>2024-06-05T22:54:10+00:00</time>
      </trkpt>
      <trkpt lat="45.47644" lon="6.21718">
        <ele>1227</ele>
        <time>2024-06-05T22:54:13+00:00</time>
      </trkpt>
      <trkpt lat="45.47643" lon="6.21695">
        <ele>1222</ele>
        <time>2024-06-05T22:54:16+00:00</time>
      </trkpt>
      <trkpt lat="45.47643" lon="6.21691">
        <ele>1222</ele>
        <time>2024-06-05T22:54:19+00:00</time>
      </trkpt>
      <trkpt lat="45.47647" lon="6.21688">
        <ele>1219</ele>
        <time>2024-06-05T22:54:22+00:00</time>
      </trkpt>
      <trkpt lat="45.47652" lon="6.21688">
        <ele>1212</ele>
        <time>2024-06-05T22:54:25+00:00</time>
      </trkpt>
      <trkpt lat="45.47662" lon="6.21695">
        <ele>1210</ele>
        <time>2024-06-05T22:54:28+00:00</time>
      </trkpt>
      <trkpt lat="45.47684" lon="6.21716">
        <ele>1202</ele>
        <time>2024-06-05T22:54:31+00:00</time>
      </trkpt>
      <trkpt lat="45.4771" lon="6.21743">
        <ele>1200</ele>
        <time>2024-06-05T22:54:34+00:00</time>
      </trkpt>
      <trkpt lat="45.4772" lon="6.21756">
        <ele>1197</ele>
        <time>2024-06-05T22:54:37+00:00</time>
      </trkpt>
      <trkpt lat="45.47726" lon="6.21778">
        <ele>1195</ele>
        <time>2024-06-05T22:54:40+00:00</time>
      </trkpt>
      <trkpt lat="45.47726" lon="6.21778">
        <ele>1195</ele>
        <time>2024-06-05T22:54:43+00:00</time>
      </trkpt>
      <trkpt lat="45.4773" lon="6.21782">
        <ele>1186</ele>
        <time>2024-06-05T22:54:46+00:00</time>
      </trkpt>
      <trkpt lat="45.47739" lon="6.21781">
        <ele>1186</ele>
        <time>2024-06-05T22:54:49+00:00</time>
      </trkpt>
      <trkpt lat="45.47751" lon="6.21776">
        <ele>1175</ele>
        <time>2024-06-05T22:54:52+00:00</time>
      </trkpt>
      <trkpt lat="45.47763" lon="6.21755">
        <ele>1174</ele>
        <time>2024-06-05T22:54:55+00:00</time>
      </trkpt>
      <trkpt lat="45.47766" lon="6.21728">
        <ele>1165</ele>
        <time>2024-06-05T22:54:58+00:00</time>
      </trkpt>
      <trkpt lat="45.47751" lon="6.21674">
        <ele>1156</ele>
        <time>2024-06-05T22:55:01+00:00</time>
      </trkpt>
      <trkpt lat="45.47756" lon="6.21636">
        <ele>1146</ele>
        <time>2024-06-05T22:55:04+00:00</time>
      </trkpt>
      <trkpt lat="45.47771" lon="6.2166">
        <ele>1142</ele>
        <time>2024-06-05T22:55:07+00:00</time>
      </trkpt>
      <trkpt lat="45.47779" lon="6.21673">
        <ele>1143</ele>
        <time>2024-06-05T22:55:10+00:00</time>
      </trkpt>
      <trkpt lat="45.47787" lon="6.21683">
        <ele>1140</ele>
        <time>2024-06-05T22:55:13+00:00</time>
      </trkpt>
      <trkpt lat="45.47793" lon="6.21692">
        <ele>1140</ele>
        <time>2024-06-05T22:55:16+00:00</time>
      </trkpt>
      <trkpt lat="45.47799" lon="6.21703">
        <ele>1142</ele>
        <time>2024-06-05T22:55:19+00:00</time>
      </trkpt>
      <trkpt lat="45.47804" lon="6.21711">
        <ele>1137</ele>
        <time>2024-06-05T22:55:22+00:00</time>
      </trkpt>
      <trkpt lat="45.47807" lon="6.21717">
        <ele>1137</ele>
        <time>2024-06-05T22:55:25+00:00</time>
      </trkpt>
      <trkpt lat="45.47811" lon="6.21723">
        <ele>1134</ele>
        <time>2024-06-05T22:55:28+00:00</time>
      </trkpt>
      <trkpt lat="45.47815" lon="6.21725">
        <ele>1134</ele>
        <time>2024-06-05T22:55:31+00:00</time>
      </trkpt>
      <trkpt lat="45.47817" lon="6.21722">
        <ele>1134</ele>
        <time>2024-06-05T22:55:34+00:00</time>
      </trkpt>
      <trkpt lat="45.4782" lon="6.21717">
        <ele>1131</ele>
        <time>2024-06-05T22:55:37+00:00</time>
      </trkpt>
      <trkpt lat="45.47822" lon="6.21711">
        <ele>1131</ele>
        <time>2024-06-05T22:55:40+00:00</time>
      </trkpt>
      <trkpt lat="45.47824" lon="6.21703">
        <ele>1130</ele>
        <time>2024-06-05T22:55:43+00:00</time>
      </trkpt>
      <trkpt lat="45.47828" lon="6.21694">
        <ele>1128</ele>
        <time>2024-06-05T22:55:46+00:00</time>
      </trkpt>
      <trkpt lat="45.4783" lon="6.21682">
        <ele>1120</ele>
        <time>2024-06-05T22:55:49+00:00</time>
      </trkpt>
      <trkpt lat="45.47831" lon="6.21671">
        <ele>1118</ele>
        <time>2024-06-05T22:55:52+00:00</time>
      </trkpt>
      <trkpt lat="45.47831" lon="6.21667">
        <ele>1117</ele>
        <time>2024-06-05T22:55:55+00:00</time>
      </trkpt>
      <trkpt lat="45.47831" lon="6.21653">
        <ele>1115</ele>
        <time>2024-06-05T22:55:58+00:00</time>
      </trkpt>
      <trkpt lat="45.47825" lon="6.21596">
        <ele>1106</ele>
        <time>2024-06-05T22:56:01+00:00</time>
      </trkpt>
      <trkpt lat="45.47816" lon="6.21554">
        <ele>1100</ele>
        <time>2024-06-05T22:56:04+00:00</time>
      </trkpt>
      <trkpt lat="45.47805" lon="6.21512">
        <ele>1092</ele>
        <time>2024-06-05T22:56:07+00:00</time>
      </trkpt>
      <trkpt lat="45.47796" lon="6.2148">
        <ele>1087</ele>
        <time>2024-06-05T22:56:10+00:00</time>
      </trkpt>
      <trkpt lat="45.47793" lon="6.21467">
        <ele>1084</ele>
        <time>2024-06-05T22:56:13+00:00</time>
      </trkpt>
      <trkpt lat="45.47791" lon="6.21458">
        <ele>1082</ele>
        <time>2024-06-05T22:56:16+00:00</time>
      </trkpt>
      <trkpt lat="45.47787" lon="6.21438">
        <ele>1082</ele>
        <time>2024-06-05T22:56:19+00:00</time>
      </trkpt>
      <trkpt lat="45.47785" lon="6.21422">
        <ele>1079</ele>
        <time>2024-06-05T22:56:22+00:00</time>
      </trkpt>
      <trkpt lat="45.47782" lon="6.21402">
        <ele>1074</ele>
        <time>2024-06-05T22:56:25+00:00</time>
      </trkpt>
      <trkpt lat="45.47778" lon="6.21383">
        <ele>1073</ele>
        <time>2024-06-05T22:56:28+00:00</time>
      </trkpt>
      <trkpt lat="45.47774" lon="6.21366">
        <ele>1066</ele>
        <time>2024-06-05T22:56:31+00:00</time>
      </trkpt>
      <trkpt lat="45.47772" lon="6.21346">
        <ele>1061</ele>
        <time>2024-06-05T22:56:34+00:00</time>
      </trkpt>
      <trkpt lat="45.47769" lon="6.2133">
        <ele>1062</ele>
        <time>2024-06-05T22:56:37+00:00</time>
      </trkpt>
      <trkpt lat="45.47767" lon="6.21314">
        <ele>1060</ele>
        <time>2024-06-05T22:56:40+00:00</time>
      </trkpt>
      <trkpt lat="45.47765" lon="6.21301">
        <ele>1058</ele>
        <time>2024-06-05T22:56:43+00:00</time>
      </trkpt>
      <trkpt lat="45.47764" lon="6.21288">
        <ele>1055</ele>
        <time>2024-06-05T22:56:46+00:00</time>
      </trkpt>
      <trkpt lat="45.47764" lon="6.21277">
        <ele>1054</ele>
        <time>2024-06-05T22:56:49+00:00</time>
      </trkpt>
      <trkpt lat="45.47764" lon="6.21266">
        <ele>1053</ele>
        <time>2024-06-05T22:56:52+00:00</time>
      </trkpt>
      <trkpt lat="45.47763" lon="6.21253">
        <ele>1051</ele>
        <time>2024-06-05T22:56:55+00:00</time>
      </trkpt>
      <trkpt lat="45.47762" lon="6.21243">
        <ele>1049</ele>
        <time>2024-06-05T22:56:58+00:00</time>
      </trkpt>
      <trkpt lat="45.4776" lon="6.21233">
        <ele>1047</ele>
        <time>2024-06-05T22:57:01+00:00</time>
      </trkpt>
      <trkpt lat="45.47756" lon="6.21218">
        <ele>1045</ele>
        <time>2024-06-05T22:57:04+00:00</time>
      </trkpt>
      <trkpt lat="45.47753" lon="6.21206">
        <ele>1043</ele>
        <time>2024-06-05T22:57:07+00:00</time>
      </trkpt>
      <trkpt lat="45.47751" lon="6.21193">
        <ele>1041</ele>
        <time>2024-06-05T22:57:10+00:00</time>
      </trkpt>
      <trkpt lat="45.4775" lon="6.21182">
        <ele>1040</ele>
        <time>2024-06-05T22:57:13+00:00</time>
      </trkpt>
      <trkpt lat="45.4775" lon="6.21171">
        <ele>1042</ele>
        <time>2024-06-05T22:57:16+00:00</time>
      </trkpt>
      <trkpt lat="45.4775" lon="6.21159">
        <ele>1041</ele>
        <time>2024-06-05T22:57:19+00:00</time>
      </trkpt>
      <trkpt lat="45.4775" lon="6.21146">
        <ele>1039</ele>
        <time>2024-06-05T22:57:22+00:00</time>
      </trkpt>
      <trkpt lat="45.47749" lon="6.21131">
        <ele>1038</ele>
        <time>2024-06-05T22:57:25+00:00</time>
      </trkpt>
      <trkpt lat="45.47748" lon="6.21095">
        <ele>1029</ele>
        <time>2024-06-05T22:57:28+00:00</time>
      </trkpt>
      <trkpt lat="45.47747" lon="6.21043">
        <ele>1023</ele>
        <time>2024-06-05T22:57:31+00:00</time>
      </trkpt>
      <trkpt lat="45.47743" lon="6.21009">
        <ele>1015</ele>
        <time>2024-06-05T22:57:34+00:00</time>
      </trkpt>
      <trkpt lat="45.47738" lon="6.20974">
        <ele>1012</ele>
        <time>2024-06-05T22:57:37+00:00</time>
      </trkpt>
      <trkpt lat="45.47729" lon="6.20939">
        <ele>1007</ele>
        <time>2024-06-05T22:57:40+00:00</time>
      </trkpt>
      <trkpt lat="45.47718" lon="6.20893">
        <ele>998</ele>
        <time>2024-06-05T22:57:43+00:00</time>
      </trkpt>
      <trkpt lat="45.47712" lon="6.20856">
        <ele>995</ele>
        <time>2024-06-05T22:57:46+00:00</time>
      </trkpt>
      <trkpt lat="45.47705" lon="6.20809">
        <ele>983</ele>
        <time>2024-06-05T22:57:49+00:00</time>
      </trkpt>
      <trkpt lat="45.47719" lon="6.20799">
        <ele>979</ele>
        <time>2024-06-05T22:57:52+00:00</time>
      </trkpt>
      <trkpt lat="45.47741" lon="6.20798">
        <ele>974</ele>
        <time>2024-06-05T22:57:55+00:00</time>
      </trkpt>
      <trkpt lat="45.47746" lon="6.20799">
        <ele>974</ele>
        <time>2024-06-05T22:57:58+00:00</time>
      </trkpt>
      <trkpt lat="45.4775" lon="6.20801">
        <ele>974</ele>
        <time>2024-06-05T22:58:01+00:00</time>
      </trkpt>
      <trkpt lat="45.47762" lon="6.20808">
        <ele>970</ele>
        <time>2024-06-05T22:58:04+00:00</time>
      </trkpt>
      <trkpt lat="45.47785" lon="6.20822">
        <ele>967</ele>
        <time>2024-06-05T22:58:07+00:00</time>
      </trkpt>
      <trkpt lat="45.47814" lon="6.2084">
        <ele>958</ele>
        <time>2024-06-05T22:58:10+00:00</time>
      </trkpt>
      <trkpt lat="45.47836" lon="6.2086">
        <ele>953</ele>
        <time>2024-06-05T22:58:13+00:00</time>
      </trkpt>
      <trkpt lat="45.47862" lon="6.20892">
        <ele>943</ele>
        <time>2024-06-05T22:58:16+00:00</time>
      </trkpt>
      <trkpt lat="45.47895" lon="6.2091">
        <ele>934</ele>
        <time>2024-06-05T22:58:19+00:00</time>
      </trkpt>
      <trkpt lat="45.47919" lon="6.2092">
        <ele>930</ele>
        <time>2024-06-05T22:58:22+00:00</time>
      </trkpt>
      <trkpt lat="45.47931" lon="6.20916">
        <ele>921</ele>
        <time>2024-06-05T22:58:25+00:00</time>
      </trkpt>
      <trkpt lat="45.47946" lon="6.20933">
        <ele>920</ele>
        <time>2024-06-05T22:58:28+00:00</time>
      </trkpt>
      <trkpt lat="45.47964" lon="6.20951">
        <ele>910</ele>
        <time>2024-06-05T22:58:31+00:00</time>
      </trkpt>
      <trkpt lat="45.47987" lon="6.20975">
        <ele>905</ele>
        <time>2024-06-05T22:58:34+00:00</time>
      </trkpt>
      <trkpt lat="45.48002" lon="6.2098">
        <ele>895</ele>
        <time>2024-06-05T22:58:37+00:00</time>
      </trkpt>
      <trkpt lat="45.48006" lon="6.20966">
        <ele>894</ele>
        <time>2024-06-05T22:58:40+00:00</time>
      </trkpt>
      <trkpt lat="45.48004" lon="6.2095">
        <ele>892</ele>
        <time>2024-06-05T22:58:43+00:00</time>
      </trkpt>
      <trkpt lat="45.48003" lon="6.2093">
        <ele>888</ele>
        <time>2024-06-05T22:58:46+00:00</time>
      </trkpt>
      <trkpt lat="45.48016" lon="6.20902">
        <ele>880</ele>
        <time>2024-06-05T22:58:49+00:00</time>
      </trkpt>
      <trkpt lat="45.48018" lon="6.20899">
        <ele>878</ele>
        <time>2024-06-05T22:58:52+00:00</time>
      </trkpt>
      <trkpt lat="45.4802" lon="6.20899">
        <ele>877</ele>
        <time>2024-06-05T22:58:55+00:00</time>
      </trkpt>
      <trkpt lat="45.48023" lon="6.20901">
        <ele>878</ele>
        <time>2024-06-05T22:58:58+00:00</time>
      </trkpt>
      <trkpt lat="45.48028" lon="6.20903">
        <ele>878</ele>
        <time>2024-06-05T22:59:01+00:00</time>
      </trkpt>
      <trkpt lat="45.48032" lon="6.20905">
        <ele>876</ele>
        <time>2024-06-05T22:59:04+00:00</time>
      </trkpt>
      <trkpt lat="45.48036" lon="6.20908">
        <ele>876</ele>
        <time>2024-06-05T22:59:07+00:00</time>
      </trkpt>
      <trkpt lat="45.48045" lon="6.20915">
        <ele>875</ele>
        <time>2024-06-05T22:59:10+00:00</time>
      </trkpt>
      <trkpt lat="45.48051" lon="6.20922">
        <ele>874</ele>
        <time>2024-06-05T22:59:13+00:00</time>
      </trkpt>
      <trkpt lat="45.48058" lon="6.20928">
        <ele>874</ele>
        <time>2024-06-05T22:59:16+00:00</time>
      </trkpt>
      <trkpt lat="45.48063" lon="6.20934">
        <ele>873</ele>
        <time>2024-06-05T22:59:19+00:00</time>
      </trkpt>
      <trkpt lat="45.48068" lon="6.20938">
        <ele>873</ele>
        <time>2024-06-05T22:59:22+00:00</time>
      </trkpt>
      <trkpt lat="45.48073" lon="6.20943">
        <ele>872</ele>
        <time>2024-06-05T22:59:25+00:00</time>
      </trkpt>
      <trkpt lat="45.48077" lon="6.20948">
        <ele>872</ele>
        <time>2024-06-05T22:59:28+00:00</time>
      </trkpt>
      <trkpt lat="45.48082" lon="6.20953">
        <ele>871</ele>
        <time>2024-06-05T22:59:31+00:00</time>
      </trkpt>
      <trkpt lat="45.48087" lon="6.20958">
        <ele>871</ele>
        <time>2024-06-05T22:59:34+00:00</time>
      </trkpt>
      <trkpt lat="45.48091" lon="6.20961">
        <ele>870</ele>
        <time>2024-06-05T22:59:37+00:00</time>
      </trkpt>
      <trkpt lat="45.48095" lon="6.20965">
        <ele>870</ele>
        <time>2024-06-05T22:59:40+00:00</time>
      </trkpt>
      <trkpt lat="45.48098" lon="6.2097">
        <ele>870</ele>
        <time>2024-06-05T22:59:43+00:00</time>
      </trkpt>
      <trkpt lat="45.48101" lon="6.20975">
        <ele>868</ele>
        <time>2024-06-05T22:59:46+00:00</time>
      </trkpt>
      <trkpt lat="45.48105" lon="6.2098">
        <ele>868</ele>
        <time>2024-06-05T22:59:49+00:00</time>
      </trkpt>
      <trkpt lat="45.48108" lon="6.20986">
        <ele>868</ele>
        <time>2024-06-05T22:59:52+00:00</time>
      </trkpt>
      <trkpt lat="45.48112" lon="6.20992">
        <ele>867</ele>
        <time>2024-06-05T22:59:55+00:00</time>
      </trkpt>
      <trkpt lat="45.48116" lon="6.20995">
        <ele>867</ele>
        <time>2024-06-05T22:59:58+00:00</time>
      </trkpt>
      <trkpt lat="45.48121" lon="6.20999">
        <ele>865</ele>
        <time>2024-06-05T23:00:01+00:00</time>
      </trkpt>
      <trkpt lat="45.48126" lon="6.21001">
        <ele>866</ele>
        <time>2024-06-05T23:00:04+00:00</time>
      </trkpt>
      <trkpt lat="45.48132" lon="6.21003">
        <ele>864</ele>
        <time>2024-06-05T23:00:07+00:00</time>
      </trkpt>
      <trkpt lat="45.48138" lon="6.21003">
        <ele>864</ele>
        <time>2024-06-05T23:00:10+00:00</time>
      </trkpt>
      <trkpt lat="45.48142" lon="6.21003">
        <ele>863</ele>
        <time>2024-06-05T23:00:13+00:00</time>
      </trkpt>
      <trkpt lat="45.48148" lon="6.21">
        <ele>862</ele>
        <time>2024-06-05T23:00:16+00:00</time>
      </trkpt>
      <trkpt lat="45.48153" lon="6.20996">
        <ele>860</ele>
        <time>2024-06-05T23:00:19+00:00</time>
      </trkpt>
      <trkpt lat="45.4816" lon="6.20992">
        <ele>860</ele>
        <time>2024-06-05T23:00:22+00:00</time>
      </trkpt>
      <trkpt lat="45.48164" lon="6.20988">
        <ele>858</ele>
        <time>2024-06-05T23:00:25+00:00</time>
      </trkpt>
      <trkpt lat="45.4817" lon="6.20982">
        <ele>859</ele>
        <time>2024-06-05T23:00:28+00:00</time>
      </trkpt>
      <trkpt lat="45.48175" lon="6.20977">
        <ele>857</ele>
        <time>2024-06-05T23:00:31+00:00</time>
      </trkpt>
      <trkpt lat="45.4818" lon="6.20972">
        <ele>858</ele>
        <time>2024-06-05T23:00:34+00:00</time>
      </trkpt>
      <trkpt lat="45.48186" lon="6.20969">
        <ele>856</ele>
        <time>2024-06-05T23:00:37+00:00</time>
      </trkpt>
      <trkpt lat="45.48191" lon="6.20967">
        <ele>856</ele>
        <time>2024-06-05T23:00:40+00:00</time>
      </trkpt>
      <trkpt lat="45.48196" lon="6.20966">
        <ele>856</ele>
        <time>2024-06-05T23:00:43+00:00</time>
      </trkpt>
      <trkpt lat="45.48202" lon="6.20966">
        <ele>856</ele>
        <time>2024-06-05T23:00:46+00:00</time>
      </trkpt>
      <trkpt lat="45.48206" lon="6.20966">
        <ele>856</ele>
        <time>2024-06-05T23:00:49+00:00</time>
      </trkpt>
      <trkpt lat="45.48211" lon="6.20966">
        <ele>855</ele>
        <time>2024-06-05T23:00:52+00:00</time>
      </trkpt>
      <trkpt lat="45.48217" lon="6.20969">
        <ele>855</ele>
        <time>2024-06-05T23:00:55+00:00</time>
      </trkpt>
      <trkpt lat="45.48223" lon="6.20972">
        <ele>854</ele>
        <time>2024-06-05T23:00:58+00:00</time>
      </trkpt>
      <trkpt lat="45.48228" lon="6.20975">
        <ele>854</ele>
        <time>2024-06-05T23:01:01+00:00</time>
      </trkpt>
      <trkpt lat="45.48234" lon="6.2098">
        <ele>853</ele>
        <time>2024-06-05T23:01:04+00:00</time>
      </trkpt>
      <trkpt lat="45.4824" lon="6.20985">
        <ele>852</ele>
        <time>2024-06-05T23:01:07+00:00</time>
      </trkpt>
      <trkpt lat="45.48246" lon="6.20989">
        <ele>852</ele>
        <time>2024-06-05T23:01:10+00:00</time>
      </trkpt>
      <trkpt lat="45.48252" lon="6.20992">
        <ele>850</ele>
        <time>2024-06-05T23:01:13+00:00</time>
      </trkpt>
      <trkpt lat="45.48257" lon="6.20995">
        <ele>850</ele>
        <time>2024-06-05T23:01:16+00:00</time>
      </trkpt>
      <trkpt lat="45.48263" lon="6.20997">
        <ele>849</ele>
        <time>2024-06-05T23:01:19+00:00</time>
      </trkpt>
      <trkpt lat="45.48268" lon="6.20998">
        <ele>849</ele>
        <time>2024-06-05T23:01:22+00:00</time>
      </trkpt>
      <trkpt lat="45.48274" lon="6.20998">
        <ele>847</ele>
        <time>2024-06-05T23:01:25+00:00</time>
      </trkpt>
      <trkpt lat="45.48296" lon="6.20997">
        <ele>845</ele>
        <time>2024-06-05T23:01:28+00:00</time>
      </trkpt>
      <trkpt lat="45.48304" lon="6.20997">
        <ele>845</ele>
        <time>2024-06-05T23:01:31+00:00</time>
      </trkpt>
      <trkpt lat="45.4831" lon="6.20997">
        <ele>843</ele>
        <time>2024-06-05T23:01:34+00:00</time>
      </trkpt>
      <trkpt lat="45.48318" lon="6.20997">
        <ele>843</ele>
        <time>2024-06-05T23:01:37+00:00</time>
      </trkpt>
      <trkpt lat="45.48325" lon="6.20998">
        <ele>842</ele>
        <time>2024-06-05T23:01:40+00:00</time>
      </trkpt>
      <trkpt lat="45.4833" lon="6.20999">
        <ele>841</ele>
        <time>2024-06-05T23:01:43+00:00</time>
      </trkpt>
      <trkpt lat="45.48336" lon="6.20997">
        <ele>841</ele>
        <time>2024-06-05T23:01:46+00:00</time>
      </trkpt>
      <trkpt lat="45.48336" lon="6.20997">
        <ele>841</ele>
        <time>2024-06-05T23:01:49+00:00</time>
      </trkpt>
      <trkpt lat="45.48336" lon="6.20997">
        <ele>841</ele>
        <time>2024-06-05T23:01:52+00:00</time>
      </trkpt>
      <trkpt lat="45.48341" lon="6.20993">
        <ele>840</ele>
        <time>2024-06-05T23:01:55+00:00</time>
      </trkpt>
      <trkpt lat="45.48346" lon="6.20985">
        <ele>839</ele>
        <time>2024-06-05T23:01:58+00:00</time>
      </trkpt>
      <trkpt lat="45.48352" lon="6.20978">
        <ele>838</ele>
        <time>2024-06-05T23:02:01+00:00</time>
      </trkpt>
      <trkpt lat="45.48359" lon="6.20969">
        <ele>837</ele>
        <time>2024-06-05T23:02:04+00:00</time>
      </trkpt>
      <trkpt lat="45.48366" lon="6.20961">
        <ele>836</ele>
        <time>2024-06-05T23:02:07+00:00</time>
      </trkpt>
      <trkpt lat="45.48374" lon="6.20953">
        <ele>834</ele>
        <time>2024-06-05T23:02:10+00:00</time>
      </trkpt>
      <trkpt lat="45.48382" lon="6.20946">
        <ele>832</ele>
        <time>2024-06-05T23:02:13+00:00</time>
      </trkpt>
      <trkpt lat="45.48389" lon="6.20939">
        <ele>832</ele>
        <time>2024-06-05T23:02:16+00:00</time>
      </trkpt>
      <trkpt lat="45.48396" lon="6.20931">
        <ele>831</ele>
        <time>2024-06-05T23:02:19+00:00</time>
      </trkpt>
      <trkpt lat="45.48403" lon="6.20923">
        <ele>830</ele>
        <time>2024-06-05T23:02:22+00:00</time>
      </trkpt>
      <trkpt lat="45.48411" lon="6.20914">
        <ele>829</ele>
        <time>2024-06-05T23:02:25+00:00</time>
      </trkpt>
      <trkpt lat="45.48419" lon="6.20905">
        <ele>828</ele>
        <time>2024-06-05T23:02:28+00:00</time>
      </trkpt>
      <trkpt lat="45.48425" lon="6.20897">
        <ele>827</ele>
        <time>2024-06-05T23:02:31+00:00</time>
      </trkpt>
      <trkpt lat="45.48433" lon="6.20887">
        <ele>825</ele>
        <time>2024-06-05T23:02:34+00:00</time>
      </trkpt>
      <trkpt lat="45.4844" lon="6.20877">
        <ele>825</ele>
        <time>2024-06-05T23:02:37+00:00</time>
      </trkpt>
      <trkpt lat="45.48446" lon="6.20867">
        <ele>823</ele>
        <time>2024-06-05T23:02:40+00:00</time>
      </trkpt>
      <trkpt lat="45.48453" lon="6.20856">
        <ele>823</ele>
        <time>2024-06-05T23:02:43+00:00</time>
      </trkpt>
      <trkpt lat="45.48457" lon="6.20848">
        <ele>822</ele>
        <time>2024-06-05T23:02:46+00:00</time>
      </trkpt>
      <trkpt lat="45.48462" lon="6.20839">
        <ele>821</ele>
        <time>2024-06-05T23:02:49+00:00</time>
      </trkpt>
      <trkpt lat="45.48466" lon="6.20828">
        <ele>821</ele>
        <time>2024-06-05T23:02:52+00:00</time>
      </trkpt>
      <trkpt lat="45.48467" lon="6.20828">
        <ele>821</ele>
        <time>2024-06-05T23:02:55+00:00</time>
      </trkpt>
      <trkpt lat="45.48474" lon="6.2083">
        <ele>821</ele>
        <time>2024-06-05T23:02:58+00:00</time>
      </trkpt>
      <trkpt lat="45.4848" lon="6.20831">
        <ele>820</ele>
        <time>2024-06-05T23:03:01+00:00</time>
      </trkpt>
      <trkpt lat="45.48487" lon="6.2083">
        <ele>820</ele>
        <time>2024-06-05T23:03:04+00:00</time>
      </trkpt>
      <trkpt lat="45.48493" lon="6.20829">
        <ele>820</ele>
        <time>2024-06-05T23:03:07+00:00</time>
      </trkpt>
      <trkpt lat="45.48498" lon="6.20826">
        <ele>820</ele>
        <time>2024-06-05T23:03:10+00:00</time>
      </trkpt>
      <trkpt lat="45.485" lon="6.20825">
        <ele>820</ele>
        <time>2024-06-05T23:03:13+00:00</time>
      </trkpt>
      <trkpt lat="45.48507" lon="6.2082">
        <ele>817</ele>
        <time>2024-06-05T23:03:16+00:00</time>
      </trkpt>
      <trkpt lat="45.48522" lon="6.2081">
        <ele>820</ele>
        <time>2024-06-05T23:03:19+00:00</time>
      </trkpt>
      <trkpt lat="45.48535" lon="6.20802">
        <ele>820</ele>
        <time>2024-06-05T23:03:22+00:00</time>
      </trkpt>
      <trkpt lat="45.48541" lon="6.20797">
        <ele>820</ele>
        <time>2024-06-05T23:03:25+00:00</time>
      </trkpt>
      <trkpt lat="45.48546" lon="6.20793">
        <ele>820</ele>
        <time>2024-06-05T23:03:28+00:00</time>
      </trkpt>
      <trkpt lat="45.48551" lon="6.20789">
        <ele>819</ele>
        <time>2024-06-05T23:03:31+00:00</time>
      </trkpt>
      <trkpt lat="45.48552" lon="6.20788">
        <ele>819</ele>
        <time>2024-06-05T23:03:34+00:00</time>
      </trkpt>
      <trkpt lat="45.48558" lon="6.20785">
        <ele>819</ele>
        <time>2024-06-05T23:03:37+00:00</time>
      </trkpt>
      <trkpt lat="45.48564" lon="6.20779">
        <ele>819</ele>
        <time>2024-06-05T23:03:40+00:00</time>
      </trkpt>
      <trkpt lat="45.48571" lon="6.20773">
        <ele>819</ele>
        <time>2024-06-05T23:03:43+00:00</time>
      </trkpt>
      <trkpt lat="45.48583" lon="6.2073">
        <ele>819</ele>
        <time>2024-06-05T23:03:46+00:00</time>
      </trkpt>
      <trkpt lat="45.48584" lon="6.20718">
        <ele>819</ele>
        <time>2024-06-05T23:03:49+00:00</time>
      </trkpt>
      <trkpt lat="45.48582" lon="6.20702">
        <ele>819</ele>
        <time>2024-06-05T23:03:52+00:00</time>
      </trkpt>
      <trkpt lat="45.4858" lon="6.20684">
        <ele>819</ele>
        <time>2024-06-05T23:03:55+00:00</time>
      </trkpt>
      <trkpt lat="45.48586" lon="6.20673">
        <ele>819</ele>
        <time>2024-06-05T23:03:58+00:00</time>
      </trkpt>
      <trkpt lat="45.48581" lon="6.20606">
        <ele>819</ele>
        <time>2024-06-05T23:04:01+00:00</time>
      </trkpt>
      <trkpt lat="45.48579" lon="6.206">
        <ele>822</ele>
        <time>2024-06-05T23:04:04+00:00</time>
      </trkpt>
      <trkpt lat="45.48581" lon="6.20607">
        <ele>822</ele>
        <time>2024-06-05T23:04:07+00:00</time>
      </trkpt>
      <trkpt lat="45.48583" lon="6.20637">
        <ele>819</ele>
        <time>2024-06-05T23:04:10+00:00</time>
      </trkpt>
      <trkpt lat="45.48586" lon="6.20673">
        <ele>819</ele>
        <time>2024-06-05T23:04:13+00:00</time>
      </trkpt>
      <trkpt lat="45.4858" lon="6.20684">
        <ele>819</ele>
        <time>2024-06-05T23:04:16+00:00</time>
      </trkpt>
      <trkpt lat="45.48584" lon="6.20717">
        <ele>819</ele>
        <time>2024-06-05T23:04:19+00:00</time>
      </trkpt>
      <trkpt lat="45.48583" lon="6.2073">
        <ele>819</ele>
        <time>2024-06-05T23:04:22+00:00</time>
      </trkpt>
      <trkpt lat="45.48571" lon="6.20774">
        <ele>819</ele>
        <time>2024-06-05T23:04:25+00:00</time>
      </trkpt>
      <trkpt lat="45.48567" lon="6.20786">
        <ele>819</ele>
        <time>2024-06-05T23:04:28+00:00</time>
      </trkpt>
      <trkpt lat="45.48567" lon="6.20799">
        <ele>819</ele>
        <time>2024-06-05T23:04:31+00:00</time>
      </trkpt>
      <trkpt lat="45.48561" lon="6.20814">
        <ele>818</ele>
        <time>2024-06-05T23:04:34+00:00</time>
      </trkpt>
      <trkpt lat="45.48557" lon="6.20823">
        <ele>818</ele>
        <time>2024-06-05T23:04:37+00:00</time>
      </trkpt>
      <trkpt lat="45.48552" lon="6.20835">
        <ele>817</ele>
        <time>2024-06-05T23:04:40+00:00</time>
      </trkpt>
      <trkpt lat="45.48551" lon="6.2084">
        <ele>817</ele>
        <time>2024-06-05T23:04:43+00:00</time>
      </trkpt>
      <trkpt lat="45.48556" lon="6.2085">
        <ele>817</ele>
        <time>2024-06-05T23:04:46+00:00</time>
      </trkpt>
      <trkpt lat="45.48566" lon="6.20865">
        <ele>817</ele>
        <time>2024-06-05T23:04:49+00:00</time>
      </trkpt>
      <trkpt lat="45.48573" lon="6.20877">
        <ele>817</ele>
        <time>2024-06-05T23:04:52+00:00</time>
      </trkpt>
      <trkpt lat="45.48582" lon="6.20886">
        <ele>818</ele>
        <time>2024-06-05T23:04:55+00:00</time>
      </trkpt>
      <trkpt lat="45.48588" lon="6.20892">
        <ele>818</ele>
        <time>2024-06-05T23:04:58+00:00</time>
      </trkpt>
      <trkpt lat="45.48591" lon="6.20897">
        <ele>818</ele>
        <time>2024-06-05T23:05:01+00:00</time>
      </trkpt>
      <trkpt lat="45.48595" lon="6.20902">
        <ele>818</ele>
        <time>2024-06-05T23:05:04+00:00</time>
      </trkpt>
      <trkpt lat="45.48595" lon="6.20909">
        <ele>818</ele>
        <time>2024-06-05T23:05:07+00:00</time>
      </trkpt>
      <trkpt lat="45.4859" lon="6.20915">
        <ele>817</ele>
        <time>2024-06-05T23:05:10+00:00</time>
      </trkpt>
      <trkpt lat="45.48585" lon="6.20922">
        <ele>819</ele>
        <time>2024-06-05T23:05:13+00:00</time>
      </trkpt>
      <trkpt lat="45.4858" lon="6.20934">
        <ele>818</ele>
        <time>2024-06-05T23:05:16+00:00</time>
      </trkpt>
      <trkpt lat="45.48584" lon="6.20942">
        <ele>820</ele>
        <time>2024-06-05T23:05:19+00:00</time>
      </trkpt>
      <trkpt lat="45.48587" lon="6.20954">
        <ele>820</ele>
        <time>2024-06-05T23:05:22+00:00</time>
      </trkpt>
      <trkpt lat="45.48591" lon="6.20963">
        <ele>819</ele>
        <time>2024-06-05T23:05:25+00:00</time>
      </trkpt>
      <trkpt lat="45.48597" lon="6.20976">
        <ele>820</ele>
        <time>2024-06-05T23:05:28+00:00</time>
      </trkpt>
      <trkpt lat="45.48598" lon="6.20986">
        <ele>820</ele>
        <time>2024-06-05T23:05:31+00:00</time>
      </trkpt>
      <trkpt lat="45.48596" lon="6.21003">
        <ele>819</ele>
        <time>2024-06-05T23:05:34+00:00</time>
      </trkpt>
      <trkpt lat="45.4859" lon="6.2101">
        <ele>821</ele>
        <time>2024-06-05T23:05:37+00:00</time>
      </trkpt>
      <trkpt lat="45.48589" lon="6.21018">
        <ele>822</ele>
        <time>2024-06-05T23:05:40+00:00</time>
      </trkpt>
      <trkpt lat="45.48593" lon="6.21025">
        <ele>820</ele>
        <time>2024-06-05T23:05:43+00:00</time>
      </trkpt>
      <trkpt lat="45.48597" lon="6.21033">
        <ele>822</ele>
        <time>2024-06-05T23:05:46+00:00</time>
      </trkpt>
      <trkpt lat="45.48604" lon="6.21042">
        <ele>821</ele>
        <time>2024-06-05T23:05:49+00:00</time>
      </trkpt>
      <trkpt lat="45.4861" lon="6.21057">
        <ele>820</ele>
        <time>2024-06-05T23:05:52+00:00</time>
      </trkpt>
      <trkpt lat="45.48611" lon="6.21068">
        <ele>820</ele>
        <time>2024-06-05T23:05:55+00:00</time>
      </trkpt>
      <trkpt lat="45.48616" lon="6.21075">
        <ele>821</ele>
        <time>2024-06-05T23:05:58+00:00</time>
      </trkpt>
      <trkpt lat="45.48618" lon="6.2109">
        <ele>821</ele>
        <time>2024-06-05T23:06:01+00:00</time>
      </trkpt>
      <trkpt lat="45.48621" lon="6.21106">
        <ele>820</ele>
        <time>2024-06-05T23:06:04+00:00</time>
      </trkpt>
      <trkpt lat="45.48621" lon="6.21113">
        <ele>821</ele>
        <time>2024-06-05T23:06:07+00:00</time>
      </trkpt>
      <trkpt lat="45.48623" lon="6.21123">
        <ele>821</ele>
        <time>2024-06-05T23:06:10+00:00</time>
      </trkpt>
      <trkpt lat="45.48618" lon="6.21129">
        <ele>822</ele>
        <time>2024-06-05T23:06:13+00:00</time>
      </trkpt>
      <trkpt lat="45.48614" lon="6.2113">
        <ele>822</ele>
        <time>2024-06-05T23:06:16+00:00</time>
      </trkpt>
      <trkpt lat="45.48611" lon="6.21131">
        <ele>822</ele>
        <time>2024-06-05T23:06:19+00:00</time>
      </trkpt>
      <trkpt lat="45.48599" lon="6.21138">
        <ele>823</ele>
        <time>2024-06-05T23:06:22+00:00</time>
      </trkpt>
      <trkpt lat="45.48591" lon="6.21145">
        <ele>822</ele>
        <time>2024-06-05T23:06:25+00:00</time>
      </trkpt>
      <trkpt lat="45.48583" lon="6.21155">
        <ele>823</ele>
        <time>2024-06-05T23:06:28+00:00</time>
      </trkpt>
      <trkpt lat="45.48576" lon="6.21172">
        <ele>825</ele>
        <time>2024-06-05T23:06:31+00:00</time>
      </trkpt>
      <trkpt lat="45.48565" lon="6.21205">
        <ele>825</ele>
        <time>2024-06-05T23:06:34+00:00</time>
      </trkpt>
      <trkpt lat="45.48553" lon="6.21243">
        <ele>825</ele>
        <time>2024-06-05T23:06:37+00:00</time>
      </trkpt>
      <trkpt lat="45.48551" lon="6.21251">
        <ele>825</ele>
        <time>2024-06-05T23:06:40+00:00</time>
      </trkpt>
      <trkpt lat="45.4855" lon="6.21258">
        <ele>825</ele>
        <time>2024-06-05T23:06:43+00:00</time>
      </trkpt>
      <trkpt lat="45.48548" lon="6.21268">
        <ele>825</ele>
        <time>2024-06-05T23:06:46+00:00</time>
      </trkpt>
      <trkpt lat="45.48547" lon="6.21275">
        <ele>826</ele>
        <time>2024-06-05T23:06:49+00:00</time>
      </trkpt>
      <trkpt lat="45.48545" lon="6.21284">
        <ele>826</ele>
        <time>2024-06-05T23:06:52+00:00</time>
      </trkpt>
      <trkpt lat="45.48543" lon="6.21292">
        <ele>826</ele>
        <time>2024-06-05T23:06:55+00:00</time>
      </trkpt>
      <trkpt lat="45.48542" lon="6.21297">
        <ele>826</ele>
        <time>2024-06-05T23:06:58+00:00</time>
      </trkpt>
      <trkpt lat="45.4854" lon="6.21301">
        <ele>826</ele>
        <time>2024-06-05T23:07:01+00:00</time>
      </trkpt>
      <trkpt lat="45.48537" lon="6.21304">
        <ele>826</ele>
        <time>2024-06-05T23:07:04+00:00</time>
      </trkpt>
      <trkpt lat="45.48534" lon="6.21362">
        <ele>826</ele>
        <time>2024-06-05T23:07:07+00:00</time>
      </trkpt>
      <trkpt lat="45.48531" lon="6.21402">
        <ele>825</ele>
        <time>2024-06-05T23:07:10+00:00</time>
      </trkpt>
      <trkpt lat="45.48552" lon="6.21451">
        <ele>825</ele>
        <time>2024-06-05T23:07:13+00:00</time>
      </trkpt>
      <trkpt lat="45.48573" lon="6.21489">
        <ele>827</ele>
        <time>2024-06-05T23:07:16+00:00</time>
      </trkpt>
      <trkpt lat="45.48573" lon="6.21499">
        <ele>827</ele>
        <time>2024-06-05T23:07:19+00:00</time>
      </trkpt>
      <trkpt lat="45.48573" lon="6.215">
        <ele>829</ele>
        <time>2024-06-05T23:07:22+00:00</time>
      </trkpt>
      <trkpt lat="45.48588" lon="6.2152">
        <ele>829</ele>
        <time>2024-06-05T23:07:25+00:00</time>
      </trkpt>
      <trkpt lat="45.48597" lon="6.21539">
        <ele>829</ele>
        <time>2024-06-05T23:07:28+00:00</time>
      </trkpt>
      <trkpt lat="45.48606" lon="6.21555">
        <ele>830</ele>
        <time>2024-06-05T23:07:31+00:00</time>
      </trkpt>
      <trkpt lat="45.48619" lon="6.2157">
        <ele>829</ele>
        <time>2024-06-05T23:07:34+00:00</time>
      </trkpt>
      <trkpt lat="45.4863" lon="6.21589">
        <ele>830</ele>
        <time>2024-06-05T23:07:37+00:00</time>
      </trkpt>
      <trkpt lat="45.48647" lon="6.21607">
        <ele>831</ele>
        <time>2024-06-05T23:07:40+00:00</time>
      </trkpt>
      <trkpt lat="45.48655" lon="6.21627">
        <ele>831</ele>
        <time>2024-06-05T23:07:43+00:00</time>
      </trkpt>
      <trkpt lat="45.48659" lon="6.21648">
        <ele>828</ele>
        <time>2024-06-05T23:07:46+00:00</time>
      </trkpt>
      <trkpt lat="45.48661" lon="6.21658">
        <ele>830</ele>
        <time>2024-06-05T23:07:49+00:00</time>
      </trkpt>
      <trkpt lat="45.48685" lon="6.21696">
        <ele>826</ele>
        <time>2024-06-05T23:07:52+00:00</time>
      </trkpt>
      <trkpt lat="45.48695" lon="6.21707">
        <ele>824</ele>
        <time>2024-06-05T23:07:55+00:00</time>
      </trkpt>
      <trkpt lat="45.48697" lon="6.2171">
        <ele>824</ele>
        <time>2024-06-05T23:07:58+00:00</time>
      </trkpt>
      <trkpt lat="45.48706" lon="6.21732">
        <ele>825</ele>
        <time>2024-06-05T23:08:01+00:00</time>
      </trkpt>
      <trkpt lat="45.48717" lon="6.21759">
        <ele>824</ele>
        <time>2024-06-05T23:08:04+00:00</time>
      </trkpt>
      <trkpt lat="45.48734" lon="6.21785">
        <ele>824</ele>
        <time>2024-06-05T23:08:07+00:00</time>
      </trkpt>
      <trkpt lat="45.48732" lon="6.21807">
        <ele>825</ele>
        <time>2024-06-05T23:08:10+00:00</time>
      </trkpt>
      <trkpt lat="45.4873" lon="6.21819">
        <ele>830</ele>
        <time>2024-06-05T23:08:13+00:00</time>
      </trkpt>
      <trkpt lat="45.4874" lon="6.21862">
        <ele>830</ele>
        <time>2024-06-05T23:08:16+00:00</time>
      </trkpt>
      <trkpt lat="45.48755" lon="6.21895">
        <ele>830</ele>
        <time>2024-06-05T23:08:19+00:00</time>
      </trkpt>
      <trkpt lat="45.48757" lon="6.2193">
        <ele>835</ele>
        <time>2024-06-05T23:08:22+00:00</time>
      </trkpt>
      <trkpt lat="45.48759" lon="6.21967">
        <ele>843</ele>
        <time>2024-06-05T23:08:25+00:00</time>
      </trkpt>
      <trkpt lat="45.48771" lon="6.21987">
        <ele>839</ele>
        <time>2024-06-05T23:08:28+00:00</time>
      </trkpt>
      <trkpt lat="45.48767" lon="6.22014">
        <ele>848</ele>
        <time>2024-06-05T23:08:31+00:00</time>
      </trkpt>
      <trkpt lat="45.48755" lon="6.22029">
        <ele>854</ele>
        <time>2024-06-05T23:08:34+00:00</time>
      </trkpt>
      <trkpt lat="45.48758" lon="6.22059">
        <ele>857</ele>
        <time>2024-06-05T23:08:37+00:00</time>
      </trkpt>
      <trkpt lat="45.48766" lon="6.22098">
        <ele>857</ele>
        <time>2024-06-05T23:08:40+00:00</time>
      </trkpt>
      <trkpt lat="45.4877" lon="6.2214">
        <ele>857</ele>
        <time>2024-06-05T23:08:43+00:00</time>
      </trkpt>
      <trkpt lat="45.48778" lon="6.22155">
        <ele>853</ele>
        <time>2024-06-05T23:08:46+00:00</time>
      </trkpt>
      <trkpt lat="45.48775" lon="6.22185">
        <ele>857</ele>
        <time>2024-06-05T23:08:49+00:00</time>
      </trkpt>
      <trkpt lat="45.48783" lon="6.22202">
        <ele>859</ele>
        <time>2024-06-05T23:08:52+00:00</time>
      </trkpt>
      <trkpt lat="45.48789" lon="6.22226">
        <ele>856</ele>
        <time>2024-06-05T23:08:55+00:00</time>
      </trkpt>
      <trkpt lat="45.488" lon="6.22242">
        <ele>857</ele>
        <time>2024-06-05T23:08:58+00:00</time>
      </trkpt>
      <trkpt lat="45.48803" lon="6.22261">
        <ele>858</ele>
        <time>2024-06-05T23:09:01+00:00</time>
      </trkpt>
      <trkpt lat="45.48812" lon="6.22287">
        <ele>860</ele>
        <time>2024-06-05T23:09:04+00:00</time>
      </trkpt>
      <trkpt lat="45.48819" lon="6.223">
        <ele>862</ele>
        <time>2024-06-05T23:09:07+00:00</time>
      </trkpt>
      <trkpt lat="45.48825" lon="6.22301">
        <ele>864</ele>
        <time>2024-06-05T23:09:10+00:00</time>
      </trkpt>
      <trkpt lat="45.48846" lon="6.22323">
        <ele>861</ele>
        <time>2024-06-05T23:09:13+00:00</time>
      </trkpt>
      <trkpt lat="45.48858" lon="6.22327">
        <ele>864</ele>
        <time>2024-06-05T23:09:16+00:00</time>
      </trkpt>
      <trkpt lat="45.4886" lon="6.22333">
        <ele>866</ele>
        <time>2024-06-05T23:09:19+00:00</time>
      </trkpt>
      <trkpt lat="45.48874" lon="6.22347">
        <ele>863</ele>
        <time>2024-06-05T23:09:22+00:00</time>
      </trkpt>
      <trkpt lat="45.48891" lon="6.22363">
        <ele>865</ele>
        <time>2024-06-05T23:09:25+00:00</time>
      </trkpt>
      <trkpt lat="45.48901" lon="6.22377">
        <ele>864</ele>
        <time>2024-06-05T23:09:28+00:00</time>
      </trkpt>
      <trkpt lat="45.48912" lon="6.22388">
        <ele>866</ele>
        <time>2024-06-05T23:09:31+00:00</time>
      </trkpt>
      <trkpt lat="45.48926" lon="6.22407">
        <ele>866</ele>
        <time>2024-06-05T23:09:34+00:00</time>
      </trkpt>
      <trkpt lat="45.48932" lon="6.22418">
        <ele>864</ele>
        <time>2024-06-05T23:09:37+00:00</time>
      </trkpt>
      <trkpt lat="45.48934" lon="6.22426">
        <ele>865</ele>
        <time>2024-06-05T23:09:40+00:00</time>
      </trkpt>
      <trkpt lat="45.48938" lon="6.22433">
        <ele>866</ele>
        <time>2024-06-05T23:09:43+00:00</time>
      </trkpt>
      <trkpt lat="45.4894" lon="6.22435">
        <ele>865</ele>
        <time>2024-06-05T23:09:46+00:00</time>
      </trkpt>
      <trkpt lat="45.48945" lon="6.22442">
        <ele>867</ele>
        <time>2024-06-05T23:09:49+00:00</time>
      </trkpt>
      <trkpt lat="45.48948" lon="6.22448">
        <ele>867</ele>
        <time>2024-06-05T23:09:52+00:00</time>
      </trkpt>
      <trkpt lat="45.4895" lon="6.2245">
        <ele>869</ele>
        <time>2024-06-05T23:09:55+00:00</time>
      </trkpt>
      <trkpt lat="45.48955" lon="6.22458">
        <ele>867</ele>
        <time>2024-06-05T23:09:58+00:00</time>
      </trkpt>
      <trkpt lat="45.48958" lon="6.22467">
        <ele>868</ele>
        <time>2024-06-05T23:10:01+00:00</time>
      </trkpt>
      <trkpt lat="45.48956" lon="6.2247">
        <ele>869</ele>
        <time>2024-06-05T23:10:04+00:00</time>
      </trkpt>
      <trkpt lat="45.48953" lon="6.22473">
        <ele>869</ele>
        <time>2024-06-05T23:10:07+00:00</time>
      </trkpt>
      <trkpt lat="45.48953" lon="6.22473">
        <ele>869</ele>
        <time>2024-06-05T23:10:10+00:00</time>
      </trkpt>
      <trkpt lat="45.48952" lon="6.22474">
        <ele>869</ele>
        <time>2024-06-05T23:10:13+00:00</time>
      </trkpt>
      <trkpt lat="45.48948" lon="6.22478">
        <ele>870</ele>
        <time>2024-06-05T23:10:16+00:00</time>
      </trkpt>
      <trkpt lat="45.48942" lon="6.2248">
        <ele>871</ele>
        <time>2024-06-05T23:10:19+00:00</time>
      </trkpt>
      <trkpt lat="45.48939" lon="6.22486">
        <ele>873</ele>
        <time>2024-06-05T23:10:22+00:00</time>
      </trkpt>
      <trkpt lat="45.48935" lon="6.22491">
        <ele>874</ele>
        <time>2024-06-05T23:10:25+00:00</time>
      </trkpt>
      <trkpt lat="45.48934" lon="6.22498">
        <ele>874</ele>
        <time>2024-06-05T23:10:28+00:00</time>
      </trkpt>
      <trkpt lat="45.48937" lon="6.22507">
        <ele>875</ele>
        <time>2024-06-05T23:10:31+00:00</time>
      </trkpt>
      <trkpt lat="45.4894" lon="6.22517">
        <ele>874</ele>
        <time>2024-06-05T23:10:34+00:00</time>
      </trkpt>
      <trkpt lat="45.48942" lon="6.22526">
        <ele>875</ele>
        <time>2024-06-05T23:10:37+00:00</time>
      </trkpt>
      <trkpt lat="45.48945" lon="6.22533">
        <ele>876</ele>
        <time>2024-06-05T23:10:40+00:00</time>
      </trkpt>
      <trkpt lat="45.48948" lon="6.22541">
        <ele>877</ele>
        <time>2024-06-05T23:10:43+00:00</time>
      </trkpt>
      <trkpt lat="45.48951" lon="6.22547">
        <ele>872</ele>
        <time>2024-06-05T23:10:46+00:00</time>
      </trkpt>
      <trkpt lat="45.48958" lon="6.22565">
        <ele>875</ele>
        <time>2024-06-05T23:10:49+00:00</time>
      </trkpt>
      <trkpt lat="45.48961" lon="6.22572">
        <ele>875</ele>
        <time>2024-06-05T23:10:52+00:00</time>
      </trkpt>
      <trkpt lat="45.48964" lon="6.22586">
        <ele>876</ele>
        <time>2024-06-05T23:10:55+00:00</time>
      </trkpt>
      <trkpt lat="45.48969" lon="6.22592">
        <ele>874</ele>
        <time>2024-06-05T23:10:58+00:00</time>
      </trkpt>
      <trkpt lat="45.48974" lon="6.22595">
        <ele>876</ele>
        <time>2024-06-05T23:11:01+00:00</time>
      </trkpt>
      <trkpt lat="45.48985" lon="6.226">
        <ele>873</ele>
        <time>2024-06-05T23:11:04+00:00</time>
      </trkpt>
      <trkpt lat="45.49002" lon="6.22612">
        <ele>874</ele>
        <time>2024-06-05T23:11:07+00:00</time>
      </trkpt>
      <trkpt lat="45.49011" lon="6.22621">
        <ele>874</ele>
        <time>2024-06-05T23:11:10+00:00</time>
      </trkpt>
      <trkpt lat="45.49015" lon="6.22626">
        <ele>874</ele>
        <time>2024-06-05T23:11:13+00:00</time>
      </trkpt>
      <trkpt lat="45.4902" lon="6.22631">
        <ele>873</ele>
        <time>2024-06-05T23:11:16+00:00</time>
      </trkpt>
      <trkpt lat="45.49024" lon="6.22632">
        <ele>875</ele>
        <time>2024-06-05T23:11:19+00:00</time>
      </trkpt>
      <trkpt lat="45.49031" lon="6.22638">
        <ele>873</ele>
        <time>2024-06-05T23:11:22+00:00</time>
      </trkpt>
      <trkpt lat="45.49035" lon="6.22638">
        <ele>873</ele>
        <time>2024-06-05T23:11:25+00:00</time>
      </trkpt>
      <trkpt lat="45.49039" lon="6.22636">
        <ele>873</ele>
        <time>2024-06-05T23:11:28+00:00</time>
      </trkpt>
      <trkpt lat="45.49044" lon="6.22629">
        <ele>869</ele>
        <time>2024-06-05T23:11:31+00:00</time>
      </trkpt>
      <trkpt lat="45.49056" lon="6.22617">
        <ele>871</ele>
        <time>2024-06-05T23:11:34+00:00</time>
      </trkpt>
      <trkpt lat="45.49059" lon="6.22613">
        <ele>867</ele>
        <time>2024-06-05T23:11:37+00:00</time>
      </trkpt>
      <trkpt lat="45.49061" lon="6.22612">
        <ele>865</ele>
        <time>2024-06-05T23:11:40+00:00</time>
      </trkpt>
      <trkpt lat="45.49068" lon="6.22632">
        <ele>869</ele>
        <time>2024-06-05T23:11:43+00:00</time>
      </trkpt>
      <trkpt lat="45.49067" lon="6.22644">
        <ele>869</ele>
        <time>2024-06-05T23:11:46+00:00</time>
      </trkpt>
      <trkpt lat="45.49069" lon="6.22645">
        <ele>869</ele>
        <time>2024-06-05T23:11:49+00:00</time>
      </trkpt>
      <trkpt lat="45.49072" lon="6.22656">
        <ele>867</ele>
        <time>2024-06-05T23:11:52+00:00</time>
      </trkpt>
      <trkpt lat="45.49076" lon="6.2266">
        <ele>866</ele>
        <time>2024-06-05T23:11:55+00:00</time>
      </trkpt>
      <trkpt lat="45.49079" lon="6.22669">
        <ele>866</ele>
        <time>2024-06-05T23:11:58+00:00</time>
      </trkpt>
      <trkpt lat="45.49083" lon="6.22673">
        <ele>867</ele>
        <time>2024-06-05T23:12:01+00:00</time>
      </trkpt>
      <trkpt lat="45.4909" lon="6.22677">
        <ele>867</ele>
        <time>2024-06-05T23:12:04+00:00</time>
      </trkpt>
      <trkpt lat="45.49093" lon="6.22681">
        <ele>867</ele>
        <time>2024-06-05T23:12:07+00:00</time>
      </trkpt>
      <trkpt lat="45.49099" lon="6.22683">
        <ele>867</ele>
        <time>2024-06-05T23:12:10+00:00</time>
      </trkpt>
      <trkpt lat="45.49106" lon="6.22689">
        <ele>863</ele>
        <time>2024-06-05T23:12:13+00:00</time>
      </trkpt>
      <trkpt lat="45.49109" lon="6.22696">
        <ele>867</ele>
        <time>2024-06-05T23:12:16+00:00</time>
      </trkpt>
      <trkpt lat="45.49113" lon="6.22699">
        <ele>865</ele>
        <time>2024-06-05T23:12:19+00:00</time>
      </trkpt>
      <trkpt lat="45.49117" lon="6.22702">
        <ele>867</ele>
        <time>2024-06-05T23:12:22+00:00</time>
      </trkpt>
      <trkpt lat="45.49123" lon="6.22708">
        <ele>865</ele>
        <time>2024-06-05T23:12:25+00:00</time>
      </trkpt>
      <trkpt lat="45.49129" lon="6.22715">
        <ele>866</ele>
        <time>2024-06-05T23:12:28+00:00</time>
      </trkpt>
      <trkpt lat="45.49137" lon="6.22718">
        <ele>866</ele>
        <time>2024-06-05T23:12:31+00:00</time>
      </trkpt>
      <trkpt lat="45.49143" lon="6.22724">
        <ele>866</ele>
        <time>2024-06-05T23:12:34+00:00</time>
      </trkpt>
      <trkpt lat="45.49148" lon="6.22728">
        <ele>866</ele>
        <time>2024-06-05T23:12:37+00:00</time>
      </trkpt>
      <trkpt lat="45.49155" lon="6.22733">
        <ele>865</ele>
        <time>2024-06-05T23:12:40+00:00</time>
      </trkpt>
      <trkpt lat="45.4916" lon="6.22738">
        <ele>865</ele>
        <time>2024-06-05T23:12:43+00:00</time>
      </trkpt>
      <trkpt lat="45.49164" lon="6.2275">
        <ele>864</ele>
        <time>2024-06-05T23:12:46+00:00</time>
      </trkpt>
      <trkpt lat="45.49165" lon="6.22753">
        <ele>863</ele>
        <time>2024-06-05T23:12:49+00:00</time>
      </trkpt>
      <trkpt lat="45.49168" lon="6.22758">
        <ele>863</ele>
        <time>2024-06-05T23:12:52+00:00</time>
      </trkpt>
      <trkpt lat="45.49171" lon="6.22766">
        <ele>862</ele>
        <time>2024-06-05T23:12:55+00:00</time>
      </trkpt>
      <trkpt lat="45.49178" lon="6.2277">
        <ele>863</ele>
        <time>2024-06-05T23:12:58+00:00</time>
      </trkpt>
      <trkpt lat="45.49185" lon="6.22771">
        <ele>860</ele>
        <time>2024-06-05T23:13:01+00:00</time>
      </trkpt>
      <trkpt lat="45.4919" lon="6.2277">
        <ele>855</ele>
        <time>2024-06-05T23:13:04+00:00</time>
      </trkpt>
      <trkpt lat="45.49194" lon="6.22771">
        <ele>858</ele>
        <time>2024-06-05T23:13:07+00:00</time>
      </trkpt>
      <trkpt lat="45.492" lon="6.22773">
        <ele>858</ele>
        <time>2024-06-05T23:13:10+00:00</time>
      </trkpt>
      <trkpt lat="45.49204" lon="6.22772">
        <ele>855</ele>
        <time>2024-06-05T23:13:13+00:00</time>
      </trkpt>
      <trkpt lat="45.49207" lon="6.22774">
        <ele>855</ele>
        <time>2024-06-05T23:13:16+00:00</time>
      </trkpt>
      <trkpt lat="45.49211" lon="6.2278">
        <ele>854</ele>
        <time>2024-06-05T23:13:19+00:00</time>
      </trkpt>
      <trkpt lat="45.49215" lon="6.22788">
        <ele>854</ele>
        <time>2024-06-05T23:13:22+00:00</time>
      </trkpt>
      <trkpt lat="45.49219" lon="6.22794">
        <ele>856</ele>
        <time>2024-06-05T23:13:25+00:00</time>
      </trkpt>
      <trkpt lat="45.49228" lon="6.22795">
        <ele>850</ele>
        <time>2024-06-05T23:13:28+00:00</time>
      </trkpt>
      <trkpt lat="45.49232" lon="6.22797">
        <ele>854</ele>
        <time>2024-06-05T23:13:31+00:00</time>
      </trkpt>
      <trkpt lat="45.49236" lon="6.22801">
        <ele>851</ele>
        <time>2024-06-05T23:13:34+00:00</time>
      </trkpt>
      <trkpt lat="45.49243" lon="6.2281">
        <ele>852</ele>
        <time>2024-06-05T23:13:37+00:00</time>
      </trkpt>
      <trkpt lat="45.49252" lon="6.22829">
        <ele>854</ele>
        <time>2024-06-05T23:13:40+00:00</time>
      </trkpt>
      <trkpt lat="45.49263" lon="6.22845">
        <ele>855</ele>
        <time>2024-06-05T23:13:43+00:00</time>
      </trkpt>
      <trkpt lat="45.4927" lon="6.22859">
        <ele>858</ele>
        <time>2024-06-05T23:13:46+00:00</time>
      </trkpt>
      <trkpt lat="45.49272" lon="6.22864">
        <ele>857</ele>
        <time>2024-06-05T23:13:49+00:00</time>
      </trkpt>
      <trkpt lat="45.49277" lon="6.22875">
        <ele>856</ele>
        <time>2024-06-05T23:13:52+00:00</time>
      </trkpt>
      <trkpt lat="45.4928" lon="6.22881">
        <ele>855</ele>
        <time>2024-06-05T23:13:55+00:00</time>
      </trkpt>
      <trkpt lat="45.49285" lon="6.22886">
        <ele>860</ele>
        <time>2024-06-05T23:13:58+00:00</time>
      </trkpt>
      <trkpt lat="45.49293" lon="6.22896">
        <ele>862</ele>
        <time>2024-06-05T23:14:01+00:00</time>
      </trkpt>
      <trkpt lat="45.49295" lon="6.22909">
        <ele>860</ele>
        <time>2024-06-05T23:14:04+00:00</time>
      </trkpt>
      <trkpt lat="45.49297" lon="6.22923">
        <ele>857</ele>
        <time>2024-06-05T23:14:07+00:00</time>
      </trkpt>
      <trkpt lat="45.49299" lon="6.22936">
        <ele>858</ele>
        <time>2024-06-05T23:14:10+00:00</time>
      </trkpt>
      <trkpt lat="45.49302" lon="6.22954">
        <ele>858</ele>
        <time>2024-06-05T23:14:13+00:00</time>
      </trkpt>
      <trkpt lat="45.49303" lon="6.2297">
        <ele>857</ele>
        <time>2024-06-05T23:14:16+00:00</time>
      </trkpt>
      <trkpt lat="45.49303" lon="6.2297">
        <ele>857</ele>
        <time>2024-06-05T23:14:19+00:00</time>
      </trkpt>
      <trkpt lat="45.49303" lon="6.22971">
        <ele>857</ele>
        <time>2024-06-05T23:14:22+00:00</time>
      </trkpt>
      <trkpt lat="45.49305" lon="6.2299">
        <ele>856</ele>
        <time>2024-06-05T23:14:25+00:00</time>
      </trkpt>
      <trkpt lat="45.49308" lon="6.23003">
        <ele>857</ele>
        <time>2024-06-05T23:14:28+00:00</time>
      </trkpt>
      <trkpt lat="45.49314" lon="6.23023">
        <ele>857</ele>
        <time>2024-06-05T23:14:31+00:00</time>
      </trkpt>
      <trkpt lat="45.49316" lon="6.23035">
        <ele>857</ele>
        <time>2024-06-05T23:14:34+00:00</time>
      </trkpt>
      <trkpt lat="45.49316" lon="6.23049">
        <ele>859</ele>
        <time>2024-06-05T23:14:37+00:00</time>
      </trkpt>
      <trkpt lat="45.49317" lon="6.23067">
        <ele>860</ele>
        <time>2024-06-05T23:14:40+00:00</time>
      </trkpt>
      <trkpt lat="45.49317" lon="6.23084">
        <ele>861</ele>
        <time>2024-06-05T23:14:43+00:00</time>
      </trkpt>
      <trkpt lat="45.49317" lon="6.23094">
        <ele>861</ele>
        <time>2024-06-05T23:14:46+00:00</time>
      </trkpt>
      <trkpt lat="45.49317" lon="6.23104">
        <ele>862</ele>
        <time>2024-06-05T23:14:49+00:00</time>
      </trkpt>
      <trkpt lat="45.49317" lon="6.23113">
        <ele>862</ele>
        <time>2024-06-05T23:14:52+00:00</time>
      </trkpt>
      <trkpt lat="45.49317" lon="6.23125">
        <ele>862</ele>
        <time>2024-06-05T23:14:55+00:00</time>
      </trkpt>
      <trkpt lat="45.49317" lon="6.23134">
        <ele>861</ele>
        <time>2024-06-05T23:14:58+00:00</time>
      </trkpt>
      <trkpt lat="45.49317" lon="6.23145">
        <ele>862</ele>
        <time>2024-06-05T23:15:01+00:00</time>
      </trkpt>
      <trkpt lat="45.49317" lon="6.23157">
        <ele>862</ele>
        <time>2024-06-05T23:15:04+00:00</time>
      </trkpt>
      <trkpt lat="45.49317" lon="6.23165">
        <ele>862</ele>
        <time>2024-06-05T23:15:07+00:00</time>
      </trkpt>
      <trkpt lat="45.49317" lon="6.23172">
        <ele>863</ele>
        <time>2024-06-05T23:15:10+00:00</time>
      </trkpt>
      <trkpt lat="45.49318" lon="6.2318">
        <ele>863</ele>
        <time>2024-06-05T23:15:13+00:00</time>
      </trkpt>
      <trkpt lat="45.49318" lon="6.23188">
        <ele>863</ele>
        <time>2024-06-05T23:15:16+00:00</time>
      </trkpt>
      <trkpt lat="45.49319" lon="6.23197">
        <ele>864</ele>
        <time>2024-06-05T23:15:19+00:00</time>
      </trkpt>
      <trkpt lat="45.49321" lon="6.23205">
        <ele>862</ele>
        <time>2024-06-05T23:15:22+00:00</time>
      </trkpt>
      <trkpt lat="45.49322" lon="6.23212">
        <ele>862</ele>
        <time>2024-06-05T23:15:25+00:00</time>
      </trkpt>
      <trkpt lat="45.49324" lon="6.23221">
        <ele>863</ele>
        <time>2024-06-05T23:15:28+00:00</time>
      </trkpt>
      <trkpt lat="45.49326" lon="6.23229">
        <ele>863</ele>
        <time>2024-06-05T23:15:31+00:00</time>
      </trkpt>
      <trkpt lat="45.49328" lon="6.23237">
        <ele>864</ele>
        <time>2024-06-05T23:15:34+00:00</time>
      </trkpt>
      <trkpt lat="45.49331" lon="6.23247">
        <ele>863</ele>
        <time>2024-06-05T23:15:37+00:00</time>
      </trkpt>
      <trkpt lat="45.49336" lon="6.23258">
        <ele>864</ele>
        <time>2024-06-05T23:15:40+00:00</time>
      </trkpt>
      <trkpt lat="45.49345" lon="6.23281">
        <ele>865</ele>
        <time>2024-06-05T23:15:43+00:00</time>
      </trkpt>
      <trkpt lat="45.49351" lon="6.23301">
        <ele>866</ele>
        <time>2024-06-05T23:15:46+00:00</time>
      </trkpt>
      <trkpt lat="45.49362" lon="6.23326">
        <ele>867</ele>
        <time>2024-06-05T23:15:49+00:00</time>
      </trkpt>
      <trkpt lat="45.49368" lon="6.2334">
        <ele>869</ele>
        <time>2024-06-05T23:15:52+00:00</time>
      </trkpt>
      <trkpt lat="45.49373" lon="6.23352">
        <ele>868</ele>
        <time>2024-06-05T23:15:55+00:00</time>
      </trkpt>
      <trkpt lat="45.49378" lon="6.23363">
        <ele>870</ele>
        <time>2024-06-05T23:15:58+00:00</time>
      </trkpt>
      <trkpt lat="45.49387" lon="6.23378">
        <ele>869</ele>
        <time>2024-06-05T23:16:01+00:00</time>
      </trkpt>
      <trkpt lat="45.49394" lon="6.23391">
        <ele>872</ele>
        <time>2024-06-05T23:16:04+00:00</time>
      </trkpt>
      <trkpt lat="45.49403" lon="6.23405">
        <ele>869</ele>
        <time>2024-06-05T23:16:07+00:00</time>
      </trkpt>
      <trkpt lat="45.49411" lon="6.23417">
        <ele>869</ele>
        <time>2024-06-05T23:16:10+00:00</time>
      </trkpt>
      <trkpt lat="45.49418" lon="6.2343">
        <ele>873</ele>
        <time>2024-06-05T23:16:13+00:00</time>
      </trkpt>
      <trkpt lat="45.49425" lon="6.23439">
        <ele>873</ele>
        <time>2024-06-05T23:16:16+00:00</time>
      </trkpt>
      <trkpt lat="45.49434" lon="6.23451">
        <ele>874</ele>
        <time>2024-06-05T23:16:19+00:00</time>
      </trkpt>
      <trkpt lat="45.49442" lon="6.23461">
        <ele>875</ele>
        <time>2024-06-05T23:16:22+00:00</time>
      </trkpt>
      <trkpt lat="45.49449" lon="6.23468">
        <ele>872</ele>
        <time>2024-06-05T23:16:25+00:00</time>
      </trkpt>
      <trkpt lat="45.49455" lon="6.23475">
        <ele>874</ele>
        <time>2024-06-05T23:16:28+00:00</time>
      </trkpt>
      <trkpt lat="45.49462" lon="6.23482">
        <ele>870</ele>
        <time>2024-06-05T23:16:31+00:00</time>
      </trkpt>
      <trkpt lat="45.49469" lon="6.23487">
        <ele>870</ele>
        <time>2024-06-05T23:16:34+00:00</time>
      </trkpt>
      <trkpt lat="45.49473" lon="6.23489">
        <ele>867</ele>
        <time>2024-06-05T23:16:37+00:00</time>
      </trkpt>
      <trkpt lat="45.49478" lon="6.23492">
        <ele>869</ele>
        <time>2024-06-05T23:16:40+00:00</time>
      </trkpt>
      <trkpt lat="45.49483" lon="6.23494">
        <ele>868</ele>
        <time>2024-06-05T23:16:43+00:00</time>
      </trkpt>
      <trkpt lat="45.49487" lon="6.23497">
        <ele>868</ele>
        <time>2024-06-05T23:16:46+00:00</time>
      </trkpt>
      <trkpt lat="45.49491" lon="6.23501">
        <ele>868</ele>
        <time>2024-06-05T23:16:49+00:00</time>
      </trkpt>
      <trkpt lat="45.49495" lon="6.23503">
        <ele>868</ele>
        <time>2024-06-05T23:16:52+00:00</time>
      </trkpt>
      <trkpt lat="45.49499" lon="6.23508">
        <ele>868</ele>
        <time>2024-06-05T23:16:55+00:00</time>
      </trkpt>
      <trkpt lat="45.49502" lon="6.23513">
        <ele>868</ele>
        <time>2024-06-05T23:16:58+00:00</time>
      </trkpt>
      <trkpt lat="45.49506" lon="6.23519">
        <ele>868</ele>
        <time>2024-06-05T23:17:01+00:00</time>
      </trkpt>
      <trkpt lat="45.49511" lon="6.23528">
        <ele>868</ele>
        <time>2024-06-05T23:17:04+00:00</time>
      </trkpt>
      <trkpt lat="45.49518" lon="6.23541">
        <ele>868</ele>
        <time>2024-06-05T23:17:07+00:00</time>
      </trkpt>
      <trkpt lat="45.49524" lon="6.23552">
        <ele>869</ele>
        <time>2024-06-05T23:17:10+00:00</time>
      </trkpt>
      <trkpt lat="45.49531" lon="6.23567">
        <ele>869</ele>
        <time>2024-06-05T23:17:13+00:00</time>
      </trkpt>
      <trkpt lat="45.49539" lon="6.23582">
        <ele>872</ele>
        <time>2024-06-05T23:17:16+00:00</time>
      </trkpt>
      <trkpt lat="45.49547" lon="6.23596">
        <ele>869</ele>
        <time>2024-06-05T23:17:19+00:00</time>
      </trkpt>
      <trkpt lat="45.49554" lon="6.23608">
        <ele>870</ele>
        <time>2024-06-05T23:17:22+00:00</time>
      </trkpt>
      <trkpt lat="45.49561" lon="6.23619">
        <ele>869</ele>
        <time>2024-06-05T23:17:25+00:00</time>
      </trkpt>
      <trkpt lat="45.49571" lon="6.23634">
        <ele>869</ele>
        <time>2024-06-05T23:17:28+00:00</time>
      </trkpt>
      <trkpt lat="45.49583" lon="6.23649">
        <ele>869</ele>
        <time>2024-06-05T23:17:31+00:00</time>
      </trkpt>
      <trkpt lat="45.49591" lon="6.23661">
        <ele>870</ele>
        <time>2024-06-05T23:17:34+00:00</time>
      </trkpt>
      <trkpt lat="45.49596" lon="6.23667">
        <ele>870</ele>
        <time>2024-06-05T23:17:37+00:00</time>
      </trkpt>
      <trkpt lat="45.49601" lon="6.23672">
        <ele>869</ele>
        <time>2024-06-05T23:17:40+00:00</time>
      </trkpt>
      <trkpt lat="45.49607" lon="6.23677">
        <ele>871</ele>
        <time>2024-06-05T23:17:43+00:00</time>
      </trkpt>
      <trkpt lat="45.4961" lon="6.23679">
        <ele>871</ele>
        <time>2024-06-05T23:17:46+00:00</time>
      </trkpt>
      <trkpt lat="45.49616" lon="6.23682">
        <ele>871</ele>
        <time>2024-06-05T23:17:49+00:00</time>
      </trkpt>
      <trkpt lat="45.49621" lon="6.23684">
        <ele>870</ele>
        <time>2024-06-05T23:17:52+00:00</time>
      </trkpt>
      <trkpt lat="45.49626" lon="6.23686">
        <ele>870</ele>
        <time>2024-06-05T23:17:55+00:00</time>
      </trkpt>
      <trkpt lat="45.4964" lon="6.2369">
        <ele>870</ele>
        <time>2024-06-05T23:17:58+00:00</time>
      </trkpt>
      <trkpt lat="45.49681" lon="6.23701">
        <ele>871</ele>
        <time>2024-06-05T23:18:01+00:00</time>
      </trkpt>
      <trkpt lat="45.49704" lon="6.23708">
        <ele>871</ele>
        <time>2024-06-05T23:18:04+00:00</time>
      </trkpt>
      <trkpt lat="45.49729" lon="6.23716">
        <ele>871</ele>
        <time>2024-06-05T23:18:07+00:00</time>
      </trkpt>
      <trkpt lat="45.49753" lon="6.23723">
        <ele>872</ele>
        <time>2024-06-05T23:18:10+00:00</time>
      </trkpt>
      <trkpt lat="45.49777" lon="6.23731">
        <ele>873</ele>
        <time>2024-06-05T23:18:13+00:00</time>
      </trkpt>
      <trkpt lat="45.49789" lon="6.23734">
        <ele>873</ele>
        <time>2024-06-05T23:18:16+00:00</time>
      </trkpt>
      <trkpt lat="45.49804" lon="6.23738">
        <ele>873</ele>
        <time>2024-06-05T23:18:19+00:00</time>
      </trkpt>
      <trkpt lat="45.49829" lon="6.23742">
        <ele>874</ele>
        <time>2024-06-05T23:18:22+00:00</time>
      </trkpt>
      <trkpt lat="45.49874" lon="6.23749">
        <ele>876</ele>
        <time>2024-06-05T23:18:25+00:00</time>
      </trkpt>
      <trkpt lat="45.49919" lon="6.23759">
        <ele>878</ele>
        <time>2024-06-05T23:18:28+00:00</time>
      </trkpt>
      <trkpt lat="45.49936" lon="6.2376">
        <ele>880</ele>
        <time>2024-06-05T23:18:31+00:00</time>
      </trkpt>
      <trkpt lat="45.49954" lon="6.2376">
        <ele>880</ele>
        <time>2024-06-05T23:18:34+00:00</time>
      </trkpt>
      <trkpt lat="45.49974" lon="6.23764">
        <ele>881</ele>
        <time>2024-06-05T23:18:37+00:00</time>
      </trkpt>
      <trkpt lat="45.49982" lon="6.23763">
        <ele>881</ele>
        <time>2024-06-05T23:18:40+00:00</time>
      </trkpt>
      <trkpt lat="45.50002" lon="6.23758">
        <ele>881</ele>
        <time>2024-06-05T23:18:43+00:00</time>
      </trkpt>
      <trkpt lat="45.50022" lon="6.2375">
        <ele>882</ele>
        <time>2024-06-05T23:18:46+00:00</time>
      </trkpt>
      <trkpt lat="45.50042" lon="6.2374">
        <ele>884</ele>
        <time>2024-06-05T23:18:49+00:00</time>
      </trkpt>
      <trkpt lat="45.50055" lon="6.23734">
        <ele>884</ele>
        <time>2024-06-05T23:18:52+00:00</time>
      </trkpt>
      <trkpt lat="45.50061" lon="6.23727">
        <ele>885</ele>
        <time>2024-06-05T23:18:55+00:00</time>
      </trkpt>
      <trkpt lat="45.50074" lon="6.2373">
        <ele>885</ele>
        <time>2024-06-05T23:18:58+00:00</time>
      </trkpt>
      <trkpt lat="45.5009" lon="6.23734">
        <ele>886</ele>
        <time>2024-06-05T23:19:01+00:00</time>
      </trkpt>
      <trkpt lat="45.50102" lon="6.2374">
        <ele>888</ele>
        <time>2024-06-05T23:19:04+00:00</time>
      </trkpt>
      <trkpt lat="45.5011" lon="6.23744">
        <ele>888</ele>
        <time>2024-06-05T23:19:07+00:00</time>
      </trkpt>
      <trkpt lat="45.50114" lon="6.23742">
        <ele>889</ele>
        <time>2024-06-05T23:19:10+00:00</time>
      </trkpt>
      <trkpt lat="45.50119" lon="6.23735">
        <ele>889</ele>
        <time>2024-06-05T23:19:13+00:00</time>
      </trkpt>
      <trkpt lat="45.50125" lon="6.23743">
        <ele>890</ele>
        <time>2024-06-05T23:19:16+00:00</time>
      </trkpt>
      <trkpt lat="45.50125" lon="6.23743">
        <ele>890</ele>
        <time>2024-06-05T23:19:19+00:00</time>
      </trkpt>
      <trkpt lat="45.5013" lon="6.2375">
        <ele>890</ele>
        <time>2024-06-05T23:19:22+00:00</time>
      </trkpt>
      <trkpt lat="45.50143" lon="6.23741">
        <ele>890</ele>
        <time>2024-06-05T23:19:25+00:00</time>
      </trkpt>
      <trkpt lat="45.50148" lon="6.23739">
        <ele>890</ele>
        <time>2024-06-05T23:19:28+00:00</time>
      </trkpt>
      <trkpt lat="45.50155" lon="6.23739">
        <ele>891</ele>
        <time>2024-06-05T23:19:31+00:00</time>
      </trkpt>
      <trkpt lat="45.50162" lon="6.2374">
        <ele>892</ele>
        <time>2024-06-05T23:19:34+00:00</time>
      </trkpt>
      <trkpt lat="45.50169" lon="6.23742">
        <ele>892</ele>
        <time>2024-06-05T23:19:37+00:00</time>
      </trkpt>
      <trkpt lat="45.50177" lon="6.2375">
        <ele>893</ele>
        <time>2024-06-05T23:19:40+00:00</time>
      </trkpt>
      <trkpt lat="45.50187" lon="6.23765">
        <ele>895</ele>
        <time>2024-06-05T23:19:43+00:00</time>
      </trkpt>
      <trkpt lat="45.50198" lon="6.23781">
        <ele>896</ele>
        <time>2024-06-05T23:19:46+00:00</time>
      </trkpt>
      <trkpt lat="45.50198" lon="6.23782">
        <ele>896</ele>
        <time>2024-06-05T23:19:49+00:00</time>
      </trkpt>
      <trkpt lat="45.50203" lon="6.23783">
        <ele>897</ele>
        <time>2024-06-05T23:19:52+00:00</time>
      </trkpt>
      <trkpt lat="45.50214" lon="6.23787">
        <ele>898</ele>
        <time>2024-06-05T23:19:55+00:00</time>
      </trkpt>
      <trkpt lat="45.50219" lon="6.2379">
        <ele>899</ele>
        <time>2024-06-05T23:19:58+00:00</time>
      </trkpt>
      <trkpt lat="45.50224" lon="6.23796">
        <ele>900</ele>
        <time>2024-06-05T23:20:01+00:00</time>
      </trkpt>
      <trkpt lat="45.50228" lon="6.23808">
        <ele>901</ele>
        <time>2024-06-05T23:20:04+00:00</time>
      </trkpt>
      <trkpt lat="45.50234" lon="6.23819">
        <ele>903</ele>
        <time>2024-06-05T23:20:07+00:00</time>
      </trkpt>
      <trkpt lat="45.50241" lon="6.23837">
        <ele>905</ele>
        <time>2024-06-05T23:20:10+00:00</time>
      </trkpt>
      <trkpt lat="45.50248" lon="6.23857">
        <ele>904</ele>
        <time>2024-06-05T23:20:13+00:00</time>
      </trkpt>
      <trkpt lat="45.50254" lon="6.23875">
        <ele>907</ele>
        <time>2024-06-05T23:20:16+00:00</time>
      </trkpt>
      <trkpt lat="45.50259" lon="6.23898">
        <ele>907</ele>
        <time>2024-06-05T23:20:19+00:00</time>
      </trkpt>
      <trkpt lat="45.50266" lon="6.2392">
        <ele>911</ele>
        <time>2024-06-05T23:20:22+00:00</time>
      </trkpt>
      <trkpt lat="45.50274" lon="6.23944">
        <ele>914</ele>
        <time>2024-06-05T23:20:25+00:00</time>
      </trkpt>
      <trkpt lat="45.50281" lon="6.23964">
        <ele>918</ele>
        <time>2024-06-05T23:20:28+00:00</time>
      </trkpt>
      <trkpt lat="45.50287" lon="6.23978">
        <ele>918</ele>
        <time>2024-06-05T23:20:31+00:00</time>
      </trkpt>
      <trkpt lat="45.50293" lon="6.23988">
        <ele>921</ele>
        <time>2024-06-05T23:20:34+00:00</time>
      </trkpt>
      <trkpt lat="45.50304" lon="6.23997">
        <ele>922</ele>
        <time>2024-06-05T23:20:37+00:00</time>
      </trkpt>
      <trkpt lat="45.50314" lon="6.24006">
        <ele>925</ele>
        <time>2024-06-05T23:20:40+00:00</time>
      </trkpt>
      <trkpt lat="45.5032" lon="6.24016">
        <ele>925</ele>
        <time>2024-06-05T23:20:43+00:00</time>
      </trkpt>
      <trkpt lat="45.50323" lon="6.24023">
        <ele>927</ele>
        <time>2024-06-05T23:20:46+00:00</time>
      </trkpt>
      <trkpt lat="45.50324" lon="6.24033">
        <ele>928</ele>
        <time>2024-06-05T23:20:49+00:00</time>
      </trkpt>
      <trkpt lat="45.50324" lon="6.24041">
        <ele>928</ele>
        <time>2024-06-05T23:20:52+00:00</time>
      </trkpt>
      <trkpt lat="45.50326" lon="6.24057">
        <ele>928</ele>
        <time>2024-06-05T23:20:55+00:00</time>
      </trkpt>
      <trkpt lat="45.50327" lon="6.24075">
        <ele>929</ele>
        <time>2024-06-05T23:20:58+00:00</time>
      </trkpt>
      <trkpt lat="45.50328" lon="6.24086">
        <ele>930</ele>
        <time>2024-06-05T23:21:01+00:00</time>
      </trkpt>
      <trkpt lat="45.50331" lon="6.241">
        <ele>934</ele>
        <time>2024-06-05T23:21:04+00:00</time>
      </trkpt>
      <trkpt lat="45.50334" lon="6.2411">
        <ele>934</ele>
        <time>2024-06-05T23:21:07+00:00</time>
      </trkpt>
      <trkpt lat="45.50336" lon="6.24122">
        <ele>934</ele>
        <time>2024-06-05T23:21:10+00:00</time>
      </trkpt>
      <trkpt lat="45.50337" lon="6.24135">
        <ele>934</ele>
        <time>2024-06-05T23:21:13+00:00</time>
      </trkpt>
      <trkpt lat="45.50337" lon="6.24155">
        <ele>937</ele>
        <time>2024-06-05T23:21:16+00:00</time>
      </trkpt>
      <trkpt lat="45.50339" lon="6.24186">
        <ele>940</ele>
        <time>2024-06-05T23:21:19+00:00</time>
      </trkpt>
      <trkpt lat="45.5034" lon="6.24207">
        <ele>945</ele>
        <time>2024-06-05T23:21:22+00:00</time>
      </trkpt>
      <trkpt lat="45.50339" lon="6.24226">
        <ele>942</ele>
        <time>2024-06-05T23:21:25+00:00</time>
      </trkpt>
      <trkpt lat="45.50338" lon="6.24241">
        <ele>943</ele>
        <time>2024-06-05T23:21:28+00:00</time>
      </trkpt>
      <trkpt lat="45.50339" lon="6.24252">
        <ele>943</ele>
        <time>2024-06-05T23:21:31+00:00</time>
      </trkpt>
      <trkpt lat="45.50349" lon="6.24255">
        <ele>947</ele>
        <time>2024-06-05T23:21:34+00:00</time>
      </trkpt>
      <trkpt lat="45.50352" lon="6.24243">
        <ele>950</ele>
        <time>2024-06-05T23:21:37+00:00</time>
      </trkpt>
      <trkpt lat="45.50352" lon="6.24229">
        <ele>950</ele>
        <time>2024-06-05T23:21:40+00:00</time>
      </trkpt>
      <trkpt lat="45.50352" lon="6.24223">
        <ele>950</ele>
        <time>2024-06-05T23:21:43+00:00</time>
      </trkpt>
      <trkpt lat="45.50355" lon="6.24213">
        <ele>949</ele>
        <time>2024-06-05T23:21:46+00:00</time>
      </trkpt>
      <trkpt lat="45.5036" lon="6.24202">
        <ele>952</ele>
        <time>2024-06-05T23:21:49+00:00</time>
      </trkpt>
      <trkpt lat="45.5037" lon="6.24187">
        <ele>950</ele>
        <time>2024-06-05T23:21:52+00:00</time>
      </trkpt>
      <trkpt lat="45.50381" lon="6.24176">
        <ele>956</ele>
        <time>2024-06-05T23:21:55+00:00</time>
      </trkpt>
      <trkpt lat="45.50398" lon="6.24159">
        <ele>957</ele>
        <time>2024-06-05T23:21:58+00:00</time>
      </trkpt>
      <trkpt lat="45.50409" lon="6.2415">
        <ele>959</ele>
        <time>2024-06-05T23:22:01+00:00</time>
      </trkpt>
      <trkpt lat="45.50413" lon="6.24146">
        <ele>961</ele>
        <time>2024-06-05T23:22:04+00:00</time>
      </trkpt>
      <trkpt lat="45.50425" lon="6.2413">
        <ele>962</ele>
        <time>2024-06-05T23:22:07+00:00</time>
      </trkpt>
      <trkpt lat="45.50432" lon="6.2412">
        <ele>965</ele>
        <time>2024-06-05T23:22:10+00:00</time>
      </trkpt>
      <trkpt lat="45.50437" lon="6.24107">
        <ele>965</ele>
        <time>2024-06-05T23:22:13+00:00</time>
      </trkpt>
      <trkpt lat="45.50442" lon="6.24086">
        <ele>968</ele>
        <time>2024-06-05T23:22:16+00:00</time>
      </trkpt>
      <trkpt lat="45.50448" lon="6.24063">
        <ele>968</ele>
        <time>2024-06-05T23:22:19+00:00</time>
      </trkpt>
      <trkpt lat="45.50448" lon="6.24053">
        <ele>969</ele>
        <time>2024-06-05T23:22:22+00:00</time>
      </trkpt>
      <trkpt lat="45.50448" lon="6.24041">
        <ele>970</ele>
        <time>2024-06-05T23:22:25+00:00</time>
      </trkpt>
      <trkpt lat="45.50442" lon="6.24031">
        <ele>971</ele>
        <time>2024-06-05T23:22:28+00:00</time>
      </trkpt>
      <trkpt lat="45.50437" lon="6.2402">
        <ele>970</ele>
        <time>2024-06-05T23:22:31+00:00</time>
      </trkpt>
      <trkpt lat="45.50437" lon="6.24014">
        <ele>972</ele>
        <time>2024-06-05T23:22:34+00:00</time>
      </trkpt>
      <trkpt lat="45.50436" lon="6.24011">
        <ele>972</ele>
        <time>2024-06-05T23:22:37+00:00</time>
      </trkpt>
      <trkpt lat="45.50442" lon="6.24001">
        <ele>973</ele>
        <time>2024-06-05T23:22:40+00:00</time>
      </trkpt>
      <trkpt lat="45.50451" lon="6.24003">
        <ele>975</ele>
        <time>2024-06-05T23:22:43+00:00</time>
      </trkpt>
      <trkpt lat="45.50453" lon="6.24006">
        <ele>975</ele>
        <time>2024-06-05T23:22:46+00:00</time>
      </trkpt>
      <trkpt lat="45.50453" lon="6.24016">
        <ele>975</ele>
        <time>2024-06-05T23:22:49+00:00</time>
      </trkpt>
      <trkpt lat="45.50453" lon="6.24029">
        <ele>972</ele>
        <time>2024-06-05T23:22:52+00:00</time>
      </trkpt>
      <trkpt lat="45.50456" lon="6.24045">
        <ele>973</ele>
        <time>2024-06-05T23:22:55+00:00</time>
      </trkpt>
      <trkpt lat="45.5046" lon="6.24054">
        <ele>972</ele>
        <time>2024-06-05T23:22:58+00:00</time>
      </trkpt>
      <trkpt lat="45.5047" lon="6.24064">
        <ele>977</ele>
        <time>2024-06-05T23:23:01+00:00</time>
      </trkpt>
      <trkpt lat="45.50483" lon="6.24076">
        <ele>979</ele>
        <time>2024-06-05T23:23:04+00:00</time>
      </trkpt>
      <trkpt lat="45.50501" lon="6.24095">
        <ele>980</ele>
        <time>2024-06-05T23:23:07+00:00</time>
      </trkpt>
      <trkpt lat="45.50517" lon="6.24112">
        <ele>982</ele>
        <time>2024-06-05T23:23:10+00:00</time>
      </trkpt>
      <trkpt lat="45.50524" lon="6.24126">
        <ele>987</ele>
        <time>2024-06-05T23:23:13+00:00</time>
      </trkpt>
      <trkpt lat="45.50532" lon="6.24143">
        <ele>989</ele>
        <time>2024-06-05T23:23:16+00:00</time>
      </trkpt>
      <trkpt lat="45.50536" lon="6.24165">
        <ele>989</ele>
        <time>2024-06-05T23:23:19+00:00</time>
      </trkpt>
      <trkpt lat="45.5054" lon="6.24191">
        <ele>993</ele>
        <time>2024-06-05T23:23:22+00:00</time>
      </trkpt>
      <trkpt lat="45.50546" lon="6.24205">
        <ele>993</ele>
        <time>2024-06-05T23:23:25+00:00</time>
      </trkpt>
      <trkpt lat="45.50551" lon="6.24216">
        <ele>998</ele>
        <time>2024-06-05T23:23:28+00:00</time>
      </trkpt>
      <trkpt lat="45.50556" lon="6.24228">
        <ele>997</ele>
        <time>2024-06-05T23:23:31+00:00</time>
      </trkpt>
      <trkpt lat="45.5056" lon="6.24237">
        <ele>997</ele>
        <time>2024-06-05T23:23:34+00:00</time>
      </trkpt>
      <trkpt lat="45.50561" lon="6.24246">
        <ele>997</ele>
        <time>2024-06-05T23:23:37+00:00</time>
      </trkpt>
      <trkpt lat="45.50559" lon="6.24256">
        <ele>997</ele>
        <time>2024-06-05T23:23:40+00:00</time>
      </trkpt>
      <trkpt lat="45.50553" lon="6.24268">
        <ele>999</ele>
        <time>2024-06-05T23:23:43+00:00</time>
      </trkpt>
      <trkpt lat="45.50547" lon="6.24278">
        <ele>998</ele>
        <time>2024-06-05T23:23:46+00:00</time>
      </trkpt>
      <trkpt lat="45.50541" lon="6.24288">
        <ele>998</ele>
        <time>2024-06-05T23:23:49+00:00</time>
      </trkpt>
      <trkpt lat="45.50538" lon="6.243">
        <ele>997</ele>
        <time>2024-06-05T23:23:52+00:00</time>
      </trkpt>
      <trkpt lat="45.50537" lon="6.24311">
        <ele>999</ele>
        <time>2024-06-05T23:23:55+00:00</time>
      </trkpt>
      <trkpt lat="45.50547" lon="6.24322">
        <ele>1003</ele>
        <time>2024-06-05T23:23:58+00:00</time>
      </trkpt>
      <trkpt lat="45.50562" lon="6.24338">
        <ele>1009</ele>
        <time>2024-06-05T23:24:01+00:00</time>
      </trkpt>
      <trkpt lat="45.50569" lon="6.24349">
        <ele>1010</ele>
        <time>2024-06-05T23:24:04+00:00</time>
      </trkpt>
      <trkpt lat="45.50576" lon="6.24365">
        <ele>1016</ele>
        <time>2024-06-05T23:24:07+00:00</time>
      </trkpt>
      <trkpt lat="45.50586" lon="6.24383">
        <ele>1021</ele>
        <time>2024-06-05T23:24:10+00:00</time>
      </trkpt>
      <trkpt lat="45.50598" lon="6.24406">
        <ele>1025</ele>
        <time>2024-06-05T23:24:13+00:00</time>
      </trkpt>
      <trkpt lat="45.50614" lon="6.24434">
        <ele>1031</ele>
        <time>2024-06-05T23:24:16+00:00</time>
      </trkpt>
      <trkpt lat="45.50631" lon="6.24467">
        <ele>1040</ele>
        <time>2024-06-05T23:24:19+00:00</time>
      </trkpt>
      <trkpt lat="45.50652" lon="6.24504">
        <ele>1050</ele>
        <time>2024-06-05T23:24:22+00:00</time>
      </trkpt>
      <trkpt lat="45.50662" lon="6.24515">
        <ele>1052</ele>
        <time>2024-06-05T23:24:25+00:00</time>
      </trkpt>
      <trkpt lat="45.50688" lon="6.24545">
        <ele>1060</ele>
        <time>2024-06-05T23:24:28+00:00</time>
      </trkpt>
      <trkpt lat="45.50706" lon="6.24568">
        <ele>1066</ele>
        <time>2024-06-05T23:24:31+00:00</time>
      </trkpt>
      <trkpt lat="45.50715" lon="6.24574">
        <ele>1070</ele>
        <time>2024-06-05T23:24:34+00:00</time>
      </trkpt>
      <trkpt lat="45.50722" lon="6.24583">
        <ele>1073</ele>
        <time>2024-06-05T23:24:37+00:00</time>
      </trkpt>
      <trkpt lat="45.5073" lon="6.2459">
        <ele>1073</ele>
        <time>2024-06-05T23:24:40+00:00</time>
      </trkpt>
      <trkpt lat="45.50739" lon="6.24591">
        <ele>1077</ele>
        <time>2024-06-05T23:24:43+00:00</time>
      </trkpt>
      <trkpt lat="45.50748" lon="6.24593">
        <ele>1080</ele>
        <time>2024-06-05T23:24:46+00:00</time>
      </trkpt>
      <trkpt lat="45.50756" lon="6.24606">
        <ele>1083</ele>
        <time>2024-06-05T23:24:49+00:00</time>
      </trkpt>
      <trkpt lat="45.50763" lon="6.24619">
        <ele>1087</ele>
        <time>2024-06-05T23:24:52+00:00</time>
      </trkpt>
      <trkpt lat="45.50768" lon="6.24627">
        <ele>1087</ele>
        <time>2024-06-05T23:24:55+00:00</time>
      </trkpt>
      <trkpt lat="45.50784" lon="6.24641">
        <ele>1098</ele>
        <time>2024-06-05T23:24:58+00:00</time>
      </trkpt>
      <trkpt lat="45.50792" lon="6.24655">
        <ele>1101</ele>
        <time>2024-06-05T23:25:01+00:00</time>
      </trkpt>
      <trkpt lat="45.50798" lon="6.2467">
        <ele>1102</ele>
        <time>2024-06-05T23:25:04+00:00</time>
      </trkpt>
      <trkpt lat="45.50802" lon="6.24686">
        <ele>1110</ele>
        <time>2024-06-05T23:25:07+00:00</time>
      </trkpt>
      <trkpt lat="45.50803" lon="6.24709">
        <ele>1111</ele>
        <time>2024-06-05T23:25:10+00:00</time>
      </trkpt>
      <trkpt lat="45.50803" lon="6.2473">
        <ele>1113</ele>
        <time>2024-06-05T23:25:13+00:00</time>
      </trkpt>
      <trkpt lat="45.50804" lon="6.24746">
        <ele>1114</ele>
        <time>2024-06-05T23:25:16+00:00</time>
      </trkpt>
      <trkpt lat="45.50808" lon="6.24759">
        <ele>1115</ele>
        <time>2024-06-05T23:25:19+00:00</time>
      </trkpt>
      <trkpt lat="45.50817" lon="6.24774">
        <ele>1117</ele>
        <time>2024-06-05T23:25:22+00:00</time>
      </trkpt>
      <trkpt lat="45.50827" lon="6.24786">
        <ele>1119</ele>
        <time>2024-06-05T23:25:25+00:00</time>
      </trkpt>
      <trkpt lat="45.50835" lon="6.24794">
        <ele>1122</ele>
        <time>2024-06-05T23:25:28+00:00</time>
      </trkpt>
      <trkpt lat="45.50843" lon="6.24797">
        <ele>1125</ele>
        <time>2024-06-05T23:25:31+00:00</time>
      </trkpt>
      <trkpt lat="45.50852" lon="6.24796">
        <ele>1126</ele>
        <time>2024-06-05T23:25:34+00:00</time>
      </trkpt>
      <trkpt lat="45.50858" lon="6.24804">
        <ele>1125</ele>
        <time>2024-06-05T23:25:37+00:00</time>
      </trkpt>
      <trkpt lat="45.50868" lon="6.24818">
        <ele>1127</ele>
        <time>2024-06-05T23:25:40+00:00</time>
      </trkpt>
      <trkpt lat="45.50877" lon="6.24839">
        <ele>1130</ele>
        <time>2024-06-05T23:25:43+00:00</time>
      </trkpt>
      <trkpt lat="45.50888" lon="6.24869">
        <ele>1135</ele>
        <time>2024-06-05T23:25:46+00:00</time>
      </trkpt>
      <trkpt lat="45.50895" lon="6.24892">
        <ele>1142</ele>
        <time>2024-06-05T23:25:49+00:00</time>
      </trkpt>
      <trkpt lat="45.50895" lon="6.24916">
        <ele>1145</ele>
        <time>2024-06-05T23:25:52+00:00</time>
      </trkpt>
      <trkpt lat="45.50905" lon="6.2494">
        <ele>1150</ele>
        <time>2024-06-05T23:25:55+00:00</time>
      </trkpt>
      <trkpt lat="45.50919" lon="6.24972">
        <ele>1157</ele>
        <time>2024-06-05T23:25:58+00:00</time>
      </trkpt>
      <trkpt lat="45.50932" lon="6.25003">
        <ele>1169</ele>
        <time>2024-06-05T23:26:01+00:00</time>
      </trkpt>
      <trkpt lat="45.50946" lon="6.25037">
        <ele>1178</ele>
        <time>2024-06-05T23:26:04+00:00</time>
      </trkpt>
      <trkpt lat="45.50969" lon="6.25082">
        <ele>1189</ele>
        <time>2024-06-05T23:26:07+00:00</time>
      </trkpt>
      <trkpt lat="45.50981" lon="6.25125">
        <ele>1194</ele>
        <time>2024-06-05T23:26:10+00:00</time>
      </trkpt>
      <trkpt lat="45.50992" lon="6.2514">
        <ele>1203</ele>
        <time>2024-06-05T23:26:13+00:00</time>
      </trkpt>
      <trkpt lat="45.50996" lon="6.25163">
        <ele>1199</ele>
        <time>2024-06-05T23:26:16+00:00</time>
      </trkpt>
      <trkpt lat="45.50999" lon="6.25212">
        <ele>1202</ele>
        <time>2024-06-05T23:26:19+00:00</time>
      </trkpt>
      <trkpt lat="45.5101" lon="6.25234">
        <ele>1213</ele>
        <time>2024-06-05T23:26:22+00:00</time>
      </trkpt>
      <trkpt lat="45.51021" lon="6.25259">
        <ele>1214</ele>
        <time>2024-06-05T23:26:25+00:00</time>
      </trkpt>
      <trkpt lat="45.51035" lon="6.25292">
        <ele>1216</ele>
        <time>2024-06-05T23:26:28+00:00</time>
      </trkpt>
      <trkpt lat="45.51055" lon="6.25337">
        <ele>1225</ele>
        <time>2024-06-05T23:26:31+00:00</time>
      </trkpt>
      <trkpt lat="45.51058" lon="6.25354">
        <ele>1225</ele>
        <time>2024-06-05T23:26:34+00:00</time>
      </trkpt>
      <trkpt lat="45.51063" lon="6.25379">
        <ele>1231</ele>
        <time>2024-06-05T23:26:37+00:00</time>
      </trkpt>
      <trkpt lat="45.51079" lon="6.25379">
        <ele>1231</ele>
        <time>2024-06-05T23:26:40+00:00</time>
      </trkpt>
      <trkpt lat="45.51084" lon="6.25389">
        <ele>1231</ele>
        <time>2024-06-05T23:26:43+00:00</time>
      </trkpt>
      <trkpt lat="45.51089" lon="6.25417">
        <ele>1231</ele>
        <time>2024-06-05T23:26:46+00:00</time>
      </trkpt>
      <trkpt lat="45.51093" lon="6.25445">
        <ele>1232</ele>
        <time>2024-06-05T23:26:49+00:00</time>
      </trkpt>
      <trkpt lat="45.511" lon="6.25463">
        <ele>1230</ele>
        <time>2024-06-05T23:26:52+00:00</time>
      </trkpt>
      <trkpt lat="45.51102" lon="6.25485">
        <ele>1237</ele>
        <time>2024-06-05T23:26:55+00:00</time>
      </trkpt>
      <trkpt lat="45.51101" lon="6.25523">
        <ele>1240</ele>
        <time>2024-06-05T23:26:58+00:00</time>
      </trkpt>
      <trkpt lat="45.51105" lon="6.25551">
        <ele>1240</ele>
        <time>2024-06-05T23:27:01+00:00</time>
      </trkpt>
      <trkpt lat="45.51108" lon="6.25581">
        <ele>1240</ele>
        <time>2024-06-05T23:27:04+00:00</time>
      </trkpt>
      <trkpt lat="45.51112" lon="6.25603">
        <ele>1246</ele>
        <time>2024-06-05T23:27:07+00:00</time>
      </trkpt>
      <trkpt lat="45.5112" lon="6.2562">
        <ele>1240</ele>
        <time>2024-06-05T23:27:10+00:00</time>
      </trkpt>
      <trkpt lat="45.51123" lon="6.25629">
        <ele>1245</ele>
        <time>2024-06-05T23:27:13+00:00</time>
      </trkpt>
      <trkpt lat="45.51124" lon="6.25641">
        <ele>1241</ele>
        <time>2024-06-05T23:27:16+00:00</time>
      </trkpt>
      <trkpt lat="45.51118" lon="6.25659">
        <ele>1240</ele>
        <time>2024-06-05T23:27:19+00:00</time>
      </trkpt>
      <trkpt lat="45.51114" lon="6.25681">
        <ele>1245</ele>
        <time>2024-06-05T23:27:22+00:00</time>
      </trkpt>
      <trkpt lat="45.51111" lon="6.257">
        <ele>1239</ele>
        <time>2024-06-05T23:27:25+00:00</time>
      </trkpt>
      <trkpt lat="45.51115" lon="6.25723">
        <ele>1239</ele>
        <time>2024-06-05T23:27:28+00:00</time>
      </trkpt>
      <trkpt lat="45.51116" lon="6.25745">
        <ele>1239</ele>
        <time>2024-06-05T23:27:31+00:00</time>
      </trkpt>
      <trkpt lat="45.51114" lon="6.25764">
        <ele>1236</ele>
        <time>2024-06-05T23:27:34+00:00</time>
      </trkpt>
      <trkpt lat="45.51111" lon="6.25775">
        <ele>1239</ele>
        <time>2024-06-05T23:27:37+00:00</time>
      </trkpt>
      <trkpt lat="45.5109" lon="6.25791">
        <ele>1240</ele>
        <time>2024-06-05T23:27:40+00:00</time>
      </trkpt>
      <trkpt lat="45.51081" lon="6.25804">
        <ele>1246</ele>
        <time>2024-06-05T23:27:43+00:00</time>
      </trkpt>
      <trkpt lat="45.51079" lon="6.25815">
        <ele>1242</ele>
        <time>2024-06-05T23:27:46+00:00</time>
      </trkpt>
      <trkpt lat="45.51078" lon="6.25833">
        <ele>1236</ele>
        <time>2024-06-05T23:27:49+00:00</time>
      </trkpt>
      <trkpt lat="45.51081" lon="6.25854">
        <ele>1242</ele>
        <time>2024-06-05T23:27:52+00:00</time>
      </trkpt>
      <trkpt lat="45.51088" lon="6.25882">
        <ele>1249</ele>
        <time>2024-06-05T23:27:55+00:00</time>
      </trkpt>
      <trkpt lat="45.51091" lon="6.25907">
        <ele>1252</ele>
        <time>2024-06-05T23:27:58+00:00</time>
      </trkpt>
      <trkpt lat="45.51091" lon="6.25929">
        <ele>1250</ele>
        <time>2024-06-05T23:28:01+00:00</time>
      </trkpt>
      <trkpt lat="45.5109" lon="6.25952">
        <ele>1251</ele>
        <time>2024-06-05T23:28:04+00:00</time>
      </trkpt>
      <trkpt lat="45.51092" lon="6.25977">
        <ele>1252</ele>
        <time>2024-06-05T23:28:07+00:00</time>
      </trkpt>
      <trkpt lat="45.51095" lon="6.25989">
        <ele>1252</ele>
        <time>2024-06-05T23:28:10+00:00</time>
      </trkpt>
      <trkpt lat="45.51105" lon="6.26009">
        <ele>1258</ele>
        <time>2024-06-05T23:28:13+00:00</time>
      </trkpt>
      <trkpt lat="45.51121" lon="6.26029">
        <ele>1262</ele>
        <time>2024-06-05T23:28:16+00:00</time>
      </trkpt>
      <trkpt lat="45.51146" lon="6.26058">
        <ele>1262</ele>
        <time>2024-06-05T23:28:19+00:00</time>
      </trkpt>
      <trkpt lat="45.51153" lon="6.26062">
        <ele>1262</ele>
        <time>2024-06-05T23:28:22+00:00</time>
      </trkpt>
      <trkpt lat="45.51158" lon="6.26058">
        <ele>1264</ele>
        <time>2024-06-05T23:28:25+00:00</time>
      </trkpt>
      <trkpt lat="45.51165" lon="6.2604">
        <ele>1270</ele>
        <time>2024-06-05T23:28:28+00:00</time>
      </trkpt>
      <trkpt lat="45.51172" lon="6.26021">
        <ele>1272</ele>
        <time>2024-06-05T23:28:31+00:00</time>
      </trkpt>
      <trkpt lat="45.5118" lon="6.26015">
        <ele>1277</ele>
        <time>2024-06-05T23:28:34+00:00</time>
      </trkpt>
      <trkpt lat="45.51191" lon="6.26015">
        <ele>1281</ele>
        <time>2024-06-05T23:28:37+00:00</time>
      </trkpt>
      <trkpt lat="45.51207" lon="6.26018">
        <ele>1283</ele>
        <time>2024-06-05T23:28:40+00:00</time>
      </trkpt>
      <trkpt lat="45.51244" lon="6.2604">
        <ele>1293</ele>
        <time>2024-06-05T23:28:43+00:00</time>
      </trkpt>
      <trkpt lat="45.51273" lon="6.26057">
        <ele>1301</ele>
        <time>2024-06-05T23:28:46+00:00</time>
      </trkpt>
      <trkpt lat="45.51289" lon="6.26063">
        <ele>1303</ele>
        <time>2024-06-05T23:28:49+00:00</time>
      </trkpt>
      <trkpt lat="45.51303" lon="6.26067">
        <ele>1306</ele>
        <time>2024-06-05T23:28:52+00:00</time>
      </trkpt>
      <trkpt lat="45.51327" lon="6.26062">
        <ele>1307</ele>
        <time>2024-06-05T23:28:55+00:00</time>
      </trkpt>
      <trkpt lat="45.51339" lon="6.26064">
        <ele>1308</ele>
        <time>2024-06-05T23:28:58+00:00</time>
      </trkpt>
      <trkpt lat="45.51346" lon="6.26071">
        <ele>1309</ele>
        <time>2024-06-05T23:29:01+00:00</time>
      </trkpt>
      <trkpt lat="45.51352" lon="6.26086">
        <ele>1311</ele>
        <time>2024-06-05T23:29:04+00:00</time>
      </trkpt>
      <trkpt lat="45.51363" lon="6.26098">
        <ele>1312</ele>
        <time>2024-06-05T23:29:07+00:00</time>
      </trkpt>
      <trkpt lat="45.51368" lon="6.26112">
        <ele>1313</ele>
        <time>2024-06-05T23:29:10+00:00</time>
      </trkpt>
      <trkpt lat="45.5138" lon="6.2613">
        <ele>1313</ele>
        <time>2024-06-05T23:29:13+00:00</time>
      </trkpt>
      <trkpt lat="45.51389" lon="6.26139">
        <ele>1313</ele>
        <time>2024-06-05T23:29:16+00:00</time>
      </trkpt>
      <trkpt lat="45.51396" lon="6.2615">
        <ele>1313</ele>
        <time>2024-06-05T23:29:19+00:00</time>
      </trkpt>
      <trkpt lat="45.51396" lon="6.26168">
        <ele>1314</ele>
        <time>2024-06-05T23:29:22+00:00</time>
      </trkpt>
      <trkpt lat="45.51395" lon="6.26185">
        <ele>1313</ele>
        <time>2024-06-05T23:29:25+00:00</time>
      </trkpt>
      <trkpt lat="45.51395" lon="6.26185">
        <ele>1315</ele>
        <time>2024-06-05T23:29:28+00:00</time>
      </trkpt>
      <trkpt lat="45.51395" lon="6.26185">
        <ele>1315</ele>
        <time>2024-06-05T23:29:31+00:00</time>
      </trkpt>
      <trkpt lat="45.51403" lon="6.262">
        <ele>1313</ele>
        <time>2024-06-05T23:29:34+00:00</time>
      </trkpt>
      <trkpt lat="45.51405" lon="6.26218">
        <ele>1313</ele>
        <time>2024-06-05T23:29:37+00:00</time>
      </trkpt>
      <trkpt lat="45.51412" lon="6.26229">
        <ele>1316</ele>
        <time>2024-06-05T23:29:40+00:00</time>
      </trkpt>
      <trkpt lat="45.5141" lon="6.26247">
        <ele>1316</ele>
        <time>2024-06-05T23:29:43+00:00</time>
      </trkpt>
      <trkpt lat="45.51418" lon="6.26239">
        <ele>1319</ele>
        <time>2024-06-05T23:29:46+00:00</time>
      </trkpt>
      <trkpt lat="45.51429" lon="6.26228">
        <ele>1319</ele>
        <time>2024-06-05T23:29:49+00:00</time>
      </trkpt>
      <trkpt lat="45.51436" lon="6.26224">
        <ele>1323</ele>
        <time>2024-06-05T23:29:52+00:00</time>
      </trkpt>
      <trkpt lat="45.51441" lon="6.26222">
        <ele>1325</ele>
        <time>2024-06-05T23:29:55+00:00</time>
      </trkpt>
      <trkpt lat="45.51447" lon="6.26223">
        <ele>1325</ele>
        <time>2024-06-05T23:29:58+00:00</time>
      </trkpt>
      <trkpt lat="45.51455" lon="6.26223">
        <ele>1326</ele>
        <time>2024-06-05T23:30:01+00:00</time>
      </trkpt>
      <trkpt lat="45.51456" lon="6.26223">
        <ele>1326</ele>
        <time>2024-06-05T23:30:04+00:00</time>
      </trkpt>
      <trkpt lat="45.51464" lon="6.26227">
        <ele>1327</ele>
        <time>2024-06-05T23:30:07+00:00</time>
      </trkpt>
      <trkpt lat="45.5147" lon="6.26233">
        <ele>1328</ele>
        <time>2024-06-05T23:30:10+00:00</time>
      </trkpt>
      <trkpt lat="45.51478" lon="6.26251">
        <ele>1330</ele>
        <time>2024-06-05T23:30:13+00:00</time>
      </trkpt>
      <trkpt lat="45.51488" lon="6.26268">
        <ele>1331</ele>
        <time>2024-06-05T23:30:16+00:00</time>
      </trkpt>
      <trkpt lat="45.51492" lon="6.26273">
        <ele>1331</ele>
        <time>2024-06-05T23:30:19+00:00</time>
      </trkpt>
      <trkpt lat="45.51496" lon="6.26276">
        <ele>1331</ele>
        <time>2024-06-05T23:30:22+00:00</time>
      </trkpt>
      <trkpt lat="45.515" lon="6.26277">
        <ele>1331</ele>
        <time>2024-06-05T23:30:25+00:00</time>
      </trkpt>
      <trkpt lat="45.51507" lon="6.26279">
        <ele>1331</ele>
        <time>2024-06-05T23:30:28+00:00</time>
      </trkpt>
      <trkpt lat="45.51511" lon="6.26253">
        <ele>1331</ele>
        <time>2024-06-05T23:30:31+00:00</time>
      </trkpt>
      <trkpt lat="45.51511" lon="6.26241">
        <ele>1331</ele>
        <time>2024-06-05T23:30:34+00:00</time>
      </trkpt>
      <trkpt lat="45.51507" lon="6.26224">
        <ele>1330</ele>
        <time>2024-06-05T23:30:37+00:00</time>
      </trkpt>
      <trkpt lat="45.51503" lon="6.26213">
        <ele>1331</ele>
        <time>2024-06-05T23:30:40+00:00</time>
      </trkpt>
      <trkpt lat="45.51499" lon="6.26198">
        <ele>1330</ele>
        <time>2024-06-05T23:30:43+00:00</time>
      </trkpt>
      <trkpt lat="45.51497" lon="6.26186">
        <ele>1331</ele>
        <time>2024-06-05T23:30:46+00:00</time>
      </trkpt>
      <trkpt lat="45.51497" lon="6.26168">
        <ele>1331</ele>
        <time>2024-06-05T23:30:49+00:00</time>
      </trkpt>
      <trkpt lat="45.51499" lon="6.26158">
        <ele>1329</ele>
        <time>2024-06-05T23:30:52+00:00</time>
      </trkpt>
      <trkpt lat="45.51505" lon="6.26147">
        <ele>1330</ele>
        <time>2024-06-05T23:30:55+00:00</time>
      </trkpt>
      <trkpt lat="45.51511" lon="6.26139">
        <ele>1329</ele>
        <time>2024-06-05T23:30:58+00:00</time>
      </trkpt>
      <trkpt lat="45.51519" lon="6.2613">
        <ele>1329</ele>
        <time>2024-06-05T23:31:01+00:00</time>
      </trkpt>
      <trkpt lat="45.51524" lon="6.26124">
        <ele>1330</ele>
        <time>2024-06-05T23:31:04+00:00</time>
      </trkpt>
      <trkpt lat="45.51529" lon="6.26111">
        <ele>1329</ele>
        <time>2024-06-05T23:31:07+00:00</time>
      </trkpt>
      <trkpt lat="45.51533" lon="6.26093">
        <ele>1331</ele>
        <time>2024-06-05T23:31:10+00:00</time>
      </trkpt>
      <trkpt lat="45.51538" lon="6.26076">
        <ele>1330</ele>
        <time>2024-06-05T23:31:13+00:00</time>
      </trkpt>
      <trkpt lat="45.51544" lon="6.26055">
        <ele>1332</ele>
        <time>2024-06-05T23:31:16+00:00</time>
      </trkpt>
      <trkpt lat="45.5155" lon="6.26036">
        <ele>1331</ele>
        <time>2024-06-05T23:31:19+00:00</time>
      </trkpt>
      <trkpt lat="45.51556" lon="6.26014">
        <ele>1332</ele>
        <time>2024-06-05T23:31:22+00:00</time>
      </trkpt>
      <trkpt lat="45.51561" lon="6.25994">
        <ele>1329</ele>
        <time>2024-06-05T23:31:25+00:00</time>
      </trkpt>
      <trkpt lat="45.51566" lon="6.25996">
        <ele>1329</ele>
        <time>2024-06-05T23:31:28+00:00</time>
      </trkpt>
      <trkpt lat="45.51574" lon="6.26001">
        <ele>1330</ele>
        <time>2024-06-05T23:31:31+00:00</time>
      </trkpt>
      <trkpt lat="45.51581" lon="6.26007">
        <ele>1327</ele>
        <time>2024-06-05T23:31:34+00:00</time>
      </trkpt>
      <trkpt lat="45.5159" lon="6.26017">
        <ele>1327</ele>
        <time>2024-06-05T23:31:37+00:00</time>
      </trkpt>
      <trkpt lat="45.51596" lon="6.26023">
        <ele>1330</ele>
        <time>2024-06-05T23:31:40+00:00</time>
      </trkpt>
      <trkpt lat="45.51607" lon="6.26028">
        <ele>1329</ele>
        <time>2024-06-05T23:31:43+00:00</time>
      </trkpt>
      <trkpt lat="45.51615" lon="6.2603">
        <ele>1327</ele>
        <time>2024-06-05T23:31:46+00:00</time>
      </trkpt>
      <trkpt lat="45.51622" lon="6.2603">
        <ele>1328</ele>
        <time>2024-06-05T23:31:49+00:00</time>
      </trkpt>
      <trkpt lat="45.51636" lon="6.26031">
        <ele>1331</ele>
        <time>2024-06-05T23:31:52+00:00</time>
      </trkpt>
      <trkpt lat="45.51649" lon="6.26035">
        <ele>1331</ele>
        <time>2024-06-05T23:31:55+00:00</time>
      </trkpt>
      <trkpt lat="45.51663" lon="6.26036">
        <ele>1331</ele>
        <time>2024-06-05T23:31:58+00:00</time>
      </trkpt>
      <trkpt lat="45.51671" lon="6.26036">
        <ele>1331</ele>
        <time>2024-06-05T23:32:01+00:00</time>
      </trkpt>
      <trkpt lat="45.51678" lon="6.26029">
        <ele>1328</ele>
        <time>2024-06-05T23:32:04+00:00</time>
      </trkpt>
      <trkpt lat="45.51684" lon="6.2602">
        <ele>1330</ele>
        <time>2024-06-05T23:32:07+00:00</time>
      </trkpt>
      <trkpt lat="45.51689" lon="6.2601">
        <ele>1328</ele>
        <time>2024-06-05T23:32:10+00:00</time>
      </trkpt>
      <trkpt lat="45.51694" lon="6.25994">
        <ele>1331</ele>
        <time>2024-06-05T23:32:13+00:00</time>
      </trkpt>
      <trkpt lat="45.51723" lon="6.25984">
        <ele>1332</ele>
        <time>2024-06-05T23:32:16+00:00</time>
      </trkpt>
      <trkpt lat="45.5173" lon="6.25984">
        <ele>1332</ele>
        <time>2024-06-05T23:32:19+00:00</time>
      </trkpt>
      <trkpt lat="45.51734" lon="6.25984">
        <ele>1332</ele>
        <time>2024-06-05T23:32:22+00:00</time>
      </trkpt>
      <trkpt lat="45.51748" lon="6.2598">
        <ele>1333</ele>
        <time>2024-06-05T23:32:25+00:00</time>
      </trkpt>
      <trkpt lat="45.51761" lon="6.2598">
        <ele>1334</ele>
        <time>2024-06-05T23:32:28+00:00</time>
      </trkpt>
      <trkpt lat="45.5177" lon="6.25983">
        <ele>1334</ele>
        <time>2024-06-05T23:32:31+00:00</time>
      </trkpt>
      <trkpt lat="45.51788" lon="6.25993">
        <ele>1334</ele>
        <time>2024-06-05T23:32:34+00:00</time>
      </trkpt>
      <trkpt lat="45.51819" lon="6.26008">
        <ele>1334</ele>
        <time>2024-06-05T23:32:37+00:00</time>
      </trkpt>
      <trkpt lat="45.51834" lon="6.26016">
        <ele>1334</ele>
        <time>2024-06-05T23:32:40+00:00</time>
      </trkpt>
      <trkpt lat="45.51847" lon="6.2602">
        <ele>1337</ele>
        <time>2024-06-05T23:32:43+00:00</time>
      </trkpt>
      <trkpt lat="45.51859" lon="6.26018">
        <ele>1333</ele>
        <time>2024-06-05T23:32:46+00:00</time>
      </trkpt>
      <trkpt lat="45.51861" lon="6.26015">
        <ele>1336</ele>
        <time>2024-06-05T23:32:49+00:00</time>
      </trkpt>
      <trkpt lat="45.51871" lon="6.26003">
        <ele>1337</ele>
        <time>2024-06-05T23:32:52+00:00</time>
      </trkpt>
      <trkpt lat="45.51879" lon="6.25992">
        <ele>1335</ele>
        <time>2024-06-05T23:32:55+00:00</time>
      </trkpt>
      <trkpt lat="45.51893" lon="6.25986">
        <ele>1338</ele>
        <time>2024-06-05T23:32:58+00:00</time>
      </trkpt>
      <trkpt lat="45.51902" lon="6.25985">
        <ele>1337</ele>
        <time>2024-06-05T23:33:01+00:00</time>
      </trkpt>
      <trkpt lat="45.51911" lon="6.25986">
        <ele>1337</ele>
        <time>2024-06-05T23:33:04+00:00</time>
      </trkpt>
      <trkpt lat="45.51925" lon="6.25993">
        <ele>1338</ele>
        <time>2024-06-05T23:33:07+00:00</time>
      </trkpt>
      <trkpt lat="45.51937" lon="6.26002">
        <ele>1339</ele>
        <time>2024-06-05T23:33:10+00:00</time>
      </trkpt>
      <trkpt lat="45.5195" lon="6.26008">
        <ele>1338</ele>
        <time>2024-06-05T23:33:13+00:00</time>
      </trkpt>
      <trkpt lat="45.51967" lon="6.26007">
        <ele>1339</ele>
        <time>2024-06-05T23:33:16+00:00</time>
      </trkpt>
      <trkpt lat="45.51977" lon="6.26006">
        <ele>1339</ele>
        <time>2024-06-05T23:33:19+00:00</time>
      </trkpt>
      <trkpt lat="45.51987" lon="6.2601">
        <ele>1340</ele>
        <time>2024-06-05T23:33:22+00:00</time>
      </trkpt>
      <trkpt lat="45.51996" lon="6.26018">
        <ele>1339</ele>
        <time>2024-06-05T23:33:25+00:00</time>
      </trkpt>
      <trkpt lat="45.52003" lon="6.26028">
        <ele>1341</ele>
        <time>2024-06-05T23:33:28+00:00</time>
      </trkpt>
      <trkpt lat="45.52012" lon="6.26043">
        <ele>1340</ele>
        <time>2024-06-05T23:33:31+00:00</time>
      </trkpt>
      <trkpt lat="45.52018" lon="6.26052">
        <ele>1341</ele>
        <time>2024-06-05T23:33:34+00:00</time>
      </trkpt>
      <trkpt lat="45.52018" lon="6.26052">
        <ele>1341</ele>
        <time>2024-06-05T23:33:37+00:00</time>
      </trkpt>
      <trkpt lat="45.52021" lon="6.26054">
        <ele>1340</ele>
        <time>2024-06-05T23:33:40+00:00</time>
      </trkpt>
      <trkpt lat="45.52025" lon="6.26057">
        <ele>1340</ele>
        <time>2024-06-05T23:33:43+00:00</time>
      </trkpt>
      <trkpt lat="45.52034" lon="6.26058">
        <ele>1340</ele>
        <time>2024-06-05T23:33:46+00:00</time>
      </trkpt>
      <trkpt lat="45.52039" lon="6.26059">
        <ele>1340</ele>
        <time>2024-06-05T23:33:49+00:00</time>
      </trkpt>
      <trkpt lat="45.52045" lon="6.26059">
        <ele>1340</ele>
        <time>2024-06-05T23:33:52+00:00</time>
      </trkpt>
      <trkpt lat="45.52053" lon="6.26053">
        <ele>1340</ele>
        <time>2024-06-05T23:33:55+00:00</time>
      </trkpt>
      <trkpt lat="45.52069" lon="6.26053">
        <ele>1339</ele>
        <time>2024-06-05T23:33:58+00:00</time>
      </trkpt>
      <trkpt lat="45.52082" lon="6.2606">
        <ele>1340</ele>
        <time>2024-06-05T23:34:01+00:00</time>
      </trkpt>
      <trkpt lat="45.52091" lon="6.26066">
        <ele>1339</ele>
        <time>2024-06-05T23:34:04+00:00</time>
      </trkpt>
      <trkpt lat="45.52099" lon="6.26067">
        <ele>1339</ele>
        <time>2024-06-05T23:34:07+00:00</time>
      </trkpt>
      <trkpt lat="45.52108" lon="6.26069">
        <ele>1340</ele>
        <time>2024-06-05T23:34:10+00:00</time>
      </trkpt>
      <trkpt lat="45.52115" lon="6.26069">
        <ele>1339</ele>
        <time>2024-06-05T23:34:13+00:00</time>
      </trkpt>
      <trkpt lat="45.52132" lon="6.26046">
        <ele>1340</ele>
        <time>2024-06-05T23:34:16+00:00</time>
      </trkpt>
      <trkpt lat="45.5214" lon="6.26028">
        <ele>1341</ele>
        <time>2024-06-05T23:34:19+00:00</time>
      </trkpt>
      <trkpt lat="45.52153" lon="6.26007">
        <ele>1341</ele>
        <time>2024-06-05T23:34:22+00:00</time>
      </trkpt>
      <trkpt lat="45.52169" lon="6.25981">
        <ele>1342</ele>
        <time>2024-06-05T23:34:25+00:00</time>
      </trkpt>
      <trkpt lat="45.52179" lon="6.25966">
        <ele>1342</ele>
        <time>2024-06-05T23:34:28+00:00</time>
      </trkpt>
      <trkpt lat="45.52187" lon="6.25952">
        <ele>1342</ele>
        <time>2024-06-05T23:34:31+00:00</time>
      </trkpt>
      <trkpt lat="45.52199" lon="6.25937">
        <ele>1344</ele>
        <time>2024-06-05T23:34:34+00:00</time>
      </trkpt>
      <trkpt lat="45.52207" lon="6.25923">
        <ele>1345</ele>
        <time>2024-06-05T23:34:37+00:00</time>
      </trkpt>
      <trkpt lat="45.52217" lon="6.25917">
        <ele>1346</ele>
        <time>2024-06-05T23:34:40+00:00</time>
      </trkpt>
      <trkpt lat="45.52227" lon="6.25916">
        <ele>1345</ele>
        <time>2024-06-05T23:34:43+00:00</time>
      </trkpt>
      <trkpt lat="45.52238" lon="6.25915">
        <ele>1344</ele>
        <time>2024-06-05T23:34:46+00:00</time>
      </trkpt>
      <trkpt lat="45.52264" lon="6.25916">
        <ele>1340</ele>
        <time>2024-06-05T23:34:49+00:00</time>
      </trkpt>
      <trkpt lat="45.52289" lon="6.25918">
        <ele>1338</ele>
        <time>2024-06-05T23:34:52+00:00</time>
      </trkpt>
      <trkpt lat="45.52324" lon="6.25922">
        <ele>1335</ele>
        <time>2024-06-05T23:34:55+00:00</time>
      </trkpt>
      <trkpt lat="45.52353" lon="6.25928">
        <ele>1330</ele>
        <time>2024-06-05T23:34:58+00:00</time>
      </trkpt>
      <trkpt lat="45.52375" lon="6.25944">
        <ele>1327</ele>
        <time>2024-06-05T23:35:01+00:00</time>
      </trkpt>
      <trkpt lat="45.52404" lon="6.25976">
        <ele>1317</ele>
        <time>2024-06-05T23:35:04+00:00</time>
      </trkpt>
      <trkpt lat="45.52427" lon="6.25988">
        <ele>1317</ele>
        <time>2024-06-05T23:35:07+00:00</time>
      </trkpt>
      <trkpt lat="45.52447" lon="6.25995">
        <ele>1317</ele>
        <time>2024-06-05T23:35:10+00:00</time>
      </trkpt>
      <trkpt lat="45.52465" lon="6.26005">
        <ele>1317</ele>
        <time>2024-06-05T23:35:13+00:00</time>
      </trkpt>
      <trkpt lat="45.52476" lon="6.26015">
        <ele>1318</ele>
        <time>2024-06-05T23:35:16+00:00</time>
      </trkpt>
      <trkpt lat="45.52493" lon="6.26006">
        <ele>1316</ele>
        <time>2024-06-05T23:35:19+00:00</time>
      </trkpt>
      <trkpt lat="45.52524" lon="6.25987">
        <ele>1316</ele>
        <time>2024-06-05T23:35:22+00:00</time>
      </trkpt>
      <trkpt lat="45.52548" lon="6.25966">
        <ele>1314</ele>
        <time>2024-06-05T23:35:25+00:00</time>
      </trkpt>
      <trkpt lat="45.52572" lon="6.25912">
        <ele>1310</ele>
        <time>2024-06-05T23:35:28+00:00</time>
      </trkpt>
      <trkpt lat="45.52588" lon="6.25883">
        <ele>1308</ele>
        <time>2024-06-05T23:35:31+00:00</time>
      </trkpt>
      <trkpt lat="45.5263" lon="6.25852">
        <ele>1307</ele>
        <time>2024-06-05T23:35:34+00:00</time>
      </trkpt>
      <trkpt lat="45.52655" lon="6.25818">
        <ele>1297</ele>
        <time>2024-06-05T23:35:37+00:00</time>
      </trkpt>
      <trkpt lat="45.5268" lon="6.25802">
        <ele>1292</ele>
        <time>2024-06-05T23:35:40+00:00</time>
      </trkpt>
      <trkpt lat="45.52714" lon="6.2578">
        <ele>1286</ele>
        <time>2024-06-05T23:35:43+00:00</time>
      </trkpt>
      <trkpt lat="45.52743" lon="6.25771">
        <ele>1288</ele>
        <time>2024-06-05T23:35:46+00:00</time>
      </trkpt>
      <trkpt lat="45.52769" lon="6.2575">
        <ele>1290</ele>
        <time>2024-06-05T23:35:49+00:00</time>
      </trkpt>
      <trkpt lat="45.52787" lon="6.25739">
        <ele>1295</ele>
        <time>2024-06-05T23:35:52+00:00</time>
      </trkpt>
      <trkpt lat="45.52831" lon="6.25721">
        <ele>1295</ele>
        <time>2024-06-05T23:35:55+00:00</time>
      </trkpt>
      <trkpt lat="45.52859" lon="6.25718">
        <ele>1295</ele>
        <time>2024-06-05T23:35:58+00:00</time>
      </trkpt>
      <trkpt lat="45.52884" lon="6.25711">
        <ele>1296</ele>
        <time>2024-06-05T23:36:01+00:00</time>
      </trkpt>
      <trkpt lat="45.52911" lon="6.25703">
        <ele>1295</ele>
        <time>2024-06-05T23:36:04+00:00</time>
      </trkpt>
      <trkpt lat="45.52945" lon="6.25685">
        <ele>1294</ele>
        <time>2024-06-05T23:36:07+00:00</time>
      </trkpt>
      <trkpt lat="45.5297" lon="6.25671">
        <ele>1292</ele>
        <time>2024-06-05T23:36:10+00:00</time>
      </trkpt>
      <trkpt lat="45.52995" lon="6.25653">
        <ele>1291</ele>
        <time>2024-06-05T23:36:13+00:00</time>
      </trkpt>
      <trkpt lat="45.5302" lon="6.25628">
        <ele>1288</ele>
        <time>2024-06-05T23:36:16+00:00</time>
      </trkpt>
      <trkpt lat="45.53042" lon="6.25608">
        <ele>1287</ele>
        <time>2024-06-05T23:36:19+00:00</time>
      </trkpt>
      <trkpt lat="45.53058" lon="6.25598">
        <ele>1285</ele>
        <time>2024-06-05T23:36:22+00:00</time>
      </trkpt>
      <trkpt lat="45.53075" lon="6.25593">
        <ele>1281</ele>
        <time>2024-06-05T23:36:25+00:00</time>
      </trkpt>
      <trkpt lat="45.53088" lon="6.25602">
        <ele>1279</ele>
        <time>2024-06-05T23:36:28+00:00</time>
      </trkpt>
      <trkpt lat="45.531" lon="6.25609">
        <ele>1275</ele>
        <time>2024-06-05T23:36:31+00:00</time>
      </trkpt>
      <trkpt lat="45.53111" lon="6.25618">
        <ele>1264</ele>
        <time>2024-06-05T23:36:34+00:00</time>
      </trkpt>
      <trkpt lat="45.53124" lon="6.25645">
        <ele>1260</ele>
        <time>2024-06-05T23:36:37+00:00</time>
      </trkpt>
      <trkpt lat="45.5313" lon="6.25658">
        <ele>1253</ele>
        <time>2024-06-05T23:36:40+00:00</time>
      </trkpt>
      <trkpt lat="45.53143" lon="6.2566">
        <ele>1247</ele>
        <time>2024-06-05T23:36:43+00:00</time>
      </trkpt>
      <trkpt lat="45.53156" lon="6.25664">
        <ele>1243</ele>
        <time>2024-06-05T23:36:46+00:00</time>
      </trkpt>
      <trkpt lat="45.53172" lon="6.25689">
        <ele>1232</ele>
        <time>2024-06-05T23:36:49+00:00</time>
      </trkpt>
      <trkpt lat="45.53182" lon="6.25689">
        <ele>1227</ele>
        <time>2024-06-05T23:36:52+00:00</time>
      </trkpt>
      <trkpt lat="45.53197" lon="6.25668">
        <ele>1218</ele>
        <time>2024-06-05T23:36:55+00:00</time>
      </trkpt>
      <trkpt lat="45.53211" lon="6.25672">
        <ele>1210</ele>
        <time>2024-06-05T23:36:58+00:00</time>
      </trkpt>
      <trkpt lat="45.53226" lon="6.25682">
        <ele>1205</ele>
        <time>2024-06-05T23:37:01+00:00</time>
      </trkpt>
      <trkpt lat="45.53242" lon="6.25693">
        <ele>1198</ele>
        <time>2024-06-05T23:37:04+00:00</time>
      </trkpt>
      <trkpt lat="45.53265" lon="6.25713">
        <ele>1192</ele>
        <time>2024-06-05T23:37:07+00:00</time>
      </trkpt>
      <trkpt lat="45.53285" lon="6.25728">
        <ele>1184</ele>
        <time>2024-06-05T23:37:10+00:00</time>
      </trkpt>
      <trkpt lat="45.53313" lon="6.2575">
        <ele>1173</ele>
        <time>2024-06-05T23:37:13+00:00</time>
      </trkpt>
      <trkpt lat="45.5335" lon="6.25782">
        <ele>1166</ele>
        <time>2024-06-05T23:37:16+00:00</time>
      </trkpt>
      <trkpt lat="45.53386" lon="6.25819">
        <ele>1162</ele>
        <time>2024-06-05T23:37:19+00:00</time>
      </trkpt>
      <trkpt lat="45.53404" lon="6.25828">
        <ele>1155</ele>
        <time>2024-06-05T23:37:22+00:00</time>
      </trkpt>
      <trkpt lat="45.53429" lon="6.2583">
        <ele>1150</ele>
        <time>2024-06-05T23:37:25+00:00</time>
      </trkpt>
      <trkpt lat="45.53447" lon="6.25836">
        <ele>1144</ele>
        <time>2024-06-05T23:37:28+00:00</time>
      </trkpt>
      <trkpt lat="45.53461" lon="6.25847">
        <ele>1137</ele>
        <time>2024-06-05T23:37:31+00:00</time>
      </trkpt>
      <trkpt lat="45.53476" lon="6.2586">
        <ele>1135</ele>
        <time>2024-06-05T23:37:34+00:00</time>
      </trkpt>
      <trkpt lat="45.53514" lon="6.25898">
        <ele>1126</ele>
        <time>2024-06-05T23:37:37+00:00</time>
      </trkpt>
      <trkpt lat="45.5354" lon="6.25924">
        <ele>1122</ele>
        <time>2024-06-05T23:37:40+00:00</time>
      </trkpt>
      <trkpt lat="45.53554" lon="6.25941">
        <ele>1114</ele>
        <time>2024-06-05T23:37:43+00:00</time>
      </trkpt>
      <trkpt lat="45.53568" lon="6.25951">
        <ele>1112</ele>
        <time>2024-06-05T23:37:46+00:00</time>
      </trkpt>
      <trkpt lat="45.5359" lon="6.25968">
        <ele>1106</ele>
        <time>2024-06-05T23:37:49+00:00</time>
      </trkpt>
      <trkpt lat="45.53606" lon="6.25977">
        <ele>1102</ele>
        <time>2024-06-05T23:37:52+00:00</time>
      </trkpt>
      <trkpt lat="45.53619" lon="6.25982">
        <ele>1098</ele>
        <time>2024-06-05T23:37:55+00:00</time>
      </trkpt>
      <trkpt lat="45.5363" lon="6.25986">
        <ele>1094</ele>
        <time>2024-06-05T23:37:58+00:00</time>
      </trkpt>
      <trkpt lat="45.53634" lon="6.25993">
        <ele>1093</ele>
        <time>2024-06-05T23:38:01+00:00</time>
      </trkpt>
      <trkpt lat="45.53641" lon="6.26011">
        <ele>1090</ele>
        <time>2024-06-05T23:38:04+00:00</time>
      </trkpt>
      <trkpt lat="45.5365" lon="6.26031">
        <ele>1089</ele>
        <time>2024-06-05T23:38:07+00:00</time>
      </trkpt>
      <trkpt lat="45.5366" lon="6.26044">
        <ele>1089</ele>
        <time>2024-06-05T23:38:10+00:00</time>
      </trkpt>
      <trkpt lat="45.53671" lon="6.26056">
        <ele>1087</ele>
        <time>2024-06-05T23:38:13+00:00</time>
      </trkpt>
      <trkpt lat="45.53675" lon="6.26061">
        <ele>1086</ele>
        <time>2024-06-05T23:38:16+00:00</time>
      </trkpt>
      <trkpt lat="45.53677" lon="6.26065">
        <ele>1086</ele>
        <time>2024-06-05T23:38:19+00:00</time>
      </trkpt>
      <trkpt lat="45.53679" lon="6.26069">
        <ele>1086</ele>
        <time>2024-06-05T23:38:22+00:00</time>
      </trkpt>
      <trkpt lat="45.5368" lon="6.26072">
        <ele>1088</ele>
        <time>2024-06-05T23:38:25+00:00</time>
      </trkpt>
      <trkpt lat="45.53679" lon="6.26077">
        <ele>1088</ele>
        <time>2024-06-05T23:38:28+00:00</time>
      </trkpt>
      <trkpt lat="45.53676" lon="6.2608">
        <ele>1086</ele>
        <time>2024-06-05T23:38:31+00:00</time>
      </trkpt>
      <trkpt lat="45.53676" lon="6.2608">
        <ele>1086</ele>
        <time>2024-06-05T23:38:34+00:00</time>
      </trkpt>
      <trkpt lat="45.53676" lon="6.2608">
        <ele>1086</ele>
        <time>2024-06-05T23:38:37+00:00</time>
      </trkpt>
      <trkpt lat="45.53672" lon="6.26083">
        <ele>1086</ele>
        <time>2024-06-05T23:38:40+00:00</time>
      </trkpt>
      <trkpt lat="45.53668" lon="6.26084">
        <ele>1087</ele>
        <time>2024-06-05T23:38:43+00:00</time>
      </trkpt>
      <trkpt lat="45.53671" lon="6.26095">
        <ele>1086</ele>
        <time>2024-06-05T23:38:46+00:00</time>
      </trkpt>
      <trkpt lat="45.53684" lon="6.26103">
        <ele>1085</ele>
        <time>2024-06-05T23:38:49+00:00</time>
      </trkpt>
      <trkpt lat="45.53699" lon="6.26111">
        <ele>1082</ele>
        <time>2024-06-05T23:38:52+00:00</time>
      </trkpt>
      <trkpt lat="45.53716" lon="6.26113">
        <ele>1078</ele>
        <time>2024-06-05T23:38:55+00:00</time>
      </trkpt>
      <trkpt lat="45.53731" lon="6.2612">
        <ele>1070</ele>
        <time>2024-06-05T23:38:58+00:00</time>
      </trkpt>
      <trkpt lat="45.53745" lon="6.26128">
        <ele>1068</ele>
        <time>2024-06-05T23:39:01+00:00</time>
      </trkpt>
      <trkpt lat="45.53759" lon="6.26143">
        <ele>1060</ele>
        <time>2024-06-05T23:39:04+00:00</time>
      </trkpt>
      <trkpt lat="45.53775" lon="6.26163">
        <ele>1057</ele>
        <time>2024-06-05T23:39:07+00:00</time>
      </trkpt>
      <trkpt lat="45.53784" lon="6.26173">
        <ele>1055</ele>
        <time>2024-06-05T23:39:10+00:00</time>
      </trkpt>
      <trkpt lat="45.53804" lon="6.2619">
        <ele>1050</ele>
        <time>2024-06-05T23:39:13+00:00</time>
      </trkpt>
      <trkpt lat="45.53823" lon="6.26206">
        <ele>1043</ele>
        <time>2024-06-05T23:39:16+00:00</time>
      </trkpt>
      <trkpt lat="45.53837" lon="6.26218">
        <ele>1041</ele>
        <time>2024-06-05T23:39:19+00:00</time>
      </trkpt>
      <trkpt lat="45.53847" lon="6.26223">
        <ele>1039</ele>
        <time>2024-06-05T23:39:22+00:00</time>
      </trkpt>
      <trkpt lat="45.53865" lon="6.26234">
        <ele>1034</ele>
        <time>2024-06-05T23:39:25+00:00</time>
      </trkpt>
      <trkpt lat="45.5388" lon="6.26244">
        <ele>1030</ele>
        <time>2024-06-05T23:39:28+00:00</time>
      </trkpt>
      <trkpt lat="45.53901" lon="6.26263">
        <ele>1019</ele>
        <time>2024-06-05T23:39:31+00:00</time>
      </trkpt>
      <trkpt lat="45.53915" lon="6.26281">
        <ele>1013</ele>
        <time>2024-06-05T23:39:34+00:00</time>
      </trkpt>
      <trkpt lat="45.53929" lon="6.26296">
        <ele>1008</ele>
        <time>2024-06-05T23:39:37+00:00</time>
      </trkpt>
      <trkpt lat="45.53946" lon="6.26313">
        <ele>1004</ele>
        <time>2024-06-05T23:39:40+00:00</time>
      </trkpt>
      <trkpt lat="45.53962" lon="6.26334">
        <ele>999</ele>
        <time>2024-06-05T23:39:43+00:00</time>
      </trkpt>
      <trkpt lat="45.53978" lon="6.26351">
        <ele>995</ele>
        <time>2024-06-05T23:39:46+00:00</time>
      </trkpt>
      <trkpt lat="45.53995" lon="6.26369">
        <ele>990</ele>
        <time>2024-06-05T23:39:49+00:00</time>
      </trkpt>
      <trkpt lat="45.54005" lon="6.26386">
        <ele>986</ele>
        <time>2024-06-05T23:39:52+00:00</time>
      </trkpt>
      <trkpt lat="45.54016" lon="6.26422">
        <ele>982</ele>
        <time>2024-06-05T23:39:55+00:00</time>
      </trkpt>
      <trkpt lat="45.54026" lon="6.26441">
        <ele>979</ele>
        <time>2024-06-05T23:39:58+00:00</time>
      </trkpt>
      <trkpt lat="45.54028" lon="6.26454">
        <ele>978</ele>
        <time>2024-06-05T23:40:01+00:00</time>
      </trkpt>
      <trkpt lat="45.54033" lon="6.26464">
        <ele>976</ele>
        <time>2024-06-05T23:40:04+00:00</time>
      </trkpt>
      <trkpt lat="45.5404" lon="6.26477">
        <ele>972</ele>
        <time>2024-06-05T23:40:07+00:00</time>
      </trkpt>
      <trkpt lat="45.54045" lon="6.26488">
        <ele>971</ele>
        <time>2024-06-05T23:40:10+00:00</time>
      </trkpt>
      <trkpt lat="45.54058" lon="6.26492">
        <ele>967</ele>
        <time>2024-06-05T23:40:13+00:00</time>
      </trkpt>
      <trkpt lat="45.54065" lon="6.26502">
        <ele>963</ele>
        <time>2024-06-05T23:40:16+00:00</time>
      </trkpt>
      <trkpt lat="45.5407" lon="6.26512">
        <ele>962</ele>
        <time>2024-06-05T23:40:19+00:00</time>
      </trkpt>
      <trkpt lat="45.54074" lon="6.26525">
        <ele>959</ele>
        <time>2024-06-05T23:40:22+00:00</time>
      </trkpt>
      <trkpt lat="45.54073" lon="6.26541">
        <ele>954</ele>
        <time>2024-06-05T23:40:25+00:00</time>
      </trkpt>
      <trkpt lat="45.54072" lon="6.26551">
        <ele>952</ele>
        <time>2024-06-05T23:40:28+00:00</time>
      </trkpt>
      <trkpt lat="45.54065" lon="6.26569">
        <ele>948</ele>
        <time>2024-06-05T23:40:31+00:00</time>
      </trkpt>
      <trkpt lat="45.54064" lon="6.26578">
        <ele>945</ele>
        <time>2024-06-05T23:40:34+00:00</time>
      </trkpt>
      <trkpt lat="45.54064" lon="6.26592">
        <ele>941</ele>
        <time>2024-06-05T23:40:37+00:00</time>
      </trkpt>
      <trkpt lat="45.54067" lon="6.26604">
        <ele>940</ele>
        <time>2024-06-05T23:40:40+00:00</time>
      </trkpt>
      <trkpt lat="45.54069" lon="6.26613">
        <ele>938</ele>
        <time>2024-06-05T23:40:43+00:00</time>
      </trkpt>
      <trkpt lat="45.54073" lon="6.26625">
        <ele>937</ele>
        <time>2024-06-05T23:40:46+00:00</time>
      </trkpt>
      <trkpt lat="45.54081" lon="6.26646">
        <ele>935</ele>
        <time>2024-06-05T23:40:49+00:00</time>
      </trkpt>
      <trkpt lat="45.54087" lon="6.26667">
        <ele>930</ele>
        <time>2024-06-05T23:40:52+00:00</time>
      </trkpt>
      <trkpt lat="45.54095" lon="6.26688">
        <ele>927</ele>
        <time>2024-06-05T23:40:55+00:00</time>
      </trkpt>
      <trkpt lat="45.54096" lon="6.26692">
        <ele>925</ele>
        <time>2024-06-05T23:40:58+00:00</time>
      </trkpt>
      <trkpt lat="45.54106" lon="6.26706">
        <ele>922</ele>
        <time>2024-06-05T23:41:01+00:00</time>
      </trkpt>
      <trkpt lat="45.54115" lon="6.26719">
        <ele>919</ele>
        <time>2024-06-05T23:41:04+00:00</time>
      </trkpt>
      <trkpt lat="45.54126" lon="6.26734">
        <ele>915</ele>
        <time>2024-06-05T23:41:07+00:00</time>
      </trkpt>
      <trkpt lat="45.54136" lon="6.26749">
        <ele>911</ele>
        <time>2024-06-05T23:41:10+00:00</time>
      </trkpt>
      <trkpt lat="45.54148" lon="6.26766">
        <ele>908</ele>
        <time>2024-06-05T23:41:13+00:00</time>
      </trkpt>
      <trkpt lat="45.5416" lon="6.26781">
        <ele>901</ele>
        <time>2024-06-05T23:41:16+00:00</time>
      </trkpt>
      <trkpt lat="45.54169" lon="6.26794">
        <ele>896</ele>
        <time>2024-06-05T23:41:19+00:00</time>
      </trkpt>
      <trkpt lat="45.54186" lon="6.26818">
        <ele>887</ele>
        <time>2024-06-05T23:41:22+00:00</time>
      </trkpt>
      <trkpt lat="45.542" lon="6.26834">
        <ele>881</ele>
        <time>2024-06-05T23:41:25+00:00</time>
      </trkpt>
      <trkpt lat="45.54209" lon="6.26849">
        <ele>877</ele>
        <time>2024-06-05T23:41:28+00:00</time>
      </trkpt>
      <trkpt lat="45.54219" lon="6.26863">
        <ele>872</ele>
        <time>2024-06-05T23:41:31+00:00</time>
      </trkpt>
      <trkpt lat="45.54228" lon="6.26877">
        <ele>867</ele>
        <time>2024-06-05T23:41:34+00:00</time>
      </trkpt>
      <trkpt lat="45.54235" lon="6.26885">
        <ele>864</ele>
        <time>2024-06-05T23:41:37+00:00</time>
      </trkpt>
      <trkpt lat="45.54237" lon="6.26888">
        <ele>864</ele>
        <time>2024-06-05T23:41:40+00:00</time>
      </trkpt>
      <trkpt lat="45.54244" lon="6.26898">
        <ele>860</ele>
        <time>2024-06-05T23:41:43+00:00</time>
      </trkpt>
      <trkpt lat="45.54253" lon="6.2691">
        <ele>856</ele>
        <time>2024-06-05T23:41:46+00:00</time>
      </trkpt>
      <trkpt lat="45.54264" lon="6.26924">
        <ele>851</ele>
        <time>2024-06-05T23:41:49+00:00</time>
      </trkpt>
      <trkpt lat="45.54271" lon="6.26932">
        <ele>847</ele>
        <time>2024-06-05T23:41:52+00:00</time>
      </trkpt>
      <trkpt lat="45.54289" lon="6.26954">
        <ele>844</ele>
        <time>2024-06-05T23:41:55+00:00</time>
      </trkpt>
      <trkpt lat="45.54302" lon="6.26971">
        <ele>839</ele>
        <time>2024-06-05T23:41:58+00:00</time>
      </trkpt>
      <trkpt lat="45.54312" lon="6.26985">
        <ele>836</ele>
        <time>2024-06-05T23:42:01+00:00</time>
      </trkpt>
      <trkpt lat="45.54322" lon="6.26999">
        <ele>833</ele>
        <time>2024-06-05T23:42:04+00:00</time>
      </trkpt>
      <trkpt lat="45.54328" lon="6.2701">
        <ele>832</ele>
        <time>2024-06-05T23:42:07+00:00</time>
      </trkpt>
      <trkpt lat="45.54328" lon="6.2701">
        <ele>832</ele>
        <time>2024-06-05T23:42:10+00:00</time>
      </trkpt>
      <trkpt lat="45.54328" lon="6.2701">
        <ele>832</ele>
        <time>2024-06-05T23:42:13+00:00</time>
      </trkpt>
      <trkpt lat="45.5433" lon="6.27018">
        <ele>829</ele>
        <time>2024-06-05T23:42:16+00:00</time>
      </trkpt>
      <trkpt lat="45.54331" lon="6.27024">
        <ele>827</ele>
        <time>2024-06-05T23:42:19+00:00</time>
      </trkpt>
      <trkpt lat="45.54337" lon="6.27029">
        <ele>827</ele>
        <time>2024-06-05T23:42:22+00:00</time>
      </trkpt>
      <trkpt lat="45.54341" lon="6.27031">
        <ele>826</ele>
        <time>2024-06-05T23:42:25+00:00</time>
      </trkpt>
      <trkpt lat="45.54346" lon="6.27031">
        <ele>826</ele>
        <time>2024-06-05T23:42:28+00:00</time>
      </trkpt>
      <trkpt lat="45.5435" lon="6.27027">
        <ele>827</ele>
        <time>2024-06-05T23:42:31+00:00</time>
      </trkpt>
      <trkpt lat="45.54352" lon="6.2702">
        <ele>825</ele>
        <time>2024-06-05T23:42:34+00:00</time>
      </trkpt>
      <trkpt lat="45.54354" lon="6.2701">
        <ele>826</ele>
        <time>2024-06-05T23:42:37+00:00</time>
      </trkpt>
      <trkpt lat="45.54357" lon="6.27007">
        <ele>826</ele>
        <time>2024-06-05T23:42:40+00:00</time>
      </trkpt>
      <trkpt lat="45.54359" lon="6.27008">
        <ele>826</ele>
        <time>2024-06-05T23:42:43+00:00</time>
      </trkpt>
      <trkpt lat="45.54362" lon="6.27009">
        <ele>823</ele>
        <time>2024-06-05T23:42:46+00:00</time>
      </trkpt>
      <trkpt lat="45.54364" lon="6.27013">
        <ele>823</ele>
        <time>2024-06-05T23:42:49+00:00</time>
      </trkpt>
      <trkpt lat="45.54366" lon="6.27018">
        <ele>823</ele>
        <time>2024-06-05T23:42:52+00:00</time>
      </trkpt>
      <trkpt lat="45.54366" lon="6.27029">
        <ele>823</ele>
        <time>2024-06-05T23:42:55+00:00</time>
      </trkpt>
      <trkpt lat="45.54366" lon="6.27041">
        <ele>822</ele>
        <time>2024-06-05T23:42:58+00:00</time>
      </trkpt>
      <trkpt lat="45.54366" lon="6.27052">
        <ele>820</ele>
        <time>2024-06-05T23:43:01+00:00</time>
      </trkpt>
      <trkpt lat="45.54366" lon="6.27063">
        <ele>819</ele>
        <time>2024-06-05T23:43:04+00:00</time>
      </trkpt>
      <trkpt lat="45.54365" lon="6.27066">
        <ele>819</ele>
        <time>2024-06-05T23:43:07+00:00</time>
      </trkpt>
      <trkpt lat="45.5436" lon="6.27071">
        <ele>817</ele>
        <time>2024-06-05T23:43:10+00:00</time>
      </trkpt>
      <trkpt lat="45.54356" lon="6.27075">
        <ele>817</ele>
        <time>2024-06-05T23:43:13+00:00</time>
      </trkpt>
      <trkpt lat="45.5435" lon="6.27079">
        <ele>817</ele>
        <time>2024-06-05T23:43:16+00:00</time>
      </trkpt>
      <trkpt lat="45.54342" lon="6.27081">
        <ele>810</ele>
        <time>2024-06-05T23:43:19+00:00</time>
      </trkpt>
      <trkpt lat="45.54338" lon="6.27086">
        <ele>806</ele>
        <time>2024-06-05T23:43:22+00:00</time>
      </trkpt>
      <trkpt lat="45.54334" lon="6.27089">
        <ele>806</ele>
        <time>2024-06-05T23:43:25+00:00</time>
      </trkpt>
      <trkpt lat="45.54331" lon="6.27091">
        <ele>803</ele>
        <time>2024-06-05T23:43:28+00:00</time>
      </trkpt>
      <trkpt lat="45.54329" lon="6.27093">
        <ele>802</ele>
        <time>2024-06-05T23:43:31+00:00</time>
      </trkpt>
      <trkpt lat="45.54324" lon="6.27097">
        <ele>802</ele>
        <time>2024-06-05T23:43:34+00:00</time>
      </trkpt>
      <trkpt lat="45.54322" lon="6.27099">
        <ele>802</ele>
        <time>2024-06-05T23:43:37+00:00</time>
      </trkpt>
      <trkpt lat="45.54318" lon="6.27102">
        <ele>797</ele>
        <time>2024-06-05T23:43:40+00:00</time>
      </trkpt>
      <trkpt lat="45.54316" lon="6.27105">
        <ele>797</ele>
        <time>2024-06-05T23:43:43+00:00</time>
      </trkpt>
      <trkpt lat="45.54302" lon="6.27118">
        <ele>792</ele>
        <time>2024-06-05T23:43:46+00:00</time>
      </trkpt>
      <trkpt lat="45.54285" lon="6.27133">
        <ele>786</ele>
        <time>2024-06-05T23:43:49+00:00</time>
      </trkpt>
      <trkpt lat="45.54272" lon="6.2715">
        <ele>782</ele>
        <time>2024-06-05T23:43:52+00:00</time>
      </trkpt>
      <trkpt lat="45.54246" lon="6.2717">
        <ele>772</ele>
        <time>2024-06-05T23:43:55+00:00</time>
      </trkpt>
      <trkpt lat="45.54215" lon="6.27178">
        <ele>767</ele>
        <time>2024-06-05T23:43:58+00:00</time>
      </trkpt>
      <trkpt lat="45.54209" lon="6.27184">
        <ele>766</ele>
        <time>2024-06-05T23:44:01+00:00</time>
      </trkpt>
      <trkpt lat="45.54204" lon="6.27185">
        <ele>766</ele>
        <time>2024-06-05T23:44:04+00:00</time>
      </trkpt>
      <trkpt lat="45.54188" lon="6.27177">
        <ele>766</ele>
        <time>2024-06-05T23:44:07+00:00</time>
      </trkpt>
      <trkpt lat="45.5418" lon="6.27173">
        <ele>764</ele>
        <time>2024-06-05T23:44:10+00:00</time>
      </trkpt>
      <trkpt lat="45.54173" lon="6.27169">
        <ele>765</ele>
        <time>2024-06-05T23:44:13+00:00</time>
      </trkpt>
      <trkpt lat="45.54167" lon="6.27165">
        <ele>765</ele>
        <time>2024-06-05T23:44:16+00:00</time>
      </trkpt>
      <trkpt lat="45.54158" lon="6.2716">
        <ele>762</ele>
        <time>2024-06-05T23:44:19+00:00</time>
      </trkpt>
      <trkpt lat="45.54155" lon="6.27159">
        <ele>764</ele>
        <time>2024-06-05T23:44:22+00:00</time>
      </trkpt>
      <trkpt lat="45.54153" lon="6.27159">
        <ele>764</ele>
        <time>2024-06-05T23:44:25+00:00</time>
      </trkpt>
      <trkpt lat="45.54152" lon="6.27161">
        <ele>762</ele>
        <time>2024-06-05T23:44:28+00:00</time>
      </trkpt>
      <trkpt lat="45.54153" lon="6.27165">
        <ele>762</ele>
        <time>2024-06-05T23:44:31+00:00</time>
      </trkpt>
      <trkpt lat="45.54157" lon="6.27177">
        <ele>761</ele>
        <time>2024-06-05T23:44:34+00:00</time>
      </trkpt>
      <trkpt lat="45.54166" lon="6.27194">
        <ele>760</ele>
        <time>2024-06-05T23:44:37+00:00</time>
      </trkpt>
      <trkpt lat="45.54176" lon="6.27213">
        <ele>758</ele>
        <time>2024-06-05T23:44:40+00:00</time>
      </trkpt>
      <trkpt lat="45.54185" lon="6.27225">
        <ele>758</ele>
        <time>2024-06-05T23:44:43+00:00</time>
      </trkpt>
      <trkpt lat="45.5419" lon="6.2723">
        <ele>761</ele>
        <time>2024-06-05T23:44:46+00:00</time>
      </trkpt>
      <trkpt lat="45.54197" lon="6.27233">
        <ele>756</ele>
        <time>2024-06-05T23:44:49+00:00</time>
      </trkpt>
      <trkpt lat="45.54202" lon="6.27236">
        <ele>757</ele>
        <time>2024-06-05T23:44:52+00:00</time>
      </trkpt>
      <trkpt lat="45.54208" lon="6.27237">
        <ele>757</ele>
        <time>2024-06-05T23:44:55+00:00</time>
      </trkpt>
      <trkpt lat="45.54213" lon="6.2724">
        <ele>758</ele>
        <time>2024-06-05T23:44:58+00:00</time>
      </trkpt>
      <trkpt lat="45.54217" lon="6.27243">
        <ele>754</ele>
        <time>2024-06-05T23:45:01+00:00</time>
      </trkpt>
      <trkpt lat="45.54219" lon="6.27247">
        <ele>754</ele>
        <time>2024-06-05T23:45:04+00:00</time>
      </trkpt>
      <trkpt lat="45.54221" lon="6.27257">
        <ele>753</ele>
        <time>2024-06-05T23:45:07+00:00</time>
      </trkpt>
      <trkpt lat="45.54218" lon="6.27259">
        <ele>753</ele>
        <time>2024-06-05T23:45:10+00:00</time>
      </trkpt>
      <trkpt lat="45.54217" lon="6.27264">
        <ele>752</ele>
        <time>2024-06-05T23:45:13+00:00</time>
      </trkpt>
      <trkpt lat="45.54198" lon="6.27252">
        <ele>750</ele>
        <time>2024-06-05T23:45:16+00:00</time>
      </trkpt>
      <trkpt lat="45.54196" lon="6.27252">
        <ele>750</ele>
        <time>2024-06-05T23:45:19+00:00</time>
      </trkpt>
      <trkpt lat="45.54189" lon="6.27249">
        <ele>750</ele>
        <time>2024-06-05T23:45:22+00:00</time>
      </trkpt>
      <trkpt lat="45.54176" lon="6.27242">
        <ele>749</ele>
        <time>2024-06-05T23:45:25+00:00</time>
      </trkpt>
      <trkpt lat="45.54171" lon="6.27238">
        <ele>751</ele>
        <time>2024-06-05T23:45:28+00:00</time>
      </trkpt>
      <trkpt lat="45.54167" lon="6.27235">
        <ele>748</ele>
        <time>2024-06-05T23:45:31+00:00</time>
      </trkpt>
      <trkpt lat="45.54161" lon="6.27233">
        <ele>748</ele>
        <time>2024-06-05T23:45:34+00:00</time>
      </trkpt>
      <trkpt lat="45.54151" lon="6.27229">
        <ele>749</ele>
        <time>2024-06-05T23:45:37+00:00</time>
      </trkpt>
      <trkpt lat="45.54142" lon="6.27226">
        <ele>748</ele>
        <time>2024-06-05T23:45:40+00:00</time>
      </trkpt>
      <trkpt lat="45.54133" lon="6.27227">
        <ele>747</ele>
        <time>2024-06-05T23:45:43+00:00</time>
      </trkpt>
      <trkpt lat="45.54116" lon="6.27224">
        <ele>741</ele>
        <time>2024-06-05T23:45:46+00:00</time>
      </trkpt>
      <trkpt lat="45.54102" lon="6.27217">
        <ele>741</ele>
        <time>2024-06-05T23:45:49+00:00</time>
      </trkpt>
      <trkpt lat="45.54098" lon="6.27214">
        <ele>739</ele>
        <time>2024-06-05T23:45:52+00:00</time>
      </trkpt>
      <trkpt lat="45.54079" lon="6.27197">
        <ele>738</ele>
        <time>2024-06-05T23:45:55+00:00</time>
      </trkpt>
      <trkpt lat="45.54066" lon="6.27187">
        <ele>737</ele>
        <time>2024-06-05T23:45:58+00:00</time>
      </trkpt>
      <trkpt lat="45.5406" lon="6.27183">
        <ele>733</ele>
        <time>2024-06-05T23:46:01+00:00</time>
      </trkpt>
      <trkpt lat="45.54053" lon="6.2718">
        <ele>738</ele>
        <time>2024-06-05T23:46:04+00:00</time>
      </trkpt>
      <trkpt lat="45.54045" lon="6.27177">
        <ele>734</ele>
        <time>2024-06-05T23:46:07+00:00</time>
      </trkpt>
      <trkpt lat="45.54038" lon="6.27173">
        <ele>730</ele>
        <time>2024-06-05T23:46:10+00:00</time>
      </trkpt>
      <trkpt lat="45.54029" lon="6.27169">
        <ele>731</ele>
        <time>2024-06-05T23:46:13+00:00</time>
      </trkpt>
      <trkpt lat="45.54026" lon="6.27168">
        <ele>731</ele>
        <time>2024-06-05T23:46:16+00:00</time>
      </trkpt>
      <trkpt lat="45.54006" lon="6.27157">
        <ele>728</ele>
        <time>2024-06-05T23:46:19+00:00</time>
      </trkpt>
      <trkpt lat="45.53998" lon="6.27152">
        <ele>726</ele>
        <time>2024-06-05T23:46:22+00:00</time>
      </trkpt>
      <trkpt lat="45.53981" lon="6.27138">
        <ele>727</ele>
        <time>2024-06-05T23:46:25+00:00</time>
      </trkpt>
      <trkpt lat="45.53972" lon="6.27129">
        <ele>725</ele>
        <time>2024-06-05T23:46:28+00:00</time>
      </trkpt>
      <trkpt lat="45.53962" lon="6.2712">
        <ele>723</ele>
        <time>2024-06-05T23:46:31+00:00</time>
      </trkpt>
      <trkpt lat="45.53955" lon="6.27119">
        <ele>723</ele>
        <time>2024-06-05T23:46:34+00:00</time>
      </trkpt>
      <trkpt lat="45.53953" lon="6.27122">
        <ele>722</ele>
        <time>2024-06-05T23:46:37+00:00</time>
      </trkpt>
      <trkpt lat="45.53952" lon="6.27128">
        <ele>722</ele>
        <time>2024-06-05T23:46:40+00:00</time>
      </trkpt>
      <trkpt lat="45.53954" lon="6.27132">
        <ele>721</ele>
        <time>2024-06-05T23:46:43+00:00</time>
      </trkpt>
      <trkpt lat="45.53956" lon="6.27134">
        <ele>721</ele>
        <time>2024-06-05T23:46:46+00:00</time>
      </trkpt>
      <trkpt lat="45.53968" lon="6.27149">
        <ele>719</ele>
        <time>2024-06-05T23:46:49+00:00</time>
      </trkpt>
      <trkpt lat="45.53979" lon="6.27166">
        <ele>716</ele>
        <time>2024-06-05T23:46:52+00:00</time>
      </trkpt>
      <trkpt lat="45.5399" lon="6.27187">
        <ele>717</ele>
        <time>2024-06-05T23:46:55+00:00</time>
      </trkpt>
      <trkpt lat="45.53998" lon="6.27211">
        <ele>710</ele>
        <time>2024-06-05T23:46:58+00:00</time>
      </trkpt>
      <trkpt lat="45.54007" lon="6.27232">
        <ele>709</ele>
        <time>2024-06-05T23:47:01+00:00</time>
      </trkpt>
      <trkpt lat="45.54015" lon="6.27253">
        <ele>709</ele>
        <time>2024-06-05T23:47:04+00:00</time>
      </trkpt>
      <trkpt lat="45.54024" lon="6.27275">
        <ele>707</ele>
        <time>2024-06-05T23:47:07+00:00</time>
      </trkpt>
      <trkpt lat="45.54027" lon="6.27287">
        <ele>706</ele>
        <time>2024-06-05T23:47:10+00:00</time>
      </trkpt>
      <trkpt lat="45.54027" lon="6.27288">
        <ele>706</ele>
        <time>2024-06-05T23:47:13+00:00</time>
      </trkpt>
      <trkpt lat="45.54029" lon="6.27295">
        <ele>704</ele>
        <time>2024-06-05T23:47:16+00:00</time>
      </trkpt>
      <trkpt lat="45.54031" lon="6.27299">
        <ele>706</ele>
        <time>2024-06-05T23:47:19+00:00</time>
      </trkpt>
      <trkpt lat="45.54032" lon="6.27303">
        <ele>705</ele>
        <time>2024-06-05T23:47:22+00:00</time>
      </trkpt>
      <trkpt lat="45.5404" lon="6.27315">
        <ele>705</ele>
        <time>2024-06-05T23:47:25+00:00</time>
      </trkpt>
      <trkpt lat="45.54055" lon="6.2733">
        <ele>701</ele>
        <time>2024-06-05T23:47:28+00:00</time>
      </trkpt>
      <trkpt lat="45.54056" lon="6.27331">
        <ele>701</ele>
        <time>2024-06-05T23:47:31+00:00</time>
      </trkpt>
      <trkpt lat="45.54071" lon="6.27341">
        <ele>700</ele>
        <time>2024-06-05T23:47:34+00:00</time>
      </trkpt>
      <trkpt lat="45.54088" lon="6.27348">
        <ele>700</ele>
        <time>2024-06-05T23:47:37+00:00</time>
      </trkpt>
      <trkpt lat="45.54093" lon="6.27349">
        <ele>701</ele>
        <time>2024-06-05T23:47:40+00:00</time>
      </trkpt>
      <trkpt lat="45.54094" lon="6.2735">
        <ele>701</ele>
        <time>2024-06-05T23:47:43+00:00</time>
      </trkpt>
      <trkpt lat="45.541" lon="6.2735">
        <ele>697</ele>
        <time>2024-06-05T23:47:46+00:00</time>
      </trkpt>
      <trkpt lat="45.54116" lon="6.27351">
        <ele>696</ele>
        <time>2024-06-05T23:47:49+00:00</time>
      </trkpt>
      <trkpt lat="45.54119" lon="6.27351">
        <ele>696</ele>
        <time>2024-06-05T23:47:52+00:00</time>
      </trkpt>
      <trkpt lat="45.54124" lon="6.27349">
        <ele>699</ele>
        <time>2024-06-05T23:47:55+00:00</time>
      </trkpt>
      <trkpt lat="45.54127" lon="6.27349">
        <ele>699</ele>
        <time>2024-06-05T23:47:58+00:00</time>
      </trkpt>
      <trkpt lat="45.5413" lon="6.27349">
        <ele>695</ele>
        <time>2024-06-05T23:48:01+00:00</time>
      </trkpt>
      <trkpt lat="45.54133" lon="6.27352">
        <ele>693</ele>
        <time>2024-06-05T23:48:04+00:00</time>
      </trkpt>
      <trkpt lat="45.54135" lon="6.27356">
        <ele>693</ele>
        <time>2024-06-05T23:48:07+00:00</time>
      </trkpt>
      <trkpt lat="45.54142" lon="6.2737">
        <ele>689</ele>
        <time>2024-06-05T23:48:10+00:00</time>
      </trkpt>
      <trkpt lat="45.54151" lon="6.27385">
        <ele>689</ele>
        <time>2024-06-05T23:48:13+00:00</time>
      </trkpt>
      <trkpt lat="45.54162" lon="6.27407">
        <ele>687</ele>
        <time>2024-06-05T23:48:16+00:00</time>
      </trkpt>
      <trkpt lat="45.5418" lon="6.27438">
        <ele>682</ele>
        <time>2024-06-05T23:48:19+00:00</time>
      </trkpt>
      <trkpt lat="45.54188" lon="6.27445">
        <ele>682</ele>
        <time>2024-06-05T23:48:22+00:00</time>
      </trkpt>
      <trkpt lat="45.54198" lon="6.27453">
        <ele>681</ele>
        <time>2024-06-05T23:48:25+00:00</time>
      </trkpt>
      <trkpt lat="45.54209" lon="6.27466">
        <ele>679</ele>
        <time>2024-06-05T23:48:28+00:00</time>
      </trkpt>
      <trkpt lat="45.54219" lon="6.27481">
        <ele>674</ele>
        <time>2024-06-05T23:48:31+00:00</time>
      </trkpt>
      <trkpt lat="45.54227" lon="6.27493">
        <ele>675</ele>
        <time>2024-06-05T23:48:34+00:00</time>
      </trkpt>
      <trkpt lat="45.54231" lon="6.27505">
        <ele>673</ele>
        <time>2024-06-05T23:48:37+00:00</time>
      </trkpt>
      <trkpt lat="45.54235" lon="6.27516">
        <ele>671</ele>
        <time>2024-06-05T23:48:40+00:00</time>
      </trkpt>
      <trkpt lat="45.54241" lon="6.2753">
        <ele>672</ele>
        <time>2024-06-05T23:48:43+00:00</time>
      </trkpt>
      <trkpt lat="45.54245" lon="6.27541">
        <ele>667</ele>
        <time>2024-06-05T23:48:46+00:00</time>
      </trkpt>
      <trkpt lat="45.54247" lon="6.27553">
        <ele>665</ele>
        <time>2024-06-05T23:48:49+00:00</time>
      </trkpt>
      <trkpt lat="45.54248" lon="6.27571">
        <ele>669</ele>
        <time>2024-06-05T23:48:52+00:00</time>
      </trkpt>
      <trkpt lat="45.54249" lon="6.27586">
        <ele>659</ele>
        <time>2024-06-05T23:48:55+00:00</time>
      </trkpt>
      <trkpt lat="45.5425" lon="6.27605">
        <ele>666</ele>
        <time>2024-06-05T23:48:58+00:00</time>
      </trkpt>
      <trkpt lat="45.54253" lon="6.27622">
        <ele>663</ele>
        <time>2024-06-05T23:49:01+00:00</time>
      </trkpt>
      <trkpt lat="45.5426" lon="6.27644">
        <ele>664</ele>
        <time>2024-06-05T23:49:04+00:00</time>
      </trkpt>
      <trkpt lat="45.54266" lon="6.27671">
        <ele>657</ele>
        <time>2024-06-05T23:49:07+00:00</time>
      </trkpt>
      <trkpt lat="45.54271" lon="6.27682">
        <ele>659</ele>
        <time>2024-06-05T23:49:10+00:00</time>
      </trkpt>
      <trkpt lat="45.54275" lon="6.27696">
        <ele>657</ele>
        <time>2024-06-05T23:49:13+00:00</time>
      </trkpt>
      <trkpt lat="45.54277" lon="6.27702">
        <ele>655</ele>
        <time>2024-06-05T23:49:16+00:00</time>
      </trkpt>
      <trkpt lat="45.54282" lon="6.27706">
        <ele>659</ele>
        <time>2024-06-05T23:49:19+00:00</time>
      </trkpt>
      <trkpt lat="45.54287" lon="6.27709">
        <ele>659</ele>
        <time>2024-06-05T23:49:22+00:00</time>
      </trkpt>
      <trkpt lat="45.54293" lon="6.27712">
        <ele>655</ele>
        <time>2024-06-05T23:49:25+00:00</time>
      </trkpt>
      <trkpt lat="45.54304" lon="6.27718">
        <ele>655</ele>
        <time>2024-06-05T23:49:28+00:00</time>
      </trkpt>
      <trkpt lat="45.54311" lon="6.27722">
        <ele>653</ele>
        <time>2024-06-05T23:49:31+00:00</time>
      </trkpt>
      <trkpt lat="45.54323" lon="6.27731">
        <ele>651</ele>
        <time>2024-06-05T23:49:34+00:00</time>
      </trkpt>
      <trkpt lat="45.54328" lon="6.27737">
        <ele>651</ele>
        <time>2024-06-05T23:49:37+00:00</time>
      </trkpt>
      <trkpt lat="45.54328" lon="6.27744">
        <ele>649</ele>
        <time>2024-06-05T23:49:40+00:00</time>
      </trkpt>
      <trkpt lat="45.54333" lon="6.27749">
        <ele>649</ele>
        <time>2024-06-05T23:49:43+00:00</time>
      </trkpt>
      <trkpt lat="45.54337" lon="6.27754">
        <ele>648</ele>
        <time>2024-06-05T23:49:46+00:00</time>
      </trkpt>
      <trkpt lat="45.5434" lon="6.2776">
        <ele>647</ele>
        <time>2024-06-05T23:49:49+00:00</time>
      </trkpt>
      <trkpt lat="45.54346" lon="6.2777">
        <ele>646</ele>
        <time>2024-06-05T23:49:52+00:00</time>
      </trkpt>
      <trkpt lat="45.54353" lon="6.27784">
        <ele>645</ele>
        <time>2024-06-05T23:49:55+00:00</time>
      </trkpt>
      <trkpt lat="45.54358" lon="6.2779">
        <ele>644</ele>
        <time>2024-06-05T23:49:58+00:00</time>
      </trkpt>
      <trkpt lat="45.54364" lon="6.27796">
        <ele>644</ele>
        <time>2024-06-05T23:50:01+00:00</time>
      </trkpt>
      <trkpt lat="45.5437" lon="6.27799">
        <ele>645</ele>
        <time>2024-06-05T23:50:04+00:00</time>
      </trkpt>
      <trkpt lat="45.54375" lon="6.27804">
        <ele>642</ele>
        <time>2024-06-05T23:50:07+00:00</time>
      </trkpt>
      <trkpt lat="45.54379" lon="6.27811">
        <ele>640</ele>
        <time>2024-06-05T23:50:10+00:00</time>
      </trkpt>
      <trkpt lat="45.54387" lon="6.27826">
        <ele>640</ele>
        <time>2024-06-05T23:50:13+00:00</time>
      </trkpt>
      <trkpt lat="45.54394" lon="6.27849">
        <ele>639</ele>
        <time>2024-06-05T23:50:16+00:00</time>
      </trkpt>
      <trkpt lat="45.544" lon="6.27871">
        <ele>637</ele>
        <time>2024-06-05T23:50:19+00:00</time>
      </trkpt>
      <trkpt lat="45.54402" lon="6.27887">
        <ele>635</ele>
        <time>2024-06-05T23:50:22+00:00</time>
      </trkpt>
      <trkpt lat="45.54405" lon="6.27899">
        <ele>634</ele>
        <time>2024-06-05T23:50:25+00:00</time>
      </trkpt>
      <trkpt lat="45.54407" lon="6.27906">
        <ele>633</ele>
        <time>2024-06-05T23:50:28+00:00</time>
      </trkpt>
      <trkpt lat="45.54416" lon="6.27921">
        <ele>633</ele>
        <time>2024-06-05T23:50:31+00:00</time>
      </trkpt>
      <trkpt lat="45.54416" lon="6.27922">
        <ele>633</ele>
        <time>2024-06-05T23:50:34+00:00</time>
      </trkpt>
      <trkpt lat="45.54419" lon="6.27928">
        <ele>633</ele>
        <time>2024-06-05T23:50:37+00:00</time>
      </trkpt>
      <trkpt lat="45.54438" lon="6.27956">
        <ele>631</ele>
        <time>2024-06-05T23:50:40+00:00</time>
      </trkpt>
      <trkpt lat="45.54444" lon="6.27966">
        <ele>627</ele>
        <time>2024-06-05T23:50:43+00:00</time>
      </trkpt>
      <trkpt lat="45.54459" lon="6.27984">
        <ele>622</ele>
        <time>2024-06-05T23:50:46+00:00</time>
      </trkpt>
      <trkpt lat="45.54475" lon="6.28002">
        <ele>619</ele>
        <time>2024-06-05T23:50:49+00:00</time>
      </trkpt>
      <trkpt lat="45.5451" lon="6.28034">
        <ele>613</ele>
        <time>2024-06-05T23:50:52+00:00</time>
      </trkpt>
      <trkpt lat="45.54547" lon="6.28075">
        <ele>610</ele>
        <time>2024-06-05T23:50:55+00:00</time>
      </trkpt>
      <trkpt lat="45.54575" lon="6.28116">
        <ele>600</ele>
        <time>2024-06-05T23:50:58+00:00</time>
      </trkpt>
      <trkpt lat="45.546" lon="6.2815">
        <ele>594</ele>
        <time>2024-06-05T23:51:01+00:00</time>
      </trkpt>
      <trkpt lat="45.54619" lon="6.28172">
        <ele>590</ele>
        <time>2024-06-05T23:51:04+00:00</time>
      </trkpt>
      <trkpt lat="45.54629" lon="6.28183">
        <ele>589</ele>
        <time>2024-06-05T23:51:07+00:00</time>
      </trkpt>
      <trkpt lat="45.5464" lon="6.28194">
        <ele>589</ele>
        <time>2024-06-05T23:51:10+00:00</time>
      </trkpt>
      <trkpt lat="45.54648" lon="6.28204">
        <ele>587</ele>
        <time>2024-06-05T23:51:13+00:00</time>
      </trkpt>
      <trkpt lat="45.54661" lon="6.28218">
        <ele>589</ele>
        <time>2024-06-05T23:51:16+00:00</time>
      </trkpt>
      <trkpt lat="45.54672" lon="6.28229">
        <ele>588</ele>
        <time>2024-06-05T23:51:19+00:00</time>
      </trkpt>
      <trkpt lat="45.54679" lon="6.28237">
        <ele>582</ele>
        <time>2024-06-05T23:51:22+00:00</time>
      </trkpt>
      <trkpt lat="45.54681" lon="6.2824">
        <ele>584</ele>
        <time>2024-06-05T23:51:25+00:00</time>
      </trkpt>
      <trkpt lat="45.5469" lon="6.28251">
        <ele>578</ele>
        <time>2024-06-05T23:51:28+00:00</time>
      </trkpt>
      <trkpt lat="45.54705" lon="6.28267">
        <ele>577</ele>
        <time>2024-06-05T23:51:31+00:00</time>
      </trkpt>
      <trkpt lat="45.54714" lon="6.28274">
        <ele>576</ele>
        <time>2024-06-05T23:51:34+00:00</time>
      </trkpt>
      <trkpt lat="45.54721" lon="6.2828">
        <ele>577</ele>
        <time>2024-06-05T23:51:37+00:00</time>
      </trkpt>
      <trkpt lat="45.5473" lon="6.28287">
        <ele>574</ele>
        <time>2024-06-05T23:51:40+00:00</time>
      </trkpt>
      <trkpt lat="45.54761" lon="6.2832">
        <ele>572</ele>
        <time>2024-06-05T23:51:43+00:00</time>
      </trkpt>
      <trkpt lat="45.54771" lon="6.2833">
        <ele>566</ele>
        <time>2024-06-05T23:51:46+00:00</time>
      </trkpt>
      <trkpt lat="45.54779" lon="6.28337">
        <ele>566</ele>
        <time>2024-06-05T23:51:49+00:00</time>
      </trkpt>
      <trkpt lat="45.5479" lon="6.28345">
        <ele>564</ele>
        <time>2024-06-05T23:51:52+00:00</time>
      </trkpt>
      <trkpt lat="45.54799" lon="6.2835">
        <ele>565</ele>
        <time>2024-06-05T23:51:55+00:00</time>
      </trkpt>
      <trkpt lat="45.54808" lon="6.28354">
        <ele>561</ele>
        <time>2024-06-05T23:51:58+00:00</time>
      </trkpt>
      <trkpt lat="45.54815" lon="6.28357">
        <ele>561</ele>
        <time>2024-06-05T23:52:01+00:00</time>
      </trkpt>
      <trkpt lat="45.54833" lon="6.28364">
        <ele>558</ele>
        <time>2024-06-05T23:52:04+00:00</time>
      </trkpt>
      <trkpt lat="45.54857" lon="6.28373">
        <ele>556</ele>
        <time>2024-06-05T23:52:07+00:00</time>
      </trkpt>
      <trkpt lat="45.54872" lon="6.2838">
        <ele>556</ele>
        <time>2024-06-05T23:52:10+00:00</time>
      </trkpt>
      <trkpt lat="45.54888" lon="6.28386">
        <ele>553</ele>
        <time>2024-06-05T23:52:13+00:00</time>
      </trkpt>
      <trkpt lat="45.54897" lon="6.28394">
        <ele>552</ele>
        <time>2024-06-05T23:52:16+00:00</time>
      </trkpt>
      <trkpt lat="45.54914" lon="6.28404">
        <ele>550</ele>
        <time>2024-06-05T23:52:19+00:00</time>
      </trkpt>
      <trkpt lat="45.54923" lon="6.28408">
        <ele>550</ele>
        <time>2024-06-05T23:52:22+00:00</time>
      </trkpt>
      <trkpt lat="45.54928" lon="6.28411">
        <ele>547</ele>
        <time>2024-06-05T23:52:25+00:00</time>
      </trkpt>
      <trkpt lat="45.54933" lon="6.28411">
        <ele>548</ele>
        <time>2024-06-05T23:52:28+00:00</time>
      </trkpt>
      <trkpt lat="45.54939" lon="6.28409">
        <ele>550</ele>
        <time>2024-06-05T23:52:31+00:00</time>
      </trkpt>
      <trkpt lat="45.54947" lon="6.28404">
        <ele>549</ele>
        <time>2024-06-05T23:52:34+00:00</time>
      </trkpt>
      <trkpt lat="45.54954" lon="6.28401">
        <ele>547</ele>
        <time>2024-06-05T23:52:37+00:00</time>
      </trkpt>
      <trkpt lat="45.54961" lon="6.28403">
        <ele>546</ele>
        <time>2024-06-05T23:52:40+00:00</time>
      </trkpt>
      <trkpt lat="45.54965" lon="6.28409">
        <ele>546</ele>
        <time>2024-06-05T23:52:43+00:00</time>
      </trkpt>
      <trkpt lat="45.54964" lon="6.2841">
        <ele>545</ele>
        <time>2024-06-05T23:52:46+00:00</time>
      </trkpt>
      <trkpt lat="45.54953" lon="6.28424">
        <ele>544</ele>
        <time>2024-06-05T23:52:49+00:00</time>
      </trkpt>
      <trkpt lat="45.54949" lon="6.28427">
        <ele>545</ele>
        <time>2024-06-05T23:52:52+00:00</time>
      </trkpt>
      <trkpt lat="45.54942" lon="6.28431">
        <ele>543</ele>
        <time>2024-06-05T23:52:55+00:00</time>
      </trkpt>
      <trkpt lat="45.54939" lon="6.28433">
        <ele>543</ele>
        <time>2024-06-05T23:52:58+00:00</time>
      </trkpt>
      <trkpt lat="45.54937" lon="6.28437">
        <ele>543</ele>
        <time>2024-06-05T23:53:01+00:00</time>
      </trkpt>
      <trkpt lat="45.54936" lon="6.28441">
        <ele>542</ele>
        <time>2024-06-05T23:53:04+00:00</time>
      </trkpt>
      <trkpt lat="45.54936" lon="6.28446">
        <ele>542</ele>
        <time>2024-06-05T23:53:07+00:00</time>
      </trkpt>
      <trkpt lat="45.54937" lon="6.28451">
        <ele>541</ele>
        <time>2024-06-05T23:53:10+00:00</time>
      </trkpt>
      <trkpt lat="45.5494" lon="6.28456">
        <ele>541</ele>
        <time>2024-06-05T23:53:13+00:00</time>
      </trkpt>
      <trkpt lat="45.54959" lon="6.28458">
        <ele>539</ele>
        <time>2024-06-05T23:53:16+00:00</time>
      </trkpt>
      <trkpt lat="45.54976" lon="6.28459">
        <ele>538</ele>
        <time>2024-06-05T23:53:19+00:00</time>
      </trkpt>
      <trkpt lat="45.5499" lon="6.28459">
        <ele>537</ele>
        <time>2024-06-05T23:53:22+00:00</time>
      </trkpt>
      <trkpt lat="45.54994" lon="6.28458">
        <ele>536</ele>
        <time>2024-06-05T23:53:25+00:00</time>
      </trkpt>
      <trkpt lat="45.55" lon="6.28456">
        <ele>535</ele>
        <time>2024-06-05T23:53:28+00:00</time>
      </trkpt>
      <trkpt lat="45.55004" lon="6.28454">
        <ele>535</ele>
        <time>2024-06-05T23:53:31+00:00</time>
      </trkpt>
      <trkpt lat="45.55008" lon="6.28453">
        <ele>535</ele>
        <time>2024-06-05T23:53:34+00:00</time>
      </trkpt>
      <trkpt lat="45.55012" lon="6.28456">
        <ele>534</ele>
        <time>2024-06-05T23:53:37+00:00</time>
      </trkpt>
      <trkpt lat="45.55013" lon="6.28461">
        <ele>534</ele>
        <time>2024-06-05T23:53:40+00:00</time>
      </trkpt>
      <trkpt lat="45.55011" lon="6.2847">
        <ele>533</ele>
        <time>2024-06-05T23:53:43+00:00</time>
      </trkpt>
      <trkpt lat="45.55" lon="6.28491">
        <ele>532</ele>
        <time>2024-06-05T23:53:46+00:00</time>
      </trkpt>
      <trkpt lat="45.54989" lon="6.28507">
        <ele>532</ele>
        <time>2024-06-05T23:53:49+00:00</time>
      </trkpt>
      <trkpt lat="45.54986" lon="6.28533">
        <ele>527</ele>
        <time>2024-06-05T23:53:52+00:00</time>
      </trkpt>
      <trkpt lat="45.54981" lon="6.28565">
        <ele>519</ele>
        <time>2024-06-05T23:53:55+00:00</time>
      </trkpt>
      <trkpt lat="45.54977" lon="6.28587">
        <ele>517</ele>
        <time>2024-06-05T23:53:58+00:00</time>
      </trkpt>
      <trkpt lat="45.54962" lon="6.28613">
        <ele>506</ele>
        <time>2024-06-05T23:54:01+00:00</time>
      </trkpt>
      <trkpt lat="45.54931" lon="6.28631">
        <ele>501</ele>
        <time>2024-06-05T23:54:04+00:00</time>
      </trkpt>
      <trkpt lat="45.54906" lon="6.28638">
        <ele>501</ele>
        <time>2024-06-05T23:54:07+00:00</time>
      </trkpt>
      <trkpt lat="45.54876" lon="6.28645">
        <ele>493</ele>
        <time>2024-06-05T23:54:10+00:00</time>
      </trkpt>
      <trkpt lat="45.54844" lon="6.28649">
        <ele>488</ele>
        <time>2024-06-05T23:54:13+00:00</time>
      </trkpt>
      <trkpt lat="45.54816" lon="6.28642">
        <ele>481</ele>
        <time>2024-06-05T23:54:16+00:00</time>
      </trkpt>
      <trkpt lat="45.54772" lon="6.28621">
        <ele>469</ele>
        <time>2024-06-05T23:54:19+00:00</time>
      </trkpt>
      <trkpt lat="45.54751" lon="6.28615">
        <ele>464</ele>
        <time>2024-06-05T23:54:22+00:00</time>
      </trkpt>
      <trkpt lat="45.54746" lon="6.28614">
        <ele>464</ele>
        <time>2024-06-05T23:54:25+00:00</time>
      </trkpt>
      <trkpt lat="45.54735" lon="6.28607">
        <ele>464</ele>
        <time>2024-06-05T23:54:28+00:00</time>
      </trkpt>
      <trkpt lat="45.54731" lon="6.2861">
        <ele>462</ele>
        <time>2024-06-05T23:54:31+00:00</time>
      </trkpt>
      <trkpt lat="45.54728" lon="6.2861">
        <ele>460</ele>
        <time>2024-06-05T23:54:34+00:00</time>
      </trkpt>
      <trkpt lat="45.5472" lon="6.28613">
        <ele>460</ele>
        <time>2024-06-05T23:54:37+00:00</time>
      </trkpt>
      <trkpt lat="45.54712" lon="6.28618">
        <ele>459</ele>
        <time>2024-06-05T23:54:40+00:00</time>
      </trkpt>
      <trkpt lat="45.54704" lon="6.28621">
        <ele>455</ele>
        <time>2024-06-05T23:54:43+00:00</time>
      </trkpt>
      <trkpt lat="45.54697" lon="6.28624">
        <ele>454</ele>
        <time>2024-06-05T23:54:46+00:00</time>
      </trkpt>
      <trkpt lat="45.54692" lon="6.2863">
        <ele>454</ele>
        <time>2024-06-05T23:54:49+00:00</time>
      </trkpt>
      <trkpt lat="45.54689" lon="6.28638">
        <ele>453</ele>
        <time>2024-06-05T23:54:52+00:00</time>
      </trkpt>
      <trkpt lat="45.54684" lon="6.28645">
        <ele>451</ele>
        <time>2024-06-05T23:54:55+00:00</time>
      </trkpt>
      <trkpt lat="45.54677" lon="6.28656">
        <ele>449</ele>
        <time>2024-06-05T23:54:58+00:00</time>
      </trkpt>
      <trkpt lat="45.54675" lon="6.28667">
        <ele>447</ele>
        <time>2024-06-05T23:55:01+00:00</time>
      </trkpt>
      <trkpt lat="45.54676" lon="6.28677">
        <ele>446</ele>
        <time>2024-06-05T23:55:04+00:00</time>
      </trkpt>
      <trkpt lat="45.54676" lon="6.28681">
        <ele>443</ele>
        <time>2024-06-05T23:55:07+00:00</time>
      </trkpt>
      <trkpt lat="45.54673" lon="6.28686">
        <ele>443</ele>
        <time>2024-06-05T23:55:10+00:00</time>
      </trkpt>
      <trkpt lat="45.54669" lon="6.28692">
        <ele>443</ele>
        <time>2024-06-05T23:55:13+00:00</time>
      </trkpt>
      <trkpt lat="45.54666" lon="6.28701">
        <ele>441</ele>
        <time>2024-06-05T23:55:16+00:00</time>
      </trkpt>
      <trkpt lat="45.54664" lon="6.28713">
        <ele>439</ele>
        <time>2024-06-05T23:55:19+00:00</time>
      </trkpt>
      <trkpt lat="45.54664" lon="6.2872">
        <ele>437</ele>
        <time>2024-06-05T23:55:22+00:00</time>
      </trkpt>
      <trkpt lat="45.54663" lon="6.28729">
        <ele>437</ele>
        <time>2024-06-05T23:55:25+00:00</time>
      </trkpt>
      <trkpt lat="45.54663" lon="6.28742">
        <ele>436</ele>
        <time>2024-06-05T23:55:28+00:00</time>
      </trkpt>
      <trkpt lat="45.54668" lon="6.2875">
        <ele>431</ele>
        <time>2024-06-05T23:55:31+00:00</time>
      </trkpt>
      <trkpt lat="45.54671" lon="6.28754">
        <ele>434</ele>
        <time>2024-06-05T23:55:34+00:00</time>
      </trkpt>
      <trkpt lat="45.54684" lon="6.28768">
        <ele>434</ele>
        <time>2024-06-05T23:55:37+00:00</time>
      </trkpt>
      <trkpt lat="45.54704" lon="6.28792">
        <ele>428</ele>
        <time>2024-06-05T23:55:40+00:00</time>
      </trkpt>
      <trkpt lat="45.54727" lon="6.28822">
        <ele>423</ele>
        <time>2024-06-05T23:55:43+00:00</time>
      </trkpt>
      <trkpt lat="45.54743" lon="6.28854">
        <ele>418</ele>
        <time>2024-06-05T23:55:46+00:00</time>
      </trkpt>
      <trkpt lat="45.5476" lon="6.28884">
        <ele>406</ele>
        <time>2024-06-05T23:55:49+00:00</time>
      </trkpt>
      <trkpt lat="45.54779" lon="6.28909">
        <ele>403</ele>
        <time>2024-06-05T23:55:52+00:00</time>
      </trkpt>
      <trkpt lat="45.54798" lon="6.28937">
        <ele>399</ele>
        <time>2024-06-05T23:55:55+00:00</time>
      </trkpt>
      <trkpt lat="45.54815" lon="6.28948">
        <ele>398</ele>
        <time>2024-06-05T23:55:58+00:00</time>
      </trkpt>
      <trkpt lat="45.54825" lon="6.28958">
        <ele>396</ele>
        <time>2024-06-05T23:56:01+00:00</time>
      </trkpt>
      <trkpt lat="45.54841" lon="6.28962">
        <ele>388</ele>
        <time>2024-06-05T23:56:04+00:00</time>
      </trkpt>
      <trkpt lat="45.54848" lon="6.2896">
        <ele>394</ele>
        <time>2024-06-05T23:56:07+00:00</time>
      </trkpt>
      <trkpt lat="45.54856" lon="6.28947">
        <ele>392</ele>
        <time>2024-06-05T23:56:10+00:00</time>
      </trkpt>
      <trkpt lat="45.5486" lon="6.28936">
        <ele>383</ele>
        <time>2024-06-05T23:56:13+00:00</time>
      </trkpt>
      <trkpt lat="45.54863" lon="6.28934">
        <ele>383</ele>
        <time>2024-06-05T23:56:16+00:00</time>
      </trkpt>
      <trkpt lat="45.54873" lon="6.28937">
        <ele>381</ele>
        <time>2024-06-05T23:56:19+00:00</time>
      </trkpt>
      <trkpt lat="45.54878" lon="6.28943">
        <ele>378</ele>
        <time>2024-06-05T23:56:22+00:00</time>
      </trkpt>
      <trkpt lat="45.54879" lon="6.28948">
        <ele>378</ele>
        <time>2024-06-05T23:56:25+00:00</time>
      </trkpt>
      <trkpt lat="45.54874" lon="6.28958">
        <ele>376</ele>
        <time>2024-06-05T23:56:28+00:00</time>
      </trkpt>
      <trkpt lat="45.54866" lon="6.28976">
        <ele>375</ele>
        <time>2024-06-05T23:56:31+00:00</time>
      </trkpt>
      <trkpt lat="45.54864" lon="6.28979">
        <ele>375</ele>
        <time>2024-06-05T23:56:34+00:00</time>
      </trkpt>
      <trkpt lat="45.54848" lon="6.29007">
        <ele>365</ele>
        <time>2024-06-05T23:56:37+00:00</time>
      </trkpt>
      <trkpt lat="45.54833" lon="6.29015">
        <ele>360</ele>
        <time>2024-06-05T23:56:40+00:00</time>
      </trkpt>
      <trkpt lat="45.54831" lon="6.29016">
        <ele>360</ele>
        <time>2024-06-05T23:56:43+00:00</time>
      </trkpt>
      <trkpt lat="45.54825" lon="6.29029">
        <ele>357</ele>
        <time>2024-06-05T23:56:46+00:00</time>
      </trkpt>
      <trkpt lat="45.5482" lon="6.2903">
        <ele>354</ele>
        <time>2024-06-05T23:56:49+00:00</time>
      </trkpt>
      <trkpt lat="45.54814" lon="6.29033">
        <ele>354</ele>
        <time>2024-06-05T23:56:52+00:00</time>
      </trkpt>
      <trkpt lat="45.54809" lon="6.29035">
        <ele>354</ele>
        <time>2024-06-05T23:56:55+00:00</time>
      </trkpt>
      <trkpt lat="45.54803" lon="6.29038">
        <ele>354</ele>
        <time>2024-06-05T23:56:58+00:00</time>
      </trkpt>
      <trkpt lat="45.54795" lon="6.29041">
        <ele>351</ele>
        <time>2024-06-05T23:57:01+00:00</time>
      </trkpt>
      <trkpt lat="45.54788" lon="6.29043">
        <ele>350</ele>
        <time>2024-06-05T23:57:04+00:00</time>
      </trkpt>
      <trkpt lat="45.54777" lon="6.29045">
        <ele>350</ele>
        <time>2024-06-05T23:57:07+00:00</time>
      </trkpt>
      <trkpt lat="45.54766" lon="6.29045">
        <ele>349</ele>
        <time>2024-06-05T23:57:10+00:00</time>
      </trkpt>
      <trkpt lat="45.54756" lon="6.29044">
        <ele>347</ele>
        <time>2024-06-05T23:57:13+00:00</time>
      </trkpt>
      <trkpt lat="45.54746" lon="6.29042">
        <ele>345</ele>
        <time>2024-06-05T23:57:16+00:00</time>
      </trkpt>
      <trkpt lat="45.54738" lon="6.29039">
        <ele>346</ele>
        <time>2024-06-05T23:57:19+00:00</time>
      </trkpt>
      <trkpt lat="45.5473" lon="6.29036">
        <ele>343</ele>
        <time>2024-06-05T23:57:22+00:00</time>
      </trkpt>
      <trkpt lat="45.54723" lon="6.29032">
        <ele>343</ele>
        <time>2024-06-05T23:57:25+00:00</time>
      </trkpt>
      <trkpt lat="45.54719" lon="6.29032">
        <ele>343</ele>
        <time>2024-06-05T23:57:28+00:00</time>
      </trkpt>
      <trkpt lat="45.54714" lon="6.29038">
        <ele>343</ele>
        <time>2024-06-05T23:57:31+00:00</time>
      </trkpt>
      <trkpt lat="45.54713" lon="6.29041">
        <ele>342</ele>
        <time>2024-06-05T23:57:34+00:00</time>
      </trkpt>
      <trkpt lat="45.54713" lon="6.29041">
        <ele>342</ele>
        <time>2024-06-05T23:57:37+00:00</time>
      </trkpt>
      <trkpt lat="45.54713" lon="6.29044">
        <ele>342</ele>
        <time>2024-06-05T23:57:40+00:00</time>
      </trkpt>
      <trkpt lat="45.54714" lon="6.29049">
        <ele>342</ele>
        <time>2024-06-05T23:57:43+00:00</time>
      </trkpt>
      <trkpt lat="45.54716" lon="6.29053">
        <ele>341</ele>
        <time>2024-06-05T23:57:46+00:00</time>
      </trkpt>
      <trkpt lat="45.5472" lon="6.29057">
        <ele>341</ele>
        <time>2024-06-05T23:57:49+00:00</time>
      </trkpt>
      <trkpt lat="45.54727" lon="6.29062">
        <ele>340</ele>
        <time>2024-06-05T23:57:52+00:00</time>
      </trkpt>
      <trkpt lat="45.54735" lon="6.29066">
        <ele>340</ele>
        <time>2024-06-05T23:57:55+00:00</time>
      </trkpt>
      <trkpt lat="45.54753" lon="6.29079">
        <ele>339</ele>
        <time>2024-06-05T23:57:58+00:00</time>
      </trkpt>
      <trkpt lat="45.54759" lon="6.29082">
        <ele>338</ele>
        <time>2024-06-05T23:58:01+00:00</time>
      </trkpt>
      <trkpt lat="45.54763" lon="6.29087">
        <ele>337</ele>
        <time>2024-06-05T23:58:04+00:00</time>
      </trkpt>
      <trkpt lat="45.54765" lon="6.29096">
        <ele>336</ele>
        <time>2024-06-05T23:58:07+00:00</time>
      </trkpt>
      <trkpt lat="45.54762" lon="6.29109">
        <ele>335</ele>
        <time>2024-06-05T23:58:10+00:00</time>
      </trkpt>
      <trkpt lat="45.54757" lon="6.29123">
        <ele>334</ele>
        <time>2024-06-05T23:58:13+00:00</time>
      </trkpt>
      <trkpt lat="45.54752" lon="6.29142">
        <ele>333</ele>
        <time>2024-06-05T23:58:16+00:00</time>
      </trkpt>
      <trkpt lat="45.54747" lon="6.29156">
        <ele>333</ele>
        <time>2024-06-05T23:58:19+00:00</time>
      </trkpt>
      <trkpt lat="45.54744" lon="6.29162">
        <ele>332</ele>
        <time>2024-06-05T23:58:22+00:00</time>
      </trkpt>
      <trkpt lat="45.54741" lon="6.29166">
        <ele>332</ele>
        <time>2024-06-05T23:58:25+00:00</time>
      </trkpt>
      <trkpt lat="45.54737" lon="6.2917">
        <ele>332</ele>
        <time>2024-06-05T23:58:28+00:00</time>
      </trkpt>
      <trkpt lat="45.54734" lon="6.29173">
        <ele>332</ele>
        <time>2024-06-05T23:58:31+00:00</time>
      </trkpt>
      <trkpt lat="45.54722" lon="6.29183">
        <ele>331</ele>
        <time>2024-06-05T23:58:34+00:00</time>
      </trkpt>
      <trkpt lat="45.5471" lon="6.2919">
        <ele>330</ele>
        <time>2024-06-05T23:58:37+00:00</time>
      </trkpt>
      <trkpt lat="45.54698" lon="6.29195">
        <ele>330</ele>
        <time>2024-06-05T23:58:40+00:00</time>
      </trkpt>
      <trkpt lat="45.54687" lon="6.29199">
        <ele>330</ele>
        <time>2024-06-05T23:58:43+00:00</time>
      </trkpt>
      <trkpt lat="45.54679" lon="6.29204">
        <ele>329</ele>
        <time>2024-06-05T23:58:46+00:00</time>
      </trkpt>
      <trkpt lat="45.54671" lon="6.2921">
        <ele>329</ele>
        <time>2024-06-05T23:58:49+00:00</time>
      </trkpt>
      <trkpt lat="45.54663" lon="6.29219">
        <ele>329</ele>
        <time>2024-06-05T23:58:52+00:00</time>
      </trkpt>
      <trkpt lat="45.54655" lon="6.29234">
        <ele>329</ele>
        <time>2024-06-05T23:58:55+00:00</time>
      </trkpt>
      <trkpt lat="45.54645" lon="6.29259">
        <ele>329</ele>
        <time>2024-06-05T23:58:58+00:00</time>
      </trkpt>
      <trkpt lat="45.54635" lon="6.29281">
        <ele>327</ele>
        <time>2024-06-05T23:59:01+00:00</time>
      </trkpt>
      <trkpt lat="45.54625" lon="6.29299">
        <ele>328</ele>
        <time>2024-06-05T23:59:04+00:00</time>
      </trkpt>
      <trkpt lat="45.54612" lon="6.29316">
        <ele>327</ele>
        <time>2024-06-05T23:59:07+00:00</time>
      </trkpt>
      <trkpt lat="45.54599" lon="6.29337">
        <ele>328</ele>
        <time>2024-06-05T23:59:10+00:00</time>
      </trkpt>
      <trkpt lat="45.54594" lon="6.29347">
        <ele>328</ele>
        <time>2024-06-05T23:59:13+00:00</time>
      </trkpt>
      <trkpt lat="45.5459" lon="6.29362">
        <ele>328</ele>
        <time>2024-06-05T23:59:16+00:00</time>
      </trkpt>
      <trkpt lat="45.54587" lon="6.29382">
        <ele>328</ele>
        <time>2024-06-05T23:59:19+00:00</time>
      </trkpt>
      <trkpt lat="45.54585" lon="6.29392">
        <ele>324</ele>
        <time>2024-06-05T23:59:22+00:00</time>
      </trkpt>
      <trkpt lat="45.54584" lon="6.29402">
        <ele>322</ele>
        <time>2024-06-05T23:59:25+00:00</time>
      </trkpt>
      <trkpt lat="45.54584" lon="6.29402">
        <ele>322</ele>
        <time>2024-06-05T23:59:28+00:00</time>
      </trkpt>
      <trkpt lat="45.54584" lon="6.29404">
        <ele>322</ele>
        <time>2024-06-05T23:59:31+00:00</time>
      </trkpt>
      <trkpt lat="45.54582" lon="6.29418">
        <ele>322</ele>
        <time>2024-06-05T23:59:34+00:00</time>
      </trkpt>
      <trkpt lat="45.54581" lon="6.29428">
        <ele>324</ele>
        <time>2024-06-05T23:59:37+00:00</time>
      </trkpt>
      <trkpt lat="45.5458" lon="6.29437">
        <ele>321</ele>
        <time>2024-06-05T23:59:40+00:00</time>
      </trkpt>
      <trkpt lat="45.54579" lon="6.2944">
        <ele>321</ele>
        <time>2024-06-05T23:59:43+00:00</time>
      </trkpt>
      <trkpt lat="45.54573" lon="6.29488">
        <ele>323</ele>
        <time>2024-06-05T23:59:46+00:00</time>
      </trkpt>
      <trkpt lat="45.54568" lon="6.2953">
        <ele>322</ele>
        <time>2024-06-05T23:59:49+00:00</time>
      </trkpt>
      <trkpt lat="45.54564" lon="6.29565">
        <ele>320</ele>
        <time>2024-06-05T23:59:52+00:00</time>
      </trkpt>
      <trkpt lat="45.54558" lon="6.2963">
        <ele>320</ele>
        <time>2024-06-05T23:59:55+00:00</time>
      </trkpt>
      <trkpt lat="45.54544" lon="6.29677">
        <ele>319</ele>
        <time>2024-06-05T23:59:58+00:00</time>
      </trkpt>
      <trkpt lat="45.54534" lon="6.29701">
        <ele>319</ele>
        <time>2024-06-06T00:00:01+00:00</time>
      </trkpt>
      <trkpt lat="45.54522" lon="6.29731">
        <ele>319</ele>
        <time>2024-06-06T00:00:04+00:00</time>
      </trkpt>
      <trkpt lat="45.54509" lon="6.29761">
        <ele>319</ele>
        <time>2024-06-06T00:00:07+00:00</time>
      </trkpt>
      <trkpt lat="45.54506" lon="6.29763">
        <ele>319</ele>
        <time>2024-06-06T00:00:10+00:00</time>
      </trkpt>
      <trkpt lat="45.54505" lon="6.29763">
        <ele>319</ele>
        <time>2024-06-06T00:00:13+00:00</time>
      </trkpt>
      <trkpt lat="45.54499" lon="6.29766">
        <ele>318</ele>
        <time>2024-06-06T00:00:16+00:00</time>
      </trkpt>
      <trkpt lat="45.54474" lon="6.2979">
        <ele>318</ele>
        <time>2024-06-06T00:00:19+00:00</time>
      </trkpt>
      <trkpt lat="45.54469" lon="6.29795">
        <ele>318</ele>
        <time>2024-06-06T00:00:22+00:00</time>
      </trkpt>
      <trkpt lat="45.54459" lon="6.29806">
        <ele>318</ele>
        <time>2024-06-06T00:00:25+00:00</time>
      </trkpt>
      <trkpt lat="45.54437" lon="6.29826">
        <ele>318</ele>
        <time>2024-06-06T00:00:28+00:00</time>
      </trkpt>
      <trkpt lat="45.54409" lon="6.29852">
        <ele>318</ele>
        <time>2024-06-06T00:00:31+00:00</time>
      </trkpt>
      <trkpt lat="45.54392" lon="6.29865">
        <ele>318</ele>
        <time>2024-06-06T00:00:34+00:00</time>
      </trkpt>
      <trkpt lat="45.54359" lon="6.29896">
        <ele>318</ele>
        <time>2024-06-06T00:00:37+00:00</time>
      </trkpt>
      <trkpt lat="45.54341" lon="6.29919">
        <ele>318</ele>
        <time>2024-06-06T00:00:40+00:00</time>
      </trkpt>
      <trkpt lat="45.54322" lon="6.29942">
        <ele>318</ele>
        <time>2024-06-06T00:00:43+00:00</time>
      </trkpt>
      <trkpt lat="45.54322" lon="6.29942">
        <ele>318</ele>
        <time>2024-06-06T00:00:46+00:00</time>
      </trkpt>
      <trkpt lat="45.54294" lon="6.29982">
        <ele>319</ele>
        <time>2024-06-06T00:00:49+00:00</time>
      </trkpt>
      <trkpt lat="45.54275" lon="6.3001">
        <ele>319</ele>
        <time>2024-06-06T00:00:52+00:00</time>
      </trkpt>
      <trkpt lat="45.54244" lon="6.30056">
        <ele>319</ele>
        <time>2024-06-06T00:00:55+00:00</time>
      </trkpt>
      <trkpt lat="45.54238" lon="6.30067">
        <ele>319</ele>
        <time>2024-06-06T00:00:58+00:00</time>
      </trkpt>
      <trkpt lat="45.54241" lon="6.30071">
        <ele>319</ele>
        <time>2024-06-06T00:01:01+00:00</time>
      </trkpt>
      <trkpt lat="45.54242" lon="6.30072">
        <ele>319</ele>
        <time>2024-06-06T00:01:04+00:00</time>
      </trkpt>
      <trkpt lat="45.54261" lon="6.30095">
        <ele>319</ele>
        <time>2024-06-06T00:01:07+00:00</time>
      </trkpt>
      <trkpt lat="45.54264" lon="6.30099">
        <ele>319</ele>
        <time>2024-06-06T00:01:10+00:00</time>
      </trkpt>
      <trkpt lat="45.5428" lon="6.30119">
        <ele>319</ele>
        <time>2024-06-06T00:01:13+00:00</time>
      </trkpt>
      <trkpt lat="45.54287" lon="6.30127">
        <ele>319</ele>
        <time>2024-06-06T00:01:16+00:00</time>
      </trkpt>
      <trkpt lat="45.543" lon="6.30141">
        <ele>319</ele>
        <time>2024-06-06T00:01:19+00:00</time>
      </trkpt>
      <trkpt lat="45.54304" lon="6.30145">
        <ele>319</ele>
        <time>2024-06-06T00:01:22+00:00</time>
      </trkpt>
      <trkpt lat="45.54307" lon="6.30149">
        <ele>319</ele>
        <time>2024-06-06T00:01:25+00:00</time>
      </trkpt>
      <trkpt lat="45.54312" lon="6.30156">
        <ele>319</ele>
        <time>2024-06-06T00:01:28+00:00</time>
      </trkpt>
      <trkpt lat="45.54326" lon="6.30173">
        <ele>319</ele>
        <time>2024-06-06T00:01:31+00:00</time>
      </trkpt>
      <trkpt lat="45.54341" lon="6.30192">
        <ele>319</ele>
        <time>2024-06-06T00:01:34+00:00</time>
      </trkpt>
      <trkpt lat="45.54342" lon="6.30215">
        <ele>320</ele>
        <time>2024-06-06T00:01:37+00:00</time>
      </trkpt>
      <trkpt lat="45.54366" lon="6.30236">
        <ele>320</ele>
        <time>2024-06-06T00:01:40+00:00</time>
      </trkpt>
      <trkpt lat="45.54389" lon="6.30249">
        <ele>320</ele>
        <time>2024-06-06T00:01:43+00:00</time>
      </trkpt>
      <trkpt lat="45.54413" lon="6.30262">
        <ele>320</ele>
        <time>2024-06-06T00:01:46+00:00</time>
      </trkpt>
      <trkpt lat="45.54447" lon="6.30269">
        <ele>320</ele>
        <time>2024-06-06T00:01:49+00:00</time>
      </trkpt>
      <trkpt lat="45.54463" lon="6.30273">
        <ele>320</ele>
        <time>2024-06-06T00:01:52+00:00</time>
      </trkpt>
      <trkpt lat="45.5447" lon="6.30281">
        <ele>320</ele>
        <time>2024-06-06T00:01:55+00:00</time>
      </trkpt>
      <trkpt lat="45.54486" lon="6.30275">
        <ele>320</ele>
        <time>2024-06-06T00:01:58+00:00</time>
      </trkpt>
      <trkpt lat="45.54509" lon="6.30267">
        <ele>319</ele>
        <time>2024-06-06T00:02:01+00:00</time>
      </trkpt>
      <trkpt lat="45.54522" lon="6.30259">
        <ele>319</ele>
        <time>2024-06-06T00:02:04+00:00</time>
      </trkpt>
      <trkpt lat="45.54534" lon="6.30245">
        <ele>319</ele>
        <time>2024-06-06T00:02:07+00:00</time>
      </trkpt>
      <trkpt lat="45.54542" lon="6.30233">
        <ele>319</ele>
        <time>2024-06-06T00:02:10+00:00</time>
      </trkpt>
    </trkseg>
  </trk>
</gpx>